<?xml version="1.0" encoding="UTF-8" standalone="no" ?>
<gpx xmlns="http://www.topografix.com/GPX/1/1" xmlns:xsi="http://www.w3.org/2001/XMLSchema-instance" xsi:schemaLocation="http://www.topografix.com/GPX/1/1 http://www.topografix.com/GPX/1/1/gpx.xsd" version="1.1" creator="VisuGPX - https://www.visugpx.com">
  <metadata>
    <name>Trace Pourpre 2023</name>
  </metadata>
  <trk>
    <name><![CDATA[Trace Pourpre 2023_1]]></name>
    <trkseg>
      <trkpt lat="44.86588" lon="0.5416">
        <ele>74</ele>
        <time>2023-08-06T06:12:30Z</time>
      </trkpt>
      <trkpt lat="44.86588" lon="0.5416">
        <ele>74</ele>
        <time>2023-08-06T06:12:31Z</time>
      </trkpt>
      <trkpt lat="44.86582" lon="0.5416">
        <ele>74</ele>
        <time>2023-08-06T06:12:35Z</time>
      </trkpt>
      <trkpt lat="44.8658" lon="0.54162">
        <ele>74</ele>
        <time>2023-08-06T06:12:36Z</time>
      </trkpt>
      <trkpt lat="44.86576" lon="0.54169">
        <ele>73.9</ele>
        <time>2023-08-06T06:12:38Z</time>
      </trkpt>
      <trkpt lat="44.86576" lon="0.54173">
        <ele>73.8</ele>
        <time>2023-08-06T06:12:39Z</time>
      </trkpt>
      <trkpt lat="44.86576" lon="0.54177">
        <ele>73.7</ele>
        <time>2023-08-06T06:12:40Z</time>
      </trkpt>
      <trkpt lat="44.86578" lon="0.54184">
        <ele>73.6</ele>
        <time>2023-08-06T06:12:42Z</time>
      </trkpt>
      <trkpt lat="44.8658" lon="0.54193">
        <ele>73.4</ele>
        <time>2023-08-06T06:12:44Z</time>
      </trkpt>
      <trkpt lat="44.86581" lon="0.54201">
        <ele>73.3</ele>
        <time>2023-08-06T06:12:46Z</time>
      </trkpt>
      <trkpt lat="44.86582" lon="0.54204">
        <ele>73.2</ele>
        <time>2023-08-06T06:12:47Z</time>
      </trkpt>
      <trkpt lat="44.86582" lon="0.54208">
        <ele>73.1</ele>
        <time>2023-08-06T06:12:48Z</time>
      </trkpt>
      <trkpt lat="44.86583" lon="0.54216">
        <ele>72.9</ele>
        <time>2023-08-06T06:12:50Z</time>
      </trkpt>
      <trkpt lat="44.86585" lon="0.54225">
        <ele>72.8</ele>
        <time>2023-08-06T06:12:52Z</time>
      </trkpt>
      <trkpt lat="44.86585" lon="0.54228">
        <ele>72.7</ele>
        <time>2023-08-06T06:12:53Z</time>
      </trkpt>
      <trkpt lat="44.86585" lon="0.54232">
        <ele>72.7</ele>
        <time>2023-08-06T06:12:54Z</time>
      </trkpt>
      <trkpt lat="44.86584" lon="0.54241">
        <ele>72.5</ele>
        <time>2023-08-06T06:12:56Z</time>
      </trkpt>
      <trkpt lat="44.86583" lon="0.54251">
        <ele>72.4</ele>
        <time>2023-08-06T06:12:58Z</time>
      </trkpt>
      <trkpt lat="44.8658" lon="0.5426">
        <ele>72.3</ele>
        <time>2023-08-06T06:13:00Z</time>
      </trkpt>
      <trkpt lat="44.86578" lon="0.54264">
        <ele>72.2</ele>
        <time>2023-08-06T06:13:01Z</time>
      </trkpt>
      <trkpt lat="44.86575" lon="0.54267">
        <ele>72.2</ele>
        <time>2023-08-06T06:13:02Z</time>
      </trkpt>
      <trkpt lat="44.8657" lon="0.5427">
        <ele>72.2</ele>
        <time>2023-08-06T06:13:04Z</time>
      </trkpt>
      <trkpt lat="44.86564" lon="0.54273">
        <ele>72.1</ele>
        <time>2023-08-06T06:13:06Z</time>
      </trkpt>
      <trkpt lat="44.86557" lon="0.54275">
        <ele>72.1</ele>
        <time>2023-08-06T06:13:08Z</time>
      </trkpt>
      <trkpt lat="44.86551" lon="0.54278">
        <ele>72.1</ele>
        <time>2023-08-06T06:13:10Z</time>
      </trkpt>
      <trkpt lat="44.86548" lon="0.5428">
        <ele>72.2</ele>
        <time>2023-08-06T06:13:11Z</time>
      </trkpt>
      <trkpt lat="44.86545" lon="0.54282">
        <ele>72.2</ele>
        <time>2023-08-06T06:13:12Z</time>
      </trkpt>
      <trkpt lat="44.86539" lon="0.54286">
        <ele>72.3</ele>
        <time>2023-08-06T06:13:14Z</time>
      </trkpt>
      <trkpt lat="44.86534" lon="0.54291">
        <ele>72.4</ele>
        <time>2023-08-06T06:13:16Z</time>
      </trkpt>
      <trkpt lat="44.86531" lon="0.54292">
        <ele>72.5</ele>
        <time>2023-08-06T06:13:17Z</time>
      </trkpt>
      <trkpt lat="44.86529" lon="0.54293">
        <ele>72.6</ele>
        <time>2023-08-06T06:13:18Z</time>
      </trkpt>
      <trkpt lat="44.86524" lon="0.54296">
        <ele>72.7</ele>
        <time>2023-08-06T06:13:20Z</time>
      </trkpt>
      <trkpt lat="44.86521" lon="0.54298">
        <ele>72.9</ele>
        <time>2023-08-06T06:13:21Z</time>
      </trkpt>
      <trkpt lat="44.86519" lon="0.543">
        <ele>72.9</ele>
        <time>2023-08-06T06:13:22Z</time>
      </trkpt>
      <trkpt lat="44.86519" lon="0.54303">
        <ele>73.1</ele>
        <time>2023-08-06T06:13:23Z</time>
      </trkpt>
      <trkpt lat="44.86519" lon="0.54307">
        <ele>73.3</ele>
        <time>2023-08-06T06:13:24Z</time>
      </trkpt>
      <trkpt lat="44.86519" lon="0.54314">
        <ele>73.7</ele>
        <time>2023-08-06T06:13:26Z</time>
      </trkpt>
      <trkpt lat="44.8652" lon="0.54318">
        <ele>73.7</ele>
        <time>2023-08-06T06:13:27Z</time>
      </trkpt>
      <trkpt lat="44.8652" lon="0.54322">
        <ele>74.2</ele>
        <time>2023-08-06T06:13:28Z</time>
      </trkpt>
      <trkpt lat="44.86522" lon="0.54331">
        <ele>74.4</ele>
        <time>2023-08-06T06:13:30Z</time>
      </trkpt>
      <trkpt lat="44.86523" lon="0.54334">
        <ele>74.7</ele>
        <time>2023-08-06T06:13:31Z</time>
      </trkpt>
      <trkpt lat="44.86524" lon="0.54337">
        <ele>74.9</ele>
        <time>2023-08-06T06:13:32Z</time>
      </trkpt>
      <trkpt lat="44.86525" lon="0.5434">
        <ele>75.2</ele>
        <time>2023-08-06T06:13:33Z</time>
      </trkpt>
      <trkpt lat="44.86526" lon="0.54345">
        <ele>75.5</ele>
        <time>2023-08-06T06:13:34Z</time>
      </trkpt>
      <trkpt lat="44.86529" lon="0.54353">
        <ele>76.1</ele>
        <time>2023-08-06T06:13:36Z</time>
      </trkpt>
      <trkpt lat="44.86532" lon="0.54361">
        <ele>76.9</ele>
        <time>2023-08-06T06:13:38Z</time>
      </trkpt>
      <trkpt lat="44.86534" lon="0.54366">
        <ele>77.4</ele>
        <time>2023-08-06T06:13:39Z</time>
      </trkpt>
      <trkpt lat="44.86536" lon="0.5437">
        <ele>77.7</ele>
        <time>2023-08-06T06:13:40Z</time>
      </trkpt>
      <trkpt lat="44.86538" lon="0.54379">
        <ele>78.6</ele>
        <time>2023-08-06T06:13:42Z</time>
      </trkpt>
      <trkpt lat="44.86541" lon="0.54386">
        <ele>79</ele>
        <time>2023-08-06T06:13:44Z</time>
      </trkpt>
      <trkpt lat="44.86545" lon="0.54394">
        <ele>79.8</ele>
        <time>2023-08-06T06:13:46Z</time>
      </trkpt>
      <trkpt lat="44.86548" lon="0.54402">
        <ele>80.5</ele>
        <time>2023-08-06T06:13:48Z</time>
      </trkpt>
      <trkpt lat="44.8655" lon="0.54406">
        <ele>80.8</ele>
        <time>2023-08-06T06:13:49Z</time>
      </trkpt>
      <trkpt lat="44.8655" lon="0.54411">
        <ele>81.1</ele>
        <time>2023-08-06T06:13:50Z</time>
      </trkpt>
      <trkpt lat="44.8655" lon="0.5442">
        <ele>81.6</ele>
        <time>2023-08-06T06:13:52Z</time>
      </trkpt>
      <trkpt lat="44.86551" lon="0.54423">
        <ele>81.8</ele>
        <time>2023-08-06T06:13:53Z</time>
      </trkpt>
      <trkpt lat="44.86552" lon="0.54427">
        <ele>82.1</ele>
        <time>2023-08-06T06:13:54Z</time>
      </trkpt>
      <trkpt lat="44.86551" lon="0.54434">
        <ele>82.2</ele>
        <time>2023-08-06T06:13:56Z</time>
      </trkpt>
      <trkpt lat="44.86549" lon="0.54437">
        <ele>82.4</ele>
        <time>2023-08-06T06:13:57Z</time>
      </trkpt>
      <trkpt lat="44.86546" lon="0.54439">
        <ele>82.4</ele>
        <time>2023-08-06T06:13:58Z</time>
      </trkpt>
      <trkpt lat="44.86543" lon="0.54443">
        <ele>82.4</ele>
        <time>2023-08-06T06:14:00Z</time>
      </trkpt>
      <trkpt lat="44.86542" lon="0.54445">
        <ele>82.3</ele>
        <time>2023-08-06T06:14:01Z</time>
      </trkpt>
      <trkpt lat="44.86542" lon="0.54448">
        <ele>82.4</ele>
        <time>2023-08-06T06:14:02Z</time>
      </trkpt>
      <trkpt lat="44.86543" lon="0.54452">
        <ele>82.7</ele>
        <time>2023-08-06T06:14:03Z</time>
      </trkpt>
      <trkpt lat="44.86545" lon="0.54456">
        <ele>82.9</ele>
        <time>2023-08-06T06:14:04Z</time>
      </trkpt>
      <trkpt lat="44.86548" lon="0.54466">
        <ele>83.6</ele>
        <time>2023-08-06T06:14:06Z</time>
      </trkpt>
      <trkpt lat="44.86551" lon="0.54475">
        <ele>83.9</ele>
        <time>2023-08-06T06:14:08Z</time>
      </trkpt>
      <trkpt lat="44.86552" lon="0.5448">
        <ele>84.2</ele>
        <time>2023-08-06T06:14:09Z</time>
      </trkpt>
      <trkpt lat="44.86554" lon="0.54485">
        <ele>84.4</ele>
        <time>2023-08-06T06:14:10Z</time>
      </trkpt>
      <trkpt lat="44.86554" lon="0.5449">
        <ele>84.8</ele>
        <time>2023-08-06T06:14:11Z</time>
      </trkpt>
      <trkpt lat="44.86555" lon="0.54496">
        <ele>84.9</ele>
        <time>2023-08-06T06:14:12Z</time>
      </trkpt>
      <trkpt lat="44.86557" lon="0.54506">
        <ele>85.3</ele>
        <time>2023-08-06T06:14:14Z</time>
      </trkpt>
      <trkpt lat="44.8656" lon="0.54516">
        <ele>85.6</ele>
        <time>2023-08-06T06:14:16Z</time>
      </trkpt>
      <trkpt lat="44.86562" lon="0.54526">
        <ele>85.8</ele>
        <time>2023-08-06T06:14:18Z</time>
      </trkpt>
      <trkpt lat="44.86565" lon="0.54538">
        <ele>85.9</ele>
        <time>2023-08-06T06:14:20Z</time>
      </trkpt>
      <trkpt lat="44.86566" lon="0.54543">
        <ele>85.9</ele>
        <time>2023-08-06T06:14:21Z</time>
      </trkpt>
      <trkpt lat="44.86567" lon="0.54549">
        <ele>86</ele>
        <time>2023-08-06T06:14:22Z</time>
      </trkpt>
      <trkpt lat="44.86569" lon="0.5456">
        <ele>85.9</ele>
        <time>2023-08-06T06:14:24Z</time>
      </trkpt>
      <trkpt lat="44.86572" lon="0.54569">
        <ele>86</ele>
        <time>2023-08-06T06:14:26Z</time>
      </trkpt>
      <trkpt lat="44.86575" lon="0.54579">
        <ele>86.1</ele>
        <time>2023-08-06T06:14:28Z</time>
      </trkpt>
      <trkpt lat="44.86578" lon="0.54589">
        <ele>86.3</ele>
        <time>2023-08-06T06:14:30Z</time>
      </trkpt>
      <trkpt lat="44.86581" lon="0.54599">
        <ele>86.5</ele>
        <time>2023-08-06T06:14:32Z</time>
      </trkpt>
      <trkpt lat="44.86583" lon="0.5461">
        <ele>86.7</ele>
        <time>2023-08-06T06:14:34Z</time>
      </trkpt>
      <trkpt lat="44.86585" lon="0.5462">
        <ele>86.7</ele>
        <time>2023-08-06T06:14:36Z</time>
      </trkpt>
      <trkpt lat="44.86589" lon="0.54631">
        <ele>87.1</ele>
        <time>2023-08-06T06:14:38Z</time>
      </trkpt>
      <trkpt lat="44.86593" lon="0.54642">
        <ele>87.2</ele>
        <time>2023-08-06T06:14:40Z</time>
      </trkpt>
      <trkpt lat="44.86595" lon="0.54652">
        <ele>87.4</ele>
        <time>2023-08-06T06:14:42Z</time>
      </trkpt>
      <trkpt lat="44.86597" lon="0.54662">
        <ele>87.5</ele>
        <time>2023-08-06T06:14:44Z</time>
      </trkpt>
      <trkpt lat="44.866" lon="0.54671">
        <ele>87.6</ele>
        <time>2023-08-06T06:14:46Z</time>
      </trkpt>
      <trkpt lat="44.86602" lon="0.54683">
        <ele>87.7</ele>
        <time>2023-08-06T06:14:48Z</time>
      </trkpt>
      <trkpt lat="44.86605" lon="0.54696">
        <ele>87.8</ele>
        <time>2023-08-06T06:14:50Z</time>
      </trkpt>
      <trkpt lat="44.86607" lon="0.54708">
        <ele>87.9</ele>
        <time>2023-08-06T06:14:52Z</time>
      </trkpt>
      <trkpt lat="44.86608" lon="0.54713">
        <ele>87.9</ele>
        <time>2023-08-06T06:14:53Z</time>
      </trkpt>
      <trkpt lat="44.86608" lon="0.54718">
        <ele>87.8</ele>
        <time>2023-08-06T06:14:54Z</time>
      </trkpt>
      <trkpt lat="44.8661" lon="0.54729">
        <ele>87.9</ele>
        <time>2023-08-06T06:14:56Z</time>
      </trkpt>
      <trkpt lat="44.86613" lon="0.54737">
        <ele>87.9</ele>
        <time>2023-08-06T06:14:58Z</time>
      </trkpt>
      <trkpt lat="44.86618" lon="0.54743">
        <ele>88</ele>
        <time>2023-08-06T06:15:00Z</time>
      </trkpt>
      <trkpt lat="44.8662" lon="0.54743">
        <ele>88</ele>
        <time>2023-08-06T06:15:01Z</time>
      </trkpt>
      <trkpt lat="44.86623" lon="0.54745">
        <ele>88.1</ele>
        <time>2023-08-06T06:15:02Z</time>
      </trkpt>
      <trkpt lat="44.86627" lon="0.54752">
        <ele>88.1</ele>
        <time>2023-08-06T06:15:04Z</time>
      </trkpt>
      <trkpt lat="44.86633" lon="0.54757">
        <ele>88.2</ele>
        <time>2023-08-06T06:15:06Z</time>
      </trkpt>
      <trkpt lat="44.86638" lon="0.54765">
        <ele>88.2</ele>
        <time>2023-08-06T06:15:08Z</time>
      </trkpt>
      <trkpt lat="44.8664" lon="0.54767">
        <ele>88.3</ele>
        <time>2023-08-06T06:15:09Z</time>
      </trkpt>
      <trkpt lat="44.86642" lon="0.54768">
        <ele>88.3</ele>
        <time>2023-08-06T06:15:10Z</time>
      </trkpt>
      <trkpt lat="44.86647" lon="0.5477">
        <ele>88.4</ele>
        <time>2023-08-06T06:15:12Z</time>
      </trkpt>
      <trkpt lat="44.86651" lon="0.54772">
        <ele>88.5</ele>
        <time>2023-08-06T06:15:13Z</time>
      </trkpt>
      <trkpt lat="44.86654" lon="0.54774">
        <ele>88.5</ele>
        <time>2023-08-06T06:15:14Z</time>
      </trkpt>
      <trkpt lat="44.8666" lon="0.54775">
        <ele>88.8</ele>
        <time>2023-08-06T06:15:16Z</time>
      </trkpt>
      <trkpt lat="44.86663" lon="0.54777">
        <ele>88.8</ele>
        <time>2023-08-06T06:15:17Z</time>
      </trkpt>
      <trkpt lat="44.86664" lon="0.5478">
        <ele>88.9</ele>
        <time>2023-08-06T06:15:18Z</time>
      </trkpt>
      <trkpt lat="44.86666" lon="0.54783">
        <ele>88.9</ele>
        <time>2023-08-06T06:15:19Z</time>
      </trkpt>
      <trkpt lat="44.86667" lon="0.54787">
        <ele>89</ele>
        <time>2023-08-06T06:15:20Z</time>
      </trkpt>
      <trkpt lat="44.8667" lon="0.54795">
        <ele>89.1</ele>
        <time>2023-08-06T06:15:22Z</time>
      </trkpt>
      <trkpt lat="44.86675" lon="0.54801">
        <ele>89.2</ele>
        <time>2023-08-06T06:15:24Z</time>
      </trkpt>
      <trkpt lat="44.86678" lon="0.54805">
        <ele>89.2</ele>
        <time>2023-08-06T06:15:25Z</time>
      </trkpt>
      <trkpt lat="44.8668" lon="0.54809">
        <ele>89.3</ele>
        <time>2023-08-06T06:15:26Z</time>
      </trkpt>
      <trkpt lat="44.86682" lon="0.54817">
        <ele>89.5</ele>
        <time>2023-08-06T06:15:28Z</time>
      </trkpt>
      <trkpt lat="44.86683" lon="0.5482">
        <ele>89.5</ele>
        <time>2023-08-06T06:15:29Z</time>
      </trkpt>
      <trkpt lat="44.86685" lon="0.54822">
        <ele>89.6</ele>
        <time>2023-08-06T06:15:30Z</time>
      </trkpt>
      <trkpt lat="44.86689" lon="0.54824">
        <ele>89.8</ele>
        <time>2023-08-06T06:15:32Z</time>
      </trkpt>
      <trkpt lat="44.86692" lon="0.54827">
        <ele>89.9</ele>
        <time>2023-08-06T06:15:34Z</time>
      </trkpt>
      <trkpt lat="44.86693" lon="0.54829">
        <ele>89.9</ele>
        <time>2023-08-06T06:15:35Z</time>
      </trkpt>
      <trkpt lat="44.86694" lon="0.54832">
        <ele>90</ele>
        <time>2023-08-06T06:15:36Z</time>
      </trkpt>
      <trkpt lat="44.86696" lon="0.54837">
        <ele>90.2</ele>
        <time>2023-08-06T06:15:38Z</time>
      </trkpt>
      <trkpt lat="44.86701" lon="0.54841">
        <ele>90.4</ele>
        <time>2023-08-06T06:15:40Z</time>
      </trkpt>
      <trkpt lat="44.86707" lon="0.54843">
        <ele>90.6</ele>
        <time>2023-08-06T06:15:42Z</time>
      </trkpt>
      <trkpt lat="44.8671" lon="0.54844">
        <ele>90.7</ele>
        <time>2023-08-06T06:15:43Z</time>
      </trkpt>
      <trkpt lat="44.86712" lon="0.54845">
        <ele>90.8</ele>
        <time>2023-08-06T06:15:44Z</time>
      </trkpt>
      <trkpt lat="44.86718" lon="0.54848">
        <ele>91</ele>
        <time>2023-08-06T06:15:46Z</time>
      </trkpt>
      <trkpt lat="44.8672" lon="0.5485">
        <ele>91</ele>
        <time>2023-08-06T06:15:47Z</time>
      </trkpt>
      <trkpt lat="44.86722" lon="0.54852">
        <ele>91.1</ele>
        <time>2023-08-06T06:15:48Z</time>
      </trkpt>
      <trkpt lat="44.86727" lon="0.54855">
        <ele>91.2</ele>
        <time>2023-08-06T06:15:50Z</time>
      </trkpt>
      <trkpt lat="44.86732" lon="0.54858">
        <ele>91.4</ele>
        <time>2023-08-06T06:15:52Z</time>
      </trkpt>
      <trkpt lat="44.86737" lon="0.5486">
        <ele>91.5</ele>
        <time>2023-08-06T06:15:54Z</time>
      </trkpt>
      <trkpt lat="44.86742" lon="0.54863">
        <ele>91.6</ele>
        <time>2023-08-06T06:15:56Z</time>
      </trkpt>
      <trkpt lat="44.86745" lon="0.54865">
        <ele>91.6</ele>
        <time>2023-08-06T06:15:57Z</time>
      </trkpt>
      <trkpt lat="44.86749" lon="0.54866">
        <ele>91.7</ele>
        <time>2023-08-06T06:15:58Z</time>
      </trkpt>
      <trkpt lat="44.86755" lon="0.54869">
        <ele>91.8</ele>
        <time>2023-08-06T06:16:00Z</time>
      </trkpt>
      <trkpt lat="44.8676" lon="0.5487">
        <ele>91.9</ele>
        <time>2023-08-06T06:16:02Z</time>
      </trkpt>
      <trkpt lat="44.86766" lon="0.54873">
        <ele>92.1</ele>
        <time>2023-08-06T06:16:04Z</time>
      </trkpt>
      <trkpt lat="44.86773" lon="0.54875">
        <ele>92.2</ele>
        <time>2023-08-06T06:16:06Z</time>
      </trkpt>
      <trkpt lat="44.86782" lon="0.54879">
        <ele>92.4</ele>
        <time>2023-08-06T06:16:08Z</time>
      </trkpt>
      <trkpt lat="44.86786" lon="0.54881">
        <ele>92.6</ele>
        <time>2023-08-06T06:16:09Z</time>
      </trkpt>
      <trkpt lat="44.8679" lon="0.54884">
        <ele>92.7</ele>
        <time>2023-08-06T06:16:10Z</time>
      </trkpt>
      <trkpt lat="44.86793" lon="0.54886">
        <ele>92.8</ele>
        <time>2023-08-06T06:16:11Z</time>
      </trkpt>
      <trkpt lat="44.86796" lon="0.54888">
        <ele>93</ele>
        <time>2023-08-06T06:16:12Z</time>
      </trkpt>
      <trkpt lat="44.86801" lon="0.54891">
        <ele>93.2</ele>
        <time>2023-08-06T06:16:14Z</time>
      </trkpt>
      <trkpt lat="44.86804" lon="0.54893">
        <ele>93.4</ele>
        <time>2023-08-06T06:16:15Z</time>
      </trkpt>
      <trkpt lat="44.86806" lon="0.54895">
        <ele>93.5</ele>
        <time>2023-08-06T06:16:16Z</time>
      </trkpt>
      <trkpt lat="44.8681" lon="0.549">
        <ele>93.7</ele>
        <time>2023-08-06T06:16:18Z</time>
      </trkpt>
      <trkpt lat="44.86815" lon="0.54904">
        <ele>94</ele>
        <time>2023-08-06T06:16:20Z</time>
      </trkpt>
      <trkpt lat="44.8682" lon="0.54907">
        <ele>94.3</ele>
        <time>2023-08-06T06:16:22Z</time>
      </trkpt>
      <trkpt lat="44.86823" lon="0.54911">
        <ele>94.5</ele>
        <time>2023-08-06T06:16:23Z</time>
      </trkpt>
      <trkpt lat="44.86825" lon="0.54913">
        <ele>94.6</ele>
        <time>2023-08-06T06:16:24Z</time>
      </trkpt>
      <trkpt lat="44.86829" lon="0.5492">
        <ele>94.9</ele>
        <time>2023-08-06T06:16:26Z</time>
      </trkpt>
      <trkpt lat="44.86832" lon="0.54923">
        <ele>95</ele>
        <time>2023-08-06T06:16:27Z</time>
      </trkpt>
      <trkpt lat="44.86835" lon="0.54924">
        <ele>95.1</ele>
        <time>2023-08-06T06:16:28Z</time>
      </trkpt>
      <trkpt lat="44.86845" lon="0.54929">
        <ele>95.5</ele>
        <time>2023-08-06T06:16:30Z</time>
      </trkpt>
      <trkpt lat="44.8685" lon="0.54935">
        <ele>95.7</ele>
        <time>2023-08-06T06:16:31Z</time>
      </trkpt>
      <trkpt lat="44.86853" lon="0.54942">
        <ele>95.8</ele>
        <time>2023-08-06T06:16:32Z</time>
      </trkpt>
      <trkpt lat="44.86858" lon="0.54955">
        <ele>95.9</ele>
        <time>2023-08-06T06:16:34Z</time>
      </trkpt>
      <trkpt lat="44.8686" lon="0.54962">
        <ele>95.9</ele>
        <time>2023-08-06T06:16:35Z</time>
      </trkpt>
      <trkpt lat="44.86863" lon="0.54968">
        <ele>95.9</ele>
        <time>2023-08-06T06:16:36Z</time>
      </trkpt>
      <trkpt lat="44.86867" lon="0.54974">
        <ele>95.8</ele>
        <time>2023-08-06T06:16:37Z</time>
      </trkpt>
      <trkpt lat="44.8687" lon="0.5498">
        <ele>95.7</ele>
        <time>2023-08-06T06:16:38Z</time>
      </trkpt>
      <trkpt lat="44.86876" lon="0.54992">
        <ele>95.7</ele>
        <time>2023-08-06T06:16:40Z</time>
      </trkpt>
      <trkpt lat="44.86881" lon="0.55003">
        <ele>95.6</ele>
        <time>2023-08-06T06:16:42Z</time>
      </trkpt>
      <trkpt lat="44.86885" lon="0.55013">
        <ele>95.6</ele>
        <time>2023-08-06T06:16:44Z</time>
      </trkpt>
      <trkpt lat="44.86887" lon="0.55018">
        <ele>95.5</ele>
        <time>2023-08-06T06:16:45Z</time>
      </trkpt>
      <trkpt lat="44.86889" lon="0.55023">
        <ele>95.4</ele>
        <time>2023-08-06T06:16:46Z</time>
      </trkpt>
      <trkpt lat="44.86888" lon="0.55028">
        <ele>95.3</ele>
        <time>2023-08-06T06:16:47Z</time>
      </trkpt>
      <trkpt lat="44.86887" lon="0.55033">
        <ele>95.2</ele>
        <time>2023-08-06T06:16:48Z</time>
      </trkpt>
      <trkpt lat="44.86883" lon="0.55042">
        <ele>94.9</ele>
        <time>2023-08-06T06:16:50Z</time>
      </trkpt>
      <trkpt lat="44.86881" lon="0.55047">
        <ele>94.7</ele>
        <time>2023-08-06T06:16:51Z</time>
      </trkpt>
      <trkpt lat="44.86878" lon="0.55052">
        <ele>94.6</ele>
        <time>2023-08-06T06:16:52Z</time>
      </trkpt>
      <trkpt lat="44.86871" lon="0.55062">
        <ele>94.1</ele>
        <time>2023-08-06T06:16:54Z</time>
      </trkpt>
      <trkpt lat="44.86863" lon="0.55072">
        <ele>93.8</ele>
        <time>2023-08-06T06:16:56Z</time>
      </trkpt>
      <trkpt lat="44.86859" lon="0.55077">
        <ele>93.6</ele>
        <time>2023-08-06T06:16:57Z</time>
      </trkpt>
      <trkpt lat="44.86855" lon="0.55081">
        <ele>93.4</ele>
        <time>2023-08-06T06:16:58Z</time>
      </trkpt>
      <trkpt lat="44.86851" lon="0.55086">
        <ele>93.3</ele>
        <time>2023-08-06T06:16:59Z</time>
      </trkpt>
      <trkpt lat="44.8685" lon="0.55091">
        <ele>93.2</ele>
        <time>2023-08-06T06:17:00Z</time>
      </trkpt>
      <trkpt lat="44.8685" lon="0.55097">
        <ele>93.1</ele>
        <time>2023-08-06T06:17:01Z</time>
      </trkpt>
      <trkpt lat="44.86852" lon="0.55103">
        <ele>93</ele>
        <time>2023-08-06T06:17:02Z</time>
      </trkpt>
      <trkpt lat="44.86855" lon="0.55109">
        <ele>92.9</ele>
        <time>2023-08-06T06:17:03Z</time>
      </trkpt>
      <trkpt lat="44.86858" lon="0.55115">
        <ele>92.8</ele>
        <time>2023-08-06T06:17:04Z</time>
      </trkpt>
      <trkpt lat="44.86865" lon="0.55128">
        <ele>92.6</ele>
        <time>2023-08-06T06:17:06Z</time>
      </trkpt>
      <trkpt lat="44.86871" lon="0.55141">
        <ele>92.5</ele>
        <time>2023-08-06T06:17:08Z</time>
      </trkpt>
      <trkpt lat="44.86874" lon="0.55147">
        <ele>92.4</ele>
        <time>2023-08-06T06:17:09Z</time>
      </trkpt>
      <trkpt lat="44.86878" lon="0.55153">
        <ele>92.3</ele>
        <time>2023-08-06T06:17:10Z</time>
      </trkpt>
      <trkpt lat="44.86885" lon="0.55166">
        <ele>92.2</ele>
        <time>2023-08-06T06:17:12Z</time>
      </trkpt>
      <trkpt lat="44.86888" lon="0.55172">
        <ele>92.1</ele>
        <time>2023-08-06T06:17:13Z</time>
      </trkpt>
      <trkpt lat="44.86891" lon="0.55179">
        <ele>92</ele>
        <time>2023-08-06T06:17:14Z</time>
      </trkpt>
      <trkpt lat="44.86894" lon="0.55186">
        <ele>92</ele>
        <time>2023-08-06T06:17:15Z</time>
      </trkpt>
      <trkpt lat="44.86896" lon="0.55193">
        <ele>91.9</ele>
        <time>2023-08-06T06:17:16Z</time>
      </trkpt>
      <trkpt lat="44.86897" lon="0.55199">
        <ele>91.8</ele>
        <time>2023-08-06T06:17:17Z</time>
      </trkpt>
      <trkpt lat="44.86898" lon="0.55206">
        <ele>91.8</ele>
        <time>2023-08-06T06:17:18Z</time>
      </trkpt>
      <trkpt lat="44.86902" lon="0.5522">
        <ele>91.8</ele>
        <time>2023-08-06T06:17:20Z</time>
      </trkpt>
      <trkpt lat="44.86903" lon="0.55227">
        <ele>91.8</ele>
        <time>2023-08-06T06:17:21Z</time>
      </trkpt>
      <trkpt lat="44.86906" lon="0.55233">
        <ele>91.8</ele>
        <time>2023-08-06T06:17:22Z</time>
      </trkpt>
      <trkpt lat="44.86909" lon="0.5524">
        <ele>91.8</ele>
        <time>2023-08-06T06:17:23Z</time>
      </trkpt>
      <trkpt lat="44.86913" lon="0.55245">
        <ele>91.9</ele>
        <time>2023-08-06T06:17:24Z</time>
      </trkpt>
      <trkpt lat="44.86916" lon="0.55251">
        <ele>92</ele>
        <time>2023-08-06T06:17:25Z</time>
      </trkpt>
      <trkpt lat="44.86919" lon="0.55257">
        <ele>92.2</ele>
        <time>2023-08-06T06:17:26Z</time>
      </trkpt>
      <trkpt lat="44.86924" lon="0.55272">
        <ele>92.6</ele>
        <time>2023-08-06T06:17:28Z</time>
      </trkpt>
      <trkpt lat="44.86925" lon="0.55279">
        <ele>92.8</ele>
        <time>2023-08-06T06:17:29Z</time>
      </trkpt>
      <trkpt lat="44.86925" lon="0.55285">
        <ele>93.1</ele>
        <time>2023-08-06T06:17:30Z</time>
      </trkpt>
      <trkpt lat="44.86926" lon="0.55298">
        <ele>93.5</ele>
        <time>2023-08-06T06:17:32Z</time>
      </trkpt>
      <trkpt lat="44.86927" lon="0.55303">
        <ele>93.7</ele>
        <time>2023-08-06T06:17:33Z</time>
      </trkpt>
      <trkpt lat="44.8693" lon="0.55308">
        <ele>93.9</ele>
        <time>2023-08-06T06:17:34Z</time>
      </trkpt>
      <trkpt lat="44.86938" lon="0.55311">
        <ele>95.6</ele>
        <time>2023-08-06T06:17:36Z</time>
      </trkpt>
      <trkpt lat="44.86945" lon="0.55306">
        <ele>95.7</ele>
        <time>2023-08-06T06:17:38Z</time>
      </trkpt>
      <trkpt lat="44.86952" lon="0.55299">
        <ele>95.8</ele>
        <time>2023-08-06T06:17:40Z</time>
      </trkpt>
      <trkpt lat="44.86959" lon="0.55294">
        <ele>96</ele>
        <time>2023-08-06T06:17:42Z</time>
      </trkpt>
      <trkpt lat="44.86962" lon="0.55294">
        <ele>96</ele>
        <time>2023-08-06T06:17:43Z</time>
      </trkpt>
      <trkpt lat="44.86964" lon="0.55295">
        <ele>96.1</ele>
        <time>2023-08-06T06:17:44Z</time>
      </trkpt>
      <trkpt lat="44.86963" lon="0.553">
        <ele>96</ele>
        <time>2023-08-06T06:17:46Z</time>
      </trkpt>
      <trkpt lat="44.8696" lon="0.55302">
        <ele>95.9</ele>
        <time>2023-08-06T06:17:47Z</time>
      </trkpt>
      <trkpt lat="44.86957" lon="0.55304">
        <ele>95.9</ele>
        <time>2023-08-06T06:17:48Z</time>
      </trkpt>
      <trkpt lat="44.86954" lon="0.55305">
        <ele>95.8</ele>
        <time>2023-08-06T06:17:49Z</time>
      </trkpt>
      <trkpt lat="44.86951" lon="0.55308">
        <ele>95.7</ele>
        <time>2023-08-06T06:17:50Z</time>
      </trkpt>
      <trkpt lat="44.86944" lon="0.55315">
        <ele>95.6</ele>
        <time>2023-08-06T06:17:52Z</time>
      </trkpt>
      <trkpt lat="44.86941" lon="0.55319">
        <ele>95.5</ele>
        <time>2023-08-06T06:17:53Z</time>
      </trkpt>
      <trkpt lat="44.86938" lon="0.55324">
        <ele>95.5</ele>
        <time>2023-08-06T06:17:54Z</time>
      </trkpt>
      <trkpt lat="44.86932" lon="0.55333">
        <ele>95.3</ele>
        <time>2023-08-06T06:17:56Z</time>
      </trkpt>
      <trkpt lat="44.86926" lon="0.55343">
        <ele>95.4</ele>
        <time>2023-08-06T06:17:58Z</time>
      </trkpt>
      <trkpt lat="44.8692" lon="0.55353">
        <ele>95.5</ele>
        <time>2023-08-06T06:18:00Z</time>
      </trkpt>
      <trkpt lat="44.86914" lon="0.55363">
        <ele>95.6</ele>
        <time>2023-08-06T06:18:02Z</time>
      </trkpt>
      <trkpt lat="44.86906" lon="0.55373">
        <ele>95.6</ele>
        <time>2023-08-06T06:18:04Z</time>
      </trkpt>
      <trkpt lat="44.86899" lon="0.55382">
        <ele>95.4</ele>
        <time>2023-08-06T06:18:06Z</time>
      </trkpt>
      <trkpt lat="44.86891" lon="0.55391">
        <ele>95.1</ele>
        <time>2023-08-06T06:18:08Z</time>
      </trkpt>
      <trkpt lat="44.86889" lon="0.55404">
        <ele>94.2</ele>
        <time>2023-08-06T06:18:10Z</time>
      </trkpt>
      <trkpt lat="44.86894" lon="0.55414">
        <ele>94.1</ele>
        <time>2023-08-06T06:18:12Z</time>
      </trkpt>
      <trkpt lat="44.86898" lon="0.55417">
        <ele>94.1</ele>
        <time>2023-08-06T06:18:13Z</time>
      </trkpt>
      <trkpt lat="44.86902" lon="0.55421">
        <ele>94.1</ele>
        <time>2023-08-06T06:18:14Z</time>
      </trkpt>
      <trkpt lat="44.86909" lon="0.5543">
        <ele>94.1</ele>
        <time>2023-08-06T06:18:16Z</time>
      </trkpt>
      <trkpt lat="44.86917" lon="0.55438">
        <ele>94.1</ele>
        <time>2023-08-06T06:18:18Z</time>
      </trkpt>
      <trkpt lat="44.86924" lon="0.55447">
        <ele>94.1</ele>
        <time>2023-08-06T06:18:20Z</time>
      </trkpt>
      <trkpt lat="44.86931" lon="0.55457">
        <ele>94.1</ele>
        <time>2023-08-06T06:18:22Z</time>
      </trkpt>
      <trkpt lat="44.86937" lon="0.55467">
        <ele>94</ele>
        <time>2023-08-06T06:18:24Z</time>
      </trkpt>
      <trkpt lat="44.86943" lon="0.55477">
        <ele>94</ele>
        <time>2023-08-06T06:18:26Z</time>
      </trkpt>
      <trkpt lat="44.86949" lon="0.55488">
        <ele>93.9</ele>
        <time>2023-08-06T06:18:28Z</time>
      </trkpt>
      <trkpt lat="44.86952" lon="0.55494">
        <ele>93.8</ele>
        <time>2023-08-06T06:18:29Z</time>
      </trkpt>
      <trkpt lat="44.86955" lon="0.555">
        <ele>93.8</ele>
        <time>2023-08-06T06:18:30Z</time>
      </trkpt>
      <trkpt lat="44.86961" lon="0.55513">
        <ele>93.6</ele>
        <time>2023-08-06T06:18:32Z</time>
      </trkpt>
      <trkpt lat="44.86964" lon="0.5552">
        <ele>93.5</ele>
        <time>2023-08-06T06:18:33Z</time>
      </trkpt>
      <trkpt lat="44.86967" lon="0.55527">
        <ele>93.4</ele>
        <time>2023-08-06T06:18:34Z</time>
      </trkpt>
      <trkpt lat="44.86973" lon="0.55541">
        <ele>93.4</ele>
        <time>2023-08-06T06:18:36Z</time>
      </trkpt>
      <trkpt lat="44.86978" lon="0.55556">
        <ele>93.3</ele>
        <time>2023-08-06T06:18:38Z</time>
      </trkpt>
      <trkpt lat="44.8698" lon="0.55564">
        <ele>93.3</ele>
        <time>2023-08-06T06:18:39Z</time>
      </trkpt>
      <trkpt lat="44.86982" lon="0.55572">
        <ele>93.2</ele>
        <time>2023-08-06T06:18:40Z</time>
      </trkpt>
      <trkpt lat="44.86986" lon="0.55589">
        <ele>93.2</ele>
        <time>2023-08-06T06:18:42Z</time>
      </trkpt>
      <trkpt lat="44.86991" lon="0.55604">
        <ele>93.2</ele>
        <time>2023-08-06T06:18:44Z</time>
      </trkpt>
      <trkpt lat="44.86998" lon="0.55614">
        <ele>93.3</ele>
        <time>2023-08-06T06:18:46Z</time>
      </trkpt>
      <trkpt lat="44.87008" lon="0.55612">
        <ele>93.4</ele>
        <time>2023-08-06T06:18:48Z</time>
      </trkpt>
      <trkpt lat="44.87013" lon="0.55612">
        <ele>93.4</ele>
        <time>2023-08-06T06:18:49Z</time>
      </trkpt>
      <trkpt lat="44.87018" lon="0.55611">
        <ele>93.4</ele>
        <time>2023-08-06T06:18:50Z</time>
      </trkpt>
      <trkpt lat="44.87029" lon="0.55612">
        <ele>93.6</ele>
        <time>2023-08-06T06:18:52Z</time>
      </trkpt>
      <trkpt lat="44.87039" lon="0.55608">
        <ele>93.8</ele>
        <time>2023-08-06T06:18:54Z</time>
      </trkpt>
      <trkpt lat="44.87047" lon="0.55602">
        <ele>94</ele>
        <time>2023-08-06T06:18:56Z</time>
      </trkpt>
      <trkpt lat="44.87052" lon="0.55599">
        <ele>94.1</ele>
        <time>2023-08-06T06:18:57Z</time>
      </trkpt>
      <trkpt lat="44.87057" lon="0.55596">
        <ele>94.2</ele>
        <time>2023-08-06T06:18:58Z</time>
      </trkpt>
      <trkpt lat="44.87065" lon="0.5559">
        <ele>94.4</ele>
        <time>2023-08-06T06:19:00Z</time>
      </trkpt>
      <trkpt lat="44.87073" lon="0.55583">
        <ele>94.6</ele>
        <time>2023-08-06T06:19:02Z</time>
      </trkpt>
      <trkpt lat="44.87082" lon="0.55577">
        <ele>94.9</ele>
        <time>2023-08-06T06:19:04Z</time>
      </trkpt>
      <trkpt lat="44.8709" lon="0.5557">
        <ele>95.1</ele>
        <time>2023-08-06T06:19:06Z</time>
      </trkpt>
      <trkpt lat="44.87099" lon="0.55564">
        <ele>95.4</ele>
        <time>2023-08-06T06:19:08Z</time>
      </trkpt>
      <trkpt lat="44.87108" lon="0.55558">
        <ele>95.6</ele>
        <time>2023-08-06T06:19:10Z</time>
      </trkpt>
      <trkpt lat="44.87117" lon="0.55553">
        <ele>95.9</ele>
        <time>2023-08-06T06:19:12Z</time>
      </trkpt>
      <trkpt lat="44.87125" lon="0.55548">
        <ele>96.1</ele>
        <time>2023-08-06T06:19:14Z</time>
      </trkpt>
      <trkpt lat="44.87134" lon="0.55544">
        <ele>96.3</ele>
        <time>2023-08-06T06:19:16Z</time>
      </trkpt>
      <trkpt lat="44.87144" lon="0.55545">
        <ele>96.5</ele>
        <time>2023-08-06T06:19:18Z</time>
      </trkpt>
      <trkpt lat="44.87148" lon="0.55547">
        <ele>96.6</ele>
        <time>2023-08-06T06:19:19Z</time>
      </trkpt>
      <trkpt lat="44.87153" lon="0.55549">
        <ele>96.7</ele>
        <time>2023-08-06T06:19:20Z</time>
      </trkpt>
      <trkpt lat="44.87158" lon="0.55551">
        <ele>96.8</ele>
        <time>2023-08-06T06:19:21Z</time>
      </trkpt>
      <trkpt lat="44.87162" lon="0.55553">
        <ele>96.9</ele>
        <time>2023-08-06T06:19:22Z</time>
      </trkpt>
      <trkpt lat="44.87167" lon="0.55554">
        <ele>97</ele>
        <time>2023-08-06T06:19:23Z</time>
      </trkpt>
      <trkpt lat="44.87172" lon="0.55555">
        <ele>97</ele>
        <time>2023-08-06T06:19:24Z</time>
      </trkpt>
      <trkpt lat="44.87181" lon="0.55557">
        <ele>97.2</ele>
        <time>2023-08-06T06:19:26Z</time>
      </trkpt>
      <trkpt lat="44.87186" lon="0.55559">
        <ele>97.2</ele>
        <time>2023-08-06T06:19:27Z</time>
      </trkpt>
      <trkpt lat="44.87191" lon="0.55561">
        <ele>97.3</ele>
        <time>2023-08-06T06:19:28Z</time>
      </trkpt>
      <trkpt lat="44.87195" lon="0.55565">
        <ele>97.3</ele>
        <time>2023-08-06T06:19:29Z</time>
      </trkpt>
      <trkpt lat="44.87198" lon="0.5557">
        <ele>97.4</ele>
        <time>2023-08-06T06:19:30Z</time>
      </trkpt>
      <trkpt lat="44.87205" lon="0.5558">
        <ele>97.4</ele>
        <time>2023-08-06T06:19:32Z</time>
      </trkpt>
      <trkpt lat="44.87212" lon="0.5559">
        <ele>97.4</ele>
        <time>2023-08-06T06:19:34Z</time>
      </trkpt>
      <trkpt lat="44.87219" lon="0.556">
        <ele>97.3</ele>
        <time>2023-08-06T06:19:36Z</time>
      </trkpt>
      <trkpt lat="44.87222" lon="0.55606">
        <ele>97.2</ele>
        <time>2023-08-06T06:19:37Z</time>
      </trkpt>
      <trkpt lat="44.87225" lon="0.55611">
        <ele>97.2</ele>
        <time>2023-08-06T06:19:38Z</time>
      </trkpt>
      <trkpt lat="44.87231" lon="0.55623">
        <ele>97</ele>
        <time>2023-08-06T06:19:40Z</time>
      </trkpt>
      <trkpt lat="44.87237" lon="0.55635">
        <ele>96.8</ele>
        <time>2023-08-06T06:19:42Z</time>
      </trkpt>
      <trkpt lat="44.87243" lon="0.55649">
        <ele>96.5</ele>
        <time>2023-08-06T06:19:44Z</time>
      </trkpt>
      <trkpt lat="44.87246" lon="0.55655">
        <ele>96.3</ele>
        <time>2023-08-06T06:19:45Z</time>
      </trkpt>
      <trkpt lat="44.8725" lon="0.55662">
        <ele>96.2</ele>
        <time>2023-08-06T06:19:46Z</time>
      </trkpt>
      <trkpt lat="44.87258" lon="0.55674">
        <ele>95.8</ele>
        <time>2023-08-06T06:19:48Z</time>
      </trkpt>
      <trkpt lat="44.87266" lon="0.55688">
        <ele>95.5</ele>
        <time>2023-08-06T06:19:50Z</time>
      </trkpt>
      <trkpt lat="44.87271" lon="0.55704">
        <ele>95.2</ele>
        <time>2023-08-06T06:19:52Z</time>
      </trkpt>
      <trkpt lat="44.87273" lon="0.55711">
        <ele>95.1</ele>
        <time>2023-08-06T06:19:53Z</time>
      </trkpt>
      <trkpt lat="44.87276" lon="0.55718">
        <ele>94.9</ele>
        <time>2023-08-06T06:19:54Z</time>
      </trkpt>
      <trkpt lat="44.87282" lon="0.55732">
        <ele>94.6</ele>
        <time>2023-08-06T06:19:56Z</time>
      </trkpt>
      <trkpt lat="44.87285" lon="0.55739">
        <ele>94.4</ele>
        <time>2023-08-06T06:19:57Z</time>
      </trkpt>
      <trkpt lat="44.87288" lon="0.55748">
        <ele>94.2</ele>
        <time>2023-08-06T06:19:58Z</time>
      </trkpt>
      <trkpt lat="44.87293" lon="0.55765">
        <ele>93.7</ele>
        <time>2023-08-06T06:20:00Z</time>
      </trkpt>
      <trkpt lat="44.87295" lon="0.55774">
        <ele>93.5</ele>
        <time>2023-08-06T06:20:01Z</time>
      </trkpt>
      <trkpt lat="44.87297" lon="0.55782">
        <ele>93.4</ele>
        <time>2023-08-06T06:20:02Z</time>
      </trkpt>
      <trkpt lat="44.87303" lon="0.55798">
        <ele>93.1</ele>
        <time>2023-08-06T06:20:04Z</time>
      </trkpt>
      <trkpt lat="44.87306" lon="0.55806">
        <ele>92.9</ele>
        <time>2023-08-06T06:20:05Z</time>
      </trkpt>
      <trkpt lat="44.8731" lon="0.55813">
        <ele>92.8</ele>
        <time>2023-08-06T06:20:06Z</time>
      </trkpt>
      <trkpt lat="44.87313" lon="0.5582">
        <ele>92.8</ele>
        <time>2023-08-06T06:20:07Z</time>
      </trkpt>
      <trkpt lat="44.87315" lon="0.55828">
        <ele>92.7</ele>
        <time>2023-08-06T06:20:08Z</time>
      </trkpt>
      <trkpt lat="44.87318" lon="0.55835">
        <ele>92.6</ele>
        <time>2023-08-06T06:20:09Z</time>
      </trkpt>
      <trkpt lat="44.8732" lon="0.55842">
        <ele>92.6</ele>
        <time>2023-08-06T06:20:10Z</time>
      </trkpt>
      <trkpt lat="44.87327" lon="0.55856">
        <ele>92.3</ele>
        <time>2023-08-06T06:20:12Z</time>
      </trkpt>
      <trkpt lat="44.87333" lon="0.55869">
        <ele>92.1</ele>
        <time>2023-08-06T06:20:14Z</time>
      </trkpt>
      <trkpt lat="44.87336" lon="0.55876">
        <ele>92</ele>
        <time>2023-08-06T06:20:15Z</time>
      </trkpt>
      <trkpt lat="44.8734" lon="0.55883">
        <ele>92</ele>
        <time>2023-08-06T06:20:16Z</time>
      </trkpt>
      <trkpt lat="44.87347" lon="0.55897">
        <ele>91.9</ele>
        <time>2023-08-06T06:20:18Z</time>
      </trkpt>
      <trkpt lat="44.87352" lon="0.5591">
        <ele>91.9</ele>
        <time>2023-08-06T06:20:20Z</time>
      </trkpt>
      <trkpt lat="44.87355" lon="0.55917">
        <ele>92.1</ele>
        <time>2023-08-06T06:20:21Z</time>
      </trkpt>
      <trkpt lat="44.87358" lon="0.55925">
        <ele>92.4</ele>
        <time>2023-08-06T06:20:22Z</time>
      </trkpt>
      <trkpt lat="44.87361" lon="0.55939">
        <ele>93</ele>
        <time>2023-08-06T06:20:24Z</time>
      </trkpt>
      <trkpt lat="44.87362" lon="0.55946">
        <ele>93.2</ele>
        <time>2023-08-06T06:20:25Z</time>
      </trkpt>
      <trkpt lat="44.87363" lon="0.55953">
        <ele>93.5</ele>
        <time>2023-08-06T06:20:26Z</time>
      </trkpt>
      <trkpt lat="44.87365" lon="0.55967">
        <ele>94</ele>
        <time>2023-08-06T06:20:28Z</time>
      </trkpt>
      <trkpt lat="44.87365" lon="0.55973">
        <ele>94.3</ele>
        <time>2023-08-06T06:20:29Z</time>
      </trkpt>
      <trkpt lat="44.87365" lon="0.55978">
        <ele>94.5</ele>
        <time>2023-08-06T06:20:30Z</time>
      </trkpt>
      <trkpt lat="44.87362" lon="0.55981">
        <ele>94.6</ele>
        <time>2023-08-06T06:20:31Z</time>
      </trkpt>
      <trkpt lat="44.87359" lon="0.55983">
        <ele>94.8</ele>
        <time>2023-08-06T06:20:32Z</time>
      </trkpt>
      <trkpt lat="44.87352" lon="0.55987">
        <ele>94.8</ele>
        <time>2023-08-06T06:20:34Z</time>
      </trkpt>
      <trkpt lat="44.87344" lon="0.55991">
        <ele>94.9</ele>
        <time>2023-08-06T06:20:36Z</time>
      </trkpt>
      <trkpt lat="44.87337" lon="0.55995">
        <ele>95</ele>
        <time>2023-08-06T06:20:38Z</time>
      </trkpt>
      <trkpt lat="44.87333" lon="0.55997">
        <ele>95.1</ele>
        <time>2023-08-06T06:20:39Z</time>
      </trkpt>
      <trkpt lat="44.8733" lon="0.55998">
        <ele>95.2</ele>
        <time>2023-08-06T06:20:40Z</time>
      </trkpt>
      <trkpt lat="44.87322" lon="0.56003">
        <ele>95.3</ele>
        <time>2023-08-06T06:20:42Z</time>
      </trkpt>
      <trkpt lat="44.87319" lon="0.56006">
        <ele>95.4</ele>
        <time>2023-08-06T06:20:43Z</time>
      </trkpt>
      <trkpt lat="44.87315" lon="0.56007">
        <ele>95.4</ele>
        <time>2023-08-06T06:20:44Z</time>
      </trkpt>
      <trkpt lat="44.87307" lon="0.5601">
        <ele>95.5</ele>
        <time>2023-08-06T06:20:46Z</time>
      </trkpt>
      <trkpt lat="44.87298" lon="0.56014">
        <ele>95.5</ele>
        <time>2023-08-06T06:20:48Z</time>
      </trkpt>
      <trkpt lat="44.8729" lon="0.56019">
        <ele>95.6</ele>
        <time>2023-08-06T06:20:50Z</time>
      </trkpt>
      <trkpt lat="44.87286" lon="0.56022">
        <ele>95.8</ele>
        <time>2023-08-06T06:20:51Z</time>
      </trkpt>
      <trkpt lat="44.87282" lon="0.56026">
        <ele>95.8</ele>
        <time>2023-08-06T06:20:52Z</time>
      </trkpt>
      <trkpt lat="44.87278" lon="0.56029">
        <ele>95.9</ele>
        <time>2023-08-06T06:20:53Z</time>
      </trkpt>
      <trkpt lat="44.87274" lon="0.56032">
        <ele>96.1</ele>
        <time>2023-08-06T06:20:54Z</time>
      </trkpt>
      <trkpt lat="44.8727" lon="0.56035">
        <ele>96.2</ele>
        <time>2023-08-06T06:20:55Z</time>
      </trkpt>
      <trkpt lat="44.87267" lon="0.5604">
        <ele>96.4</ele>
        <time>2023-08-06T06:20:56Z</time>
      </trkpt>
      <trkpt lat="44.87264" lon="0.56046">
        <ele>96.5</ele>
        <time>2023-08-06T06:20:57Z</time>
      </trkpt>
      <trkpt lat="44.87264" lon="0.56051">
        <ele>96.7</ele>
        <time>2023-08-06T06:20:58Z</time>
      </trkpt>
      <trkpt lat="44.87266" lon="0.56057">
        <ele>96.8</ele>
        <time>2023-08-06T06:20:59Z</time>
      </trkpt>
      <trkpt lat="44.87269" lon="0.56063">
        <ele>96.9</ele>
        <time>2023-08-06T06:21:00Z</time>
      </trkpt>
      <trkpt lat="44.87271" lon="0.56069">
        <ele>97.1</ele>
        <time>2023-08-06T06:21:01Z</time>
      </trkpt>
      <trkpt lat="44.87275" lon="0.56074">
        <ele>97.2</ele>
        <time>2023-08-06T06:21:02Z</time>
      </trkpt>
      <trkpt lat="44.87278" lon="0.56079">
        <ele>97.3</ele>
        <time>2023-08-06T06:21:03Z</time>
      </trkpt>
      <trkpt lat="44.87282" lon="0.56083">
        <ele>97.3</ele>
        <time>2023-08-06T06:21:04Z</time>
      </trkpt>
      <trkpt lat="44.87289" lon="0.56092">
        <ele>97.4</ele>
        <time>2023-08-06T06:21:06Z</time>
      </trkpt>
      <trkpt lat="44.87292" lon="0.56096">
        <ele>97.5</ele>
        <time>2023-08-06T06:21:07Z</time>
      </trkpt>
      <trkpt lat="44.87296" lon="0.561">
        <ele>97.6</ele>
        <time>2023-08-06T06:21:08Z</time>
      </trkpt>
      <trkpt lat="44.87302" lon="0.56107">
        <ele>97.6</ele>
        <time>2023-08-06T06:21:10Z</time>
      </trkpt>
      <trkpt lat="44.87308" lon="0.56114">
        <ele>97.8</ele>
        <time>2023-08-06T06:21:12Z</time>
      </trkpt>
      <trkpt lat="44.87314" lon="0.5612">
        <ele>97.9</ele>
        <time>2023-08-06T06:21:14Z</time>
      </trkpt>
      <trkpt lat="44.87322" lon="0.56127">
        <ele>98</ele>
        <time>2023-08-06T06:21:16Z</time>
      </trkpt>
      <trkpt lat="44.87325" lon="0.56132">
        <ele>98.2</ele>
        <time>2023-08-06T06:21:17Z</time>
      </trkpt>
      <trkpt lat="44.87328" lon="0.56135">
        <ele>98.3</ele>
        <time>2023-08-06T06:21:18Z</time>
      </trkpt>
      <trkpt lat="44.8733" lon="0.56137">
        <ele>98.4</ele>
        <time>2023-08-06T06:21:19Z</time>
      </trkpt>
      <trkpt lat="44.87332" lon="0.56137">
        <ele>98.5</ele>
        <time>2023-08-06T06:21:20Z</time>
      </trkpt>
      <trkpt lat="44.87336" lon="0.56136">
        <ele>98.5</ele>
        <time>2023-08-06T06:21:22Z</time>
      </trkpt>
      <trkpt lat="44.87341" lon="0.56132">
        <ele>98.3</ele>
        <time>2023-08-06T06:21:24Z</time>
      </trkpt>
      <trkpt lat="44.87347" lon="0.56123">
        <ele>98</ele>
        <time>2023-08-06T06:21:26Z</time>
      </trkpt>
      <trkpt lat="44.87351" lon="0.56115">
        <ele>98</ele>
        <time>2023-08-06T06:21:28Z</time>
      </trkpt>
      <trkpt lat="44.87355" lon="0.56112">
        <ele>98</ele>
        <time>2023-08-06T06:21:29Z</time>
      </trkpt>
      <trkpt lat="44.87358" lon="0.56109">
        <ele>98.1</ele>
        <time>2023-08-06T06:21:30Z</time>
      </trkpt>
      <trkpt lat="44.87362" lon="0.56106">
        <ele>98.2</ele>
        <time>2023-08-06T06:21:31Z</time>
      </trkpt>
      <trkpt lat="44.87366" lon="0.56102">
        <ele>98.3</ele>
        <time>2023-08-06T06:21:32Z</time>
      </trkpt>
      <trkpt lat="44.87373" lon="0.56094">
        <ele>98.5</ele>
        <time>2023-08-06T06:21:34Z</time>
      </trkpt>
      <trkpt lat="44.87379" lon="0.56088">
        <ele>98.7</ele>
        <time>2023-08-06T06:21:36Z</time>
      </trkpt>
      <trkpt lat="44.87381" lon="0.56086">
        <ele>98.9</ele>
        <time>2023-08-06T06:21:37Z</time>
      </trkpt>
      <trkpt lat="44.87383" lon="0.56085">
        <ele>98.9</ele>
        <time>2023-08-06T06:21:38Z</time>
      </trkpt>
      <trkpt lat="44.87385" lon="0.56083">
        <ele>98.9</ele>
        <time>2023-08-06T06:21:39Z</time>
      </trkpt>
      <trkpt lat="44.87386" lon="0.56084">
        <ele>98.9</ele>
        <time>2023-08-06T06:21:40Z</time>
      </trkpt>
      <trkpt lat="44.8739" lon="0.56083">
        <ele>99</ele>
        <time>2023-08-06T06:21:41Z</time>
      </trkpt>
      <trkpt lat="44.87393" lon="0.56084">
        <ele>99</ele>
        <time>2023-08-06T06:21:42Z</time>
      </trkpt>
      <trkpt lat="44.87397" lon="0.56086">
        <ele>99</ele>
        <time>2023-08-06T06:21:43Z</time>
      </trkpt>
      <trkpt lat="44.874" lon="0.56089">
        <ele>99.1</ele>
        <time>2023-08-06T06:21:44Z</time>
      </trkpt>
      <trkpt lat="44.87403" lon="0.56092">
        <ele>99.1</ele>
        <time>2023-08-06T06:21:45Z</time>
      </trkpt>
      <trkpt lat="44.87405" lon="0.56095">
        <ele>99.1</ele>
        <time>2023-08-06T06:21:46Z</time>
      </trkpt>
      <trkpt lat="44.87409" lon="0.56102">
        <ele>99.2</ele>
        <time>2023-08-06T06:21:48Z</time>
      </trkpt>
      <trkpt lat="44.87412" lon="0.56108">
        <ele>99.3</ele>
        <time>2023-08-06T06:21:50Z</time>
      </trkpt>
      <trkpt lat="44.87412" lon="0.56115">
        <ele>99.4</ele>
        <time>2023-08-06T06:21:52Z</time>
      </trkpt>
      <trkpt lat="44.8741" lon="0.56123">
        <ele>99.5</ele>
        <time>2023-08-06T06:21:54Z</time>
      </trkpt>
      <trkpt lat="44.87414" lon="0.56132">
        <ele>99.6</ele>
        <time>2023-08-06T06:21:56Z</time>
      </trkpt>
      <trkpt lat="44.87418" lon="0.56139">
        <ele>99.7</ele>
        <time>2023-08-06T06:21:58Z</time>
      </trkpt>
      <trkpt lat="44.87418" lon="0.56144">
        <ele>99.8</ele>
        <time>2023-08-06T06:21:59Z</time>
      </trkpt>
      <trkpt lat="44.87418" lon="0.56149">
        <ele>99.8</ele>
        <time>2023-08-06T06:22:00Z</time>
      </trkpt>
      <trkpt lat="44.8742" lon="0.56156">
        <ele>99.9</ele>
        <time>2023-08-06T06:22:02Z</time>
      </trkpt>
      <trkpt lat="44.87419" lon="0.56164">
        <ele>99.9</ele>
        <time>2023-08-06T06:22:04Z</time>
      </trkpt>
      <trkpt lat="44.8742" lon="0.56171">
        <ele>99.9</ele>
        <time>2023-08-06T06:22:06Z</time>
      </trkpt>
      <trkpt lat="44.8742" lon="0.56177">
        <ele>99.9</ele>
        <time>2023-08-06T06:22:08Z</time>
      </trkpt>
      <trkpt lat="44.87418" lon="0.56184">
        <ele>99.9</ele>
        <time>2023-08-06T06:22:10Z</time>
      </trkpt>
      <trkpt lat="44.87417" lon="0.5619">
        <ele>99.9</ele>
        <time>2023-08-06T06:22:12Z</time>
      </trkpt>
      <trkpt lat="44.87414" lon="0.56191">
        <ele>99.9</ele>
        <time>2023-08-06T06:22:14Z</time>
      </trkpt>
      <trkpt lat="44.87411" lon="0.56191">
        <ele>100</ele>
        <time>2023-08-06T06:22:16Z</time>
      </trkpt>
      <trkpt lat="44.87406" lon="0.56189">
        <ele>100</ele>
        <time>2023-08-06T06:22:18Z</time>
      </trkpt>
      <trkpt lat="44.87405" lon="0.56191">
        <ele>100</ele>
        <time>2023-08-06T06:22:19Z</time>
      </trkpt>
      <trkpt lat="44.87403" lon="0.56194">
        <ele>100</ele>
        <time>2023-08-06T06:22:20Z</time>
      </trkpt>
      <trkpt lat="44.87402" lon="0.56197">
        <ele>100</ele>
        <time>2023-08-06T06:22:21Z</time>
      </trkpt>
      <trkpt lat="44.87399" lon="0.56198">
        <ele>100</ele>
        <time>2023-08-06T06:22:22Z</time>
      </trkpt>
      <trkpt lat="44.87392" lon="0.56198">
        <ele>100.1</ele>
        <time>2023-08-06T06:22:24Z</time>
      </trkpt>
      <trkpt lat="44.87387" lon="0.56197">
        <ele>100.2</ele>
        <time>2023-08-06T06:22:26Z</time>
      </trkpt>
      <trkpt lat="44.87385" lon="0.56201">
        <ele>100.3</ele>
        <time>2023-08-06T06:22:28Z</time>
      </trkpt>
      <trkpt lat="44.87385" lon="0.56204">
        <ele>100.3</ele>
        <time>2023-08-06T06:22:29Z</time>
      </trkpt>
      <trkpt lat="44.87385" lon="0.56208">
        <ele>100.4</ele>
        <time>2023-08-06T06:22:30Z</time>
      </trkpt>
      <trkpt lat="44.87384" lon="0.56217">
        <ele>100.5</ele>
        <time>2023-08-06T06:22:32Z</time>
      </trkpt>
      <trkpt lat="44.87384" lon="0.56222">
        <ele>100.6</ele>
        <time>2023-08-06T06:22:33Z</time>
      </trkpt>
      <trkpt lat="44.87383" lon="0.56227">
        <ele>100.7</ele>
        <time>2023-08-06T06:22:34Z</time>
      </trkpt>
      <trkpt lat="44.87384" lon="0.56237">
        <ele>100.8</ele>
        <time>2023-08-06T06:22:36Z</time>
      </trkpt>
      <trkpt lat="44.87384" lon="0.56242">
        <ele>100.9</ele>
        <time>2023-08-06T06:22:37Z</time>
      </trkpt>
      <trkpt lat="44.87385" lon="0.56247">
        <ele>100.9</ele>
        <time>2023-08-06T06:22:38Z</time>
      </trkpt>
      <trkpt lat="44.87388" lon="0.56257">
        <ele>101</ele>
        <time>2023-08-06T06:22:40Z</time>
      </trkpt>
      <trkpt lat="44.87389" lon="0.56268">
        <ele>101.2</ele>
        <time>2023-08-06T06:22:42Z</time>
      </trkpt>
      <trkpt lat="44.87388" lon="0.56278">
        <ele>101.3</ele>
        <time>2023-08-06T06:22:44Z</time>
      </trkpt>
      <trkpt lat="44.87387" lon="0.56287">
        <ele>101.4</ele>
        <time>2023-08-06T06:22:46Z</time>
      </trkpt>
      <trkpt lat="44.87388" lon="0.56291">
        <ele>101.5</ele>
        <time>2023-08-06T06:22:47Z</time>
      </trkpt>
      <trkpt lat="44.8739" lon="0.56296">
        <ele>101.6</ele>
        <time>2023-08-06T06:22:48Z</time>
      </trkpt>
      <trkpt lat="44.87394" lon="0.56304">
        <ele>101.7</ele>
        <time>2023-08-06T06:22:50Z</time>
      </trkpt>
      <trkpt lat="44.87396" lon="0.56309">
        <ele>101.8</ele>
        <time>2023-08-06T06:22:51Z</time>
      </trkpt>
      <trkpt lat="44.87398" lon="0.56313">
        <ele>101.8</ele>
        <time>2023-08-06T06:22:52Z</time>
      </trkpt>
      <trkpt lat="44.87403" lon="0.56321">
        <ele>101.9</ele>
        <time>2023-08-06T06:22:54Z</time>
      </trkpt>
      <trkpt lat="44.87408" lon="0.56328">
        <ele>102</ele>
        <time>2023-08-06T06:22:56Z</time>
      </trkpt>
      <trkpt lat="44.87414" lon="0.56334">
        <ele>102.2</ele>
        <time>2023-08-06T06:22:58Z</time>
      </trkpt>
      <trkpt lat="44.87419" lon="0.5634">
        <ele>102.3</ele>
        <time>2023-08-06T06:23:00Z</time>
      </trkpt>
      <trkpt lat="44.87424" lon="0.56346">
        <ele>102.5</ele>
        <time>2023-08-06T06:23:02Z</time>
      </trkpt>
      <trkpt lat="44.87426" lon="0.56349">
        <ele>102.6</ele>
        <time>2023-08-06T06:23:03Z</time>
      </trkpt>
      <trkpt lat="44.87429" lon="0.56353">
        <ele>102.6</ele>
        <time>2023-08-06T06:23:04Z</time>
      </trkpt>
      <trkpt lat="44.87433" lon="0.5636">
        <ele>102.8</ele>
        <time>2023-08-06T06:23:06Z</time>
      </trkpt>
      <trkpt lat="44.87434" lon="0.56369">
        <ele>102.9</ele>
        <time>2023-08-06T06:23:08Z</time>
      </trkpt>
      <trkpt lat="44.87435" lon="0.56379">
        <ele>103</ele>
        <time>2023-08-06T06:23:10Z</time>
      </trkpt>
      <trkpt lat="44.87435" lon="0.56389">
        <ele>103.2</ele>
        <time>2023-08-06T06:23:12Z</time>
      </trkpt>
      <trkpt lat="44.87436" lon="0.56398">
        <ele>103.4</ele>
        <time>2023-08-06T06:23:14Z</time>
      </trkpt>
      <trkpt lat="44.87438" lon="0.56408">
        <ele>103.6</ele>
        <time>2023-08-06T06:23:16Z</time>
      </trkpt>
      <trkpt lat="44.87441" lon="0.56417">
        <ele>103.8</ele>
        <time>2023-08-06T06:23:18Z</time>
      </trkpt>
      <trkpt lat="44.87445" lon="0.56425">
        <ele>103.9</ele>
        <time>2023-08-06T06:23:20Z</time>
      </trkpt>
      <trkpt lat="44.8745" lon="0.56432">
        <ele>104.1</ele>
        <time>2023-08-06T06:23:22Z</time>
      </trkpt>
      <trkpt lat="44.87453" lon="0.56434">
        <ele>104.4</ele>
        <time>2023-08-06T06:23:23Z</time>
      </trkpt>
      <trkpt lat="44.87456" lon="0.56435">
        <ele>104.6</ele>
        <time>2023-08-06T06:23:24Z</time>
      </trkpt>
      <trkpt lat="44.87459" lon="0.56435">
        <ele>104.7</ele>
        <time>2023-08-06T06:23:25Z</time>
      </trkpt>
      <trkpt lat="44.87462" lon="0.56434">
        <ele>104.9</ele>
        <time>2023-08-06T06:23:26Z</time>
      </trkpt>
      <trkpt lat="44.87469" lon="0.56431">
        <ele>104.9</ele>
        <time>2023-08-06T06:23:28Z</time>
      </trkpt>
      <trkpt lat="44.87475" lon="0.56428">
        <ele>105</ele>
        <time>2023-08-06T06:23:30Z</time>
      </trkpt>
      <trkpt lat="44.87482" lon="0.56423">
        <ele>105</ele>
        <time>2023-08-06T06:23:32Z</time>
      </trkpt>
      <trkpt lat="44.87488" lon="0.56418">
        <ele>105.1</ele>
        <time>2023-08-06T06:23:34Z</time>
      </trkpt>
      <trkpt lat="44.87492" lon="0.56416">
        <ele>105.2</ele>
        <time>2023-08-06T06:23:35Z</time>
      </trkpt>
      <trkpt lat="44.87495" lon="0.56413">
        <ele>105.4</ele>
        <time>2023-08-06T06:23:36Z</time>
      </trkpt>
      <trkpt lat="44.87503" lon="0.5641">
        <ele>105.5</ele>
        <time>2023-08-06T06:23:38Z</time>
      </trkpt>
      <trkpt lat="44.87506" lon="0.56408">
        <ele>105.6</ele>
        <time>2023-08-06T06:23:39Z</time>
      </trkpt>
      <trkpt lat="44.87508" lon="0.56404">
        <ele>105.7</ele>
        <time>2023-08-06T06:23:40Z</time>
      </trkpt>
      <trkpt lat="44.87515" lon="0.56398">
        <ele>105.7</ele>
        <time>2023-08-06T06:23:42Z</time>
      </trkpt>
      <trkpt lat="44.87518" lon="0.56395">
        <ele>105.8</ele>
        <time>2023-08-06T06:23:43Z</time>
      </trkpt>
      <trkpt lat="44.87521" lon="0.5639">
        <ele>105.9</ele>
        <time>2023-08-06T06:23:44Z</time>
      </trkpt>
      <trkpt lat="44.87525" lon="0.56387">
        <ele>106.2</ele>
        <time>2023-08-06T06:23:45Z</time>
      </trkpt>
      <trkpt lat="44.87529" lon="0.56387">
        <ele>106.4</ele>
        <time>2023-08-06T06:23:46Z</time>
      </trkpt>
      <trkpt lat="44.87533" lon="0.56386">
        <ele>106.5</ele>
        <time>2023-08-06T06:23:47Z</time>
      </trkpt>
      <trkpt lat="44.87538" lon="0.56385">
        <ele>106.8</ele>
        <time>2023-08-06T06:23:48Z</time>
      </trkpt>
      <trkpt lat="44.87546" lon="0.56382">
        <ele>107</ele>
        <time>2023-08-06T06:23:50Z</time>
      </trkpt>
      <trkpt lat="44.87549" lon="0.5638">
        <ele>107.2</ele>
        <time>2023-08-06T06:23:51Z</time>
      </trkpt>
      <trkpt lat="44.87552" lon="0.56379">
        <ele>107.1</ele>
        <time>2023-08-06T06:23:52Z</time>
      </trkpt>
      <trkpt lat="44.87561" lon="0.56384">
        <ele>107</ele>
        <time>2023-08-06T06:23:54Z</time>
      </trkpt>
      <trkpt lat="44.87565" lon="0.56389">
        <ele>107</ele>
        <time>2023-08-06T06:23:55Z</time>
      </trkpt>
      <trkpt lat="44.87568" lon="0.56393">
        <ele>107</ele>
        <time>2023-08-06T06:23:56Z</time>
      </trkpt>
      <trkpt lat="44.87576" lon="0.56401">
        <ele>107</ele>
        <time>2023-08-06T06:23:58Z</time>
      </trkpt>
      <trkpt lat="44.87579" lon="0.56405">
        <ele>107</ele>
        <time>2023-08-06T06:23:59Z</time>
      </trkpt>
      <trkpt lat="44.87583" lon="0.56408">
        <ele>107</ele>
        <time>2023-08-06T06:24:00Z</time>
      </trkpt>
      <trkpt lat="44.87589" lon="0.56417">
        <ele>107.2</ele>
        <time>2023-08-06T06:24:02Z</time>
      </trkpt>
      <trkpt lat="44.87593" lon="0.56427">
        <ele>107.4</ele>
        <time>2023-08-06T06:24:04Z</time>
      </trkpt>
      <trkpt lat="44.87597" lon="0.56436">
        <ele>107.6</ele>
        <time>2023-08-06T06:24:06Z</time>
      </trkpt>
      <trkpt lat="44.87599" lon="0.56445">
        <ele>107.9</ele>
        <time>2023-08-06T06:24:08Z</time>
      </trkpt>
      <trkpt lat="44.87599" lon="0.56448">
        <ele>108</ele>
        <time>2023-08-06T06:24:09Z</time>
      </trkpt>
      <trkpt lat="44.87598" lon="0.56452">
        <ele>108.1</ele>
        <time>2023-08-06T06:24:10Z</time>
      </trkpt>
      <trkpt lat="44.87594" lon="0.56459">
        <ele>108.4</ele>
        <time>2023-08-06T06:24:12Z</time>
      </trkpt>
      <trkpt lat="44.87592" lon="0.56468">
        <ele>108.6</ele>
        <time>2023-08-06T06:24:14Z</time>
      </trkpt>
      <trkpt lat="44.87591" lon="0.56472">
        <ele>108.8</ele>
        <time>2023-08-06T06:24:15Z</time>
      </trkpt>
      <trkpt lat="44.87591" lon="0.56476">
        <ele>108.8</ele>
        <time>2023-08-06T06:24:16Z</time>
      </trkpt>
      <trkpt lat="44.8759" lon="0.56479">
        <ele>108.9</ele>
        <time>2023-08-06T06:24:17Z</time>
      </trkpt>
      <trkpt lat="44.8759" lon="0.56482">
        <ele>109</ele>
        <time>2023-08-06T06:24:18Z</time>
      </trkpt>
      <trkpt lat="44.87589" lon="0.56486">
        <ele>109.1</ele>
        <time>2023-08-06T06:24:19Z</time>
      </trkpt>
      <trkpt lat="44.8759" lon="0.56489">
        <ele>109.2</ele>
        <time>2023-08-06T06:24:20Z</time>
      </trkpt>
      <trkpt lat="44.87589" lon="0.56495">
        <ele>109.3</ele>
        <time>2023-08-06T06:24:22Z</time>
      </trkpt>
      <trkpt lat="44.87588" lon="0.56501">
        <ele>109.4</ele>
        <time>2023-08-06T06:24:24Z</time>
      </trkpt>
      <trkpt lat="44.87587" lon="0.56506">
        <ele>109.5</ele>
        <time>2023-08-06T06:24:26Z</time>
      </trkpt>
      <trkpt lat="44.87584" lon="0.56516">
        <ele>109.7</ele>
        <time>2023-08-06T06:24:28Z</time>
      </trkpt>
      <trkpt lat="44.87582" lon="0.5652">
        <ele>109.8</ele>
        <time>2023-08-06T06:24:29Z</time>
      </trkpt>
      <trkpt lat="44.8758" lon="0.56524">
        <ele>109.9</ele>
        <time>2023-08-06T06:24:30Z</time>
      </trkpt>
      <trkpt lat="44.87576" lon="0.5653">
        <ele>110.1</ele>
        <time>2023-08-06T06:24:32Z</time>
      </trkpt>
      <trkpt lat="44.87573" lon="0.56535">
        <ele>110.2</ele>
        <time>2023-08-06T06:24:34Z</time>
      </trkpt>
      <trkpt lat="44.87569" lon="0.56541">
        <ele>110.3</ele>
        <time>2023-08-06T06:24:36Z</time>
      </trkpt>
      <trkpt lat="44.87565" lon="0.56546">
        <ele>110.4</ele>
        <time>2023-08-06T06:24:38Z</time>
      </trkpt>
      <trkpt lat="44.87563" lon="0.56548">
        <ele>110.5</ele>
        <time>2023-08-06T06:24:39Z</time>
      </trkpt>
      <trkpt lat="44.8756" lon="0.5655">
        <ele>110.6</ele>
        <time>2023-08-06T06:24:40Z</time>
      </trkpt>
      <trkpt lat="44.87556" lon="0.56556">
        <ele>110.7</ele>
        <time>2023-08-06T06:24:42Z</time>
      </trkpt>
      <trkpt lat="44.87551" lon="0.56562">
        <ele>110.8</ele>
        <time>2023-08-06T06:24:44Z</time>
      </trkpt>
      <trkpt lat="44.87545" lon="0.56567">
        <ele>110.9</ele>
        <time>2023-08-06T06:24:46Z</time>
      </trkpt>
      <trkpt lat="44.87543" lon="0.5657">
        <ele>111</ele>
        <time>2023-08-06T06:24:47Z</time>
      </trkpt>
      <trkpt lat="44.8754" lon="0.56573">
        <ele>111</ele>
        <time>2023-08-06T06:24:48Z</time>
      </trkpt>
      <trkpt lat="44.87536" lon="0.56578">
        <ele>111.1</ele>
        <time>2023-08-06T06:24:50Z</time>
      </trkpt>
      <trkpt lat="44.8753" lon="0.56583">
        <ele>111.2</ele>
        <time>2023-08-06T06:24:52Z</time>
      </trkpt>
      <trkpt lat="44.87528" lon="0.56587">
        <ele>111.3</ele>
        <time>2023-08-06T06:24:53Z</time>
      </trkpt>
      <trkpt lat="44.87527" lon="0.56591">
        <ele>111.3</ele>
        <time>2023-08-06T06:24:54Z</time>
      </trkpt>
      <trkpt lat="44.87526" lon="0.56601">
        <ele>111.4</ele>
        <time>2023-08-06T06:24:56Z</time>
      </trkpt>
      <trkpt lat="44.87528" lon="0.5661">
        <ele>111.5</ele>
        <time>2023-08-06T06:24:58Z</time>
      </trkpt>
      <trkpt lat="44.87532" lon="0.56618">
        <ele>111.8</ele>
        <time>2023-08-06T06:25:00Z</time>
      </trkpt>
      <trkpt lat="44.87536" lon="0.56626">
        <ele>112</ele>
        <time>2023-08-06T06:25:02Z</time>
      </trkpt>
      <trkpt lat="44.8754" lon="0.56634">
        <ele>112.1</ele>
        <time>2023-08-06T06:25:04Z</time>
      </trkpt>
      <trkpt lat="44.87542" lon="0.56638">
        <ele>112.2</ele>
        <time>2023-08-06T06:25:05Z</time>
      </trkpt>
      <trkpt lat="44.87543" lon="0.56642">
        <ele>112.3</ele>
        <time>2023-08-06T06:25:06Z</time>
      </trkpt>
      <trkpt lat="44.87547" lon="0.56648">
        <ele>112.4</ele>
        <time>2023-08-06T06:25:08Z</time>
      </trkpt>
      <trkpt lat="44.87549" lon="0.56652">
        <ele>112.5</ele>
        <time>2023-08-06T06:25:09Z</time>
      </trkpt>
      <trkpt lat="44.87552" lon="0.56656">
        <ele>112.6</ele>
        <time>2023-08-06T06:25:10Z</time>
      </trkpt>
      <trkpt lat="44.87557" lon="0.56663">
        <ele>112.7</ele>
        <time>2023-08-06T06:25:12Z</time>
      </trkpt>
      <trkpt lat="44.87559" lon="0.56666">
        <ele>112.8</ele>
        <time>2023-08-06T06:25:13Z</time>
      </trkpt>
      <trkpt lat="44.87561" lon="0.56669">
        <ele>112.8</ele>
        <time>2023-08-06T06:25:14Z</time>
      </trkpt>
      <trkpt lat="44.87566" lon="0.56677">
        <ele>112.9</ele>
        <time>2023-08-06T06:25:16Z</time>
      </trkpt>
      <trkpt lat="44.87571" lon="0.56685">
        <ele>113</ele>
        <time>2023-08-06T06:25:18Z</time>
      </trkpt>
      <trkpt lat="44.87576" lon="0.56693">
        <ele>113.1</ele>
        <time>2023-08-06T06:25:20Z</time>
      </trkpt>
      <trkpt lat="44.87581" lon="0.56699">
        <ele>113.2</ele>
        <time>2023-08-06T06:25:22Z</time>
      </trkpt>
      <trkpt lat="44.87587" lon="0.56706">
        <ele>113.3</ele>
        <time>2023-08-06T06:25:24Z</time>
      </trkpt>
      <trkpt lat="44.87591" lon="0.5671">
        <ele>113.3</ele>
        <time>2023-08-06T06:25:25Z</time>
      </trkpt>
      <trkpt lat="44.87594" lon="0.56713">
        <ele>113.4</ele>
        <time>2023-08-06T06:25:26Z</time>
      </trkpt>
      <trkpt lat="44.87601" lon="0.5672">
        <ele>113.5</ele>
        <time>2023-08-06T06:25:28Z</time>
      </trkpt>
      <trkpt lat="44.87609" lon="0.56728">
        <ele>113.5</ele>
        <time>2023-08-06T06:25:30Z</time>
      </trkpt>
      <trkpt lat="44.87616" lon="0.56735">
        <ele>113.6</ele>
        <time>2023-08-06T06:25:32Z</time>
      </trkpt>
      <trkpt lat="44.87622" lon="0.56741">
        <ele>113.7</ele>
        <time>2023-08-06T06:25:34Z</time>
      </trkpt>
      <trkpt lat="44.87628" lon="0.56746">
        <ele>113.7</ele>
        <time>2023-08-06T06:25:36Z</time>
      </trkpt>
      <trkpt lat="44.87632" lon="0.56752">
        <ele>113.8</ele>
        <time>2023-08-06T06:25:38Z</time>
      </trkpt>
      <trkpt lat="44.87638" lon="0.56757">
        <ele>114</ele>
        <time>2023-08-06T06:25:40Z</time>
      </trkpt>
      <trkpt lat="44.87643" lon="0.56761">
        <ele>114</ele>
        <time>2023-08-06T06:25:42Z</time>
      </trkpt>
      <trkpt lat="44.87645" lon="0.56763">
        <ele>114</ele>
        <time>2023-08-06T06:25:43Z</time>
      </trkpt>
      <trkpt lat="44.87647" lon="0.56766">
        <ele>114</ele>
        <time>2023-08-06T06:25:44Z</time>
      </trkpt>
      <trkpt lat="44.87653" lon="0.56771">
        <ele>114</ele>
        <time>2023-08-06T06:25:46Z</time>
      </trkpt>
      <trkpt lat="44.87658" lon="0.56775">
        <ele>114</ele>
        <time>2023-08-06T06:25:48Z</time>
      </trkpt>
      <trkpt lat="44.87665" lon="0.56781">
        <ele>114</ele>
        <time>2023-08-06T06:25:50Z</time>
      </trkpt>
      <trkpt lat="44.87671" lon="0.56786">
        <ele>114.1</ele>
        <time>2023-08-06T06:25:52Z</time>
      </trkpt>
      <trkpt lat="44.87677" lon="0.56791">
        <ele>114.1</ele>
        <time>2023-08-06T06:25:54Z</time>
      </trkpt>
      <trkpt lat="44.87683" lon="0.56795">
        <ele>114.1</ele>
        <time>2023-08-06T06:25:56Z</time>
      </trkpt>
      <trkpt lat="44.87689" lon="0.56799">
        <ele>114.2</ele>
        <time>2023-08-06T06:25:58Z</time>
      </trkpt>
      <trkpt lat="44.87697" lon="0.56803">
        <ele>114.2</ele>
        <time>2023-08-06T06:26:00Z</time>
      </trkpt>
      <trkpt lat="44.87704" lon="0.56807">
        <ele>114.2</ele>
        <time>2023-08-06T06:26:02Z</time>
      </trkpt>
      <trkpt lat="44.8771" lon="0.56811">
        <ele>114.3</ele>
        <time>2023-08-06T06:26:04Z</time>
      </trkpt>
      <trkpt lat="44.87717" lon="0.56815">
        <ele>114.4</ele>
        <time>2023-08-06T06:26:06Z</time>
      </trkpt>
      <trkpt lat="44.87724" lon="0.56819">
        <ele>114.5</ele>
        <time>2023-08-06T06:26:08Z</time>
      </trkpt>
      <trkpt lat="44.87731" lon="0.56824">
        <ele>114.7</ele>
        <time>2023-08-06T06:26:10Z</time>
      </trkpt>
      <trkpt lat="44.87739" lon="0.56829">
        <ele>114.8</ele>
        <time>2023-08-06T06:26:12Z</time>
      </trkpt>
      <trkpt lat="44.87747" lon="0.56832">
        <ele>115</ele>
        <time>2023-08-06T06:26:14Z</time>
      </trkpt>
      <trkpt lat="44.87754" lon="0.56837">
        <ele>115.2</ele>
        <time>2023-08-06T06:26:16Z</time>
      </trkpt>
      <trkpt lat="44.87758" lon="0.5684">
        <ele>115.3</ele>
        <time>2023-08-06T06:26:17Z</time>
      </trkpt>
      <trkpt lat="44.87761" lon="0.56842">
        <ele>115.4</ele>
        <time>2023-08-06T06:26:18Z</time>
      </trkpt>
      <trkpt lat="44.87768" lon="0.56847">
        <ele>115.6</ele>
        <time>2023-08-06T06:26:20Z</time>
      </trkpt>
      <trkpt lat="44.87774" lon="0.56853">
        <ele>115.8</ele>
        <time>2023-08-06T06:26:22Z</time>
      </trkpt>
      <trkpt lat="44.87781" lon="0.5686">
        <ele>116.1</ele>
        <time>2023-08-06T06:26:24Z</time>
      </trkpt>
      <trkpt lat="44.87784" lon="0.56864">
        <ele>116.3</ele>
        <time>2023-08-06T06:26:25Z</time>
      </trkpt>
      <trkpt lat="44.87786" lon="0.56868">
        <ele>116.4</ele>
        <time>2023-08-06T06:26:26Z</time>
      </trkpt>
      <trkpt lat="44.87792" lon="0.56877">
        <ele>116.7</ele>
        <time>2023-08-06T06:26:28Z</time>
      </trkpt>
      <trkpt lat="44.87798" lon="0.56888">
        <ele>117.1</ele>
        <time>2023-08-06T06:26:30Z</time>
      </trkpt>
      <trkpt lat="44.87801" lon="0.56894">
        <ele>117.2</ele>
        <time>2023-08-06T06:26:31Z</time>
      </trkpt>
      <trkpt lat="44.87804" lon="0.56901">
        <ele>117.3</ele>
        <time>2023-08-06T06:26:32Z</time>
      </trkpt>
      <trkpt lat="44.87809" lon="0.56916">
        <ele>117.4</ele>
        <time>2023-08-06T06:26:34Z</time>
      </trkpt>
      <trkpt lat="44.87816" lon="0.5693">
        <ele>117.3</ele>
        <time>2023-08-06T06:26:36Z</time>
      </trkpt>
      <trkpt lat="44.87822" lon="0.56945">
        <ele>117.1</ele>
        <time>2023-08-06T06:26:38Z</time>
      </trkpt>
      <trkpt lat="44.87829" lon="0.56958">
        <ele>116.8</ele>
        <time>2023-08-06T06:26:40Z</time>
      </trkpt>
      <trkpt lat="44.87833" lon="0.56963">
        <ele>116.7</ele>
        <time>2023-08-06T06:26:41Z</time>
      </trkpt>
      <trkpt lat="44.87837" lon="0.56968">
        <ele>116.6</ele>
        <time>2023-08-06T06:26:42Z</time>
      </trkpt>
      <trkpt lat="44.87842" lon="0.56971">
        <ele>116.5</ele>
        <time>2023-08-06T06:26:43Z</time>
      </trkpt>
      <trkpt lat="44.87846" lon="0.56974">
        <ele>116.4</ele>
        <time>2023-08-06T06:26:44Z</time>
      </trkpt>
      <trkpt lat="44.87856" lon="0.56981">
        <ele>116.3</ele>
        <time>2023-08-06T06:26:46Z</time>
      </trkpt>
      <trkpt lat="44.87865" lon="0.56981">
        <ele>115.8</ele>
        <time>2023-08-06T06:26:48Z</time>
      </trkpt>
      <trkpt lat="44.87869" lon="0.56979">
        <ele>115.4</ele>
        <time>2023-08-06T06:26:49Z</time>
      </trkpt>
      <trkpt lat="44.87873" lon="0.56977">
        <ele>115.1</ele>
        <time>2023-08-06T06:26:50Z</time>
      </trkpt>
      <trkpt lat="44.87879" lon="0.56974">
        <ele>114.5</ele>
        <time>2023-08-06T06:26:52Z</time>
      </trkpt>
      <trkpt lat="44.87882" lon="0.56972">
        <ele>114.2</ele>
        <time>2023-08-06T06:26:53Z</time>
      </trkpt>
      <trkpt lat="44.87885" lon="0.56971">
        <ele>113.9</ele>
        <time>2023-08-06T06:26:54Z</time>
      </trkpt>
      <trkpt lat="44.8789" lon="0.56967">
        <ele>113.4</ele>
        <time>2023-08-06T06:26:56Z</time>
      </trkpt>
      <trkpt lat="44.87896" lon="0.56963">
        <ele>112.9</ele>
        <time>2023-08-06T06:26:58Z</time>
      </trkpt>
      <trkpt lat="44.87899" lon="0.56961">
        <ele>112.7</ele>
        <time>2023-08-06T06:26:59Z</time>
      </trkpt>
      <trkpt lat="44.87902" lon="0.56958">
        <ele>112.4</ele>
        <time>2023-08-06T06:27:00Z</time>
      </trkpt>
      <trkpt lat="44.8791" lon="0.56955">
        <ele>111.9</ele>
        <time>2023-08-06T06:27:02Z</time>
      </trkpt>
      <trkpt lat="44.87913" lon="0.56953">
        <ele>111.7</ele>
        <time>2023-08-06T06:27:03Z</time>
      </trkpt>
      <trkpt lat="44.87916" lon="0.5695">
        <ele>111.5</ele>
        <time>2023-08-06T06:27:04Z</time>
      </trkpt>
      <trkpt lat="44.87924" lon="0.56947">
        <ele>111</ele>
        <time>2023-08-06T06:27:06Z</time>
      </trkpt>
      <trkpt lat="44.87926" lon="0.56946">
        <ele>110.8</ele>
        <time>2023-08-06T06:27:07Z</time>
      </trkpt>
      <trkpt lat="44.87929" lon="0.56943">
        <ele>110.6</ele>
        <time>2023-08-06T06:27:08Z</time>
      </trkpt>
      <trkpt lat="44.87937" lon="0.56937">
        <ele>110</ele>
        <time>2023-08-06T06:27:10Z</time>
      </trkpt>
      <trkpt lat="44.87945" lon="0.56932">
        <ele>109.2</ele>
        <time>2023-08-06T06:27:12Z</time>
      </trkpt>
      <trkpt lat="44.87948" lon="0.56931">
        <ele>109</ele>
        <time>2023-08-06T06:27:13Z</time>
      </trkpt>
      <trkpt lat="44.87948" lon="0.56929">
        <ele>108.8</ele>
        <time>2023-08-06T06:27:14Z</time>
      </trkpt>
      <trkpt lat="44.87948" lon="0.56925">
        <ele>108.6</ele>
        <time>2023-08-06T06:27:15Z</time>
      </trkpt>
      <trkpt lat="44.87949" lon="0.56922">
        <ele>108.4</ele>
        <time>2023-08-06T06:27:16Z</time>
      </trkpt>
      <trkpt lat="44.87954" lon="0.56915">
        <ele>107.7</ele>
        <time>2023-08-06T06:27:18Z</time>
      </trkpt>
      <trkpt lat="44.87959" lon="0.5691">
        <ele>107</ele>
        <time>2023-08-06T06:27:19Z</time>
      </trkpt>
      <trkpt lat="44.87964" lon="0.56907">
        <ele>106.3</ele>
        <time>2023-08-06T06:27:20Z</time>
      </trkpt>
      <trkpt lat="44.87978" lon="0.56897">
        <ele>104.6</ele>
        <time>2023-08-06T06:27:22Z</time>
      </trkpt>
      <trkpt lat="44.87986" lon="0.56895">
        <ele>103.7</ele>
        <time>2023-08-06T06:27:23Z</time>
      </trkpt>
      <trkpt lat="44.87995" lon="0.56889">
        <ele>102.8</ele>
        <time>2023-08-06T06:27:24Z</time>
      </trkpt>
      <trkpt lat="44.8801" lon="0.56879">
        <ele>101.2</ele>
        <time>2023-08-06T06:27:26Z</time>
      </trkpt>
      <trkpt lat="44.88023" lon="0.56871">
        <ele>100.1</ele>
        <time>2023-08-06T06:27:28Z</time>
      </trkpt>
      <trkpt lat="44.88039" lon="0.56861">
        <ele>98.9</ele>
        <time>2023-08-06T06:27:30Z</time>
      </trkpt>
      <trkpt lat="44.88048" lon="0.56856">
        <ele>98.3</ele>
        <time>2023-08-06T06:27:31Z</time>
      </trkpt>
      <trkpt lat="44.88056" lon="0.5685">
        <ele>97.7</ele>
        <time>2023-08-06T06:27:32Z</time>
      </trkpt>
      <trkpt lat="44.88071" lon="0.56839">
        <ele>96.5</ele>
        <time>2023-08-06T06:27:34Z</time>
      </trkpt>
      <trkpt lat="44.88084" lon="0.56831">
        <ele>95.4</ele>
        <time>2023-08-06T06:27:36Z</time>
      </trkpt>
      <trkpt lat="44.88091" lon="0.56828">
        <ele>94.9</ele>
        <time>2023-08-06T06:27:37Z</time>
      </trkpt>
      <trkpt lat="44.88098" lon="0.56826">
        <ele>94.3</ele>
        <time>2023-08-06T06:27:38Z</time>
      </trkpt>
      <trkpt lat="44.88113" lon="0.56823">
        <ele>92.9</ele>
        <time>2023-08-06T06:27:40Z</time>
      </trkpt>
      <trkpt lat="44.8812" lon="0.56822">
        <ele>92.2</ele>
        <time>2023-08-06T06:27:41Z</time>
      </trkpt>
      <trkpt lat="44.88127" lon="0.56822">
        <ele>91.5</ele>
        <time>2023-08-06T06:27:42Z</time>
      </trkpt>
      <trkpt lat="44.88133" lon="0.56824">
        <ele>90.9</ele>
        <time>2023-08-06T06:27:43Z</time>
      </trkpt>
      <trkpt lat="44.8814" lon="0.56824">
        <ele>90.4</ele>
        <time>2023-08-06T06:27:44Z</time>
      </trkpt>
      <trkpt lat="44.8815" lon="0.56823">
        <ele>89.7</ele>
        <time>2023-08-06T06:27:46Z</time>
      </trkpt>
      <trkpt lat="44.88155" lon="0.56821">
        <ele>89.4</ele>
        <time>2023-08-06T06:27:47Z</time>
      </trkpt>
      <trkpt lat="44.88158" lon="0.5682">
        <ele>89.2</ele>
        <time>2023-08-06T06:27:48Z</time>
      </trkpt>
      <trkpt lat="44.88165" lon="0.56819">
        <ele>88.9</ele>
        <time>2023-08-06T06:27:50Z</time>
      </trkpt>
      <trkpt lat="44.8817" lon="0.56817">
        <ele>88.6</ele>
        <time>2023-08-06T06:27:52Z</time>
      </trkpt>
      <trkpt lat="44.88176" lon="0.56816">
        <ele>88.3</ele>
        <time>2023-08-06T06:27:54Z</time>
      </trkpt>
      <trkpt lat="44.88181" lon="0.56816">
        <ele>88.1</ele>
        <time>2023-08-06T06:27:56Z</time>
      </trkpt>
      <trkpt lat="44.88184" lon="0.56816">
        <ele>88</ele>
        <time>2023-08-06T06:27:57Z</time>
      </trkpt>
      <trkpt lat="44.88187" lon="0.56816">
        <ele>87.8</ele>
        <time>2023-08-06T06:27:58Z</time>
      </trkpt>
      <trkpt lat="44.88194" lon="0.56814">
        <ele>87.5</ele>
        <time>2023-08-06T06:28:00Z</time>
      </trkpt>
      <trkpt lat="44.88196" lon="0.56814">
        <ele>87.4</ele>
        <time>2023-08-06T06:28:01Z</time>
      </trkpt>
      <trkpt lat="44.88197" lon="0.56812">
        <ele>87.3</ele>
        <time>2023-08-06T06:28:02Z</time>
      </trkpt>
      <trkpt lat="44.882" lon="0.56809">
        <ele>87.1</ele>
        <time>2023-08-06T06:28:04Z</time>
      </trkpt>
      <trkpt lat="44.88203" lon="0.56806">
        <ele>86.9</ele>
        <time>2023-08-06T06:28:05Z</time>
      </trkpt>
      <trkpt lat="44.88206" lon="0.56804">
        <ele>86.2</ele>
        <time>2023-08-06T06:28:06Z</time>
      </trkpt>
      <trkpt lat="44.88211" lon="0.56802">
        <ele>85.5</ele>
        <time>2023-08-06T06:28:08Z</time>
      </trkpt>
      <trkpt lat="44.88217" lon="0.56798">
        <ele>84.2</ele>
        <time>2023-08-06T06:28:10Z</time>
      </trkpt>
      <trkpt lat="44.88226" lon="0.56795">
        <ele>82.4</ele>
        <time>2023-08-06T06:28:12Z</time>
      </trkpt>
      <trkpt lat="44.8823" lon="0.56794">
        <ele>81.7</ele>
        <time>2023-08-06T06:28:13Z</time>
      </trkpt>
      <trkpt lat="44.88234" lon="0.56792">
        <ele>81.1</ele>
        <time>2023-08-06T06:28:14Z</time>
      </trkpt>
      <trkpt lat="44.8824" lon="0.5679">
        <ele>80</ele>
        <time>2023-08-06T06:28:16Z</time>
      </trkpt>
      <trkpt lat="44.88243" lon="0.5679">
        <ele>79.5</ele>
        <time>2023-08-06T06:28:17Z</time>
      </trkpt>
      <trkpt lat="44.88247" lon="0.5679">
        <ele>78.8</ele>
        <time>2023-08-06T06:28:18Z</time>
      </trkpt>
      <trkpt lat="44.88257" lon="0.56789">
        <ele>77.3</ele>
        <time>2023-08-06T06:28:20Z</time>
      </trkpt>
      <trkpt lat="44.88261" lon="0.56788">
        <ele>76.7</ele>
        <time>2023-08-06T06:28:21Z</time>
      </trkpt>
      <trkpt lat="44.88265" lon="0.56786">
        <ele>76.1</ele>
        <time>2023-08-06T06:28:22Z</time>
      </trkpt>
      <trkpt lat="44.88273" lon="0.56781">
        <ele>75</ele>
        <time>2023-08-06T06:28:24Z</time>
      </trkpt>
      <trkpt lat="44.88278" lon="0.5678">
        <ele>74.3</ele>
        <time>2023-08-06T06:28:25Z</time>
      </trkpt>
      <trkpt lat="44.88283" lon="0.56779">
        <ele>73.6</ele>
        <time>2023-08-06T06:28:26Z</time>
      </trkpt>
      <trkpt lat="44.88289" lon="0.56778">
        <ele>72.8</ele>
        <time>2023-08-06T06:28:28Z</time>
      </trkpt>
      <trkpt lat="44.88293" lon="0.56778">
        <ele>72.3</ele>
        <time>2023-08-06T06:28:29Z</time>
      </trkpt>
      <trkpt lat="44.88296" lon="0.56777">
        <ele>71.8</ele>
        <time>2023-08-06T06:28:34Z</time>
      </trkpt>
      <trkpt lat="44.883" lon="0.56777">
        <ele>71.3</ele>
        <time>2023-08-06T06:28:35Z</time>
      </trkpt>
      <trkpt lat="44.88303" lon="0.56777">
        <ele>70.7</ele>
        <time>2023-08-06T06:28:36Z</time>
      </trkpt>
      <trkpt lat="44.88309" lon="0.56777">
        <ele>69.9</ele>
        <time>2023-08-06T06:28:38Z</time>
      </trkpt>
      <trkpt lat="44.88311" lon="0.56777">
        <ele>69.6</ele>
        <time>2023-08-06T06:28:39Z</time>
      </trkpt>
      <trkpt lat="44.88313" lon="0.56777">
        <ele>69.3</ele>
        <time>2023-08-06T06:28:40Z</time>
      </trkpt>
      <trkpt lat="44.88315" lon="0.56777">
        <ele>69</ele>
        <time>2023-08-06T06:28:41Z</time>
      </trkpt>
      <trkpt lat="44.88316" lon="0.56777">
        <ele>68.8</ele>
        <time>2023-08-06T06:28:42Z</time>
      </trkpt>
      <trkpt lat="44.88316" lon="0.56777">
        <ele>68.8</ele>
        <time>2023-08-06T06:28:43Z</time>
      </trkpt>
      <trkpt lat="44.8832" lon="0.56777">
        <ele>68.2</ele>
        <time>2023-08-06T06:29:01Z</time>
      </trkpt>
      <trkpt lat="44.88323" lon="0.56777">
        <ele>67.8</ele>
        <time>2023-08-06T06:29:02Z</time>
      </trkpt>
      <trkpt lat="44.88329" lon="0.56776">
        <ele>67</ele>
        <time>2023-08-06T06:29:04Z</time>
      </trkpt>
      <trkpt lat="44.88335" lon="0.56777">
        <ele>66.2</ele>
        <time>2023-08-06T06:29:06Z</time>
      </trkpt>
      <trkpt lat="44.88337" lon="0.56779">
        <ele>65.8</ele>
        <time>2023-08-06T06:29:07Z</time>
      </trkpt>
      <trkpt lat="44.88339" lon="0.56781">
        <ele>65.5</ele>
        <time>2023-08-06T06:29:08Z</time>
      </trkpt>
      <trkpt lat="44.88341" lon="0.56782">
        <ele>65.3</ele>
        <time>2023-08-06T06:29:10Z</time>
      </trkpt>
      <trkpt lat="44.88348" lon="0.5679">
        <ele>64.2</ele>
        <time>2023-08-06T06:30:40Z</time>
      </trkpt>
      <trkpt lat="44.88347" lon="0.56793">
        <ele>64</ele>
        <time>2023-08-06T06:30:42Z</time>
      </trkpt>
      <trkpt lat="44.88345" lon="0.56793">
        <ele>63.9</ele>
        <time>2023-08-06T06:30:43Z</time>
      </trkpt>
      <trkpt lat="44.88344" lon="0.56794">
        <ele>63.8</ele>
        <time>2023-08-06T06:30:44Z</time>
      </trkpt>
      <trkpt lat="44.8834" lon="0.56795">
        <ele>64.9</ele>
        <time>2023-08-06T06:30:46Z</time>
      </trkpt>
      <trkpt lat="44.88338" lon="0.56796">
        <ele>65.2</ele>
        <time>2023-08-06T06:30:47Z</time>
      </trkpt>
      <trkpt lat="44.88337" lon="0.56798">
        <ele>65.5</ele>
        <time>2023-08-06T06:30:48Z</time>
      </trkpt>
      <trkpt lat="44.88334" lon="0.56802">
        <ele>65.9</ele>
        <time>2023-08-06T06:30:50Z</time>
      </trkpt>
      <trkpt lat="44.88331" lon="0.56804">
        <ele>66.4</ele>
        <time>2023-08-06T06:30:52Z</time>
      </trkpt>
      <trkpt lat="44.88327" lon="0.56804">
        <ele>66.9</ele>
        <time>2023-08-06T06:30:54Z</time>
      </trkpt>
      <trkpt lat="44.88325" lon="0.56804">
        <ele>67.1</ele>
        <time>2023-08-06T06:30:55Z</time>
      </trkpt>
      <trkpt lat="44.88323" lon="0.56802">
        <ele>67.4</ele>
        <time>2023-08-06T06:30:56Z</time>
      </trkpt>
      <trkpt lat="44.88319" lon="0.56803">
        <ele>67.8</ele>
        <time>2023-08-06T06:30:58Z</time>
      </trkpt>
      <trkpt lat="44.88315" lon="0.56802">
        <ele>68.3</ele>
        <time>2023-08-06T06:31:00Z</time>
      </trkpt>
      <trkpt lat="44.88311" lon="0.568">
        <ele>68.7</ele>
        <time>2023-08-06T06:31:02Z</time>
      </trkpt>
      <trkpt lat="44.88307" lon="0.568">
        <ele>69.1</ele>
        <time>2023-08-06T06:31:04Z</time>
      </trkpt>
      <trkpt lat="44.88305" lon="0.56801">
        <ele>69.3</ele>
        <time>2023-08-06T06:31:05Z</time>
      </trkpt>
      <trkpt lat="44.88303" lon="0.56801">
        <ele>69.5</ele>
        <time>2023-08-06T06:31:06Z</time>
      </trkpt>
      <trkpt lat="44.88302" lon="0.56803">
        <ele>69.6</ele>
        <time>2023-08-06T06:31:07Z</time>
      </trkpt>
      <trkpt lat="44.88301" lon="0.56805">
        <ele>69.8</ele>
        <time>2023-08-06T06:31:08Z</time>
      </trkpt>
      <trkpt lat="44.88301" lon="0.56807">
        <ele>70</ele>
        <time>2023-08-06T06:31:09Z</time>
      </trkpt>
      <trkpt lat="44.88302" lon="0.56809">
        <ele>70.2</ele>
        <time>2023-08-06T06:31:10Z</time>
      </trkpt>
      <trkpt lat="44.88304" lon="0.56812">
        <ele>73.2</ele>
        <time>2023-08-06T06:31:12Z</time>
      </trkpt>
      <trkpt lat="44.88305" lon="0.56816">
        <ele>73.5</ele>
        <time>2023-08-06T06:31:14Z</time>
      </trkpt>
      <trkpt lat="44.88306" lon="0.56822">
        <ele>73.9</ele>
        <time>2023-08-06T06:31:16Z</time>
      </trkpt>
      <trkpt lat="44.88307" lon="0.56827">
        <ele>74.4</ele>
        <time>2023-08-06T06:31:18Z</time>
      </trkpt>
      <trkpt lat="44.88308" lon="0.56831">
        <ele>74.8</ele>
        <time>2023-08-06T06:31:20Z</time>
      </trkpt>
      <trkpt lat="44.8831" lon="0.56836">
        <ele>75.2</ele>
        <time>2023-08-06T06:31:22Z</time>
      </trkpt>
      <trkpt lat="44.88311" lon="0.5684">
        <ele>75.5</ele>
        <time>2023-08-06T06:31:24Z</time>
      </trkpt>
      <trkpt lat="44.88311" lon="0.56842">
        <ele>75.7</ele>
        <time>2023-08-06T06:31:25Z</time>
      </trkpt>
      <trkpt lat="44.88311" lon="0.56844">
        <ele>75.8</ele>
        <time>2023-08-06T06:31:26Z</time>
      </trkpt>
      <trkpt lat="44.88313" lon="0.56848">
        <ele>76.1</ele>
        <time>2023-08-06T06:31:28Z</time>
      </trkpt>
      <trkpt lat="44.88314" lon="0.5685">
        <ele>76.3</ele>
        <time>2023-08-06T06:31:29Z</time>
      </trkpt>
      <trkpt lat="44.88316" lon="0.56853">
        <ele>76.6</ele>
        <time>2023-08-06T06:31:30Z</time>
      </trkpt>
      <trkpt lat="44.88317" lon="0.56855">
        <ele>76.8</ele>
        <time>2023-08-06T06:31:31Z</time>
      </trkpt>
      <trkpt lat="44.88319" lon="0.56857">
        <ele>77</ele>
        <time>2023-08-06T06:31:32Z</time>
      </trkpt>
      <trkpt lat="44.88321" lon="0.56862">
        <ele>77.3</ele>
        <time>2023-08-06T06:31:34Z</time>
      </trkpt>
      <trkpt lat="44.88322" lon="0.56864">
        <ele>77.5</ele>
        <time>2023-08-06T06:31:35Z</time>
      </trkpt>
      <trkpt lat="44.88322" lon="0.56866">
        <ele>77.6</ele>
        <time>2023-08-06T06:31:36Z</time>
      </trkpt>
      <trkpt lat="44.88323" lon="0.56871">
        <ele>77.9</ele>
        <time>2023-08-06T06:31:38Z</time>
      </trkpt>
      <trkpt lat="44.88323" lon="0.56873">
        <ele>78</ele>
        <time>2023-08-06T06:31:39Z</time>
      </trkpt>
      <trkpt lat="44.88324" lon="0.56875">
        <ele>78.1</ele>
        <time>2023-08-06T06:31:40Z</time>
      </trkpt>
      <trkpt lat="44.88324" lon="0.56878">
        <ele>78.3</ele>
        <time>2023-08-06T06:31:41Z</time>
      </trkpt>
      <trkpt lat="44.88325" lon="0.5688">
        <ele>78.4</ele>
        <time>2023-08-06T06:31:42Z</time>
      </trkpt>
      <trkpt lat="44.88326" lon="0.56883">
        <ele>78.5</ele>
        <time>2023-08-06T06:31:44Z</time>
      </trkpt>
      <trkpt lat="44.88326" lon="0.56887">
        <ele>78.6</ele>
        <time>2023-08-06T06:31:46Z</time>
      </trkpt>
      <trkpt lat="44.88327" lon="0.56894">
        <ele>78.8</ele>
        <time>2023-08-06T06:31:48Z</time>
      </trkpt>
      <trkpt lat="44.88328" lon="0.56899">
        <ele>78.9</ele>
        <time>2023-08-06T06:31:50Z</time>
      </trkpt>
      <trkpt lat="44.88329" lon="0.56906">
        <ele>79.1</ele>
        <time>2023-08-06T06:31:52Z</time>
      </trkpt>
      <trkpt lat="44.88332" lon="0.56914">
        <ele>79.1</ele>
        <time>2023-08-06T06:31:54Z</time>
      </trkpt>
      <trkpt lat="44.88335" lon="0.56922">
        <ele>78.9</ele>
        <time>2023-08-06T06:31:56Z</time>
      </trkpt>
      <trkpt lat="44.88336" lon="0.56927">
        <ele>78.8</ele>
        <time>2023-08-06T06:31:57Z</time>
      </trkpt>
      <trkpt lat="44.88337" lon="0.56933">
        <ele>78.6</ele>
        <time>2023-08-06T06:31:58Z</time>
      </trkpt>
      <trkpt lat="44.88341" lon="0.56944">
        <ele>78</ele>
        <time>2023-08-06T06:32:00Z</time>
      </trkpt>
      <trkpt lat="44.88344" lon="0.56948">
        <ele>77.6</ele>
        <time>2023-08-06T06:32:01Z</time>
      </trkpt>
      <trkpt lat="44.88348" lon="0.56951">
        <ele>77.1</ele>
        <time>2023-08-06T06:32:02Z</time>
      </trkpt>
      <trkpt lat="44.88353" lon="0.56954">
        <ele>76.4</ele>
        <time>2023-08-06T06:32:03Z</time>
      </trkpt>
      <trkpt lat="44.88358" lon="0.56958">
        <ele>75.8</ele>
        <time>2023-08-06T06:32:04Z</time>
      </trkpt>
      <trkpt lat="44.88362" lon="0.56964">
        <ele>75.1</ele>
        <time>2023-08-06T06:32:05Z</time>
      </trkpt>
      <trkpt lat="44.88365" lon="0.56972">
        <ele>74.3</ele>
        <time>2023-08-06T06:32:06Z</time>
      </trkpt>
      <trkpt lat="44.88373" lon="0.56989">
        <ele>72.4</ele>
        <time>2023-08-06T06:32:08Z</time>
      </trkpt>
      <trkpt lat="44.88376" lon="0.56998">
        <ele>72</ele>
        <time>2023-08-06T06:32:09Z</time>
      </trkpt>
      <trkpt lat="44.88377" lon="0.57007">
        <ele>71.7</ele>
        <time>2023-08-06T06:32:10Z</time>
      </trkpt>
      <trkpt lat="44.88379" lon="0.57015">
        <ele>71.6</ele>
        <time>2023-08-06T06:32:11Z</time>
      </trkpt>
      <trkpt lat="44.88381" lon="0.57022">
        <ele>71.5</ele>
        <time>2023-08-06T06:32:12Z</time>
      </trkpt>
      <trkpt lat="44.88384" lon="0.57027">
        <ele>71.6</ele>
        <time>2023-08-06T06:32:13Z</time>
      </trkpt>
      <trkpt lat="44.88386" lon="0.57031">
        <ele>71.7</ele>
        <time>2023-08-06T06:32:14Z</time>
      </trkpt>
      <trkpt lat="44.8839" lon="0.57038">
        <ele>72</ele>
        <time>2023-08-06T06:32:16Z</time>
      </trkpt>
      <trkpt lat="44.88391" lon="0.5704">
        <ele>72.1</ele>
        <time>2023-08-06T06:32:17Z</time>
      </trkpt>
      <trkpt lat="44.88392" lon="0.57043">
        <ele>72.3</ele>
        <time>2023-08-06T06:32:18Z</time>
      </trkpt>
      <trkpt lat="44.88396" lon="0.57049">
        <ele>72.7</ele>
        <time>2023-08-06T06:32:20Z</time>
      </trkpt>
      <trkpt lat="44.88398" lon="0.57053">
        <ele>73.1</ele>
        <time>2023-08-06T06:32:21Z</time>
      </trkpt>
      <trkpt lat="44.884" lon="0.57057">
        <ele>73.4</ele>
        <time>2023-08-06T06:32:22Z</time>
      </trkpt>
      <trkpt lat="44.88404" lon="0.57061">
        <ele>73.9</ele>
        <time>2023-08-06T06:32:24Z</time>
      </trkpt>
      <trkpt lat="44.88407" lon="0.57063">
        <ele>74.2</ele>
        <time>2023-08-06T06:32:25Z</time>
      </trkpt>
      <trkpt lat="44.88409" lon="0.57065">
        <ele>74.5</ele>
        <time>2023-08-06T06:32:26Z</time>
      </trkpt>
      <trkpt lat="44.88413" lon="0.57069">
        <ele>75</ele>
        <time>2023-08-06T06:32:28Z</time>
      </trkpt>
      <trkpt lat="44.88417" lon="0.57074">
        <ele>75.5</ele>
        <time>2023-08-06T06:32:30Z</time>
      </trkpt>
      <trkpt lat="44.88421" lon="0.57079">
        <ele>76</ele>
        <time>2023-08-06T06:32:32Z</time>
      </trkpt>
      <trkpt lat="44.88423" lon="0.57083">
        <ele>76.3</ele>
        <time>2023-08-06T06:32:34Z</time>
      </trkpt>
      <trkpt lat="44.88425" lon="0.57085">
        <ele>76.6</ele>
        <time>2023-08-06T06:32:36Z</time>
      </trkpt>
      <trkpt lat="44.88426" lon="0.57088">
        <ele>76.8</ele>
        <time>2023-08-06T06:32:37Z</time>
      </trkpt>
      <trkpt lat="44.88427" lon="0.5709">
        <ele>77.1</ele>
        <time>2023-08-06T06:32:38Z</time>
      </trkpt>
      <trkpt lat="44.8843" lon="0.57095">
        <ele>77.6</ele>
        <time>2023-08-06T06:32:40Z</time>
      </trkpt>
      <trkpt lat="44.88434" lon="0.571">
        <ele>78.2</ele>
        <time>2023-08-06T06:32:42Z</time>
      </trkpt>
      <trkpt lat="44.88437" lon="0.57105">
        <ele>78.7</ele>
        <time>2023-08-06T06:32:44Z</time>
      </trkpt>
      <trkpt lat="44.88439" lon="0.57111">
        <ele>79.2</ele>
        <time>2023-08-06T06:32:46Z</time>
      </trkpt>
      <trkpt lat="44.88441" lon="0.57115">
        <ele>79.6</ele>
        <time>2023-08-06T06:32:48Z</time>
      </trkpt>
      <trkpt lat="44.88444" lon="0.57123">
        <ele>80.2</ele>
        <time>2023-08-06T06:32:50Z</time>
      </trkpt>
      <trkpt lat="44.88446" lon="0.57131">
        <ele>80.6</ele>
        <time>2023-08-06T06:32:52Z</time>
      </trkpt>
      <trkpt lat="44.88448" lon="0.57138">
        <ele>81</ele>
        <time>2023-08-06T06:32:54Z</time>
      </trkpt>
      <trkpt lat="44.88449" lon="0.57145">
        <ele>81.3</ele>
        <time>2023-08-06T06:32:56Z</time>
      </trkpt>
      <trkpt lat="44.8845" lon="0.57149">
        <ele>81.4</ele>
        <time>2023-08-06T06:32:57Z</time>
      </trkpt>
      <trkpt lat="44.8845" lon="0.57153">
        <ele>81.5</ele>
        <time>2023-08-06T06:32:58Z</time>
      </trkpt>
      <trkpt lat="44.8845" lon="0.57161">
        <ele>81.8</ele>
        <time>2023-08-06T06:33:00Z</time>
      </trkpt>
      <trkpt lat="44.8845" lon="0.57165">
        <ele>81.9</ele>
        <time>2023-08-06T06:33:01Z</time>
      </trkpt>
      <trkpt lat="44.88451" lon="0.57169">
        <ele>82</ele>
        <time>2023-08-06T06:33:02Z</time>
      </trkpt>
      <trkpt lat="44.88451" lon="0.57172">
        <ele>82.1</ele>
        <time>2023-08-06T06:33:03Z</time>
      </trkpt>
      <trkpt lat="44.88451" lon="0.57176">
        <ele>82.2</ele>
        <time>2023-08-06T06:33:04Z</time>
      </trkpt>
      <trkpt lat="44.88451" lon="0.5718">
        <ele>82.3</ele>
        <time>2023-08-06T06:33:05Z</time>
      </trkpt>
      <trkpt lat="44.88451" lon="0.57184">
        <ele>82.4</ele>
        <time>2023-08-06T06:33:06Z</time>
      </trkpt>
      <trkpt lat="44.88451" lon="0.57192">
        <ele>82.6</ele>
        <time>2023-08-06T06:33:08Z</time>
      </trkpt>
      <trkpt lat="44.88451" lon="0.572">
        <ele>82.8</ele>
        <time>2023-08-06T06:33:10Z</time>
      </trkpt>
      <trkpt lat="44.88451" lon="0.57204">
        <ele>82.9</ele>
        <time>2023-08-06T06:33:11Z</time>
      </trkpt>
      <trkpt lat="44.88453" lon="0.57208">
        <ele>83</ele>
        <time>2023-08-06T06:33:12Z</time>
      </trkpt>
      <trkpt lat="44.88454" lon="0.57213">
        <ele>83.1</ele>
        <time>2023-08-06T06:33:13Z</time>
      </trkpt>
      <trkpt lat="44.88454" lon="0.57218">
        <ele>83.1</ele>
        <time>2023-08-06T06:33:14Z</time>
      </trkpt>
      <trkpt lat="44.88455" lon="0.57228">
        <ele>83</ele>
        <time>2023-08-06T06:33:16Z</time>
      </trkpt>
      <trkpt lat="44.88458" lon="0.57246">
        <ele>82.5</ele>
        <time>2023-08-06T06:33:18Z</time>
      </trkpt>
      <trkpt lat="44.88461" lon="0.57263">
        <ele>81.8</ele>
        <time>2023-08-06T06:33:20Z</time>
      </trkpt>
      <trkpt lat="44.88462" lon="0.57278">
        <ele>81.3</ele>
        <time>2023-08-06T06:33:22Z</time>
      </trkpt>
      <trkpt lat="44.88464" lon="0.57293">
        <ele>81.1</ele>
        <time>2023-08-06T06:33:24Z</time>
      </trkpt>
      <trkpt lat="44.88464" lon="0.57299">
        <ele>81.1</ele>
        <time>2023-08-06T06:33:25Z</time>
      </trkpt>
      <trkpt lat="44.88463" lon="0.57304">
        <ele>81.1</ele>
        <time>2023-08-06T06:33:26Z</time>
      </trkpt>
      <trkpt lat="44.88463" lon="0.57312">
        <ele>81.2</ele>
        <time>2023-08-06T06:33:28Z</time>
      </trkpt>
      <trkpt lat="44.88463" lon="0.57321">
        <ele>81.4</ele>
        <time>2023-08-06T06:33:30Z</time>
      </trkpt>
      <trkpt lat="44.88463" lon="0.57331">
        <ele>81.7</ele>
        <time>2023-08-06T06:33:32Z</time>
      </trkpt>
      <trkpt lat="44.88463" lon="0.57335">
        <ele>81.8</ele>
        <time>2023-08-06T06:33:33Z</time>
      </trkpt>
      <trkpt lat="44.88464" lon="0.5734">
        <ele>82</ele>
        <time>2023-08-06T06:33:34Z</time>
      </trkpt>
      <trkpt lat="44.88465" lon="0.57348">
        <ele>82.2</ele>
        <time>2023-08-06T06:33:36Z</time>
      </trkpt>
      <trkpt lat="44.88466" lon="0.57357">
        <ele>82.4</ele>
        <time>2023-08-06T06:33:38Z</time>
      </trkpt>
      <trkpt lat="44.88467" lon="0.5737">
        <ele>82.5</ele>
        <time>2023-08-06T06:33:40Z</time>
      </trkpt>
      <trkpt lat="44.88469" lon="0.57384">
        <ele>82.3</ele>
        <time>2023-08-06T06:33:42Z</time>
      </trkpt>
      <trkpt lat="44.8847" lon="0.57391">
        <ele>82.1</ele>
        <time>2023-08-06T06:33:43Z</time>
      </trkpt>
      <trkpt lat="44.88471" lon="0.57396">
        <ele>81.9</ele>
        <time>2023-08-06T06:33:44Z</time>
      </trkpt>
      <trkpt lat="44.88471" lon="0.57402">
        <ele>81.7</ele>
        <time>2023-08-06T06:33:45Z</time>
      </trkpt>
      <trkpt lat="44.88472" lon="0.57407">
        <ele>81.6</ele>
        <time>2023-08-06T06:33:46Z</time>
      </trkpt>
      <trkpt lat="44.88473" lon="0.57412">
        <ele>81.5</ele>
        <time>2023-08-06T06:33:47Z</time>
      </trkpt>
      <trkpt lat="44.88474" lon="0.57416">
        <ele>81.4</ele>
        <time>2023-08-06T06:33:48Z</time>
      </trkpt>
      <trkpt lat="44.88475" lon="0.5742">
        <ele>81.3</ele>
        <time>2023-08-06T06:33:49Z</time>
      </trkpt>
      <trkpt lat="44.88475" lon="0.57424">
        <ele>81.2</ele>
        <time>2023-08-06T06:33:50Z</time>
      </trkpt>
      <trkpt lat="44.88476" lon="0.5743">
        <ele>81.2</ele>
        <time>2023-08-06T06:33:51Z</time>
      </trkpt>
      <trkpt lat="44.88476" lon="0.57435">
        <ele>81.2</ele>
        <time>2023-08-06T06:33:52Z</time>
      </trkpt>
      <trkpt lat="44.88475" lon="0.57444">
        <ele>81.2</ele>
        <time>2023-08-06T06:33:54Z</time>
      </trkpt>
      <trkpt lat="44.88475" lon="0.57452">
        <ele>81.3</ele>
        <time>2023-08-06T06:33:56Z</time>
      </trkpt>
      <trkpt lat="44.88474" lon="0.5746">
        <ele>81.4</ele>
        <time>2023-08-06T06:33:58Z</time>
      </trkpt>
      <trkpt lat="44.88472" lon="0.57463">
        <ele>81.4</ele>
        <time>2023-08-06T06:33:59Z</time>
      </trkpt>
      <trkpt lat="44.88471" lon="0.57466">
        <ele>81.5</ele>
        <time>2023-08-06T06:34:00Z</time>
      </trkpt>
      <trkpt lat="44.88469" lon="0.57468">
        <ele>81.5</ele>
        <time>2023-08-06T06:34:01Z</time>
      </trkpt>
      <trkpt lat="44.88468" lon="0.5747">
        <ele>82.4</ele>
        <time>2023-08-06T06:34:02Z</time>
      </trkpt>
      <trkpt lat="44.88465" lon="0.57472">
        <ele>82.8</ele>
        <time>2023-08-06T06:34:04Z</time>
      </trkpt>
      <trkpt lat="44.88463" lon="0.57472">
        <ele>83</ele>
        <time>2023-08-06T06:34:06Z</time>
      </trkpt>
      <trkpt lat="44.88461" lon="0.57472">
        <ele>83.3</ele>
        <time>2023-08-06T06:34:08Z</time>
      </trkpt>
      <trkpt lat="44.88458" lon="0.57472">
        <ele>83.7</ele>
        <time>2023-08-06T06:34:10Z</time>
      </trkpt>
      <trkpt lat="44.88455" lon="0.57471">
        <ele>84.1</ele>
        <time>2023-08-06T06:34:12Z</time>
      </trkpt>
      <trkpt lat="44.88455" lon="0.57471">
        <ele>84.2</ele>
        <time>2023-08-06T06:34:13Z</time>
      </trkpt>
      <trkpt lat="44.88453" lon="0.57471">
        <ele>84.4</ele>
        <time>2023-08-06T06:34:14Z</time>
      </trkpt>
      <trkpt lat="44.88452" lon="0.57472">
        <ele>84.6</ele>
        <time>2023-08-06T06:34:15Z</time>
      </trkpt>
      <trkpt lat="44.88451" lon="0.57471">
        <ele>84.8</ele>
        <time>2023-08-06T06:34:16Z</time>
      </trkpt>
      <trkpt lat="44.8845" lon="0.57472">
        <ele>84.9</ele>
        <time>2023-08-06T06:34:17Z</time>
      </trkpt>
      <trkpt lat="44.88449" lon="0.57473">
        <ele>85.1</ele>
        <time>2023-08-06T06:34:18Z</time>
      </trkpt>
      <trkpt lat="44.88446" lon="0.57475">
        <ele>85.6</ele>
        <time>2023-08-06T06:34:20Z</time>
      </trkpt>
      <trkpt lat="44.88443" lon="0.57477">
        <ele>86</ele>
        <time>2023-08-06T06:34:22Z</time>
      </trkpt>
      <trkpt lat="44.88442" lon="0.57478">
        <ele>86.2</ele>
        <time>2023-08-06T06:34:23Z</time>
      </trkpt>
      <trkpt lat="44.88441" lon="0.57479">
        <ele>86.3</ele>
        <time>2023-08-06T06:34:24Z</time>
      </trkpt>
      <trkpt lat="44.88438" lon="0.57481">
        <ele>86.8</ele>
        <time>2023-08-06T06:34:26Z</time>
      </trkpt>
      <trkpt lat="44.88435" lon="0.57482">
        <ele>87.2</ele>
        <time>2023-08-06T06:34:28Z</time>
      </trkpt>
      <trkpt lat="44.88433" lon="0.57483">
        <ele>87.5</ele>
        <time>2023-08-06T06:34:29Z</time>
      </trkpt>
      <trkpt lat="44.88432" lon="0.57483">
        <ele>87.7</ele>
        <time>2023-08-06T06:34:30Z</time>
      </trkpt>
      <trkpt lat="44.88428" lon="0.57484">
        <ele>88.1</ele>
        <time>2023-08-06T06:34:32Z</time>
      </trkpt>
      <trkpt lat="44.88424" lon="0.57484">
        <ele>88.6</ele>
        <time>2023-08-06T06:34:34Z</time>
      </trkpt>
      <trkpt lat="44.88421" lon="0.57485">
        <ele>88.9</ele>
        <time>2023-08-06T06:34:36Z</time>
      </trkpt>
      <trkpt lat="44.88418" lon="0.57484">
        <ele>89.4</ele>
        <time>2023-08-06T06:34:38Z</time>
      </trkpt>
      <trkpt lat="44.88416" lon="0.57484">
        <ele>89.5</ele>
        <time>2023-08-06T06:34:39Z</time>
      </trkpt>
      <trkpt lat="44.88415" lon="0.57484">
        <ele>89.7</ele>
        <time>2023-08-06T06:34:40Z</time>
      </trkpt>
      <trkpt lat="44.88412" lon="0.57483">
        <ele>90</ele>
        <time>2023-08-06T06:34:42Z</time>
      </trkpt>
      <trkpt lat="44.8841" lon="0.57481">
        <ele>90.3</ele>
        <time>2023-08-06T06:34:44Z</time>
      </trkpt>
      <trkpt lat="44.88409" lon="0.5748">
        <ele>90.4</ele>
        <time>2023-08-06T06:34:45Z</time>
      </trkpt>
      <trkpt lat="44.88408" lon="0.57478">
        <ele>90.6</ele>
        <time>2023-08-06T06:34:46Z</time>
      </trkpt>
      <trkpt lat="44.88406" lon="0.57476">
        <ele>90.9</ele>
        <time>2023-08-06T06:34:48Z</time>
      </trkpt>
      <trkpt lat="44.88404" lon="0.57473">
        <ele>91.2</ele>
        <time>2023-08-06T06:34:50Z</time>
      </trkpt>
      <trkpt lat="44.88403" lon="0.57472">
        <ele>91.3</ele>
        <time>2023-08-06T06:34:51Z</time>
      </trkpt>
      <trkpt lat="44.88402" lon="0.57472">
        <ele>91.4</ele>
        <time>2023-08-06T06:34:52Z</time>
      </trkpt>
      <trkpt lat="44.88401" lon="0.57472">
        <ele>91.5</ele>
        <time>2023-08-06T06:34:53Z</time>
      </trkpt>
      <trkpt lat="44.88399" lon="0.57472">
        <ele>91.7</ele>
        <time>2023-08-06T06:34:54Z</time>
      </trkpt>
      <trkpt lat="44.88396" lon="0.57471">
        <ele>92.1</ele>
        <time>2023-08-06T06:34:56Z</time>
      </trkpt>
      <trkpt lat="44.88393" lon="0.57471">
        <ele>92.3</ele>
        <time>2023-08-06T06:34:58Z</time>
      </trkpt>
      <trkpt lat="44.8839" lon="0.57471">
        <ele>92.6</ele>
        <time>2023-08-06T06:35:00Z</time>
      </trkpt>
      <trkpt lat="44.88388" lon="0.5747">
        <ele>92.8</ele>
        <time>2023-08-06T06:35:01Z</time>
      </trkpt>
      <trkpt lat="44.88388" lon="0.57469">
        <ele>92.9</ele>
        <time>2023-08-06T06:35:02Z</time>
      </trkpt>
      <trkpt lat="44.88387" lon="0.57468">
        <ele>93</ele>
        <time>2023-08-06T06:35:04Z</time>
      </trkpt>
      <trkpt lat="44.88385" lon="0.57445">
        <ele>94.4</ele>
        <time>2023-08-06T06:35:15Z</time>
      </trkpt>
      <trkpt lat="44.88384" lon="0.57441">
        <ele>94.6</ele>
        <time>2023-08-06T06:35:16Z</time>
      </trkpt>
      <trkpt lat="44.88383" lon="0.57435">
        <ele>94.9</ele>
        <time>2023-08-06T06:35:18Z</time>
      </trkpt>
      <trkpt lat="44.88382" lon="0.57428">
        <ele>95.2</ele>
        <time>2023-08-06T06:35:20Z</time>
      </trkpt>
      <trkpt lat="44.88381" lon="0.57424">
        <ele>95.4</ele>
        <time>2023-08-06T06:35:21Z</time>
      </trkpt>
      <trkpt lat="44.88381" lon="0.57421">
        <ele>95.5</ele>
        <time>2023-08-06T06:35:22Z</time>
      </trkpt>
      <trkpt lat="44.8838" lon="0.57413">
        <ele>95.9</ele>
        <time>2023-08-06T06:35:24Z</time>
      </trkpt>
      <trkpt lat="44.88379" lon="0.57405">
        <ele>96.2</ele>
        <time>2023-08-06T06:35:26Z</time>
      </trkpt>
      <trkpt lat="44.88379" lon="0.57398">
        <ele>96.5</ele>
        <time>2023-08-06T06:35:28Z</time>
      </trkpt>
      <trkpt lat="44.88379" lon="0.57393">
        <ele>96.7</ele>
        <time>2023-08-06T06:35:30Z</time>
      </trkpt>
      <trkpt lat="44.88379" lon="0.57389">
        <ele>96.8</ele>
        <time>2023-08-06T06:35:31Z</time>
      </trkpt>
      <trkpt lat="44.88378" lon="0.57385">
        <ele>96.9</ele>
        <time>2023-08-06T06:35:32Z</time>
      </trkpt>
      <trkpt lat="44.88378" lon="0.57379">
        <ele>97.2</ele>
        <time>2023-08-06T06:35:34Z</time>
      </trkpt>
      <trkpt lat="44.88377" lon="0.57372">
        <ele>97.4</ele>
        <time>2023-08-06T06:35:36Z</time>
      </trkpt>
      <trkpt lat="44.88377" lon="0.57368">
        <ele>97.6</ele>
        <time>2023-08-06T06:35:37Z</time>
      </trkpt>
      <trkpt lat="44.88376" lon="0.57364">
        <ele>97.8</ele>
        <time>2023-08-06T06:35:38Z</time>
      </trkpt>
      <trkpt lat="44.88375" lon="0.57357">
        <ele>98.1</ele>
        <time>2023-08-06T06:35:40Z</time>
      </trkpt>
      <trkpt lat="44.88375" lon="0.57349">
        <ele>98.5</ele>
        <time>2023-08-06T06:35:42Z</time>
      </trkpt>
      <trkpt lat="44.88375" lon="0.57342">
        <ele>98.8</ele>
        <time>2023-08-06T06:35:44Z</time>
      </trkpt>
      <trkpt lat="44.88375" lon="0.57335">
        <ele>99.1</ele>
        <time>2023-08-06T06:35:46Z</time>
      </trkpt>
      <trkpt lat="44.88374" lon="0.57328">
        <ele>99.4</ele>
        <time>2023-08-06T06:35:48Z</time>
      </trkpt>
      <trkpt lat="44.88374" lon="0.57324">
        <ele>99.6</ele>
        <time>2023-08-06T06:35:49Z</time>
      </trkpt>
      <trkpt lat="44.88373" lon="0.57319">
        <ele>99.7</ele>
        <time>2023-08-06T06:35:50Z</time>
      </trkpt>
      <trkpt lat="44.88374" lon="0.57313">
        <ele>100</ele>
        <time>2023-08-06T06:35:52Z</time>
      </trkpt>
      <trkpt lat="44.88373" lon="0.57306">
        <ele>100.2</ele>
        <time>2023-08-06T06:35:54Z</time>
      </trkpt>
      <trkpt lat="44.88372" lon="0.57299">
        <ele>100.4</ele>
        <time>2023-08-06T06:35:56Z</time>
      </trkpt>
      <trkpt lat="44.88371" lon="0.57292">
        <ele>100.7</ele>
        <time>2023-08-06T06:35:58Z</time>
      </trkpt>
      <trkpt lat="44.88371" lon="0.57288">
        <ele>100.8</ele>
        <time>2023-08-06T06:35:59Z</time>
      </trkpt>
      <trkpt lat="44.88371" lon="0.57286">
        <ele>100.9</ele>
        <time>2023-08-06T06:36:00Z</time>
      </trkpt>
      <trkpt lat="44.88371" lon="0.57286">
        <ele>100.9</ele>
        <time>2023-08-06T06:36:01Z</time>
      </trkpt>
      <trkpt lat="44.88366" lon="0.57261">
        <ele>101.7</ele>
        <time>2023-08-06T06:36:08Z</time>
      </trkpt>
      <trkpt lat="44.88364" lon="0.57258">
        <ele>101.8</ele>
        <time>2023-08-06T06:36:09Z</time>
      </trkpt>
      <trkpt lat="44.88361" lon="0.57255">
        <ele>101.9</ele>
        <time>2023-08-06T06:36:10Z</time>
      </trkpt>
      <trkpt lat="44.88356" lon="0.57247">
        <ele>102.1</ele>
        <time>2023-08-06T06:36:12Z</time>
      </trkpt>
      <trkpt lat="44.88351" lon="0.57241">
        <ele>102.4</ele>
        <time>2023-08-06T06:36:14Z</time>
      </trkpt>
      <trkpt lat="44.88347" lon="0.57236">
        <ele>102.5</ele>
        <time>2023-08-06T06:36:16Z</time>
      </trkpt>
      <trkpt lat="44.88341" lon="0.57232">
        <ele>102.7</ele>
        <time>2023-08-06T06:36:18Z</time>
      </trkpt>
      <trkpt lat="44.88335" lon="0.57231">
        <ele>102.9</ele>
        <time>2023-08-06T06:36:20Z</time>
      </trkpt>
      <trkpt lat="44.88329" lon="0.5723">
        <ele>103.2</ele>
        <time>2023-08-06T06:36:22Z</time>
      </trkpt>
      <trkpt lat="44.88326" lon="0.57231">
        <ele>103.3</ele>
        <time>2023-08-06T06:36:23Z</time>
      </trkpt>
      <trkpt lat="44.88323" lon="0.57231">
        <ele>103.4</ele>
        <time>2023-08-06T06:36:24Z</time>
      </trkpt>
      <trkpt lat="44.8832" lon="0.57232">
        <ele>103.6</ele>
        <time>2023-08-06T06:36:25Z</time>
      </trkpt>
      <trkpt lat="44.88317" lon="0.57233">
        <ele>103.7</ele>
        <time>2023-08-06T06:36:26Z</time>
      </trkpt>
      <trkpt lat="44.88311" lon="0.57235">
        <ele>104</ele>
        <time>2023-08-06T06:36:28Z</time>
      </trkpt>
      <trkpt lat="44.88308" lon="0.57236">
        <ele>104.1</ele>
        <time>2023-08-06T06:36:29Z</time>
      </trkpt>
      <trkpt lat="44.88305" lon="0.57237">
        <ele>104.2</ele>
        <time>2023-08-06T06:36:30Z</time>
      </trkpt>
      <trkpt lat="44.88298" lon="0.57237">
        <ele>104.4</ele>
        <time>2023-08-06T06:36:32Z</time>
      </trkpt>
      <trkpt lat="44.88292" lon="0.57239">
        <ele>104.6</ele>
        <time>2023-08-06T06:36:34Z</time>
      </trkpt>
      <trkpt lat="44.88286" lon="0.57241">
        <ele>104.7</ele>
        <time>2023-08-06T06:36:36Z</time>
      </trkpt>
      <trkpt lat="44.8828" lon="0.57243">
        <ele>104.9</ele>
        <time>2023-08-06T06:36:38Z</time>
      </trkpt>
      <trkpt lat="44.88273" lon="0.57246">
        <ele>105.1</ele>
        <time>2023-08-06T06:36:40Z</time>
      </trkpt>
      <trkpt lat="44.88266" lon="0.57248">
        <ele>105.2</ele>
        <time>2023-08-06T06:36:42Z</time>
      </trkpt>
      <trkpt lat="44.88259" lon="0.5725">
        <ele>105.3</ele>
        <time>2023-08-06T06:36:44Z</time>
      </trkpt>
      <trkpt lat="44.88252" lon="0.57254">
        <ele>105.4</ele>
        <time>2023-08-06T06:36:46Z</time>
      </trkpt>
      <trkpt lat="44.88246" lon="0.5726">
        <ele>105.6</ele>
        <time>2023-08-06T06:36:48Z</time>
      </trkpt>
      <trkpt lat="44.88244" lon="0.57262">
        <ele>105.7</ele>
        <time>2023-08-06T06:36:49Z</time>
      </trkpt>
      <trkpt lat="44.88241" lon="0.57265">
        <ele>105.8</ele>
        <time>2023-08-06T06:36:50Z</time>
      </trkpt>
      <trkpt lat="44.88236" lon="0.57271">
        <ele>106</ele>
        <time>2023-08-06T06:36:52Z</time>
      </trkpt>
      <trkpt lat="44.8823" lon="0.57276">
        <ele>106.3</ele>
        <time>2023-08-06T06:36:54Z</time>
      </trkpt>
      <trkpt lat="44.88227" lon="0.57278">
        <ele>106.5</ele>
        <time>2023-08-06T06:36:55Z</time>
      </trkpt>
      <trkpt lat="44.88225" lon="0.5728">
        <ele>106.6</ele>
        <time>2023-08-06T06:36:56Z</time>
      </trkpt>
      <trkpt lat="44.8822" lon="0.57285">
        <ele>106.9</ele>
        <time>2023-08-06T06:36:58Z</time>
      </trkpt>
      <trkpt lat="44.88215" lon="0.57289">
        <ele>107.3</ele>
        <time>2023-08-06T06:37:00Z</time>
      </trkpt>
      <trkpt lat="44.8821" lon="0.57291">
        <ele>107.6</ele>
        <time>2023-08-06T06:37:02Z</time>
      </trkpt>
      <trkpt lat="44.88205" lon="0.57292">
        <ele>108</ele>
        <time>2023-08-06T06:37:04Z</time>
      </trkpt>
      <trkpt lat="44.88203" lon="0.57293">
        <ele>108.2</ele>
        <time>2023-08-06T06:37:05Z</time>
      </trkpt>
      <trkpt lat="44.882" lon="0.57293">
        <ele>108.4</ele>
        <time>2023-08-06T06:37:06Z</time>
      </trkpt>
      <trkpt lat="44.88196" lon="0.57295">
        <ele>108.8</ele>
        <time>2023-08-06T06:37:08Z</time>
      </trkpt>
      <trkpt lat="44.88191" lon="0.57298">
        <ele>109.4</ele>
        <time>2023-08-06T06:37:10Z</time>
      </trkpt>
      <trkpt lat="44.88189" lon="0.57299">
        <ele>109.6</ele>
        <time>2023-08-06T06:37:11Z</time>
      </trkpt>
      <trkpt lat="44.88187" lon="0.57301">
        <ele>109.8</ele>
        <time>2023-08-06T06:37:12Z</time>
      </trkpt>
      <trkpt lat="44.88185" lon="0.57303">
        <ele>110.1</ele>
        <time>2023-08-06T06:37:13Z</time>
      </trkpt>
      <trkpt lat="44.88184" lon="0.57305">
        <ele>110.3</ele>
        <time>2023-08-06T06:37:14Z</time>
      </trkpt>
      <trkpt lat="44.88181" lon="0.57309">
        <ele>110.8</ele>
        <time>2023-08-06T06:37:16Z</time>
      </trkpt>
      <trkpt lat="44.88178" lon="0.57314">
        <ele>111.3</ele>
        <time>2023-08-06T06:37:18Z</time>
      </trkpt>
      <trkpt lat="44.88174" lon="0.57319">
        <ele>111.9</ele>
        <time>2023-08-06T06:37:20Z</time>
      </trkpt>
      <trkpt lat="44.88171" lon="0.57323">
        <ele>112.4</ele>
        <time>2023-08-06T06:37:22Z</time>
      </trkpt>
      <trkpt lat="44.88167" lon="0.57326">
        <ele>112.9</ele>
        <time>2023-08-06T06:37:24Z</time>
      </trkpt>
      <trkpt lat="44.88162" lon="0.5733">
        <ele>113.5</ele>
        <time>2023-08-06T06:37:26Z</time>
      </trkpt>
      <trkpt lat="44.88159" lon="0.57331">
        <ele>113.8</ele>
        <time>2023-08-06T06:37:27Z</time>
      </trkpt>
      <trkpt lat="44.88157" lon="0.57333">
        <ele>114</ele>
        <time>2023-08-06T06:37:28Z</time>
      </trkpt>
      <trkpt lat="44.88153" lon="0.57335">
        <ele>114.4</ele>
        <time>2023-08-06T06:37:30Z</time>
      </trkpt>
      <trkpt lat="44.88148" lon="0.57337">
        <ele>114.9</ele>
        <time>2023-08-06T06:37:32Z</time>
      </trkpt>
      <trkpt lat="44.88147" lon="0.57344">
        <ele>115.3</ele>
        <time>2023-08-06T06:37:34Z</time>
      </trkpt>
      <trkpt lat="44.88148" lon="0.5735">
        <ele>115.2</ele>
        <time>2023-08-06T06:37:36Z</time>
      </trkpt>
      <trkpt lat="44.88149" lon="0.57356">
        <ele>115.1</ele>
        <time>2023-08-06T06:37:38Z</time>
      </trkpt>
      <trkpt lat="44.8815" lon="0.5736">
        <ele>114.9</ele>
        <time>2023-08-06T06:37:40Z</time>
      </trkpt>
      <trkpt lat="44.8815" lon="0.57363">
        <ele>114.9</ele>
        <time>2023-08-06T06:37:41Z</time>
      </trkpt>
      <trkpt lat="44.88151" lon="0.57365">
        <ele>114.8</ele>
        <time>2023-08-06T06:37:42Z</time>
      </trkpt>
      <trkpt lat="44.88153" lon="0.57371">
        <ele>114.6</ele>
        <time>2023-08-06T06:37:44Z</time>
      </trkpt>
      <trkpt lat="44.88154" lon="0.57373">
        <ele>114.5</ele>
        <time>2023-08-06T06:37:45Z</time>
      </trkpt>
      <trkpt lat="44.88155" lon="0.57376">
        <ele>114.4</ele>
        <time>2023-08-06T06:37:46Z</time>
      </trkpt>
      <trkpt lat="44.88158" lon="0.57383">
        <ele>114.2</ele>
        <time>2023-08-06T06:37:48Z</time>
      </trkpt>
      <trkpt lat="44.88161" lon="0.57393">
        <ele>113.8</ele>
        <time>2023-08-06T06:37:50Z</time>
      </trkpt>
      <trkpt lat="44.88161" lon="0.57399">
        <ele>113.6</ele>
        <time>2023-08-06T06:37:51Z</time>
      </trkpt>
      <trkpt lat="44.88161" lon="0.57405">
        <ele>113.5</ele>
        <time>2023-08-06T06:37:52Z</time>
      </trkpt>
      <trkpt lat="44.88158" lon="0.57414">
        <ele>113.1</ele>
        <time>2023-08-06T06:37:54Z</time>
      </trkpt>
      <trkpt lat="44.88154" lon="0.57421">
        <ele>113.1</ele>
        <time>2023-08-06T06:37:56Z</time>
      </trkpt>
      <trkpt lat="44.88149" lon="0.57426">
        <ele>113.2</ele>
        <time>2023-08-06T06:37:58Z</time>
      </trkpt>
      <trkpt lat="44.88146" lon="0.5743">
        <ele>113.3</ele>
        <time>2023-08-06T06:38:00Z</time>
      </trkpt>
      <trkpt lat="44.88144" lon="0.57431">
        <ele>113.4</ele>
        <time>2023-08-06T06:38:01Z</time>
      </trkpt>
      <trkpt lat="44.88142" lon="0.57431">
        <ele>113.4</ele>
        <time>2023-08-06T06:38:02Z</time>
      </trkpt>
      <trkpt lat="44.88138" lon="0.57434">
        <ele>113.6</ele>
        <time>2023-08-06T06:38:04Z</time>
      </trkpt>
      <trkpt lat="44.88137" lon="0.57436">
        <ele>113.5</ele>
        <time>2023-08-06T06:38:06Z</time>
      </trkpt>
      <trkpt lat="44.88137" lon="0.57436">
        <ele>113.5</ele>
        <time>2023-08-06T06:38:07Z</time>
      </trkpt>
      <trkpt lat="44.88139" lon="0.57437">
        <ele>113.4</ele>
        <time>2023-08-06T06:38:40Z</time>
      </trkpt>
      <trkpt lat="44.88141" lon="0.57437">
        <ele>113.4</ele>
        <time>2023-08-06T06:38:41Z</time>
      </trkpt>
      <trkpt lat="44.88144" lon="0.57436">
        <ele>113.3</ele>
        <time>2023-08-06T06:38:42Z</time>
      </trkpt>
      <trkpt lat="44.88147" lon="0.57431">
        <ele>113.3</ele>
        <time>2023-08-06T06:38:44Z</time>
      </trkpt>
      <trkpt lat="44.88151" lon="0.57427">
        <ele>113.2</ele>
        <time>2023-08-06T06:38:46Z</time>
      </trkpt>
      <trkpt lat="44.88156" lon="0.57421">
        <ele>113.1</ele>
        <time>2023-08-06T06:38:48Z</time>
      </trkpt>
      <trkpt lat="44.88159" lon="0.57417">
        <ele>113.1</ele>
        <time>2023-08-06T06:38:50Z</time>
      </trkpt>
      <trkpt lat="44.8816" lon="0.57417">
        <ele>113.1</ele>
        <time>2023-08-06T06:38:52Z</time>
      </trkpt>
      <trkpt lat="44.88163" lon="0.57418">
        <ele>113.1</ele>
        <time>2023-08-06T06:38:54Z</time>
      </trkpt>
      <trkpt lat="44.88166" lon="0.57419">
        <ele>112.8</ele>
        <time>2023-08-06T06:38:56Z</time>
      </trkpt>
      <trkpt lat="44.88169" lon="0.5742">
        <ele>112.3</ele>
        <time>2023-08-06T06:38:58Z</time>
      </trkpt>
      <trkpt lat="44.88175" lon="0.57427">
        <ele>111.2</ele>
        <time>2023-08-06T06:39:00Z</time>
      </trkpt>
      <trkpt lat="44.88182" lon="0.57434">
        <ele>109.6</ele>
        <time>2023-08-06T06:39:02Z</time>
      </trkpt>
      <trkpt lat="44.88189" lon="0.57438">
        <ele>108</ele>
        <time>2023-08-06T06:39:04Z</time>
      </trkpt>
      <trkpt lat="44.88201" lon="0.57445">
        <ele>106.9</ele>
        <time>2023-08-06T06:39:06Z</time>
      </trkpt>
      <trkpt lat="44.8821" lon="0.57453">
        <ele>105.8</ele>
        <time>2023-08-06T06:39:08Z</time>
      </trkpt>
      <trkpt lat="44.88217" lon="0.57457">
        <ele>105</ele>
        <time>2023-08-06T06:39:10Z</time>
      </trkpt>
      <trkpt lat="44.8822" lon="0.57459">
        <ele>104.7</ele>
        <time>2023-08-06T06:39:11Z</time>
      </trkpt>
      <trkpt lat="44.88225" lon="0.57461">
        <ele>104.1</ele>
        <time>2023-08-06T06:39:12Z</time>
      </trkpt>
      <trkpt lat="44.88232" lon="0.57466">
        <ele>103.1</ele>
        <time>2023-08-06T06:39:14Z</time>
      </trkpt>
      <trkpt lat="44.88234" lon="0.57467">
        <ele>102.8</ele>
        <time>2023-08-06T06:39:15Z</time>
      </trkpt>
      <trkpt lat="44.88237" lon="0.5747">
        <ele>102.3</ele>
        <time>2023-08-06T06:39:16Z</time>
      </trkpt>
      <trkpt lat="44.88241" lon="0.57474">
        <ele>101.8</ele>
        <time>2023-08-06T06:39:17Z</time>
      </trkpt>
      <trkpt lat="44.88244" lon="0.57477">
        <ele>101.3</ele>
        <time>2023-08-06T06:39:18Z</time>
      </trkpt>
      <trkpt lat="44.8825" lon="0.57481">
        <ele>100.5</ele>
        <time>2023-08-06T06:39:20Z</time>
      </trkpt>
      <trkpt lat="44.88256" lon="0.57485">
        <ele>99.6</ele>
        <time>2023-08-06T06:39:22Z</time>
      </trkpt>
      <trkpt lat="44.88261" lon="0.57488">
        <ele>98.9</ele>
        <time>2023-08-06T06:39:23Z</time>
      </trkpt>
      <trkpt lat="44.88265" lon="0.5749">
        <ele>98.3</ele>
        <time>2023-08-06T06:39:24Z</time>
      </trkpt>
      <trkpt lat="44.88274" lon="0.57491">
        <ele>97.2</ele>
        <time>2023-08-06T06:39:26Z</time>
      </trkpt>
      <trkpt lat="44.88283" lon="0.5749">
        <ele>96</ele>
        <time>2023-08-06T06:39:28Z</time>
      </trkpt>
      <trkpt lat="44.88291" lon="0.57489">
        <ele>95.1</ele>
        <time>2023-08-06T06:39:30Z</time>
      </trkpt>
      <trkpt lat="44.88298" lon="0.57491">
        <ele>94.3</ele>
        <time>2023-08-06T06:39:32Z</time>
      </trkpt>
      <trkpt lat="44.88306" lon="0.57493">
        <ele>93.4</ele>
        <time>2023-08-06T06:39:34Z</time>
      </trkpt>
      <trkpt lat="44.88312" lon="0.57494">
        <ele>92.7</ele>
        <time>2023-08-06T06:39:36Z</time>
      </trkpt>
      <trkpt lat="44.88316" lon="0.57495">
        <ele>92.2</ele>
        <time>2023-08-06T06:39:38Z</time>
      </trkpt>
      <trkpt lat="44.88326" lon="0.57502">
        <ele>90.8</ele>
        <time>2023-08-06T06:39:43Z</time>
      </trkpt>
      <trkpt lat="44.88328" lon="0.57503">
        <ele>90.6</ele>
        <time>2023-08-06T06:39:44Z</time>
      </trkpt>
      <trkpt lat="44.88333" lon="0.57505">
        <ele>90</ele>
        <time>2023-08-06T06:39:45Z</time>
      </trkpt>
      <trkpt lat="44.88338" lon="0.57507">
        <ele>89.3</ele>
        <time>2023-08-06T06:39:46Z</time>
      </trkpt>
      <trkpt lat="44.88349" lon="0.57511">
        <ele>88.1</ele>
        <time>2023-08-06T06:39:48Z</time>
      </trkpt>
      <trkpt lat="44.88358" lon="0.57516">
        <ele>87</ele>
        <time>2023-08-06T06:39:50Z</time>
      </trkpt>
      <trkpt lat="44.88364" lon="0.57518">
        <ele>86.3</ele>
        <time>2023-08-06T06:39:52Z</time>
      </trkpt>
      <trkpt lat="44.88366" lon="0.57519">
        <ele>86</ele>
        <time>2023-08-06T06:39:53Z</time>
      </trkpt>
      <trkpt lat="44.8837" lon="0.5752">
        <ele>85.6</ele>
        <time>2023-08-06T06:39:54Z</time>
      </trkpt>
      <trkpt lat="44.88379" lon="0.5752">
        <ele>84.6</ele>
        <time>2023-08-06T06:39:56Z</time>
      </trkpt>
      <trkpt lat="44.88383" lon="0.5752">
        <ele>84.2</ele>
        <time>2023-08-06T06:39:57Z</time>
      </trkpt>
      <trkpt lat="44.88386" lon="0.57522">
        <ele>83.9</ele>
        <time>2023-08-06T06:39:58Z</time>
      </trkpt>
      <trkpt lat="44.88397" lon="0.57526">
        <ele>82.8</ele>
        <time>2023-08-06T06:40:00Z</time>
      </trkpt>
      <trkpt lat="44.88404" lon="0.5753">
        <ele>82</ele>
        <time>2023-08-06T06:40:02Z</time>
      </trkpt>
      <trkpt lat="44.8841" lon="0.57533">
        <ele>81.5</ele>
        <time>2023-08-06T06:40:04Z</time>
      </trkpt>
      <trkpt lat="44.88415" lon="0.57538">
        <ele>80.8</ele>
        <time>2023-08-06T06:40:06Z</time>
      </trkpt>
      <trkpt lat="44.88422" lon="0.57543">
        <ele>80.1</ele>
        <time>2023-08-06T06:40:08Z</time>
      </trkpt>
      <trkpt lat="44.88427" lon="0.57544">
        <ele>79.6</ele>
        <time>2023-08-06T06:40:10Z</time>
      </trkpt>
      <trkpt lat="44.88434" lon="0.57548">
        <ele>78.9</ele>
        <time>2023-08-06T06:40:12Z</time>
      </trkpt>
      <trkpt lat="44.88437" lon="0.57551">
        <ele>78.6</ele>
        <time>2023-08-06T06:40:13Z</time>
      </trkpt>
      <trkpt lat="44.88443" lon="0.57553">
        <ele>78.2</ele>
        <time>2023-08-06T06:40:14Z</time>
      </trkpt>
      <trkpt lat="44.88446" lon="0.57555">
        <ele>78.1</ele>
        <time>2023-08-06T06:40:15Z</time>
      </trkpt>
      <trkpt lat="44.8845" lon="0.57558">
        <ele>77.8</ele>
        <time>2023-08-06T06:40:16Z</time>
      </trkpt>
      <trkpt lat="44.88454" lon="0.57565">
        <ele>77.3</ele>
        <time>2023-08-06T06:40:18Z</time>
      </trkpt>
      <trkpt lat="44.88457" lon="0.57573">
        <ele>77.5</ele>
        <time>2023-08-06T06:40:20Z</time>
      </trkpt>
      <trkpt lat="44.88458" lon="0.57579">
        <ele>77.6</ele>
        <time>2023-08-06T06:40:22Z</time>
      </trkpt>
      <trkpt lat="44.88459" lon="0.57584">
        <ele>77.8</ele>
        <time>2023-08-06T06:40:24Z</time>
      </trkpt>
      <trkpt lat="44.8846" lon="0.57587">
        <ele>77.8</ele>
        <time>2023-08-06T06:40:25Z</time>
      </trkpt>
      <trkpt lat="44.88462" lon="0.57589">
        <ele>77.9</ele>
        <time>2023-08-06T06:40:26Z</time>
      </trkpt>
      <trkpt lat="44.88468" lon="0.57593">
        <ele>78.2</ele>
        <time>2023-08-06T06:40:28Z</time>
      </trkpt>
      <trkpt lat="44.88471" lon="0.57594">
        <ele>78.3</ele>
        <time>2023-08-06T06:40:29Z</time>
      </trkpt>
      <trkpt lat="44.88474" lon="0.57595">
        <ele>78.4</ele>
        <time>2023-08-06T06:40:30Z</time>
      </trkpt>
      <trkpt lat="44.88481" lon="0.57597">
        <ele>78.7</ele>
        <time>2023-08-06T06:40:32Z</time>
      </trkpt>
      <trkpt lat="44.88487" lon="0.57598">
        <ele>78.8</ele>
        <time>2023-08-06T06:40:34Z</time>
      </trkpt>
      <trkpt lat="44.88493" lon="0.57601">
        <ele>79.1</ele>
        <time>2023-08-06T06:40:36Z</time>
      </trkpt>
      <trkpt lat="44.885" lon="0.57604">
        <ele>79.3</ele>
        <time>2023-08-06T06:40:38Z</time>
      </trkpt>
      <trkpt lat="44.88503" lon="0.57605">
        <ele>79.4</ele>
        <time>2023-08-06T06:40:39Z</time>
      </trkpt>
      <trkpt lat="44.88506" lon="0.57607">
        <ele>79.5</ele>
        <time>2023-08-06T06:40:40Z</time>
      </trkpt>
      <trkpt lat="44.88512" lon="0.5761">
        <ele>79.7</ele>
        <time>2023-08-06T06:40:42Z</time>
      </trkpt>
      <trkpt lat="44.88514" lon="0.57611">
        <ele>79.8</ele>
        <time>2023-08-06T06:40:43Z</time>
      </trkpt>
      <trkpt lat="44.88517" lon="0.57613">
        <ele>79.9</ele>
        <time>2023-08-06T06:40:44Z</time>
      </trkpt>
      <trkpt lat="44.88521" lon="0.57613">
        <ele>80.1</ele>
        <time>2023-08-06T06:40:45Z</time>
      </trkpt>
      <trkpt lat="44.88525" lon="0.57614">
        <ele>79.3</ele>
        <time>2023-08-06T06:40:46Z</time>
      </trkpt>
      <trkpt lat="44.8853" lon="0.57613">
        <ele>78.6</ele>
        <time>2023-08-06T06:40:47Z</time>
      </trkpt>
      <trkpt lat="44.88534" lon="0.57612">
        <ele>78</ele>
        <time>2023-08-06T06:40:48Z</time>
      </trkpt>
      <trkpt lat="44.88542" lon="0.57609">
        <ele>76.9</ele>
        <time>2023-08-06T06:40:50Z</time>
      </trkpt>
      <trkpt lat="44.88545" lon="0.57608">
        <ele>76.4</ele>
        <time>2023-08-06T06:40:51Z</time>
      </trkpt>
      <trkpt lat="44.88549" lon="0.57607">
        <ele>75.9</ele>
        <time>2023-08-06T06:40:52Z</time>
      </trkpt>
      <trkpt lat="44.88555" lon="0.57608">
        <ele>75</ele>
        <time>2023-08-06T06:40:54Z</time>
      </trkpt>
      <trkpt lat="44.88558" lon="0.57609">
        <ele>74.5</ele>
        <time>2023-08-06T06:40:55Z</time>
      </trkpt>
      <trkpt lat="44.8856" lon="0.57611">
        <ele>74.1</ele>
        <time>2023-08-06T06:40:56Z</time>
      </trkpt>
      <trkpt lat="44.88567" lon="0.57614">
        <ele>73</ele>
        <time>2023-08-06T06:40:58Z</time>
      </trkpt>
      <trkpt lat="44.88574" lon="0.57619">
        <ele>71.8</ele>
        <time>2023-08-06T06:41:00Z</time>
      </trkpt>
      <trkpt lat="44.88583" lon="0.57625">
        <ele>70.8</ele>
        <time>2023-08-06T06:41:02Z</time>
      </trkpt>
      <trkpt lat="44.88592" lon="0.57633">
        <ele>70</ele>
        <time>2023-08-06T06:41:04Z</time>
      </trkpt>
      <trkpt lat="44.88599" lon="0.57642">
        <ele>69.7</ele>
        <time>2023-08-06T06:41:06Z</time>
      </trkpt>
      <trkpt lat="44.88607" lon="0.57651">
        <ele>69.1</ele>
        <time>2023-08-06T06:41:08Z</time>
      </trkpt>
      <trkpt lat="44.88612" lon="0.57655">
        <ele>68.7</ele>
        <time>2023-08-06T06:41:09Z</time>
      </trkpt>
      <trkpt lat="44.88618" lon="0.57659">
        <ele>68.3</ele>
        <time>2023-08-06T06:41:10Z</time>
      </trkpt>
      <trkpt lat="44.8863" lon="0.57666">
        <ele>67.4</ele>
        <time>2023-08-06T06:41:12Z</time>
      </trkpt>
      <trkpt lat="44.88637" lon="0.5767">
        <ele>67</ele>
        <time>2023-08-06T06:41:13Z</time>
      </trkpt>
      <trkpt lat="44.88644" lon="0.57674">
        <ele>66.7</ele>
        <time>2023-08-06T06:41:14Z</time>
      </trkpt>
      <trkpt lat="44.88658" lon="0.57681">
        <ele>66.3</ele>
        <time>2023-08-06T06:41:16Z</time>
      </trkpt>
      <trkpt lat="44.88665" lon="0.57682">
        <ele>66.1</ele>
        <time>2023-08-06T06:41:17Z</time>
      </trkpt>
      <trkpt lat="44.88672" lon="0.57682">
        <ele>65.9</ele>
        <time>2023-08-06T06:41:18Z</time>
      </trkpt>
      <trkpt lat="44.88679" lon="0.5768">
        <ele>65.8</ele>
        <time>2023-08-06T06:41:19Z</time>
      </trkpt>
      <trkpt lat="44.88685" lon="0.57676">
        <ele>65.6</ele>
        <time>2023-08-06T06:41:20Z</time>
      </trkpt>
      <trkpt lat="44.8869" lon="0.57671">
        <ele>65.4</ele>
        <time>2023-08-06T06:41:21Z</time>
      </trkpt>
      <trkpt lat="44.88695" lon="0.57666">
        <ele>65.3</ele>
        <time>2023-08-06T06:41:22Z</time>
      </trkpt>
      <trkpt lat="44.88705" lon="0.57655">
        <ele>64.9</ele>
        <time>2023-08-06T06:41:24Z</time>
      </trkpt>
      <trkpt lat="44.88715" lon="0.57644">
        <ele>64.7</ele>
        <time>2023-08-06T06:41:26Z</time>
      </trkpt>
      <trkpt lat="44.88719" lon="0.57638">
        <ele>64.7</ele>
        <time>2023-08-06T06:41:27Z</time>
      </trkpt>
      <trkpt lat="44.88722" lon="0.57631">
        <ele>64.6</ele>
        <time>2023-08-06T06:41:28Z</time>
      </trkpt>
      <trkpt lat="44.88727" lon="0.57617">
        <ele>64.4</ele>
        <time>2023-08-06T06:41:30Z</time>
      </trkpt>
      <trkpt lat="44.88728" lon="0.57609">
        <ele>64.2</ele>
        <time>2023-08-06T06:41:31Z</time>
      </trkpt>
      <trkpt lat="44.88729" lon="0.576">
        <ele>64</ele>
        <time>2023-08-06T06:41:32Z</time>
      </trkpt>
      <trkpt lat="44.8873" lon="0.57581">
        <ele>63.3</ele>
        <time>2023-08-06T06:41:34Z</time>
      </trkpt>
      <trkpt lat="44.8873" lon="0.57561">
        <ele>62.4</ele>
        <time>2023-08-06T06:41:36Z</time>
      </trkpt>
      <trkpt lat="44.88731" lon="0.57551">
        <ele>62</ele>
        <time>2023-08-06T06:41:37Z</time>
      </trkpt>
      <trkpt lat="44.88733" lon="0.5754">
        <ele>61.5</ele>
        <time>2023-08-06T06:41:38Z</time>
      </trkpt>
      <trkpt lat="44.88735" lon="0.57529">
        <ele>61</ele>
        <time>2023-08-06T06:41:39Z</time>
      </trkpt>
      <trkpt lat="44.88738" lon="0.57517">
        <ele>60.6</ele>
        <time>2023-08-06T06:41:40Z</time>
      </trkpt>
      <trkpt lat="44.88747" lon="0.57495">
        <ele>59.9</ele>
        <time>2023-08-06T06:41:42Z</time>
      </trkpt>
      <trkpt lat="44.88753" lon="0.57486">
        <ele>59.7</ele>
        <time>2023-08-06T06:41:43Z</time>
      </trkpt>
      <trkpt lat="44.8876" lon="0.57479">
        <ele>59.7</ele>
        <time>2023-08-06T06:41:44Z</time>
      </trkpt>
      <trkpt lat="44.88773" lon="0.5747">
        <ele>59.8</ele>
        <time>2023-08-06T06:41:46Z</time>
      </trkpt>
      <trkpt lat="44.88781" lon="0.57472">
        <ele>59.5</ele>
        <time>2023-08-06T06:41:48Z</time>
      </trkpt>
      <trkpt lat="44.88783" lon="0.57477">
        <ele>59.3</ele>
        <time>2023-08-06T06:41:49Z</time>
      </trkpt>
      <trkpt lat="44.88785" lon="0.57486">
        <ele>59</ele>
        <time>2023-08-06T06:41:50Z</time>
      </trkpt>
      <trkpt lat="44.88789" lon="0.57504">
        <ele>58.4</ele>
        <time>2023-08-06T06:41:52Z</time>
      </trkpt>
      <trkpt lat="44.88792" lon="0.57512">
        <ele>58.3</ele>
        <time>2023-08-06T06:41:53Z</time>
      </trkpt>
      <trkpt lat="44.88795" lon="0.57519">
        <ele>58.1</ele>
        <time>2023-08-06T06:41:54Z</time>
      </trkpt>
      <trkpt lat="44.88801" lon="0.57533">
        <ele>57.9</ele>
        <time>2023-08-06T06:41:56Z</time>
      </trkpt>
      <trkpt lat="44.88805" lon="0.57539">
        <ele>57.9</ele>
        <time>2023-08-06T06:41:57Z</time>
      </trkpt>
      <trkpt lat="44.8881" lon="0.57545">
        <ele>57.8</ele>
        <time>2023-08-06T06:41:58Z</time>
      </trkpt>
      <trkpt lat="44.88819" lon="0.57556">
        <ele>57.8</ele>
        <time>2023-08-06T06:42:00Z</time>
      </trkpt>
      <trkpt lat="44.88828" lon="0.57567">
        <ele>57.8</ele>
        <time>2023-08-06T06:42:02Z</time>
      </trkpt>
      <trkpt lat="44.88833" lon="0.57572">
        <ele>57.8</ele>
        <time>2023-08-06T06:42:03Z</time>
      </trkpt>
      <trkpt lat="44.88839" lon="0.57577">
        <ele>57.7</ele>
        <time>2023-08-06T06:42:04Z</time>
      </trkpt>
      <trkpt lat="44.8885" lon="0.57587">
        <ele>57.7</ele>
        <time>2023-08-06T06:42:06Z</time>
      </trkpt>
      <trkpt lat="44.88863" lon="0.57598">
        <ele>57.6</ele>
        <time>2023-08-06T06:42:08Z</time>
      </trkpt>
      <trkpt lat="44.88874" lon="0.57608">
        <ele>57.6</ele>
        <time>2023-08-06T06:42:10Z</time>
      </trkpt>
      <trkpt lat="44.88885" lon="0.57617">
        <ele>57.6</ele>
        <time>2023-08-06T06:42:12Z</time>
      </trkpt>
      <trkpt lat="44.88891" lon="0.57622">
        <ele>57.6</ele>
        <time>2023-08-06T06:42:13Z</time>
      </trkpt>
      <trkpt lat="44.88897" lon="0.57628">
        <ele>57.6</ele>
        <time>2023-08-06T06:42:14Z</time>
      </trkpt>
      <trkpt lat="44.88907" lon="0.5764">
        <ele>57.6</ele>
        <time>2023-08-06T06:42:16Z</time>
      </trkpt>
      <trkpt lat="44.88911" lon="0.57645">
        <ele>57.6</ele>
        <time>2023-08-06T06:42:17Z</time>
      </trkpt>
      <trkpt lat="44.88915" lon="0.57651">
        <ele>57.6</ele>
        <time>2023-08-06T06:42:18Z</time>
      </trkpt>
      <trkpt lat="44.88923" lon="0.57662">
        <ele>57.6</ele>
        <time>2023-08-06T06:42:20Z</time>
      </trkpt>
      <trkpt lat="44.88927" lon="0.57668">
        <ele>57.7</ele>
        <time>2023-08-06T06:42:21Z</time>
      </trkpt>
      <trkpt lat="44.88931" lon="0.57675">
        <ele>57.7</ele>
        <time>2023-08-06T06:42:22Z</time>
      </trkpt>
      <trkpt lat="44.8894" lon="0.57687">
        <ele>57.8</ele>
        <time>2023-08-06T06:42:24Z</time>
      </trkpt>
      <trkpt lat="44.88948" lon="0.577">
        <ele>57.9</ele>
        <time>2023-08-06T06:42:26Z</time>
      </trkpt>
      <trkpt lat="44.88952" lon="0.57707">
        <ele>57.9</ele>
        <time>2023-08-06T06:42:27Z</time>
      </trkpt>
      <trkpt lat="44.88956" lon="0.57713">
        <ele>57.9</ele>
        <time>2023-08-06T06:42:28Z</time>
      </trkpt>
      <trkpt lat="44.88964" lon="0.57726">
        <ele>57.9</ele>
        <time>2023-08-06T06:42:30Z</time>
      </trkpt>
      <trkpt lat="44.88973" lon="0.57739">
        <ele>58</ele>
        <time>2023-08-06T06:42:32Z</time>
      </trkpt>
      <trkpt lat="44.88977" lon="0.57746">
        <ele>58</ele>
        <time>2023-08-06T06:42:33Z</time>
      </trkpt>
      <trkpt lat="44.8898" lon="0.57752">
        <ele>58</ele>
        <time>2023-08-06T06:42:34Z</time>
      </trkpt>
      <trkpt lat="44.88986" lon="0.57767">
        <ele>58.1</ele>
        <time>2023-08-06T06:42:36Z</time>
      </trkpt>
      <trkpt lat="44.88988" lon="0.57774">
        <ele>58.1</ele>
        <time>2023-08-06T06:42:37Z</time>
      </trkpt>
      <trkpt lat="44.8899" lon="0.57781">
        <ele>58.1</ele>
        <time>2023-08-06T06:42:38Z</time>
      </trkpt>
      <trkpt lat="44.88991" lon="0.57796">
        <ele>58.2</ele>
        <time>2023-08-06T06:42:40Z</time>
      </trkpt>
      <trkpt lat="44.88992" lon="0.57811">
        <ele>58.3</ele>
        <time>2023-08-06T06:42:42Z</time>
      </trkpt>
      <trkpt lat="44.88993" lon="0.57826">
        <ele>58.4</ele>
        <time>2023-08-06T06:42:44Z</time>
      </trkpt>
      <trkpt lat="44.88994" lon="0.57834">
        <ele>58.4</ele>
        <time>2023-08-06T06:42:45Z</time>
      </trkpt>
      <trkpt lat="44.88995" lon="0.57841">
        <ele>58.4</ele>
        <time>2023-08-06T06:42:46Z</time>
      </trkpt>
      <trkpt lat="44.88996" lon="0.57848">
        <ele>58.5</ele>
        <time>2023-08-06T06:42:47Z</time>
      </trkpt>
      <trkpt lat="44.88999" lon="0.57854">
        <ele>58.6</ele>
        <time>2023-08-06T06:42:48Z</time>
      </trkpt>
      <trkpt lat="44.89003" lon="0.57859">
        <ele>58.7</ele>
        <time>2023-08-06T06:42:49Z</time>
      </trkpt>
      <trkpt lat="44.89008" lon="0.57862">
        <ele>58.7</ele>
        <time>2023-08-06T06:42:50Z</time>
      </trkpt>
      <trkpt lat="44.89013" lon="0.57862">
        <ele>58.8</ele>
        <time>2023-08-06T06:42:51Z</time>
      </trkpt>
      <trkpt lat="44.89018" lon="0.57861">
        <ele>58.9</ele>
        <time>2023-08-06T06:42:52Z</time>
      </trkpt>
      <trkpt lat="44.89027" lon="0.57858">
        <ele>59</ele>
        <time>2023-08-06T06:42:54Z</time>
      </trkpt>
      <trkpt lat="44.89035" lon="0.57855">
        <ele>59.1</ele>
        <time>2023-08-06T06:42:56Z</time>
      </trkpt>
      <trkpt lat="44.89042" lon="0.57853">
        <ele>59.1</ele>
        <time>2023-08-06T06:42:58Z</time>
      </trkpt>
      <trkpt lat="44.89048" lon="0.57851">
        <ele>59.2</ele>
        <time>2023-08-06T06:43:00Z</time>
      </trkpt>
      <trkpt lat="44.89054" lon="0.5785">
        <ele>59.2</ele>
        <time>2023-08-06T06:43:02Z</time>
      </trkpt>
      <trkpt lat="44.89056" lon="0.57851">
        <ele>59.7</ele>
        <time>2023-08-06T06:43:03Z</time>
      </trkpt>
      <trkpt lat="44.89058" lon="0.57853">
        <ele>60.1</ele>
        <time>2023-08-06T06:43:04Z</time>
      </trkpt>
      <trkpt lat="44.89059" lon="0.57856">
        <ele>60.1</ele>
        <time>2023-08-06T06:43:05Z</time>
      </trkpt>
      <trkpt lat="44.89059" lon="0.57859">
        <ele>60</ele>
        <time>2023-08-06T06:43:06Z</time>
      </trkpt>
      <trkpt lat="44.8906" lon="0.57866">
        <ele>60</ele>
        <time>2023-08-06T06:43:08Z</time>
      </trkpt>
      <trkpt lat="44.8906" lon="0.57873">
        <ele>59.8</ele>
        <time>2023-08-06T06:43:10Z</time>
      </trkpt>
      <trkpt lat="44.8906" lon="0.5788">
        <ele>60.2</ele>
        <time>2023-08-06T06:43:12Z</time>
      </trkpt>
      <trkpt lat="44.89061" lon="0.57887">
        <ele>60.1</ele>
        <time>2023-08-06T06:43:14Z</time>
      </trkpt>
      <trkpt lat="44.89061" lon="0.57894">
        <ele>60</ele>
        <time>2023-08-06T06:43:16Z</time>
      </trkpt>
      <trkpt lat="44.89061" lon="0.57897">
        <ele>60</ele>
        <time>2023-08-06T06:43:17Z</time>
      </trkpt>
      <trkpt lat="44.89063" lon="0.57899">
        <ele>60</ele>
        <time>2023-08-06T06:43:18Z</time>
      </trkpt>
      <trkpt lat="44.89064" lon="0.579">
        <ele>60.4</ele>
        <time>2023-08-06T06:43:19Z</time>
      </trkpt>
      <trkpt lat="44.89065" lon="0.57901">
        <ele>60.5</ele>
        <time>2023-08-06T06:43:20Z</time>
      </trkpt>
      <trkpt lat="44.89067" lon="0.57904">
        <ele>60.8</ele>
        <time>2023-08-06T06:43:22Z</time>
      </trkpt>
      <trkpt lat="44.89069" lon="0.57908">
        <ele>60.8</ele>
        <time>2023-08-06T06:43:24Z</time>
      </trkpt>
      <trkpt lat="44.8907" lon="0.5791">
        <ele>61.3</ele>
        <time>2023-08-06T06:43:25Z</time>
      </trkpt>
      <trkpt lat="44.89071" lon="0.57912">
        <ele>61.3</ele>
        <time>2023-08-06T06:43:26Z</time>
      </trkpt>
      <trkpt lat="44.89072" lon="0.57915">
        <ele>61.3</ele>
        <time>2023-08-06T06:43:28Z</time>
      </trkpt>
      <trkpt lat="44.89073" lon="0.57919">
        <ele>61.7</ele>
        <time>2023-08-06T06:43:30Z</time>
      </trkpt>
      <trkpt lat="44.89074" lon="0.57921">
        <ele>61.7</ele>
        <time>2023-08-06T06:43:31Z</time>
      </trkpt>
      <trkpt lat="44.89075" lon="0.57921">
        <ele>61.8</ele>
        <time>2023-08-06T06:43:32Z</time>
      </trkpt>
      <trkpt lat="44.89078" lon="0.5792">
        <ele>62.2</ele>
        <time>2023-08-06T06:43:34Z</time>
      </trkpt>
      <trkpt lat="44.8908" lon="0.5792">
        <ele>62.7</ele>
        <time>2023-08-06T06:43:36Z</time>
      </trkpt>
      <trkpt lat="44.89083" lon="0.5792">
        <ele>63.1</ele>
        <time>2023-08-06T06:43:38Z</time>
      </trkpt>
      <trkpt lat="44.89086" lon="0.57921">
        <ele>63.6</ele>
        <time>2023-08-06T06:43:40Z</time>
      </trkpt>
      <trkpt lat="44.89089" lon="0.57923">
        <ele>64.1</ele>
        <time>2023-08-06T06:43:42Z</time>
      </trkpt>
      <trkpt lat="44.89091" lon="0.57923">
        <ele>64.6</ele>
        <time>2023-08-06T06:43:43Z</time>
      </trkpt>
      <trkpt lat="44.89092" lon="0.57923">
        <ele>64.6</ele>
        <time>2023-08-06T06:43:44Z</time>
      </trkpt>
      <trkpt lat="44.89095" lon="0.57923">
        <ele>65.2</ele>
        <time>2023-08-06T06:43:46Z</time>
      </trkpt>
      <trkpt lat="44.89097" lon="0.57925">
        <ele>65.7</ele>
        <time>2023-08-06T06:43:48Z</time>
      </trkpt>
      <trkpt lat="44.89099" lon="0.57926">
        <ele>65.8</ele>
        <time>2023-08-06T06:43:49Z</time>
      </trkpt>
      <trkpt lat="44.891" lon="0.57927">
        <ele>65.9</ele>
        <time>2023-08-06T06:43:50Z</time>
      </trkpt>
      <trkpt lat="44.89102" lon="0.57929">
        <ele>66.4</ele>
        <time>2023-08-06T06:43:52Z</time>
      </trkpt>
      <trkpt lat="44.89104" lon="0.5793">
        <ele>67</ele>
        <time>2023-08-06T06:43:54Z</time>
      </trkpt>
      <trkpt lat="44.89107" lon="0.5793">
        <ele>67.6</ele>
        <time>2023-08-06T06:43:56Z</time>
      </trkpt>
      <trkpt lat="44.8911" lon="0.5793">
        <ele>68.3</ele>
        <time>2023-08-06T06:43:58Z</time>
      </trkpt>
      <trkpt lat="44.89113" lon="0.5793">
        <ele>69</ele>
        <time>2023-08-06T06:44:00Z</time>
      </trkpt>
      <trkpt lat="44.89116" lon="0.5793">
        <ele>69.6</ele>
        <time>2023-08-06T06:44:02Z</time>
      </trkpt>
      <trkpt lat="44.89119" lon="0.57929">
        <ele>70.3</ele>
        <time>2023-08-06T06:44:04Z</time>
      </trkpt>
      <trkpt lat="44.8912" lon="0.57929">
        <ele>70.4</ele>
        <time>2023-08-06T06:44:05Z</time>
      </trkpt>
      <trkpt lat="44.89122" lon="0.5793">
        <ele>71</ele>
        <time>2023-08-06T06:44:06Z</time>
      </trkpt>
      <trkpt lat="44.89124" lon="0.57928">
        <ele>71.5</ele>
        <time>2023-08-06T06:44:08Z</time>
      </trkpt>
      <trkpt lat="44.89127" lon="0.57928">
        <ele>71.6</ele>
        <time>2023-08-06T06:44:10Z</time>
      </trkpt>
      <trkpt lat="44.89129" lon="0.57927">
        <ele>72.3</ele>
        <time>2023-08-06T06:44:12Z</time>
      </trkpt>
      <trkpt lat="44.89132" lon="0.57923">
        <ele>72.9</ele>
        <time>2023-08-06T06:44:14Z</time>
      </trkpt>
      <trkpt lat="44.89133" lon="0.57922">
        <ele>73.1</ele>
        <time>2023-08-06T06:44:15Z</time>
      </trkpt>
      <trkpt lat="44.89134" lon="0.5792">
        <ele>73.7</ele>
        <time>2023-08-06T06:44:16Z</time>
      </trkpt>
      <trkpt lat="44.89136" lon="0.57917">
        <ele>74</ele>
        <time>2023-08-06T06:44:18Z</time>
      </trkpt>
      <trkpt lat="44.89138" lon="0.57914">
        <ele>74.8</ele>
        <time>2023-08-06T06:44:20Z</time>
      </trkpt>
      <trkpt lat="44.8914" lon="0.5791">
        <ele>75.4</ele>
        <time>2023-08-06T06:44:22Z</time>
      </trkpt>
      <trkpt lat="44.89141" lon="0.57909">
        <ele>75.7</ele>
        <time>2023-08-06T06:44:23Z</time>
      </trkpt>
      <trkpt lat="44.89143" lon="0.57907">
        <ele>76.3</ele>
        <time>2023-08-06T06:44:24Z</time>
      </trkpt>
      <trkpt lat="44.89146" lon="0.57903">
        <ele>77.1</ele>
        <time>2023-08-06T06:44:26Z</time>
      </trkpt>
      <trkpt lat="44.89148" lon="0.57897">
        <ele>77.7</ele>
        <time>2023-08-06T06:44:28Z</time>
      </trkpt>
      <trkpt lat="44.8915" lon="0.57892">
        <ele>78.1</ele>
        <time>2023-08-06T06:44:30Z</time>
      </trkpt>
      <trkpt lat="44.89153" lon="0.57888">
        <ele>78.7</ele>
        <time>2023-08-06T06:44:32Z</time>
      </trkpt>
      <trkpt lat="44.89156" lon="0.57884">
        <ele>79.3</ele>
        <time>2023-08-06T06:44:34Z</time>
      </trkpt>
      <trkpt lat="44.89159" lon="0.5788">
        <ele>79.8</ele>
        <time>2023-08-06T06:44:36Z</time>
      </trkpt>
      <trkpt lat="44.89163" lon="0.57876">
        <ele>80.4</ele>
        <time>2023-08-06T06:44:38Z</time>
      </trkpt>
      <trkpt lat="44.89166" lon="0.57873">
        <ele>80.9</ele>
        <time>2023-08-06T06:44:40Z</time>
      </trkpt>
      <trkpt lat="44.89169" lon="0.57868">
        <ele>81.2</ele>
        <time>2023-08-06T06:44:42Z</time>
      </trkpt>
      <trkpt lat="44.89171" lon="0.57862">
        <ele>81.6</ele>
        <time>2023-08-06T06:44:44Z</time>
      </trkpt>
      <trkpt lat="44.89173" lon="0.57857">
        <ele>82</ele>
        <time>2023-08-06T06:44:46Z</time>
      </trkpt>
      <trkpt lat="44.89175" lon="0.57852">
        <ele>82.3</ele>
        <time>2023-08-06T06:44:48Z</time>
      </trkpt>
      <trkpt lat="44.89176" lon="0.57848">
        <ele>82.6</ele>
        <time>2023-08-06T06:44:50Z</time>
      </trkpt>
      <trkpt lat="44.89177" lon="0.57844">
        <ele>82.9</ele>
        <time>2023-08-06T06:44:52Z</time>
      </trkpt>
      <trkpt lat="44.89178" lon="0.57842">
        <ele>82.9</ele>
        <time>2023-08-06T06:44:53Z</time>
      </trkpt>
      <trkpt lat="44.89178" lon="0.5784">
        <ele>83.1</ele>
        <time>2023-08-06T06:44:54Z</time>
      </trkpt>
      <trkpt lat="44.89178" lon="0.57838">
        <ele>83.2</ele>
        <time>2023-08-06T06:44:55Z</time>
      </trkpt>
      <trkpt lat="44.89178" lon="0.57836">
        <ele>83.4</ele>
        <time>2023-08-06T06:44:56Z</time>
      </trkpt>
      <trkpt lat="44.89178" lon="0.57834">
        <ele>83.5</ele>
        <time>2023-08-06T06:44:57Z</time>
      </trkpt>
      <trkpt lat="44.89177" lon="0.57832">
        <ele>83.6</ele>
        <time>2023-08-06T06:44:58Z</time>
      </trkpt>
      <trkpt lat="44.89177" lon="0.5783">
        <ele>83.8</ele>
        <time>2023-08-06T06:44:59Z</time>
      </trkpt>
      <trkpt lat="44.89176" lon="0.57828">
        <ele>83.9</ele>
        <time>2023-08-06T06:45:00Z</time>
      </trkpt>
      <trkpt lat="44.89176" lon="0.57827">
        <ele>84</ele>
        <time>2023-08-06T06:45:01Z</time>
      </trkpt>
      <trkpt lat="44.89176" lon="0.57825">
        <ele>84.1</ele>
        <time>2023-08-06T06:45:02Z</time>
      </trkpt>
      <trkpt lat="44.89175" lon="0.57823">
        <ele>84.3</ele>
        <time>2023-08-06T06:45:03Z</time>
      </trkpt>
      <trkpt lat="44.89174" lon="0.57821">
        <ele>84.4</ele>
        <time>2023-08-06T06:45:04Z</time>
      </trkpt>
      <trkpt lat="44.89174" lon="0.57819">
        <ele>84.6</ele>
        <time>2023-08-06T06:45:05Z</time>
      </trkpt>
      <trkpt lat="44.89173" lon="0.57816">
        <ele>84.8</ele>
        <time>2023-08-06T06:45:06Z</time>
      </trkpt>
      <trkpt lat="44.89172" lon="0.57812">
        <ele>85.1</ele>
        <time>2023-08-06T06:45:08Z</time>
      </trkpt>
      <trkpt lat="44.89171" lon="0.57809">
        <ele>85.4</ele>
        <time>2023-08-06T06:45:09Z</time>
      </trkpt>
      <trkpt lat="44.8917" lon="0.57806">
        <ele>85.6</ele>
        <time>2023-08-06T06:45:10Z</time>
      </trkpt>
      <trkpt lat="44.89169" lon="0.57804">
        <ele>85.8</ele>
        <time>2023-08-06T06:45:11Z</time>
      </trkpt>
      <trkpt lat="44.89168" lon="0.57802">
        <ele>86</ele>
        <time>2023-08-06T06:45:12Z</time>
      </trkpt>
      <trkpt lat="44.89167" lon="0.57799">
        <ele>86.2</ele>
        <time>2023-08-06T06:45:13Z</time>
      </trkpt>
      <trkpt lat="44.89167" lon="0.57797">
        <ele>86.4</ele>
        <time>2023-08-06T06:45:14Z</time>
      </trkpt>
      <trkpt lat="44.89166" lon="0.57795">
        <ele>86.6</ele>
        <time>2023-08-06T06:45:15Z</time>
      </trkpt>
      <trkpt lat="44.89165" lon="0.57793">
        <ele>86.9</ele>
        <time>2023-08-06T06:45:16Z</time>
      </trkpt>
      <trkpt lat="44.89165" lon="0.5779">
        <ele>87.1</ele>
        <time>2023-08-06T06:45:17Z</time>
      </trkpt>
      <trkpt lat="44.89164" lon="0.57788">
        <ele>87.3</ele>
        <time>2023-08-06T06:45:18Z</time>
      </trkpt>
      <trkpt lat="44.89163" lon="0.57784">
        <ele>87.7</ele>
        <time>2023-08-06T06:45:20Z</time>
      </trkpt>
      <trkpt lat="44.89164" lon="0.57779">
        <ele>88.2</ele>
        <time>2023-08-06T06:45:22Z</time>
      </trkpt>
      <trkpt lat="44.89165" lon="0.57776">
        <ele>88.6</ele>
        <time>2023-08-06T06:45:24Z</time>
      </trkpt>
      <trkpt lat="44.89167" lon="0.57771">
        <ele>89</ele>
        <time>2023-08-06T06:45:26Z</time>
      </trkpt>
      <trkpt lat="44.89167" lon="0.57769">
        <ele>89.3</ele>
        <time>2023-08-06T06:45:27Z</time>
      </trkpt>
      <trkpt lat="44.89168" lon="0.57767">
        <ele>89.5</ele>
        <time>2023-08-06T06:45:28Z</time>
      </trkpt>
      <trkpt lat="44.89169" lon="0.57764">
        <ele>89.8</ele>
        <time>2023-08-06T06:45:29Z</time>
      </trkpt>
      <trkpt lat="44.89169" lon="0.57762">
        <ele>90.1</ele>
        <time>2023-08-06T06:45:30Z</time>
      </trkpt>
      <trkpt lat="44.8917" lon="0.57758">
        <ele>90.5</ele>
        <time>2023-08-06T06:45:32Z</time>
      </trkpt>
      <trkpt lat="44.89171" lon="0.57756">
        <ele>90.7</ele>
        <time>2023-08-06T06:45:33Z</time>
      </trkpt>
      <trkpt lat="44.89172" lon="0.57755">
        <ele>90.9</ele>
        <time>2023-08-06T06:45:34Z</time>
      </trkpt>
      <trkpt lat="44.89174" lon="0.57752">
        <ele>91.3</ele>
        <time>2023-08-06T06:45:36Z</time>
      </trkpt>
      <trkpt lat="44.89175" lon="0.57751">
        <ele>91.5</ele>
        <time>2023-08-06T06:45:37Z</time>
      </trkpt>
      <trkpt lat="44.89176" lon="0.57749">
        <ele>91.6</ele>
        <time>2023-08-06T06:45:38Z</time>
      </trkpt>
      <trkpt lat="44.89177" lon="0.57749">
        <ele>91.8</ele>
        <time>2023-08-06T06:45:39Z</time>
      </trkpt>
      <trkpt lat="44.89179" lon="0.57748">
        <ele>92</ele>
        <time>2023-08-06T06:45:40Z</time>
      </trkpt>
      <trkpt lat="44.89181" lon="0.57746">
        <ele>92.4</ele>
        <time>2023-08-06T06:45:42Z</time>
      </trkpt>
      <trkpt lat="44.89182" lon="0.57745">
        <ele>92.5</ele>
        <time>2023-08-06T06:45:43Z</time>
      </trkpt>
      <trkpt lat="44.89183" lon="0.57743">
        <ele>92.7</ele>
        <time>2023-08-06T06:45:44Z</time>
      </trkpt>
      <trkpt lat="44.89186" lon="0.57741">
        <ele>93.1</ele>
        <time>2023-08-06T06:45:46Z</time>
      </trkpt>
      <trkpt lat="44.89189" lon="0.57738">
        <ele>93.4</ele>
        <time>2023-08-06T06:45:48Z</time>
      </trkpt>
      <trkpt lat="44.89191" lon="0.57736">
        <ele>93.7</ele>
        <time>2023-08-06T06:45:50Z</time>
      </trkpt>
      <trkpt lat="44.89193" lon="0.57734">
        <ele>93.9</ele>
        <time>2023-08-06T06:45:52Z</time>
      </trkpt>
      <trkpt lat="44.89195" lon="0.57732">
        <ele>94.1</ele>
        <time>2023-08-06T06:45:54Z</time>
      </trkpt>
      <trkpt lat="44.89197" lon="0.5773">
        <ele>94.4</ele>
        <time>2023-08-06T06:45:56Z</time>
      </trkpt>
      <trkpt lat="44.89199" lon="0.57728">
        <ele>94.6</ele>
        <time>2023-08-06T06:45:58Z</time>
      </trkpt>
      <trkpt lat="44.89202" lon="0.57725">
        <ele>94.8</ele>
        <time>2023-08-06T06:46:00Z</time>
      </trkpt>
      <trkpt lat="44.89203" lon="0.57723">
        <ele>95</ele>
        <time>2023-08-06T06:46:02Z</time>
      </trkpt>
      <trkpt lat="44.89205" lon="0.5772">
        <ele>95.2</ele>
        <time>2023-08-06T06:46:04Z</time>
      </trkpt>
      <trkpt lat="44.89206" lon="0.57718">
        <ele>95.3</ele>
        <time>2023-08-06T06:46:06Z</time>
      </trkpt>
      <trkpt lat="44.89206" lon="0.57716">
        <ele>95.4</ele>
        <time>2023-08-06T06:46:08Z</time>
      </trkpt>
      <trkpt lat="44.89205" lon="0.57715">
        <ele>95.5</ele>
        <time>2023-08-06T06:46:09Z</time>
      </trkpt>
      <trkpt lat="44.89204" lon="0.57714">
        <ele>95.6</ele>
        <time>2023-08-06T06:46:10Z</time>
      </trkpt>
      <trkpt lat="44.89202" lon="0.57712">
        <ele>95.7</ele>
        <time>2023-08-06T06:46:12Z</time>
      </trkpt>
      <trkpt lat="44.892" lon="0.57709">
        <ele>95.8</ele>
        <time>2023-08-06T06:46:14Z</time>
      </trkpt>
      <trkpt lat="44.89198" lon="0.57707">
        <ele>96</ele>
        <time>2023-08-06T06:46:16Z</time>
      </trkpt>
      <trkpt lat="44.89197" lon="0.57706">
        <ele>96</ele>
        <time>2023-08-06T06:46:17Z</time>
      </trkpt>
      <trkpt lat="44.89196" lon="0.57705">
        <ele>96.1</ele>
        <time>2023-08-06T06:46:18Z</time>
      </trkpt>
      <trkpt lat="44.89193" lon="0.57703">
        <ele>96.2</ele>
        <time>2023-08-06T06:46:20Z</time>
      </trkpt>
      <trkpt lat="44.89191" lon="0.57701">
        <ele>96.3</ele>
        <time>2023-08-06T06:46:22Z</time>
      </trkpt>
      <trkpt lat="44.8919" lon="0.57699">
        <ele>96.4</ele>
        <time>2023-08-06T06:46:24Z</time>
      </trkpt>
      <trkpt lat="44.89188" lon="0.57697">
        <ele>96.5</ele>
        <time>2023-08-06T06:46:26Z</time>
      </trkpt>
      <trkpt lat="44.89186" lon="0.57695">
        <ele>96.6</ele>
        <time>2023-08-06T06:46:28Z</time>
      </trkpt>
      <trkpt lat="44.89186" lon="0.57693">
        <ele>96.6</ele>
        <time>2023-08-06T06:46:29Z</time>
      </trkpt>
      <trkpt lat="44.89185" lon="0.57691">
        <ele>96.6</ele>
        <time>2023-08-06T06:46:30Z</time>
      </trkpt>
      <trkpt lat="44.89183" lon="0.57687">
        <ele>96.7</ele>
        <time>2023-08-06T06:46:32Z</time>
      </trkpt>
      <trkpt lat="44.89181" lon="0.57683">
        <ele>96.8</ele>
        <time>2023-08-06T06:46:34Z</time>
      </trkpt>
      <trkpt lat="44.8918" lon="0.57679">
        <ele>96.8</ele>
        <time>2023-08-06T06:46:36Z</time>
      </trkpt>
      <trkpt lat="44.89178" lon="0.57674">
        <ele>96.9</ele>
        <time>2023-08-06T06:46:38Z</time>
      </trkpt>
      <trkpt lat="44.89175" lon="0.57669">
        <ele>97</ele>
        <time>2023-08-06T06:46:40Z</time>
      </trkpt>
      <trkpt lat="44.89172" lon="0.57662">
        <ele>97</ele>
        <time>2023-08-06T06:46:42Z</time>
      </trkpt>
      <trkpt lat="44.8917" lon="0.57657">
        <ele>97</ele>
        <time>2023-08-06T06:46:44Z</time>
      </trkpt>
      <trkpt lat="44.89168" lon="0.57653">
        <ele>97</ele>
        <time>2023-08-06T06:46:45Z</time>
      </trkpt>
      <trkpt lat="44.89167" lon="0.57649">
        <ele>97</ele>
        <time>2023-08-06T06:46:46Z</time>
      </trkpt>
      <trkpt lat="44.89165" lon="0.57642">
        <ele>97</ele>
        <time>2023-08-06T06:46:48Z</time>
      </trkpt>
      <trkpt lat="44.89163" lon="0.57636">
        <ele>97</ele>
        <time>2023-08-06T06:46:50Z</time>
      </trkpt>
      <trkpt lat="44.89162" lon="0.57632">
        <ele>97</ele>
        <time>2023-08-06T06:46:51Z</time>
      </trkpt>
      <trkpt lat="44.89162" lon="0.57629">
        <ele>97</ele>
        <time>2023-08-06T06:46:52Z</time>
      </trkpt>
      <trkpt lat="44.8916" lon="0.57622">
        <ele>96.9</ele>
        <time>2023-08-06T06:46:54Z</time>
      </trkpt>
      <trkpt lat="44.89158" lon="0.57615">
        <ele>96.9</ele>
        <time>2023-08-06T06:46:56Z</time>
      </trkpt>
      <trkpt lat="44.89157" lon="0.57607">
        <ele>96.8</ele>
        <time>2023-08-06T06:46:58Z</time>
      </trkpt>
      <trkpt lat="44.89156" lon="0.57603">
        <ele>96.8</ele>
        <time>2023-08-06T06:46:59Z</time>
      </trkpt>
      <trkpt lat="44.89155" lon="0.57599">
        <ele>96.8</ele>
        <time>2023-08-06T06:47:00Z</time>
      </trkpt>
      <trkpt lat="44.89154" lon="0.5759">
        <ele>96.7</ele>
        <time>2023-08-06T06:47:02Z</time>
      </trkpt>
      <trkpt lat="44.89151" lon="0.57581">
        <ele>96.6</ele>
        <time>2023-08-06T06:47:04Z</time>
      </trkpt>
      <trkpt lat="44.89149" lon="0.57569">
        <ele>96.4</ele>
        <time>2023-08-06T06:47:06Z</time>
      </trkpt>
      <trkpt lat="44.89146" lon="0.57556">
        <ele>96.3</ele>
        <time>2023-08-06T06:47:08Z</time>
      </trkpt>
      <trkpt lat="44.89146" lon="0.5755">
        <ele>96.2</ele>
        <time>2023-08-06T06:47:09Z</time>
      </trkpt>
      <trkpt lat="44.89145" lon="0.57544">
        <ele>96.2</ele>
        <time>2023-08-06T06:47:10Z</time>
      </trkpt>
      <trkpt lat="44.89144" lon="0.57532">
        <ele>96.1</ele>
        <time>2023-08-06T06:47:12Z</time>
      </trkpt>
      <trkpt lat="44.89146" lon="0.57522">
        <ele>95.9</ele>
        <time>2023-08-06T06:47:14Z</time>
      </trkpt>
      <trkpt lat="44.89148" lon="0.57518">
        <ele>95.8</ele>
        <time>2023-08-06T06:47:15Z</time>
      </trkpt>
      <trkpt lat="44.89149" lon="0.57514">
        <ele>95.7</ele>
        <time>2023-08-06T06:47:16Z</time>
      </trkpt>
      <trkpt lat="44.89152" lon="0.57505">
        <ele>95.4</ele>
        <time>2023-08-06T06:47:18Z</time>
      </trkpt>
      <trkpt lat="44.89155" lon="0.57494">
        <ele>95</ele>
        <time>2023-08-06T06:47:20Z</time>
      </trkpt>
      <trkpt lat="44.89157" lon="0.57488">
        <ele>94.8</ele>
        <time>2023-08-06T06:47:21Z</time>
      </trkpt>
      <trkpt lat="44.89158" lon="0.57481">
        <ele>94.5</ele>
        <time>2023-08-06T06:47:22Z</time>
      </trkpt>
      <trkpt lat="44.89162" lon="0.57468">
        <ele>93.8</ele>
        <time>2023-08-06T06:47:24Z</time>
      </trkpt>
      <trkpt lat="44.89163" lon="0.57462">
        <ele>93.4</ele>
        <time>2023-08-06T06:47:25Z</time>
      </trkpt>
      <trkpt lat="44.89164" lon="0.57456">
        <ele>92.9</ele>
        <time>2023-08-06T06:47:26Z</time>
      </trkpt>
      <trkpt lat="44.89169" lon="0.57442">
        <ele>91.9</ele>
        <time>2023-08-06T06:47:28Z</time>
      </trkpt>
      <trkpt lat="44.89172" lon="0.57433">
        <ele>91.2</ele>
        <time>2023-08-06T06:47:29Z</time>
      </trkpt>
      <trkpt lat="44.89175" lon="0.57422">
        <ele>90.3</ele>
        <time>2023-08-06T06:47:30Z</time>
      </trkpt>
      <trkpt lat="44.89182" lon="0.57399">
        <ele>88.3</ele>
        <time>2023-08-06T06:47:32Z</time>
      </trkpt>
      <trkpt lat="44.89184" lon="0.57387">
        <ele>87.3</ele>
        <time>2023-08-06T06:47:33Z</time>
      </trkpt>
      <trkpt lat="44.89186" lon="0.57376">
        <ele>86.4</ele>
        <time>2023-08-06T06:47:34Z</time>
      </trkpt>
      <trkpt lat="44.89186" lon="0.57352">
        <ele>84.5</ele>
        <time>2023-08-06T06:47:36Z</time>
      </trkpt>
      <trkpt lat="44.89185" lon="0.57328">
        <ele>82.5</ele>
        <time>2023-08-06T06:47:38Z</time>
      </trkpt>
      <trkpt lat="44.89182" lon="0.57303">
        <ele>80.2</ele>
        <time>2023-08-06T06:47:40Z</time>
      </trkpt>
      <trkpt lat="44.8918" lon="0.57289">
        <ele>78.9</ele>
        <time>2023-08-06T06:47:41Z</time>
      </trkpt>
      <trkpt lat="44.89178" lon="0.57276">
        <ele>77.6</ele>
        <time>2023-08-06T06:47:42Z</time>
      </trkpt>
      <trkpt lat="44.89176" lon="0.57248">
        <ele>75.5</ele>
        <time>2023-08-06T06:47:44Z</time>
      </trkpt>
      <trkpt lat="44.89174" lon="0.57235">
        <ele>74.7</ele>
        <time>2023-08-06T06:47:45Z</time>
      </trkpt>
      <trkpt lat="44.89171" lon="0.57222">
        <ele>74</ele>
        <time>2023-08-06T06:47:46Z</time>
      </trkpt>
      <trkpt lat="44.89169" lon="0.5721">
        <ele>73.4</ele>
        <time>2023-08-06T06:47:47Z</time>
      </trkpt>
      <trkpt lat="44.89168" lon="0.572">
        <ele>73</ele>
        <time>2023-08-06T06:47:48Z</time>
      </trkpt>
      <trkpt lat="44.89166" lon="0.57192">
        <ele>72.7</ele>
        <time>2023-08-06T06:47:49Z</time>
      </trkpt>
      <trkpt lat="44.89165" lon="0.57185">
        <ele>72.5</ele>
        <time>2023-08-06T06:47:50Z</time>
      </trkpt>
      <trkpt lat="44.89162" lon="0.57172">
        <ele>72</ele>
        <time>2023-08-06T06:47:52Z</time>
      </trkpt>
      <trkpt lat="44.89161" lon="0.57166">
        <ele>71.8</ele>
        <time>2023-08-06T06:47:53Z</time>
      </trkpt>
      <trkpt lat="44.8916" lon="0.5716">
        <ele>71.6</ele>
        <time>2023-08-06T06:47:54Z</time>
      </trkpt>
      <trkpt lat="44.8916" lon="0.57148">
        <ele>71.1</ele>
        <time>2023-08-06T06:47:56Z</time>
      </trkpt>
      <trkpt lat="44.8916" lon="0.5714">
        <ele>70.8</ele>
        <time>2023-08-06T06:47:57Z</time>
      </trkpt>
      <trkpt lat="44.89161" lon="0.5713">
        <ele>70.5</ele>
        <time>2023-08-06T06:47:58Z</time>
      </trkpt>
      <trkpt lat="44.89162" lon="0.57121">
        <ele>70.2</ele>
        <time>2023-08-06T06:47:59Z</time>
      </trkpt>
      <trkpt lat="44.89163" lon="0.57113">
        <ele>70</ele>
        <time>2023-08-06T06:48:00Z</time>
      </trkpt>
      <trkpt lat="44.89164" lon="0.57098">
        <ele>69.9</ele>
        <time>2023-08-06T06:48:02Z</time>
      </trkpt>
      <trkpt lat="44.89165" lon="0.57089">
        <ele>69.8</ele>
        <time>2023-08-06T06:48:04Z</time>
      </trkpt>
      <trkpt lat="44.89164" lon="0.57082">
        <ele>69.8</ele>
        <time>2023-08-06T06:48:06Z</time>
      </trkpt>
      <trkpt lat="44.89162" lon="0.57075">
        <ele>69.8</ele>
        <time>2023-08-06T06:48:08Z</time>
      </trkpt>
      <trkpt lat="44.8916" lon="0.57069">
        <ele>69.8</ele>
        <time>2023-08-06T06:48:10Z</time>
      </trkpt>
      <trkpt lat="44.89158" lon="0.57064">
        <ele>69.8</ele>
        <time>2023-08-06T06:48:12Z</time>
      </trkpt>
      <trkpt lat="44.89158" lon="0.57062">
        <ele>69.9</ele>
        <time>2023-08-06T06:48:13Z</time>
      </trkpt>
      <trkpt lat="44.89156" lon="0.5706">
        <ele>69.9</ele>
        <time>2023-08-06T06:48:14Z</time>
      </trkpt>
      <trkpt lat="44.89156" lon="0.57058">
        <ele>69.9</ele>
        <time>2023-08-06T06:48:15Z</time>
      </trkpt>
      <trkpt lat="44.89156" lon="0.57056">
        <ele>69.9</ele>
        <time>2023-08-06T06:48:16Z</time>
      </trkpt>
      <trkpt lat="44.89157" lon="0.57055">
        <ele>69.9</ele>
        <time>2023-08-06T06:48:18Z</time>
      </trkpt>
      <trkpt lat="44.89157" lon="0.57056">
        <ele>69.9</ele>
        <time>2023-08-06T06:48:19Z</time>
      </trkpt>
      <trkpt lat="44.89158" lon="0.57058">
        <ele>69.9</ele>
        <time>2023-08-06T06:48:20Z</time>
      </trkpt>
      <trkpt lat="44.8916" lon="0.57061">
        <ele>69.9</ele>
        <time>2023-08-06T06:48:22Z</time>
      </trkpt>
      <trkpt lat="44.89162" lon="0.57063">
        <ele>69.9</ele>
        <time>2023-08-06T06:48:23Z</time>
      </trkpt>
      <trkpt lat="44.89163" lon="0.57065">
        <ele>69.9</ele>
        <time>2023-08-06T06:48:24Z</time>
      </trkpt>
      <trkpt lat="44.89166" lon="0.57068">
        <ele>70.2</ele>
        <time>2023-08-06T06:48:26Z</time>
      </trkpt>
      <trkpt lat="44.8917" lon="0.57072">
        <ele>70.5</ele>
        <time>2023-08-06T06:48:28Z</time>
      </trkpt>
      <trkpt lat="44.89173" lon="0.57075">
        <ele>70.8</ele>
        <time>2023-08-06T06:48:30Z</time>
      </trkpt>
      <trkpt lat="44.89176" lon="0.57078">
        <ele>71.2</ele>
        <time>2023-08-06T06:48:32Z</time>
      </trkpt>
      <trkpt lat="44.89179" lon="0.5708">
        <ele>71.5</ele>
        <time>2023-08-06T06:48:34Z</time>
      </trkpt>
      <trkpt lat="44.89183" lon="0.57081">
        <ele>71.8</ele>
        <time>2023-08-06T06:48:36Z</time>
      </trkpt>
      <trkpt lat="44.89186" lon="0.57083">
        <ele>72.3</ele>
        <time>2023-08-06T06:48:38Z</time>
      </trkpt>
      <trkpt lat="44.89189" lon="0.57085">
        <ele>72.6</ele>
        <time>2023-08-06T06:48:40Z</time>
      </trkpt>
      <trkpt lat="44.89191" lon="0.57087">
        <ele>73</ele>
        <time>2023-08-06T06:48:42Z</time>
      </trkpt>
      <trkpt lat="44.89194" lon="0.57088">
        <ele>73.4</ele>
        <time>2023-08-06T06:48:44Z</time>
      </trkpt>
      <trkpt lat="44.89196" lon="0.5709">
        <ele>73.7</ele>
        <time>2023-08-06T06:48:46Z</time>
      </trkpt>
      <trkpt lat="44.89197" lon="0.57091">
        <ele>73.9</ele>
        <time>2023-08-06T06:48:47Z</time>
      </trkpt>
      <trkpt lat="44.89198" lon="0.57092">
        <ele>74.1</ele>
        <time>2023-08-06T06:48:48Z</time>
      </trkpt>
      <trkpt lat="44.89198" lon="0.57092">
        <ele>74.1</ele>
        <time>2023-08-06T06:48:49Z</time>
      </trkpt>
      <trkpt lat="44.89199" lon="0.57094">
        <ele>74.2</ele>
        <time>2023-08-06T06:48:50Z</time>
      </trkpt>
      <trkpt lat="44.892" lon="0.57096">
        <ele>74.6</ele>
        <time>2023-08-06T06:48:52Z</time>
      </trkpt>
      <trkpt lat="44.89201" lon="0.57099">
        <ele>74.8</ele>
        <time>2023-08-06T06:48:53Z</time>
      </trkpt>
      <trkpt lat="44.89201" lon="0.57099">
        <ele>74.8</ele>
        <time>2023-08-06T06:48:54Z</time>
      </trkpt>
      <trkpt lat="44.89203" lon="0.57103">
        <ele>75.3</ele>
        <time>2023-08-06T06:48:56Z</time>
      </trkpt>
      <trkpt lat="44.89206" lon="0.57109">
        <ele>76</ele>
        <time>2023-08-06T06:48:58Z</time>
      </trkpt>
      <trkpt lat="44.8921" lon="0.57117">
        <ele>76.8</ele>
        <time>2023-08-06T06:49:00Z</time>
      </trkpt>
      <trkpt lat="44.89211" lon="0.57121">
        <ele>77.2</ele>
        <time>2023-08-06T06:49:02Z</time>
      </trkpt>
      <trkpt lat="44.89212" lon="0.57123">
        <ele>77.4</ele>
        <time>2023-08-06T06:49:03Z</time>
      </trkpt>
      <trkpt lat="44.89213" lon="0.57125">
        <ele>77.5</ele>
        <time>2023-08-06T06:49:04Z</time>
      </trkpt>
      <trkpt lat="44.89215" lon="0.5713">
        <ele>78.1</ele>
        <time>2023-08-06T06:49:06Z</time>
      </trkpt>
      <trkpt lat="44.89217" lon="0.57133">
        <ele>78.4</ele>
        <time>2023-08-06T06:49:08Z</time>
      </trkpt>
      <trkpt lat="44.89219" lon="0.57135">
        <ele>78.6</ele>
        <time>2023-08-06T06:49:09Z</time>
      </trkpt>
      <trkpt lat="44.8922" lon="0.57137">
        <ele>78.8</ele>
        <time>2023-08-06T06:49:10Z</time>
      </trkpt>
      <trkpt lat="44.89221" lon="0.5714">
        <ele>79.2</ele>
        <time>2023-08-06T06:49:12Z</time>
      </trkpt>
      <trkpt lat="44.89223" lon="0.57144">
        <ele>79.6</ele>
        <time>2023-08-06T06:49:14Z</time>
      </trkpt>
      <trkpt lat="44.89224" lon="0.57147">
        <ele>79.9</ele>
        <time>2023-08-06T06:49:16Z</time>
      </trkpt>
      <trkpt lat="44.89226" lon="0.57151">
        <ele>80.3</ele>
        <time>2023-08-06T06:49:18Z</time>
      </trkpt>
      <trkpt lat="44.89227" lon="0.57152">
        <ele>80.5</ele>
        <time>2023-08-06T06:49:19Z</time>
      </trkpt>
      <trkpt lat="44.89228" lon="0.57154">
        <ele>80.8</ele>
        <time>2023-08-06T06:49:20Z</time>
      </trkpt>
      <trkpt lat="44.89229" lon="0.57155">
        <ele>80.9</ele>
        <time>2023-08-06T06:49:21Z</time>
      </trkpt>
      <trkpt lat="44.8923" lon="0.57157">
        <ele>81.1</ele>
        <time>2023-08-06T06:49:22Z</time>
      </trkpt>
      <trkpt lat="44.89232" lon="0.57159">
        <ele>81.5</ele>
        <time>2023-08-06T06:49:24Z</time>
      </trkpt>
      <trkpt lat="44.89235" lon="0.57161">
        <ele>81.9</ele>
        <time>2023-08-06T06:49:26Z</time>
      </trkpt>
      <trkpt lat="44.89237" lon="0.57163">
        <ele>82.3</ele>
        <time>2023-08-06T06:49:28Z</time>
      </trkpt>
      <trkpt lat="44.89239" lon="0.57163">
        <ele>82.4</ele>
        <time>2023-08-06T06:49:29Z</time>
      </trkpt>
      <trkpt lat="44.8924" lon="0.57164">
        <ele>82.7</ele>
        <time>2023-08-06T06:49:30Z</time>
      </trkpt>
      <trkpt lat="44.89242" lon="0.57163">
        <ele>83</ele>
        <time>2023-08-06T06:49:32Z</time>
      </trkpt>
      <trkpt lat="44.89245" lon="0.57163">
        <ele>83.3</ele>
        <time>2023-08-06T06:49:34Z</time>
      </trkpt>
      <trkpt lat="44.89246" lon="0.57164">
        <ele>83.5</ele>
        <time>2023-08-06T06:49:35Z</time>
      </trkpt>
      <trkpt lat="44.89247" lon="0.57163">
        <ele>83.7</ele>
        <time>2023-08-06T06:49:36Z</time>
      </trkpt>
      <trkpt lat="44.89248" lon="0.57164">
        <ele>83.8</ele>
        <time>2023-08-06T06:49:37Z</time>
      </trkpt>
      <trkpt lat="44.89249" lon="0.57164">
        <ele>84</ele>
        <time>2023-08-06T06:49:38Z</time>
      </trkpt>
      <trkpt lat="44.89251" lon="0.57163">
        <ele>84.2</ele>
        <time>2023-08-06T06:49:40Z</time>
      </trkpt>
      <trkpt lat="44.89253" lon="0.57163">
        <ele>84.7</ele>
        <time>2023-08-06T06:49:42Z</time>
      </trkpt>
      <trkpt lat="44.89256" lon="0.57162">
        <ele>85.1</ele>
        <time>2023-08-06T06:49:44Z</time>
      </trkpt>
      <trkpt lat="44.89258" lon="0.57162">
        <ele>85.5</ele>
        <time>2023-08-06T06:49:46Z</time>
      </trkpt>
      <trkpt lat="44.89262" lon="0.57161">
        <ele>86.1</ele>
        <time>2023-08-06T06:49:48Z</time>
      </trkpt>
      <trkpt lat="44.89263" lon="0.57161">
        <ele>86.4</ele>
        <time>2023-08-06T06:49:49Z</time>
      </trkpt>
      <trkpt lat="44.89265" lon="0.57161">
        <ele>86.6</ele>
        <time>2023-08-06T06:49:50Z</time>
      </trkpt>
      <trkpt lat="44.89268" lon="0.5716">
        <ele>87.2</ele>
        <time>2023-08-06T06:49:52Z</time>
      </trkpt>
      <trkpt lat="44.8927" lon="0.57161">
        <ele>87.6</ele>
        <time>2023-08-06T06:49:54Z</time>
      </trkpt>
      <trkpt lat="44.89272" lon="0.57161">
        <ele>87.8</ele>
        <time>2023-08-06T06:49:55Z</time>
      </trkpt>
      <trkpt lat="44.89273" lon="0.57162">
        <ele>88</ele>
        <time>2023-08-06T06:49:56Z</time>
      </trkpt>
      <trkpt lat="44.89274" lon="0.57162">
        <ele>88.3</ele>
        <time>2023-08-06T06:49:57Z</time>
      </trkpt>
      <trkpt lat="44.89275" lon="0.57163">
        <ele>88.4</ele>
        <time>2023-08-06T06:49:58Z</time>
      </trkpt>
      <trkpt lat="44.89277" lon="0.57166">
        <ele>88.9</ele>
        <time>2023-08-06T06:50:00Z</time>
      </trkpt>
      <trkpt lat="44.89279" lon="0.57169">
        <ele>89.2</ele>
        <time>2023-08-06T06:50:02Z</time>
      </trkpt>
      <trkpt lat="44.89279" lon="0.5717">
        <ele>89.4</ele>
        <time>2023-08-06T06:50:03Z</time>
      </trkpt>
      <trkpt lat="44.8928" lon="0.57172">
        <ele>89.5</ele>
        <time>2023-08-06T06:50:04Z</time>
      </trkpt>
      <trkpt lat="44.89282" lon="0.57175">
        <ele>89.9</ele>
        <time>2023-08-06T06:50:06Z</time>
      </trkpt>
      <trkpt lat="44.89285" lon="0.57179">
        <ele>90.3</ele>
        <time>2023-08-06T06:50:08Z</time>
      </trkpt>
      <trkpt lat="44.89286" lon="0.57181">
        <ele>90.5</ele>
        <time>2023-08-06T06:50:09Z</time>
      </trkpt>
      <trkpt lat="44.89288" lon="0.57183">
        <ele>90.7</ele>
        <time>2023-08-06T06:50:10Z</time>
      </trkpt>
      <trkpt lat="44.8929" lon="0.57187">
        <ele>91</ele>
        <time>2023-08-06T06:50:12Z</time>
      </trkpt>
      <trkpt lat="44.89292" lon="0.57189">
        <ele>91.2</ele>
        <time>2023-08-06T06:50:14Z</time>
      </trkpt>
      <trkpt lat="44.89293" lon="0.5719">
        <ele>91.3</ele>
        <time>2023-08-06T06:50:15Z</time>
      </trkpt>
      <trkpt lat="44.89294" lon="0.57191">
        <ele>91.4</ele>
        <time>2023-08-06T06:50:16Z</time>
      </trkpt>
      <trkpt lat="44.89297" lon="0.57194">
        <ele>91.7</ele>
        <time>2023-08-06T06:50:18Z</time>
      </trkpt>
      <trkpt lat="44.89298" lon="0.57196">
        <ele>91.9</ele>
        <time>2023-08-06T06:50:19Z</time>
      </trkpt>
      <trkpt lat="44.893" lon="0.57198">
        <ele>92</ele>
        <time>2023-08-06T06:50:20Z</time>
      </trkpt>
      <trkpt lat="44.89303" lon="0.57201">
        <ele>92.5</ele>
        <time>2023-08-06T06:50:22Z</time>
      </trkpt>
      <trkpt lat="44.89306" lon="0.57205">
        <ele>92.9</ele>
        <time>2023-08-06T06:50:24Z</time>
      </trkpt>
      <trkpt lat="44.89307" lon="0.57207">
        <ele>93.1</ele>
        <time>2023-08-06T06:50:25Z</time>
      </trkpt>
      <trkpt lat="44.89308" lon="0.57209">
        <ele>93.3</ele>
        <time>2023-08-06T06:50:26Z</time>
      </trkpt>
      <trkpt lat="44.8931" lon="0.57213">
        <ele>93.6</ele>
        <time>2023-08-06T06:50:28Z</time>
      </trkpt>
      <trkpt lat="44.89311" lon="0.57214">
        <ele>93.8</ele>
        <time>2023-08-06T06:50:29Z</time>
      </trkpt>
      <trkpt lat="44.89312" lon="0.57215">
        <ele>93.9</ele>
        <time>2023-08-06T06:50:30Z</time>
      </trkpt>
      <trkpt lat="44.89315" lon="0.57218">
        <ele>94.3</ele>
        <time>2023-08-06T06:50:32Z</time>
      </trkpt>
      <trkpt lat="44.89317" lon="0.57224">
        <ele>94.7</ele>
        <time>2023-08-06T06:50:34Z</time>
      </trkpt>
      <trkpt lat="44.89318" lon="0.57225">
        <ele>94.8</ele>
        <time>2023-08-06T06:50:35Z</time>
      </trkpt>
      <trkpt lat="44.8932" lon="0.57226">
        <ele>95</ele>
        <time>2023-08-06T06:50:36Z</time>
      </trkpt>
      <trkpt lat="44.89323" lon="0.57228">
        <ele>95.2</ele>
        <time>2023-08-06T06:50:38Z</time>
      </trkpt>
      <trkpt lat="44.89326" lon="0.57227">
        <ele>95.5</ele>
        <time>2023-08-06T06:50:40Z</time>
      </trkpt>
      <trkpt lat="44.89328" lon="0.57227">
        <ele>95.6</ele>
        <time>2023-08-06T06:50:41Z</time>
      </trkpt>
      <trkpt lat="44.8933" lon="0.57226">
        <ele>95.8</ele>
        <time>2023-08-06T06:50:42Z</time>
      </trkpt>
      <trkpt lat="44.89332" lon="0.57224">
        <ele>96</ele>
        <time>2023-08-06T06:50:44Z</time>
      </trkpt>
      <trkpt lat="44.89335" lon="0.57222">
        <ele>96.3</ele>
        <time>2023-08-06T06:50:46Z</time>
      </trkpt>
      <trkpt lat="44.89337" lon="0.57221">
        <ele>96.4</ele>
        <time>2023-08-06T06:50:47Z</time>
      </trkpt>
      <trkpt lat="44.89338" lon="0.5722">
        <ele>96.6</ele>
        <time>2023-08-06T06:50:48Z</time>
      </trkpt>
      <trkpt lat="44.8934" lon="0.57219">
        <ele>96.8</ele>
        <time>2023-08-06T06:50:50Z</time>
      </trkpt>
      <trkpt lat="44.89343" lon="0.57218">
        <ele>97.1</ele>
        <time>2023-08-06T06:50:52Z</time>
      </trkpt>
      <trkpt lat="44.89346" lon="0.57217">
        <ele>97.4</ele>
        <time>2023-08-06T06:50:54Z</time>
      </trkpt>
      <trkpt lat="44.8935" lon="0.57216">
        <ele>97.9</ele>
        <time>2023-08-06T06:50:56Z</time>
      </trkpt>
      <trkpt lat="44.89355" lon="0.57215">
        <ele>98.4</ele>
        <time>2023-08-06T06:50:58Z</time>
      </trkpt>
      <trkpt lat="44.89357" lon="0.57214">
        <ele>98.7</ele>
        <time>2023-08-06T06:50:59Z</time>
      </trkpt>
      <trkpt lat="44.89359" lon="0.57213">
        <ele>99</ele>
        <time>2023-08-06T06:51:00Z</time>
      </trkpt>
      <trkpt lat="44.89361" lon="0.57212">
        <ele>99.2</ele>
        <time>2023-08-06T06:51:01Z</time>
      </trkpt>
      <trkpt lat="44.89363" lon="0.57211">
        <ele>99.4</ele>
        <time>2023-08-06T06:51:02Z</time>
      </trkpt>
      <trkpt lat="44.89366" lon="0.57211">
        <ele>99.8</ele>
        <time>2023-08-06T06:51:04Z</time>
      </trkpt>
      <trkpt lat="44.89369" lon="0.5721">
        <ele>100.2</ele>
        <time>2023-08-06T06:51:06Z</time>
      </trkpt>
      <trkpt lat="44.8937" lon="0.5721">
        <ele>100.4</ele>
        <time>2023-08-06T06:51:07Z</time>
      </trkpt>
      <trkpt lat="44.89372" lon="0.57209">
        <ele>100.6</ele>
        <time>2023-08-06T06:51:08Z</time>
      </trkpt>
      <trkpt lat="44.89374" lon="0.57208">
        <ele>101</ele>
        <time>2023-08-06T06:51:10Z</time>
      </trkpt>
      <trkpt lat="44.89377" lon="0.57207">
        <ele>101.3</ele>
        <time>2023-08-06T06:51:12Z</time>
      </trkpt>
      <trkpt lat="44.89378" lon="0.57205">
        <ele>101.5</ele>
        <time>2023-08-06T06:51:14Z</time>
      </trkpt>
      <trkpt lat="44.89381" lon="0.57204">
        <ele>101.9</ele>
        <time>2023-08-06T06:51:16Z</time>
      </trkpt>
      <trkpt lat="44.89384" lon="0.57203">
        <ele>102.3</ele>
        <time>2023-08-06T06:51:18Z</time>
      </trkpt>
      <trkpt lat="44.89386" lon="0.57202">
        <ele>102.6</ele>
        <time>2023-08-06T06:51:19Z</time>
      </trkpt>
      <trkpt lat="44.89388" lon="0.57202">
        <ele>102.8</ele>
        <time>2023-08-06T06:51:20Z</time>
      </trkpt>
      <trkpt lat="44.89389" lon="0.57202">
        <ele>103</ele>
        <time>2023-08-06T06:51:22Z</time>
      </trkpt>
      <trkpt lat="44.89392" lon="0.57201">
        <ele>103.4</ele>
        <time>2023-08-06T06:51:24Z</time>
      </trkpt>
      <trkpt lat="44.89394" lon="0.57201">
        <ele>103.6</ele>
        <time>2023-08-06T06:51:25Z</time>
      </trkpt>
      <trkpt lat="44.89395" lon="0.57201">
        <ele>103.8</ele>
        <time>2023-08-06T06:51:26Z</time>
      </trkpt>
      <trkpt lat="44.89397" lon="0.57199">
        <ele>104.1</ele>
        <time>2023-08-06T06:51:28Z</time>
      </trkpt>
      <trkpt lat="44.894" lon="0.57196">
        <ele>104.6</ele>
        <time>2023-08-06T06:51:30Z</time>
      </trkpt>
      <trkpt lat="44.89403" lon="0.57193">
        <ele>105.1</ele>
        <time>2023-08-06T06:51:32Z</time>
      </trkpt>
      <trkpt lat="44.89405" lon="0.57191">
        <ele>105.5</ele>
        <time>2023-08-06T06:51:34Z</time>
      </trkpt>
      <trkpt lat="44.89408" lon="0.57188">
        <ele>105.9</ele>
        <time>2023-08-06T06:51:36Z</time>
      </trkpt>
      <trkpt lat="44.89409" lon="0.57186">
        <ele>106.2</ele>
        <time>2023-08-06T06:51:37Z</time>
      </trkpt>
      <trkpt lat="44.8941" lon="0.57185">
        <ele>106.4</ele>
        <time>2023-08-06T06:51:38Z</time>
      </trkpt>
      <trkpt lat="44.89411" lon="0.57183">
        <ele>106.6</ele>
        <time>2023-08-06T06:51:39Z</time>
      </trkpt>
      <trkpt lat="44.89412" lon="0.57182">
        <ele>106.8</ele>
        <time>2023-08-06T06:51:40Z</time>
      </trkpt>
      <trkpt lat="44.89414" lon="0.57179">
        <ele>107.3</ele>
        <time>2023-08-06T06:51:42Z</time>
      </trkpt>
      <trkpt lat="44.89415" lon="0.57177">
        <ele>107.5</ele>
        <time>2023-08-06T06:51:43Z</time>
      </trkpt>
      <trkpt lat="44.89417" lon="0.57176">
        <ele>107.8</ele>
        <time>2023-08-06T06:51:44Z</time>
      </trkpt>
      <trkpt lat="44.89419" lon="0.57174">
        <ele>108.1</ele>
        <time>2023-08-06T06:51:46Z</time>
      </trkpt>
      <trkpt lat="44.8942" lon="0.57173">
        <ele>108.4</ele>
        <time>2023-08-06T06:51:47Z</time>
      </trkpt>
      <trkpt lat="44.89421" lon="0.57172">
        <ele>108.6</ele>
        <time>2023-08-06T06:51:48Z</time>
      </trkpt>
      <trkpt lat="44.89424" lon="0.57169">
        <ele>109</ele>
        <time>2023-08-06T06:51:50Z</time>
      </trkpt>
      <trkpt lat="44.89425" lon="0.57168">
        <ele>109.3</ele>
        <time>2023-08-06T06:51:51Z</time>
      </trkpt>
      <trkpt lat="44.89426" lon="0.57166">
        <ele>109.5</ele>
        <time>2023-08-06T06:51:52Z</time>
      </trkpt>
      <trkpt lat="44.89428" lon="0.57164">
        <ele>109.8</ele>
        <time>2023-08-06T06:51:54Z</time>
      </trkpt>
      <trkpt lat="44.89431" lon="0.57162">
        <ele>110.2</ele>
        <time>2023-08-06T06:51:56Z</time>
      </trkpt>
      <trkpt lat="44.89432" lon="0.5716">
        <ele>110.5</ele>
        <time>2023-08-06T06:51:57Z</time>
      </trkpt>
      <trkpt lat="44.89433" lon="0.57159">
        <ele>110.7</ele>
        <time>2023-08-06T06:51:58Z</time>
      </trkpt>
      <trkpt lat="44.89436" lon="0.57155">
        <ele>111.2</ele>
        <time>2023-08-06T06:52:00Z</time>
      </trkpt>
      <trkpt lat="44.89438" lon="0.57152">
        <ele>111.5</ele>
        <time>2023-08-06T06:52:02Z</time>
      </trkpt>
      <trkpt lat="44.8944" lon="0.57149">
        <ele>111.9</ele>
        <time>2023-08-06T06:52:04Z</time>
      </trkpt>
      <trkpt lat="44.89442" lon="0.57146">
        <ele>112.4</ele>
        <time>2023-08-06T06:52:06Z</time>
      </trkpt>
      <trkpt lat="44.89444" lon="0.57143">
        <ele>112.8</ele>
        <time>2023-08-06T06:52:08Z</time>
      </trkpt>
      <trkpt lat="44.89445" lon="0.57142">
        <ele>112.9</ele>
        <time>2023-08-06T06:52:09Z</time>
      </trkpt>
      <trkpt lat="44.89446" lon="0.5714">
        <ele>113.1</ele>
        <time>2023-08-06T06:52:10Z</time>
      </trkpt>
      <trkpt lat="44.89448" lon="0.57138">
        <ele>113.4</ele>
        <time>2023-08-06T06:52:12Z</time>
      </trkpt>
      <trkpt lat="44.8945" lon="0.57135">
        <ele>113.8</ele>
        <time>2023-08-06T06:52:14Z</time>
      </trkpt>
      <trkpt lat="44.89451" lon="0.57134">
        <ele>113.9</ele>
        <time>2023-08-06T06:52:15Z</time>
      </trkpt>
      <trkpt lat="44.89451" lon="0.57134">
        <ele>114</ele>
        <time>2023-08-06T06:52:16Z</time>
      </trkpt>
      <trkpt lat="44.89454" lon="0.57132">
        <ele>114.4</ele>
        <time>2023-08-06T06:52:18Z</time>
      </trkpt>
      <trkpt lat="44.89457" lon="0.57129">
        <ele>114.8</ele>
        <time>2023-08-06T06:52:20Z</time>
      </trkpt>
      <trkpt lat="44.89458" lon="0.57128">
        <ele>115</ele>
        <time>2023-08-06T06:52:21Z</time>
      </trkpt>
      <trkpt lat="44.89459" lon="0.57126">
        <ele>115.2</ele>
        <time>2023-08-06T06:52:22Z</time>
      </trkpt>
      <trkpt lat="44.89461" lon="0.57124">
        <ele>115.5</ele>
        <time>2023-08-06T06:52:24Z</time>
      </trkpt>
      <trkpt lat="44.89463" lon="0.57122">
        <ele>115.8</ele>
        <time>2023-08-06T06:52:26Z</time>
      </trkpt>
      <trkpt lat="44.89465" lon="0.57122">
        <ele>116</ele>
        <time>2023-08-06T06:52:27Z</time>
      </trkpt>
      <trkpt lat="44.89466" lon="0.57121">
        <ele>116.1</ele>
        <time>2023-08-06T06:52:28Z</time>
      </trkpt>
      <trkpt lat="44.89468" lon="0.57121">
        <ele>116.4</ele>
        <time>2023-08-06T06:52:30Z</time>
      </trkpt>
      <trkpt lat="44.89471" lon="0.57121">
        <ele>116.7</ele>
        <time>2023-08-06T06:52:32Z</time>
      </trkpt>
      <trkpt lat="44.89472" lon="0.57122">
        <ele>116.8</ele>
        <time>2023-08-06T06:52:33Z</time>
      </trkpt>
      <trkpt lat="44.89473" lon="0.57123">
        <ele>116.9</ele>
        <time>2023-08-06T06:52:34Z</time>
      </trkpt>
      <trkpt lat="44.89475" lon="0.57125">
        <ele>117.2</ele>
        <time>2023-08-06T06:52:36Z</time>
      </trkpt>
      <trkpt lat="44.89478" lon="0.57126">
        <ele>117.5</ele>
        <time>2023-08-06T06:52:38Z</time>
      </trkpt>
      <trkpt lat="44.89479" lon="0.57128">
        <ele>117.6</ele>
        <time>2023-08-06T06:52:39Z</time>
      </trkpt>
      <trkpt lat="44.89481" lon="0.57129">
        <ele>117.8</ele>
        <time>2023-08-06T06:52:40Z</time>
      </trkpt>
      <trkpt lat="44.89484" lon="0.57133">
        <ele>118.1</ele>
        <time>2023-08-06T06:52:42Z</time>
      </trkpt>
      <trkpt lat="44.89487" lon="0.57136">
        <ele>118.3</ele>
        <time>2023-08-06T06:52:44Z</time>
      </trkpt>
      <trkpt lat="44.89491" lon="0.57139">
        <ele>118.5</ele>
        <time>2023-08-06T06:52:46Z</time>
      </trkpt>
      <trkpt lat="44.89495" lon="0.5714">
        <ele>118.7</ele>
        <time>2023-08-06T06:52:48Z</time>
      </trkpt>
      <trkpt lat="44.89499" lon="0.5714">
        <ele>118.9</ele>
        <time>2023-08-06T06:52:50Z</time>
      </trkpt>
      <trkpt lat="44.89502" lon="0.57141">
        <ele>119</ele>
        <time>2023-08-06T06:52:51Z</time>
      </trkpt>
      <trkpt lat="44.89504" lon="0.57141">
        <ele>119</ele>
        <time>2023-08-06T06:52:52Z</time>
      </trkpt>
      <trkpt lat="44.89509" lon="0.57142">
        <ele>119.2</ele>
        <time>2023-08-06T06:52:54Z</time>
      </trkpt>
      <trkpt lat="44.89514" lon="0.57143">
        <ele>119.3</ele>
        <time>2023-08-06T06:52:56Z</time>
      </trkpt>
      <trkpt lat="44.8952" lon="0.57144">
        <ele>119.3</ele>
        <time>2023-08-06T06:52:58Z</time>
      </trkpt>
      <trkpt lat="44.89525" lon="0.57145">
        <ele>119.4</ele>
        <time>2023-08-06T06:53:00Z</time>
      </trkpt>
      <trkpt lat="44.89532" lon="0.57146">
        <ele>119.4</ele>
        <time>2023-08-06T06:53:02Z</time>
      </trkpt>
      <trkpt lat="44.89538" lon="0.57147">
        <ele>119.4</ele>
        <time>2023-08-06T06:53:04Z</time>
      </trkpt>
      <trkpt lat="44.89543" lon="0.57146">
        <ele>119.5</ele>
        <time>2023-08-06T06:53:06Z</time>
      </trkpt>
      <trkpt lat="44.89549" lon="0.57144">
        <ele>119.5</ele>
        <time>2023-08-06T06:53:08Z</time>
      </trkpt>
      <trkpt lat="44.89554" lon="0.57142">
        <ele>119.5</ele>
        <time>2023-08-06T06:53:10Z</time>
      </trkpt>
      <trkpt lat="44.89556" lon="0.57141">
        <ele>119.5</ele>
        <time>2023-08-06T06:53:11Z</time>
      </trkpt>
      <trkpt lat="44.89559" lon="0.5714">
        <ele>119.6</ele>
        <time>2023-08-06T06:53:12Z</time>
      </trkpt>
      <trkpt lat="44.89564" lon="0.57137">
        <ele>119.6</ele>
        <time>2023-08-06T06:53:14Z</time>
      </trkpt>
      <trkpt lat="44.89569" lon="0.57136">
        <ele>119.7</ele>
        <time>2023-08-06T06:53:16Z</time>
      </trkpt>
      <trkpt lat="44.89574" lon="0.57134">
        <ele>119.8</ele>
        <time>2023-08-06T06:53:18Z</time>
      </trkpt>
      <trkpt lat="44.89578" lon="0.57134">
        <ele>120</ele>
        <time>2023-08-06T06:53:20Z</time>
      </trkpt>
      <trkpt lat="44.89581" lon="0.57135">
        <ele>120.1</ele>
        <time>2023-08-06T06:53:21Z</time>
      </trkpt>
      <trkpt lat="44.89583" lon="0.57135">
        <ele>120.2</ele>
        <time>2023-08-06T06:53:22Z</time>
      </trkpt>
      <trkpt lat="44.89588" lon="0.57136">
        <ele>120.4</ele>
        <time>2023-08-06T06:53:24Z</time>
      </trkpt>
      <trkpt lat="44.89593" lon="0.57136">
        <ele>120.7</ele>
        <time>2023-08-06T06:53:26Z</time>
      </trkpt>
      <trkpt lat="44.89595" lon="0.57137">
        <ele>120.8</ele>
        <time>2023-08-06T06:53:27Z</time>
      </trkpt>
      <trkpt lat="44.89599" lon="0.57137">
        <ele>121.1</ele>
        <time>2023-08-06T06:53:28Z</time>
      </trkpt>
      <trkpt lat="44.89603" lon="0.57138">
        <ele>121.4</ele>
        <time>2023-08-06T06:53:30Z</time>
      </trkpt>
      <trkpt lat="44.89607" lon="0.5714">
        <ele>121.8</ele>
        <time>2023-08-06T06:53:32Z</time>
      </trkpt>
      <trkpt lat="44.89609" lon="0.5714">
        <ele>122</ele>
        <time>2023-08-06T06:53:33Z</time>
      </trkpt>
      <trkpt lat="44.89611" lon="0.5714">
        <ele>122.2</ele>
        <time>2023-08-06T06:53:34Z</time>
      </trkpt>
      <trkpt lat="44.89615" lon="0.57142">
        <ele>122.6</ele>
        <time>2023-08-06T06:53:36Z</time>
      </trkpt>
      <trkpt lat="44.89618" lon="0.57144">
        <ele>123</ele>
        <time>2023-08-06T06:53:38Z</time>
      </trkpt>
      <trkpt lat="44.89623" lon="0.57144">
        <ele>123.5</ele>
        <time>2023-08-06T06:53:40Z</time>
      </trkpt>
      <trkpt lat="44.89625" lon="0.57144">
        <ele>123.8</ele>
        <time>2023-08-06T06:53:41Z</time>
      </trkpt>
      <trkpt lat="44.89628" lon="0.57143">
        <ele>124</ele>
        <time>2023-08-06T06:53:42Z</time>
      </trkpt>
      <trkpt lat="44.8963" lon="0.57144">
        <ele>124.2</ele>
        <time>2023-08-06T06:53:43Z</time>
      </trkpt>
      <trkpt lat="44.89631" lon="0.57144">
        <ele>124.2</ele>
        <time>2023-08-06T06:53:44Z</time>
      </trkpt>
      <trkpt lat="44.89633" lon="0.57144">
        <ele>124.5</ele>
        <time>2023-08-06T06:53:45Z</time>
      </trkpt>
      <trkpt lat="44.89633" lon="0.57144">
        <ele>124.5</ele>
        <time>2023-08-06T06:53:46Z</time>
      </trkpt>
      <trkpt lat="44.89633" lon="0.57144">
        <ele>124.5</ele>
        <time>2023-08-06T06:53:47Z</time>
      </trkpt>
      <trkpt lat="44.89632" lon="0.57142">
        <ele>124.5</ele>
        <time>2023-08-06T06:53:48Z</time>
      </trkpt>
      <trkpt lat="44.89632" lon="0.57141">
        <ele>125</ele>
        <time>2023-08-06T06:53:50Z</time>
      </trkpt>
      <trkpt lat="44.89632" lon="0.5714">
        <ele>125</ele>
        <time>2023-08-06T06:53:52Z</time>
      </trkpt>
      <trkpt lat="44.89632" lon="0.57138">
        <ele>125</ele>
        <time>2023-08-06T06:53:54Z</time>
      </trkpt>
      <trkpt lat="44.89631" lon="0.57137">
        <ele>125.2</ele>
        <time>2023-08-06T06:53:56Z</time>
      </trkpt>
      <trkpt lat="44.89629" lon="0.57136">
        <ele>125.2</ele>
        <time>2023-08-06T06:53:58Z</time>
      </trkpt>
      <trkpt lat="44.89628" lon="0.57135">
        <ele>125.1</ele>
        <time>2023-08-06T06:54:00Z</time>
      </trkpt>
      <trkpt lat="44.89627" lon="0.57135">
        <ele>125.1</ele>
        <time>2023-08-06T06:54:01Z</time>
      </trkpt>
      <trkpt lat="44.89626" lon="0.57134">
        <ele>125.1</ele>
        <time>2023-08-06T06:54:02Z</time>
      </trkpt>
      <trkpt lat="44.89624" lon="0.57132">
        <ele>125.4</ele>
        <time>2023-08-06T06:54:04Z</time>
      </trkpt>
      <trkpt lat="44.89621" lon="0.5713">
        <ele>125.2</ele>
        <time>2023-08-06T06:54:06Z</time>
      </trkpt>
      <trkpt lat="44.89619" lon="0.57128">
        <ele>125.7</ele>
        <time>2023-08-06T06:54:08Z</time>
      </trkpt>
      <trkpt lat="44.89616" lon="0.57125">
        <ele>125.6</ele>
        <time>2023-08-06T06:54:10Z</time>
      </trkpt>
      <trkpt lat="44.89615" lon="0.57123">
        <ele>126</ele>
        <time>2023-08-06T06:54:11Z</time>
      </trkpt>
      <trkpt lat="44.89613" lon="0.57122">
        <ele>125.9</ele>
        <time>2023-08-06T06:54:12Z</time>
      </trkpt>
      <trkpt lat="44.89611" lon="0.57119">
        <ele>126.3</ele>
        <time>2023-08-06T06:54:14Z</time>
      </trkpt>
      <trkpt lat="44.89608" lon="0.57116">
        <ele>126.5</ele>
        <time>2023-08-06T06:54:16Z</time>
      </trkpt>
      <trkpt lat="44.89606" lon="0.57112">
        <ele>126.4</ele>
        <time>2023-08-06T06:54:18Z</time>
      </trkpt>
      <trkpt lat="44.89605" lon="0.57108">
        <ele>126.7</ele>
        <time>2023-08-06T06:54:20Z</time>
      </trkpt>
      <trkpt lat="44.89605" lon="0.57106">
        <ele>127</ele>
        <time>2023-08-06T06:54:21Z</time>
      </trkpt>
      <trkpt lat="44.89604" lon="0.57105">
        <ele>127</ele>
        <time>2023-08-06T06:54:22Z</time>
      </trkpt>
      <trkpt lat="44.89605" lon="0.57104">
        <ele>127</ele>
        <time>2023-08-06T06:54:23Z</time>
      </trkpt>
      <trkpt lat="44.89605" lon="0.57102">
        <ele>127.3</ele>
        <time>2023-08-06T06:54:24Z</time>
      </trkpt>
      <trkpt lat="44.89605" lon="0.57101">
        <ele>127.3</ele>
        <time>2023-08-06T06:54:25Z</time>
      </trkpt>
      <trkpt lat="44.89605" lon="0.571">
        <ele>127.3</ele>
        <time>2023-08-06T06:54:26Z</time>
      </trkpt>
      <trkpt lat="44.89606" lon="0.57098">
        <ele>127.5</ele>
        <time>2023-08-06T06:54:28Z</time>
      </trkpt>
      <trkpt lat="44.89607" lon="0.57094">
        <ele>127.6</ele>
        <time>2023-08-06T06:54:30Z</time>
      </trkpt>
      <trkpt lat="44.89609" lon="0.5709">
        <ele>128</ele>
        <time>2023-08-06T06:54:32Z</time>
      </trkpt>
      <trkpt lat="44.89609" lon="0.57088">
        <ele>128</ele>
        <time>2023-08-06T06:54:33Z</time>
      </trkpt>
      <trkpt lat="44.8961" lon="0.57086">
        <ele>128</ele>
        <time>2023-08-06T06:54:34Z</time>
      </trkpt>
      <trkpt lat="44.8961" lon="0.57083">
        <ele>128.1</ele>
        <time>2023-08-06T06:54:36Z</time>
      </trkpt>
      <trkpt lat="44.8961" lon="0.5708">
        <ele>128.1</ele>
        <time>2023-08-06T06:54:38Z</time>
      </trkpt>
      <trkpt lat="44.8961" lon="0.57077">
        <ele>128.2</ele>
        <time>2023-08-06T06:54:40Z</time>
      </trkpt>
      <trkpt lat="44.89611" lon="0.57074">
        <ele>128.4</ele>
        <time>2023-08-06T06:54:42Z</time>
      </trkpt>
      <trkpt lat="44.89612" lon="0.57071">
        <ele>128.4</ele>
        <time>2023-08-06T06:54:43Z</time>
      </trkpt>
      <trkpt lat="44.89612" lon="0.57069">
        <ele>128.4</ele>
        <time>2023-08-06T06:54:44Z</time>
      </trkpt>
      <trkpt lat="44.89614" lon="0.57065">
        <ele>128.7</ele>
        <time>2023-08-06T06:54:46Z</time>
      </trkpt>
      <trkpt lat="44.89618" lon="0.57064">
        <ele>128.8</ele>
        <time>2023-08-06T06:54:48Z</time>
      </trkpt>
      <trkpt lat="44.89622" lon="0.57063">
        <ele>129.1</ele>
        <time>2023-08-06T06:54:50Z</time>
      </trkpt>
      <trkpt lat="44.89626" lon="0.57061">
        <ele>129.5</ele>
        <time>2023-08-06T06:54:52Z</time>
      </trkpt>
      <trkpt lat="44.8963" lon="0.5706">
        <ele>129.7</ele>
        <time>2023-08-06T06:54:54Z</time>
      </trkpt>
      <trkpt lat="44.89634" lon="0.57059">
        <ele>130</ele>
        <time>2023-08-06T06:54:56Z</time>
      </trkpt>
      <trkpt lat="44.89638" lon="0.57058">
        <ele>130.5</ele>
        <time>2023-08-06T06:54:58Z</time>
      </trkpt>
      <trkpt lat="44.89642" lon="0.57057">
        <ele>130.8</ele>
        <time>2023-08-06T06:55:00Z</time>
      </trkpt>
      <trkpt lat="44.89646" lon="0.57057">
        <ele>131</ele>
        <time>2023-08-06T06:55:02Z</time>
      </trkpt>
      <trkpt lat="44.8965" lon="0.57055">
        <ele>131.4</ele>
        <time>2023-08-06T06:55:04Z</time>
      </trkpt>
      <trkpt lat="44.89653" lon="0.57054">
        <ele>131.6</ele>
        <time>2023-08-06T06:55:06Z</time>
      </trkpt>
      <trkpt lat="44.89655" lon="0.57053">
        <ele>131.6</ele>
        <time>2023-08-06T06:55:07Z</time>
      </trkpt>
      <trkpt lat="44.89657" lon="0.57053">
        <ele>131.9</ele>
        <time>2023-08-06T06:55:08Z</time>
      </trkpt>
      <trkpt lat="44.8966" lon="0.57051">
        <ele>132</ele>
        <time>2023-08-06T06:55:10Z</time>
      </trkpt>
      <trkpt lat="44.89664" lon="0.5705">
        <ele>132.3</ele>
        <time>2023-08-06T06:55:12Z</time>
      </trkpt>
      <trkpt lat="44.89665" lon="0.57049">
        <ele>132.5</ele>
        <time>2023-08-06T06:55:13Z</time>
      </trkpt>
      <trkpt lat="44.89667" lon="0.57049">
        <ele>132.5</ele>
        <time>2023-08-06T06:55:14Z</time>
      </trkpt>
      <trkpt lat="44.89671" lon="0.57047">
        <ele>132.7</ele>
        <time>2023-08-06T06:55:16Z</time>
      </trkpt>
      <trkpt lat="44.89675" lon="0.57045">
        <ele>133.2</ele>
        <time>2023-08-06T06:55:18Z</time>
      </trkpt>
      <trkpt lat="44.89678" lon="0.57043">
        <ele>133.3</ele>
        <time>2023-08-06T06:55:20Z</time>
      </trkpt>
      <trkpt lat="44.89681" lon="0.5704">
        <ele>133.5</ele>
        <time>2023-08-06T06:55:22Z</time>
      </trkpt>
      <trkpt lat="44.89683" lon="0.57039">
        <ele>133.5</ele>
        <time>2023-08-06T06:55:23Z</time>
      </trkpt>
      <trkpt lat="44.89685" lon="0.57038">
        <ele>133.6</ele>
        <time>2023-08-06T06:55:24Z</time>
      </trkpt>
      <trkpt lat="44.89687" lon="0.57038">
        <ele>133.9</ele>
        <time>2023-08-06T06:55:25Z</time>
      </trkpt>
      <trkpt lat="44.89688" lon="0.57038">
        <ele>133.9</ele>
        <time>2023-08-06T06:55:26Z</time>
      </trkpt>
      <trkpt lat="44.89692" lon="0.57036">
        <ele>134.1</ele>
        <time>2023-08-06T06:55:28Z</time>
      </trkpt>
      <trkpt lat="44.89695" lon="0.57034">
        <ele>134.3</ele>
        <time>2023-08-06T06:55:30Z</time>
      </trkpt>
      <trkpt lat="44.89698" lon="0.57032">
        <ele>134.5</ele>
        <time>2023-08-06T06:55:32Z</time>
      </trkpt>
      <trkpt lat="44.89702" lon="0.5703">
        <ele>135</ele>
        <time>2023-08-06T06:55:34Z</time>
      </trkpt>
      <trkpt lat="44.89706" lon="0.57028">
        <ele>135.3</ele>
        <time>2023-08-06T06:55:36Z</time>
      </trkpt>
      <trkpt lat="44.89711" lon="0.57027">
        <ele>135.8</ele>
        <time>2023-08-06T06:55:38Z</time>
      </trkpt>
      <trkpt lat="44.89715" lon="0.57027">
        <ele>136.1</ele>
        <time>2023-08-06T06:55:40Z</time>
      </trkpt>
      <trkpt lat="44.8972" lon="0.57027">
        <ele>136.4</ele>
        <time>2023-08-06T06:55:42Z</time>
      </trkpt>
      <trkpt lat="44.89722" lon="0.57027">
        <ele>136.7</ele>
        <time>2023-08-06T06:55:43Z</time>
      </trkpt>
      <trkpt lat="44.89725" lon="0.57027">
        <ele>137</ele>
        <time>2023-08-06T06:55:44Z</time>
      </trkpt>
      <trkpt lat="44.8973" lon="0.57027">
        <ele>137.6</ele>
        <time>2023-08-06T06:55:46Z</time>
      </trkpt>
      <trkpt lat="44.89733" lon="0.57027">
        <ele>137.9</ele>
        <time>2023-08-06T06:55:47Z</time>
      </trkpt>
      <trkpt lat="44.89735" lon="0.57028">
        <ele>137.8</ele>
        <time>2023-08-06T06:55:48Z</time>
      </trkpt>
      <trkpt lat="44.89738" lon="0.57033">
        <ele>137.7</ele>
        <time>2023-08-06T06:55:50Z</time>
      </trkpt>
      <trkpt lat="44.89739" lon="0.57036">
        <ele>137.6</ele>
        <time>2023-08-06T06:55:51Z</time>
      </trkpt>
      <trkpt lat="44.89741" lon="0.57039">
        <ele>137.6</ele>
        <time>2023-08-06T06:55:52Z</time>
      </trkpt>
      <trkpt lat="44.89743" lon="0.57047">
        <ele>137.4</ele>
        <time>2023-08-06T06:55:54Z</time>
      </trkpt>
      <trkpt lat="44.89745" lon="0.57056">
        <ele>137.2</ele>
        <time>2023-08-06T06:55:56Z</time>
      </trkpt>
      <trkpt lat="44.89749" lon="0.57066">
        <ele>137</ele>
        <time>2023-08-06T06:55:58Z</time>
      </trkpt>
      <trkpt lat="44.89753" lon="0.57073">
        <ele>136.9</ele>
        <time>2023-08-06T06:56:00Z</time>
      </trkpt>
      <trkpt lat="44.89756" lon="0.57077">
        <ele>136.8</ele>
        <time>2023-08-06T06:56:01Z</time>
      </trkpt>
      <trkpt lat="44.89759" lon="0.57079">
        <ele>136.7</ele>
        <time>2023-08-06T06:56:02Z</time>
      </trkpt>
      <trkpt lat="44.89766" lon="0.57082">
        <ele>136.5</ele>
        <time>2023-08-06T06:56:04Z</time>
      </trkpt>
      <trkpt lat="44.89773" lon="0.57087">
        <ele>136.3</ele>
        <time>2023-08-06T06:56:06Z</time>
      </trkpt>
      <trkpt lat="44.89779" lon="0.57095">
        <ele>136.1</ele>
        <time>2023-08-06T06:56:08Z</time>
      </trkpt>
      <trkpt lat="44.89784" lon="0.57101">
        <ele>136</ele>
        <time>2023-08-06T06:56:10Z</time>
      </trkpt>
      <trkpt lat="44.89788" lon="0.57111">
        <ele>135.7</ele>
        <time>2023-08-06T06:56:12Z</time>
      </trkpt>
      <trkpt lat="44.89793" lon="0.57117">
        <ele>135.6</ele>
        <time>2023-08-06T06:56:13Z</time>
      </trkpt>
      <trkpt lat="44.89798" lon="0.57124">
        <ele>135.4</ele>
        <time>2023-08-06T06:56:14Z</time>
      </trkpt>
      <trkpt lat="44.89803" lon="0.57131">
        <ele>135.2</ele>
        <time>2023-08-06T06:56:15Z</time>
      </trkpt>
      <trkpt lat="44.89808" lon="0.57139">
        <ele>135</ele>
        <time>2023-08-06T06:56:16Z</time>
      </trkpt>
      <trkpt lat="44.89814" lon="0.57147">
        <ele>134.8</ele>
        <time>2023-08-06T06:56:17Z</time>
      </trkpt>
      <trkpt lat="44.8982" lon="0.57156">
        <ele>134.6</ele>
        <time>2023-08-06T06:56:18Z</time>
      </trkpt>
      <trkpt lat="44.89833" lon="0.57174">
        <ele>134.2</ele>
        <time>2023-08-06T06:56:20Z</time>
      </trkpt>
      <trkpt lat="44.89845" lon="0.57188">
        <ele>133.8</ele>
        <time>2023-08-06T06:56:22Z</time>
      </trkpt>
      <trkpt lat="44.8985" lon="0.57196">
        <ele>133.6</ele>
        <time>2023-08-06T06:56:23Z</time>
      </trkpt>
      <trkpt lat="44.89854" lon="0.57205">
        <ele>133.4</ele>
        <time>2023-08-06T06:56:24Z</time>
      </trkpt>
      <trkpt lat="44.89858" lon="0.57214">
        <ele>133.2</ele>
        <time>2023-08-06T06:56:25Z</time>
      </trkpt>
      <trkpt lat="44.89862" lon="0.57222">
        <ele>133</ele>
        <time>2023-08-06T06:56:26Z</time>
      </trkpt>
      <trkpt lat="44.89866" lon="0.57231">
        <ele>132.9</ele>
        <time>2023-08-06T06:56:27Z</time>
      </trkpt>
      <trkpt lat="44.89871" lon="0.57239">
        <ele>132.7</ele>
        <time>2023-08-06T06:56:28Z</time>
      </trkpt>
      <trkpt lat="44.89874" lon="0.57247">
        <ele>132.5</ele>
        <time>2023-08-06T06:56:29Z</time>
      </trkpt>
      <trkpt lat="44.89876" lon="0.57256">
        <ele>132.3</ele>
        <time>2023-08-06T06:56:30Z</time>
      </trkpt>
      <trkpt lat="44.89879" lon="0.57275">
        <ele>132</ele>
        <time>2023-08-06T06:56:32Z</time>
      </trkpt>
      <trkpt lat="44.89882" lon="0.57294">
        <ele>131.7</ele>
        <time>2023-08-06T06:56:34Z</time>
      </trkpt>
      <trkpt lat="44.89886" lon="0.57313">
        <ele>131.3</ele>
        <time>2023-08-06T06:56:36Z</time>
      </trkpt>
      <trkpt lat="44.89888" lon="0.57323">
        <ele>131.1</ele>
        <time>2023-08-06T06:56:37Z</time>
      </trkpt>
      <trkpt lat="44.89891" lon="0.57332">
        <ele>130.9</ele>
        <time>2023-08-06T06:56:38Z</time>
      </trkpt>
      <trkpt lat="44.89901" lon="0.57348">
        <ele>130.6</ele>
        <time>2023-08-06T06:56:40Z</time>
      </trkpt>
      <trkpt lat="44.89909" lon="0.57353">
        <ele>130.4</ele>
        <time>2023-08-06T06:56:42Z</time>
      </trkpt>
      <trkpt lat="44.89912" lon="0.57352">
        <ele>130.3</ele>
        <time>2023-08-06T06:56:43Z</time>
      </trkpt>
      <trkpt lat="44.89914" lon="0.57351">
        <ele>130.2</ele>
        <time>2023-08-06T06:56:44Z</time>
      </trkpt>
      <trkpt lat="44.89918" lon="0.57348">
        <ele>130.1</ele>
        <time>2023-08-06T06:56:46Z</time>
      </trkpt>
      <trkpt lat="44.89923" lon="0.57344">
        <ele>130</ele>
        <time>2023-08-06T06:56:48Z</time>
      </trkpt>
      <trkpt lat="44.89929" lon="0.57339">
        <ele>129.8</ele>
        <time>2023-08-06T06:56:50Z</time>
      </trkpt>
      <trkpt lat="44.89932" lon="0.57337">
        <ele>129.7</ele>
        <time>2023-08-06T06:56:51Z</time>
      </trkpt>
      <trkpt lat="44.89934" lon="0.57335">
        <ele>129.6</ele>
        <time>2023-08-06T06:56:52Z</time>
      </trkpt>
      <trkpt lat="44.8994" lon="0.57331">
        <ele>129.5</ele>
        <time>2023-08-06T06:56:54Z</time>
      </trkpt>
      <trkpt lat="44.89943" lon="0.57329">
        <ele>129.6</ele>
        <time>2023-08-06T06:56:55Z</time>
      </trkpt>
      <trkpt lat="44.89946" lon="0.57328">
        <ele>129.7</ele>
        <time>2023-08-06T06:56:56Z</time>
      </trkpt>
      <trkpt lat="44.89951" lon="0.57324">
        <ele>130</ele>
        <time>2023-08-06T06:56:58Z</time>
      </trkpt>
      <trkpt lat="44.89954" lon="0.57322">
        <ele>130.1</ele>
        <time>2023-08-06T06:56:59Z</time>
      </trkpt>
      <trkpt lat="44.89957" lon="0.5732">
        <ele>130.2</ele>
        <time>2023-08-06T06:57:00Z</time>
      </trkpt>
      <trkpt lat="44.89962" lon="0.57315">
        <ele>130.5</ele>
        <time>2023-08-06T06:57:02Z</time>
      </trkpt>
      <trkpt lat="44.89968" lon="0.5731">
        <ele>130.7</ele>
        <time>2023-08-06T06:57:04Z</time>
      </trkpt>
      <trkpt lat="44.89974" lon="0.57307">
        <ele>130.9</ele>
        <time>2023-08-06T06:57:06Z</time>
      </trkpt>
      <trkpt lat="44.8998" lon="0.57303">
        <ele>131.1</ele>
        <time>2023-08-06T06:57:08Z</time>
      </trkpt>
      <trkpt lat="44.89983" lon="0.57301">
        <ele>131.3</ele>
        <time>2023-08-06T06:57:09Z</time>
      </trkpt>
      <trkpt lat="44.89985" lon="0.57298">
        <ele>131.4</ele>
        <time>2023-08-06T06:57:10Z</time>
      </trkpt>
      <trkpt lat="44.89991" lon="0.57293">
        <ele>131.6</ele>
        <time>2023-08-06T06:57:12Z</time>
      </trkpt>
      <trkpt lat="44.89997" lon="0.57288">
        <ele>131.9</ele>
        <time>2023-08-06T06:57:14Z</time>
      </trkpt>
      <trkpt lat="44.90003" lon="0.57284">
        <ele>132.1</ele>
        <time>2023-08-06T06:57:16Z</time>
      </trkpt>
      <trkpt lat="44.90007" lon="0.57281">
        <ele>132.3</ele>
        <time>2023-08-06T06:57:18Z</time>
      </trkpt>
      <trkpt lat="44.90012" lon="0.57277">
        <ele>132.5</ele>
        <time>2023-08-06T06:57:20Z</time>
      </trkpt>
      <trkpt lat="44.90016" lon="0.57273">
        <ele>132.8</ele>
        <time>2023-08-06T06:57:22Z</time>
      </trkpt>
      <trkpt lat="44.90019" lon="0.57271">
        <ele>132.9</ele>
        <time>2023-08-06T06:57:23Z</time>
      </trkpt>
      <trkpt lat="44.90021" lon="0.57269">
        <ele>133</ele>
        <time>2023-08-06T06:57:24Z</time>
      </trkpt>
      <trkpt lat="44.90025" lon="0.57265">
        <ele>133.3</ele>
        <time>2023-08-06T06:57:26Z</time>
      </trkpt>
      <trkpt lat="44.90029" lon="0.57261">
        <ele>133.6</ele>
        <time>2023-08-06T06:57:28Z</time>
      </trkpt>
      <trkpt lat="44.90033" lon="0.57257">
        <ele>133.9</ele>
        <time>2023-08-06T06:57:30Z</time>
      </trkpt>
      <trkpt lat="44.90035" lon="0.57255">
        <ele>134</ele>
        <time>2023-08-06T06:57:31Z</time>
      </trkpt>
      <trkpt lat="44.90037" lon="0.57253">
        <ele>134.2</ele>
        <time>2023-08-06T06:57:32Z</time>
      </trkpt>
      <trkpt lat="44.90041" lon="0.57248">
        <ele>134.5</ele>
        <time>2023-08-06T06:57:34Z</time>
      </trkpt>
      <trkpt lat="44.90043" lon="0.57243">
        <ele>134.8</ele>
        <time>2023-08-06T06:57:36Z</time>
      </trkpt>
      <trkpt lat="44.90046" lon="0.57237">
        <ele>135.2</ele>
        <time>2023-08-06T06:57:38Z</time>
      </trkpt>
      <trkpt lat="44.90048" lon="0.57231">
        <ele>135.6</ele>
        <time>2023-08-06T06:57:40Z</time>
      </trkpt>
      <trkpt lat="44.9005" lon="0.57226">
        <ele>136</ele>
        <time>2023-08-06T06:57:42Z</time>
      </trkpt>
      <trkpt lat="44.90051" lon="0.57224">
        <ele>136.2</ele>
        <time>2023-08-06T06:57:43Z</time>
      </trkpt>
      <trkpt lat="44.90053" lon="0.57223">
        <ele>136.4</ele>
        <time>2023-08-06T06:57:44Z</time>
      </trkpt>
      <trkpt lat="44.90055" lon="0.57224">
        <ele>137.5</ele>
        <time>2023-08-06T06:57:45Z</time>
      </trkpt>
      <trkpt lat="44.90056" lon="0.57226">
        <ele>137.5</ele>
        <time>2023-08-06T06:57:46Z</time>
      </trkpt>
      <trkpt lat="44.90058" lon="0.57231">
        <ele>137.4</ele>
        <time>2023-08-06T06:57:48Z</time>
      </trkpt>
      <trkpt lat="44.90062" lon="0.57238">
        <ele>137.4</ele>
        <time>2023-08-06T06:57:50Z</time>
      </trkpt>
      <trkpt lat="44.90066" lon="0.57244">
        <ele>137.4</ele>
        <time>2023-08-06T06:57:52Z</time>
      </trkpt>
      <trkpt lat="44.90069" lon="0.57246">
        <ele>137.4</ele>
        <time>2023-08-06T06:57:53Z</time>
      </trkpt>
      <trkpt lat="44.90072" lon="0.57248">
        <ele>137.4</ele>
        <time>2023-08-06T06:57:54Z</time>
      </trkpt>
      <trkpt lat="44.90075" lon="0.5725">
        <ele>137.4</ele>
        <time>2023-08-06T06:57:55Z</time>
      </trkpt>
      <trkpt lat="44.90078" lon="0.57252">
        <ele>137.4</ele>
        <time>2023-08-06T06:57:56Z</time>
      </trkpt>
      <trkpt lat="44.90084" lon="0.57255">
        <ele>137.4</ele>
        <time>2023-08-06T06:57:58Z</time>
      </trkpt>
      <trkpt lat="44.90091" lon="0.57258">
        <ele>137.4</ele>
        <time>2023-08-06T06:58:00Z</time>
      </trkpt>
      <trkpt lat="44.90097" lon="0.5726">
        <ele>137.4</ele>
        <time>2023-08-06T06:58:02Z</time>
      </trkpt>
      <trkpt lat="44.90104" lon="0.57261">
        <ele>137.4</ele>
        <time>2023-08-06T06:58:04Z</time>
      </trkpt>
      <trkpt lat="44.90111" lon="0.57261">
        <ele>137.4</ele>
        <time>2023-08-06T06:58:06Z</time>
      </trkpt>
      <trkpt lat="44.90117" lon="0.57262">
        <ele>137.5</ele>
        <time>2023-08-06T06:58:08Z</time>
      </trkpt>
      <trkpt lat="44.90124" lon="0.57263">
        <ele>137.5</ele>
        <time>2023-08-06T06:58:10Z</time>
      </trkpt>
      <trkpt lat="44.9013" lon="0.57264">
        <ele>137.6</ele>
        <time>2023-08-06T06:58:12Z</time>
      </trkpt>
      <trkpt lat="44.90137" lon="0.57264">
        <ele>137.6</ele>
        <time>2023-08-06T06:58:14Z</time>
      </trkpt>
      <trkpt lat="44.90141" lon="0.57264">
        <ele>137.7</ele>
        <time>2023-08-06T06:58:15Z</time>
      </trkpt>
      <trkpt lat="44.90144" lon="0.57265">
        <ele>137.7</ele>
        <time>2023-08-06T06:58:16Z</time>
      </trkpt>
      <trkpt lat="44.9015" lon="0.57266">
        <ele>137.8</ele>
        <time>2023-08-06T06:58:18Z</time>
      </trkpt>
      <trkpt lat="44.90157" lon="0.57267">
        <ele>137.9</ele>
        <time>2023-08-06T06:58:20Z</time>
      </trkpt>
      <trkpt lat="44.90163" lon="0.57268">
        <ele>137.9</ele>
        <time>2023-08-06T06:58:22Z</time>
      </trkpt>
      <trkpt lat="44.9017" lon="0.57269">
        <ele>138.1</ele>
        <time>2023-08-06T06:58:24Z</time>
      </trkpt>
      <trkpt lat="44.90177" lon="0.57271">
        <ele>138.2</ele>
        <time>2023-08-06T06:58:26Z</time>
      </trkpt>
      <trkpt lat="44.90183" lon="0.57272">
        <ele>138.3</ele>
        <time>2023-08-06T06:58:28Z</time>
      </trkpt>
      <trkpt lat="44.9019" lon="0.57273">
        <ele>138.5</ele>
        <time>2023-08-06T06:58:30Z</time>
      </trkpt>
      <trkpt lat="44.90196" lon="0.57274">
        <ele>138.7</ele>
        <time>2023-08-06T06:58:32Z</time>
      </trkpt>
      <trkpt lat="44.90203" lon="0.57276">
        <ele>138.8</ele>
        <time>2023-08-06T06:58:34Z</time>
      </trkpt>
      <trkpt lat="44.90209" lon="0.57278">
        <ele>139</ele>
        <time>2023-08-06T06:58:36Z</time>
      </trkpt>
      <trkpt lat="44.90216" lon="0.5728">
        <ele>139.2</ele>
        <time>2023-08-06T06:58:38Z</time>
      </trkpt>
      <trkpt lat="44.90219" lon="0.57281">
        <ele>139.4</ele>
        <time>2023-08-06T06:58:39Z</time>
      </trkpt>
      <trkpt lat="44.90223" lon="0.57282">
        <ele>139.5</ele>
        <time>2023-08-06T06:58:40Z</time>
      </trkpt>
      <trkpt lat="44.90227" lon="0.57285">
        <ele>139.7</ele>
        <time>2023-08-06T06:58:42Z</time>
      </trkpt>
      <trkpt lat="44.90231" lon="0.57287">
        <ele>139.8</ele>
        <time>2023-08-06T06:58:44Z</time>
      </trkpt>
      <trkpt lat="44.90236" lon="0.5729">
        <ele>140</ele>
        <time>2023-08-06T06:58:46Z</time>
      </trkpt>
      <trkpt lat="44.90242" lon="0.57292">
        <ele>140.1</ele>
        <time>2023-08-06T06:58:48Z</time>
      </trkpt>
      <trkpt lat="44.90246" lon="0.57293">
        <ele>140.2</ele>
        <time>2023-08-06T06:58:49Z</time>
      </trkpt>
      <trkpt lat="44.90249" lon="0.57295">
        <ele>140.2</ele>
        <time>2023-08-06T06:58:50Z</time>
      </trkpt>
      <trkpt lat="44.90254" lon="0.57298">
        <ele>140.3</ele>
        <time>2023-08-06T06:58:52Z</time>
      </trkpt>
      <trkpt lat="44.9026" lon="0.573">
        <ele>140.2</ele>
        <time>2023-08-06T06:58:54Z</time>
      </trkpt>
      <trkpt lat="44.90264" lon="0.57302">
        <ele>140.2</ele>
        <time>2023-08-06T06:58:55Z</time>
      </trkpt>
      <trkpt lat="44.90267" lon="0.57303">
        <ele>140.1</ele>
        <time>2023-08-06T06:58:56Z</time>
      </trkpt>
      <trkpt lat="44.90272" lon="0.57306">
        <ele>139.9</ele>
        <time>2023-08-06T06:58:58Z</time>
      </trkpt>
      <trkpt lat="44.90276" lon="0.57308">
        <ele>139.8</ele>
        <time>2023-08-06T06:59:00Z</time>
      </trkpt>
      <trkpt lat="44.9028" lon="0.5731">
        <ele>139.5</ele>
        <time>2023-08-06T06:59:02Z</time>
      </trkpt>
      <trkpt lat="44.90283" lon="0.57311">
        <ele>139.4</ele>
        <time>2023-08-06T06:59:03Z</time>
      </trkpt>
      <trkpt lat="44.90285" lon="0.57312">
        <ele>139.3</ele>
        <time>2023-08-06T06:59:04Z</time>
      </trkpt>
      <trkpt lat="44.90292" lon="0.57313">
        <ele>139</ele>
        <time>2023-08-06T06:59:06Z</time>
      </trkpt>
      <trkpt lat="44.903" lon="0.57314">
        <ele>138.7</ele>
        <time>2023-08-06T06:59:08Z</time>
      </trkpt>
      <trkpt lat="44.9031" lon="0.57314">
        <ele>137.9</ele>
        <time>2023-08-06T06:59:10Z</time>
      </trkpt>
      <trkpt lat="44.90326" lon="0.57315">
        <ele>137</ele>
        <time>2023-08-06T06:59:12Z</time>
      </trkpt>
      <trkpt lat="44.90326" lon="0.57315">
        <ele>137</ele>
        <time>2023-08-06T06:59:14Z</time>
      </trkpt>
      <trkpt lat="44.90333" lon="0.57318">
        <ele>136.7</ele>
        <time>2023-08-06T06:59:15Z</time>
      </trkpt>
      <trkpt lat="44.9034" lon="0.57321">
        <ele>136.4</ele>
        <time>2023-08-06T06:59:16Z</time>
      </trkpt>
      <trkpt lat="44.90346" lon="0.57323">
        <ele>136.1</ele>
        <time>2023-08-06T06:59:17Z</time>
      </trkpt>
      <trkpt lat="44.90353" lon="0.57326">
        <ele>136</ele>
        <time>2023-08-06T06:59:18Z</time>
      </trkpt>
      <trkpt lat="44.90359" lon="0.57329">
        <ele>135.8</ele>
        <time>2023-08-06T06:59:19Z</time>
      </trkpt>
      <trkpt lat="44.90366" lon="0.57332">
        <ele>135.7</ele>
        <time>2023-08-06T06:59:20Z</time>
      </trkpt>
      <trkpt lat="44.90372" lon="0.57334">
        <ele>135.6</ele>
        <time>2023-08-06T06:59:22Z</time>
      </trkpt>
      <trkpt lat="44.90379" lon="0.57337">
        <ele>135.6</ele>
        <time>2023-08-06T06:59:24Z</time>
      </trkpt>
      <trkpt lat="44.90385" lon="0.5734">
        <ele>135.5</ele>
        <time>2023-08-06T06:59:26Z</time>
      </trkpt>
      <trkpt lat="44.90392" lon="0.57343">
        <ele>135.4</ele>
        <time>2023-08-06T06:59:28Z</time>
      </trkpt>
      <trkpt lat="44.90399" lon="0.57346">
        <ele>135.3</ele>
        <time>2023-08-06T06:59:29Z</time>
      </trkpt>
      <trkpt lat="44.90405" lon="0.57348">
        <ele>135.3</ele>
        <time>2023-08-06T06:59:30Z</time>
      </trkpt>
      <trkpt lat="44.90412" lon="0.57351">
        <ele>135.2</ele>
        <time>2023-08-06T06:59:32Z</time>
      </trkpt>
      <trkpt lat="44.90418" lon="0.57354">
        <ele>135.1</ele>
        <time>2023-08-06T06:59:34Z</time>
      </trkpt>
      <trkpt lat="44.90464" lon="0.57373">
        <ele>134.1</ele>
        <time>2023-08-06T06:59:35Z</time>
      </trkpt>
      <trkpt lat="44.90471" lon="0.57379">
        <ele>134</ele>
        <time>2023-08-06T06:59:36Z</time>
      </trkpt>
      <trkpt lat="44.90486" lon="0.57393">
        <ele>133.8</ele>
        <time>2023-08-06T06:59:38Z</time>
      </trkpt>
      <trkpt lat="44.905" lon="0.57408">
        <ele>133.7</ele>
        <time>2023-08-06T06:59:40Z</time>
      </trkpt>
      <trkpt lat="44.90516" lon="0.57426">
        <ele>133.1</ele>
        <time>2023-08-06T06:59:42Z</time>
      </trkpt>
      <trkpt lat="44.90531" lon="0.57444">
        <ele>132.6</ele>
        <time>2023-08-06T06:59:44Z</time>
      </trkpt>
      <trkpt lat="44.90531" lon="0.57444">
        <ele>132.6</ele>
        <time>2023-08-06T06:59:46Z</time>
      </trkpt>
      <trkpt lat="44.90542" lon="0.57458">
        <ele>132.2</ele>
        <time>2023-08-06T06:59:48Z</time>
      </trkpt>
      <trkpt lat="44.90554" lon="0.57471">
        <ele>131.8</ele>
        <time>2023-08-06T06:59:49Z</time>
      </trkpt>
      <trkpt lat="44.90577" lon="0.57498">
        <ele>131.4</ele>
        <time>2023-08-06T06:59:50Z</time>
      </trkpt>
      <trkpt lat="44.9059" lon="0.5751">
        <ele>131.4</ele>
        <time>2023-08-06T06:59:52Z</time>
      </trkpt>
      <trkpt lat="44.90603" lon="0.57521">
        <ele>131.2</ele>
        <time>2023-08-06T06:59:54Z</time>
      </trkpt>
      <trkpt lat="44.90615" lon="0.57531">
        <ele>131.3</ele>
        <time>2023-08-06T06:59:56Z</time>
      </trkpt>
      <trkpt lat="44.90625" lon="0.57541">
        <ele>131.1</ele>
        <time>2023-08-06T06:59:58Z</time>
      </trkpt>
      <trkpt lat="44.90632" lon="0.57549">
        <ele>130.9</ele>
        <time>2023-08-06T07:00:00Z</time>
      </trkpt>
      <trkpt lat="44.90639" lon="0.57558">
        <ele>130.6</ele>
        <time>2023-08-06T07:00:02Z</time>
      </trkpt>
      <trkpt lat="44.90642" lon="0.57562">
        <ele>130.4</ele>
        <time>2023-08-06T07:00:03Z</time>
      </trkpt>
      <trkpt lat="44.90645" lon="0.57566">
        <ele>130.3</ele>
        <time>2023-08-06T07:00:04Z</time>
      </trkpt>
      <trkpt lat="44.90653" lon="0.57574">
        <ele>130</ele>
        <time>2023-08-06T07:00:06Z</time>
      </trkpt>
      <trkpt lat="44.90656" lon="0.57579">
        <ele>129.9</ele>
        <time>2023-08-06T07:00:07Z</time>
      </trkpt>
      <trkpt lat="44.9066" lon="0.57583">
        <ele>129.8</ele>
        <time>2023-08-06T07:00:08Z</time>
      </trkpt>
      <trkpt lat="44.90663" lon="0.57587">
        <ele>129.7</ele>
        <time>2023-08-06T07:00:09Z</time>
      </trkpt>
      <trkpt lat="44.90667" lon="0.57592">
        <ele>129.6</ele>
        <time>2023-08-06T07:00:10Z</time>
      </trkpt>
      <trkpt lat="44.90674" lon="0.57603">
        <ele>129.3</ele>
        <time>2023-08-06T07:00:12Z</time>
      </trkpt>
      <trkpt lat="44.9068" lon="0.57612">
        <ele>129.3</ele>
        <time>2023-08-06T07:00:14Z</time>
      </trkpt>
      <trkpt lat="44.90686" lon="0.5762">
        <ele>129.3</ele>
        <time>2023-08-06T07:00:16Z</time>
      </trkpt>
      <trkpt lat="44.90691" lon="0.57627">
        <ele>129.4</ele>
        <time>2023-08-06T07:00:18Z</time>
      </trkpt>
      <trkpt lat="44.90696" lon="0.57631">
        <ele>129.6</ele>
        <time>2023-08-06T07:00:20Z</time>
      </trkpt>
      <trkpt lat="44.907" lon="0.57633">
        <ele>129.7</ele>
        <time>2023-08-06T07:00:22Z</time>
      </trkpt>
      <trkpt lat="44.90704" lon="0.57633">
        <ele>129.8</ele>
        <time>2023-08-06T07:00:24Z</time>
      </trkpt>
      <trkpt lat="44.90708" lon="0.57632">
        <ele>130</ele>
        <time>2023-08-06T07:00:26Z</time>
      </trkpt>
      <trkpt lat="44.90713" lon="0.57633">
        <ele>130.1</ele>
        <time>2023-08-06T07:00:28Z</time>
      </trkpt>
      <trkpt lat="44.90719" lon="0.57635">
        <ele>130.3</ele>
        <time>2023-08-06T07:00:30Z</time>
      </trkpt>
      <trkpt lat="44.90724" lon="0.57638">
        <ele>130.5</ele>
        <time>2023-08-06T07:00:32Z</time>
      </trkpt>
      <trkpt lat="44.90729" lon="0.57641">
        <ele>130.8</ele>
        <time>2023-08-06T07:00:34Z</time>
      </trkpt>
      <trkpt lat="44.90734" lon="0.57644">
        <ele>130.9</ele>
        <time>2023-08-06T07:00:36Z</time>
      </trkpt>
      <trkpt lat="44.90738" lon="0.57648">
        <ele>131.1</ele>
        <time>2023-08-06T07:00:38Z</time>
      </trkpt>
      <trkpt lat="44.9074" lon="0.57649">
        <ele>131.2</ele>
        <time>2023-08-06T07:00:39Z</time>
      </trkpt>
      <trkpt lat="44.90741" lon="0.57651">
        <ele>131.3</ele>
        <time>2023-08-06T07:00:40Z</time>
      </trkpt>
      <trkpt lat="44.90743" lon="0.57652">
        <ele>131.3</ele>
        <time>2023-08-06T07:00:42Z</time>
      </trkpt>
      <trkpt lat="44.90745" lon="0.5765">
        <ele>131.5</ele>
        <time>2023-08-06T07:00:44Z</time>
      </trkpt>
      <trkpt lat="44.90747" lon="0.57648">
        <ele>131.5</ele>
        <time>2023-08-06T07:00:46Z</time>
      </trkpt>
      <trkpt lat="44.90749" lon="0.57647">
        <ele>131.6</ele>
        <time>2023-08-06T07:00:47Z</time>
      </trkpt>
      <trkpt lat="44.9075" lon="0.57647">
        <ele>131.6</ele>
        <time>2023-08-06T07:00:48Z</time>
      </trkpt>
      <trkpt lat="44.90754" lon="0.57645">
        <ele>131.9</ele>
        <time>2023-08-06T07:00:50Z</time>
      </trkpt>
      <trkpt lat="44.90758" lon="0.57644">
        <ele>132</ele>
        <time>2023-08-06T07:00:52Z</time>
      </trkpt>
      <trkpt lat="44.9076" lon="0.57643">
        <ele>132.2</ele>
        <time>2023-08-06T07:00:53Z</time>
      </trkpt>
      <trkpt lat="44.90762" lon="0.57642">
        <ele>132.2</ele>
        <time>2023-08-06T07:00:54Z</time>
      </trkpt>
      <trkpt lat="44.90741" lon="0.57406">
        <ele>138.3</ele>
        <time>2023-08-06T07:00:56Z</time>
      </trkpt>
      <trkpt lat="44.9073" lon="0.57374">
        <ele>139.2</ele>
        <time>2023-08-06T07:00:57Z</time>
      </trkpt>
      <trkpt lat="44.90727" lon="0.57369">
        <ele>139.6</ele>
        <time>2023-08-06T07:00:58Z</time>
      </trkpt>
      <trkpt lat="44.90727" lon="0.57369">
        <ele>139.6</ele>
        <time>2023-08-06T07:01:00Z</time>
      </trkpt>
      <trkpt lat="44.90731" lon="0.57374">
        <ele>139.3</ele>
        <time>2023-08-06T07:01:02Z</time>
      </trkpt>
      <trkpt lat="44.90733" lon="0.57378">
        <ele>139.3</ele>
        <time>2023-08-06T07:01:03Z</time>
      </trkpt>
      <trkpt lat="44.90736" lon="0.57382">
        <ele>139.1</ele>
        <time>2023-08-06T07:01:04Z</time>
      </trkpt>
      <trkpt lat="44.90742" lon="0.57391">
        <ele>138.8</ele>
        <time>2023-08-06T07:01:06Z</time>
      </trkpt>
      <trkpt lat="44.90748" lon="0.57401">
        <ele>138.6</ele>
        <time>2023-08-06T07:01:08Z</time>
      </trkpt>
      <trkpt lat="44.90754" lon="0.5741">
        <ele>138.5</ele>
        <time>2023-08-06T07:01:10Z</time>
      </trkpt>
      <trkpt lat="44.9076" lon="0.57419">
        <ele>138.4</ele>
        <time>2023-08-06T07:01:12Z</time>
      </trkpt>
      <trkpt lat="44.90766" lon="0.57427">
        <ele>138.3</ele>
        <time>2023-08-06T07:01:14Z</time>
      </trkpt>
      <trkpt lat="44.90769" lon="0.57431">
        <ele>138.3</ele>
        <time>2023-08-06T07:01:15Z</time>
      </trkpt>
      <trkpt lat="44.90771" lon="0.57436">
        <ele>138.2</ele>
        <time>2023-08-06T07:01:16Z</time>
      </trkpt>
      <trkpt lat="44.90773" lon="0.57441">
        <ele>138.1</ele>
        <time>2023-08-06T07:01:17Z</time>
      </trkpt>
      <trkpt lat="44.90775" lon="0.57446">
        <ele>138.1</ele>
        <time>2023-08-06T07:01:18Z</time>
      </trkpt>
      <trkpt lat="44.90778" lon="0.57456">
        <ele>137.9</ele>
        <time>2023-08-06T07:01:20Z</time>
      </trkpt>
      <trkpt lat="44.90781" lon="0.57461">
        <ele>137.9</ele>
        <time>2023-08-06T07:01:21Z</time>
      </trkpt>
      <trkpt lat="44.90784" lon="0.57465">
        <ele>137.9</ele>
        <time>2023-08-06T07:01:22Z</time>
      </trkpt>
      <trkpt lat="44.90791" lon="0.57471">
        <ele>137.9</ele>
        <time>2023-08-06T07:01:24Z</time>
      </trkpt>
      <trkpt lat="44.90796" lon="0.57475">
        <ele>137.9</ele>
        <time>2023-08-06T07:01:26Z</time>
      </trkpt>
      <trkpt lat="44.90796" lon="0.57481">
        <ele>137.8</ele>
        <time>2023-08-06T07:01:28Z</time>
      </trkpt>
      <trkpt lat="44.90793" lon="0.57488">
        <ele>137.6</ele>
        <time>2023-08-06T07:01:30Z</time>
      </trkpt>
      <trkpt lat="44.90791" lon="0.57492">
        <ele>137.4</ele>
        <time>2023-08-06T07:01:31Z</time>
      </trkpt>
      <trkpt lat="44.90789" lon="0.57497">
        <ele>137.3</ele>
        <time>2023-08-06T07:01:32Z</time>
      </trkpt>
      <trkpt lat="44.90784" lon="0.57506">
        <ele>136.8</ele>
        <time>2023-08-06T07:01:34Z</time>
      </trkpt>
      <trkpt lat="44.90776" lon="0.57517">
        <ele>136.2</ele>
        <time>2023-08-06T07:01:36Z</time>
      </trkpt>
      <trkpt lat="44.90767" lon="0.5753">
        <ele>135.3</ele>
        <time>2023-08-06T07:01:38Z</time>
      </trkpt>
      <trkpt lat="44.90758" lon="0.57545">
        <ele>134.4</ele>
        <time>2023-08-06T07:01:40Z</time>
      </trkpt>
      <trkpt lat="44.90753" lon="0.57553">
        <ele>134</ele>
        <time>2023-08-06T07:01:41Z</time>
      </trkpt>
      <trkpt lat="44.90748" lon="0.5756">
        <ele>133.5</ele>
        <time>2023-08-06T07:01:42Z</time>
      </trkpt>
      <trkpt lat="44.90737" lon="0.57576">
        <ele>132.6</ele>
        <time>2023-08-06T07:01:44Z</time>
      </trkpt>
      <trkpt lat="44.90726" lon="0.57593">
        <ele>131.7</ele>
        <time>2023-08-06T07:01:46Z</time>
      </trkpt>
      <trkpt lat="44.90714" lon="0.57611">
        <ele>130.8</ele>
        <time>2023-08-06T07:01:48Z</time>
      </trkpt>
      <trkpt lat="44.90703" lon="0.57629">
        <ele>130</ele>
        <time>2023-08-06T07:01:50Z</time>
      </trkpt>
      <trkpt lat="44.90692" lon="0.57647">
        <ele>129.6</ele>
        <time>2023-08-06T07:01:52Z</time>
      </trkpt>
      <trkpt lat="44.9068" lon="0.57664">
        <ele>129.5</ele>
        <time>2023-08-06T07:01:54Z</time>
      </trkpt>
      <trkpt lat="44.90669" lon="0.57681">
        <ele>129.4</ele>
        <time>2023-08-06T07:01:56Z</time>
      </trkpt>
      <trkpt lat="44.90659" lon="0.57695">
        <ele>129.4</ele>
        <time>2023-08-06T07:01:58Z</time>
      </trkpt>
      <trkpt lat="44.9065" lon="0.57708">
        <ele>129.5</ele>
        <time>2023-08-06T07:02:00Z</time>
      </trkpt>
      <trkpt lat="44.90646" lon="0.57714">
        <ele>129.5</ele>
        <time>2023-08-06T07:02:01Z</time>
      </trkpt>
      <trkpt lat="44.90642" lon="0.57721">
        <ele>129.5</ele>
        <time>2023-08-06T07:02:02Z</time>
      </trkpt>
      <trkpt lat="44.90636" lon="0.57733">
        <ele>129.4</ele>
        <time>2023-08-06T07:02:04Z</time>
      </trkpt>
      <trkpt lat="44.9063" lon="0.57744">
        <ele>129.2</ele>
        <time>2023-08-06T07:02:06Z</time>
      </trkpt>
      <trkpt lat="44.90623" lon="0.57757">
        <ele>128.9</ele>
        <time>2023-08-06T07:02:08Z</time>
      </trkpt>
      <trkpt lat="44.90617" lon="0.57769">
        <ele>128.8</ele>
        <time>2023-08-06T07:02:10Z</time>
      </trkpt>
      <trkpt lat="44.90614" lon="0.57776">
        <ele>129.1</ele>
        <time>2023-08-06T07:02:11Z</time>
      </trkpt>
      <trkpt lat="44.90613" lon="0.57783">
        <ele>129.4</ele>
        <time>2023-08-06T07:02:12Z</time>
      </trkpt>
      <trkpt lat="44.90613" lon="0.57793">
        <ele>129.8</ele>
        <time>2023-08-06T07:02:14Z</time>
      </trkpt>
      <trkpt lat="44.90616" lon="0.57796">
        <ele>129.9</ele>
        <time>2023-08-06T07:02:16Z</time>
      </trkpt>
      <trkpt lat="44.90622" lon="0.57799">
        <ele>130.2</ele>
        <time>2023-08-06T07:02:18Z</time>
      </trkpt>
      <trkpt lat="44.90629" lon="0.57802">
        <ele>130.5</ele>
        <time>2023-08-06T07:02:20Z</time>
      </trkpt>
      <trkpt lat="44.90637" lon="0.57805">
        <ele>130.8</ele>
        <time>2023-08-06T07:02:22Z</time>
      </trkpt>
      <trkpt lat="44.90643" lon="0.57806">
        <ele>131</ele>
        <time>2023-08-06T07:02:24Z</time>
      </trkpt>
      <trkpt lat="44.9065" lon="0.57805">
        <ele>131.3</ele>
        <time>2023-08-06T07:02:26Z</time>
      </trkpt>
      <trkpt lat="44.90658" lon="0.57804">
        <ele>131.5</ele>
        <time>2023-08-06T07:02:28Z</time>
      </trkpt>
      <trkpt lat="44.90666" lon="0.57802">
        <ele>131.8</ele>
        <time>2023-08-06T07:02:30Z</time>
      </trkpt>
      <trkpt lat="44.90671" lon="0.57801">
        <ele>132</ele>
        <time>2023-08-06T07:02:31Z</time>
      </trkpt>
      <trkpt lat="44.90674" lon="0.57801">
        <ele>132.1</ele>
        <time>2023-08-06T07:02:32Z</time>
      </trkpt>
      <trkpt lat="44.90683" lon="0.57799">
        <ele>132.5</ele>
        <time>2023-08-06T07:02:34Z</time>
      </trkpt>
      <trkpt lat="44.90693" lon="0.57798">
        <ele>132.8</ele>
        <time>2023-08-06T07:02:36Z</time>
      </trkpt>
      <trkpt lat="44.90697" lon="0.57798">
        <ele>133</ele>
        <time>2023-08-06T07:02:37Z</time>
      </trkpt>
      <trkpt lat="44.90701" lon="0.57798">
        <ele>133.1</ele>
        <time>2023-08-06T07:02:38Z</time>
      </trkpt>
      <trkpt lat="44.90709" lon="0.57799">
        <ele>133.4</ele>
        <time>2023-08-06T07:02:40Z</time>
      </trkpt>
      <trkpt lat="44.90718" lon="0.57801">
        <ele>133.8</ele>
        <time>2023-08-06T07:02:42Z</time>
      </trkpt>
      <trkpt lat="44.90722" lon="0.57801">
        <ele>134</ele>
        <time>2023-08-06T07:02:43Z</time>
      </trkpt>
      <trkpt lat="44.90726" lon="0.57801">
        <ele>134.2</ele>
        <time>2023-08-06T07:02:44Z</time>
      </trkpt>
      <trkpt lat="44.90733" lon="0.57801">
        <ele>134.5</ele>
        <time>2023-08-06T07:02:46Z</time>
      </trkpt>
      <trkpt lat="44.90737" lon="0.57801">
        <ele>134.7</ele>
        <time>2023-08-06T07:02:47Z</time>
      </trkpt>
      <trkpt lat="44.9074" lon="0.57802">
        <ele>134.8</ele>
        <time>2023-08-06T07:02:48Z</time>
      </trkpt>
      <trkpt lat="44.90743" lon="0.57803">
        <ele>135</ele>
        <time>2023-08-06T07:02:49Z</time>
      </trkpt>
      <trkpt lat="44.90745" lon="0.57804">
        <ele>135.1</ele>
        <time>2023-08-06T07:02:50Z</time>
      </trkpt>
      <trkpt lat="44.90752" lon="0.57806">
        <ele>135.5</ele>
        <time>2023-08-06T07:02:52Z</time>
      </trkpt>
      <trkpt lat="44.90759" lon="0.57809">
        <ele>135.9</ele>
        <time>2023-08-06T07:02:54Z</time>
      </trkpt>
      <trkpt lat="44.90763" lon="0.5781">
        <ele>136.1</ele>
        <time>2023-08-06T07:02:55Z</time>
      </trkpt>
      <trkpt lat="44.90766" lon="0.57811">
        <ele>136.3</ele>
        <time>2023-08-06T07:02:56Z</time>
      </trkpt>
      <trkpt lat="44.90774" lon="0.57812">
        <ele>136.7</ele>
        <time>2023-08-06T07:02:58Z</time>
      </trkpt>
      <trkpt lat="44.90782" lon="0.57815">
        <ele>137</ele>
        <time>2023-08-06T07:03:00Z</time>
      </trkpt>
      <trkpt lat="44.90788" lon="0.57819">
        <ele>137.3</ele>
        <time>2023-08-06T07:03:02Z</time>
      </trkpt>
      <trkpt lat="44.90792" lon="0.57822">
        <ele>137.5</ele>
        <time>2023-08-06T07:03:04Z</time>
      </trkpt>
      <trkpt lat="44.90794" lon="0.57824">
        <ele>137.5</ele>
        <time>2023-08-06T07:03:05Z</time>
      </trkpt>
      <trkpt lat="44.90796" lon="0.57827">
        <ele>137.6</ele>
        <time>2023-08-06T07:03:06Z</time>
      </trkpt>
      <trkpt lat="44.90799" lon="0.57833">
        <ele>137.8</ele>
        <time>2023-08-06T07:03:08Z</time>
      </trkpt>
      <trkpt lat="44.90803" lon="0.5784">
        <ele>138</ele>
        <time>2023-08-06T07:03:10Z</time>
      </trkpt>
      <trkpt lat="44.90804" lon="0.57844">
        <ele>138.1</ele>
        <time>2023-08-06T07:03:11Z</time>
      </trkpt>
      <trkpt lat="44.90805" lon="0.57848">
        <ele>138.2</ele>
        <time>2023-08-06T07:03:12Z</time>
      </trkpt>
      <trkpt lat="44.90807" lon="0.57857">
        <ele>138.3</ele>
        <time>2023-08-06T07:03:14Z</time>
      </trkpt>
      <trkpt lat="44.90809" lon="0.57866">
        <ele>138.5</ele>
        <time>2023-08-06T07:03:16Z</time>
      </trkpt>
      <trkpt lat="44.90813" lon="0.57873">
        <ele>138.7</ele>
        <time>2023-08-06T07:03:18Z</time>
      </trkpt>
      <trkpt lat="44.90818" lon="0.57882">
        <ele>139</ele>
        <time>2023-08-06T07:03:20Z</time>
      </trkpt>
      <trkpt lat="44.9082" lon="0.57886">
        <ele>139.2</ele>
        <time>2023-08-06T07:03:21Z</time>
      </trkpt>
      <trkpt lat="44.90822" lon="0.57889">
        <ele>139.3</ele>
        <time>2023-08-06T07:03:22Z</time>
      </trkpt>
      <trkpt lat="44.90827" lon="0.57896">
        <ele>139.7</ele>
        <time>2023-08-06T07:03:24Z</time>
      </trkpt>
      <trkpt lat="44.9083" lon="0.57898">
        <ele>139.8</ele>
        <time>2023-08-06T07:03:25Z</time>
      </trkpt>
      <trkpt lat="44.90831" lon="0.57901">
        <ele>140</ele>
        <time>2023-08-06T07:03:26Z</time>
      </trkpt>
      <trkpt lat="44.90835" lon="0.57908">
        <ele>140.3</ele>
        <time>2023-08-06T07:03:28Z</time>
      </trkpt>
      <trkpt lat="44.90837" lon="0.57912">
        <ele>140.6</ele>
        <time>2023-08-06T07:03:29Z</time>
      </trkpt>
      <trkpt lat="44.90838" lon="0.57915">
        <ele>140.8</ele>
        <time>2023-08-06T07:03:30Z</time>
      </trkpt>
      <trkpt lat="44.90841" lon="0.57921">
        <ele>141.1</ele>
        <time>2023-08-06T07:03:32Z</time>
      </trkpt>
      <trkpt lat="44.90842" lon="0.57925">
        <ele>141.3</ele>
        <time>2023-08-06T07:03:33Z</time>
      </trkpt>
      <trkpt lat="44.90844" lon="0.57928">
        <ele>141.5</ele>
        <time>2023-08-06T07:03:34Z</time>
      </trkpt>
      <trkpt lat="44.90846" lon="0.57933">
        <ele>141.8</ele>
        <time>2023-08-06T07:03:36Z</time>
      </trkpt>
      <trkpt lat="44.90847" lon="0.57938">
        <ele>142.1</ele>
        <time>2023-08-06T07:03:37Z</time>
      </trkpt>
      <trkpt lat="44.90849" lon="0.57943">
        <ele>142.4</ele>
        <time>2023-08-06T07:03:38Z</time>
      </trkpt>
      <trkpt lat="44.90851" lon="0.57951">
        <ele>142.8</ele>
        <time>2023-08-06T07:03:40Z</time>
      </trkpt>
      <trkpt lat="44.90853" lon="0.57958">
        <ele>143.3</ele>
        <time>2023-08-06T07:03:42Z</time>
      </trkpt>
      <trkpt lat="44.90854" lon="0.57967">
        <ele>143.8</ele>
        <time>2023-08-06T07:03:44Z</time>
      </trkpt>
      <trkpt lat="44.90854" lon="0.5797">
        <ele>143.9</ele>
        <time>2023-08-06T07:03:45Z</time>
      </trkpt>
      <trkpt lat="44.90854" lon="0.57974">
        <ele>144.2</ele>
        <time>2023-08-06T07:03:46Z</time>
      </trkpt>
      <trkpt lat="44.90852" lon="0.57977">
        <ele>144.4</ele>
        <time>2023-08-06T07:03:48Z</time>
      </trkpt>
      <trkpt lat="44.9085" lon="0.57978">
        <ele>145.4</ele>
        <time>2023-08-06T07:03:49Z</time>
      </trkpt>
      <trkpt lat="44.90848" lon="0.57978">
        <ele>145.5</ele>
        <time>2023-08-06T07:03:50Z</time>
      </trkpt>
      <trkpt lat="44.90843" lon="0.5798">
        <ele>145.9</ele>
        <time>2023-08-06T07:03:52Z</time>
      </trkpt>
      <trkpt lat="44.90839" lon="0.57981">
        <ele>146.2</ele>
        <time>2023-08-06T07:03:54Z</time>
      </trkpt>
      <trkpt lat="44.90837" lon="0.5798">
        <ele>146.3</ele>
        <time>2023-08-06T07:03:55Z</time>
      </trkpt>
      <trkpt lat="44.90835" lon="0.5798">
        <ele>146.5</ele>
        <time>2023-08-06T07:03:56Z</time>
      </trkpt>
      <trkpt lat="44.90833" lon="0.5798">
        <ele>146.6</ele>
        <time>2023-08-06T07:03:57Z</time>
      </trkpt>
      <trkpt lat="44.90831" lon="0.57981">
        <ele>146.8</ele>
        <time>2023-08-06T07:03:58Z</time>
      </trkpt>
      <trkpt lat="44.90828" lon="0.5798">
        <ele>147.1</ele>
        <time>2023-08-06T07:04:00Z</time>
      </trkpt>
      <trkpt lat="44.90822" lon="0.5798">
        <ele>147.4</ele>
        <time>2023-08-06T07:04:02Z</time>
      </trkpt>
      <trkpt lat="44.90817" lon="0.57984">
        <ele>147.7</ele>
        <time>2023-08-06T07:04:04Z</time>
      </trkpt>
      <trkpt lat="44.90812" lon="0.57989">
        <ele>148</ele>
        <time>2023-08-06T07:04:06Z</time>
      </trkpt>
      <trkpt lat="44.90811" lon="0.57991">
        <ele>148.1</ele>
        <time>2023-08-06T07:04:07Z</time>
      </trkpt>
      <trkpt lat="44.90809" lon="0.57993">
        <ele>148.3</ele>
        <time>2023-08-06T07:04:08Z</time>
      </trkpt>
      <trkpt lat="44.90804" lon="0.57997">
        <ele>148.5</ele>
        <time>2023-08-06T07:04:10Z</time>
      </trkpt>
      <trkpt lat="44.908" lon="0.58002">
        <ele>148.7</ele>
        <time>2023-08-06T07:04:12Z</time>
      </trkpt>
      <trkpt lat="44.90795" lon="0.58008">
        <ele>149</ele>
        <time>2023-08-06T07:04:14Z</time>
      </trkpt>
      <trkpt lat="44.90791" lon="0.58015">
        <ele>149.2</ele>
        <time>2023-08-06T07:04:16Z</time>
      </trkpt>
      <trkpt lat="44.90787" lon="0.58021">
        <ele>149.4</ele>
        <time>2023-08-06T07:04:18Z</time>
      </trkpt>
      <trkpt lat="44.90782" lon="0.58029">
        <ele>149.6</ele>
        <time>2023-08-06T07:04:20Z</time>
      </trkpt>
      <trkpt lat="44.90777" lon="0.58036">
        <ele>149.7</ele>
        <time>2023-08-06T07:04:22Z</time>
      </trkpt>
      <trkpt lat="44.90772" lon="0.58045">
        <ele>149.9</ele>
        <time>2023-08-06T07:04:24Z</time>
      </trkpt>
      <trkpt lat="44.90769" lon="0.58055">
        <ele>150</ele>
        <time>2023-08-06T07:04:26Z</time>
      </trkpt>
      <trkpt lat="44.90764" lon="0.58067">
        <ele>149.7</ele>
        <time>2023-08-06T07:04:28Z</time>
      </trkpt>
      <trkpt lat="44.90759" lon="0.58078">
        <ele>149.2</ele>
        <time>2023-08-06T07:04:30Z</time>
      </trkpt>
      <trkpt lat="44.90752" lon="0.5809">
        <ele>148.5</ele>
        <time>2023-08-06T07:04:32Z</time>
      </trkpt>
      <trkpt lat="44.90745" lon="0.58105">
        <ele>147.7</ele>
        <time>2023-08-06T07:04:34Z</time>
      </trkpt>
      <trkpt lat="44.90741" lon="0.58112">
        <ele>147.4</ele>
        <time>2023-08-06T07:04:35Z</time>
      </trkpt>
      <trkpt lat="44.90737" lon="0.5812">
        <ele>147</ele>
        <time>2023-08-06T07:04:36Z</time>
      </trkpt>
      <trkpt lat="44.90733" lon="0.58127">
        <ele>146.6</ele>
        <time>2023-08-06T07:04:37Z</time>
      </trkpt>
      <trkpt lat="44.90727" lon="0.58133">
        <ele>146.2</ele>
        <time>2023-08-06T07:04:38Z</time>
      </trkpt>
      <trkpt lat="44.9072" lon="0.58137">
        <ele>145.6</ele>
        <time>2023-08-06T07:04:39Z</time>
      </trkpt>
      <trkpt lat="44.90712" lon="0.5814">
        <ele>145</ele>
        <time>2023-08-06T07:04:40Z</time>
      </trkpt>
      <trkpt lat="44.90705" lon="0.5814">
        <ele>144.4</ele>
        <time>2023-08-06T07:04:41Z</time>
      </trkpt>
      <trkpt lat="44.90698" lon="0.58142">
        <ele>143.9</ele>
        <time>2023-08-06T07:04:42Z</time>
      </trkpt>
      <trkpt lat="44.90692" lon="0.58147">
        <ele>143.3</ele>
        <time>2023-08-06T07:04:43Z</time>
      </trkpt>
      <trkpt lat="44.90686" lon="0.58153">
        <ele>142.7</ele>
        <time>2023-08-06T07:04:44Z</time>
      </trkpt>
      <trkpt lat="44.90681" lon="0.5816">
        <ele>142.1</ele>
        <time>2023-08-06T07:04:45Z</time>
      </trkpt>
      <trkpt lat="44.90675" lon="0.58166">
        <ele>141.4</ele>
        <time>2023-08-06T07:04:46Z</time>
      </trkpt>
      <trkpt lat="44.9067" lon="0.58172">
        <ele>140.8</ele>
        <time>2023-08-06T07:04:47Z</time>
      </trkpt>
      <trkpt lat="44.90666" lon="0.58179">
        <ele>140.3</ele>
        <time>2023-08-06T07:04:48Z</time>
      </trkpt>
      <trkpt lat="44.90662" lon="0.58187">
        <ele>139.7</ele>
        <time>2023-08-06T07:04:49Z</time>
      </trkpt>
      <trkpt lat="44.90659" lon="0.58195">
        <ele>139.1</ele>
        <time>2023-08-06T07:04:50Z</time>
      </trkpt>
      <trkpt lat="44.90656" lon="0.58204">
        <ele>138.4</ele>
        <time>2023-08-06T07:04:51Z</time>
      </trkpt>
      <trkpt lat="44.90651" lon="0.58213">
        <ele>137.6</ele>
        <time>2023-08-06T07:04:52Z</time>
      </trkpt>
      <trkpt lat="44.90646" lon="0.58221">
        <ele>136.8</ele>
        <time>2023-08-06T07:04:53Z</time>
      </trkpt>
      <trkpt lat="44.90641" lon="0.58229">
        <ele>136</ele>
        <time>2023-08-06T07:04:54Z</time>
      </trkpt>
      <trkpt lat="44.90637" lon="0.58238">
        <ele>135.1</ele>
        <time>2023-08-06T07:04:55Z</time>
      </trkpt>
      <trkpt lat="44.90633" lon="0.58248">
        <ele>134.3</ele>
        <time>2023-08-06T07:04:56Z</time>
      </trkpt>
      <trkpt lat="44.90629" lon="0.58256">
        <ele>133.5</ele>
        <time>2023-08-06T07:04:57Z</time>
      </trkpt>
      <trkpt lat="44.90624" lon="0.58264">
        <ele>132.9</ele>
        <time>2023-08-06T07:04:58Z</time>
      </trkpt>
      <trkpt lat="44.90619" lon="0.58272">
        <ele>132.1</ele>
        <time>2023-08-06T07:04:59Z</time>
      </trkpt>
      <trkpt lat="44.90615" lon="0.58282">
        <ele>131.2</ele>
        <time>2023-08-06T07:05:00Z</time>
      </trkpt>
      <trkpt lat="44.90611" lon="0.58293">
        <ele>130.3</ele>
        <time>2023-08-06T07:05:01Z</time>
      </trkpt>
      <trkpt lat="44.90608" lon="0.58304">
        <ele>129.5</ele>
        <time>2023-08-06T07:05:02Z</time>
      </trkpt>
      <trkpt lat="44.906" lon="0.58327">
        <ele>128.2</ele>
        <time>2023-08-06T07:05:04Z</time>
      </trkpt>
      <trkpt lat="44.90588" lon="0.58344">
        <ele>127.1</ele>
        <time>2023-08-06T07:05:06Z</time>
      </trkpt>
      <trkpt lat="44.90581" lon="0.58351">
        <ele>126.3</ele>
        <time>2023-08-06T07:05:07Z</time>
      </trkpt>
      <trkpt lat="44.90574" lon="0.58358">
        <ele>125.6</ele>
        <time>2023-08-06T07:05:08Z</time>
      </trkpt>
      <trkpt lat="44.90558" lon="0.58371">
        <ele>124.3</ele>
        <time>2023-08-06T07:05:10Z</time>
      </trkpt>
      <trkpt lat="44.9055" lon="0.58378">
        <ele>123.7</ele>
        <time>2023-08-06T07:05:11Z</time>
      </trkpt>
      <trkpt lat="44.90542" lon="0.58385">
        <ele>123.2</ele>
        <time>2023-08-06T07:05:12Z</time>
      </trkpt>
      <trkpt lat="44.90525" lon="0.58395">
        <ele>122.1</ele>
        <time>2023-08-06T07:05:14Z</time>
      </trkpt>
      <trkpt lat="44.90509" lon="0.58402">
        <ele>121.1</ele>
        <time>2023-08-06T07:05:16Z</time>
      </trkpt>
      <trkpt lat="44.90494" lon="0.58408">
        <ele>120.2</ele>
        <time>2023-08-06T07:05:18Z</time>
      </trkpt>
      <trkpt lat="44.9048" lon="0.58415">
        <ele>119.5</ele>
        <time>2023-08-06T07:05:20Z</time>
      </trkpt>
      <trkpt lat="44.90473" lon="0.58417">
        <ele>119.1</ele>
        <time>2023-08-06T07:05:21Z</time>
      </trkpt>
      <trkpt lat="44.90467" lon="0.58419">
        <ele>118.8</ele>
        <time>2023-08-06T07:05:22Z</time>
      </trkpt>
      <trkpt lat="44.90462" lon="0.58421">
        <ele>118.2</ele>
        <time>2023-08-06T07:05:23Z</time>
      </trkpt>
      <trkpt lat="44.90456" lon="0.58423">
        <ele>117.7</ele>
        <time>2023-08-06T07:05:24Z</time>
      </trkpt>
      <trkpt lat="44.90449" lon="0.58422">
        <ele>117.2</ele>
        <time>2023-08-06T07:05:25Z</time>
      </trkpt>
      <trkpt lat="44.90443" lon="0.58423">
        <ele>116.7</ele>
        <time>2023-08-06T07:05:26Z</time>
      </trkpt>
      <trkpt lat="44.90438" lon="0.58424">
        <ele>116.2</ele>
        <time>2023-08-06T07:05:27Z</time>
      </trkpt>
      <trkpt lat="44.90432" lon="0.58426">
        <ele>115.7</ele>
        <time>2023-08-06T07:05:28Z</time>
      </trkpt>
      <trkpt lat="44.90427" lon="0.58429">
        <ele>115</ele>
        <time>2023-08-06T07:05:29Z</time>
      </trkpt>
      <trkpt lat="44.90421" lon="0.58434">
        <ele>114.4</ele>
        <time>2023-08-06T07:05:30Z</time>
      </trkpt>
      <trkpt lat="44.90414" lon="0.58438">
        <ele>113.6</ele>
        <time>2023-08-06T07:05:31Z</time>
      </trkpt>
      <trkpt lat="44.90407" lon="0.5844">
        <ele>112.7</ele>
        <time>2023-08-06T07:05:32Z</time>
      </trkpt>
      <trkpt lat="44.90399" lon="0.58443">
        <ele>111.8</ele>
        <time>2023-08-06T07:05:33Z</time>
      </trkpt>
      <trkpt lat="44.90391" lon="0.58447">
        <ele>110.9</ele>
        <time>2023-08-06T07:05:34Z</time>
      </trkpt>
      <trkpt lat="44.90384" lon="0.58451">
        <ele>110</ele>
        <time>2023-08-06T07:05:35Z</time>
      </trkpt>
      <trkpt lat="44.90376" lon="0.58453">
        <ele>109.1</ele>
        <time>2023-08-06T07:05:36Z</time>
      </trkpt>
      <trkpt lat="44.90368" lon="0.58455">
        <ele>108.3</ele>
        <time>2023-08-06T07:05:37Z</time>
      </trkpt>
      <trkpt lat="44.9036" lon="0.58457">
        <ele>107.6</ele>
        <time>2023-08-06T07:05:38Z</time>
      </trkpt>
      <trkpt lat="44.90353" lon="0.58461">
        <ele>106.8</ele>
        <time>2023-08-06T07:05:39Z</time>
      </trkpt>
      <trkpt lat="44.90344" lon="0.58464">
        <ele>106.1</ele>
        <time>2023-08-06T07:05:40Z</time>
      </trkpt>
      <trkpt lat="44.90337" lon="0.58466">
        <ele>105.5</ele>
        <time>2023-08-06T07:05:41Z</time>
      </trkpt>
      <trkpt lat="44.90329" lon="0.5847">
        <ele>105</ele>
        <time>2023-08-06T07:05:42Z</time>
      </trkpt>
      <trkpt lat="44.90313" lon="0.58477">
        <ele>103.8</ele>
        <time>2023-08-06T07:05:44Z</time>
      </trkpt>
      <trkpt lat="44.90306" lon="0.58482">
        <ele>103.2</ele>
        <time>2023-08-06T07:05:45Z</time>
      </trkpt>
      <trkpt lat="44.90298" lon="0.58488">
        <ele>102.6</ele>
        <time>2023-08-06T07:05:46Z</time>
      </trkpt>
      <trkpt lat="44.90285" lon="0.585">
        <ele>101.4</ele>
        <time>2023-08-06T07:05:48Z</time>
      </trkpt>
      <trkpt lat="44.90272" lon="0.58511">
        <ele>100.3</ele>
        <time>2023-08-06T07:05:50Z</time>
      </trkpt>
      <trkpt lat="44.90265" lon="0.58518">
        <ele>99.8</ele>
        <time>2023-08-06T07:05:51Z</time>
      </trkpt>
      <trkpt lat="44.90258" lon="0.58525">
        <ele>99.5</ele>
        <time>2023-08-06T07:05:52Z</time>
      </trkpt>
      <trkpt lat="44.90252" lon="0.58532">
        <ele>99.1</ele>
        <time>2023-08-06T07:05:53Z</time>
      </trkpt>
      <trkpt lat="44.90246" lon="0.5854">
        <ele>98.8</ele>
        <time>2023-08-06T07:05:54Z</time>
      </trkpt>
      <trkpt lat="44.90236" lon="0.58555">
        <ele>98</ele>
        <time>2023-08-06T07:05:56Z</time>
      </trkpt>
      <trkpt lat="44.90225" lon="0.58571">
        <ele>96.8</ele>
        <time>2023-08-06T07:05:58Z</time>
      </trkpt>
      <trkpt lat="44.90221" lon="0.58577">
        <ele>96.2</ele>
        <time>2023-08-06T07:05:59Z</time>
      </trkpt>
      <trkpt lat="44.90215" lon="0.58583">
        <ele>95.6</ele>
        <time>2023-08-06T07:06:00Z</time>
      </trkpt>
      <trkpt lat="44.90199" lon="0.58597">
        <ele>94</ele>
        <time>2023-08-06T07:06:02Z</time>
      </trkpt>
      <trkpt lat="44.90182" lon="0.5861">
        <ele>92.7</ele>
        <time>2023-08-06T07:06:04Z</time>
      </trkpt>
      <trkpt lat="44.90164" lon="0.58619">
        <ele>91.6</ele>
        <time>2023-08-06T07:06:06Z</time>
      </trkpt>
      <trkpt lat="44.90155" lon="0.5862">
        <ele>91.3</ele>
        <time>2023-08-06T07:06:07Z</time>
      </trkpt>
      <trkpt lat="44.90146" lon="0.58621">
        <ele>91.1</ele>
        <time>2023-08-06T07:06:08Z</time>
      </trkpt>
      <trkpt lat="44.90128" lon="0.58625">
        <ele>90.8</ele>
        <time>2023-08-06T07:06:10Z</time>
      </trkpt>
      <trkpt lat="44.90113" lon="0.58628">
        <ele>90.7</ele>
        <time>2023-08-06T07:06:12Z</time>
      </trkpt>
      <trkpt lat="44.90099" lon="0.58631">
        <ele>90.6</ele>
        <time>2023-08-06T07:06:14Z</time>
      </trkpt>
      <trkpt lat="44.90094" lon="0.58631">
        <ele>90.6</ele>
        <time>2023-08-06T07:06:15Z</time>
      </trkpt>
      <trkpt lat="44.90088" lon="0.5863">
        <ele>90.6</ele>
        <time>2023-08-06T07:06:16Z</time>
      </trkpt>
      <trkpt lat="44.90083" lon="0.5863">
        <ele>90.6</ele>
        <time>2023-08-06T07:06:17Z</time>
      </trkpt>
      <trkpt lat="44.90077" lon="0.5863">
        <ele>90.5</ele>
        <time>2023-08-06T07:06:18Z</time>
      </trkpt>
      <trkpt lat="44.90071" lon="0.58631">
        <ele>90.4</ele>
        <time>2023-08-06T07:06:19Z</time>
      </trkpt>
      <trkpt lat="44.90064" lon="0.5863">
        <ele>90.3</ele>
        <time>2023-08-06T07:06:20Z</time>
      </trkpt>
      <trkpt lat="44.90057" lon="0.5863">
        <ele>90.1</ele>
        <time>2023-08-06T07:06:21Z</time>
      </trkpt>
      <trkpt lat="44.9005" lon="0.58628">
        <ele>89.9</ele>
        <time>2023-08-06T07:06:22Z</time>
      </trkpt>
      <trkpt lat="44.90043" lon="0.58629">
        <ele>89.6</ele>
        <time>2023-08-06T07:06:23Z</time>
      </trkpt>
      <trkpt lat="44.90038" lon="0.58629">
        <ele>89.1</ele>
        <time>2023-08-06T07:06:24Z</time>
      </trkpt>
      <trkpt lat="44.90033" lon="0.5863">
        <ele>88.6</ele>
        <time>2023-08-06T07:06:25Z</time>
      </trkpt>
      <trkpt lat="44.90028" lon="0.58632">
        <ele>88.1</ele>
        <time>2023-08-06T07:06:26Z</time>
      </trkpt>
      <trkpt lat="44.90023" lon="0.58635">
        <ele>87.5</ele>
        <time>2023-08-06T07:06:27Z</time>
      </trkpt>
      <trkpt lat="44.90017" lon="0.58641">
        <ele>86.7</ele>
        <time>2023-08-06T07:06:28Z</time>
      </trkpt>
      <trkpt lat="44.90011" lon="0.58649">
        <ele>85.8</ele>
        <time>2023-08-06T07:06:29Z</time>
      </trkpt>
      <trkpt lat="44.90006" lon="0.58659">
        <ele>85</ele>
        <time>2023-08-06T07:06:30Z</time>
      </trkpt>
      <trkpt lat="44.89998" lon="0.58681">
        <ele>83.8</ele>
        <time>2023-08-06T07:06:32Z</time>
      </trkpt>
      <trkpt lat="44.89992" lon="0.58706">
        <ele>82.9</ele>
        <time>2023-08-06T07:06:34Z</time>
      </trkpt>
      <trkpt lat="44.89985" lon="0.5873">
        <ele>82.2</ele>
        <time>2023-08-06T07:06:36Z</time>
      </trkpt>
      <trkpt lat="44.89978" lon="0.58753">
        <ele>81.5</ele>
        <time>2023-08-06T07:06:38Z</time>
      </trkpt>
      <trkpt lat="44.89975" lon="0.58764">
        <ele>81.2</ele>
        <time>2023-08-06T07:06:39Z</time>
      </trkpt>
      <trkpt lat="44.89971" lon="0.58774">
        <ele>80.8</ele>
        <time>2023-08-06T07:06:40Z</time>
      </trkpt>
      <trkpt lat="44.89966" lon="0.58784">
        <ele>80.4</ele>
        <time>2023-08-06T07:06:41Z</time>
      </trkpt>
      <trkpt lat="44.89961" lon="0.58793">
        <ele>80</ele>
        <time>2023-08-06T07:06:42Z</time>
      </trkpt>
      <trkpt lat="44.89946" lon="0.5881">
        <ele>79.2</ele>
        <time>2023-08-06T07:06:44Z</time>
      </trkpt>
      <trkpt lat="44.89937" lon="0.58817">
        <ele>78.7</ele>
        <time>2023-08-06T07:06:45Z</time>
      </trkpt>
      <trkpt lat="44.89929" lon="0.58823">
        <ele>78.2</ele>
        <time>2023-08-06T07:06:46Z</time>
      </trkpt>
      <trkpt lat="44.89911" lon="0.58833">
        <ele>77.4</ele>
        <time>2023-08-06T07:06:48Z</time>
      </trkpt>
      <trkpt lat="44.89895" lon="0.58844">
        <ele>76.5</ele>
        <time>2023-08-06T07:06:50Z</time>
      </trkpt>
      <trkpt lat="44.89879" lon="0.58854">
        <ele>75.6</ele>
        <time>2023-08-06T07:06:52Z</time>
      </trkpt>
      <trkpt lat="44.89863" lon="0.58864">
        <ele>74.7</ele>
        <time>2023-08-06T07:06:54Z</time>
      </trkpt>
      <trkpt lat="44.89854" lon="0.5887">
        <ele>74.3</ele>
        <time>2023-08-06T07:06:55Z</time>
      </trkpt>
      <trkpt lat="44.89846" lon="0.58875">
        <ele>73.8</ele>
        <time>2023-08-06T07:06:56Z</time>
      </trkpt>
      <trkpt lat="44.89829" lon="0.58886">
        <ele>73</ele>
        <time>2023-08-06T07:06:58Z</time>
      </trkpt>
      <trkpt lat="44.89813" lon="0.58898">
        <ele>72.2</ele>
        <time>2023-08-06T07:07:00Z</time>
      </trkpt>
      <trkpt lat="44.89797" lon="0.5891">
        <ele>71.4</ele>
        <time>2023-08-06T07:07:02Z</time>
      </trkpt>
      <trkpt lat="44.89782" lon="0.58921">
        <ele>70.4</ele>
        <time>2023-08-06T07:07:04Z</time>
      </trkpt>
      <trkpt lat="44.89766" lon="0.58932">
        <ele>69.4</ele>
        <time>2023-08-06T07:07:06Z</time>
      </trkpt>
      <trkpt lat="44.89751" lon="0.58944">
        <ele>68.5</ele>
        <time>2023-08-06T07:07:08Z</time>
      </trkpt>
      <trkpt lat="44.89743" lon="0.58949">
        <ele>68</ele>
        <time>2023-08-06T07:07:09Z</time>
      </trkpt>
      <trkpt lat="44.89735" lon="0.58954">
        <ele>67.5</ele>
        <time>2023-08-06T07:07:10Z</time>
      </trkpt>
      <trkpt lat="44.89718" lon="0.58965">
        <ele>66.7</ele>
        <time>2023-08-06T07:07:12Z</time>
      </trkpt>
      <trkpt lat="44.89702" lon="0.58976">
        <ele>66.1</ele>
        <time>2023-08-06T07:07:14Z</time>
      </trkpt>
      <trkpt lat="44.89694" lon="0.58984">
        <ele>65.9</ele>
        <time>2023-08-06T07:07:15Z</time>
      </trkpt>
      <trkpt lat="44.89688" lon="0.58994">
        <ele>65.7</ele>
        <time>2023-08-06T07:07:16Z</time>
      </trkpt>
      <trkpt lat="44.89683" lon="0.59005">
        <ele>65.5</ele>
        <time>2023-08-06T07:07:17Z</time>
      </trkpt>
      <trkpt lat="44.8968" lon="0.59017">
        <ele>65.2</ele>
        <time>2023-08-06T07:07:18Z</time>
      </trkpt>
      <trkpt lat="44.89675" lon="0.59041">
        <ele>64.6</ele>
        <time>2023-08-06T07:07:20Z</time>
      </trkpt>
      <trkpt lat="44.89671" lon="0.59064">
        <ele>64.2</ele>
        <time>2023-08-06T07:07:22Z</time>
      </trkpt>
      <trkpt lat="44.89666" lon="0.59086">
        <ele>64.1</ele>
        <time>2023-08-06T07:07:24Z</time>
      </trkpt>
      <trkpt lat="44.89664" lon="0.59097">
        <ele>64.2</ele>
        <time>2023-08-06T07:07:25Z</time>
      </trkpt>
      <trkpt lat="44.89662" lon="0.59107">
        <ele>64.4</ele>
        <time>2023-08-06T07:07:26Z</time>
      </trkpt>
      <trkpt lat="44.89657" lon="0.59127">
        <ele>64.8</ele>
        <time>2023-08-06T07:07:28Z</time>
      </trkpt>
      <trkpt lat="44.89653" lon="0.59143">
        <ele>64.6</ele>
        <time>2023-08-06T07:07:30Z</time>
      </trkpt>
      <trkpt lat="44.89647" lon="0.5916">
        <ele>64.4</ele>
        <time>2023-08-06T07:07:32Z</time>
      </trkpt>
      <trkpt lat="44.89641" lon="0.5918">
        <ele>64.1</ele>
        <time>2023-08-06T07:07:34Z</time>
      </trkpt>
      <trkpt lat="44.89637" lon="0.5919">
        <ele>63.9</ele>
        <time>2023-08-06T07:07:35Z</time>
      </trkpt>
      <trkpt lat="44.89632" lon="0.59199">
        <ele>63.7</ele>
        <time>2023-08-06T07:07:36Z</time>
      </trkpt>
      <trkpt lat="44.89627" lon="0.59207">
        <ele>63.6</ele>
        <time>2023-08-06T07:07:37Z</time>
      </trkpt>
      <trkpt lat="44.89622" lon="0.59215">
        <ele>63.5</ele>
        <time>2023-08-06T07:07:38Z</time>
      </trkpt>
      <trkpt lat="44.89612" lon="0.59232">
        <ele>63.5</ele>
        <time>2023-08-06T07:07:40Z</time>
      </trkpt>
      <trkpt lat="44.89603" lon="0.59248">
        <ele>63.5</ele>
        <time>2023-08-06T07:07:42Z</time>
      </trkpt>
      <trkpt lat="44.89596" lon="0.59262">
        <ele>63.6</ele>
        <time>2023-08-06T07:07:44Z</time>
      </trkpt>
      <trkpt lat="44.89588" lon="0.59276">
        <ele>63.7</ele>
        <time>2023-08-06T07:07:46Z</time>
      </trkpt>
      <trkpt lat="44.89585" lon="0.59282">
        <ele>63.8</ele>
        <time>2023-08-06T07:07:47Z</time>
      </trkpt>
      <trkpt lat="44.89581" lon="0.59288">
        <ele>63.9</ele>
        <time>2023-08-06T07:07:48Z</time>
      </trkpt>
      <trkpt lat="44.89574" lon="0.59299">
        <ele>64.1</ele>
        <time>2023-08-06T07:07:50Z</time>
      </trkpt>
      <trkpt lat="44.89573" lon="0.59305">
        <ele>64.4</ele>
        <time>2023-08-06T07:07:51Z</time>
      </trkpt>
      <trkpt lat="44.89574" lon="0.59312">
        <ele>64.7</ele>
        <time>2023-08-06T07:07:52Z</time>
      </trkpt>
      <trkpt lat="44.89577" lon="0.59323">
        <ele>65.3</ele>
        <time>2023-08-06T07:07:54Z</time>
      </trkpt>
      <trkpt lat="44.89582" lon="0.59333">
        <ele>65.9</ele>
        <time>2023-08-06T07:07:56Z</time>
      </trkpt>
      <trkpt lat="44.89585" lon="0.59343">
        <ele>66.5</ele>
        <time>2023-08-06T07:07:58Z</time>
      </trkpt>
      <trkpt lat="44.8959" lon="0.59353">
        <ele>66.8</ele>
        <time>2023-08-06T07:08:00Z</time>
      </trkpt>
      <trkpt lat="44.89592" lon="0.59358">
        <ele>66.7</ele>
        <time>2023-08-06T07:08:01Z</time>
      </trkpt>
      <trkpt lat="44.89594" lon="0.59364">
        <ele>66.7</ele>
        <time>2023-08-06T07:08:02Z</time>
      </trkpt>
      <trkpt lat="44.89599" lon="0.59373">
        <ele>66.5</ele>
        <time>2023-08-06T07:08:04Z</time>
      </trkpt>
      <trkpt lat="44.89599" lon="0.59383">
        <ele>66.3</ele>
        <time>2023-08-06T07:08:06Z</time>
      </trkpt>
      <trkpt lat="44.89597" lon="0.59386">
        <ele>66.2</ele>
        <time>2023-08-06T07:08:07Z</time>
      </trkpt>
      <trkpt lat="44.89594" lon="0.59388">
        <ele>66.2</ele>
        <time>2023-08-06T07:08:08Z</time>
      </trkpt>
      <trkpt lat="44.89591" lon="0.5939">
        <ele>66.1</ele>
        <time>2023-08-06T07:08:09Z</time>
      </trkpt>
      <trkpt lat="44.89587" lon="0.59392">
        <ele>66</ele>
        <time>2023-08-06T07:08:10Z</time>
      </trkpt>
      <trkpt lat="44.8958" lon="0.59396">
        <ele>65.8</ele>
        <time>2023-08-06T07:08:12Z</time>
      </trkpt>
      <trkpt lat="44.89573" lon="0.59399">
        <ele>65.6</ele>
        <time>2023-08-06T07:08:14Z</time>
      </trkpt>
      <trkpt lat="44.89566" lon="0.59403">
        <ele>65.5</ele>
        <time>2023-08-06T07:08:16Z</time>
      </trkpt>
      <trkpt lat="44.89564" lon="0.59405">
        <ele>65.4</ele>
        <time>2023-08-06T07:08:17Z</time>
      </trkpt>
      <trkpt lat="44.89564" lon="0.59408">
        <ele>65.5</ele>
        <time>2023-08-06T07:08:18Z</time>
      </trkpt>
      <trkpt lat="44.89564" lon="0.59411">
        <ele>65.6</ele>
        <time>2023-08-06T07:08:19Z</time>
      </trkpt>
      <trkpt lat="44.89564" lon="0.59415">
        <ele>65.7</ele>
        <time>2023-08-06T07:08:20Z</time>
      </trkpt>
      <trkpt lat="44.89566" lon="0.59422">
        <ele>65.9</ele>
        <time>2023-08-06T07:08:22Z</time>
      </trkpt>
      <trkpt lat="44.89568" lon="0.59431">
        <ele>66.1</ele>
        <time>2023-08-06T07:08:24Z</time>
      </trkpt>
      <trkpt lat="44.8957" lon="0.59439">
        <ele>66.4</ele>
        <time>2023-08-06T07:08:26Z</time>
      </trkpt>
      <trkpt lat="44.89573" lon="0.59446">
        <ele>66.6</ele>
        <time>2023-08-06T07:08:28Z</time>
      </trkpt>
      <trkpt lat="44.89575" lon="0.59454">
        <ele>66.9</ele>
        <time>2023-08-06T07:08:30Z</time>
      </trkpt>
      <trkpt lat="44.89577" lon="0.59462">
        <ele>67.1</ele>
        <time>2023-08-06T07:08:32Z</time>
      </trkpt>
      <trkpt lat="44.89578" lon="0.5947">
        <ele>67.3</ele>
        <time>2023-08-06T07:08:34Z</time>
      </trkpt>
      <trkpt lat="44.89579" lon="0.59473">
        <ele>67.4</ele>
        <time>2023-08-06T07:08:35Z</time>
      </trkpt>
      <trkpt lat="44.8958" lon="0.59477">
        <ele>67.6</ele>
        <time>2023-08-06T07:08:36Z</time>
      </trkpt>
      <trkpt lat="44.89583" lon="0.59485">
        <ele>67.8</ele>
        <time>2023-08-06T07:08:38Z</time>
      </trkpt>
      <trkpt lat="44.89587" lon="0.59492">
        <ele>68</ele>
        <time>2023-08-06T07:08:40Z</time>
      </trkpt>
      <trkpt lat="44.89588" lon="0.59496">
        <ele>68.1</ele>
        <time>2023-08-06T07:08:41Z</time>
      </trkpt>
      <trkpt lat="44.89589" lon="0.59501">
        <ele>68.2</ele>
        <time>2023-08-06T07:08:42Z</time>
      </trkpt>
      <trkpt lat="44.89593" lon="0.59509">
        <ele>68.4</ele>
        <time>2023-08-06T07:08:44Z</time>
      </trkpt>
      <trkpt lat="44.89595" lon="0.59513">
        <ele>68.5</ele>
        <time>2023-08-06T07:08:45Z</time>
      </trkpt>
      <trkpt lat="44.89596" lon="0.59517">
        <ele>68.6</ele>
        <time>2023-08-06T07:08:46Z</time>
      </trkpt>
      <trkpt lat="44.89598" lon="0.59521">
        <ele>68.7</ele>
        <time>2023-08-06T07:08:47Z</time>
      </trkpt>
      <trkpt lat="44.896" lon="0.59525">
        <ele>68.8</ele>
        <time>2023-08-06T07:08:48Z</time>
      </trkpt>
      <trkpt lat="44.89601" lon="0.59529">
        <ele>68.9</ele>
        <time>2023-08-06T07:08:49Z</time>
      </trkpt>
      <trkpt lat="44.89602" lon="0.59533">
        <ele>68.9</ele>
        <time>2023-08-06T07:08:50Z</time>
      </trkpt>
      <trkpt lat="44.89604" lon="0.59537">
        <ele>69</ele>
        <time>2023-08-06T07:08:51Z</time>
      </trkpt>
      <trkpt lat="44.89605" lon="0.59541">
        <ele>69.1</ele>
        <time>2023-08-06T07:08:52Z</time>
      </trkpt>
      <trkpt lat="44.89609" lon="0.59548">
        <ele>69.2</ele>
        <time>2023-08-06T07:08:54Z</time>
      </trkpt>
      <trkpt lat="44.89611" lon="0.59552">
        <ele>69.3</ele>
        <time>2023-08-06T07:08:55Z</time>
      </trkpt>
      <trkpt lat="44.89613" lon="0.59556">
        <ele>69.4</ele>
        <time>2023-08-06T07:08:56Z</time>
      </trkpt>
      <trkpt lat="44.89615" lon="0.59564">
        <ele>69.5</ele>
        <time>2023-08-06T07:08:58Z</time>
      </trkpt>
      <trkpt lat="44.89618" lon="0.59573">
        <ele>69.7</ele>
        <time>2023-08-06T07:09:00Z</time>
      </trkpt>
      <trkpt lat="44.89619" lon="0.59577">
        <ele>69.7</ele>
        <time>2023-08-06T07:09:01Z</time>
      </trkpt>
      <trkpt lat="44.89621" lon="0.59582">
        <ele>69.8</ele>
        <time>2023-08-06T07:09:02Z</time>
      </trkpt>
      <trkpt lat="44.89624" lon="0.5959">
        <ele>69.9</ele>
        <time>2023-08-06T07:09:04Z</time>
      </trkpt>
      <trkpt lat="44.89625" lon="0.59595">
        <ele>70</ele>
        <time>2023-08-06T07:09:05Z</time>
      </trkpt>
      <trkpt lat="44.89627" lon="0.59599">
        <ele>70.1</ele>
        <time>2023-08-06T07:09:06Z</time>
      </trkpt>
      <trkpt lat="44.89629" lon="0.59608">
        <ele>70.1</ele>
        <time>2023-08-06T07:09:08Z</time>
      </trkpt>
      <trkpt lat="44.8963" lon="0.59612">
        <ele>70.3</ele>
        <time>2023-08-06T07:09:09Z</time>
      </trkpt>
      <trkpt lat="44.89632" lon="0.59616">
        <ele>70.5</ele>
        <time>2023-08-06T07:09:10Z</time>
      </trkpt>
      <trkpt lat="44.89634" lon="0.5962">
        <ele>70.6</ele>
        <time>2023-08-06T07:09:11Z</time>
      </trkpt>
      <trkpt lat="44.89635" lon="0.59624">
        <ele>70.7</ele>
        <time>2023-08-06T07:09:12Z</time>
      </trkpt>
      <trkpt lat="44.89637" lon="0.59627">
        <ele>70.8</ele>
        <time>2023-08-06T07:09:13Z</time>
      </trkpt>
      <trkpt lat="44.89638" lon="0.5963">
        <ele>70.9</ele>
        <time>2023-08-06T07:09:14Z</time>
      </trkpt>
      <trkpt lat="44.8964" lon="0.59633">
        <ele>71.1</ele>
        <time>2023-08-06T07:09:15Z</time>
      </trkpt>
      <trkpt lat="44.89641" lon="0.59636">
        <ele>71.2</ele>
        <time>2023-08-06T07:09:16Z</time>
      </trkpt>
      <trkpt lat="44.89643" lon="0.5964">
        <ele>71.4</ele>
        <time>2023-08-06T07:09:18Z</time>
      </trkpt>
      <trkpt lat="44.89645" lon="0.59645">
        <ele>71.7</ele>
        <time>2023-08-06T07:09:20Z</time>
      </trkpt>
      <trkpt lat="44.89648" lon="0.5965">
        <ele>72</ele>
        <time>2023-08-06T07:09:22Z</time>
      </trkpt>
      <trkpt lat="44.89649" lon="0.59657">
        <ele>72.3</ele>
        <time>2023-08-06T07:09:24Z</time>
      </trkpt>
      <trkpt lat="44.89651" lon="0.59663">
        <ele>72.6</ele>
        <time>2023-08-06T07:09:26Z</time>
      </trkpt>
      <trkpt lat="44.89654" lon="0.59668">
        <ele>73</ele>
        <time>2023-08-06T07:09:28Z</time>
      </trkpt>
      <trkpt lat="44.89657" lon="0.59673">
        <ele>73.3</ele>
        <time>2023-08-06T07:09:30Z</time>
      </trkpt>
      <trkpt lat="44.89659" lon="0.59676">
        <ele>73.6</ele>
        <time>2023-08-06T07:09:32Z</time>
      </trkpt>
      <trkpt lat="44.89662" lon="0.59681">
        <ele>74</ele>
        <time>2023-08-06T07:09:34Z</time>
      </trkpt>
      <trkpt lat="44.89663" lon="0.59684">
        <ele>74.2</ele>
        <time>2023-08-06T07:09:35Z</time>
      </trkpt>
      <trkpt lat="44.89664" lon="0.59686">
        <ele>74.3</ele>
        <time>2023-08-06T07:09:36Z</time>
      </trkpt>
      <trkpt lat="44.89666" lon="0.5969">
        <ele>74.6</ele>
        <time>2023-08-06T07:09:38Z</time>
      </trkpt>
      <trkpt lat="44.89668" lon="0.59695">
        <ele>74.9</ele>
        <time>2023-08-06T07:09:40Z</time>
      </trkpt>
      <trkpt lat="44.89671" lon="0.597">
        <ele>75.2</ele>
        <time>2023-08-06T07:09:42Z</time>
      </trkpt>
      <trkpt lat="44.89673" lon="0.59705">
        <ele>75.5</ele>
        <time>2023-08-06T07:09:44Z</time>
      </trkpt>
      <trkpt lat="44.89674" lon="0.59711">
        <ele>75.8</ele>
        <time>2023-08-06T07:09:46Z</time>
      </trkpt>
      <trkpt lat="44.89675" lon="0.59717">
        <ele>76.1</ele>
        <time>2023-08-06T07:09:48Z</time>
      </trkpt>
      <trkpt lat="44.89678" lon="0.59721">
        <ele>76.4</ele>
        <time>2023-08-06T07:09:50Z</time>
      </trkpt>
      <trkpt lat="44.8968" lon="0.59723">
        <ele>76.6</ele>
        <time>2023-08-06T07:09:51Z</time>
      </trkpt>
      <trkpt lat="44.89682" lon="0.59726">
        <ele>76.8</ele>
        <time>2023-08-06T07:09:52Z</time>
      </trkpt>
      <trkpt lat="44.89685" lon="0.59729">
        <ele>77.1</ele>
        <time>2023-08-06T07:09:54Z</time>
      </trkpt>
      <trkpt lat="44.89688" lon="0.59733">
        <ele>77.3</ele>
        <time>2023-08-06T07:09:56Z</time>
      </trkpt>
      <trkpt lat="44.89689" lon="0.59738">
        <ele>77.6</ele>
        <time>2023-08-06T07:09:58Z</time>
      </trkpt>
      <trkpt lat="44.89691" lon="0.59742">
        <ele>77.9</ele>
        <time>2023-08-06T07:10:00Z</time>
      </trkpt>
      <trkpt lat="44.89694" lon="0.59747">
        <ele>78.2</ele>
        <time>2023-08-06T07:10:02Z</time>
      </trkpt>
      <trkpt lat="44.89696" lon="0.59753">
        <ele>78.5</ele>
        <time>2023-08-06T07:10:04Z</time>
      </trkpt>
      <trkpt lat="44.89699" lon="0.59757">
        <ele>78.7</ele>
        <time>2023-08-06T07:10:06Z</time>
      </trkpt>
      <trkpt lat="44.897" lon="0.59762">
        <ele>79</ele>
        <time>2023-08-06T07:10:08Z</time>
      </trkpt>
      <trkpt lat="44.89702" lon="0.59767">
        <ele>79.2</ele>
        <time>2023-08-06T07:10:10Z</time>
      </trkpt>
      <trkpt lat="44.89701" lon="0.59776">
        <ele>79.6</ele>
        <time>2023-08-06T07:10:12Z</time>
      </trkpt>
      <trkpt lat="44.897" lon="0.59784">
        <ele>80</ele>
        <time>2023-08-06T07:10:14Z</time>
      </trkpt>
      <trkpt lat="44.89699" lon="0.59792">
        <ele>80.2</ele>
        <time>2023-08-06T07:10:16Z</time>
      </trkpt>
      <trkpt lat="44.89699" lon="0.59799">
        <ele>80.5</ele>
        <time>2023-08-06T07:10:18Z</time>
      </trkpt>
      <trkpt lat="44.897" lon="0.59805">
        <ele>80.7</ele>
        <time>2023-08-06T07:10:20Z</time>
      </trkpt>
      <trkpt lat="44.89703" lon="0.5981">
        <ele>80.9</ele>
        <time>2023-08-06T07:10:22Z</time>
      </trkpt>
      <trkpt lat="44.89706" lon="0.59815">
        <ele>81.1</ele>
        <time>2023-08-06T07:10:24Z</time>
      </trkpt>
      <trkpt lat="44.89708" lon="0.59819">
        <ele>81.3</ele>
        <time>2023-08-06T07:10:26Z</time>
      </trkpt>
      <trkpt lat="44.89709" lon="0.59823">
        <ele>81.4</ele>
        <time>2023-08-06T07:10:28Z</time>
      </trkpt>
      <trkpt lat="44.8971" lon="0.59825">
        <ele>81.5</ele>
        <time>2023-08-06T07:10:29Z</time>
      </trkpt>
      <trkpt lat="44.89711" lon="0.59826">
        <ele>81.6</ele>
        <time>2023-08-06T07:10:30Z</time>
      </trkpt>
      <trkpt lat="44.89713" lon="0.59829">
        <ele>81.7</ele>
        <time>2023-08-06T07:10:32Z</time>
      </trkpt>
      <trkpt lat="44.89714" lon="0.59831">
        <ele>81.8</ele>
        <time>2023-08-06T07:10:33Z</time>
      </trkpt>
      <trkpt lat="44.89716" lon="0.59833">
        <ele>81.9</ele>
        <time>2023-08-06T07:10:34Z</time>
      </trkpt>
      <trkpt lat="44.8972" lon="0.59838">
        <ele>82.2</ele>
        <time>2023-08-06T07:10:36Z</time>
      </trkpt>
      <trkpt lat="44.89721" lon="0.59842">
        <ele>82.4</ele>
        <time>2023-08-06T07:10:38Z</time>
      </trkpt>
      <trkpt lat="44.89722" lon="0.59845">
        <ele>82.5</ele>
        <time>2023-08-06T07:10:39Z</time>
      </trkpt>
      <trkpt lat="44.89723" lon="0.59848">
        <ele>82.6</ele>
        <time>2023-08-06T07:10:40Z</time>
      </trkpt>
      <trkpt lat="44.89724" lon="0.59855">
        <ele>82.8</ele>
        <time>2023-08-06T07:10:42Z</time>
      </trkpt>
      <trkpt lat="44.89725" lon="0.59863">
        <ele>83</ele>
        <time>2023-08-06T07:10:44Z</time>
      </trkpt>
      <trkpt lat="44.89725" lon="0.59871">
        <ele>83.3</ele>
        <time>2023-08-06T07:10:46Z</time>
      </trkpt>
      <trkpt lat="44.89728" lon="0.59879">
        <ele>83.5</ele>
        <time>2023-08-06T07:10:48Z</time>
      </trkpt>
      <trkpt lat="44.89732" lon="0.59886">
        <ele>83.7</ele>
        <time>2023-08-06T07:10:50Z</time>
      </trkpt>
      <trkpt lat="44.89736" lon="0.59892">
        <ele>83.9</ele>
        <time>2023-08-06T07:10:52Z</time>
      </trkpt>
      <trkpt lat="44.89739" lon="0.59897">
        <ele>84.1</ele>
        <time>2023-08-06T07:10:54Z</time>
      </trkpt>
      <trkpt lat="44.89742" lon="0.59904">
        <ele>84.3</ele>
        <time>2023-08-06T07:10:56Z</time>
      </trkpt>
      <trkpt lat="44.89744" lon="0.59911">
        <ele>84.6</ele>
        <time>2023-08-06T07:10:58Z</time>
      </trkpt>
      <trkpt lat="44.89745" lon="0.59913">
        <ele>84.7</ele>
        <time>2023-08-06T07:10:59Z</time>
      </trkpt>
      <trkpt lat="44.89747" lon="0.59915">
        <ele>84.8</ele>
        <time>2023-08-06T07:11:00Z</time>
      </trkpt>
      <trkpt lat="44.89748" lon="0.5992">
        <ele>84.9</ele>
        <time>2023-08-06T07:11:02Z</time>
      </trkpt>
      <trkpt lat="44.8975" lon="0.59924">
        <ele>85.1</ele>
        <time>2023-08-06T07:11:04Z</time>
      </trkpt>
      <trkpt lat="44.89751" lon="0.59927">
        <ele>85.3</ele>
        <time>2023-08-06T07:11:06Z</time>
      </trkpt>
      <trkpt lat="44.89754" lon="0.59933">
        <ele>85.5</ele>
        <time>2023-08-06T07:11:08Z</time>
      </trkpt>
      <trkpt lat="44.89755" lon="0.5994">
        <ele>85.9</ele>
        <time>2023-08-06T07:11:10Z</time>
      </trkpt>
      <trkpt lat="44.89757" lon="0.59947">
        <ele>86.3</ele>
        <time>2023-08-06T07:11:12Z</time>
      </trkpt>
      <trkpt lat="44.89758" lon="0.59951">
        <ele>86.5</ele>
        <time>2023-08-06T07:11:14Z</time>
      </trkpt>
      <trkpt lat="44.89758" lon="0.59957">
        <ele>86.8</ele>
        <time>2023-08-06T07:11:16Z</time>
      </trkpt>
      <trkpt lat="44.89759" lon="0.59962">
        <ele>87.2</ele>
        <time>2023-08-06T07:11:18Z</time>
      </trkpt>
      <trkpt lat="44.89759" lon="0.59969">
        <ele>87.5</ele>
        <time>2023-08-06T07:11:20Z</time>
      </trkpt>
      <trkpt lat="44.89758" lon="0.59973">
        <ele>87.8</ele>
        <time>2023-08-06T07:11:22Z</time>
      </trkpt>
      <trkpt lat="44.89758" lon="0.59974">
        <ele>87.9</ele>
        <time>2023-08-06T07:11:23Z</time>
      </trkpt>
      <trkpt lat="44.89758" lon="0.59976">
        <ele>88</ele>
        <time>2023-08-06T07:11:24Z</time>
      </trkpt>
      <trkpt lat="44.89758" lon="0.5998">
        <ele>88.2</ele>
        <time>2023-08-06T07:11:26Z</time>
      </trkpt>
      <trkpt lat="44.89757" lon="0.59983">
        <ele>88.4</ele>
        <time>2023-08-06T07:11:27Z</time>
      </trkpt>
      <trkpt lat="44.89757" lon="0.59985">
        <ele>88.5</ele>
        <time>2023-08-06T07:11:28Z</time>
      </trkpt>
      <trkpt lat="44.89756" lon="0.59989">
        <ele>88.8</ele>
        <time>2023-08-06T07:11:30Z</time>
      </trkpt>
      <trkpt lat="44.89755" lon="0.59993">
        <ele>89</ele>
        <time>2023-08-06T07:11:31Z</time>
      </trkpt>
      <trkpt lat="44.89754" lon="0.59996">
        <ele>89.2</ele>
        <time>2023-08-06T07:11:32Z</time>
      </trkpt>
      <trkpt lat="44.89752" lon="0.60002">
        <ele>89.5</ele>
        <time>2023-08-06T07:11:34Z</time>
      </trkpt>
      <trkpt lat="44.8975" lon="0.60011">
        <ele>89.9</ele>
        <time>2023-08-06T07:11:36Z</time>
      </trkpt>
      <trkpt lat="44.89749" lon="0.60022">
        <ele>90.3</ele>
        <time>2023-08-06T07:11:38Z</time>
      </trkpt>
      <trkpt lat="44.89747" lon="0.60036">
        <ele>90.6</ele>
        <time>2023-08-06T07:11:40Z</time>
      </trkpt>
      <trkpt lat="44.89744" lon="0.60047">
        <ele>90.8</ele>
        <time>2023-08-06T07:11:42Z</time>
      </trkpt>
      <trkpt lat="44.89742" lon="0.60056">
        <ele>91</ele>
        <time>2023-08-06T07:11:44Z</time>
      </trkpt>
      <trkpt lat="44.89741" lon="0.60065">
        <ele>91</ele>
        <time>2023-08-06T07:11:46Z</time>
      </trkpt>
      <trkpt lat="44.89739" lon="0.60074">
        <ele>91.1</ele>
        <time>2023-08-06T07:11:48Z</time>
      </trkpt>
      <trkpt lat="44.89738" lon="0.60084">
        <ele>91.2</ele>
        <time>2023-08-06T07:11:50Z</time>
      </trkpt>
      <trkpt lat="44.89737" lon="0.60092">
        <ele>91.2</ele>
        <time>2023-08-06T07:11:52Z</time>
      </trkpt>
      <trkpt lat="44.89737" lon="0.60096">
        <ele>91.3</ele>
        <time>2023-08-06T07:11:53Z</time>
      </trkpt>
      <trkpt lat="44.89737" lon="0.601">
        <ele>91.3</ele>
        <time>2023-08-06T07:11:54Z</time>
      </trkpt>
      <trkpt lat="44.89738" lon="0.60105">
        <ele>91.3</ele>
        <time>2023-08-06T07:11:56Z</time>
      </trkpt>
      <trkpt lat="44.89739" lon="0.60109">
        <ele>91.4</ele>
        <time>2023-08-06T07:11:57Z</time>
      </trkpt>
      <trkpt lat="44.89739" lon="0.60113">
        <ele>91.5</ele>
        <time>2023-08-06T07:11:58Z</time>
      </trkpt>
      <trkpt lat="44.8974" lon="0.60121">
        <ele>91.6</ele>
        <time>2023-08-06T07:12:00Z</time>
      </trkpt>
      <trkpt lat="44.89741" lon="0.60132">
        <ele>91.8</ele>
        <time>2023-08-06T07:12:02Z</time>
      </trkpt>
      <trkpt lat="44.89741" lon="0.60137">
        <ele>92</ele>
        <time>2023-08-06T07:12:03Z</time>
      </trkpt>
      <trkpt lat="44.89741" lon="0.60142">
        <ele>92.1</ele>
        <time>2023-08-06T07:12:04Z</time>
      </trkpt>
      <trkpt lat="44.89742" lon="0.60149">
        <ele>92.3</ele>
        <time>2023-08-06T07:12:06Z</time>
      </trkpt>
      <trkpt lat="44.89742" lon="0.60152">
        <ele>92.4</ele>
        <time>2023-08-06T07:12:07Z</time>
      </trkpt>
      <trkpt lat="44.89743" lon="0.60154">
        <ele>92.5</ele>
        <time>2023-08-06T07:12:08Z</time>
      </trkpt>
      <trkpt lat="44.89743" lon="0.60155">
        <ele>92.5</ele>
        <time>2023-08-06T07:12:10Z</time>
      </trkpt>
      <trkpt lat="44.89747" lon="0.60171">
        <ele>93.2</ele>
        <time>2023-08-06T07:12:17Z</time>
      </trkpt>
      <trkpt lat="44.89748" lon="0.60175">
        <ele>93.3</ele>
        <time>2023-08-06T07:12:18Z</time>
      </trkpt>
      <trkpt lat="44.89749" lon="0.60179">
        <ele>93.5</ele>
        <time>2023-08-06T07:12:19Z</time>
      </trkpt>
      <trkpt lat="44.8975" lon="0.60184">
        <ele>93.6</ele>
        <time>2023-08-06T07:12:20Z</time>
      </trkpt>
      <trkpt lat="44.89753" lon="0.60193">
        <ele>93.9</ele>
        <time>2023-08-06T07:12:22Z</time>
      </trkpt>
      <trkpt lat="44.89756" lon="0.60199">
        <ele>94.2</ele>
        <time>2023-08-06T07:12:24Z</time>
      </trkpt>
      <trkpt lat="44.89757" lon="0.60202">
        <ele>94.3</ele>
        <time>2023-08-06T07:12:25Z</time>
      </trkpt>
      <trkpt lat="44.89757" lon="0.60205">
        <ele>94.3</ele>
        <time>2023-08-06T07:12:26Z</time>
      </trkpt>
      <trkpt lat="44.89758" lon="0.6021">
        <ele>94.5</ele>
        <time>2023-08-06T07:12:28Z</time>
      </trkpt>
      <trkpt lat="44.89759" lon="0.60212">
        <ele>94.6</ele>
        <time>2023-08-06T07:12:29Z</time>
      </trkpt>
      <trkpt lat="44.8976" lon="0.6022">
        <ele>94.8</ele>
        <time>2023-08-06T07:12:32Z</time>
      </trkpt>
      <trkpt lat="44.89762" lon="0.60228">
        <ele>95</ele>
        <time>2023-08-06T07:12:34Z</time>
      </trkpt>
      <trkpt lat="44.89762" lon="0.60232">
        <ele>95.1</ele>
        <time>2023-08-06T07:12:35Z</time>
      </trkpt>
      <trkpt lat="44.89763" lon="0.60237">
        <ele>95.3</ele>
        <time>2023-08-06T07:12:36Z</time>
      </trkpt>
      <trkpt lat="44.89764" lon="0.60245">
        <ele>95.6</ele>
        <time>2023-08-06T07:12:38Z</time>
      </trkpt>
      <trkpt lat="44.89765" lon="0.60249">
        <ele>95.7</ele>
        <time>2023-08-06T07:12:40Z</time>
      </trkpt>
      <trkpt lat="44.89765" lon="0.60252">
        <ele>95.8</ele>
        <time>2023-08-06T07:12:41Z</time>
      </trkpt>
      <trkpt lat="44.89767" lon="0.60255">
        <ele>96</ele>
        <time>2023-08-06T07:12:42Z</time>
      </trkpt>
      <trkpt lat="44.8977" lon="0.60263">
        <ele>96.4</ele>
        <time>2023-08-06T07:12:44Z</time>
      </trkpt>
      <trkpt lat="44.89772" lon="0.60269">
        <ele>96.7</ele>
        <time>2023-08-06T07:12:46Z</time>
      </trkpt>
      <trkpt lat="44.89774" lon="0.60272">
        <ele>96.8</ele>
        <time>2023-08-06T07:12:47Z</time>
      </trkpt>
      <trkpt lat="44.89775" lon="0.60275">
        <ele>97</ele>
        <time>2023-08-06T07:12:48Z</time>
      </trkpt>
      <trkpt lat="44.89778" lon="0.6028">
        <ele>97.2</ele>
        <time>2023-08-06T07:12:50Z</time>
      </trkpt>
      <trkpt lat="44.89779" lon="0.60282">
        <ele>97.3</ele>
        <time>2023-08-06T07:12:51Z</time>
      </trkpt>
      <trkpt lat="44.8978" lon="0.60285">
        <ele>97.5</ele>
        <time>2023-08-06T07:12:52Z</time>
      </trkpt>
      <trkpt lat="44.89782" lon="0.60292">
        <ele>97.8</ele>
        <time>2023-08-06T07:12:54Z</time>
      </trkpt>
      <trkpt lat="44.89783" lon="0.60296">
        <ele>98</ele>
        <time>2023-08-06T07:12:55Z</time>
      </trkpt>
      <trkpt lat="44.89785" lon="0.60298">
        <ele>98.1</ele>
        <time>2023-08-06T07:12:56Z</time>
      </trkpt>
      <trkpt lat="44.89788" lon="0.60304">
        <ele>98.3</ele>
        <time>2023-08-06T07:12:58Z</time>
      </trkpt>
      <trkpt lat="44.8979" lon="0.60307">
        <ele>98.5</ele>
        <time>2023-08-06T07:13:00Z</time>
      </trkpt>
      <trkpt lat="44.89794" lon="0.60316">
        <ele>98.9</ele>
        <time>2023-08-06T07:13:02Z</time>
      </trkpt>
      <trkpt lat="44.89797" lon="0.60323">
        <ele>99.1</ele>
        <time>2023-08-06T07:13:04Z</time>
      </trkpt>
      <trkpt lat="44.89801" lon="0.60331">
        <ele>99.3</ele>
        <time>2023-08-06T07:13:06Z</time>
      </trkpt>
      <trkpt lat="44.89804" lon="0.60338">
        <ele>99.5</ele>
        <time>2023-08-06T07:13:08Z</time>
      </trkpt>
      <trkpt lat="44.89805" lon="0.60342">
        <ele>99.6</ele>
        <time>2023-08-06T07:13:09Z</time>
      </trkpt>
      <trkpt lat="44.89807" lon="0.60344">
        <ele>99.7</ele>
        <time>2023-08-06T07:13:10Z</time>
      </trkpt>
      <trkpt lat="44.8981" lon="0.6035">
        <ele>99.9</ele>
        <time>2023-08-06T07:13:12Z</time>
      </trkpt>
      <trkpt lat="44.89812" lon="0.60352">
        <ele>100</ele>
        <time>2023-08-06T07:13:13Z</time>
      </trkpt>
      <trkpt lat="44.89814" lon="0.60355">
        <ele>100.1</ele>
        <time>2023-08-06T07:13:14Z</time>
      </trkpt>
      <trkpt lat="44.89817" lon="0.60362">
        <ele>100.3</ele>
        <time>2023-08-06T07:13:16Z</time>
      </trkpt>
      <trkpt lat="44.89821" lon="0.6037">
        <ele>100.5</ele>
        <time>2023-08-06T07:13:18Z</time>
      </trkpt>
      <trkpt lat="44.89825" lon="0.60376">
        <ele>100.7</ele>
        <time>2023-08-06T07:13:20Z</time>
      </trkpt>
      <trkpt lat="44.89829" lon="0.60381">
        <ele>100.9</ele>
        <time>2023-08-06T07:13:22Z</time>
      </trkpt>
      <trkpt lat="44.89833" lon="0.60389">
        <ele>101.2</ele>
        <time>2023-08-06T07:13:24Z</time>
      </trkpt>
      <trkpt lat="44.89837" lon="0.60396">
        <ele>101.5</ele>
        <time>2023-08-06T07:13:26Z</time>
      </trkpt>
      <trkpt lat="44.89841" lon="0.60403">
        <ele>101.8</ele>
        <time>2023-08-06T07:13:28Z</time>
      </trkpt>
      <trkpt lat="44.89845" lon="0.60411">
        <ele>102.1</ele>
        <time>2023-08-06T07:13:30Z</time>
      </trkpt>
      <trkpt lat="44.89848" lon="0.60415">
        <ele>102.3</ele>
        <time>2023-08-06T07:13:32Z</time>
      </trkpt>
      <trkpt lat="44.8985" lon="0.60418">
        <ele>102.4</ele>
        <time>2023-08-06T07:13:33Z</time>
      </trkpt>
      <trkpt lat="44.89852" lon="0.60424">
        <ele>102.6</ele>
        <time>2023-08-06T07:13:34Z</time>
      </trkpt>
      <trkpt lat="44.89855" lon="0.60434">
        <ele>102.9</ele>
        <time>2023-08-06T07:13:36Z</time>
      </trkpt>
      <trkpt lat="44.89858" lon="0.60442">
        <ele>103.2</ele>
        <time>2023-08-06T07:13:38Z</time>
      </trkpt>
      <trkpt lat="44.89861" lon="0.60448">
        <ele>103.4</ele>
        <time>2023-08-06T07:13:40Z</time>
      </trkpt>
      <trkpt lat="44.89864" lon="0.60454">
        <ele>103.6</ele>
        <time>2023-08-06T07:13:42Z</time>
      </trkpt>
      <trkpt lat="44.89866" lon="0.60459">
        <ele>103.8</ele>
        <time>2023-08-06T07:13:44Z</time>
      </trkpt>
      <trkpt lat="44.89868" lon="0.60465">
        <ele>104</ele>
        <time>2023-08-06T07:13:46Z</time>
      </trkpt>
      <trkpt lat="44.89869" lon="0.60468">
        <ele>104.1</ele>
        <time>2023-08-06T07:13:47Z</time>
      </trkpt>
      <trkpt lat="44.89871" lon="0.60475">
        <ele>104.2</ele>
        <time>2023-08-06T07:13:48Z</time>
      </trkpt>
      <trkpt lat="44.89874" lon="0.60487">
        <ele>104.5</ele>
        <time>2023-08-06T07:13:50Z</time>
      </trkpt>
      <trkpt lat="44.89876" lon="0.60499">
        <ele>104.7</ele>
        <time>2023-08-06T07:13:52Z</time>
      </trkpt>
      <trkpt lat="44.89878" lon="0.60506">
        <ele>104.7</ele>
        <time>2023-08-06T07:13:53Z</time>
      </trkpt>
      <trkpt lat="44.8988" lon="0.60512">
        <ele>104.8</ele>
        <time>2023-08-06T07:13:54Z</time>
      </trkpt>
      <trkpt lat="44.89883" lon="0.60523">
        <ele>105</ele>
        <time>2023-08-06T07:13:56Z</time>
      </trkpt>
      <trkpt lat="44.89888" lon="0.60534">
        <ele>105.1</ele>
        <time>2023-08-06T07:13:58Z</time>
      </trkpt>
      <trkpt lat="44.89891" lon="0.60543">
        <ele>105.2</ele>
        <time>2023-08-06T07:14:00Z</time>
      </trkpt>
      <trkpt lat="44.89895" lon="0.6055">
        <ele>105.2</ele>
        <time>2023-08-06T07:14:02Z</time>
      </trkpt>
      <trkpt lat="44.89897" lon="0.60554">
        <ele>105.3</ele>
        <time>2023-08-06T07:14:03Z</time>
      </trkpt>
      <trkpt lat="44.89898" lon="0.60558">
        <ele>105.3</ele>
        <time>2023-08-06T07:14:04Z</time>
      </trkpt>
      <trkpt lat="44.89901" lon="0.60566">
        <ele>105.4</ele>
        <time>2023-08-06T07:14:06Z</time>
      </trkpt>
      <trkpt lat="44.89903" lon="0.6057">
        <ele>105.4</ele>
        <time>2023-08-06T07:14:07Z</time>
      </trkpt>
      <trkpt lat="44.89905" lon="0.60574">
        <ele>105.4</ele>
        <time>2023-08-06T07:14:08Z</time>
      </trkpt>
      <trkpt lat="44.8991" lon="0.60583">
        <ele>105.5</ele>
        <time>2023-08-06T07:14:10Z</time>
      </trkpt>
      <trkpt lat="44.89914" lon="0.60591">
        <ele>105.6</ele>
        <time>2023-08-06T07:14:12Z</time>
      </trkpt>
      <trkpt lat="44.8992" lon="0.606">
        <ele>105.8</ele>
        <time>2023-08-06T07:14:14Z</time>
      </trkpt>
      <trkpt lat="44.89925" lon="0.60609">
        <ele>106</ele>
        <time>2023-08-06T07:14:16Z</time>
      </trkpt>
      <trkpt lat="44.8993" lon="0.60616">
        <ele>106.2</ele>
        <time>2023-08-06T07:14:18Z</time>
      </trkpt>
      <trkpt lat="44.89934" lon="0.60623">
        <ele>106.5</ele>
        <time>2023-08-06T07:14:20Z</time>
      </trkpt>
      <trkpt lat="44.89935" lon="0.60626">
        <ele>106.6</ele>
        <time>2023-08-06T07:14:21Z</time>
      </trkpt>
      <trkpt lat="44.89938" lon="0.60631">
        <ele>106.7</ele>
        <time>2023-08-06T07:14:22Z</time>
      </trkpt>
      <trkpt lat="44.89942" lon="0.6064">
        <ele>107</ele>
        <time>2023-08-06T07:14:24Z</time>
      </trkpt>
      <trkpt lat="44.89947" lon="0.60649">
        <ele>107.3</ele>
        <time>2023-08-06T07:14:26Z</time>
      </trkpt>
      <trkpt lat="44.8995" lon="0.60659">
        <ele>107.6</ele>
        <time>2023-08-06T07:14:28Z</time>
      </trkpt>
      <trkpt lat="44.89954" lon="0.60668">
        <ele>107.8</ele>
        <time>2023-08-06T07:14:30Z</time>
      </trkpt>
      <trkpt lat="44.89956" lon="0.60673">
        <ele>108</ele>
        <time>2023-08-06T07:14:31Z</time>
      </trkpt>
      <trkpt lat="44.89958" lon="0.60677">
        <ele>108.1</ele>
        <time>2023-08-06T07:14:32Z</time>
      </trkpt>
      <trkpt lat="44.89962" lon="0.60684">
        <ele>108.3</ele>
        <time>2023-08-06T07:14:34Z</time>
      </trkpt>
      <trkpt lat="44.89966" lon="0.60692">
        <ele>108.6</ele>
        <time>2023-08-06T07:14:36Z</time>
      </trkpt>
      <trkpt lat="44.89968" lon="0.60696">
        <ele>108.7</ele>
        <time>2023-08-06T07:14:37Z</time>
      </trkpt>
      <trkpt lat="44.8997" lon="0.60699">
        <ele>108.8</ele>
        <time>2023-08-06T07:14:38Z</time>
      </trkpt>
      <trkpt lat="44.89974" lon="0.60706">
        <ele>109.1</ele>
        <time>2023-08-06T07:14:40Z</time>
      </trkpt>
      <trkpt lat="44.89976" lon="0.60711">
        <ele>109.3</ele>
        <time>2023-08-06T07:14:42Z</time>
      </trkpt>
      <trkpt lat="44.89978" lon="0.60715">
        <ele>109.4</ele>
        <time>2023-08-06T07:14:43Z</time>
      </trkpt>
      <trkpt lat="44.89978" lon="0.60717">
        <ele>109.5</ele>
        <time>2023-08-06T07:14:44Z</time>
      </trkpt>
      <trkpt lat="44.89981" lon="0.60721">
        <ele>109.6</ele>
        <time>2023-08-06T07:14:46Z</time>
      </trkpt>
      <trkpt lat="44.89984" lon="0.60726">
        <ele>109.8</ele>
        <time>2023-08-06T07:14:48Z</time>
      </trkpt>
      <trkpt lat="44.89986" lon="0.60732">
        <ele>109.9</ele>
        <time>2023-08-06T07:14:50Z</time>
      </trkpt>
      <trkpt lat="44.89987" lon="0.60738">
        <ele>110.1</ele>
        <time>2023-08-06T07:14:52Z</time>
      </trkpt>
      <trkpt lat="44.89989" lon="0.60744">
        <ele>110.4</ele>
        <time>2023-08-06T07:14:54Z</time>
      </trkpt>
      <trkpt lat="44.89991" lon="0.6075">
        <ele>110.7</ele>
        <time>2023-08-06T07:14:56Z</time>
      </trkpt>
      <trkpt lat="44.89994" lon="0.60754">
        <ele>110.9</ele>
        <time>2023-08-06T07:14:58Z</time>
      </trkpt>
      <trkpt lat="44.89995" lon="0.60755">
        <ele>111.1</ele>
        <time>2023-08-06T07:14:59Z</time>
      </trkpt>
      <trkpt lat="44.89997" lon="0.60757">
        <ele>111.3</ele>
        <time>2023-08-06T07:15:00Z</time>
      </trkpt>
      <trkpt lat="44.9" lon="0.6076">
        <ele>111.5</ele>
        <time>2023-08-06T07:15:02Z</time>
      </trkpt>
      <trkpt lat="44.90001" lon="0.60765">
        <ele>111.8</ele>
        <time>2023-08-06T07:15:04Z</time>
      </trkpt>
      <trkpt lat="44.90004" lon="0.6077">
        <ele>112.2</ele>
        <time>2023-08-06T07:15:06Z</time>
      </trkpt>
      <trkpt lat="44.90005" lon="0.60772">
        <ele>112.4</ele>
        <time>2023-08-06T07:15:07Z</time>
      </trkpt>
      <trkpt lat="44.90007" lon="0.60775">
        <ele>112.6</ele>
        <time>2023-08-06T07:15:08Z</time>
      </trkpt>
      <trkpt lat="44.90009" lon="0.60779">
        <ele>112.9</ele>
        <time>2023-08-06T07:15:10Z</time>
      </trkpt>
      <trkpt lat="44.90011" lon="0.60784">
        <ele>113.3</ele>
        <time>2023-08-06T07:15:12Z</time>
      </trkpt>
      <trkpt lat="44.90013" lon="0.60788">
        <ele>113.6</ele>
        <time>2023-08-06T07:15:14Z</time>
      </trkpt>
      <trkpt lat="44.90015" lon="0.60792">
        <ele>113.9</ele>
        <time>2023-08-06T07:15:16Z</time>
      </trkpt>
      <trkpt lat="44.90017" lon="0.60797">
        <ele>114.2</ele>
        <time>2023-08-06T07:15:18Z</time>
      </trkpt>
      <trkpt lat="44.90019" lon="0.608">
        <ele>114.5</ele>
        <time>2023-08-06T07:15:20Z</time>
      </trkpt>
      <trkpt lat="44.9002" lon="0.60802">
        <ele>114.7</ele>
        <time>2023-08-06T07:15:21Z</time>
      </trkpt>
      <trkpt lat="44.90021" lon="0.60805">
        <ele>114.8</ele>
        <time>2023-08-06T07:15:22Z</time>
      </trkpt>
      <trkpt lat="44.90024" lon="0.60808">
        <ele>115.2</ele>
        <time>2023-08-06T07:15:24Z</time>
      </trkpt>
      <trkpt lat="44.90027" lon="0.60813">
        <ele>115.6</ele>
        <time>2023-08-06T07:15:26Z</time>
      </trkpt>
      <trkpt lat="44.90028" lon="0.60816">
        <ele>115.8</ele>
        <time>2023-08-06T07:15:27Z</time>
      </trkpt>
      <trkpt lat="44.90028" lon="0.60818">
        <ele>116</ele>
        <time>2023-08-06T07:15:28Z</time>
      </trkpt>
      <trkpt lat="44.9003" lon="0.60824">
        <ele>116.5</ele>
        <time>2023-08-06T07:15:30Z</time>
      </trkpt>
      <trkpt lat="44.90033" lon="0.60829">
        <ele>117</ele>
        <time>2023-08-06T07:15:32Z</time>
      </trkpt>
      <trkpt lat="44.90036" lon="0.60834">
        <ele>117.5</ele>
        <time>2023-08-06T07:15:34Z</time>
      </trkpt>
      <trkpt lat="44.90039" lon="0.60837">
        <ele>117.9</ele>
        <time>2023-08-06T07:15:36Z</time>
      </trkpt>
      <trkpt lat="44.90041" lon="0.6084">
        <ele>118.3</ele>
        <time>2023-08-06T07:15:38Z</time>
      </trkpt>
      <trkpt lat="44.90044" lon="0.60843">
        <ele>118.6</ele>
        <time>2023-08-06T07:15:40Z</time>
      </trkpt>
      <trkpt lat="44.90046" lon="0.60844">
        <ele>118.9</ele>
        <time>2023-08-06T07:15:42Z</time>
      </trkpt>
      <trkpt lat="44.90047" lon="0.60847">
        <ele>119.2</ele>
        <time>2023-08-06T07:15:44Z</time>
      </trkpt>
      <trkpt lat="44.90049" lon="0.60849">
        <ele>119.5</ele>
        <time>2023-08-06T07:15:46Z</time>
      </trkpt>
      <trkpt lat="44.90052" lon="0.60852">
        <ele>119.8</ele>
        <time>2023-08-06T07:15:48Z</time>
      </trkpt>
      <trkpt lat="44.90053" lon="0.60854">
        <ele>120</ele>
        <time>2023-08-06T07:15:49Z</time>
      </trkpt>
      <trkpt lat="44.90054" lon="0.60855">
        <ele>120.2</ele>
        <time>2023-08-06T07:15:50Z</time>
      </trkpt>
      <trkpt lat="44.90056" lon="0.6086">
        <ele>120.6</ele>
        <time>2023-08-06T07:15:52Z</time>
      </trkpt>
      <trkpt lat="44.90057" lon="0.60866">
        <ele>121.1</ele>
        <time>2023-08-06T07:15:54Z</time>
      </trkpt>
      <trkpt lat="44.90059" lon="0.60869">
        <ele>121.5</ele>
        <time>2023-08-06T07:15:56Z</time>
      </trkpt>
      <trkpt lat="44.90061" lon="0.60871">
        <ele>121.7</ele>
        <time>2023-08-06T07:15:58Z</time>
      </trkpt>
      <trkpt lat="44.90063" lon="0.60875">
        <ele>122.1</ele>
        <time>2023-08-06T07:16:00Z</time>
      </trkpt>
      <trkpt lat="44.90064" lon="0.60878">
        <ele>122.3</ele>
        <time>2023-08-06T07:16:01Z</time>
      </trkpt>
      <trkpt lat="44.90065" lon="0.6088">
        <ele>122.5</ele>
        <time>2023-08-06T07:16:02Z</time>
      </trkpt>
      <trkpt lat="44.90067" lon="0.60884">
        <ele>122.9</ele>
        <time>2023-08-06T07:16:04Z</time>
      </trkpt>
      <trkpt lat="44.90069" lon="0.60889">
        <ele>123.3</ele>
        <time>2023-08-06T07:16:06Z</time>
      </trkpt>
      <trkpt lat="44.90071" lon="0.6089">
        <ele>123.5</ele>
        <time>2023-08-06T07:16:07Z</time>
      </trkpt>
      <trkpt lat="44.90072" lon="0.60892">
        <ele>123.6</ele>
        <time>2023-08-06T07:16:08Z</time>
      </trkpt>
      <trkpt lat="44.90075" lon="0.60895">
        <ele>124</ele>
        <time>2023-08-06T07:16:10Z</time>
      </trkpt>
      <trkpt lat="44.90075" lon="0.60895">
        <ele>124</ele>
        <time>2023-08-06T07:16:11Z</time>
      </trkpt>
      <trkpt lat="44.90076" lon="0.60897">
        <ele>124.2</ele>
        <time>2023-08-06T07:16:12Z</time>
      </trkpt>
      <trkpt lat="44.90078" lon="0.60905">
        <ele>124.7</ele>
        <time>2023-08-06T07:16:14Z</time>
      </trkpt>
      <trkpt lat="44.90079" lon="0.60912">
        <ele>125.1</ele>
        <time>2023-08-06T07:16:16Z</time>
      </trkpt>
      <trkpt lat="44.90079" lon="0.60915">
        <ele>125.3</ele>
        <time>2023-08-06T07:16:17Z</time>
      </trkpt>
      <trkpt lat="44.9008" lon="0.60917">
        <ele>125.4</ele>
        <time>2023-08-06T07:16:18Z</time>
      </trkpt>
      <trkpt lat="44.90082" lon="0.60922">
        <ele>125.8</ele>
        <time>2023-08-06T07:16:20Z</time>
      </trkpt>
      <trkpt lat="44.90084" lon="0.60925">
        <ele>126</ele>
        <time>2023-08-06T07:16:22Z</time>
      </trkpt>
      <trkpt lat="44.90085" lon="0.60928">
        <ele>126.2</ele>
        <time>2023-08-06T07:16:24Z</time>
      </trkpt>
      <trkpt lat="44.90088" lon="0.60931">
        <ele>126.5</ele>
        <time>2023-08-06T07:16:26Z</time>
      </trkpt>
      <trkpt lat="44.9009" lon="0.60934">
        <ele>126.7</ele>
        <time>2023-08-06T07:16:27Z</time>
      </trkpt>
      <trkpt lat="44.90091" lon="0.60936">
        <ele>126.8</ele>
        <time>2023-08-06T07:16:28Z</time>
      </trkpt>
      <trkpt lat="44.90093" lon="0.6094">
        <ele>127.1</ele>
        <time>2023-08-06T07:16:30Z</time>
      </trkpt>
      <trkpt lat="44.90095" lon="0.60944">
        <ele>127.3</ele>
        <time>2023-08-06T07:16:31Z</time>
      </trkpt>
      <trkpt lat="44.90097" lon="0.60948">
        <ele>127.5</ele>
        <time>2023-08-06T07:16:32Z</time>
      </trkpt>
      <trkpt lat="44.901" lon="0.60956">
        <ele>127.8</ele>
        <time>2023-08-06T07:16:34Z</time>
      </trkpt>
      <trkpt lat="44.90102" lon="0.60963">
        <ele>127.8</ele>
        <time>2023-08-06T07:16:36Z</time>
      </trkpt>
      <trkpt lat="44.90104" lon="0.60967">
        <ele>127.8</ele>
        <time>2023-08-06T07:16:37Z</time>
      </trkpt>
      <trkpt lat="44.90105" lon="0.6097">
        <ele>127.8</ele>
        <time>2023-08-06T07:16:38Z</time>
      </trkpt>
      <trkpt lat="44.90108" lon="0.60978">
        <ele>127.8</ele>
        <time>2023-08-06T07:16:40Z</time>
      </trkpt>
      <trkpt lat="44.90112" lon="0.60986">
        <ele>127.7</ele>
        <time>2023-08-06T07:16:42Z</time>
      </trkpt>
      <trkpt lat="44.90113" lon="0.6099">
        <ele>127.7</ele>
        <time>2023-08-06T07:16:43Z</time>
      </trkpt>
      <trkpt lat="44.90115" lon="0.60994">
        <ele>127.7</ele>
        <time>2023-08-06T07:16:44Z</time>
      </trkpt>
      <trkpt lat="44.90117" lon="0.61003">
        <ele>127.7</ele>
        <time>2023-08-06T07:16:46Z</time>
      </trkpt>
      <trkpt lat="44.90121" lon="0.6101">
        <ele>127.7</ele>
        <time>2023-08-06T07:16:48Z</time>
      </trkpt>
      <trkpt lat="44.90123" lon="0.61015">
        <ele>127.7</ele>
        <time>2023-08-06T07:16:49Z</time>
      </trkpt>
      <trkpt lat="44.90125" lon="0.61019">
        <ele>127.7</ele>
        <time>2023-08-06T07:16:50Z</time>
      </trkpt>
      <trkpt lat="44.90128" lon="0.61027">
        <ele>127.8</ele>
        <time>2023-08-06T07:16:52Z</time>
      </trkpt>
      <trkpt lat="44.90129" lon="0.61031">
        <ele>127.8</ele>
        <time>2023-08-06T07:16:53Z</time>
      </trkpt>
      <trkpt lat="44.90131" lon="0.61036">
        <ele>127.8</ele>
        <time>2023-08-06T07:16:54Z</time>
      </trkpt>
      <trkpt lat="44.90132" lon="0.61041">
        <ele>127.9</ele>
        <time>2023-08-06T07:16:55Z</time>
      </trkpt>
      <trkpt lat="44.90134" lon="0.61045">
        <ele>127.9</ele>
        <time>2023-08-06T07:16:56Z</time>
      </trkpt>
      <trkpt lat="44.90138" lon="0.61053">
        <ele>127.9</ele>
        <time>2023-08-06T07:16:58Z</time>
      </trkpt>
      <trkpt lat="44.90143" lon="0.6106">
        <ele>127.9</ele>
        <time>2023-08-06T07:17:00Z</time>
      </trkpt>
      <trkpt lat="44.90147" lon="0.61068">
        <ele>128</ele>
        <time>2023-08-06T07:17:02Z</time>
      </trkpt>
      <trkpt lat="44.90151" lon="0.61077">
        <ele>128</ele>
        <time>2023-08-06T07:17:04Z</time>
      </trkpt>
      <trkpt lat="44.90154" lon="0.61085">
        <ele>128.1</ele>
        <time>2023-08-06T07:17:06Z</time>
      </trkpt>
      <trkpt lat="44.90159" lon="0.61091">
        <ele>128.2</ele>
        <time>2023-08-06T07:17:08Z</time>
      </trkpt>
      <trkpt lat="44.90161" lon="0.61095">
        <ele>128.2</ele>
        <time>2023-08-06T07:17:09Z</time>
      </trkpt>
      <trkpt lat="44.90163" lon="0.61099">
        <ele>128.3</ele>
        <time>2023-08-06T07:17:10Z</time>
      </trkpt>
      <trkpt lat="44.90166" lon="0.61108">
        <ele>128.3</ele>
        <time>2023-08-06T07:17:12Z</time>
      </trkpt>
      <trkpt lat="44.90167" lon="0.61112">
        <ele>128.4</ele>
        <time>2023-08-06T07:17:13Z</time>
      </trkpt>
      <trkpt lat="44.90169" lon="0.61116">
        <ele>128.4</ele>
        <time>2023-08-06T07:17:14Z</time>
      </trkpt>
      <trkpt lat="44.90172" lon="0.61124">
        <ele>128.5</ele>
        <time>2023-08-06T07:17:16Z</time>
      </trkpt>
      <trkpt lat="44.90174" lon="0.61128">
        <ele>128.5</ele>
        <time>2023-08-06T07:17:17Z</time>
      </trkpt>
      <trkpt lat="44.90175" lon="0.61133">
        <ele>128.6</ele>
        <time>2023-08-06T07:17:18Z</time>
      </trkpt>
      <trkpt lat="44.90177" lon="0.61142">
        <ele>128.7</ele>
        <time>2023-08-06T07:17:20Z</time>
      </trkpt>
      <trkpt lat="44.9018" lon="0.61151">
        <ele>128.7</ele>
        <time>2023-08-06T07:17:22Z</time>
      </trkpt>
      <trkpt lat="44.90189" lon="0.61157">
        <ele>128.7</ele>
        <time>2023-08-06T07:17:24Z</time>
      </trkpt>
      <trkpt lat="44.90193" lon="0.61164">
        <ele>128.7</ele>
        <time>2023-08-06T07:17:26Z</time>
      </trkpt>
      <trkpt lat="44.90196" lon="0.61173">
        <ele>128.7</ele>
        <time>2023-08-06T07:17:28Z</time>
      </trkpt>
      <trkpt lat="44.90198" lon="0.61182">
        <ele>128.7</ele>
        <time>2023-08-06T07:17:30Z</time>
      </trkpt>
      <trkpt lat="44.90201" lon="0.61191">
        <ele>128.7</ele>
        <time>2023-08-06T07:17:32Z</time>
      </trkpt>
      <trkpt lat="44.90203" lon="0.61198">
        <ele>128.7</ele>
        <time>2023-08-06T07:17:34Z</time>
      </trkpt>
      <trkpt lat="44.90204" lon="0.61202">
        <ele>128.6</ele>
        <time>2023-08-06T07:17:35Z</time>
      </trkpt>
      <trkpt lat="44.90205" lon="0.61206">
        <ele>128.6</ele>
        <time>2023-08-06T07:17:36Z</time>
      </trkpt>
      <trkpt lat="44.90204" lon="0.61209">
        <ele>128.6</ele>
        <time>2023-08-06T07:17:37Z</time>
      </trkpt>
      <trkpt lat="44.90202" lon="0.61211">
        <ele>128.3</ele>
        <time>2023-08-06T07:17:38Z</time>
      </trkpt>
      <trkpt lat="44.90196" lon="0.61217">
        <ele>127.7</ele>
        <time>2023-08-06T07:17:40Z</time>
      </trkpt>
      <trkpt lat="44.90192" lon="0.61221">
        <ele>127.3</ele>
        <time>2023-08-06T07:17:41Z</time>
      </trkpt>
      <trkpt lat="44.90188" lon="0.61225">
        <ele>127</ele>
        <time>2023-08-06T07:17:42Z</time>
      </trkpt>
      <trkpt lat="44.90179" lon="0.61233">
        <ele>126</ele>
        <time>2023-08-06T07:17:44Z</time>
      </trkpt>
      <trkpt lat="44.90172" lon="0.61239">
        <ele>125.1</ele>
        <time>2023-08-06T07:17:46Z</time>
      </trkpt>
      <trkpt lat="44.90171" lon="0.61242">
        <ele>125</ele>
        <time>2023-08-06T07:17:47Z</time>
      </trkpt>
      <trkpt lat="44.90171" lon="0.61245">
        <ele>124.9</ele>
        <time>2023-08-06T07:17:48Z</time>
      </trkpt>
      <trkpt lat="44.90171" lon="0.61247">
        <ele>124.9</ele>
        <time>2023-08-06T07:17:49Z</time>
      </trkpt>
      <trkpt lat="44.90172" lon="0.61249">
        <ele>124.8</ele>
        <time>2023-08-06T07:17:50Z</time>
      </trkpt>
      <trkpt lat="44.90171" lon="0.61256">
        <ele>124.7</ele>
        <time>2023-08-06T07:17:52Z</time>
      </trkpt>
      <trkpt lat="44.90166" lon="0.61261">
        <ele>123.8</ele>
        <time>2023-08-06T07:17:54Z</time>
      </trkpt>
      <trkpt lat="44.90163" lon="0.61263">
        <ele>123.3</ele>
        <time>2023-08-06T07:17:55Z</time>
      </trkpt>
      <trkpt lat="44.90161" lon="0.61267">
        <ele>123.2</ele>
        <time>2023-08-06T07:17:56Z</time>
      </trkpt>
      <trkpt lat="44.90159" lon="0.61278">
        <ele>122.5</ele>
        <time>2023-08-06T07:17:58Z</time>
      </trkpt>
      <trkpt lat="44.90159" lon="0.61289">
        <ele>122.1</ele>
        <time>2023-08-06T07:18:00Z</time>
      </trkpt>
      <trkpt lat="44.9016" lon="0.61295">
        <ele>121.9</ele>
        <time>2023-08-06T07:18:01Z</time>
      </trkpt>
      <trkpt lat="44.90161" lon="0.613">
        <ele>122.2</ele>
        <time>2023-08-06T07:18:02Z</time>
      </trkpt>
      <trkpt lat="44.90162" lon="0.61304">
        <ele>122.1</ele>
        <time>2023-08-06T07:18:03Z</time>
      </trkpt>
      <trkpt lat="44.90162" lon="0.6131">
        <ele>121.8</ele>
        <time>2023-08-06T07:18:04Z</time>
      </trkpt>
      <trkpt lat="44.90161" lon="0.61315">
        <ele>121.7</ele>
        <time>2023-08-06T07:18:05Z</time>
      </trkpt>
      <trkpt lat="44.90161" lon="0.6132">
        <ele>121.5</ele>
        <time>2023-08-06T07:18:06Z</time>
      </trkpt>
      <trkpt lat="44.9016" lon="0.61332">
        <ele>120.6</ele>
        <time>2023-08-06T07:18:08Z</time>
      </trkpt>
      <trkpt lat="44.90159" lon="0.61338">
        <ele>120.4</ele>
        <time>2023-08-06T07:18:09Z</time>
      </trkpt>
      <trkpt lat="44.90157" lon="0.61342">
        <ele>119.7</ele>
        <time>2023-08-06T07:18:10Z</time>
      </trkpt>
      <trkpt lat="44.90153" lon="0.61348">
        <ele>118.7</ele>
        <time>2023-08-06T07:18:12Z</time>
      </trkpt>
      <trkpt lat="44.90146" lon="0.61355">
        <ele>117.6</ele>
        <time>2023-08-06T07:18:14Z</time>
      </trkpt>
      <trkpt lat="44.90142" lon="0.61357">
        <ele>116.5</ele>
        <time>2023-08-06T07:18:15Z</time>
      </trkpt>
      <trkpt lat="44.90138" lon="0.61358">
        <ele>116.1</ele>
        <time>2023-08-06T07:18:16Z</time>
      </trkpt>
      <trkpt lat="44.90136" lon="0.61359">
        <ele>115.7</ele>
        <time>2023-08-06T07:18:17Z</time>
      </trkpt>
      <trkpt lat="44.90134" lon="0.61362">
        <ele>115.4</ele>
        <time>2023-08-06T07:18:18Z</time>
      </trkpt>
      <trkpt lat="44.90133" lon="0.61364">
        <ele>115.4</ele>
        <time>2023-08-06T07:18:19Z</time>
      </trkpt>
      <trkpt lat="44.90133" lon="0.61365">
        <ele>114.8</ele>
        <time>2023-08-06T07:18:20Z</time>
      </trkpt>
      <trkpt lat="44.90134" lon="0.6137">
        <ele>114.8</ele>
        <time>2023-08-06T07:18:22Z</time>
      </trkpt>
      <trkpt lat="44.90137" lon="0.61375">
        <ele>114.8</ele>
        <time>2023-08-06T07:18:24Z</time>
      </trkpt>
      <trkpt lat="44.9014" lon="0.61382">
        <ele>114.8</ele>
        <time>2023-08-06T07:18:26Z</time>
      </trkpt>
      <trkpt lat="44.90142" lon="0.61385">
        <ele>114.5</ele>
        <time>2023-08-06T07:18:28Z</time>
      </trkpt>
      <trkpt lat="44.90142" lon="0.6139">
        <ele>114.4</ele>
        <time>2023-08-06T07:18:30Z</time>
      </trkpt>
      <trkpt lat="44.90144" lon="0.61393">
        <ele>114.1</ele>
        <time>2023-08-06T07:18:31Z</time>
      </trkpt>
      <trkpt lat="44.90146" lon="0.61396">
        <ele>114.1</ele>
        <time>2023-08-06T07:18:32Z</time>
      </trkpt>
      <trkpt lat="44.90148" lon="0.61399">
        <ele>113.8</ele>
        <time>2023-08-06T07:18:33Z</time>
      </trkpt>
      <trkpt lat="44.90149" lon="0.61402">
        <ele>114</ele>
        <time>2023-08-06T07:18:34Z</time>
      </trkpt>
      <trkpt lat="44.90151" lon="0.61407">
        <ele>113.7</ele>
        <time>2023-08-06T07:18:36Z</time>
      </trkpt>
      <trkpt lat="44.90151" lon="0.61407">
        <ele>113.7</ele>
        <time>2023-08-06T07:18:37Z</time>
      </trkpt>
      <trkpt lat="44.90151" lon="0.61408">
        <ele>113.4</ele>
        <time>2023-08-06T07:18:38Z</time>
      </trkpt>
      <trkpt lat="44.90151" lon="0.61409">
        <ele>113.4</ele>
        <time>2023-08-06T07:18:39Z</time>
      </trkpt>
      <trkpt lat="44.9015" lon="0.61409">
        <ele>113.4</ele>
        <time>2023-08-06T07:18:40Z</time>
      </trkpt>
      <trkpt lat="44.9015" lon="0.6141">
        <ele>113.4</ele>
        <time>2023-08-06T07:18:41Z</time>
      </trkpt>
      <trkpt lat="44.90149" lon="0.61411">
        <ele>113.4</ele>
        <time>2023-08-06T07:18:42Z</time>
      </trkpt>
      <trkpt lat="44.90145" lon="0.61415">
        <ele>112.6</ele>
        <time>2023-08-06T07:18:44Z</time>
      </trkpt>
      <trkpt lat="44.90143" lon="0.61416">
        <ele>112.6</ele>
        <time>2023-08-06T07:18:45Z</time>
      </trkpt>
      <trkpt lat="44.90142" lon="0.61416">
        <ele>112</ele>
        <time>2023-08-06T07:18:46Z</time>
      </trkpt>
      <trkpt lat="44.90141" lon="0.61417">
        <ele>112</ele>
        <time>2023-08-06T07:18:47Z</time>
      </trkpt>
      <trkpt lat="44.9014" lon="0.6142">
        <ele>112</ele>
        <time>2023-08-06T07:18:48Z</time>
      </trkpt>
      <trkpt lat="44.90138" lon="0.61423">
        <ele>111.3</ele>
        <time>2023-08-06T07:18:49Z</time>
      </trkpt>
      <trkpt lat="44.90136" lon="0.61426">
        <ele>110.5</ele>
        <time>2023-08-06T07:18:50Z</time>
      </trkpt>
      <trkpt lat="44.90131" lon="0.61429">
        <ele>110.2</ele>
        <time>2023-08-06T07:18:52Z</time>
      </trkpt>
      <trkpt lat="44.90131" lon="0.61433">
        <ele>109.8</ele>
        <time>2023-08-06T07:18:54Z</time>
      </trkpt>
      <trkpt lat="44.90131" lon="0.61435">
        <ele>109.3</ele>
        <time>2023-08-06T07:18:55Z</time>
      </trkpt>
      <trkpt lat="44.9013" lon="0.61436">
        <ele>109</ele>
        <time>2023-08-06T07:18:56Z</time>
      </trkpt>
      <trkpt lat="44.90128" lon="0.61437">
        <ele>109</ele>
        <time>2023-08-06T07:18:58Z</time>
      </trkpt>
      <trkpt lat="44.90125" lon="0.61438">
        <ele>108.7</ele>
        <time>2023-08-06T07:19:00Z</time>
      </trkpt>
      <trkpt lat="44.90119" lon="0.61438">
        <ele>108.1</ele>
        <time>2023-08-06T07:19:02Z</time>
      </trkpt>
      <trkpt lat="44.90113" lon="0.61437">
        <ele>107.3</ele>
        <time>2023-08-06T07:19:04Z</time>
      </trkpt>
      <trkpt lat="44.90111" lon="0.61438">
        <ele>106.4</ele>
        <time>2023-08-06T07:19:05Z</time>
      </trkpt>
      <trkpt lat="44.90109" lon="0.61439">
        <ele>106.4</ele>
        <time>2023-08-06T07:19:06Z</time>
      </trkpt>
      <trkpt lat="44.90107" lon="0.61441">
        <ele>106</ele>
        <time>2023-08-06T07:19:07Z</time>
      </trkpt>
      <trkpt lat="44.90105" lon="0.61442">
        <ele>105.6</ele>
        <time>2023-08-06T07:19:08Z</time>
      </trkpt>
      <trkpt lat="44.901" lon="0.61441">
        <ele>105.3</ele>
        <time>2023-08-06T07:19:10Z</time>
      </trkpt>
      <trkpt lat="44.90097" lon="0.61441">
        <ele>105</ele>
        <time>2023-08-06T07:19:11Z</time>
      </trkpt>
      <trkpt lat="44.90094" lon="0.61443">
        <ele>103.9</ele>
        <time>2023-08-06T07:19:12Z</time>
      </trkpt>
      <trkpt lat="44.90089" lon="0.61446">
        <ele>103.1</ele>
        <time>2023-08-06T07:19:13Z</time>
      </trkpt>
      <trkpt lat="44.90084" lon="0.6145">
        <ele>102.3</ele>
        <time>2023-08-06T07:19:14Z</time>
      </trkpt>
      <trkpt lat="44.90074" lon="0.61457">
        <ele>100.3</ele>
        <time>2023-08-06T07:19:16Z</time>
      </trkpt>
      <trkpt lat="44.90069" lon="0.61458">
        <ele>99.5</ele>
        <time>2023-08-06T07:19:17Z</time>
      </trkpt>
      <trkpt lat="44.90064" lon="0.61461">
        <ele>98.7</ele>
        <time>2023-08-06T07:19:18Z</time>
      </trkpt>
      <trkpt lat="44.90057" lon="0.61466">
        <ele>97</ele>
        <time>2023-08-06T07:19:20Z</time>
      </trkpt>
      <trkpt lat="44.90055" lon="0.61468">
        <ele>96.6</ele>
        <time>2023-08-06T07:19:21Z</time>
      </trkpt>
      <trkpt lat="44.90054" lon="0.6147">
        <ele>96.2</ele>
        <time>2023-08-06T07:19:22Z</time>
      </trkpt>
      <trkpt lat="44.90053" lon="0.61474">
        <ele>95.7</ele>
        <time>2023-08-06T07:19:24Z</time>
      </trkpt>
      <trkpt lat="44.90053" lon="0.61475">
        <ele>95.7</ele>
        <time>2023-08-06T07:19:26Z</time>
      </trkpt>
      <trkpt lat="44.90052" lon="0.61481">
        <ele>94.7</ele>
        <time>2023-08-06T07:19:28Z</time>
      </trkpt>
      <trkpt lat="44.90051" lon="0.61483">
        <ele>94.7</ele>
        <time>2023-08-06T07:19:29Z</time>
      </trkpt>
      <trkpt lat="44.9005" lon="0.61485">
        <ele>93.8</ele>
        <time>2023-08-06T07:19:30Z</time>
      </trkpt>
      <trkpt lat="44.90048" lon="0.61486">
        <ele>93.4</ele>
        <time>2023-08-06T07:19:31Z</time>
      </trkpt>
      <trkpt lat="44.90046" lon="0.61485">
        <ele>93.4</ele>
        <time>2023-08-06T07:19:32Z</time>
      </trkpt>
      <trkpt lat="44.90045" lon="0.61485">
        <ele>93.6</ele>
        <time>2023-08-06T07:19:33Z</time>
      </trkpt>
      <trkpt lat="44.90042" lon="0.61485">
        <ele>93.1</ele>
        <time>2023-08-06T07:19:34Z</time>
      </trkpt>
      <trkpt lat="44.90037" lon="0.61487">
        <ele>92.3</ele>
        <time>2023-08-06T07:19:36Z</time>
      </trkpt>
      <trkpt lat="44.90031" lon="0.6149">
        <ele>91</ele>
        <time>2023-08-06T07:19:38Z</time>
      </trkpt>
      <trkpt lat="44.90029" lon="0.61492">
        <ele>90.7</ele>
        <time>2023-08-06T07:19:39Z</time>
      </trkpt>
      <trkpt lat="44.90028" lon="0.61495">
        <ele>90.5</ele>
        <time>2023-08-06T07:19:40Z</time>
      </trkpt>
      <trkpt lat="44.90026" lon="0.61498">
        <ele>90.2</ele>
        <time>2023-08-06T07:19:41Z</time>
      </trkpt>
      <trkpt lat="44.90024" lon="0.615">
        <ele>89.9</ele>
        <time>2023-08-06T07:19:42Z</time>
      </trkpt>
      <trkpt lat="44.90021" lon="0.61501">
        <ele>89.6</ele>
        <time>2023-08-06T07:19:43Z</time>
      </trkpt>
      <trkpt lat="44.9002" lon="0.61504">
        <ele>89.3</ele>
        <time>2023-08-06T07:19:44Z</time>
      </trkpt>
      <trkpt lat="44.90018" lon="0.6151">
        <ele>88.8</ele>
        <time>2023-08-06T07:19:46Z</time>
      </trkpt>
      <trkpt lat="44.90017" lon="0.61512">
        <ele>88.6</ele>
        <time>2023-08-06T07:19:47Z</time>
      </trkpt>
      <trkpt lat="44.90015" lon="0.61513">
        <ele>88.4</ele>
        <time>2023-08-06T07:19:48Z</time>
      </trkpt>
      <trkpt lat="44.90015" lon="0.61513">
        <ele>88.4</ele>
        <time>2023-08-06T07:19:49Z</time>
      </trkpt>
      <trkpt lat="44.90014" lon="0.61514">
        <ele>88.2</ele>
        <time>2023-08-06T07:19:50Z</time>
      </trkpt>
      <trkpt lat="44.90009" lon="0.61519">
        <ele>87.5</ele>
        <time>2023-08-06T07:19:52Z</time>
      </trkpt>
      <trkpt lat="44.90006" lon="0.61524">
        <ele>87</ele>
        <time>2023-08-06T07:19:53Z</time>
      </trkpt>
      <trkpt lat="44.90004" lon="0.61528">
        <ele>86.6</ele>
        <time>2023-08-06T07:19:54Z</time>
      </trkpt>
      <trkpt lat="44.89999" lon="0.61533">
        <ele>85.8</ele>
        <time>2023-08-06T07:19:56Z</time>
      </trkpt>
      <trkpt lat="44.89994" lon="0.61536">
        <ele>85.1</ele>
        <time>2023-08-06T07:19:58Z</time>
      </trkpt>
      <trkpt lat="44.89989" lon="0.6154">
        <ele>84.4</ele>
        <time>2023-08-06T07:20:00Z</time>
      </trkpt>
      <trkpt lat="44.89987" lon="0.61542">
        <ele>84.1</ele>
        <time>2023-08-06T07:20:01Z</time>
      </trkpt>
      <trkpt lat="44.89985" lon="0.61546">
        <ele>83.7</ele>
        <time>2023-08-06T07:20:02Z</time>
      </trkpt>
      <trkpt lat="44.89982" lon="0.61553">
        <ele>83.1</ele>
        <time>2023-08-06T07:20:04Z</time>
      </trkpt>
      <trkpt lat="44.89978" lon="0.61556">
        <ele>82.6</ele>
        <time>2023-08-06T07:20:05Z</time>
      </trkpt>
      <trkpt lat="44.89973" lon="0.61558">
        <ele>82</ele>
        <time>2023-08-06T07:20:06Z</time>
      </trkpt>
      <trkpt lat="44.89965" lon="0.61561">
        <ele>80.9</ele>
        <time>2023-08-06T07:20:08Z</time>
      </trkpt>
      <trkpt lat="44.89961" lon="0.61562">
        <ele>80.4</ele>
        <time>2023-08-06T07:20:09Z</time>
      </trkpt>
      <trkpt lat="44.89957" lon="0.61562">
        <ele>79.9</ele>
        <time>2023-08-06T07:20:10Z</time>
      </trkpt>
      <trkpt lat="44.89953" lon="0.61562">
        <ele>79.4</ele>
        <time>2023-08-06T07:20:12Z</time>
      </trkpt>
      <trkpt lat="44.89953" lon="0.61562">
        <ele>79.4</ele>
        <time>2023-08-06T07:20:13Z</time>
      </trkpt>
      <trkpt lat="44.89952" lon="0.61565">
        <ele>79.1</ele>
        <time>2023-08-06T07:20:14Z</time>
      </trkpt>
      <trkpt lat="44.8995" lon="0.61572">
        <ele>78.4</ele>
        <time>2023-08-06T07:20:16Z</time>
      </trkpt>
      <trkpt lat="44.89948" lon="0.61574">
        <ele>78</ele>
        <time>2023-08-06T07:20:17Z</time>
      </trkpt>
      <trkpt lat="44.89945" lon="0.61575">
        <ele>77.6</ele>
        <time>2023-08-06T07:20:18Z</time>
      </trkpt>
      <trkpt lat="44.8994" lon="0.61574">
        <ele>77</ele>
        <time>2023-08-06T07:20:20Z</time>
      </trkpt>
      <trkpt lat="44.89935" lon="0.61573">
        <ele>76.3</ele>
        <time>2023-08-06T07:20:22Z</time>
      </trkpt>
      <trkpt lat="44.89929" lon="0.6157">
        <ele>75.5</ele>
        <time>2023-08-06T07:20:24Z</time>
      </trkpt>
      <trkpt lat="44.89924" lon="0.61566">
        <ele>74.7</ele>
        <time>2023-08-06T07:20:26Z</time>
      </trkpt>
      <trkpt lat="44.89918" lon="0.61563">
        <ele>73.8</ele>
        <time>2023-08-06T07:20:28Z</time>
      </trkpt>
      <trkpt lat="44.89912" lon="0.61558">
        <ele>72.9</ele>
        <time>2023-08-06T07:20:30Z</time>
      </trkpt>
      <trkpt lat="44.89907" lon="0.61554">
        <ele>72.3</ele>
        <time>2023-08-06T07:20:32Z</time>
      </trkpt>
      <trkpt lat="44.89902" lon="0.6155">
        <ele>71.8</ele>
        <time>2023-08-06T07:20:34Z</time>
      </trkpt>
      <trkpt lat="44.89896" lon="0.61547">
        <ele>71.4</ele>
        <time>2023-08-06T07:20:36Z</time>
      </trkpt>
      <trkpt lat="44.89891" lon="0.61544">
        <ele>71.1</ele>
        <time>2023-08-06T07:20:38Z</time>
      </trkpt>
      <trkpt lat="44.89886" lon="0.61539">
        <ele>70.9</ele>
        <time>2023-08-06T07:20:40Z</time>
      </trkpt>
      <trkpt lat="44.89881" lon="0.61534">
        <ele>70.8</ele>
        <time>2023-08-06T07:20:42Z</time>
      </trkpt>
      <trkpt lat="44.89878" lon="0.61527">
        <ele>70.8</ele>
        <time>2023-08-06T07:20:44Z</time>
      </trkpt>
      <trkpt lat="44.89874" lon="0.61521">
        <ele>70.8</ele>
        <time>2023-08-06T07:20:46Z</time>
      </trkpt>
      <trkpt lat="44.89871" lon="0.61513">
        <ele>70.8</ele>
        <time>2023-08-06T07:20:48Z</time>
      </trkpt>
      <trkpt lat="44.89869" lon="0.6151">
        <ele>70.8</ele>
        <time>2023-08-06T07:20:49Z</time>
      </trkpt>
      <trkpt lat="44.89868" lon="0.61506">
        <ele>70.9</ele>
        <time>2023-08-06T07:20:50Z</time>
      </trkpt>
      <trkpt lat="44.89866" lon="0.61499">
        <ele>70.9</ele>
        <time>2023-08-06T07:20:52Z</time>
      </trkpt>
      <trkpt lat="44.89864" lon="0.61491">
        <ele>71</ele>
        <time>2023-08-06T07:20:54Z</time>
      </trkpt>
      <trkpt lat="44.89863" lon="0.61487">
        <ele>71.1</ele>
        <time>2023-08-06T07:20:55Z</time>
      </trkpt>
      <trkpt lat="44.89863" lon="0.61483">
        <ele>71.2</ele>
        <time>2023-08-06T07:20:56Z</time>
      </trkpt>
      <trkpt lat="44.89861" lon="0.61474">
        <ele>71.3</ele>
        <time>2023-08-06T07:20:58Z</time>
      </trkpt>
      <trkpt lat="44.89861" lon="0.61466">
        <ele>71.4</ele>
        <time>2023-08-06T07:21:00Z</time>
      </trkpt>
      <trkpt lat="44.8986" lon="0.61457">
        <ele>71.5</ele>
        <time>2023-08-06T07:21:02Z</time>
      </trkpt>
      <trkpt lat="44.8986" lon="0.61449">
        <ele>71.7</ele>
        <time>2023-08-06T07:21:04Z</time>
      </trkpt>
      <trkpt lat="44.8986" lon="0.61446">
        <ele>71.7</ele>
        <time>2023-08-06T07:21:05Z</time>
      </trkpt>
      <trkpt lat="44.8986" lon="0.61442">
        <ele>71.7</ele>
        <time>2023-08-06T07:21:06Z</time>
      </trkpt>
      <trkpt lat="44.8986" lon="0.61434">
        <ele>71.9</ele>
        <time>2023-08-06T07:21:08Z</time>
      </trkpt>
      <trkpt lat="44.8986" lon="0.61426">
        <ele>72</ele>
        <time>2023-08-06T07:21:10Z</time>
      </trkpt>
      <trkpt lat="44.89861" lon="0.61423">
        <ele>72</ele>
        <time>2023-08-06T07:21:11Z</time>
      </trkpt>
      <trkpt lat="44.89862" lon="0.6142">
        <ele>72</ele>
        <time>2023-08-06T07:21:12Z</time>
      </trkpt>
      <trkpt lat="44.89864" lon="0.61413">
        <ele>72.2</ele>
        <time>2023-08-06T07:21:14Z</time>
      </trkpt>
      <trkpt lat="44.89866" lon="0.61406">
        <ele>72.3</ele>
        <time>2023-08-06T07:21:16Z</time>
      </trkpt>
      <trkpt lat="44.89869" lon="0.61401">
        <ele>72.7</ele>
        <time>2023-08-06T07:21:18Z</time>
      </trkpt>
      <trkpt lat="44.89872" lon="0.61396">
        <ele>72.9</ele>
        <time>2023-08-06T07:21:20Z</time>
      </trkpt>
      <trkpt lat="44.89875" lon="0.61392">
        <ele>73.1</ele>
        <time>2023-08-06T07:21:22Z</time>
      </trkpt>
      <trkpt lat="44.89878" lon="0.61389">
        <ele>73.3</ele>
        <time>2023-08-06T07:21:24Z</time>
      </trkpt>
      <trkpt lat="44.8988" lon="0.61386">
        <ele>73.5</ele>
        <time>2023-08-06T07:21:26Z</time>
      </trkpt>
      <trkpt lat="44.89883" lon="0.61383">
        <ele>73.7</ele>
        <time>2023-08-06T07:21:28Z</time>
      </trkpt>
      <trkpt lat="44.89884" lon="0.61382">
        <ele>73.8</ele>
        <time>2023-08-06T07:21:29Z</time>
      </trkpt>
      <trkpt lat="44.89886" lon="0.6138">
        <ele>74</ele>
        <time>2023-08-06T07:21:30Z</time>
      </trkpt>
      <trkpt lat="44.89889" lon="0.61378">
        <ele>74.2</ele>
        <time>2023-08-06T07:21:32Z</time>
      </trkpt>
      <trkpt lat="44.89892" lon="0.61377">
        <ele>74.5</ele>
        <time>2023-08-06T07:21:34Z</time>
      </trkpt>
      <trkpt lat="44.89894" lon="0.61376">
        <ele>74.8</ele>
        <time>2023-08-06T07:21:36Z</time>
      </trkpt>
      <trkpt lat="44.89897" lon="0.61376">
        <ele>75.1</ele>
        <time>2023-08-06T07:21:38Z</time>
      </trkpt>
      <trkpt lat="44.899" lon="0.61377">
        <ele>75.4</ele>
        <time>2023-08-06T07:21:40Z</time>
      </trkpt>
      <trkpt lat="44.89903" lon="0.61378">
        <ele>75.8</ele>
        <time>2023-08-06T07:21:42Z</time>
      </trkpt>
      <trkpt lat="44.89906" lon="0.61379">
        <ele>76.1</ele>
        <time>2023-08-06T07:21:44Z</time>
      </trkpt>
      <trkpt lat="44.89908" lon="0.61381">
        <ele>76.5</ele>
        <time>2023-08-06T07:21:46Z</time>
      </trkpt>
      <trkpt lat="44.89911" lon="0.61382">
        <ele>76.8</ele>
        <time>2023-08-06T07:21:48Z</time>
      </trkpt>
      <trkpt lat="44.89914" lon="0.61384">
        <ele>77.2</ele>
        <time>2023-08-06T07:21:50Z</time>
      </trkpt>
      <trkpt lat="44.89916" lon="0.61385">
        <ele>77.6</ele>
        <time>2023-08-06T07:21:52Z</time>
      </trkpt>
      <trkpt lat="44.89919" lon="0.61387">
        <ele>78</ele>
        <time>2023-08-06T07:21:54Z</time>
      </trkpt>
      <trkpt lat="44.89922" lon="0.61389">
        <ele>78.4</ele>
        <time>2023-08-06T07:21:56Z</time>
      </trkpt>
      <trkpt lat="44.89925" lon="0.61391">
        <ele>78.8</ele>
        <time>2023-08-06T07:21:58Z</time>
      </trkpt>
      <trkpt lat="44.89927" lon="0.61391">
        <ele>79</ele>
        <time>2023-08-06T07:21:59Z</time>
      </trkpt>
      <trkpt lat="44.89928" lon="0.61392">
        <ele>79.2</ele>
        <time>2023-08-06T07:22:00Z</time>
      </trkpt>
      <trkpt lat="44.89931" lon="0.61394">
        <ele>79.6</ele>
        <time>2023-08-06T07:22:02Z</time>
      </trkpt>
      <trkpt lat="44.89934" lon="0.61395">
        <ele>80</ele>
        <time>2023-08-06T07:22:04Z</time>
      </trkpt>
      <trkpt lat="44.89937" lon="0.61397">
        <ele>80.3</ele>
        <time>2023-08-06T07:22:06Z</time>
      </trkpt>
      <trkpt lat="44.89938" lon="0.61398">
        <ele>80.5</ele>
        <time>2023-08-06T07:22:07Z</time>
      </trkpt>
      <trkpt lat="44.89939" lon="0.61399">
        <ele>80.7</ele>
        <time>2023-08-06T07:22:08Z</time>
      </trkpt>
      <trkpt lat="44.89942" lon="0.61401">
        <ele>81.1</ele>
        <time>2023-08-06T07:22:10Z</time>
      </trkpt>
      <trkpt lat="44.89944" lon="0.61403">
        <ele>81.3</ele>
        <time>2023-08-06T07:22:12Z</time>
      </trkpt>
      <trkpt lat="44.89946" lon="0.61404">
        <ele>81.6</ele>
        <time>2023-08-06T07:22:14Z</time>
      </trkpt>
      <trkpt lat="44.89948" lon="0.61405">
        <ele>81.8</ele>
        <time>2023-08-06T07:22:15Z</time>
      </trkpt>
      <trkpt lat="44.89949" lon="0.61406">
        <ele>82</ele>
        <time>2023-08-06T07:22:16Z</time>
      </trkpt>
      <trkpt lat="44.89951" lon="0.61408">
        <ele>82.3</ele>
        <time>2023-08-06T07:22:18Z</time>
      </trkpt>
      <trkpt lat="44.89953" lon="0.6141">
        <ele>82.6</ele>
        <time>2023-08-06T07:22:20Z</time>
      </trkpt>
      <trkpt lat="44.89956" lon="0.61412">
        <ele>83</ele>
        <time>2023-08-06T07:22:22Z</time>
      </trkpt>
      <trkpt lat="44.89958" lon="0.61414">
        <ele>83.4</ele>
        <time>2023-08-06T07:22:24Z</time>
      </trkpt>
      <trkpt lat="44.89961" lon="0.61416">
        <ele>83.8</ele>
        <time>2023-08-06T07:22:26Z</time>
      </trkpt>
      <trkpt lat="44.89962" lon="0.61418">
        <ele>84.1</ele>
        <time>2023-08-06T07:22:28Z</time>
      </trkpt>
      <trkpt lat="44.89963" lon="0.61419">
        <ele>84.2</ele>
        <time>2023-08-06T07:22:29Z</time>
      </trkpt>
      <trkpt lat="44.89964" lon="0.61419">
        <ele>84.4</ele>
        <time>2023-08-06T07:22:30Z</time>
      </trkpt>
      <trkpt lat="44.89966" lon="0.6142">
        <ele>84.7</ele>
        <time>2023-08-06T07:22:32Z</time>
      </trkpt>
      <trkpt lat="44.89968" lon="0.61421">
        <ele>84.9</ele>
        <time>2023-08-06T07:22:33Z</time>
      </trkpt>
      <trkpt lat="44.89969" lon="0.61421">
        <ele>85.1</ele>
        <time>2023-08-06T07:22:34Z</time>
      </trkpt>
      <trkpt lat="44.89971" lon="0.61423">
        <ele>85.5</ele>
        <time>2023-08-06T07:22:36Z</time>
      </trkpt>
      <trkpt lat="44.89972" lon="0.61423">
        <ele>85.7</ele>
        <time>2023-08-06T07:22:37Z</time>
      </trkpt>
      <trkpt lat="44.89973" lon="0.61424">
        <ele>85.9</ele>
        <time>2023-08-06T07:22:38Z</time>
      </trkpt>
      <trkpt lat="44.89975" lon="0.61425">
        <ele>86.2</ele>
        <time>2023-08-06T07:22:40Z</time>
      </trkpt>
      <trkpt lat="44.89976" lon="0.61426">
        <ele>86.4</ele>
        <time>2023-08-06T07:22:41Z</time>
      </trkpt>
      <trkpt lat="44.89977" lon="0.61428">
        <ele>86.6</ele>
        <time>2023-08-06T07:22:42Z</time>
      </trkpt>
      <trkpt lat="44.89979" lon="0.61429">
        <ele>87</ele>
        <time>2023-08-06T07:22:44Z</time>
      </trkpt>
      <trkpt lat="44.89982" lon="0.6143">
        <ele>87.3</ele>
        <time>2023-08-06T07:22:46Z</time>
      </trkpt>
      <trkpt lat="44.89984" lon="0.6143">
        <ele>87.7</ele>
        <time>2023-08-06T07:22:48Z</time>
      </trkpt>
      <trkpt lat="44.89986" lon="0.61431">
        <ele>88.1</ele>
        <time>2023-08-06T07:22:50Z</time>
      </trkpt>
      <trkpt lat="44.89988" lon="0.61431">
        <ele>88.4</ele>
        <time>2023-08-06T07:22:52Z</time>
      </trkpt>
      <trkpt lat="44.89991" lon="0.61432">
        <ele>88.8</ele>
        <time>2023-08-06T07:22:54Z</time>
      </trkpt>
      <trkpt lat="44.89992" lon="0.61431">
        <ele>89</ele>
        <time>2023-08-06T07:22:55Z</time>
      </trkpt>
      <trkpt lat="44.89994" lon="0.6143">
        <ele>89.2</ele>
        <time>2023-08-06T07:22:56Z</time>
      </trkpt>
      <trkpt lat="44.89996" lon="0.6143">
        <ele>89.6</ele>
        <time>2023-08-06T07:22:58Z</time>
      </trkpt>
      <trkpt lat="44.89999" lon="0.6143">
        <ele>90</ele>
        <time>2023-08-06T07:23:00Z</time>
      </trkpt>
      <trkpt lat="44.90001" lon="0.61429">
        <ele>90.3</ele>
        <time>2023-08-06T07:23:02Z</time>
      </trkpt>
      <trkpt lat="44.90004" lon="0.61427">
        <ele>90.8</ele>
        <time>2023-08-06T07:23:04Z</time>
      </trkpt>
      <trkpt lat="44.90007" lon="0.61425">
        <ele>91.2</ele>
        <time>2023-08-06T07:23:06Z</time>
      </trkpt>
      <trkpt lat="44.9001" lon="0.61423">
        <ele>91.7</ele>
        <time>2023-08-06T07:23:08Z</time>
      </trkpt>
      <trkpt lat="44.90012" lon="0.61422">
        <ele>91.8</ele>
        <time>2023-08-06T07:23:09Z</time>
      </trkpt>
      <trkpt lat="44.90013" lon="0.61421">
        <ele>92</ele>
        <time>2023-08-06T07:23:10Z</time>
      </trkpt>
      <trkpt lat="44.90015" lon="0.61418">
        <ele>92.4</ele>
        <time>2023-08-06T07:23:12Z</time>
      </trkpt>
      <trkpt lat="44.90017" lon="0.61415">
        <ele>92.8</ele>
        <time>2023-08-06T07:23:14Z</time>
      </trkpt>
      <trkpt lat="44.90019" lon="0.61412">
        <ele>93.1</ele>
        <time>2023-08-06T07:23:16Z</time>
      </trkpt>
      <trkpt lat="44.90021" lon="0.61409">
        <ele>93.5</ele>
        <time>2023-08-06T07:23:18Z</time>
      </trkpt>
      <trkpt lat="44.90022" lon="0.61405">
        <ele>93.8</ele>
        <time>2023-08-06T07:23:20Z</time>
      </trkpt>
      <trkpt lat="44.90023" lon="0.614">
        <ele>93.9</ele>
        <time>2023-08-06T07:23:22Z</time>
      </trkpt>
      <trkpt lat="44.90022" lon="0.61392">
        <ele>93.7</ele>
        <time>2023-08-06T07:23:24Z</time>
      </trkpt>
      <trkpt lat="44.9002" lon="0.61383">
        <ele>93.4</ele>
        <time>2023-08-06T07:23:26Z</time>
      </trkpt>
      <trkpt lat="44.90019" lon="0.61372">
        <ele>93.1</ele>
        <time>2023-08-06T07:23:28Z</time>
      </trkpt>
      <trkpt lat="44.90018" lon="0.61361">
        <ele>92.8</ele>
        <time>2023-08-06T07:23:30Z</time>
      </trkpt>
      <trkpt lat="44.90015" lon="0.61351">
        <ele>92.6</ele>
        <time>2023-08-06T07:23:32Z</time>
      </trkpt>
      <trkpt lat="44.90011" lon="0.61342">
        <ele>92.6</ele>
        <time>2023-08-06T07:23:34Z</time>
      </trkpt>
      <trkpt lat="44.90009" lon="0.61336">
        <ele>92.5</ele>
        <time>2023-08-06T07:23:36Z</time>
      </trkpt>
      <trkpt lat="44.90005" lon="0.6133">
        <ele>92.6</ele>
        <time>2023-08-06T07:23:38Z</time>
      </trkpt>
      <trkpt lat="44.90002" lon="0.61323">
        <ele>92.7</ele>
        <time>2023-08-06T07:23:40Z</time>
      </trkpt>
      <trkpt lat="44.89999" lon="0.61317">
        <ele>92.8</ele>
        <time>2023-08-06T07:23:42Z</time>
      </trkpt>
      <trkpt lat="44.89995" lon="0.61311">
        <ele>93</ele>
        <time>2023-08-06T07:23:44Z</time>
      </trkpt>
      <trkpt lat="44.89992" lon="0.61305">
        <ele>93.2</ele>
        <time>2023-08-06T07:23:46Z</time>
      </trkpt>
      <trkpt lat="44.89988" lon="0.61299">
        <ele>93.4</ele>
        <time>2023-08-06T07:23:48Z</time>
      </trkpt>
      <trkpt lat="44.89985" lon="0.61293">
        <ele>93.7</ele>
        <time>2023-08-06T07:23:50Z</time>
      </trkpt>
      <trkpt lat="44.89983" lon="0.61287">
        <ele>93.9</ele>
        <time>2023-08-06T07:23:52Z</time>
      </trkpt>
      <trkpt lat="44.89982" lon="0.61284">
        <ele>94</ele>
        <time>2023-08-06T07:23:53Z</time>
      </trkpt>
      <trkpt lat="44.89981" lon="0.6128">
        <ele>94.1</ele>
        <time>2023-08-06T07:23:54Z</time>
      </trkpt>
      <trkpt lat="44.89978" lon="0.61275">
        <ele>94.3</ele>
        <time>2023-08-06T07:23:56Z</time>
      </trkpt>
      <trkpt lat="44.89975" lon="0.61268">
        <ele>94.5</ele>
        <time>2023-08-06T07:23:58Z</time>
      </trkpt>
      <trkpt lat="44.89972" lon="0.61261">
        <ele>94.9</ele>
        <time>2023-08-06T07:24:00Z</time>
      </trkpt>
      <trkpt lat="44.89968" lon="0.61254">
        <ele>95.1</ele>
        <time>2023-08-06T07:24:02Z</time>
      </trkpt>
      <trkpt lat="44.89965" lon="0.61248">
        <ele>95.4</ele>
        <time>2023-08-06T07:24:04Z</time>
      </trkpt>
      <trkpt lat="44.89961" lon="0.61242">
        <ele>95.6</ele>
        <time>2023-08-06T07:24:06Z</time>
      </trkpt>
      <trkpt lat="44.89956" lon="0.61235">
        <ele>95.8</ele>
        <time>2023-08-06T07:24:08Z</time>
      </trkpt>
      <trkpt lat="44.89954" lon="0.61231">
        <ele>95.8</ele>
        <time>2023-08-06T07:24:09Z</time>
      </trkpt>
      <trkpt lat="44.89952" lon="0.61228">
        <ele>95.9</ele>
        <time>2023-08-06T07:24:10Z</time>
      </trkpt>
      <trkpt lat="44.89948" lon="0.61218">
        <ele>95.8</ele>
        <time>2023-08-06T07:24:12Z</time>
      </trkpt>
      <trkpt lat="44.89944" lon="0.61208">
        <ele>95.6</ele>
        <time>2023-08-06T07:24:14Z</time>
      </trkpt>
      <trkpt lat="44.89942" lon="0.61202">
        <ele>95.5</ele>
        <time>2023-08-06T07:24:15Z</time>
      </trkpt>
      <trkpt lat="44.8994" lon="0.61196">
        <ele>95.4</ele>
        <time>2023-08-06T07:24:16Z</time>
      </trkpt>
      <trkpt lat="44.89937" lon="0.61184">
        <ele>95.2</ele>
        <time>2023-08-06T07:24:18Z</time>
      </trkpt>
      <trkpt lat="44.89936" lon="0.61179">
        <ele>95.1</ele>
        <time>2023-08-06T07:24:19Z</time>
      </trkpt>
      <trkpt lat="44.89935" lon="0.61173">
        <ele>95.1</ele>
        <time>2023-08-06T07:24:20Z</time>
      </trkpt>
      <trkpt lat="44.89933" lon="0.61161">
        <ele>95.1</ele>
        <time>2023-08-06T07:24:22Z</time>
      </trkpt>
      <trkpt lat="44.89933" lon="0.6115">
        <ele>95.2</ele>
        <time>2023-08-06T07:24:24Z</time>
      </trkpt>
      <trkpt lat="44.89935" lon="0.61141">
        <ele>95.5</ele>
        <time>2023-08-06T07:24:26Z</time>
      </trkpt>
      <trkpt lat="44.89938" lon="0.61132">
        <ele>95.8</ele>
        <time>2023-08-06T07:24:28Z</time>
      </trkpt>
      <trkpt lat="44.89941" lon="0.61125">
        <ele>96.2</ele>
        <time>2023-08-06T07:24:30Z</time>
      </trkpt>
      <trkpt lat="44.89942" lon="0.61119">
        <ele>96.6</ele>
        <time>2023-08-06T07:24:32Z</time>
      </trkpt>
      <trkpt lat="44.89943" lon="0.61116">
        <ele>96.8</ele>
        <time>2023-08-06T07:24:33Z</time>
      </trkpt>
      <trkpt lat="44.89944" lon="0.61113">
        <ele>97</ele>
        <time>2023-08-06T07:24:34Z</time>
      </trkpt>
      <trkpt lat="44.89946" lon="0.61107">
        <ele>97.4</ele>
        <time>2023-08-06T07:24:36Z</time>
      </trkpt>
      <trkpt lat="44.89948" lon="0.61099">
        <ele>98</ele>
        <time>2023-08-06T07:24:38Z</time>
      </trkpt>
      <trkpt lat="44.89949" lon="0.61095">
        <ele>98.3</ele>
        <time>2023-08-06T07:24:39Z</time>
      </trkpt>
      <trkpt lat="44.8995" lon="0.61091">
        <ele>98.6</ele>
        <time>2023-08-06T07:24:40Z</time>
      </trkpt>
      <trkpt lat="44.89951" lon="0.61084">
        <ele>99</ele>
        <time>2023-08-06T07:24:42Z</time>
      </trkpt>
      <trkpt lat="44.89951" lon="0.6108">
        <ele>99.2</ele>
        <time>2023-08-06T07:24:43Z</time>
      </trkpt>
      <trkpt lat="44.89951" lon="0.61078">
        <ele>99.3</ele>
        <time>2023-08-06T07:24:44Z</time>
      </trkpt>
      <trkpt lat="44.89951" lon="0.61073">
        <ele>99.6</ele>
        <time>2023-08-06T07:24:46Z</time>
      </trkpt>
      <trkpt lat="44.89952" lon="0.6107">
        <ele>99.7</ele>
        <time>2023-08-06T07:24:47Z</time>
      </trkpt>
      <trkpt lat="44.89952" lon="0.61066">
        <ele>99.9</ele>
        <time>2023-08-06T07:24:48Z</time>
      </trkpt>
      <trkpt lat="44.89952" lon="0.6106">
        <ele>100.1</ele>
        <time>2023-08-06T07:24:50Z</time>
      </trkpt>
      <trkpt lat="44.89952" lon="0.61059">
        <ele>100.2</ele>
        <time>2023-08-06T07:24:51Z</time>
      </trkpt>
      <trkpt lat="44.89953" lon="0.61056">
        <ele>100.3</ele>
        <time>2023-08-06T07:24:52Z</time>
      </trkpt>
      <trkpt lat="44.89953" lon="0.61049">
        <ele>100.6</ele>
        <time>2023-08-06T07:24:54Z</time>
      </trkpt>
      <trkpt lat="44.89952" lon="0.61045">
        <ele>100.7</ele>
        <time>2023-08-06T07:24:55Z</time>
      </trkpt>
      <trkpt lat="44.89952" lon="0.61041">
        <ele>100.9</ele>
        <time>2023-08-06T07:24:56Z</time>
      </trkpt>
      <trkpt lat="44.89951" lon="0.61033">
        <ele>101.2</ele>
        <time>2023-08-06T07:24:58Z</time>
      </trkpt>
      <trkpt lat="44.8995" lon="0.61026">
        <ele>101.4</ele>
        <time>2023-08-06T07:25:00Z</time>
      </trkpt>
      <trkpt lat="44.89949" lon="0.6102">
        <ele>101.6</ele>
        <time>2023-08-06T07:25:02Z</time>
      </trkpt>
      <trkpt lat="44.89948" lon="0.61016">
        <ele>101.7</ele>
        <time>2023-08-06T07:25:03Z</time>
      </trkpt>
      <trkpt lat="44.89946" lon="0.61013">
        <ele>101.7</ele>
        <time>2023-08-06T07:25:04Z</time>
      </trkpt>
      <trkpt lat="44.89944" lon="0.61007">
        <ele>101.8</ele>
        <time>2023-08-06T07:25:06Z</time>
      </trkpt>
      <trkpt lat="44.89943" lon="0.61003">
        <ele>101.8</ele>
        <time>2023-08-06T07:25:07Z</time>
      </trkpt>
      <trkpt lat="44.89942" lon="0.60998">
        <ele>101.8</ele>
        <time>2023-08-06T07:25:08Z</time>
      </trkpt>
      <trkpt lat="44.89939" lon="0.60988">
        <ele>101.6</ele>
        <time>2023-08-06T07:25:10Z</time>
      </trkpt>
      <trkpt lat="44.89937" lon="0.60983">
        <ele>101.5</ele>
        <time>2023-08-06T07:25:11Z</time>
      </trkpt>
      <trkpt lat="44.89935" lon="0.60977">
        <ele>101.3</ele>
        <time>2023-08-06T07:25:12Z</time>
      </trkpt>
      <trkpt lat="44.89931" lon="0.60964">
        <ele>101</ele>
        <time>2023-08-06T07:25:14Z</time>
      </trkpt>
      <trkpt lat="44.89926" lon="0.60952">
        <ele>100.8</ele>
        <time>2023-08-06T07:25:16Z</time>
      </trkpt>
      <trkpt lat="44.89923" lon="0.60942">
        <ele>100.8</ele>
        <time>2023-08-06T07:25:18Z</time>
      </trkpt>
      <trkpt lat="44.8992" lon="0.60932">
        <ele>100.9</ele>
        <time>2023-08-06T07:25:20Z</time>
      </trkpt>
      <trkpt lat="44.89918" lon="0.60923">
        <ele>101</ele>
        <time>2023-08-06T07:25:22Z</time>
      </trkpt>
      <trkpt lat="44.89916" lon="0.60914">
        <ele>101.4</ele>
        <time>2023-08-06T07:25:24Z</time>
      </trkpt>
      <trkpt lat="44.89914" lon="0.60907">
        <ele>101.7</ele>
        <time>2023-08-06T07:25:26Z</time>
      </trkpt>
      <trkpt lat="44.89914" lon="0.60904">
        <ele>101.8</ele>
        <time>2023-08-06T07:25:27Z</time>
      </trkpt>
      <trkpt lat="44.89914" lon="0.609">
        <ele>102</ele>
        <time>2023-08-06T07:25:28Z</time>
      </trkpt>
      <trkpt lat="44.89915" lon="0.60894">
        <ele>102.4</ele>
        <time>2023-08-06T07:25:30Z</time>
      </trkpt>
      <trkpt lat="44.89916" lon="0.60888">
        <ele>102.9</ele>
        <time>2023-08-06T07:25:32Z</time>
      </trkpt>
      <trkpt lat="44.89918" lon="0.60883">
        <ele>103.3</ele>
        <time>2023-08-06T07:25:34Z</time>
      </trkpt>
      <trkpt lat="44.89919" lon="0.60878">
        <ele>103.7</ele>
        <time>2023-08-06T07:25:36Z</time>
      </trkpt>
      <trkpt lat="44.89921" lon="0.60874">
        <ele>104.1</ele>
        <time>2023-08-06T07:25:38Z</time>
      </trkpt>
      <trkpt lat="44.89922" lon="0.60869">
        <ele>104.5</ele>
        <time>2023-08-06T07:25:40Z</time>
      </trkpt>
      <trkpt lat="44.89923" lon="0.60864">
        <ele>104.9</ele>
        <time>2023-08-06T07:25:42Z</time>
      </trkpt>
      <trkpt lat="44.89924" lon="0.6086">
        <ele>105.3</ele>
        <time>2023-08-06T07:25:44Z</time>
      </trkpt>
      <trkpt lat="44.89925" lon="0.60858">
        <ele>105.5</ele>
        <time>2023-08-06T07:25:45Z</time>
      </trkpt>
      <trkpt lat="44.89926" lon="0.60856">
        <ele>105.6</ele>
        <time>2023-08-06T07:25:46Z</time>
      </trkpt>
      <trkpt lat="44.89926" lon="0.60855">
        <ele>105.8</ele>
        <time>2023-08-06T07:25:47Z</time>
      </trkpt>
      <trkpt lat="44.89927" lon="0.60853">
        <ele>105.9</ele>
        <time>2023-08-06T07:25:48Z</time>
      </trkpt>
      <trkpt lat="44.89929" lon="0.60847">
        <ele>106.3</ele>
        <time>2023-08-06T07:25:50Z</time>
      </trkpt>
      <trkpt lat="44.89931" lon="0.60842">
        <ele>106.7</ele>
        <time>2023-08-06T07:25:52Z</time>
      </trkpt>
      <trkpt lat="44.89933" lon="0.60837">
        <ele>107</ele>
        <time>2023-08-06T07:25:54Z</time>
      </trkpt>
      <trkpt lat="44.89935" lon="0.60831">
        <ele>107.3</ele>
        <time>2023-08-06T07:25:56Z</time>
      </trkpt>
      <trkpt lat="44.89936" lon="0.60828">
        <ele>107.4</ele>
        <time>2023-08-06T07:25:57Z</time>
      </trkpt>
      <trkpt lat="44.89937" lon="0.60825">
        <ele>107.6</ele>
        <time>2023-08-06T07:25:58Z</time>
      </trkpt>
      <trkpt lat="44.89938" lon="0.60822">
        <ele>107.7</ele>
        <time>2023-08-06T07:25:59Z</time>
      </trkpt>
      <trkpt lat="44.89939" lon="0.6082">
        <ele>107.8</ele>
        <time>2023-08-06T07:26:00Z</time>
      </trkpt>
      <trkpt lat="44.8994" lon="0.60816">
        <ele>107.9</ele>
        <time>2023-08-06T07:26:01Z</time>
      </trkpt>
      <trkpt lat="44.89941" lon="0.60813">
        <ele>108.1</ele>
        <time>2023-08-06T07:26:02Z</time>
      </trkpt>
      <trkpt lat="44.89943" lon="0.60807">
        <ele>108.3</ele>
        <time>2023-08-06T07:26:04Z</time>
      </trkpt>
      <trkpt lat="44.89946" lon="0.60801">
        <ele>108.6</ele>
        <time>2023-08-06T07:26:06Z</time>
      </trkpt>
      <trkpt lat="44.89949" lon="0.60795">
        <ele>108.8</ele>
        <time>2023-08-06T07:26:08Z</time>
      </trkpt>
      <trkpt lat="44.89952" lon="0.60789">
        <ele>109</ele>
        <time>2023-08-06T07:26:10Z</time>
      </trkpt>
      <trkpt lat="44.89954" lon="0.60783">
        <ele>109.2</ele>
        <time>2023-08-06T07:26:12Z</time>
      </trkpt>
      <trkpt lat="44.89957" lon="0.60778">
        <ele>109.3</ele>
        <time>2023-08-06T07:26:14Z</time>
      </trkpt>
      <trkpt lat="44.8996" lon="0.60774">
        <ele>109.5</ele>
        <time>2023-08-06T07:26:16Z</time>
      </trkpt>
      <trkpt lat="44.89962" lon="0.60768">
        <ele>109.6</ele>
        <time>2023-08-06T07:26:18Z</time>
      </trkpt>
      <trkpt lat="44.89967" lon="0.60762">
        <ele>109.8</ele>
        <time>2023-08-06T07:26:20Z</time>
      </trkpt>
      <trkpt lat="44.89971" lon="0.60755">
        <ele>109.9</ele>
        <time>2023-08-06T07:26:22Z</time>
      </trkpt>
      <trkpt lat="44.89973" lon="0.60751">
        <ele>109.9</ele>
        <time>2023-08-06T07:26:23Z</time>
      </trkpt>
      <trkpt lat="44.89973" lon="0.60745">
        <ele>110</ele>
        <time>2023-08-06T07:26:24Z</time>
      </trkpt>
      <trkpt lat="44.89973" lon="0.60739">
        <ele>109.8</ele>
        <time>2023-08-06T07:26:25Z</time>
      </trkpt>
      <trkpt lat="44.89971" lon="0.60733">
        <ele>109.7</ele>
        <time>2023-08-06T07:26:26Z</time>
      </trkpt>
      <trkpt lat="44.89968" lon="0.60726">
        <ele>109.5</ele>
        <time>2023-08-06T07:26:27Z</time>
      </trkpt>
      <trkpt lat="44.89965" lon="0.6072">
        <ele>109.2</ele>
        <time>2023-08-06T07:26:28Z</time>
      </trkpt>
      <trkpt lat="44.89959" lon="0.60705">
        <ele>108.7</ele>
        <time>2023-08-06T07:26:30Z</time>
      </trkpt>
      <trkpt lat="44.89952" lon="0.60691">
        <ele>108.2</ele>
        <time>2023-08-06T07:26:32Z</time>
      </trkpt>
      <trkpt lat="44.89949" lon="0.60684">
        <ele>108</ele>
        <time>2023-08-06T07:26:33Z</time>
      </trkpt>
      <trkpt lat="44.89945" lon="0.60678">
        <ele>107.8</ele>
        <time>2023-08-06T07:26:34Z</time>
      </trkpt>
      <trkpt lat="44.89938" lon="0.60663">
        <ele>107.4</ele>
        <time>2023-08-06T07:26:36Z</time>
      </trkpt>
      <trkpt lat="44.89932" lon="0.6065">
        <ele>106.9</ele>
        <time>2023-08-06T07:26:38Z</time>
      </trkpt>
      <trkpt lat="44.89928" lon="0.60643">
        <ele>106.7</ele>
        <time>2023-08-06T07:26:39Z</time>
      </trkpt>
      <trkpt lat="44.89925" lon="0.60637">
        <ele>106.5</ele>
        <time>2023-08-06T07:26:40Z</time>
      </trkpt>
      <trkpt lat="44.89918" lon="0.60623">
        <ele>106.1</ele>
        <time>2023-08-06T07:26:42Z</time>
      </trkpt>
      <trkpt lat="44.89912" lon="0.60609">
        <ele>105.8</ele>
        <time>2023-08-06T07:26:44Z</time>
      </trkpt>
      <trkpt lat="44.89909" lon="0.60603">
        <ele>105.7</ele>
        <time>2023-08-06T07:26:45Z</time>
      </trkpt>
      <trkpt lat="44.89906" lon="0.60597">
        <ele>105.6</ele>
        <time>2023-08-06T07:26:46Z</time>
      </trkpt>
      <trkpt lat="44.899" lon="0.60585">
        <ele>105.5</ele>
        <time>2023-08-06T07:26:48Z</time>
      </trkpt>
      <trkpt lat="44.89895" lon="0.60574">
        <ele>105.4</ele>
        <time>2023-08-06T07:26:50Z</time>
      </trkpt>
      <trkpt lat="44.89895" lon="0.60571">
        <ele>105.3</ele>
        <time>2023-08-06T07:26:51Z</time>
      </trkpt>
      <trkpt lat="44.89896" lon="0.60567">
        <ele>105.3</ele>
        <time>2023-08-06T07:26:52Z</time>
      </trkpt>
      <trkpt lat="44.89894" lon="0.60562">
        <ele>105.3</ele>
        <time>2023-08-06T07:26:53Z</time>
      </trkpt>
      <trkpt lat="44.89892" lon="0.60557">
        <ele>105.2</ele>
        <time>2023-08-06T07:26:54Z</time>
      </trkpt>
      <trkpt lat="44.89887" lon="0.60546">
        <ele>105.1</ele>
        <time>2023-08-06T07:26:56Z</time>
      </trkpt>
      <trkpt lat="44.8988" lon="0.60535">
        <ele>105</ele>
        <time>2023-08-06T07:26:58Z</time>
      </trkpt>
      <trkpt lat="44.89874" lon="0.60527">
        <ele>104.9</ele>
        <time>2023-08-06T07:27:00Z</time>
      </trkpt>
      <trkpt lat="44.89872" lon="0.60525">
        <ele>104.8</ele>
        <time>2023-08-06T07:27:01Z</time>
      </trkpt>
      <trkpt lat="44.8987" lon="0.60524">
        <ele>104.8</ele>
        <time>2023-08-06T07:27:02Z</time>
      </trkpt>
      <trkpt lat="44.89868" lon="0.60524">
        <ele>104.8</ele>
        <time>2023-08-06T07:27:03Z</time>
      </trkpt>
      <trkpt lat="44.89866" lon="0.60525">
        <ele>104.6</ele>
        <time>2023-08-06T07:27:04Z</time>
      </trkpt>
      <trkpt lat="44.89864" lon="0.60525">
        <ele>104.7</ele>
        <time>2023-08-06T07:27:05Z</time>
      </trkpt>
      <trkpt lat="44.89862" lon="0.60526">
        <ele>104.7</ele>
        <time>2023-08-06T07:27:06Z</time>
      </trkpt>
      <trkpt lat="44.89861" lon="0.60527">
        <ele>104.5</ele>
        <time>2023-08-06T07:27:07Z</time>
      </trkpt>
      <trkpt lat="44.8986" lon="0.60529">
        <ele>104.5</ele>
        <time>2023-08-06T07:27:08Z</time>
      </trkpt>
      <trkpt lat="44.89858" lon="0.60529">
        <ele>104.5</ele>
        <time>2023-08-06T07:27:09Z</time>
      </trkpt>
      <trkpt lat="44.89856" lon="0.60529">
        <ele>104.6</ele>
        <time>2023-08-06T07:27:10Z</time>
      </trkpt>
      <trkpt lat="44.89854" lon="0.6053">
        <ele>104.4</ele>
        <time>2023-08-06T07:27:11Z</time>
      </trkpt>
      <trkpt lat="44.89853" lon="0.60531">
        <ele>104.4</ele>
        <time>2023-08-06T07:27:12Z</time>
      </trkpt>
      <trkpt lat="44.89849" lon="0.60535">
        <ele>104.5</ele>
        <time>2023-08-06T07:27:14Z</time>
      </trkpt>
      <trkpt lat="44.89848" lon="0.60537">
        <ele>104.3</ele>
        <time>2023-08-06T07:27:15Z</time>
      </trkpt>
      <trkpt lat="44.89847" lon="0.60539">
        <ele>104.2</ele>
        <time>2023-08-06T07:27:16Z</time>
      </trkpt>
      <trkpt lat="44.89843" lon="0.60542">
        <ele>104.1</ele>
        <time>2023-08-06T07:27:18Z</time>
      </trkpt>
      <trkpt lat="44.89842" lon="0.60544">
        <ele>103.9</ele>
        <time>2023-08-06T07:27:19Z</time>
      </trkpt>
      <trkpt lat="44.8984" lon="0.60545">
        <ele>103.6</ele>
        <time>2023-08-06T07:27:20Z</time>
      </trkpt>
      <trkpt lat="44.89838" lon="0.60545">
        <ele>103.5</ele>
        <time>2023-08-06T07:27:21Z</time>
      </trkpt>
      <trkpt lat="44.89836" lon="0.60544">
        <ele>103.4</ele>
        <time>2023-08-06T07:27:22Z</time>
      </trkpt>
      <trkpt lat="44.89834" lon="0.60543">
        <ele>103.3</ele>
        <time>2023-08-06T07:27:23Z</time>
      </trkpt>
      <trkpt lat="44.89832" lon="0.60543">
        <ele>103.1</ele>
        <time>2023-08-06T07:27:24Z</time>
      </trkpt>
      <trkpt lat="44.89832" lon="0.60542">
        <ele>103</ele>
        <time>2023-08-06T07:27:25Z</time>
      </trkpt>
      <trkpt lat="44.8983" lon="0.6054">
        <ele>102.9</ele>
        <time>2023-08-06T07:27:26Z</time>
      </trkpt>
      <trkpt lat="44.89827" lon="0.60537">
        <ele>102.7</ele>
        <time>2023-08-06T07:27:28Z</time>
      </trkpt>
      <trkpt lat="44.89825" lon="0.60536">
        <ele>102.7</ele>
        <time>2023-08-06T07:27:30Z</time>
      </trkpt>
      <trkpt lat="44.89824" lon="0.60534">
        <ele>102.5</ele>
        <time>2023-08-06T07:27:31Z</time>
      </trkpt>
      <trkpt lat="44.89822" lon="0.60532">
        <ele>102.4</ele>
        <time>2023-08-06T07:27:32Z</time>
      </trkpt>
      <trkpt lat="44.89818" lon="0.60528">
        <ele>102.2</ele>
        <time>2023-08-06T07:27:34Z</time>
      </trkpt>
      <trkpt lat="44.89815" lon="0.60525">
        <ele>102.2</ele>
        <time>2023-08-06T07:27:36Z</time>
      </trkpt>
      <trkpt lat="44.89811" lon="0.60521">
        <ele>102.1</ele>
        <time>2023-08-06T07:27:38Z</time>
      </trkpt>
      <trkpt lat="44.89808" lon="0.60517">
        <ele>102.1</ele>
        <time>2023-08-06T07:27:40Z</time>
      </trkpt>
      <trkpt lat="44.89807" lon="0.60515">
        <ele>102</ele>
        <time>2023-08-06T07:27:41Z</time>
      </trkpt>
      <trkpt lat="44.89807" lon="0.60513">
        <ele>101.8</ele>
        <time>2023-08-06T07:27:42Z</time>
      </trkpt>
      <trkpt lat="44.89804" lon="0.60508">
        <ele>101.7</ele>
        <time>2023-08-06T07:27:44Z</time>
      </trkpt>
      <trkpt lat="44.89802" lon="0.60505">
        <ele>101.6</ele>
        <time>2023-08-06T07:27:45Z</time>
      </trkpt>
      <trkpt lat="44.898" lon="0.60503">
        <ele>101.5</ele>
        <time>2023-08-06T07:27:46Z</time>
      </trkpt>
      <trkpt lat="44.89795" lon="0.605">
        <ele>101.5</ele>
        <time>2023-08-06T07:27:48Z</time>
      </trkpt>
      <trkpt lat="44.89793" lon="0.605">
        <ele>101.3</ele>
        <time>2023-08-06T07:27:49Z</time>
      </trkpt>
      <trkpt lat="44.89791" lon="0.605">
        <ele>101.2</ele>
        <time>2023-08-06T07:27:50Z</time>
      </trkpt>
      <trkpt lat="44.89789" lon="0.605">
        <ele>101.2</ele>
        <time>2023-08-06T07:27:51Z</time>
      </trkpt>
      <trkpt lat="44.89787" lon="0.60501">
        <ele>101</ele>
        <time>2023-08-06T07:27:52Z</time>
      </trkpt>
      <trkpt lat="44.89784" lon="0.60502">
        <ele>101</ele>
        <time>2023-08-06T07:27:54Z</time>
      </trkpt>
      <trkpt lat="44.89781" lon="0.60504">
        <ele>101</ele>
        <time>2023-08-06T07:27:56Z</time>
      </trkpt>
      <trkpt lat="44.89777" lon="0.60508">
        <ele>101.2</ele>
        <time>2023-08-06T07:27:58Z</time>
      </trkpt>
      <trkpt lat="44.89772" lon="0.60511">
        <ele>101.3</ele>
        <time>2023-08-06T07:28:00Z</time>
      </trkpt>
      <trkpt lat="44.89769" lon="0.60512">
        <ele>101.4</ele>
        <time>2023-08-06T07:28:01Z</time>
      </trkpt>
      <trkpt lat="44.89767" lon="0.60511">
        <ele>101.5</ele>
        <time>2023-08-06T07:28:02Z</time>
      </trkpt>
      <trkpt lat="44.89762" lon="0.6051">
        <ele>101.9</ele>
        <time>2023-08-06T07:28:04Z</time>
      </trkpt>
      <trkpt lat="44.89759" lon="0.6051">
        <ele>102</ele>
        <time>2023-08-06T07:28:05Z</time>
      </trkpt>
      <trkpt lat="44.89757" lon="0.60512">
        <ele>101.8</ele>
        <time>2023-08-06T07:28:06Z</time>
      </trkpt>
      <trkpt lat="44.89755" lon="0.60514">
        <ele>101.9</ele>
        <time>2023-08-06T07:28:07Z</time>
      </trkpt>
      <trkpt lat="44.89753" lon="0.60517">
        <ele>101.8</ele>
        <time>2023-08-06T07:28:08Z</time>
      </trkpt>
      <trkpt lat="44.8975" lon="0.60522">
        <ele>101.5</ele>
        <time>2023-08-06T07:28:09Z</time>
      </trkpt>
      <trkpt lat="44.89748" lon="0.60528">
        <ele>101.3</ele>
        <time>2023-08-06T07:28:10Z</time>
      </trkpt>
      <trkpt lat="44.89747" lon="0.60534">
        <ele>100.7</ele>
        <time>2023-08-06T07:28:11Z</time>
      </trkpt>
      <trkpt lat="44.89747" lon="0.6054">
        <ele>100.2</ele>
        <time>2023-08-06T07:28:12Z</time>
      </trkpt>
      <trkpt lat="44.89746" lon="0.60545">
        <ele>99.6</ele>
        <time>2023-08-06T07:28:13Z</time>
      </trkpt>
      <trkpt lat="44.89745" lon="0.6055">
        <ele>98.7</ele>
        <time>2023-08-06T07:28:14Z</time>
      </trkpt>
      <trkpt lat="44.89743" lon="0.60556">
        <ele>98.1</ele>
        <time>2023-08-06T07:28:15Z</time>
      </trkpt>
      <trkpt lat="44.8974" lon="0.60561">
        <ele>97.4</ele>
        <time>2023-08-06T07:28:16Z</time>
      </trkpt>
      <trkpt lat="44.89737" lon="0.60565">
        <ele>96.7</ele>
        <time>2023-08-06T07:28:17Z</time>
      </trkpt>
      <trkpt lat="44.89736" lon="0.6057">
        <ele>95.9</ele>
        <time>2023-08-06T07:28:18Z</time>
      </trkpt>
      <trkpt lat="44.89736" lon="0.60582">
        <ele>93.7</ele>
        <time>2023-08-06T07:28:20Z</time>
      </trkpt>
      <trkpt lat="44.89733" lon="0.60592">
        <ele>92.3</ele>
        <time>2023-08-06T07:28:22Z</time>
      </trkpt>
      <trkpt lat="44.89731" lon="0.60592">
        <ele>92.1</ele>
        <time>2023-08-06T07:28:23Z</time>
      </trkpt>
      <trkpt lat="44.89728" lon="0.60593">
        <ele>91.5</ele>
        <time>2023-08-06T07:28:24Z</time>
      </trkpt>
      <trkpt lat="44.89725" lon="0.60599">
        <ele>90.9</ele>
        <time>2023-08-06T07:28:26Z</time>
      </trkpt>
      <trkpt lat="44.89724" lon="0.60604">
        <ele>90.3</ele>
        <time>2023-08-06T07:28:27Z</time>
      </trkpt>
      <trkpt lat="44.89722" lon="0.60606">
        <ele>89.8</ele>
        <time>2023-08-06T07:28:28Z</time>
      </trkpt>
      <trkpt lat="44.8972" lon="0.60609">
        <ele>89.6</ele>
        <time>2023-08-06T07:28:29Z</time>
      </trkpt>
      <trkpt lat="44.89718" lon="0.60613">
        <ele>89</ele>
        <time>2023-08-06T07:28:30Z</time>
      </trkpt>
      <trkpt lat="44.89715" lon="0.60617">
        <ele>88.5</ele>
        <time>2023-08-06T07:28:31Z</time>
      </trkpt>
      <trkpt lat="44.89711" lon="0.60622">
        <ele>87.9</ele>
        <time>2023-08-06T07:28:32Z</time>
      </trkpt>
      <trkpt lat="44.89706" lon="0.60627">
        <ele>87.2</ele>
        <time>2023-08-06T07:28:33Z</time>
      </trkpt>
      <trkpt lat="44.89704" lon="0.60632">
        <ele>86.1</ele>
        <time>2023-08-06T07:28:34Z</time>
      </trkpt>
      <trkpt lat="44.89703" lon="0.60638">
        <ele>85.5</ele>
        <time>2023-08-06T07:28:35Z</time>
      </trkpt>
      <trkpt lat="44.89701" lon="0.60645">
        <ele>84.3</ele>
        <time>2023-08-06T07:28:36Z</time>
      </trkpt>
      <trkpt lat="44.89698" lon="0.60652">
        <ele>83.6</ele>
        <time>2023-08-06T07:28:37Z</time>
      </trkpt>
      <trkpt lat="44.89694" lon="0.60658">
        <ele>82.4</ele>
        <time>2023-08-06T07:28:38Z</time>
      </trkpt>
      <trkpt lat="44.8969" lon="0.60664">
        <ele>81.6</ele>
        <time>2023-08-06T07:28:39Z</time>
      </trkpt>
      <trkpt lat="44.89685" lon="0.60667">
        <ele>80.7</ele>
        <time>2023-08-06T07:28:40Z</time>
      </trkpt>
      <trkpt lat="44.89681" lon="0.60668">
        <ele>80.5</ele>
        <time>2023-08-06T07:28:41Z</time>
      </trkpt>
      <trkpt lat="44.89677" lon="0.60667">
        <ele>80.1</ele>
        <time>2023-08-06T07:28:42Z</time>
      </trkpt>
      <trkpt lat="44.89672" lon="0.60665">
        <ele>79.8</ele>
        <time>2023-08-06T07:28:43Z</time>
      </trkpt>
      <trkpt lat="44.89668" lon="0.60664">
        <ele>80</ele>
        <time>2023-08-06T07:28:44Z</time>
      </trkpt>
      <trkpt lat="44.89658" lon="0.60665">
        <ele>79.4</ele>
        <time>2023-08-06T07:28:46Z</time>
      </trkpt>
      <trkpt lat="44.89655" lon="0.60666">
        <ele>78.4</ele>
        <time>2023-08-06T07:28:47Z</time>
      </trkpt>
      <trkpt lat="44.89653" lon="0.60667">
        <ele>78.2</ele>
        <time>2023-08-06T07:28:48Z</time>
      </trkpt>
      <trkpt lat="44.89653" lon="0.60669">
        <ele>78.1</ele>
        <time>2023-08-06T07:28:49Z</time>
      </trkpt>
      <trkpt lat="44.89654" lon="0.6067">
        <ele>77.2</ele>
        <time>2023-08-06T07:28:50Z</time>
      </trkpt>
      <trkpt lat="44.89654" lon="0.60674">
        <ele>77</ele>
        <time>2023-08-06T07:28:52Z</time>
      </trkpt>
      <trkpt lat="44.89656" lon="0.60676">
        <ele>76.4</ele>
        <time>2023-08-06T07:28:53Z</time>
      </trkpt>
      <trkpt lat="44.89659" lon="0.6068">
        <ele>75.8</ele>
        <time>2023-08-06T07:28:54Z</time>
      </trkpt>
      <trkpt lat="44.89666" lon="0.60684">
        <ele>75.4</ele>
        <time>2023-08-06T07:28:56Z</time>
      </trkpt>
      <trkpt lat="44.8967" lon="0.60686">
        <ele>75.5</ele>
        <time>2023-08-06T07:28:58Z</time>
      </trkpt>
      <trkpt lat="44.89675" lon="0.60687">
        <ele>75.6</ele>
        <time>2023-08-06T07:29:00Z</time>
      </trkpt>
      <trkpt lat="44.89681" lon="0.60688">
        <ele>75.2</ele>
        <time>2023-08-06T07:29:02Z</time>
      </trkpt>
      <trkpt lat="44.89684" lon="0.60689">
        <ele>75.1</ele>
        <time>2023-08-06T07:29:03Z</time>
      </trkpt>
      <trkpt lat="44.89686" lon="0.60691">
        <ele>74.9</ele>
        <time>2023-08-06T07:29:04Z</time>
      </trkpt>
      <trkpt lat="44.89687" lon="0.60694">
        <ele>74.4</ele>
        <time>2023-08-06T07:29:05Z</time>
      </trkpt>
      <trkpt lat="44.89687" lon="0.60698">
        <ele>73.6</ele>
        <time>2023-08-06T07:29:06Z</time>
      </trkpt>
      <trkpt lat="44.89687" lon="0.60702">
        <ele>72.9</ele>
        <time>2023-08-06T07:29:07Z</time>
      </trkpt>
      <trkpt lat="44.89686" lon="0.60705">
        <ele>72</ele>
        <time>2023-08-06T07:29:08Z</time>
      </trkpt>
      <trkpt lat="44.89686" lon="0.60707">
        <ele>71.8</ele>
        <time>2023-08-06T07:29:09Z</time>
      </trkpt>
      <trkpt lat="44.89687" lon="0.60709">
        <ele>71.2</ele>
        <time>2023-08-06T07:29:10Z</time>
      </trkpt>
      <trkpt lat="44.89687" lon="0.60711">
        <ele>71.1</ele>
        <time>2023-08-06T07:29:11Z</time>
      </trkpt>
      <trkpt lat="44.89688" lon="0.60714">
        <ele>70.3</ele>
        <time>2023-08-06T07:29:12Z</time>
      </trkpt>
      <trkpt lat="44.8969" lon="0.60721">
        <ele>69.8</ele>
        <time>2023-08-06T07:29:14Z</time>
      </trkpt>
      <trkpt lat="44.89692" lon="0.60725">
        <ele>69.2</ele>
        <time>2023-08-06T07:29:15Z</time>
      </trkpt>
      <trkpt lat="44.89693" lon="0.60729">
        <ele>69.1</ele>
        <time>2023-08-06T07:29:16Z</time>
      </trkpt>
      <trkpt lat="44.89695" lon="0.60735">
        <ele>69.1</ele>
        <time>2023-08-06T07:29:18Z</time>
      </trkpt>
      <trkpt lat="44.89697" lon="0.60742">
        <ele>69.1</ele>
        <time>2023-08-06T07:29:20Z</time>
      </trkpt>
      <trkpt lat="44.897" lon="0.60751">
        <ele>69</ele>
        <time>2023-08-06T07:29:22Z</time>
      </trkpt>
      <trkpt lat="44.89702" lon="0.60756">
        <ele>69</ele>
        <time>2023-08-06T07:29:23Z</time>
      </trkpt>
      <trkpt lat="44.89705" lon="0.6076">
        <ele>69</ele>
        <time>2023-08-06T07:29:24Z</time>
      </trkpt>
      <trkpt lat="44.89707" lon="0.60763">
        <ele>68.9</ele>
        <time>2023-08-06T07:29:25Z</time>
      </trkpt>
      <trkpt lat="44.8971" lon="0.60766">
        <ele>68.9</ele>
        <time>2023-08-06T07:29:26Z</time>
      </trkpt>
      <trkpt lat="44.89715" lon="0.6077">
        <ele>68.8</ele>
        <time>2023-08-06T07:29:28Z</time>
      </trkpt>
      <trkpt lat="44.89718" lon="0.60771">
        <ele>68.8</ele>
        <time>2023-08-06T07:29:29Z</time>
      </trkpt>
      <trkpt lat="44.89721" lon="0.60772">
        <ele>68.8</ele>
        <time>2023-08-06T07:29:30Z</time>
      </trkpt>
      <trkpt lat="44.89723" lon="0.60773">
        <ele>68.8</ele>
        <time>2023-08-06T07:29:31Z</time>
      </trkpt>
      <trkpt lat="44.89724" lon="0.60774">
        <ele>68.7</ele>
        <time>2023-08-06T07:29:32Z</time>
      </trkpt>
      <trkpt lat="44.89726" lon="0.60779">
        <ele>68.7</ele>
        <time>2023-08-06T07:29:34Z</time>
      </trkpt>
      <trkpt lat="44.89727" lon="0.60787">
        <ele>68.7</ele>
        <time>2023-08-06T07:29:36Z</time>
      </trkpt>
      <trkpt lat="44.89731" lon="0.60794">
        <ele>68.8</ele>
        <time>2023-08-06T07:29:38Z</time>
      </trkpt>
      <trkpt lat="44.89736" lon="0.60804">
        <ele>68.8</ele>
        <time>2023-08-06T07:29:40Z</time>
      </trkpt>
      <trkpt lat="44.89742" lon="0.60815">
        <ele>68.9</ele>
        <time>2023-08-06T07:29:42Z</time>
      </trkpt>
      <trkpt lat="44.89745" lon="0.6082">
        <ele>69</ele>
        <time>2023-08-06T07:29:43Z</time>
      </trkpt>
      <trkpt lat="44.89749" lon="0.60825">
        <ele>69</ele>
        <time>2023-08-06T07:29:44Z</time>
      </trkpt>
      <trkpt lat="44.89754" lon="0.6083">
        <ele>69.1</ele>
        <time>2023-08-06T07:29:45Z</time>
      </trkpt>
      <trkpt lat="44.89757" lon="0.60837">
        <ele>69.1</ele>
        <time>2023-08-06T07:29:46Z</time>
      </trkpt>
      <trkpt lat="44.89761" lon="0.60844">
        <ele>69.2</ele>
        <time>2023-08-06T07:29:47Z</time>
      </trkpt>
      <trkpt lat="44.89764" lon="0.60852">
        <ele>69.2</ele>
        <time>2023-08-06T07:29:48Z</time>
      </trkpt>
      <trkpt lat="44.89769" lon="0.60865">
        <ele>69.1</ele>
        <time>2023-08-06T07:29:50Z</time>
      </trkpt>
      <trkpt lat="44.89775" lon="0.60881">
        <ele>69</ele>
        <time>2023-08-06T07:29:52Z</time>
      </trkpt>
      <trkpt lat="44.89778" lon="0.60888">
        <ele>69</ele>
        <time>2023-08-06T07:29:53Z</time>
      </trkpt>
      <trkpt lat="44.89781" lon="0.60896">
        <ele>68.9</ele>
        <time>2023-08-06T07:29:54Z</time>
      </trkpt>
      <trkpt lat="44.89786" lon="0.60909">
        <ele>68.9</ele>
        <time>2023-08-06T07:29:56Z</time>
      </trkpt>
      <trkpt lat="44.89787" lon="0.60915">
        <ele>68.8</ele>
        <time>2023-08-06T07:29:57Z</time>
      </trkpt>
      <trkpt lat="44.89788" lon="0.6092">
        <ele>68.8</ele>
        <time>2023-08-06T07:29:58Z</time>
      </trkpt>
      <trkpt lat="44.89789" lon="0.60925">
        <ele>68.8</ele>
        <time>2023-08-06T07:29:59Z</time>
      </trkpt>
      <trkpt lat="44.89792" lon="0.60928">
        <ele>68.8</ele>
        <time>2023-08-06T07:30:00Z</time>
      </trkpt>
      <trkpt lat="44.89794" lon="0.60931">
        <ele>68.8</ele>
        <time>2023-08-06T07:30:01Z</time>
      </trkpt>
      <trkpt lat="44.89796" lon="0.60932">
        <ele>68.8</ele>
        <time>2023-08-06T07:30:02Z</time>
      </trkpt>
      <trkpt lat="44.89797" lon="0.60934">
        <ele>68.8</ele>
        <time>2023-08-06T07:30:03Z</time>
      </trkpt>
      <trkpt lat="44.89798" lon="0.60937">
        <ele>68.8</ele>
        <time>2023-08-06T07:30:04Z</time>
      </trkpt>
      <trkpt lat="44.89798" lon="0.60939">
        <ele>68.8</ele>
        <time>2023-08-06T07:30:05Z</time>
      </trkpt>
      <trkpt lat="44.898" lon="0.60943">
        <ele>68.8</ele>
        <time>2023-08-06T07:30:06Z</time>
      </trkpt>
      <trkpt lat="44.89804" lon="0.60948">
        <ele>68.8</ele>
        <time>2023-08-06T07:30:08Z</time>
      </trkpt>
      <trkpt lat="44.89806" lon="0.60949">
        <ele>68.8</ele>
        <time>2023-08-06T07:30:09Z</time>
      </trkpt>
      <trkpt lat="44.89808" lon="0.6095">
        <ele>68.8</ele>
        <time>2023-08-06T07:30:10Z</time>
      </trkpt>
      <trkpt lat="44.8981" lon="0.60956">
        <ele>68.7</ele>
        <time>2023-08-06T07:30:12Z</time>
      </trkpt>
      <trkpt lat="44.89811" lon="0.6096">
        <ele>68.7</ele>
        <time>2023-08-06T07:30:13Z</time>
      </trkpt>
      <trkpt lat="44.89811" lon="0.60962">
        <ele>68.7</ele>
        <time>2023-08-06T07:30:14Z</time>
      </trkpt>
      <trkpt lat="44.89814" lon="0.60964">
        <ele>68.7</ele>
        <time>2023-08-06T07:30:16Z</time>
      </trkpt>
      <trkpt lat="44.89814" lon="0.60965">
        <ele>68.7</ele>
        <time>2023-08-06T07:30:17Z</time>
      </trkpt>
      <trkpt lat="44.89812" lon="0.60967">
        <ele>68.7</ele>
        <time>2023-08-06T07:30:18Z</time>
      </trkpt>
      <trkpt lat="44.89809" lon="0.60969">
        <ele>68.7</ele>
        <time>2023-08-06T07:30:19Z</time>
      </trkpt>
      <trkpt lat="44.89806" lon="0.60971">
        <ele>68.7</ele>
        <time>2023-08-06T07:30:20Z</time>
      </trkpt>
      <trkpt lat="44.89802" lon="0.60976">
        <ele>68.6</ele>
        <time>2023-08-06T07:30:21Z</time>
      </trkpt>
      <trkpt lat="44.89799" lon="0.6098">
        <ele>68.6</ele>
        <time>2023-08-06T07:30:22Z</time>
      </trkpt>
      <trkpt lat="44.89796" lon="0.60983">
        <ele>68.6</ele>
        <time>2023-08-06T07:30:23Z</time>
      </trkpt>
      <trkpt lat="44.89791" lon="0.60987">
        <ele>68.6</ele>
        <time>2023-08-06T07:30:24Z</time>
      </trkpt>
      <trkpt lat="44.89785" lon="0.60994">
        <ele>68.5</ele>
        <time>2023-08-06T07:30:26Z</time>
      </trkpt>
      <trkpt lat="44.89784" lon="0.60998">
        <ele>68.5</ele>
        <time>2023-08-06T07:30:27Z</time>
      </trkpt>
      <trkpt lat="44.89783" lon="0.61">
        <ele>68.5</ele>
        <time>2023-08-06T07:30:28Z</time>
      </trkpt>
      <trkpt lat="44.89782" lon="0.61003">
        <ele>68.5</ele>
        <time>2023-08-06T07:30:30Z</time>
      </trkpt>
      <trkpt lat="44.89782" lon="0.61003">
        <ele>68.5</ele>
        <time>2023-08-06T07:30:31Z</time>
      </trkpt>
      <trkpt lat="44.89782" lon="0.61006">
        <ele>68.6</ele>
        <time>2023-08-06T07:30:32Z</time>
      </trkpt>
      <trkpt lat="44.89782" lon="0.61006">
        <ele>68.6</ele>
        <time>2023-08-06T07:30:33Z</time>
      </trkpt>
      <trkpt lat="44.8978" lon="0.61007">
        <ele>68.6</ele>
        <time>2023-08-06T07:30:34Z</time>
      </trkpt>
      <trkpt lat="44.89779" lon="0.61005">
        <ele>68.6</ele>
        <time>2023-08-06T07:30:35Z</time>
      </trkpt>
      <trkpt lat="44.89778" lon="0.61004">
        <ele>68.6</ele>
        <time>2023-08-06T07:30:36Z</time>
      </trkpt>
      <trkpt lat="44.89776" lon="0.60998">
        <ele>68.6</ele>
        <time>2023-08-06T07:30:38Z</time>
      </trkpt>
      <trkpt lat="44.89774" lon="0.6099">
        <ele>68.7</ele>
        <time>2023-08-06T07:30:40Z</time>
      </trkpt>
      <trkpt lat="44.89772" lon="0.60982">
        <ele>68.7</ele>
        <time>2023-08-06T07:30:42Z</time>
      </trkpt>
      <trkpt lat="44.89769" lon="0.60974">
        <ele>68.7</ele>
        <time>2023-08-06T07:30:44Z</time>
      </trkpt>
      <trkpt lat="44.89766" lon="0.60966">
        <ele>68.8</ele>
        <time>2023-08-06T07:30:46Z</time>
      </trkpt>
      <trkpt lat="44.89763" lon="0.60957">
        <ele>68.8</ele>
        <time>2023-08-06T07:30:48Z</time>
      </trkpt>
      <trkpt lat="44.89762" lon="0.60953">
        <ele>68.8</ele>
        <time>2023-08-06T07:30:49Z</time>
      </trkpt>
      <trkpt lat="44.89761" lon="0.60948">
        <ele>68.8</ele>
        <time>2023-08-06T07:30:50Z</time>
      </trkpt>
      <trkpt lat="44.89758" lon="0.60939">
        <ele>68.8</ele>
        <time>2023-08-06T07:30:52Z</time>
      </trkpt>
      <trkpt lat="44.89755" lon="0.6093">
        <ele>68.8</ele>
        <time>2023-08-06T07:30:54Z</time>
      </trkpt>
      <trkpt lat="44.89753" lon="0.60922">
        <ele>68.9</ele>
        <time>2023-08-06T07:30:56Z</time>
      </trkpt>
      <trkpt lat="44.89749" lon="0.60915">
        <ele>68.9</ele>
        <time>2023-08-06T07:30:58Z</time>
      </trkpt>
      <trkpt lat="44.89746" lon="0.60906">
        <ele>69</ele>
        <time>2023-08-06T07:31:00Z</time>
      </trkpt>
      <trkpt lat="44.89743" lon="0.60898">
        <ele>69</ele>
        <time>2023-08-06T07:31:02Z</time>
      </trkpt>
      <trkpt lat="44.8974" lon="0.60891">
        <ele>69.1</ele>
        <time>2023-08-06T07:31:04Z</time>
      </trkpt>
      <trkpt lat="44.89736" lon="0.60883">
        <ele>69.1</ele>
        <time>2023-08-06T07:31:06Z</time>
      </trkpt>
      <trkpt lat="44.89732" lon="0.60876">
        <ele>69.2</ele>
        <time>2023-08-06T07:31:08Z</time>
      </trkpt>
      <trkpt lat="44.89729" lon="0.60868">
        <ele>69.1</ele>
        <time>2023-08-06T07:31:10Z</time>
      </trkpt>
      <trkpt lat="44.89727" lon="0.60864">
        <ele>69.1</ele>
        <time>2023-08-06T07:31:11Z</time>
      </trkpt>
      <trkpt lat="44.89725" lon="0.6086">
        <ele>69.1</ele>
        <time>2023-08-06T07:31:12Z</time>
      </trkpt>
      <trkpt lat="44.89722" lon="0.60852">
        <ele>69</ele>
        <time>2023-08-06T07:31:14Z</time>
      </trkpt>
      <trkpt lat="44.89717" lon="0.60844">
        <ele>68.9</ele>
        <time>2023-08-06T07:31:16Z</time>
      </trkpt>
      <trkpt lat="44.89713" lon="0.60835">
        <ele>68.8</ele>
        <time>2023-08-06T07:31:18Z</time>
      </trkpt>
      <trkpt lat="44.89708" lon="0.60826">
        <ele>68.7</ele>
        <time>2023-08-06T07:31:20Z</time>
      </trkpt>
      <trkpt lat="44.89703" lon="0.60818">
        <ele>68.7</ele>
        <time>2023-08-06T07:31:22Z</time>
      </trkpt>
      <trkpt lat="44.89699" lon="0.6081">
        <ele>68.8</ele>
        <time>2023-08-06T07:31:24Z</time>
      </trkpt>
      <trkpt lat="44.89696" lon="0.60806">
        <ele>68.8</ele>
        <time>2023-08-06T07:31:25Z</time>
      </trkpt>
      <trkpt lat="44.89693" lon="0.60803">
        <ele>68.8</ele>
        <time>2023-08-06T07:31:26Z</time>
      </trkpt>
      <trkpt lat="44.89688" lon="0.60796">
        <ele>68.9</ele>
        <time>2023-08-06T07:31:28Z</time>
      </trkpt>
      <trkpt lat="44.89686" lon="0.60792">
        <ele>69</ele>
        <time>2023-08-06T07:31:29Z</time>
      </trkpt>
      <trkpt lat="44.89683" lon="0.60789">
        <ele>69</ele>
        <time>2023-08-06T07:31:30Z</time>
      </trkpt>
      <trkpt lat="44.89677" lon="0.60783">
        <ele>69.1</ele>
        <time>2023-08-06T07:31:32Z</time>
      </trkpt>
      <trkpt lat="44.89672" lon="0.60776">
        <ele>69.1</ele>
        <time>2023-08-06T07:31:34Z</time>
      </trkpt>
      <trkpt lat="44.89666" lon="0.6077">
        <ele>69.2</ele>
        <time>2023-08-06T07:31:36Z</time>
      </trkpt>
      <trkpt lat="44.8966" lon="0.60764">
        <ele>69.4</ele>
        <time>2023-08-06T07:31:38Z</time>
      </trkpt>
      <trkpt lat="44.89657" lon="0.60761">
        <ele>69.5</ele>
        <time>2023-08-06T07:31:39Z</time>
      </trkpt>
      <trkpt lat="44.89654" lon="0.60758">
        <ele>69.5</ele>
        <time>2023-08-06T07:31:40Z</time>
      </trkpt>
      <trkpt lat="44.89649" lon="0.60752">
        <ele>69.7</ele>
        <time>2023-08-06T07:31:42Z</time>
      </trkpt>
      <trkpt lat="44.89643" lon="0.60747">
        <ele>69.9</ele>
        <time>2023-08-06T07:31:44Z</time>
      </trkpt>
      <trkpt lat="44.89641" lon="0.60744">
        <ele>69.9</ele>
        <time>2023-08-06T07:31:45Z</time>
      </trkpt>
      <trkpt lat="44.89638" lon="0.60742">
        <ele>70</ele>
        <time>2023-08-06T07:31:46Z</time>
      </trkpt>
      <trkpt lat="44.89633" lon="0.60738">
        <ele>70.1</ele>
        <time>2023-08-06T07:31:48Z</time>
      </trkpt>
      <trkpt lat="44.89629" lon="0.60735">
        <ele>70.1</ele>
        <time>2023-08-06T07:31:49Z</time>
      </trkpt>
      <trkpt lat="44.89625" lon="0.60733">
        <ele>70.1</ele>
        <time>2023-08-06T07:31:50Z</time>
      </trkpt>
      <trkpt lat="44.89618" lon="0.6073">
        <ele>70.2</ele>
        <time>2023-08-06T07:31:52Z</time>
      </trkpt>
      <trkpt lat="44.89611" lon="0.60726">
        <ele>70.2</ele>
        <time>2023-08-06T07:31:54Z</time>
      </trkpt>
      <trkpt lat="44.89604" lon="0.60721">
        <ele>70.3</ele>
        <time>2023-08-06T07:31:56Z</time>
      </trkpt>
      <trkpt lat="44.89598" lon="0.60717">
        <ele>70.4</ele>
        <time>2023-08-06T07:31:58Z</time>
      </trkpt>
      <trkpt lat="44.89591" lon="0.60713">
        <ele>70.5</ele>
        <time>2023-08-06T07:32:00Z</time>
      </trkpt>
      <trkpt lat="44.89584" lon="0.60708">
        <ele>70.5</ele>
        <time>2023-08-06T07:32:02Z</time>
      </trkpt>
      <trkpt lat="44.89578" lon="0.60704">
        <ele>70.6</ele>
        <time>2023-08-06T07:32:04Z</time>
      </trkpt>
      <trkpt lat="44.89571" lon="0.607">
        <ele>70.7</ele>
        <time>2023-08-06T07:32:06Z</time>
      </trkpt>
      <trkpt lat="44.89564" lon="0.60696">
        <ele>70.8</ele>
        <time>2023-08-06T07:32:08Z</time>
      </trkpt>
      <trkpt lat="44.89558" lon="0.6069">
        <ele>70.9</ele>
        <time>2023-08-06T07:32:10Z</time>
      </trkpt>
      <trkpt lat="44.89553" lon="0.60683">
        <ele>71.1</ele>
        <time>2023-08-06T07:32:12Z</time>
      </trkpt>
      <trkpt lat="44.89547" lon="0.60678">
        <ele>71.3</ele>
        <time>2023-08-06T07:32:14Z</time>
      </trkpt>
      <trkpt lat="44.89545" lon="0.60674">
        <ele>71.4</ele>
        <time>2023-08-06T07:32:15Z</time>
      </trkpt>
      <trkpt lat="44.89541" lon="0.60672">
        <ele>71.5</ele>
        <time>2023-08-06T07:32:16Z</time>
      </trkpt>
      <trkpt lat="44.89536" lon="0.60665">
        <ele>71.7</ele>
        <time>2023-08-06T07:32:18Z</time>
      </trkpt>
      <trkpt lat="44.89533" lon="0.60661">
        <ele>71.9</ele>
        <time>2023-08-06T07:32:19Z</time>
      </trkpt>
      <trkpt lat="44.89531" lon="0.60658">
        <ele>72</ele>
        <time>2023-08-06T07:32:20Z</time>
      </trkpt>
      <trkpt lat="44.89526" lon="0.6065">
        <ele>72.3</ele>
        <time>2023-08-06T07:32:22Z</time>
      </trkpt>
      <trkpt lat="44.89522" lon="0.60642">
        <ele>72.6</ele>
        <time>2023-08-06T07:32:24Z</time>
      </trkpt>
      <trkpt lat="44.89518" lon="0.60635">
        <ele>72.9</ele>
        <time>2023-08-06T07:32:26Z</time>
      </trkpt>
      <trkpt lat="44.89516" lon="0.60632">
        <ele>73.1</ele>
        <time>2023-08-06T07:32:27Z</time>
      </trkpt>
      <trkpt lat="44.89515" lon="0.60629">
        <ele>73.2</ele>
        <time>2023-08-06T07:32:28Z</time>
      </trkpt>
      <trkpt lat="44.8951" lon="0.60622">
        <ele>73.5</ele>
        <time>2023-08-06T07:32:30Z</time>
      </trkpt>
      <trkpt lat="44.89506" lon="0.60616">
        <ele>73.8</ele>
        <time>2023-08-06T07:32:32Z</time>
      </trkpt>
      <trkpt lat="44.89504" lon="0.60613">
        <ele>74</ele>
        <time>2023-08-06T07:32:33Z</time>
      </trkpt>
      <trkpt lat="44.89502" lon="0.6061">
        <ele>74.1</ele>
        <time>2023-08-06T07:32:34Z</time>
      </trkpt>
      <trkpt lat="44.89497" lon="0.60603">
        <ele>74.3</ele>
        <time>2023-08-06T07:32:36Z</time>
      </trkpt>
      <trkpt lat="44.89493" lon="0.60597">
        <ele>74.4</ele>
        <time>2023-08-06T07:32:38Z</time>
      </trkpt>
      <trkpt lat="44.89488" lon="0.6059">
        <ele>74.3</ele>
        <time>2023-08-06T07:32:40Z</time>
      </trkpt>
      <trkpt lat="44.89483" lon="0.60583">
        <ele>74.1</ele>
        <time>2023-08-06T07:32:42Z</time>
      </trkpt>
      <trkpt lat="44.89477" lon="0.60576">
        <ele>73.7</ele>
        <time>2023-08-06T07:32:44Z</time>
      </trkpt>
      <trkpt lat="44.89471" lon="0.60569">
        <ele>73.3</ele>
        <time>2023-08-06T07:32:46Z</time>
      </trkpt>
      <trkpt lat="44.89468" lon="0.60566">
        <ele>73.1</ele>
        <time>2023-08-06T07:32:47Z</time>
      </trkpt>
      <trkpt lat="44.89467" lon="0.60563">
        <ele>72.9</ele>
        <time>2023-08-06T07:32:48Z</time>
      </trkpt>
      <trkpt lat="44.89465" lon="0.60558">
        <ele>72.7</ele>
        <time>2023-08-06T07:32:50Z</time>
      </trkpt>
      <trkpt lat="44.89464" lon="0.60557">
        <ele>72.6</ele>
        <time>2023-08-06T07:32:52Z</time>
      </trkpt>
      <trkpt lat="44.89457" lon="0.60564">
        <ele>72.1</ele>
        <time>2023-08-06T07:38:16Z</time>
      </trkpt>
      <trkpt lat="44.89458" lon="0.60569">
        <ele>71.7</ele>
        <time>2023-08-06T07:38:18Z</time>
      </trkpt>
      <trkpt lat="44.89459" lon="0.60572">
        <ele>71.6</ele>
        <time>2023-08-06T07:38:19Z</time>
      </trkpt>
      <trkpt lat="44.89459" lon="0.60576">
        <ele>71.5</ele>
        <time>2023-08-06T07:38:20Z</time>
      </trkpt>
      <trkpt lat="44.8946" lon="0.60586">
        <ele>71.2</ele>
        <time>2023-08-06T07:38:22Z</time>
      </trkpt>
      <trkpt lat="44.89461" lon="0.60591">
        <ele>71</ele>
        <time>2023-08-06T07:38:23Z</time>
      </trkpt>
      <trkpt lat="44.89461" lon="0.60597">
        <ele>70.8</ele>
        <time>2023-08-06T07:38:24Z</time>
      </trkpt>
      <trkpt lat="44.89461" lon="0.60609">
        <ele>70.5</ele>
        <time>2023-08-06T07:38:26Z</time>
      </trkpt>
      <trkpt lat="44.8946" lon="0.60614">
        <ele>70.4</ele>
        <time>2023-08-06T07:38:27Z</time>
      </trkpt>
      <trkpt lat="44.89458" lon="0.60619">
        <ele>70.2</ele>
        <time>2023-08-06T07:38:28Z</time>
      </trkpt>
      <trkpt lat="44.89455" lon="0.6063">
        <ele>69.9</ele>
        <time>2023-08-06T07:38:30Z</time>
      </trkpt>
      <trkpt lat="44.89452" lon="0.60642">
        <ele>69.6</ele>
        <time>2023-08-06T07:38:32Z</time>
      </trkpt>
      <trkpt lat="44.89448" lon="0.60652">
        <ele>69.4</ele>
        <time>2023-08-06T07:38:34Z</time>
      </trkpt>
      <trkpt lat="44.89445" lon="0.60658">
        <ele>69.2</ele>
        <time>2023-08-06T07:38:35Z</time>
      </trkpt>
      <trkpt lat="44.89443" lon="0.60664">
        <ele>69.1</ele>
        <time>2023-08-06T07:38:36Z</time>
      </trkpt>
      <trkpt lat="44.89438" lon="0.60676">
        <ele>68.9</ele>
        <time>2023-08-06T07:38:38Z</time>
      </trkpt>
      <trkpt lat="44.89434" lon="0.60688">
        <ele>68.8</ele>
        <time>2023-08-06T07:38:40Z</time>
      </trkpt>
      <trkpt lat="44.89429" lon="0.607">
        <ele>68.7</ele>
        <time>2023-08-06T07:38:42Z</time>
      </trkpt>
      <trkpt lat="44.89425" lon="0.60711">
        <ele>68.7</ele>
        <time>2023-08-06T07:38:44Z</time>
      </trkpt>
      <trkpt lat="44.89421" lon="0.60721">
        <ele>68.7</ele>
        <time>2023-08-06T07:38:46Z</time>
      </trkpt>
      <trkpt lat="44.89419" lon="0.60727">
        <ele>68.7</ele>
        <time>2023-08-06T07:38:47Z</time>
      </trkpt>
      <trkpt lat="44.89417" lon="0.60731">
        <ele>68.7</ele>
        <time>2023-08-06T07:38:48Z</time>
      </trkpt>
      <trkpt lat="44.89413" lon="0.6074">
        <ele>68.7</ele>
        <time>2023-08-06T07:38:50Z</time>
      </trkpt>
      <trkpt lat="44.89409" lon="0.6075">
        <ele>68.7</ele>
        <time>2023-08-06T07:38:52Z</time>
      </trkpt>
      <trkpt lat="44.89405" lon="0.60761">
        <ele>68.7</ele>
        <time>2023-08-06T07:38:54Z</time>
      </trkpt>
      <trkpt lat="44.89401" lon="0.60772">
        <ele>68.7</ele>
        <time>2023-08-06T07:38:56Z</time>
      </trkpt>
      <trkpt lat="44.89396" lon="0.60783">
        <ele>68.7</ele>
        <time>2023-08-06T07:38:58Z</time>
      </trkpt>
      <trkpt lat="44.89394" lon="0.60788">
        <ele>68.7</ele>
        <time>2023-08-06T07:38:59Z</time>
      </trkpt>
      <trkpt lat="44.89391" lon="0.60794">
        <ele>68.8</ele>
        <time>2023-08-06T07:39:00Z</time>
      </trkpt>
      <trkpt lat="44.89387" lon="0.60804">
        <ele>68.8</ele>
        <time>2023-08-06T07:39:02Z</time>
      </trkpt>
      <trkpt lat="44.89384" lon="0.60809">
        <ele>68.9</ele>
        <time>2023-08-06T07:39:03Z</time>
      </trkpt>
      <trkpt lat="44.89382" lon="0.60815">
        <ele>68.9</ele>
        <time>2023-08-06T07:39:04Z</time>
      </trkpt>
      <trkpt lat="44.89377" lon="0.60825">
        <ele>69.1</ele>
        <time>2023-08-06T07:39:06Z</time>
      </trkpt>
      <trkpt lat="44.89374" lon="0.6083">
        <ele>69.2</ele>
        <time>2023-08-06T07:39:07Z</time>
      </trkpt>
      <trkpt lat="44.89372" lon="0.60835">
        <ele>69.3</ele>
        <time>2023-08-06T07:39:08Z</time>
      </trkpt>
      <trkpt lat="44.89367" lon="0.60845">
        <ele>69.4</ele>
        <time>2023-08-06T07:39:10Z</time>
      </trkpt>
      <trkpt lat="44.89362" lon="0.60854">
        <ele>69.7</ele>
        <time>2023-08-06T07:39:12Z</time>
      </trkpt>
      <trkpt lat="44.89358" lon="0.60864">
        <ele>69.9</ele>
        <time>2023-08-06T07:39:14Z</time>
      </trkpt>
      <trkpt lat="44.89356" lon="0.60869">
        <ele>70</ele>
        <time>2023-08-06T07:39:15Z</time>
      </trkpt>
      <trkpt lat="44.89354" lon="0.60873">
        <ele>70.1</ele>
        <time>2023-08-06T07:39:16Z</time>
      </trkpt>
      <trkpt lat="44.89349" lon="0.60882">
        <ele>70.4</ele>
        <time>2023-08-06T07:39:18Z</time>
      </trkpt>
      <trkpt lat="44.89345" lon="0.6089">
        <ele>70.7</ele>
        <time>2023-08-06T07:39:20Z</time>
      </trkpt>
      <trkpt lat="44.89341" lon="0.60898">
        <ele>71</ele>
        <time>2023-08-06T07:39:22Z</time>
      </trkpt>
      <trkpt lat="44.89339" lon="0.60902">
        <ele>71.2</ele>
        <time>2023-08-06T07:39:23Z</time>
      </trkpt>
      <trkpt lat="44.89337" lon="0.60906">
        <ele>71.4</ele>
        <time>2023-08-06T07:39:24Z</time>
      </trkpt>
      <trkpt lat="44.89334" lon="0.60915">
        <ele>71.8</ele>
        <time>2023-08-06T07:39:26Z</time>
      </trkpt>
      <trkpt lat="44.89331" lon="0.60923">
        <ele>72.1</ele>
        <time>2023-08-06T07:39:28Z</time>
      </trkpt>
      <trkpt lat="44.8933" lon="0.60927">
        <ele>72.3</ele>
        <time>2023-08-06T07:39:29Z</time>
      </trkpt>
      <trkpt lat="44.8933" lon="0.60931">
        <ele>72.4</ele>
        <time>2023-08-06T07:39:30Z</time>
      </trkpt>
      <trkpt lat="44.89331" lon="0.60938">
        <ele>72.3</ele>
        <time>2023-08-06T07:39:32Z</time>
      </trkpt>
      <trkpt lat="44.89333" lon="0.60942">
        <ele>72.1</ele>
        <time>2023-08-06T07:39:33Z</time>
      </trkpt>
      <trkpt lat="44.89335" lon="0.60947">
        <ele>71.9</ele>
        <time>2023-08-06T07:39:34Z</time>
      </trkpt>
      <trkpt lat="44.8934" lon="0.60957">
        <ele>71.4</ele>
        <time>2023-08-06T07:39:36Z</time>
      </trkpt>
      <trkpt lat="44.89343" lon="0.60961">
        <ele>71.2</ele>
        <time>2023-08-06T07:39:37Z</time>
      </trkpt>
      <trkpt lat="44.89348" lon="0.60967">
        <ele>70.9</ele>
        <time>2023-08-06T07:39:38Z</time>
      </trkpt>
      <trkpt lat="44.89354" lon="0.60973">
        <ele>70.7</ele>
        <time>2023-08-06T07:39:39Z</time>
      </trkpt>
      <trkpt lat="44.8936" lon="0.60977">
        <ele>70.6</ele>
        <time>2023-08-06T07:39:40Z</time>
      </trkpt>
      <trkpt lat="44.89367" lon="0.6098">
        <ele>70.6</ele>
        <time>2023-08-06T07:39:41Z</time>
      </trkpt>
      <trkpt lat="44.89373" lon="0.6098">
        <ele>70.6</ele>
        <time>2023-08-06T07:39:42Z</time>
      </trkpt>
      <trkpt lat="44.89384" lon="0.60978">
        <ele>70.7</ele>
        <time>2023-08-06T07:39:44Z</time>
      </trkpt>
      <trkpt lat="44.89388" lon="0.60976">
        <ele>70.7</ele>
        <time>2023-08-06T07:39:45Z</time>
      </trkpt>
      <trkpt lat="44.89393" lon="0.60974">
        <ele>70.8</ele>
        <time>2023-08-06T07:39:46Z</time>
      </trkpt>
      <trkpt lat="44.894" lon="0.6097">
        <ele>70.9</ele>
        <time>2023-08-06T07:39:48Z</time>
      </trkpt>
      <trkpt lat="44.89407" lon="0.60966">
        <ele>71</ele>
        <time>2023-08-06T07:39:50Z</time>
      </trkpt>
      <trkpt lat="44.89411" lon="0.60965">
        <ele>71.1</ele>
        <time>2023-08-06T07:39:51Z</time>
      </trkpt>
      <trkpt lat="44.89415" lon="0.60965">
        <ele>71.2</ele>
        <time>2023-08-06T07:39:52Z</time>
      </trkpt>
      <trkpt lat="44.89421" lon="0.60967">
        <ele>71.4</ele>
        <time>2023-08-06T07:39:54Z</time>
      </trkpt>
      <trkpt lat="44.89424" lon="0.60968">
        <ele>71.5</ele>
        <time>2023-08-06T07:39:55Z</time>
      </trkpt>
      <trkpt lat="44.89427" lon="0.60969">
        <ele>71.6</ele>
        <time>2023-08-06T07:39:56Z</time>
      </trkpt>
      <trkpt lat="44.89432" lon="0.60969">
        <ele>71.9</ele>
        <time>2023-08-06T07:39:58Z</time>
      </trkpt>
      <trkpt lat="44.89438" lon="0.6097">
        <ele>72.1</ele>
        <time>2023-08-06T07:40:00Z</time>
      </trkpt>
      <trkpt lat="44.89444" lon="0.60971">
        <ele>72.4</ele>
        <time>2023-08-06T07:40:02Z</time>
      </trkpt>
      <trkpt lat="44.89449" lon="0.60972">
        <ele>72.6</ele>
        <time>2023-08-06T07:40:04Z</time>
      </trkpt>
      <trkpt lat="44.89452" lon="0.60973">
        <ele>72.7</ele>
        <time>2023-08-06T07:40:05Z</time>
      </trkpt>
      <trkpt lat="44.89456" lon="0.60974">
        <ele>72.8</ele>
        <time>2023-08-06T07:40:06Z</time>
      </trkpt>
      <trkpt lat="44.89463" lon="0.60975">
        <ele>73</ele>
        <time>2023-08-06T07:40:08Z</time>
      </trkpt>
      <trkpt lat="44.89469" lon="0.60975">
        <ele>73.1</ele>
        <time>2023-08-06T07:40:10Z</time>
      </trkpt>
      <trkpt lat="44.89473" lon="0.60977">
        <ele>73.2</ele>
        <time>2023-08-06T07:40:11Z</time>
      </trkpt>
      <trkpt lat="44.89476" lon="0.60977">
        <ele>73.2</ele>
        <time>2023-08-06T07:40:12Z</time>
      </trkpt>
      <trkpt lat="44.89482" lon="0.60979">
        <ele>73.3</ele>
        <time>2023-08-06T07:40:14Z</time>
      </trkpt>
      <trkpt lat="44.8949" lon="0.6098">
        <ele>73.4</ele>
        <time>2023-08-06T07:40:16Z</time>
      </trkpt>
      <trkpt lat="44.89497" lon="0.60982">
        <ele>73.6</ele>
        <time>2023-08-06T07:40:18Z</time>
      </trkpt>
      <trkpt lat="44.89504" lon="0.60985">
        <ele>73.7</ele>
        <time>2023-08-06T07:40:20Z</time>
      </trkpt>
      <trkpt lat="44.89512" lon="0.60987">
        <ele>73.8</ele>
        <time>2023-08-06T07:40:22Z</time>
      </trkpt>
      <trkpt lat="44.89518" lon="0.6099">
        <ele>73.9</ele>
        <time>2023-08-06T07:40:24Z</time>
      </trkpt>
      <trkpt lat="44.89525" lon="0.60992">
        <ele>74</ele>
        <time>2023-08-06T07:40:26Z</time>
      </trkpt>
      <trkpt lat="44.89528" lon="0.60994">
        <ele>74.1</ele>
        <time>2023-08-06T07:40:27Z</time>
      </trkpt>
      <trkpt lat="44.89531" lon="0.60997">
        <ele>74.2</ele>
        <time>2023-08-06T07:40:28Z</time>
      </trkpt>
      <trkpt lat="44.89536" lon="0.61003">
        <ele>74.4</ele>
        <time>2023-08-06T07:40:30Z</time>
      </trkpt>
      <trkpt lat="44.89539" lon="0.61005">
        <ele>74.5</ele>
        <time>2023-08-06T07:40:31Z</time>
      </trkpt>
      <trkpt lat="44.89541" lon="0.61007">
        <ele>74.6</ele>
        <time>2023-08-06T07:40:32Z</time>
      </trkpt>
      <trkpt lat="44.89545" lon="0.61011">
        <ele>74.9</ele>
        <time>2023-08-06T07:40:34Z</time>
      </trkpt>
      <trkpt lat="44.89549" lon="0.61016">
        <ele>75.2</ele>
        <time>2023-08-06T07:40:36Z</time>
      </trkpt>
      <trkpt lat="44.89554" lon="0.6102">
        <ele>75.5</ele>
        <time>2023-08-06T07:40:38Z</time>
      </trkpt>
      <trkpt lat="44.89558" lon="0.61024">
        <ele>75.8</ele>
        <time>2023-08-06T07:40:40Z</time>
      </trkpt>
      <trkpt lat="44.89559" lon="0.61025">
        <ele>75.9</ele>
        <time>2023-08-06T07:40:41Z</time>
      </trkpt>
      <trkpt lat="44.89561" lon="0.61028">
        <ele>76.1</ele>
        <time>2023-08-06T07:40:42Z</time>
      </trkpt>
      <trkpt lat="44.89566" lon="0.61032">
        <ele>76.4</ele>
        <time>2023-08-06T07:40:44Z</time>
      </trkpt>
      <trkpt lat="44.89569" lon="0.61035">
        <ele>76.7</ele>
        <time>2023-08-06T07:40:45Z</time>
      </trkpt>
      <trkpt lat="44.89572" lon="0.61037">
        <ele>76.9</ele>
        <time>2023-08-06T07:40:46Z</time>
      </trkpt>
      <trkpt lat="44.89576" lon="0.61041">
        <ele>77.2</ele>
        <time>2023-08-06T07:40:48Z</time>
      </trkpt>
      <trkpt lat="44.8958" lon="0.61045">
        <ele>77.5</ele>
        <time>2023-08-06T07:40:50Z</time>
      </trkpt>
      <trkpt lat="44.89583" lon="0.61048">
        <ele>77.7</ele>
        <time>2023-08-06T07:40:52Z</time>
      </trkpt>
      <trkpt lat="44.89584" lon="0.6105">
        <ele>77.8</ele>
        <time>2023-08-06T07:40:53Z</time>
      </trkpt>
      <trkpt lat="44.89599" lon="0.61086">
        <ele>79.4</ele>
        <time>2023-08-06T07:41:11Z</time>
      </trkpt>
      <trkpt lat="44.89601" lon="0.61088">
        <ele>79.5</ele>
        <time>2023-08-06T07:41:12Z</time>
      </trkpt>
      <trkpt lat="44.89602" lon="0.6109">
        <ele>79.6</ele>
        <time>2023-08-06T07:41:13Z</time>
      </trkpt>
      <trkpt lat="44.89603" lon="0.61092">
        <ele>79.7</ele>
        <time>2023-08-06T07:41:14Z</time>
      </trkpt>
      <trkpt lat="44.89604" lon="0.61097">
        <ele>79.9</ele>
        <time>2023-08-06T07:41:16Z</time>
      </trkpt>
      <trkpt lat="44.89607" lon="0.61103">
        <ele>80.1</ele>
        <time>2023-08-06T07:41:18Z</time>
      </trkpt>
      <trkpt lat="44.89608" lon="0.61106">
        <ele>80.2</ele>
        <time>2023-08-06T07:41:19Z</time>
      </trkpt>
      <trkpt lat="44.89609" lon="0.61109">
        <ele>80.2</ele>
        <time>2023-08-06T07:41:20Z</time>
      </trkpt>
      <trkpt lat="44.89611" lon="0.61115">
        <ele>80.4</ele>
        <time>2023-08-06T07:41:22Z</time>
      </trkpt>
      <trkpt lat="44.89613" lon="0.61118">
        <ele>80.5</ele>
        <time>2023-08-06T07:41:23Z</time>
      </trkpt>
      <trkpt lat="44.89614" lon="0.61121">
        <ele>80.6</ele>
        <time>2023-08-06T07:41:24Z</time>
      </trkpt>
      <trkpt lat="44.89615" lon="0.61125">
        <ele>80.7</ele>
        <time>2023-08-06T07:41:25Z</time>
      </trkpt>
      <trkpt lat="44.89615" lon="0.61128">
        <ele>80.8</ele>
        <time>2023-08-06T07:41:26Z</time>
      </trkpt>
      <trkpt lat="44.89616" lon="0.61133">
        <ele>81</ele>
        <time>2023-08-06T07:41:28Z</time>
      </trkpt>
      <trkpt lat="44.89617" lon="0.6114">
        <ele>81.2</ele>
        <time>2023-08-06T07:41:30Z</time>
      </trkpt>
      <trkpt lat="44.89618" lon="0.61145">
        <ele>81.3</ele>
        <time>2023-08-06T07:41:32Z</time>
      </trkpt>
      <trkpt lat="44.89618" lon="0.61148">
        <ele>81.4</ele>
        <time>2023-08-06T07:41:33Z</time>
      </trkpt>
      <trkpt lat="44.89619" lon="0.61151">
        <ele>81.5</ele>
        <time>2023-08-06T07:41:34Z</time>
      </trkpt>
      <trkpt lat="44.8962" lon="0.61156">
        <ele>81.7</ele>
        <time>2023-08-06T07:41:36Z</time>
      </trkpt>
      <trkpt lat="44.8962" lon="0.61158">
        <ele>81.7</ele>
        <time>2023-08-06T07:41:37Z</time>
      </trkpt>
      <trkpt lat="44.8962" lon="0.6116">
        <ele>81.8</ele>
        <time>2023-08-06T07:41:38Z</time>
      </trkpt>
      <trkpt lat="44.8962" lon="0.61165">
        <ele>81.9</ele>
        <time>2023-08-06T07:41:40Z</time>
      </trkpt>
      <trkpt lat="44.8962" lon="0.6117">
        <ele>82.1</ele>
        <time>2023-08-06T07:41:42Z</time>
      </trkpt>
      <trkpt lat="44.89621" lon="0.61173">
        <ele>82.3</ele>
        <time>2023-08-06T07:41:43Z</time>
      </trkpt>
      <trkpt lat="44.89622" lon="0.61177">
        <ele>82.4</ele>
        <time>2023-08-06T07:41:44Z</time>
      </trkpt>
      <trkpt lat="44.89623" lon="0.61184">
        <ele>82.7</ele>
        <time>2023-08-06T07:41:46Z</time>
      </trkpt>
      <trkpt lat="44.89624" lon="0.6119">
        <ele>85.6</ele>
        <time>2023-08-06T07:41:48Z</time>
      </trkpt>
      <trkpt lat="44.89624" lon="0.61195">
        <ele>86</ele>
        <time>2023-08-06T07:41:50Z</time>
      </trkpt>
      <trkpt lat="44.89623" lon="0.612">
        <ele>86.4</ele>
        <time>2023-08-06T07:41:52Z</time>
      </trkpt>
      <trkpt lat="44.89623" lon="0.61203">
        <ele>86.6</ele>
        <time>2023-08-06T07:41:54Z</time>
      </trkpt>
      <trkpt lat="44.89624" lon="0.61207">
        <ele>86.9</ele>
        <time>2023-08-06T07:41:56Z</time>
      </trkpt>
      <trkpt lat="44.89623" lon="0.61209">
        <ele>87.1</ele>
        <time>2023-08-06T07:41:57Z</time>
      </trkpt>
      <trkpt lat="44.89623" lon="0.61212">
        <ele>87.2</ele>
        <time>2023-08-06T07:41:58Z</time>
      </trkpt>
      <trkpt lat="44.89622" lon="0.61216">
        <ele>87.5</ele>
        <time>2023-08-06T07:42:00Z</time>
      </trkpt>
      <trkpt lat="44.89621" lon="0.61221">
        <ele>87.9</ele>
        <time>2023-08-06T07:42:02Z</time>
      </trkpt>
      <trkpt lat="44.89621" lon="0.61223">
        <ele>88.1</ele>
        <time>2023-08-06T07:42:03Z</time>
      </trkpt>
      <trkpt lat="44.8962" lon="0.61225">
        <ele>88.2</ele>
        <time>2023-08-06T07:42:04Z</time>
      </trkpt>
      <trkpt lat="44.8962" lon="0.6123">
        <ele>88.6</ele>
        <time>2023-08-06T07:42:06Z</time>
      </trkpt>
      <trkpt lat="44.89619" lon="0.61235">
        <ele>89</ele>
        <time>2023-08-06T07:42:08Z</time>
      </trkpt>
      <trkpt lat="44.89618" lon="0.61238">
        <ele>89.3</ele>
        <time>2023-08-06T07:42:10Z</time>
      </trkpt>
      <trkpt lat="44.89617" lon="0.6124">
        <ele>89.5</ele>
        <time>2023-08-06T07:42:12Z</time>
      </trkpt>
      <trkpt lat="44.89616" lon="0.61242">
        <ele>89.7</ele>
        <time>2023-08-06T07:42:14Z</time>
      </trkpt>
      <trkpt lat="44.89615" lon="0.61246">
        <ele>90.1</ele>
        <time>2023-08-06T07:42:16Z</time>
      </trkpt>
      <trkpt lat="44.89614" lon="0.61249">
        <ele>90.4</ele>
        <time>2023-08-06T07:42:18Z</time>
      </trkpt>
      <trkpt lat="44.89613" lon="0.61252">
        <ele>90.7</ele>
        <time>2023-08-06T07:42:20Z</time>
      </trkpt>
      <trkpt lat="44.89612" lon="0.61255">
        <ele>91</ele>
        <time>2023-08-06T07:42:22Z</time>
      </trkpt>
      <trkpt lat="44.89559" lon="0.61284">
        <ele>99.6</ele>
        <time>2023-08-06T07:43:33Z</time>
      </trkpt>
      <trkpt lat="44.8956" lon="0.61281">
        <ele>99.6</ele>
        <time>2023-08-06T07:43:34Z</time>
      </trkpt>
      <trkpt lat="44.89561" lon="0.61276">
        <ele>99.5</ele>
        <time>2023-08-06T07:43:36Z</time>
      </trkpt>
      <trkpt lat="44.89561" lon="0.61272">
        <ele>99.5</ele>
        <time>2023-08-06T07:43:37Z</time>
      </trkpt>
      <trkpt lat="44.8956" lon="0.6127">
        <ele>99.4</ele>
        <time>2023-08-06T07:43:38Z</time>
      </trkpt>
      <trkpt lat="44.8956" lon="0.61264">
        <ele>99.3</ele>
        <time>2023-08-06T07:43:40Z</time>
      </trkpt>
      <trkpt lat="44.8956" lon="0.61259">
        <ele>99.2</ele>
        <time>2023-08-06T07:43:42Z</time>
      </trkpt>
      <trkpt lat="44.8956" lon="0.61256">
        <ele>99.1</ele>
        <time>2023-08-06T07:43:43Z</time>
      </trkpt>
      <trkpt lat="44.89559" lon="0.61253">
        <ele>98.9</ele>
        <time>2023-08-06T07:43:44Z</time>
      </trkpt>
      <trkpt lat="44.89558" lon="0.61248">
        <ele>99.3</ele>
        <time>2023-08-06T07:43:46Z</time>
      </trkpt>
      <trkpt lat="44.89558" lon="0.61246">
        <ele>99.3</ele>
        <time>2023-08-06T07:43:47Z</time>
      </trkpt>
      <trkpt lat="44.89547" lon="0.61206">
        <ele>99.9</ele>
        <time>2023-08-06T07:44:05Z</time>
      </trkpt>
      <trkpt lat="44.89546" lon="0.61205">
        <ele>100.3</ele>
        <time>2023-08-06T07:44:06Z</time>
      </trkpt>
      <trkpt lat="44.89543" lon="0.61202">
        <ele>100.9</ele>
        <time>2023-08-06T07:44:08Z</time>
      </trkpt>
      <trkpt lat="44.8954" lon="0.61197">
        <ele>101</ele>
        <time>2023-08-06T07:44:10Z</time>
      </trkpt>
      <trkpt lat="44.89537" lon="0.61192">
        <ele>101.2</ele>
        <time>2023-08-06T07:44:12Z</time>
      </trkpt>
      <trkpt lat="44.89535" lon="0.61189">
        <ele>101.2</ele>
        <time>2023-08-06T07:44:13Z</time>
      </trkpt>
      <trkpt lat="44.89534" lon="0.61187">
        <ele>101.5</ele>
        <time>2023-08-06T07:44:14Z</time>
      </trkpt>
      <trkpt lat="44.89531" lon="0.6118">
        <ele>101.7</ele>
        <time>2023-08-06T07:44:16Z</time>
      </trkpt>
      <trkpt lat="44.8953" lon="0.61173">
        <ele>101</ele>
        <time>2023-08-06T07:44:18Z</time>
      </trkpt>
      <trkpt lat="44.89528" lon="0.61162">
        <ele>100.3</ele>
        <time>2023-08-06T07:44:20Z</time>
      </trkpt>
      <trkpt lat="44.89527" lon="0.61155">
        <ele>99.8</ele>
        <time>2023-08-06T07:44:21Z</time>
      </trkpt>
      <trkpt lat="44.89528" lon="0.61147">
        <ele>99</ele>
        <time>2023-08-06T07:44:22Z</time>
      </trkpt>
      <trkpt lat="44.89528" lon="0.61138">
        <ele>97.5</ele>
        <time>2023-08-06T07:44:24Z</time>
      </trkpt>
      <trkpt lat="44.89525" lon="0.61131">
        <ele>98</ele>
        <time>2023-08-06T07:44:26Z</time>
      </trkpt>
      <trkpt lat="44.89521" lon="0.61125">
        <ele>98.1</ele>
        <time>2023-08-06T07:44:28Z</time>
      </trkpt>
      <trkpt lat="44.89519" lon="0.61124">
        <ele>98.1</ele>
        <time>2023-08-06T07:44:29Z</time>
      </trkpt>
      <trkpt lat="44.89516" lon="0.61123">
        <ele>98.1</ele>
        <time>2023-08-06T07:44:30Z</time>
      </trkpt>
      <trkpt lat="44.89515" lon="0.61121">
        <ele>98.5</ele>
        <time>2023-08-06T07:44:31Z</time>
      </trkpt>
      <trkpt lat="44.89514" lon="0.61119">
        <ele>98</ele>
        <time>2023-08-06T07:44:32Z</time>
      </trkpt>
      <trkpt lat="44.89511" lon="0.61113">
        <ele>97.8</ele>
        <time>2023-08-06T07:44:34Z</time>
      </trkpt>
      <trkpt lat="44.89509" lon="0.61112">
        <ele>98.1</ele>
        <time>2023-08-06T07:44:35Z</time>
      </trkpt>
      <trkpt lat="44.89507" lon="0.61111">
        <ele>97.5</ele>
        <time>2023-08-06T07:44:36Z</time>
      </trkpt>
      <trkpt lat="44.89503" lon="0.61108">
        <ele>98.1</ele>
        <time>2023-08-06T07:44:38Z</time>
      </trkpt>
      <trkpt lat="44.89501" lon="0.61108">
        <ele>98.2</ele>
        <time>2023-08-06T07:44:39Z</time>
      </trkpt>
      <trkpt lat="44.89499" lon="0.61107">
        <ele>98.4</ele>
        <time>2023-08-06T07:44:40Z</time>
      </trkpt>
      <trkpt lat="44.89494" lon="0.61107">
        <ele>98.8</ele>
        <time>2023-08-06T07:44:42Z</time>
      </trkpt>
      <trkpt lat="44.89491" lon="0.61108">
        <ele>98.9</ele>
        <time>2023-08-06T07:44:43Z</time>
      </trkpt>
      <trkpt lat="44.89488" lon="0.6111">
        <ele>99</ele>
        <time>2023-08-06T07:44:44Z</time>
      </trkpt>
      <trkpt lat="44.89484" lon="0.61112">
        <ele>99.6</ele>
        <time>2023-08-06T07:44:46Z</time>
      </trkpt>
      <trkpt lat="44.89481" lon="0.61111">
        <ele>99.1</ele>
        <time>2023-08-06T07:44:47Z</time>
      </trkpt>
      <trkpt lat="44.89477" lon="0.61111">
        <ele>99</ele>
        <time>2023-08-06T07:44:48Z</time>
      </trkpt>
      <trkpt lat="44.89469" lon="0.61112">
        <ele>99.2</ele>
        <time>2023-08-06T07:44:50Z</time>
      </trkpt>
      <trkpt lat="44.89466" lon="0.61113">
        <ele>99</ele>
        <time>2023-08-06T07:44:51Z</time>
      </trkpt>
      <trkpt lat="44.89464" lon="0.61113">
        <ele>98.8</ele>
        <time>2023-08-06T07:44:52Z</time>
      </trkpt>
      <trkpt lat="44.8946" lon="0.61114">
        <ele>98.5</ele>
        <time>2023-08-06T07:44:54Z</time>
      </trkpt>
      <trkpt lat="44.89459" lon="0.61114">
        <ele>98.5</ele>
        <time>2023-08-06T07:44:55Z</time>
      </trkpt>
      <trkpt lat="44.89457" lon="0.61114">
        <ele>98.2</ele>
        <time>2023-08-06T07:44:56Z</time>
      </trkpt>
      <trkpt lat="44.89454" lon="0.61115">
        <ele>97.9</ele>
        <time>2023-08-06T07:44:57Z</time>
      </trkpt>
      <trkpt lat="44.89452" lon="0.61115">
        <ele>97.6</ele>
        <time>2023-08-06T07:44:58Z</time>
      </trkpt>
      <trkpt lat="44.8945" lon="0.61117">
        <ele>98.3</ele>
        <time>2023-08-06T07:44:59Z</time>
      </trkpt>
      <trkpt lat="44.89448" lon="0.61118">
        <ele>97.9</ele>
        <time>2023-08-06T07:45:00Z</time>
      </trkpt>
      <trkpt lat="44.89445" lon="0.6112">
        <ele>97.5</ele>
        <time>2023-08-06T07:45:01Z</time>
      </trkpt>
      <trkpt lat="44.89443" lon="0.61121">
        <ele>97.7</ele>
        <time>2023-08-06T07:45:02Z</time>
      </trkpt>
      <trkpt lat="44.89439" lon="0.61124">
        <ele>97.3</ele>
        <time>2023-08-06T07:45:04Z</time>
      </trkpt>
      <trkpt lat="44.89436" lon="0.61128">
        <ele>97.5</ele>
        <time>2023-08-06T07:45:06Z</time>
      </trkpt>
      <trkpt lat="44.89434" lon="0.61132">
        <ele>97.7</ele>
        <time>2023-08-06T07:45:08Z</time>
      </trkpt>
      <trkpt lat="44.89428" lon="0.61135">
        <ele>97.9</ele>
        <time>2023-08-06T07:45:10Z</time>
      </trkpt>
      <trkpt lat="44.89423" lon="0.61139">
        <ele>97.6</ele>
        <time>2023-08-06T07:45:12Z</time>
      </trkpt>
      <trkpt lat="44.89418" lon="0.61142">
        <ele>97.3</ele>
        <time>2023-08-06T07:45:14Z</time>
      </trkpt>
      <trkpt lat="44.89413" lon="0.61147">
        <ele>97.5</ele>
        <time>2023-08-06T07:45:16Z</time>
      </trkpt>
      <trkpt lat="44.89407" lon="0.6115">
        <ele>96.7</ele>
        <time>2023-08-06T07:45:18Z</time>
      </trkpt>
      <trkpt lat="44.89404" lon="0.61151">
        <ele>97</ele>
        <time>2023-08-06T07:45:19Z</time>
      </trkpt>
      <trkpt lat="44.89402" lon="0.61153">
        <ele>96.7</ele>
        <time>2023-08-06T07:45:20Z</time>
      </trkpt>
      <trkpt lat="44.89396" lon="0.61156">
        <ele>96.6</ele>
        <time>2023-08-06T07:45:22Z</time>
      </trkpt>
      <trkpt lat="44.89392" lon="0.61158">
        <ele>96.3</ele>
        <time>2023-08-06T07:45:23Z</time>
      </trkpt>
      <trkpt lat="44.89389" lon="0.61159">
        <ele>96.7</ele>
        <time>2023-08-06T07:45:24Z</time>
      </trkpt>
      <trkpt lat="44.89383" lon="0.61163">
        <ele>96.7</ele>
        <time>2023-08-06T07:45:26Z</time>
      </trkpt>
      <trkpt lat="44.8938" lon="0.61166">
        <ele>96.4</ele>
        <time>2023-08-06T07:45:27Z</time>
      </trkpt>
      <trkpt lat="44.89377" lon="0.61168">
        <ele>96.8</ele>
        <time>2023-08-06T07:45:28Z</time>
      </trkpt>
      <trkpt lat="44.89371" lon="0.61172">
        <ele>96.9</ele>
        <time>2023-08-06T07:45:30Z</time>
      </trkpt>
      <trkpt lat="44.89365" lon="0.61175">
        <ele>96.4</ele>
        <time>2023-08-06T07:45:32Z</time>
      </trkpt>
      <trkpt lat="44.89362" lon="0.61176">
        <ele>96.2</ele>
        <time>2023-08-06T07:45:33Z</time>
      </trkpt>
      <trkpt lat="44.89359" lon="0.61177">
        <ele>96.6</ele>
        <time>2023-08-06T07:45:34Z</time>
      </trkpt>
      <trkpt lat="44.89355" lon="0.61176">
        <ele>96.1</ele>
        <time>2023-08-06T07:45:36Z</time>
      </trkpt>
      <trkpt lat="44.89347" lon="0.61173">
        <ele>95</ele>
        <time>2023-08-06T07:45:38Z</time>
      </trkpt>
      <trkpt lat="44.89336" lon="0.61169">
        <ele>93.2</ele>
        <time>2023-08-06T07:45:40Z</time>
      </trkpt>
      <trkpt lat="44.8933" lon="0.61166">
        <ele>91.7</ele>
        <time>2023-08-06T07:45:42Z</time>
      </trkpt>
      <trkpt lat="44.89322" lon="0.61165">
        <ele>91.2</ele>
        <time>2023-08-06T07:45:44Z</time>
      </trkpt>
      <trkpt lat="44.8932" lon="0.61165">
        <ele>91</ele>
        <time>2023-08-06T07:45:45Z</time>
      </trkpt>
      <trkpt lat="44.89316" lon="0.61165">
        <ele>90.8</ele>
        <time>2023-08-06T07:45:46Z</time>
      </trkpt>
      <trkpt lat="44.89309" lon="0.61161">
        <ele>89.3</ele>
        <time>2023-08-06T07:45:48Z</time>
      </trkpt>
      <trkpt lat="44.89305" lon="0.61157">
        <ele>88.3</ele>
        <time>2023-08-06T07:45:49Z</time>
      </trkpt>
      <trkpt lat="44.89301" lon="0.61153">
        <ele>87.3</ele>
        <time>2023-08-06T07:45:50Z</time>
      </trkpt>
      <trkpt lat="44.89296" lon="0.61149">
        <ele>86.3</ele>
        <time>2023-08-06T07:45:52Z</time>
      </trkpt>
      <trkpt lat="44.89296" lon="0.61148">
        <ele>86.4</ele>
        <time>2023-08-06T07:45:53Z</time>
      </trkpt>
      <trkpt lat="44.89296" lon="0.61148">
        <ele>86.4</ele>
        <time>2023-08-06T07:45:54Z</time>
      </trkpt>
      <trkpt lat="44.89292" lon="0.61147">
        <ele>86.3</ele>
        <time>2023-08-06T07:45:56Z</time>
      </trkpt>
      <trkpt lat="44.89291" lon="0.61146">
        <ele>86.3</ele>
        <time>2023-08-06T07:45:57Z</time>
      </trkpt>
      <trkpt lat="44.8929" lon="0.61146">
        <ele>85.5</ele>
        <time>2023-08-06T07:45:58Z</time>
      </trkpt>
      <trkpt lat="44.89286" lon="0.61144">
        <ele>85.4</ele>
        <time>2023-08-06T07:46:00Z</time>
      </trkpt>
      <trkpt lat="44.89284" lon="0.61142">
        <ele>85.3</ele>
        <time>2023-08-06T07:46:01Z</time>
      </trkpt>
      <trkpt lat="44.89281" lon="0.6114">
        <ele>84.6</ele>
        <time>2023-08-06T07:46:02Z</time>
      </trkpt>
      <trkpt lat="44.89275" lon="0.61137">
        <ele>84.4</ele>
        <time>2023-08-06T07:46:04Z</time>
      </trkpt>
      <trkpt lat="44.89272" lon="0.61136">
        <ele>83.7</ele>
        <time>2023-08-06T07:46:05Z</time>
      </trkpt>
      <trkpt lat="44.89269" lon="0.61136">
        <ele>83.7</ele>
        <time>2023-08-06T07:46:06Z</time>
      </trkpt>
      <trkpt lat="44.89265" lon="0.61134">
        <ele>83.7</ele>
        <time>2023-08-06T07:46:08Z</time>
      </trkpt>
      <trkpt lat="44.89262" lon="0.61131">
        <ele>83.1</ele>
        <time>2023-08-06T07:46:09Z</time>
      </trkpt>
      <trkpt lat="44.89259" lon="0.61129">
        <ele>82.5</ele>
        <time>2023-08-06T07:46:10Z</time>
      </trkpt>
      <trkpt lat="44.89256" lon="0.61128">
        <ele>82.5</ele>
        <time>2023-08-06T07:46:11Z</time>
      </trkpt>
      <trkpt lat="44.89254" lon="0.61129">
        <ele>83.2</ele>
        <time>2023-08-06T07:46:12Z</time>
      </trkpt>
      <trkpt lat="44.89251" lon="0.61131">
        <ele>83.2</ele>
        <time>2023-08-06T07:46:14Z</time>
      </trkpt>
      <trkpt lat="44.89249" lon="0.61132">
        <ele>83.2</ele>
        <time>2023-08-06T07:46:15Z</time>
      </trkpt>
      <trkpt lat="44.89248" lon="0.61134">
        <ele>83.8</ele>
        <time>2023-08-06T07:46:16Z</time>
      </trkpt>
      <trkpt lat="44.89247" lon="0.61135">
        <ele>83.9</ele>
        <time>2023-08-06T07:46:17Z</time>
      </trkpt>
      <trkpt lat="44.89245" lon="0.61136">
        <ele>83.9</ele>
        <time>2023-08-06T07:46:18Z</time>
      </trkpt>
      <trkpt lat="44.89242" lon="0.61137">
        <ele>84.6</ele>
        <time>2023-08-06T07:46:20Z</time>
      </trkpt>
      <trkpt lat="44.8924" lon="0.61139">
        <ele>84.6</ele>
        <time>2023-08-06T07:46:21Z</time>
      </trkpt>
      <trkpt lat="44.89239" lon="0.61141">
        <ele>84.6</ele>
        <time>2023-08-06T07:46:22Z</time>
      </trkpt>
      <trkpt lat="44.89238" lon="0.61144">
        <ele>85.3</ele>
        <time>2023-08-06T07:46:24Z</time>
      </trkpt>
      <trkpt lat="44.89236" lon="0.61147">
        <ele>86</ele>
        <time>2023-08-06T07:46:26Z</time>
      </trkpt>
      <trkpt lat="44.89234" lon="0.61151">
        <ele>86.7</ele>
        <time>2023-08-06T07:46:28Z</time>
      </trkpt>
      <trkpt lat="44.89231" lon="0.61155">
        <ele>87.3</ele>
        <time>2023-08-06T07:46:30Z</time>
      </trkpt>
      <trkpt lat="44.8923" lon="0.61157">
        <ele>87.2</ele>
        <time>2023-08-06T07:46:31Z</time>
      </trkpt>
      <trkpt lat="44.89228" lon="0.61158">
        <ele>87.2</ele>
        <time>2023-08-06T07:46:32Z</time>
      </trkpt>
      <trkpt lat="44.89225" lon="0.61161">
        <ele>87.6</ele>
        <time>2023-08-06T07:46:34Z</time>
      </trkpt>
      <trkpt lat="44.89222" lon="0.61163">
        <ele>87.4</ele>
        <time>2023-08-06T07:46:36Z</time>
      </trkpt>
      <trkpt lat="44.89218" lon="0.61165">
        <ele>87.6</ele>
        <time>2023-08-06T07:46:38Z</time>
      </trkpt>
      <trkpt lat="44.89215" lon="0.61169">
        <ele>88.1</ele>
        <time>2023-08-06T07:46:40Z</time>
      </trkpt>
      <trkpt lat="44.89213" lon="0.61174">
        <ele>88.5</ele>
        <time>2023-08-06T07:46:42Z</time>
      </trkpt>
      <trkpt lat="44.89212" lon="0.61176">
        <ele>88.3</ele>
        <time>2023-08-06T07:46:43Z</time>
      </trkpt>
      <trkpt lat="44.89209" lon="0.61178">
        <ele>88.8</ele>
        <time>2023-08-06T07:46:44Z</time>
      </trkpt>
      <trkpt lat="44.89205" lon="0.6118">
        <ele>88.9</ele>
        <time>2023-08-06T07:46:46Z</time>
      </trkpt>
      <trkpt lat="44.892" lon="0.61183">
        <ele>88.7</ele>
        <time>2023-08-06T07:46:48Z</time>
      </trkpt>
      <trkpt lat="44.89198" lon="0.61185">
        <ele>89</ele>
        <time>2023-08-06T07:46:49Z</time>
      </trkpt>
      <trkpt lat="44.89196" lon="0.61187">
        <ele>88.8</ele>
        <time>2023-08-06T07:46:50Z</time>
      </trkpt>
      <trkpt lat="44.89194" lon="0.61191">
        <ele>89.2</ele>
        <time>2023-08-06T07:46:52Z</time>
      </trkpt>
      <trkpt lat="44.8919" lon="0.61193">
        <ele>89</ele>
        <time>2023-08-06T07:46:54Z</time>
      </trkpt>
      <trkpt lat="44.89186" lon="0.61195">
        <ele>89.3</ele>
        <time>2023-08-06T07:46:56Z</time>
      </trkpt>
      <trkpt lat="44.89181" lon="0.61197">
        <ele>88.9</ele>
        <time>2023-08-06T07:46:58Z</time>
      </trkpt>
      <trkpt lat="44.89175" lon="0.612">
        <ele>89.1</ele>
        <time>2023-08-06T07:47:00Z</time>
      </trkpt>
      <trkpt lat="44.89171" lon="0.61204">
        <ele>89.4</ele>
        <time>2023-08-06T07:47:02Z</time>
      </trkpt>
      <trkpt lat="44.89166" lon="0.61207">
        <ele>89.6</ele>
        <time>2023-08-06T07:47:04Z</time>
      </trkpt>
      <trkpt lat="44.8916" lon="0.61211">
        <ele>89.7</ele>
        <time>2023-08-06T07:47:06Z</time>
      </trkpt>
      <trkpt lat="44.89155" lon="0.61214">
        <ele>89.6</ele>
        <time>2023-08-06T07:47:08Z</time>
      </trkpt>
      <trkpt lat="44.89149" lon="0.61218">
        <ele>89.8</ele>
        <time>2023-08-06T07:47:11Z</time>
      </trkpt>
      <trkpt lat="44.89145" lon="0.61223">
        <ele>89.9</ele>
        <time>2023-08-06T07:47:13Z</time>
      </trkpt>
      <trkpt lat="44.89144" lon="0.61226">
        <ele>90.1</ele>
        <time>2023-08-06T07:47:14Z</time>
      </trkpt>
      <trkpt lat="44.89143" lon="0.61233">
        <ele>90.7</ele>
        <time>2023-08-06T07:47:16Z</time>
      </trkpt>
      <trkpt lat="44.89144" lon="0.6124">
        <ele>91.1</ele>
        <time>2023-08-06T07:47:18Z</time>
      </trkpt>
      <trkpt lat="44.89138" lon="0.61243">
        <ele>90.6</ele>
        <time>2023-08-06T07:47:20Z</time>
      </trkpt>
      <trkpt lat="44.89134" lon="0.61249">
        <ele>90.7</ele>
        <time>2023-08-06T07:47:22Z</time>
      </trkpt>
      <trkpt lat="44.89133" lon="0.61257">
        <ele>90.6</ele>
        <time>2023-08-06T07:47:24Z</time>
      </trkpt>
      <trkpt lat="44.89131" lon="0.61263">
        <ele>90.8</ele>
        <time>2023-08-06T07:47:26Z</time>
      </trkpt>
      <trkpt lat="44.8913" lon="0.61265">
        <ele>90.6</ele>
        <time>2023-08-06T07:47:27Z</time>
      </trkpt>
      <trkpt lat="44.89129" lon="0.61268">
        <ele>90.6</ele>
        <time>2023-08-06T07:47:28Z</time>
      </trkpt>
      <trkpt lat="44.89129" lon="0.61274">
        <ele>90.7</ele>
        <time>2023-08-06T07:47:30Z</time>
      </trkpt>
      <trkpt lat="44.89128" lon="0.6128">
        <ele>90.8</ele>
        <time>2023-08-06T07:47:32Z</time>
      </trkpt>
      <trkpt lat="44.89125" lon="0.61282">
        <ele>90.5</ele>
        <time>2023-08-06T07:47:33Z</time>
      </trkpt>
      <trkpt lat="44.89123" lon="0.61284">
        <ele>90.4</ele>
        <time>2023-08-06T07:47:34Z</time>
      </trkpt>
      <trkpt lat="44.89123" lon="0.61288">
        <ele>90.5</ele>
        <time>2023-08-06T07:47:35Z</time>
      </trkpt>
      <trkpt lat="44.89122" lon="0.61291">
        <ele>90.5</ele>
        <time>2023-08-06T07:47:36Z</time>
      </trkpt>
      <trkpt lat="44.89122" lon="0.61298">
        <ele>90.8</ele>
        <time>2023-08-06T07:47:38Z</time>
      </trkpt>
      <trkpt lat="44.89121" lon="0.61306">
        <ele>91.1</ele>
        <time>2023-08-06T07:47:40Z</time>
      </trkpt>
      <trkpt lat="44.8912" lon="0.61315">
        <ele>91.2</ele>
        <time>2023-08-06T07:47:42Z</time>
      </trkpt>
      <trkpt lat="44.89118" lon="0.61323">
        <ele>91.5</ele>
        <time>2023-08-06T07:47:44Z</time>
      </trkpt>
      <trkpt lat="44.89116" lon="0.61331">
        <ele>91.4</ele>
        <time>2023-08-06T07:47:46Z</time>
      </trkpt>
      <trkpt lat="44.89112" lon="0.61339">
        <ele>91</ele>
        <time>2023-08-06T07:47:48Z</time>
      </trkpt>
      <trkpt lat="44.89111" lon="0.61343">
        <ele>90.7</ele>
        <time>2023-08-06T07:47:49Z</time>
      </trkpt>
      <trkpt lat="44.8911" lon="0.61346">
        <ele>90.7</ele>
        <time>2023-08-06T07:47:50Z</time>
      </trkpt>
      <trkpt lat="44.89107" lon="0.61352">
        <ele>90.3</ele>
        <time>2023-08-06T07:47:52Z</time>
      </trkpt>
      <trkpt lat="44.89105" lon="0.61359">
        <ele>90</ele>
        <time>2023-08-06T07:47:54Z</time>
      </trkpt>
      <trkpt lat="44.89105" lon="0.61364">
        <ele>90</ele>
        <time>2023-08-06T07:47:55Z</time>
      </trkpt>
      <trkpt lat="44.89105" lon="0.61367">
        <ele>90</ele>
        <time>2023-08-06T07:47:56Z</time>
      </trkpt>
      <trkpt lat="44.89105" lon="0.61373">
        <ele>90</ele>
        <time>2023-08-06T07:47:58Z</time>
      </trkpt>
      <trkpt lat="44.89104" lon="0.61375">
        <ele>90.1</ele>
        <time>2023-08-06T07:47:59Z</time>
      </trkpt>
      <trkpt lat="44.89102" lon="0.61378">
        <ele>89.8</ele>
        <time>2023-08-06T07:48:00Z</time>
      </trkpt>
      <trkpt lat="44.89098" lon="0.61382">
        <ele>89.6</ele>
        <time>2023-08-06T07:48:02Z</time>
      </trkpt>
      <trkpt lat="44.89094" lon="0.61386">
        <ele>89.2</ele>
        <time>2023-08-06T07:48:04Z</time>
      </trkpt>
      <trkpt lat="44.89087" lon="0.61389">
        <ele>88.8</ele>
        <time>2023-08-06T07:48:06Z</time>
      </trkpt>
      <trkpt lat="44.89081" lon="0.61394">
        <ele>88.3</ele>
        <time>2023-08-06T07:48:08Z</time>
      </trkpt>
      <trkpt lat="44.89073" lon="0.61401">
        <ele>87.7</ele>
        <time>2023-08-06T07:48:10Z</time>
      </trkpt>
      <trkpt lat="44.89064" lon="0.6141">
        <ele>87.4</ele>
        <time>2023-08-06T07:48:12Z</time>
      </trkpt>
      <trkpt lat="44.8906" lon="0.61412">
        <ele>87.2</ele>
        <time>2023-08-06T07:48:13Z</time>
      </trkpt>
      <trkpt lat="44.89054" lon="0.61414">
        <ele>87.2</ele>
        <time>2023-08-06T07:48:14Z</time>
      </trkpt>
      <trkpt lat="44.89045" lon="0.61415">
        <ele>87.2</ele>
        <time>2023-08-06T07:48:16Z</time>
      </trkpt>
      <trkpt lat="44.89037" lon="0.61417">
        <ele>87.4</ele>
        <time>2023-08-06T07:48:18Z</time>
      </trkpt>
      <trkpt lat="44.8903" lon="0.61417">
        <ele>87.6</ele>
        <time>2023-08-06T07:48:20Z</time>
      </trkpt>
      <trkpt lat="44.89024" lon="0.61414">
        <ele>87.9</ele>
        <time>2023-08-06T07:48:22Z</time>
      </trkpt>
      <trkpt lat="44.89021" lon="0.61412">
        <ele>88</ele>
        <time>2023-08-06T07:48:23Z</time>
      </trkpt>
      <trkpt lat="44.89018" lon="0.61411">
        <ele>88.2</ele>
        <time>2023-08-06T07:48:24Z</time>
      </trkpt>
      <trkpt lat="44.89013" lon="0.61408">
        <ele>88.6</ele>
        <time>2023-08-06T07:48:26Z</time>
      </trkpt>
      <trkpt lat="44.89009" lon="0.61405">
        <ele>88.9</ele>
        <time>2023-08-06T07:48:28Z</time>
      </trkpt>
      <trkpt lat="44.89005" lon="0.61403">
        <ele>89.3</ele>
        <time>2023-08-06T07:48:30Z</time>
      </trkpt>
      <trkpt lat="44.89003" lon="0.61402">
        <ele>89.5</ele>
        <time>2023-08-06T07:48:31Z</time>
      </trkpt>
      <trkpt lat="44.89001" lon="0.61402">
        <ele>89.6</ele>
        <time>2023-08-06T07:48:32Z</time>
      </trkpt>
      <trkpt lat="44.88997" lon="0.61401">
        <ele>90</ele>
        <time>2023-08-06T07:48:34Z</time>
      </trkpt>
      <trkpt lat="44.88995" lon="0.61401">
        <ele>90.1</ele>
        <time>2023-08-06T07:48:35Z</time>
      </trkpt>
      <trkpt lat="44.88993" lon="0.61401">
        <ele>90.3</ele>
        <time>2023-08-06T07:48:36Z</time>
      </trkpt>
      <trkpt lat="44.8899" lon="0.61402">
        <ele>90.7</ele>
        <time>2023-08-06T07:48:38Z</time>
      </trkpt>
      <trkpt lat="44.88986" lon="0.61404">
        <ele>91</ele>
        <time>2023-08-06T07:48:40Z</time>
      </trkpt>
      <trkpt lat="44.88985" lon="0.61404">
        <ele>91.1</ele>
        <time>2023-08-06T07:48:41Z</time>
      </trkpt>
      <trkpt lat="44.88983" lon="0.61405">
        <ele>91.3</ele>
        <time>2023-08-06T07:48:42Z</time>
      </trkpt>
      <trkpt lat="44.88978" lon="0.61406">
        <ele>91.6</ele>
        <time>2023-08-06T07:48:44Z</time>
      </trkpt>
      <trkpt lat="44.88973" lon="0.61404">
        <ele>91.6</ele>
        <time>2023-08-06T07:48:46Z</time>
      </trkpt>
      <trkpt lat="44.88967" lon="0.61403">
        <ele>91.9</ele>
        <time>2023-08-06T07:48:48Z</time>
      </trkpt>
      <trkpt lat="44.88964" lon="0.61404">
        <ele>92</ele>
        <time>2023-08-06T07:48:49Z</time>
      </trkpt>
      <trkpt lat="44.88961" lon="0.61405">
        <ele>92.1</ele>
        <time>2023-08-06T07:48:50Z</time>
      </trkpt>
      <trkpt lat="44.88959" lon="0.61406">
        <ele>92.1</ele>
        <time>2023-08-06T07:48:51Z</time>
      </trkpt>
      <trkpt lat="44.88956" lon="0.61407">
        <ele>92.2</ele>
        <time>2023-08-06T07:48:52Z</time>
      </trkpt>
      <trkpt lat="44.8895" lon="0.61409">
        <ele>92.3</ele>
        <time>2023-08-06T07:48:54Z</time>
      </trkpt>
      <trkpt lat="44.88944" lon="0.61411">
        <ele>92.4</ele>
        <time>2023-08-06T07:48:56Z</time>
      </trkpt>
      <trkpt lat="44.88941" lon="0.61412">
        <ele>92.4</ele>
        <time>2023-08-06T07:48:57Z</time>
      </trkpt>
      <trkpt lat="44.88939" lon="0.61413">
        <ele>92.5</ele>
        <time>2023-08-06T07:48:58Z</time>
      </trkpt>
      <trkpt lat="44.88933" lon="0.61415">
        <ele>92.6</ele>
        <time>2023-08-06T07:49:00Z</time>
      </trkpt>
      <trkpt lat="44.88929" lon="0.61417">
        <ele>92.7</ele>
        <time>2023-08-06T07:49:02Z</time>
      </trkpt>
      <trkpt lat="44.88927" lon="0.61418">
        <ele>92.8</ele>
        <time>2023-08-06T07:49:03Z</time>
      </trkpt>
      <trkpt lat="44.88923" lon="0.61419">
        <ele>92.9</ele>
        <time>2023-08-06T07:49:04Z</time>
      </trkpt>
      <trkpt lat="44.88917" lon="0.61421">
        <ele>93.1</ele>
        <time>2023-08-06T07:49:06Z</time>
      </trkpt>
      <trkpt lat="44.88914" lon="0.61422">
        <ele>93.1</ele>
        <time>2023-08-06T07:49:07Z</time>
      </trkpt>
      <trkpt lat="44.88911" lon="0.61423">
        <ele>93.2</ele>
        <time>2023-08-06T07:49:08Z</time>
      </trkpt>
      <trkpt lat="44.88906" lon="0.61424">
        <ele>93.4</ele>
        <time>2023-08-06T07:49:10Z</time>
      </trkpt>
      <trkpt lat="44.88901" lon="0.61426">
        <ele>93.5</ele>
        <time>2023-08-06T07:49:12Z</time>
      </trkpt>
      <trkpt lat="44.88899" lon="0.61427">
        <ele>93.6</ele>
        <time>2023-08-06T07:49:13Z</time>
      </trkpt>
      <trkpt lat="44.88897" lon="0.61429">
        <ele>93.7</ele>
        <time>2023-08-06T07:49:14Z</time>
      </trkpt>
      <trkpt lat="44.88892" lon="0.6143">
        <ele>93.8</ele>
        <time>2023-08-06T07:49:16Z</time>
      </trkpt>
      <trkpt lat="44.88888" lon="0.61431">
        <ele>94</ele>
        <time>2023-08-06T07:49:18Z</time>
      </trkpt>
      <trkpt lat="44.88886" lon="0.61432">
        <ele>94</ele>
        <time>2023-08-06T07:49:19Z</time>
      </trkpt>
      <trkpt lat="44.88883" lon="0.61433">
        <ele>94.1</ele>
        <time>2023-08-06T07:49:20Z</time>
      </trkpt>
      <trkpt lat="44.88878" lon="0.61436">
        <ele>94.3</ele>
        <time>2023-08-06T07:49:22Z</time>
      </trkpt>
      <trkpt lat="44.88875" lon="0.61436">
        <ele>94.4</ele>
        <time>2023-08-06T07:49:23Z</time>
      </trkpt>
      <trkpt lat="44.88873" lon="0.61437">
        <ele>94.5</ele>
        <time>2023-08-06T07:49:24Z</time>
      </trkpt>
      <trkpt lat="44.88872" lon="0.61438">
        <ele>94.5</ele>
        <time>2023-08-06T07:49:25Z</time>
      </trkpt>
      <trkpt lat="44.88869" lon="0.61439">
        <ele>94.6</ele>
        <time>2023-08-06T07:49:26Z</time>
      </trkpt>
      <trkpt lat="44.88865" lon="0.61442">
        <ele>94.8</ele>
        <time>2023-08-06T07:49:28Z</time>
      </trkpt>
      <trkpt lat="44.8886" lon="0.61444">
        <ele>95.1</ele>
        <time>2023-08-06T07:49:30Z</time>
      </trkpt>
      <trkpt lat="44.88854" lon="0.61446">
        <ele>95.3</ele>
        <time>2023-08-06T07:49:32Z</time>
      </trkpt>
      <trkpt lat="44.88851" lon="0.61447">
        <ele>95.5</ele>
        <time>2023-08-06T07:49:33Z</time>
      </trkpt>
      <trkpt lat="44.8885" lon="0.61448">
        <ele>95.6</ele>
        <time>2023-08-06T07:49:34Z</time>
      </trkpt>
      <trkpt lat="44.88848" lon="0.6145">
        <ele>95.7</ele>
        <time>2023-08-06T07:49:35Z</time>
      </trkpt>
      <trkpt lat="44.88846" lon="0.61452">
        <ele>95.8</ele>
        <time>2023-08-06T07:49:36Z</time>
      </trkpt>
      <trkpt lat="44.8884" lon="0.61455">
        <ele>96.2</ele>
        <time>2023-08-06T07:49:38Z</time>
      </trkpt>
      <trkpt lat="44.88837" lon="0.61457">
        <ele>96.4</ele>
        <time>2023-08-06T07:49:39Z</time>
      </trkpt>
      <trkpt lat="44.88835" lon="0.61458">
        <ele>96.6</ele>
        <time>2023-08-06T07:49:40Z</time>
      </trkpt>
      <trkpt lat="44.8883" lon="0.6146">
        <ele>96.9</ele>
        <time>2023-08-06T07:49:42Z</time>
      </trkpt>
      <trkpt lat="44.88826" lon="0.61462">
        <ele>97.2</ele>
        <time>2023-08-06T07:49:44Z</time>
      </trkpt>
      <trkpt lat="44.88822" lon="0.61465">
        <ele>97.5</ele>
        <time>2023-08-06T07:49:46Z</time>
      </trkpt>
      <trkpt lat="44.88818" lon="0.61466">
        <ele>97.8</ele>
        <time>2023-08-06T07:49:48Z</time>
      </trkpt>
      <trkpt lat="44.88817" lon="0.61468">
        <ele>98</ele>
        <time>2023-08-06T07:49:49Z</time>
      </trkpt>
      <trkpt lat="44.88815" lon="0.61469">
        <ele>98.1</ele>
        <time>2023-08-06T07:49:50Z</time>
      </trkpt>
      <trkpt lat="44.8881" lon="0.61472">
        <ele>98.4</ele>
        <time>2023-08-06T07:49:52Z</time>
      </trkpt>
      <trkpt lat="44.88807" lon="0.61473">
        <ele>98.6</ele>
        <time>2023-08-06T07:49:53Z</time>
      </trkpt>
      <trkpt lat="44.88804" lon="0.61474">
        <ele>98.8</ele>
        <time>2023-08-06T07:49:54Z</time>
      </trkpt>
      <trkpt lat="44.88801" lon="0.61474">
        <ele>99</ele>
        <time>2023-08-06T07:49:55Z</time>
      </trkpt>
      <trkpt lat="44.88798" lon="0.61475">
        <ele>99.2</ele>
        <time>2023-08-06T07:49:56Z</time>
      </trkpt>
      <trkpt lat="44.88795" lon="0.61476">
        <ele>99.4</ele>
        <time>2023-08-06T07:49:57Z</time>
      </trkpt>
      <trkpt lat="44.88793" lon="0.61476">
        <ele>99.5</ele>
        <time>2023-08-06T07:49:58Z</time>
      </trkpt>
      <trkpt lat="44.88791" lon="0.61477">
        <ele>99.7</ele>
        <time>2023-08-06T07:49:59Z</time>
      </trkpt>
      <trkpt lat="44.88789" lon="0.61478">
        <ele>99.8</ele>
        <time>2023-08-06T07:50:00Z</time>
      </trkpt>
      <trkpt lat="44.88788" lon="0.6148">
        <ele>99.9</ele>
        <time>2023-08-06T07:50:01Z</time>
      </trkpt>
      <trkpt lat="44.88786" lon="0.61482">
        <ele>100</ele>
        <time>2023-08-06T07:50:02Z</time>
      </trkpt>
      <trkpt lat="44.88784" lon="0.61485">
        <ele>100.2</ele>
        <time>2023-08-06T07:50:04Z</time>
      </trkpt>
      <trkpt lat="44.8878" lon="0.61488">
        <ele>100.5</ele>
        <time>2023-08-06T07:50:06Z</time>
      </trkpt>
      <trkpt lat="44.88776" lon="0.61491">
        <ele>100.8</ele>
        <time>2023-08-06T07:50:08Z</time>
      </trkpt>
      <trkpt lat="44.88772" lon="0.61494">
        <ele>101</ele>
        <time>2023-08-06T07:50:10Z</time>
      </trkpt>
      <trkpt lat="44.88769" lon="0.61495">
        <ele>101.1</ele>
        <time>2023-08-06T07:50:11Z</time>
      </trkpt>
      <trkpt lat="44.88767" lon="0.61497">
        <ele>101.3</ele>
        <time>2023-08-06T07:50:12Z</time>
      </trkpt>
      <trkpt lat="44.88763" lon="0.615">
        <ele>101.5</ele>
        <time>2023-08-06T07:50:14Z</time>
      </trkpt>
      <trkpt lat="44.88761" lon="0.61501">
        <ele>101.6</ele>
        <time>2023-08-06T07:50:15Z</time>
      </trkpt>
      <trkpt lat="44.8876" lon="0.61502">
        <ele>101.7</ele>
        <time>2023-08-06T07:50:16Z</time>
      </trkpt>
      <trkpt lat="44.88755" lon="0.61504">
        <ele>102</ele>
        <time>2023-08-06T07:50:18Z</time>
      </trkpt>
      <trkpt lat="44.8875" lon="0.61506">
        <ele>102.3</ele>
        <time>2023-08-06T07:50:20Z</time>
      </trkpt>
      <trkpt lat="44.88747" lon="0.61506">
        <ele>102.4</ele>
        <time>2023-08-06T07:50:21Z</time>
      </trkpt>
      <trkpt lat="44.88745" lon="0.61507">
        <ele>102.5</ele>
        <time>2023-08-06T07:50:22Z</time>
      </trkpt>
      <trkpt lat="44.88744" lon="0.61508">
        <ele>102.6</ele>
        <time>2023-08-06T07:50:24Z</time>
      </trkpt>
      <trkpt lat="44.88741" lon="0.61509">
        <ele>102.7</ele>
        <time>2023-08-06T07:50:25Z</time>
      </trkpt>
      <trkpt lat="44.88737" lon="0.6151">
        <ele>102.9</ele>
        <time>2023-08-06T07:50:26Z</time>
      </trkpt>
      <trkpt lat="44.8873" lon="0.61513">
        <ele>103.2</ele>
        <time>2023-08-06T07:50:28Z</time>
      </trkpt>
      <trkpt lat="44.88724" lon="0.61516">
        <ele>103.5</ele>
        <time>2023-08-06T07:50:30Z</time>
      </trkpt>
      <trkpt lat="44.88718" lon="0.61519">
        <ele>103.8</ele>
        <time>2023-08-06T07:50:32Z</time>
      </trkpt>
      <trkpt lat="44.88712" lon="0.61522">
        <ele>104.2</ele>
        <time>2023-08-06T07:50:34Z</time>
      </trkpt>
      <trkpt lat="44.88709" lon="0.61523">
        <ele>104.3</ele>
        <time>2023-08-06T07:50:35Z</time>
      </trkpt>
      <trkpt lat="44.88706" lon="0.61523">
        <ele>104.5</ele>
        <time>2023-08-06T07:50:36Z</time>
      </trkpt>
      <trkpt lat="44.887" lon="0.61524">
        <ele>104.9</ele>
        <time>2023-08-06T07:50:38Z</time>
      </trkpt>
      <trkpt lat="44.88695" lon="0.61526">
        <ele>105.2</ele>
        <time>2023-08-06T07:50:40Z</time>
      </trkpt>
      <trkpt lat="44.88692" lon="0.61527">
        <ele>105.4</ele>
        <time>2023-08-06T07:50:41Z</time>
      </trkpt>
      <trkpt lat="44.88689" lon="0.61529">
        <ele>105.5</ele>
        <time>2023-08-06T07:50:42Z</time>
      </trkpt>
      <trkpt lat="44.88684" lon="0.6153">
        <ele>105.7</ele>
        <time>2023-08-06T07:50:44Z</time>
      </trkpt>
      <trkpt lat="44.88679" lon="0.61532">
        <ele>105.9</ele>
        <time>2023-08-06T07:50:46Z</time>
      </trkpt>
      <trkpt lat="44.88674" lon="0.61533">
        <ele>106.1</ele>
        <time>2023-08-06T07:50:48Z</time>
      </trkpt>
      <trkpt lat="44.88669" lon="0.61535">
        <ele>106.3</ele>
        <time>2023-08-06T07:50:50Z</time>
      </trkpt>
      <trkpt lat="44.88664" lon="0.61538">
        <ele>106.6</ele>
        <time>2023-08-06T07:50:52Z</time>
      </trkpt>
      <trkpt lat="44.88658" lon="0.61542">
        <ele>106.8</ele>
        <time>2023-08-06T07:50:54Z</time>
      </trkpt>
      <trkpt lat="44.88654" lon="0.61545">
        <ele>107</ele>
        <time>2023-08-06T07:50:56Z</time>
      </trkpt>
      <trkpt lat="44.8865" lon="0.61549">
        <ele>107.2</ele>
        <time>2023-08-06T07:50:58Z</time>
      </trkpt>
      <trkpt lat="44.88645" lon="0.61552">
        <ele>107.4</ele>
        <time>2023-08-06T07:51:00Z</time>
      </trkpt>
      <trkpt lat="44.88641" lon="0.61556">
        <ele>107.7</ele>
        <time>2023-08-06T07:51:02Z</time>
      </trkpt>
      <trkpt lat="44.88636" lon="0.61558">
        <ele>107.9</ele>
        <time>2023-08-06T07:51:04Z</time>
      </trkpt>
      <trkpt lat="44.88632" lon="0.61562">
        <ele>108.1</ele>
        <time>2023-08-06T07:51:06Z</time>
      </trkpt>
      <trkpt lat="44.88628" lon="0.61566">
        <ele>108.3</ele>
        <time>2023-08-06T07:51:08Z</time>
      </trkpt>
      <trkpt lat="44.88626" lon="0.61572">
        <ele>108.5</ele>
        <time>2023-08-06T07:51:10Z</time>
      </trkpt>
      <trkpt lat="44.88625" lon="0.61574">
        <ele>108.6</ele>
        <time>2023-08-06T07:51:11Z</time>
      </trkpt>
      <trkpt lat="44.88624" lon="0.61577">
        <ele>108.7</ele>
        <time>2023-08-06T07:51:12Z</time>
      </trkpt>
      <trkpt lat="44.88623" lon="0.6158">
        <ele>108.9</ele>
        <time>2023-08-06T07:51:13Z</time>
      </trkpt>
      <trkpt lat="44.88622" lon="0.61582">
        <ele>109</ele>
        <time>2023-08-06T07:51:14Z</time>
      </trkpt>
      <trkpt lat="44.88621" lon="0.61585">
        <ele>109.1</ele>
        <time>2023-08-06T07:51:16Z</time>
      </trkpt>
      <trkpt lat="44.8862" lon="0.6159">
        <ele>109.1</ele>
        <time>2023-08-06T07:51:18Z</time>
      </trkpt>
      <trkpt lat="44.8862" lon="0.61595">
        <ele>109.2</ele>
        <time>2023-08-06T07:51:20Z</time>
      </trkpt>
      <trkpt lat="44.8862" lon="0.61601">
        <ele>109.2</ele>
        <time>2023-08-06T07:51:22Z</time>
      </trkpt>
      <trkpt lat="44.8862" lon="0.61607">
        <ele>109.2</ele>
        <time>2023-08-06T07:51:24Z</time>
      </trkpt>
      <trkpt lat="44.88621" lon="0.61613">
        <ele>109.2</ele>
        <time>2023-08-06T07:51:26Z</time>
      </trkpt>
      <trkpt lat="44.88621" lon="0.61616">
        <ele>109.2</ele>
        <time>2023-08-06T07:51:27Z</time>
      </trkpt>
      <trkpt lat="44.88622" lon="0.61619">
        <ele>109.2</ele>
        <time>2023-08-06T07:51:28Z</time>
      </trkpt>
      <trkpt lat="44.88624" lon="0.61627">
        <ele>109</ele>
        <time>2023-08-06T07:51:30Z</time>
      </trkpt>
      <trkpt lat="44.88625" lon="0.6163">
        <ele>108.7</ele>
        <time>2023-08-06T07:51:31Z</time>
      </trkpt>
      <trkpt lat="44.88626" lon="0.61633">
        <ele>108.7</ele>
        <time>2023-08-06T07:51:32Z</time>
      </trkpt>
      <trkpt lat="44.88629" lon="0.61642">
        <ele>108.6</ele>
        <time>2023-08-06T07:51:34Z</time>
      </trkpt>
      <trkpt lat="44.88631" lon="0.61653">
        <ele>108.6</ele>
        <time>2023-08-06T07:51:36Z</time>
      </trkpt>
      <trkpt lat="44.88632" lon="0.61665">
        <ele>108.4</ele>
        <time>2023-08-06T07:51:38Z</time>
      </trkpt>
      <trkpt lat="44.88633" lon="0.61672">
        <ele>108.4</ele>
        <time>2023-08-06T07:51:40Z</time>
      </trkpt>
      <trkpt lat="44.88633" lon="0.61675">
        <ele>108.3</ele>
        <time>2023-08-06T07:51:41Z</time>
      </trkpt>
      <trkpt lat="44.88631" lon="0.61678">
        <ele>108.5</ele>
        <time>2023-08-06T07:51:42Z</time>
      </trkpt>
      <trkpt lat="44.88638" lon="0.61695">
        <ele>107.9</ele>
        <time>2023-08-06T07:51:44Z</time>
      </trkpt>
      <trkpt lat="44.88641" lon="0.61702">
        <ele>107.7</ele>
        <time>2023-08-06T07:51:45Z</time>
      </trkpt>
      <trkpt lat="44.88645" lon="0.6171">
        <ele>107.5</ele>
        <time>2023-08-06T07:51:46Z</time>
      </trkpt>
      <trkpt lat="44.88649" lon="0.61726">
        <ele>107.1</ele>
        <time>2023-08-06T07:51:48Z</time>
      </trkpt>
      <trkpt lat="44.88652" lon="0.61733">
        <ele>106.8</ele>
        <time>2023-08-06T07:51:49Z</time>
      </trkpt>
      <trkpt lat="44.88654" lon="0.61741">
        <ele>106.5</ele>
        <time>2023-08-06T07:51:50Z</time>
      </trkpt>
      <trkpt lat="44.88657" lon="0.61751">
        <ele>106.1</ele>
        <time>2023-08-06T07:51:51Z</time>
      </trkpt>
      <trkpt lat="44.88662" lon="0.61761">
        <ele>105.6</ele>
        <time>2023-08-06T07:51:52Z</time>
      </trkpt>
      <trkpt lat="44.88666" lon="0.61772">
        <ele>104.8</ele>
        <time>2023-08-06T07:51:53Z</time>
      </trkpt>
      <trkpt lat="44.88668" lon="0.61783">
        <ele>104.1</ele>
        <time>2023-08-06T07:51:54Z</time>
      </trkpt>
      <trkpt lat="44.88669" lon="0.61794">
        <ele>103.8</ele>
        <time>2023-08-06T07:51:55Z</time>
      </trkpt>
      <trkpt lat="44.88668" lon="0.61804">
        <ele>103.3</ele>
        <time>2023-08-06T07:51:56Z</time>
      </trkpt>
      <trkpt lat="44.88668" lon="0.61813">
        <ele>103.4</ele>
        <time>2023-08-06T07:51:57Z</time>
      </trkpt>
      <trkpt lat="44.88667" lon="0.6182">
        <ele>103.1</ele>
        <time>2023-08-06T07:51:58Z</time>
      </trkpt>
      <trkpt lat="44.88666" lon="0.61828">
        <ele>103</ele>
        <time>2023-08-06T07:51:59Z</time>
      </trkpt>
      <trkpt lat="44.88665" lon="0.61835">
        <ele>102.7</ele>
        <time>2023-08-06T07:52:00Z</time>
      </trkpt>
      <trkpt lat="44.88664" lon="0.61845">
        <ele>102.7</ele>
        <time>2023-08-06T07:52:01Z</time>
      </trkpt>
      <trkpt lat="44.88662" lon="0.61855">
        <ele>102.6</ele>
        <time>2023-08-06T07:52:02Z</time>
      </trkpt>
      <trkpt lat="44.8866" lon="0.61866">
        <ele>102.3</ele>
        <time>2023-08-06T07:52:03Z</time>
      </trkpt>
      <trkpt lat="44.88658" lon="0.61877">
        <ele>101.9</ele>
        <time>2023-08-06T07:52:04Z</time>
      </trkpt>
      <trkpt lat="44.88657" lon="0.61887">
        <ele>101.6</ele>
        <time>2023-08-06T07:52:05Z</time>
      </trkpt>
      <trkpt lat="44.88656" lon="0.61896">
        <ele>101.2</ele>
        <time>2023-08-06T07:52:06Z</time>
      </trkpt>
      <trkpt lat="44.88655" lon="0.6191">
        <ele>100.9</ele>
        <time>2023-08-06T07:52:08Z</time>
      </trkpt>
      <trkpt lat="44.88651" lon="0.61919">
        <ele>100.9</ele>
        <time>2023-08-06T07:52:10Z</time>
      </trkpt>
      <trkpt lat="44.88646" lon="0.61929">
        <ele>101.1</ele>
        <time>2023-08-06T07:52:12Z</time>
      </trkpt>
      <trkpt lat="44.88638" lon="0.61947">
        <ele>101.2</ele>
        <time>2023-08-06T07:52:14Z</time>
      </trkpt>
      <trkpt lat="44.88631" lon="0.61961">
        <ele>101.8</ele>
        <time>2023-08-06T07:52:16Z</time>
      </trkpt>
      <trkpt lat="44.88628" lon="0.61967">
        <ele>102.1</ele>
        <time>2023-08-06T07:52:17Z</time>
      </trkpt>
      <trkpt lat="44.88625" lon="0.61972">
        <ele>102.4</ele>
        <time>2023-08-06T07:52:18Z</time>
      </trkpt>
      <trkpt lat="44.88618" lon="0.61982">
        <ele>103.1</ele>
        <time>2023-08-06T07:52:20Z</time>
      </trkpt>
      <trkpt lat="44.88614" lon="0.61986">
        <ele>103.4</ele>
        <time>2023-08-06T07:52:21Z</time>
      </trkpt>
      <trkpt lat="44.88611" lon="0.61991">
        <ele>103.7</ele>
        <time>2023-08-06T07:52:22Z</time>
      </trkpt>
      <trkpt lat="44.88606" lon="0.62001">
        <ele>104.8</ele>
        <time>2023-08-06T07:52:24Z</time>
      </trkpt>
      <trkpt lat="44.88603" lon="0.62004">
        <ele>104.9</ele>
        <time>2023-08-06T07:52:25Z</time>
      </trkpt>
      <trkpt lat="44.88601" lon="0.62008">
        <ele>105.2</ele>
        <time>2023-08-06T07:52:26Z</time>
      </trkpt>
      <trkpt lat="44.88598" lon="0.62014">
        <ele>106</ele>
        <time>2023-08-06T07:52:28Z</time>
      </trkpt>
      <trkpt lat="44.88594" lon="0.62017">
        <ele>106.4</ele>
        <time>2023-08-06T07:52:29Z</time>
      </trkpt>
      <trkpt lat="44.8859" lon="0.62019">
        <ele>106.6</ele>
        <time>2023-08-06T07:52:30Z</time>
      </trkpt>
      <trkpt lat="44.88582" lon="0.62023">
        <ele>107.2</ele>
        <time>2023-08-06T07:52:32Z</time>
      </trkpt>
      <trkpt lat="44.88577" lon="0.62028">
        <ele>107.5</ele>
        <time>2023-08-06T07:52:34Z</time>
      </trkpt>
      <trkpt lat="44.88574" lon="0.62033">
        <ele>107.8</ele>
        <time>2023-08-06T07:52:36Z</time>
      </trkpt>
      <trkpt lat="44.8857" lon="0.62036">
        <ele>108.2</ele>
        <time>2023-08-06T07:52:38Z</time>
      </trkpt>
      <trkpt lat="44.88565" lon="0.62039">
        <ele>108.4</ele>
        <time>2023-08-06T07:52:40Z</time>
      </trkpt>
      <trkpt lat="44.88561" lon="0.62042">
        <ele>108.5</ele>
        <time>2023-08-06T07:52:42Z</time>
      </trkpt>
      <trkpt lat="44.88558" lon="0.62045">
        <ele>108.7</ele>
        <time>2023-08-06T07:52:44Z</time>
      </trkpt>
      <trkpt lat="44.88554" lon="0.62047">
        <ele>108.9</ele>
        <time>2023-08-06T07:52:46Z</time>
      </trkpt>
      <trkpt lat="44.88551" lon="0.62049">
        <ele>108.9</ele>
        <time>2023-08-06T07:52:47Z</time>
      </trkpt>
      <trkpt lat="44.88548" lon="0.62051">
        <ele>109.1</ele>
        <time>2023-08-06T07:52:48Z</time>
      </trkpt>
      <trkpt lat="44.88545" lon="0.62053">
        <ele>109.1</ele>
        <time>2023-08-06T07:52:49Z</time>
      </trkpt>
      <trkpt lat="44.88543" lon="0.62055">
        <ele>109.1</ele>
        <time>2023-08-06T07:52:50Z</time>
      </trkpt>
      <trkpt lat="44.88541" lon="0.62058">
        <ele>109.2</ele>
        <time>2023-08-06T07:52:51Z</time>
      </trkpt>
      <trkpt lat="44.88538" lon="0.6206">
        <ele>109.3</ele>
        <time>2023-08-06T07:52:52Z</time>
      </trkpt>
      <trkpt lat="44.88536" lon="0.62063">
        <ele>109.2</ele>
        <time>2023-08-06T07:52:53Z</time>
      </trkpt>
      <trkpt lat="44.88534" lon="0.62065">
        <ele>109.3</ele>
        <time>2023-08-06T07:52:54Z</time>
      </trkpt>
      <trkpt lat="44.88533" lon="0.62067">
        <ele>109.2</ele>
        <time>2023-08-06T07:52:55Z</time>
      </trkpt>
      <trkpt lat="44.8853" lon="0.62069">
        <ele>109.2</ele>
        <time>2023-08-06T07:52:56Z</time>
      </trkpt>
      <trkpt lat="44.88524" lon="0.62072">
        <ele>109.1</ele>
        <time>2023-08-06T07:52:58Z</time>
      </trkpt>
      <trkpt lat="44.8852" lon="0.62076">
        <ele>109.1</ele>
        <time>2023-08-06T07:53:00Z</time>
      </trkpt>
      <trkpt lat="44.88515" lon="0.62078">
        <ele>109.1</ele>
        <time>2023-08-06T07:53:02Z</time>
      </trkpt>
      <trkpt lat="44.88512" lon="0.62081">
        <ele>109</ele>
        <time>2023-08-06T07:53:04Z</time>
      </trkpt>
      <trkpt lat="44.88512" lon="0.62083">
        <ele>109</ele>
        <time>2023-08-06T07:53:05Z</time>
      </trkpt>
      <trkpt lat="44.88512" lon="0.62084">
        <ele>109</ele>
        <time>2023-08-06T07:53:06Z</time>
      </trkpt>
      <trkpt lat="44.88514" lon="0.62087">
        <ele>109.1</ele>
        <time>2023-08-06T07:53:08Z</time>
      </trkpt>
      <trkpt lat="44.88515" lon="0.62088">
        <ele>109</ele>
        <time>2023-08-06T07:53:09Z</time>
      </trkpt>
      <trkpt lat="44.88517" lon="0.6209">
        <ele>109.1</ele>
        <time>2023-08-06T07:53:10Z</time>
      </trkpt>
      <trkpt lat="44.88518" lon="0.62091">
        <ele>109.1</ele>
        <time>2023-08-06T07:53:11Z</time>
      </trkpt>
      <trkpt lat="44.88518" lon="0.62093">
        <ele>109.1</ele>
        <time>2023-08-06T07:53:12Z</time>
      </trkpt>
      <trkpt lat="44.8852" lon="0.62095">
        <ele>109.3</ele>
        <time>2023-08-06T07:53:14Z</time>
      </trkpt>
      <trkpt lat="44.8852" lon="0.62097">
        <ele>109.3</ele>
        <time>2023-08-06T07:53:16Z</time>
      </trkpt>
      <trkpt lat="44.8852" lon="0.62099">
        <ele>109.4</ele>
        <time>2023-08-06T07:53:17Z</time>
      </trkpt>
      <trkpt lat="44.8852" lon="0.62101">
        <ele>109.4</ele>
        <time>2023-08-06T07:53:18Z</time>
      </trkpt>
      <trkpt lat="44.88521" lon="0.62105">
        <ele>109.6</ele>
        <time>2023-08-06T07:53:20Z</time>
      </trkpt>
      <trkpt lat="44.88521" lon="0.62107">
        <ele>109.6</ele>
        <time>2023-08-06T07:53:22Z</time>
      </trkpt>
      <trkpt lat="44.88521" lon="0.62107">
        <ele>109.6</ele>
        <time>2023-08-06T07:53:23Z</time>
      </trkpt>
      <trkpt lat="44.88522" lon="0.62108">
        <ele>109.8</ele>
        <time>2023-08-06T07:53:24Z</time>
      </trkpt>
      <trkpt lat="44.88522" lon="0.62108">
        <ele>109.7</ele>
        <time>2023-08-06T07:53:26Z</time>
      </trkpt>
      <trkpt lat="44.88522" lon="0.62195">
        <ele>116.7</ele>
        <time>2023-08-06T07:56:00Z</time>
      </trkpt>
      <trkpt lat="44.88518" lon="0.62193">
        <ele>116.2</ele>
        <time>2023-08-06T07:56:02Z</time>
      </trkpt>
      <trkpt lat="44.88511" lon="0.62191">
        <ele>114.9</ele>
        <time>2023-08-06T07:56:04Z</time>
      </trkpt>
      <trkpt lat="44.88508" lon="0.62191">
        <ele>114.4</ele>
        <time>2023-08-06T07:56:05Z</time>
      </trkpt>
      <trkpt lat="44.88506" lon="0.62192">
        <ele>114</ele>
        <time>2023-08-06T07:56:06Z</time>
      </trkpt>
      <trkpt lat="44.88504" lon="0.62194">
        <ele>114.3</ele>
        <time>2023-08-06T07:56:07Z</time>
      </trkpt>
      <trkpt lat="44.88503" lon="0.62196">
        <ele>113.8</ele>
        <time>2023-08-06T07:56:08Z</time>
      </trkpt>
      <trkpt lat="44.88498" lon="0.62199">
        <ele>113.7</ele>
        <time>2023-08-06T07:56:10Z</time>
      </trkpt>
      <trkpt lat="44.88493" lon="0.62204">
        <ele>113.1</ele>
        <time>2023-08-06T07:56:12Z</time>
      </trkpt>
      <trkpt lat="44.8849" lon="0.62209">
        <ele>113</ele>
        <time>2023-08-06T07:56:14Z</time>
      </trkpt>
      <trkpt lat="44.88487" lon="0.62213">
        <ele>112.8</ele>
        <time>2023-08-06T07:56:16Z</time>
      </trkpt>
      <trkpt lat="44.88484" lon="0.62217">
        <ele>112.7</ele>
        <time>2023-08-06T07:56:18Z</time>
      </trkpt>
      <trkpt lat="44.88481" lon="0.6222">
        <ele>112.6</ele>
        <time>2023-08-06T07:56:19Z</time>
      </trkpt>
      <trkpt lat="44.88479" lon="0.62224">
        <ele>112.4</ele>
        <time>2023-08-06T07:56:20Z</time>
      </trkpt>
      <trkpt lat="44.88476" lon="0.62227">
        <ele>112</ele>
        <time>2023-08-06T07:56:21Z</time>
      </trkpt>
      <trkpt lat="44.88474" lon="0.6223">
        <ele>112.2</ele>
        <time>2023-08-06T07:56:22Z</time>
      </trkpt>
      <trkpt lat="44.88473" lon="0.62234">
        <ele>112.1</ele>
        <time>2023-08-06T07:56:23Z</time>
      </trkpt>
      <trkpt lat="44.88471" lon="0.62237">
        <ele>112.4</ele>
        <time>2023-08-06T07:56:24Z</time>
      </trkpt>
      <trkpt lat="44.88468" lon="0.62241">
        <ele>112.2</ele>
        <time>2023-08-06T07:56:25Z</time>
      </trkpt>
      <trkpt lat="44.88467" lon="0.62246">
        <ele>112.1</ele>
        <time>2023-08-06T07:56:26Z</time>
      </trkpt>
      <trkpt lat="44.88465" lon="0.6225">
        <ele>112.4</ele>
        <time>2023-08-06T07:56:28Z</time>
      </trkpt>
      <trkpt lat="44.88464" lon="0.62252">
        <ele>112.4</ele>
        <time>2023-08-06T07:56:29Z</time>
      </trkpt>
      <trkpt lat="44.88458" lon="0.62266">
        <ele>112.7</ele>
        <time>2023-08-06T07:56:34Z</time>
      </trkpt>
      <trkpt lat="44.88456" lon="0.62268">
        <ele>112.7</ele>
        <time>2023-08-06T07:56:35Z</time>
      </trkpt>
      <trkpt lat="44.88457" lon="0.62269">
        <ele>112.7</ele>
        <time>2023-08-06T07:56:36Z</time>
      </trkpt>
      <trkpt lat="44.88458" lon="0.62272">
        <ele>113.1</ele>
        <time>2023-08-06T07:56:37Z</time>
      </trkpt>
      <trkpt lat="44.88458" lon="0.62273">
        <ele>113.5</ele>
        <time>2023-08-06T07:56:38Z</time>
      </trkpt>
      <trkpt lat="44.88459" lon="0.62276">
        <ele>114</ele>
        <time>2023-08-06T07:56:39Z</time>
      </trkpt>
      <trkpt lat="44.8846" lon="0.62279">
        <ele>114.4</ele>
        <time>2023-08-06T07:56:40Z</time>
      </trkpt>
      <trkpt lat="44.88461" lon="0.62284">
        <ele>115.4</ele>
        <time>2023-08-06T07:56:42Z</time>
      </trkpt>
      <trkpt lat="44.88464" lon="0.62289">
        <ele>115.8</ele>
        <time>2023-08-06T07:56:44Z</time>
      </trkpt>
      <trkpt lat="44.88464" lon="0.62293">
        <ele>116.3</ele>
        <time>2023-08-06T07:56:46Z</time>
      </trkpt>
      <trkpt lat="44.88465" lon="0.62297">
        <ele>117.2</ele>
        <time>2023-08-06T07:56:48Z</time>
      </trkpt>
      <trkpt lat="44.88466" lon="0.62299">
        <ele>117.2</ele>
        <time>2023-08-06T07:56:49Z</time>
      </trkpt>
      <trkpt lat="44.88467" lon="0.62301">
        <ele>117.6</ele>
        <time>2023-08-06T07:56:50Z</time>
      </trkpt>
      <trkpt lat="44.8847" lon="0.62305">
        <ele>118.6</ele>
        <time>2023-08-06T07:56:52Z</time>
      </trkpt>
      <trkpt lat="44.88471" lon="0.62307">
        <ele>119.1</ele>
        <time>2023-08-06T07:56:53Z</time>
      </trkpt>
      <trkpt lat="44.88472" lon="0.62308">
        <ele>119.1</ele>
        <time>2023-08-06T07:56:54Z</time>
      </trkpt>
      <trkpt lat="44.88473" lon="0.6231">
        <ele>119.5</ele>
        <time>2023-08-06T07:56:55Z</time>
      </trkpt>
      <trkpt lat="44.88472" lon="0.62311">
        <ele>119.5</ele>
        <time>2023-08-06T07:56:56Z</time>
      </trkpt>
      <trkpt lat="44.88472" lon="0.62313">
        <ele>119.4</ele>
        <time>2023-08-06T07:56:57Z</time>
      </trkpt>
      <trkpt lat="44.88471" lon="0.62314">
        <ele>119.8</ele>
        <time>2023-08-06T07:56:58Z</time>
      </trkpt>
      <trkpt lat="44.88466" lon="0.62319">
        <ele>119</ele>
        <time>2023-08-06T07:57:00Z</time>
      </trkpt>
      <trkpt lat="44.88464" lon="0.62322">
        <ele>118.6</ele>
        <time>2023-08-06T07:57:01Z</time>
      </trkpt>
      <trkpt lat="44.88463" lon="0.62325">
        <ele>118.3</ele>
        <time>2023-08-06T07:57:02Z</time>
      </trkpt>
      <trkpt lat="44.8846" lon="0.62331">
        <ele>117.7</ele>
        <time>2023-08-06T07:57:04Z</time>
      </trkpt>
      <trkpt lat="44.88457" lon="0.62337">
        <ele>117.2</ele>
        <time>2023-08-06T07:57:05Z</time>
      </trkpt>
      <trkpt lat="44.88453" lon="0.62341">
        <ele>116.9</ele>
        <time>2023-08-06T07:57:06Z</time>
      </trkpt>
      <trkpt lat="44.88447" lon="0.6235">
        <ele>116.4</ele>
        <time>2023-08-06T07:57:08Z</time>
      </trkpt>
      <trkpt lat="44.88444" lon="0.62353">
        <ele>116.2</ele>
        <time>2023-08-06T07:57:09Z</time>
      </trkpt>
      <trkpt lat="44.8844" lon="0.62356">
        <ele>116</ele>
        <time>2023-08-06T07:57:10Z</time>
      </trkpt>
      <trkpt lat="44.88432" lon="0.62357">
        <ele>115.5</ele>
        <time>2023-08-06T07:57:12Z</time>
      </trkpt>
      <trkpt lat="44.88422" lon="0.62357">
        <ele>114.9</ele>
        <time>2023-08-06T07:57:14Z</time>
      </trkpt>
      <trkpt lat="44.88419" lon="0.62357">
        <ele>114.6</ele>
        <time>2023-08-06T07:57:15Z</time>
      </trkpt>
      <trkpt lat="44.88417" lon="0.62355">
        <ele>114.4</ele>
        <time>2023-08-06T07:57:16Z</time>
      </trkpt>
      <trkpt lat="44.88414" lon="0.62349">
        <ele>113.8</ele>
        <time>2023-08-06T07:57:18Z</time>
      </trkpt>
      <trkpt lat="44.88411" lon="0.62343">
        <ele>113.2</ele>
        <time>2023-08-06T07:57:19Z</time>
      </trkpt>
      <trkpt lat="44.88408" lon="0.62338">
        <ele>112.6</ele>
        <time>2023-08-06T07:57:20Z</time>
      </trkpt>
      <trkpt lat="44.88404" lon="0.62333">
        <ele>111.8</ele>
        <time>2023-08-06T07:57:21Z</time>
      </trkpt>
      <trkpt lat="44.88401" lon="0.62329">
        <ele>111.2</ele>
        <time>2023-08-06T07:57:22Z</time>
      </trkpt>
      <trkpt lat="44.88398" lon="0.62325">
        <ele>110.6</ele>
        <time>2023-08-06T07:57:23Z</time>
      </trkpt>
      <trkpt lat="44.88395" lon="0.62321">
        <ele>109.9</ele>
        <time>2023-08-06T07:57:24Z</time>
      </trkpt>
      <trkpt lat="44.88387" lon="0.62313">
        <ele>108.7</ele>
        <time>2023-08-06T07:57:26Z</time>
      </trkpt>
      <trkpt lat="44.88384" lon="0.62309">
        <ele>108.1</ele>
        <time>2023-08-06T07:57:27Z</time>
      </trkpt>
      <trkpt lat="44.88381" lon="0.62304">
        <ele>107.7</ele>
        <time>2023-08-06T07:57:28Z</time>
      </trkpt>
      <trkpt lat="44.88375" lon="0.62297">
        <ele>107.7</ele>
        <time>2023-08-06T07:57:30Z</time>
      </trkpt>
      <trkpt lat="44.88371" lon="0.62295">
        <ele>107.8</ele>
        <time>2023-08-06T07:57:31Z</time>
      </trkpt>
      <trkpt lat="44.88367" lon="0.62293">
        <ele>107.8</ele>
        <time>2023-08-06T07:57:32Z</time>
      </trkpt>
      <trkpt lat="44.8836" lon="0.6229">
        <ele>108</ele>
        <time>2023-08-06T07:57:34Z</time>
      </trkpt>
      <trkpt lat="44.88356" lon="0.62287">
        <ele>108.2</ele>
        <time>2023-08-06T07:57:35Z</time>
      </trkpt>
      <trkpt lat="44.88352" lon="0.62286">
        <ele>108.4</ele>
        <time>2023-08-06T07:57:36Z</time>
      </trkpt>
      <trkpt lat="44.88344" lon="0.62282">
        <ele>109</ele>
        <time>2023-08-06T07:57:38Z</time>
      </trkpt>
      <trkpt lat="44.88337" lon="0.6228">
        <ele>109.5</ele>
        <time>2023-08-06T07:57:40Z</time>
      </trkpt>
      <trkpt lat="44.88332" lon="0.62279">
        <ele>109.8</ele>
        <time>2023-08-06T07:57:42Z</time>
      </trkpt>
      <trkpt lat="44.88328" lon="0.62278">
        <ele>110.1</ele>
        <time>2023-08-06T07:57:43Z</time>
      </trkpt>
      <trkpt lat="44.88325" lon="0.62276">
        <ele>110.3</ele>
        <time>2023-08-06T07:57:44Z</time>
      </trkpt>
      <trkpt lat="44.88319" lon="0.62274">
        <ele>110.8</ele>
        <time>2023-08-06T07:57:46Z</time>
      </trkpt>
      <trkpt lat="44.88312" lon="0.62273">
        <ele>111.2</ele>
        <time>2023-08-06T07:57:48Z</time>
      </trkpt>
      <trkpt lat="44.8831" lon="0.62272">
        <ele>111.3</ele>
        <time>2023-08-06T07:57:49Z</time>
      </trkpt>
      <trkpt lat="44.88307" lon="0.62271">
        <ele>111.5</ele>
        <time>2023-08-06T07:57:50Z</time>
      </trkpt>
      <trkpt lat="44.88301" lon="0.62269">
        <ele>112</ele>
        <time>2023-08-06T07:57:52Z</time>
      </trkpt>
      <trkpt lat="44.88299" lon="0.6227">
        <ele>112.1</ele>
        <time>2023-08-06T07:57:53Z</time>
      </trkpt>
      <trkpt lat="44.88297" lon="0.6227">
        <ele>112.3</ele>
        <time>2023-08-06T07:57:54Z</time>
      </trkpt>
      <trkpt lat="44.88294" lon="0.6227">
        <ele>112.5</ele>
        <time>2023-08-06T07:57:56Z</time>
      </trkpt>
      <trkpt lat="44.88293" lon="0.62269">
        <ele>112.6</ele>
        <time>2023-08-06T07:57:57Z</time>
      </trkpt>
      <trkpt lat="44.88291" lon="0.62268">
        <ele>112.7</ele>
        <time>2023-08-06T07:57:58Z</time>
      </trkpt>
      <trkpt lat="44.88287" lon="0.62264">
        <ele>113.1</ele>
        <time>2023-08-06T07:58:00Z</time>
      </trkpt>
      <trkpt lat="44.88284" lon="0.62262">
        <ele>113.3</ele>
        <time>2023-08-06T07:58:01Z</time>
      </trkpt>
      <trkpt lat="44.88282" lon="0.62261">
        <ele>113.4</ele>
        <time>2023-08-06T07:58:02Z</time>
      </trkpt>
      <trkpt lat="44.88279" lon="0.62257">
        <ele>113.6</ele>
        <time>2023-08-06T07:58:04Z</time>
      </trkpt>
      <trkpt lat="44.88276" lon="0.62254">
        <ele>113.9</ele>
        <time>2023-08-06T07:58:06Z</time>
      </trkpt>
      <trkpt lat="44.88273" lon="0.62252">
        <ele>114</ele>
        <time>2023-08-06T07:58:07Z</time>
      </trkpt>
      <trkpt lat="44.88271" lon="0.6225">
        <ele>114.1</ele>
        <time>2023-08-06T07:58:08Z</time>
      </trkpt>
      <trkpt lat="44.88266" lon="0.62247">
        <ele>114.3</ele>
        <time>2023-08-06T07:58:10Z</time>
      </trkpt>
      <trkpt lat="44.8826" lon="0.62244">
        <ele>114.5</ele>
        <time>2023-08-06T07:58:12Z</time>
      </trkpt>
      <trkpt lat="44.88256" lon="0.62241">
        <ele>114.6</ele>
        <time>2023-08-06T07:58:14Z</time>
      </trkpt>
      <trkpt lat="44.88255" lon="0.62239">
        <ele>114.7</ele>
        <time>2023-08-06T07:58:15Z</time>
      </trkpt>
      <trkpt lat="44.88253" lon="0.62239">
        <ele>114.7</ele>
        <time>2023-08-06T07:58:16Z</time>
      </trkpt>
      <trkpt lat="44.8825" lon="0.62238">
        <ele>114.8</ele>
        <time>2023-08-06T07:58:17Z</time>
      </trkpt>
      <trkpt lat="44.88247" lon="0.62236">
        <ele>114.9</ele>
        <time>2023-08-06T07:58:18Z</time>
      </trkpt>
      <trkpt lat="44.88241" lon="0.62234">
        <ele>115.1</ele>
        <time>2023-08-06T07:58:20Z</time>
      </trkpt>
      <trkpt lat="44.88237" lon="0.62233">
        <ele>115.2</ele>
        <time>2023-08-06T07:58:21Z</time>
      </trkpt>
      <trkpt lat="44.88234" lon="0.62233">
        <ele>115.3</ele>
        <time>2023-08-06T07:58:22Z</time>
      </trkpt>
      <trkpt lat="44.88228" lon="0.62233">
        <ele>115.5</ele>
        <time>2023-08-06T07:58:24Z</time>
      </trkpt>
      <trkpt lat="44.88224" lon="0.62233">
        <ele>115.6</ele>
        <time>2023-08-06T07:58:25Z</time>
      </trkpt>
      <trkpt lat="44.88221" lon="0.62233">
        <ele>115.7</ele>
        <time>2023-08-06T07:58:26Z</time>
      </trkpt>
      <trkpt lat="44.88217" lon="0.62232">
        <ele>115.9</ele>
        <time>2023-08-06T07:58:28Z</time>
      </trkpt>
      <trkpt lat="44.88214" lon="0.62231">
        <ele>116</ele>
        <time>2023-08-06T07:58:30Z</time>
      </trkpt>
      <trkpt lat="44.88211" lon="0.62231">
        <ele>116.1</ele>
        <time>2023-08-06T07:58:31Z</time>
      </trkpt>
      <trkpt lat="44.88208" lon="0.62231">
        <ele>116.3</ele>
        <time>2023-08-06T07:58:32Z</time>
      </trkpt>
      <trkpt lat="44.88201" lon="0.62231">
        <ele>116.5</ele>
        <time>2023-08-06T07:58:34Z</time>
      </trkpt>
      <trkpt lat="44.88194" lon="0.6223">
        <ele>116.7</ele>
        <time>2023-08-06T07:58:36Z</time>
      </trkpt>
      <trkpt lat="44.88189" lon="0.62228">
        <ele>116.9</ele>
        <time>2023-08-06T07:58:38Z</time>
      </trkpt>
      <trkpt lat="44.88184" lon="0.62224">
        <ele>117.2</ele>
        <time>2023-08-06T07:58:40Z</time>
      </trkpt>
      <trkpt lat="44.88179" lon="0.62221">
        <ele>117.5</ele>
        <time>2023-08-06T07:58:42Z</time>
      </trkpt>
      <trkpt lat="44.88174" lon="0.62219">
        <ele>117.9</ele>
        <time>2023-08-06T07:58:44Z</time>
      </trkpt>
      <trkpt lat="44.88173" lon="0.62218">
        <ele>118</ele>
        <time>2023-08-06T07:58:45Z</time>
      </trkpt>
      <trkpt lat="44.88172" lon="0.62216">
        <ele>118.1</ele>
        <time>2023-08-06T07:58:46Z</time>
      </trkpt>
      <trkpt lat="44.8817" lon="0.62215">
        <ele>118.3</ele>
        <time>2023-08-06T07:58:47Z</time>
      </trkpt>
      <trkpt lat="44.88168" lon="0.62214">
        <ele>118.5</ele>
        <time>2023-08-06T07:58:48Z</time>
      </trkpt>
      <trkpt lat="44.88163" lon="0.6221">
        <ele>119.1</ele>
        <time>2023-08-06T07:58:50Z</time>
      </trkpt>
      <trkpt lat="44.8816" lon="0.62208">
        <ele>119.4</ele>
        <time>2023-08-06T07:58:52Z</time>
      </trkpt>
      <trkpt lat="44.88155" lon="0.62203">
        <ele>119.9</ele>
        <time>2023-08-06T07:58:54Z</time>
      </trkpt>
      <trkpt lat="44.88153" lon="0.62201">
        <ele>120.1</ele>
        <time>2023-08-06T07:58:55Z</time>
      </trkpt>
      <trkpt lat="44.88152" lon="0.62198">
        <ele>120.4</ele>
        <time>2023-08-06T07:58:56Z</time>
      </trkpt>
      <trkpt lat="44.88148" lon="0.62192">
        <ele>120.9</ele>
        <time>2023-08-06T07:58:58Z</time>
      </trkpt>
      <trkpt lat="44.88144" lon="0.62188">
        <ele>121.3</ele>
        <time>2023-08-06T07:59:00Z</time>
      </trkpt>
      <trkpt lat="44.8814" lon="0.62184">
        <ele>121.7</ele>
        <time>2023-08-06T07:59:02Z</time>
      </trkpt>
      <trkpt lat="44.88137" lon="0.62181">
        <ele>122</ele>
        <time>2023-08-06T07:59:04Z</time>
      </trkpt>
      <trkpt lat="44.88133" lon="0.62178">
        <ele>122.2</ele>
        <time>2023-08-06T07:59:06Z</time>
      </trkpt>
      <trkpt lat="44.8813" lon="0.62173">
        <ele>122.5</ele>
        <time>2023-08-06T07:59:08Z</time>
      </trkpt>
      <trkpt lat="44.88128" lon="0.62171">
        <ele>122.7</ele>
        <time>2023-08-06T07:59:09Z</time>
      </trkpt>
      <trkpt lat="44.88125" lon="0.62168">
        <ele>122.8</ele>
        <time>2023-08-06T07:59:10Z</time>
      </trkpt>
      <trkpt lat="44.88123" lon="0.62166">
        <ele>122.9</ele>
        <time>2023-08-06T07:59:11Z</time>
      </trkpt>
      <trkpt lat="44.88121" lon="0.62164">
        <ele>123</ele>
        <time>2023-08-06T07:59:12Z</time>
      </trkpt>
      <trkpt lat="44.88119" lon="0.62162">
        <ele>123.1</ele>
        <time>2023-08-06T07:59:13Z</time>
      </trkpt>
      <trkpt lat="44.88117" lon="0.6216">
        <ele>123.2</ele>
        <time>2023-08-06T07:59:14Z</time>
      </trkpt>
      <trkpt lat="44.88112" lon="0.62155">
        <ele>123.4</ele>
        <time>2023-08-06T07:59:16Z</time>
      </trkpt>
      <trkpt lat="44.88106" lon="0.62149">
        <ele>123.6</ele>
        <time>2023-08-06T07:59:18Z</time>
      </trkpt>
      <trkpt lat="44.88101" lon="0.62144">
        <ele>123.7</ele>
        <time>2023-08-06T07:59:20Z</time>
      </trkpt>
      <trkpt lat="44.88097" lon="0.62138">
        <ele>123.8</ele>
        <time>2023-08-06T07:59:22Z</time>
      </trkpt>
      <trkpt lat="44.88094" lon="0.62135">
        <ele>123.9</ele>
        <time>2023-08-06T07:59:23Z</time>
      </trkpt>
      <trkpt lat="44.88092" lon="0.62133">
        <ele>123.9</ele>
        <time>2023-08-06T07:59:24Z</time>
      </trkpt>
      <trkpt lat="44.88089" lon="0.62127">
        <ele>124</ele>
        <time>2023-08-06T07:59:26Z</time>
      </trkpt>
      <trkpt lat="44.88088" lon="0.6212">
        <ele>124</ele>
        <time>2023-08-06T07:59:28Z</time>
      </trkpt>
      <trkpt lat="44.88087" lon="0.62113">
        <ele>124.1</ele>
        <time>2023-08-06T07:59:30Z</time>
      </trkpt>
      <trkpt lat="44.88084" lon="0.62106">
        <ele>124.2</ele>
        <time>2023-08-06T07:59:32Z</time>
      </trkpt>
      <trkpt lat="44.88083" lon="0.62103">
        <ele>124.3</ele>
        <time>2023-08-06T07:59:33Z</time>
      </trkpt>
      <trkpt lat="44.88082" lon="0.621">
        <ele>124.3</ele>
        <time>2023-08-06T07:59:34Z</time>
      </trkpt>
      <trkpt lat="44.8808" lon="0.6209">
        <ele>124.4</ele>
        <time>2023-08-06T07:59:36Z</time>
      </trkpt>
      <trkpt lat="44.88078" lon="0.62086">
        <ele>124.5</ele>
        <time>2023-08-06T07:59:37Z</time>
      </trkpt>
      <trkpt lat="44.88076" lon="0.62082">
        <ele>124.6</ele>
        <time>2023-08-06T07:59:38Z</time>
      </trkpt>
      <trkpt lat="44.88073" lon="0.62081">
        <ele>124.6</ele>
        <time>2023-08-06T07:59:39Z</time>
      </trkpt>
      <trkpt lat="44.8807" lon="0.62079">
        <ele>124.7</ele>
        <time>2023-08-06T07:59:40Z</time>
      </trkpt>
      <trkpt lat="44.88068" lon="0.62077">
        <ele>124.8</ele>
        <time>2023-08-06T07:59:41Z</time>
      </trkpt>
      <trkpt lat="44.88067" lon="0.62075">
        <ele>124.8</ele>
        <time>2023-08-06T07:59:42Z</time>
      </trkpt>
      <trkpt lat="44.88065" lon="0.62071">
        <ele>124.9</ele>
        <time>2023-08-06T07:59:43Z</time>
      </trkpt>
      <trkpt lat="44.88063" lon="0.62067">
        <ele>124.9</ele>
        <time>2023-08-06T07:59:44Z</time>
      </trkpt>
      <trkpt lat="44.88059" lon="0.6206">
        <ele>125.1</ele>
        <time>2023-08-06T07:59:46Z</time>
      </trkpt>
      <trkpt lat="44.88057" lon="0.62057">
        <ele>125.1</ele>
        <time>2023-08-06T07:59:47Z</time>
      </trkpt>
      <trkpt lat="44.88056" lon="0.62053">
        <ele>125.2</ele>
        <time>2023-08-06T07:59:48Z</time>
      </trkpt>
      <trkpt lat="44.88053" lon="0.62042">
        <ele>125.4</ele>
        <time>2023-08-06T07:59:50Z</time>
      </trkpt>
      <trkpt lat="44.88051" lon="0.62036">
        <ele>125.4</ele>
        <time>2023-08-06T07:59:51Z</time>
      </trkpt>
      <trkpt lat="44.88049" lon="0.62031">
        <ele>125.5</ele>
        <time>2023-08-06T07:59:52Z</time>
      </trkpt>
      <trkpt lat="44.88044" lon="0.62021">
        <ele>125.6</ele>
        <time>2023-08-06T07:59:54Z</time>
      </trkpt>
      <trkpt lat="44.8804" lon="0.62017">
        <ele>125.7</ele>
        <time>2023-08-06T07:59:55Z</time>
      </trkpt>
      <trkpt lat="44.88037" lon="0.62014">
        <ele>125.7</ele>
        <time>2023-08-06T07:59:56Z</time>
      </trkpt>
      <trkpt lat="44.8803" lon="0.62008">
        <ele>125.8</ele>
        <time>2023-08-06T07:59:58Z</time>
      </trkpt>
      <trkpt lat="44.88026" lon="0.62004">
        <ele>125.9</ele>
        <time>2023-08-06T07:59:59Z</time>
      </trkpt>
      <trkpt lat="44.88022" lon="0.62">
        <ele>125.9</ele>
        <time>2023-08-06T08:00:00Z</time>
      </trkpt>
      <trkpt lat="44.88016" lon="0.61992">
        <ele>126</ele>
        <time>2023-08-06T08:00:02Z</time>
      </trkpt>
      <trkpt lat="44.88015" lon="0.61988">
        <ele>126.3</ele>
        <time>2023-08-06T08:00:03Z</time>
      </trkpt>
      <trkpt lat="44.88016" lon="0.61983">
        <ele>126.3</ele>
        <time>2023-08-06T08:00:04Z</time>
      </trkpt>
      <trkpt lat="44.88021" lon="0.61974">
        <ele>126.3</ele>
        <time>2023-08-06T08:00:06Z</time>
      </trkpt>
      <trkpt lat="44.88026" lon="0.61967">
        <ele>126.3</ele>
        <time>2023-08-06T08:00:08Z</time>
      </trkpt>
      <trkpt lat="44.88031" lon="0.6196">
        <ele>126.3</ele>
        <time>2023-08-06T08:00:10Z</time>
      </trkpt>
      <trkpt lat="44.88034" lon="0.61955">
        <ele>126.3</ele>
        <time>2023-08-06T08:00:11Z</time>
      </trkpt>
      <trkpt lat="44.88036" lon="0.61951">
        <ele>126.4</ele>
        <time>2023-08-06T08:00:12Z</time>
      </trkpt>
      <trkpt lat="44.8804" lon="0.61941">
        <ele>126.4</ele>
        <time>2023-08-06T08:00:14Z</time>
      </trkpt>
      <trkpt lat="44.88042" lon="0.61935">
        <ele>126.4</ele>
        <time>2023-08-06T08:00:15Z</time>
      </trkpt>
      <trkpt lat="44.88044" lon="0.61929">
        <ele>126.5</ele>
        <time>2023-08-06T08:00:16Z</time>
      </trkpt>
      <trkpt lat="44.88048" lon="0.61918">
        <ele>126.6</ele>
        <time>2023-08-06T08:00:18Z</time>
      </trkpt>
      <trkpt lat="44.88049" lon="0.61914">
        <ele>126.7</ele>
        <time>2023-08-06T08:00:19Z</time>
      </trkpt>
      <trkpt lat="44.8805" lon="0.61909">
        <ele>126.7</ele>
        <time>2023-08-06T08:00:20Z</time>
      </trkpt>
      <trkpt lat="44.88055" lon="0.619">
        <ele>126.8</ele>
        <time>2023-08-06T08:00:22Z</time>
      </trkpt>
      <trkpt lat="44.88059" lon="0.61897">
        <ele>126.9</ele>
        <time>2023-08-06T08:00:23Z</time>
      </trkpt>
      <trkpt lat="44.88063" lon="0.61895">
        <ele>127</ele>
        <time>2023-08-06T08:00:24Z</time>
      </trkpt>
      <trkpt lat="44.88071" lon="0.61892">
        <ele>127.1</ele>
        <time>2023-08-06T08:00:26Z</time>
      </trkpt>
      <trkpt lat="44.88076" lon="0.61891">
        <ele>127.2</ele>
        <time>2023-08-06T08:00:27Z</time>
      </trkpt>
      <trkpt lat="44.88081" lon="0.61891">
        <ele>127.3</ele>
        <time>2023-08-06T08:00:28Z</time>
      </trkpt>
      <trkpt lat="44.8809" lon="0.6189">
        <ele>127.5</ele>
        <time>2023-08-06T08:00:30Z</time>
      </trkpt>
      <trkpt lat="44.88094" lon="0.6189">
        <ele>127.5</ele>
        <time>2023-08-06T08:00:31Z</time>
      </trkpt>
      <trkpt lat="44.88098" lon="0.6189">
        <ele>127.6</ele>
        <time>2023-08-06T08:00:32Z</time>
      </trkpt>
      <trkpt lat="44.88105" lon="0.6189">
        <ele>127.6</ele>
        <time>2023-08-06T08:00:34Z</time>
      </trkpt>
      <trkpt lat="44.88108" lon="0.6189">
        <ele>127.6</ele>
        <time>2023-08-06T08:00:35Z</time>
      </trkpt>
      <trkpt lat="44.88111" lon="0.61891">
        <ele>127.6</ele>
        <time>2023-08-06T08:00:36Z</time>
      </trkpt>
      <trkpt lat="44.88116" lon="0.61894">
        <ele>127.6</ele>
        <time>2023-08-06T08:00:38Z</time>
      </trkpt>
      <trkpt lat="44.8812" lon="0.61895">
        <ele>127.5</ele>
        <time>2023-08-06T08:00:39Z</time>
      </trkpt>
      <trkpt lat="44.88123" lon="0.61897">
        <ele>127.5</ele>
        <time>2023-08-06T08:00:40Z</time>
      </trkpt>
      <trkpt lat="44.8813" lon="0.61903">
        <ele>127.3</ele>
        <time>2023-08-06T08:00:42Z</time>
      </trkpt>
      <trkpt lat="44.88134" lon="0.61908">
        <ele>127.2</ele>
        <time>2023-08-06T08:00:43Z</time>
      </trkpt>
      <trkpt lat="44.88138" lon="0.61912">
        <ele>127.1</ele>
        <time>2023-08-06T08:00:44Z</time>
      </trkpt>
      <trkpt lat="44.88149" lon="0.61915">
        <ele>126.8</ele>
        <time>2023-08-06T08:00:46Z</time>
      </trkpt>
      <trkpt lat="44.88159" lon="0.6191">
        <ele>126.6</ele>
        <time>2023-08-06T08:00:48Z</time>
      </trkpt>
      <trkpt lat="44.88163" lon="0.61906">
        <ele>126.5</ele>
        <time>2023-08-06T08:00:49Z</time>
      </trkpt>
      <trkpt lat="44.88167" lon="0.61901">
        <ele>126.5</ele>
        <time>2023-08-06T08:00:50Z</time>
      </trkpt>
      <trkpt lat="44.88174" lon="0.61892">
        <ele>126.4</ele>
        <time>2023-08-06T08:00:52Z</time>
      </trkpt>
      <trkpt lat="44.88182" lon="0.61883">
        <ele>126.4</ele>
        <time>2023-08-06T08:00:54Z</time>
      </trkpt>
      <trkpt lat="44.88186" lon="0.61878">
        <ele>126.5</ele>
        <time>2023-08-06T08:00:55Z</time>
      </trkpt>
      <trkpt lat="44.8819" lon="0.61874">
        <ele>126.5</ele>
        <time>2023-08-06T08:00:56Z</time>
      </trkpt>
      <trkpt lat="44.88197" lon="0.61866">
        <ele>126.5</ele>
        <time>2023-08-06T08:00:58Z</time>
      </trkpt>
      <trkpt lat="44.88201" lon="0.61861">
        <ele>126.6</ele>
        <time>2023-08-06T08:00:59Z</time>
      </trkpt>
      <trkpt lat="44.88205" lon="0.61857">
        <ele>126.6</ele>
        <time>2023-08-06T08:01:00Z</time>
      </trkpt>
      <trkpt lat="44.88213" lon="0.61848">
        <ele>126.7</ele>
        <time>2023-08-06T08:01:02Z</time>
      </trkpt>
      <trkpt lat="44.88222" lon="0.61838">
        <ele>126.7</ele>
        <time>2023-08-06T08:01:04Z</time>
      </trkpt>
      <trkpt lat="44.88226" lon="0.61834">
        <ele>126.7</ele>
        <time>2023-08-06T08:01:05Z</time>
      </trkpt>
      <trkpt lat="44.8823" lon="0.6183">
        <ele>126.8</ele>
        <time>2023-08-06T08:01:06Z</time>
      </trkpt>
      <trkpt lat="44.88237" lon="0.61822">
        <ele>126.8</ele>
        <time>2023-08-06T08:01:08Z</time>
      </trkpt>
      <trkpt lat="44.88243" lon="0.61815">
        <ele>126.9</ele>
        <time>2023-08-06T08:01:10Z</time>
      </trkpt>
      <trkpt lat="44.8825" lon="0.61807">
        <ele>126.9</ele>
        <time>2023-08-06T08:01:12Z</time>
      </trkpt>
      <trkpt lat="44.88251" lon="0.61803">
        <ele>126.9</ele>
        <time>2023-08-06T08:01:13Z</time>
      </trkpt>
      <trkpt lat="44.88252" lon="0.61799">
        <ele>126.9</ele>
        <time>2023-08-06T08:01:14Z</time>
      </trkpt>
      <trkpt lat="44.88251" lon="0.61795">
        <ele>126.9</ele>
        <time>2023-08-06T08:01:15Z</time>
      </trkpt>
      <trkpt lat="44.8825" lon="0.61792">
        <ele>126.9</ele>
        <time>2023-08-06T08:01:16Z</time>
      </trkpt>
      <trkpt lat="44.88248" lon="0.61789">
        <ele>126.9</ele>
        <time>2023-08-06T08:01:17Z</time>
      </trkpt>
      <trkpt lat="44.88246" lon="0.61785">
        <ele>126.9</ele>
        <time>2023-08-06T08:01:18Z</time>
      </trkpt>
      <trkpt lat="44.88242" lon="0.61777">
        <ele>126.8</ele>
        <time>2023-08-06T08:01:20Z</time>
      </trkpt>
      <trkpt lat="44.88237" lon="0.61768">
        <ele>126.6</ele>
        <time>2023-08-06T08:01:22Z</time>
      </trkpt>
      <trkpt lat="44.88235" lon="0.61764">
        <ele>126.6</ele>
        <time>2023-08-06T08:01:23Z</time>
      </trkpt>
      <trkpt lat="44.88233" lon="0.6176">
        <ele>126.5</ele>
        <time>2023-08-06T08:01:24Z</time>
      </trkpt>
      <trkpt lat="44.88228" lon="0.61751">
        <ele>126.3</ele>
        <time>2023-08-06T08:01:26Z</time>
      </trkpt>
      <trkpt lat="44.88222" lon="0.61742">
        <ele>126</ele>
        <time>2023-08-06T08:01:28Z</time>
      </trkpt>
      <trkpt lat="44.88218" lon="0.61733">
        <ele>125.8</ele>
        <time>2023-08-06T08:01:30Z</time>
      </trkpt>
      <trkpt lat="44.88216" lon="0.61729">
        <ele>125.6</ele>
        <time>2023-08-06T08:01:31Z</time>
      </trkpt>
      <trkpt lat="44.88213" lon="0.61726">
        <ele>125.5</ele>
        <time>2023-08-06T08:01:32Z</time>
      </trkpt>
      <trkpt lat="44.88209" lon="0.61723">
        <ele>125.3</ele>
        <time>2023-08-06T08:01:33Z</time>
      </trkpt>
      <trkpt lat="44.88206" lon="0.6172">
        <ele>125.2</ele>
        <time>2023-08-06T08:01:34Z</time>
      </trkpt>
      <trkpt lat="44.88202" lon="0.61716">
        <ele>125</ele>
        <time>2023-08-06T08:01:35Z</time>
      </trkpt>
      <trkpt lat="44.88198" lon="0.61711">
        <ele>124.8</ele>
        <time>2023-08-06T08:01:36Z</time>
      </trkpt>
      <trkpt lat="44.8819" lon="0.61701">
        <ele>124.3</ele>
        <time>2023-08-06T08:01:38Z</time>
      </trkpt>
      <trkpt lat="44.88185" lon="0.61698">
        <ele>124</ele>
        <time>2023-08-06T08:01:39Z</time>
      </trkpt>
      <trkpt lat="44.8818" lon="0.61695">
        <ele>123.8</ele>
        <time>2023-08-06T08:01:40Z</time>
      </trkpt>
      <trkpt lat="44.8817" lon="0.61693">
        <ele>123.3</ele>
        <time>2023-08-06T08:01:42Z</time>
      </trkpt>
      <trkpt lat="44.88166" lon="0.61691">
        <ele>123.1</ele>
        <time>2023-08-06T08:01:43Z</time>
      </trkpt>
      <trkpt lat="44.88161" lon="0.61689">
        <ele>122.8</ele>
        <time>2023-08-06T08:01:44Z</time>
      </trkpt>
      <trkpt lat="44.88157" lon="0.61685">
        <ele>122.5</ele>
        <time>2023-08-06T08:01:45Z</time>
      </trkpt>
      <trkpt lat="44.88153" lon="0.61681">
        <ele>122.2</ele>
        <time>2023-08-06T08:01:46Z</time>
      </trkpt>
      <trkpt lat="44.8815" lon="0.61676">
        <ele>121.9</ele>
        <time>2023-08-06T08:01:47Z</time>
      </trkpt>
      <trkpt lat="44.88146" lon="0.61673">
        <ele>121.6</ele>
        <time>2023-08-06T08:01:48Z</time>
      </trkpt>
      <trkpt lat="44.88137" lon="0.61665">
        <ele>120.9</ele>
        <time>2023-08-06T08:01:50Z</time>
      </trkpt>
      <trkpt lat="44.88134" lon="0.61661">
        <ele>120.5</ele>
        <time>2023-08-06T08:01:51Z</time>
      </trkpt>
      <trkpt lat="44.8813" lon="0.61657">
        <ele>120.2</ele>
        <time>2023-08-06T08:01:52Z</time>
      </trkpt>
      <trkpt lat="44.88129" lon="0.61654">
        <ele>119.4</ele>
        <time>2023-08-06T08:01:53Z</time>
      </trkpt>
      <trkpt lat="44.88129" lon="0.61649">
        <ele>119.4</ele>
        <time>2023-08-06T08:01:54Z</time>
      </trkpt>
      <trkpt lat="44.8813" lon="0.61644">
        <ele>119.3</ele>
        <time>2023-08-06T08:01:55Z</time>
      </trkpt>
      <trkpt lat="44.88131" lon="0.61639">
        <ele>119.2</ele>
        <time>2023-08-06T08:01:56Z</time>
      </trkpt>
      <trkpt lat="44.88131" lon="0.61634">
        <ele>119</ele>
        <time>2023-08-06T08:01:57Z</time>
      </trkpt>
      <trkpt lat="44.88131" lon="0.6163">
        <ele>119</ele>
        <time>2023-08-06T08:01:58Z</time>
      </trkpt>
      <trkpt lat="44.88132" lon="0.61627">
        <ele>118.9</ele>
        <time>2023-08-06T08:01:59Z</time>
      </trkpt>
      <trkpt lat="44.88134" lon="0.61623">
        <ele>118.7</ele>
        <time>2023-08-06T08:02:00Z</time>
      </trkpt>
      <trkpt lat="44.88138" lon="0.61616">
        <ele>118.5</ele>
        <time>2023-08-06T08:02:02Z</time>
      </trkpt>
      <trkpt lat="44.8814" lon="0.61612">
        <ele>118.4</ele>
        <time>2023-08-06T08:02:03Z</time>
      </trkpt>
      <trkpt lat="44.88142" lon="0.61608">
        <ele>118.2</ele>
        <time>2023-08-06T08:02:04Z</time>
      </trkpt>
      <trkpt lat="44.88145" lon="0.61603">
        <ele>118</ele>
        <time>2023-08-06T08:02:05Z</time>
      </trkpt>
      <trkpt lat="44.88147" lon="0.61598">
        <ele>117.9</ele>
        <time>2023-08-06T08:02:06Z</time>
      </trkpt>
      <trkpt lat="44.88149" lon="0.61595">
        <ele>117.8</ele>
        <time>2023-08-06T08:02:07Z</time>
      </trkpt>
      <trkpt lat="44.8815" lon="0.61594">
        <ele>117.8</ele>
        <time>2023-08-06T08:02:08Z</time>
      </trkpt>
      <trkpt lat="44.88151" lon="0.61591">
        <ele>117.8</ele>
        <time>2023-08-06T08:02:10Z</time>
      </trkpt>
      <trkpt lat="44.88153" lon="0.61589">
        <ele>117.7</ele>
        <time>2023-08-06T08:02:12Z</time>
      </trkpt>
      <trkpt lat="44.88155" lon="0.61587">
        <ele>117.6</ele>
        <time>2023-08-06T08:02:13Z</time>
      </trkpt>
      <trkpt lat="44.88157" lon="0.61586">
        <ele>117.6</ele>
        <time>2023-08-06T08:02:14Z</time>
      </trkpt>
      <trkpt lat="44.88159" lon="0.61583">
        <ele>117.6</ele>
        <time>2023-08-06T08:02:15Z</time>
      </trkpt>
      <trkpt lat="44.8816" lon="0.6158">
        <ele>117.5</ele>
        <time>2023-08-06T08:02:16Z</time>
      </trkpt>
      <trkpt lat="44.88159" lon="0.61574">
        <ele>117.5</ele>
        <time>2023-08-06T08:02:17Z</time>
      </trkpt>
      <trkpt lat="44.88158" lon="0.61567">
        <ele>117.5</ele>
        <time>2023-08-06T08:02:18Z</time>
      </trkpt>
      <trkpt lat="44.88158" lon="0.61557">
        <ele>117.7</ele>
        <time>2023-08-06T08:02:20Z</time>
      </trkpt>
      <trkpt lat="44.88158" lon="0.61548">
        <ele>117.9</ele>
        <time>2023-08-06T08:02:22Z</time>
      </trkpt>
      <trkpt lat="44.88155" lon="0.61545">
        <ele>118</ele>
        <time>2023-08-06T08:02:23Z</time>
      </trkpt>
      <trkpt lat="44.88151" lon="0.61542">
        <ele>118.2</ele>
        <time>2023-08-06T08:02:24Z</time>
      </trkpt>
      <trkpt lat="44.88145" lon="0.61537">
        <ele>118.5</ele>
        <time>2023-08-06T08:02:26Z</time>
      </trkpt>
      <trkpt lat="44.8814" lon="0.61531">
        <ele>118.8</ele>
        <time>2023-08-06T08:02:28Z</time>
      </trkpt>
      <trkpt lat="44.88139" lon="0.61528">
        <ele>118.9</ele>
        <time>2023-08-06T08:02:29Z</time>
      </trkpt>
      <trkpt lat="44.88138" lon="0.61524">
        <ele>119</ele>
        <time>2023-08-06T08:02:30Z</time>
      </trkpt>
      <trkpt lat="44.88137" lon="0.6152">
        <ele>119.1</ele>
        <time>2023-08-06T08:02:31Z</time>
      </trkpt>
      <trkpt lat="44.88136" lon="0.61517">
        <ele>119.1</ele>
        <time>2023-08-06T08:02:32Z</time>
      </trkpt>
      <trkpt lat="44.88135" lon="0.61513">
        <ele>119.2</ele>
        <time>2023-08-06T08:02:33Z</time>
      </trkpt>
      <trkpt lat="44.88134" lon="0.61509">
        <ele>119.2</ele>
        <time>2023-08-06T08:02:34Z</time>
      </trkpt>
      <trkpt lat="44.88131" lon="0.61506">
        <ele>119.2</ele>
        <time>2023-08-06T08:02:35Z</time>
      </trkpt>
      <trkpt lat="44.88128" lon="0.61502">
        <ele>119.3</ele>
        <time>2023-08-06T08:02:36Z</time>
      </trkpt>
      <trkpt lat="44.88124" lon="0.61493">
        <ele>119.3</ele>
        <time>2023-08-06T08:02:38Z</time>
      </trkpt>
      <trkpt lat="44.88119" lon="0.61485">
        <ele>119.2</ele>
        <time>2023-08-06T08:02:40Z</time>
      </trkpt>
      <trkpt lat="44.88117" lon="0.6148">
        <ele>119.2</ele>
        <time>2023-08-06T08:02:41Z</time>
      </trkpt>
      <trkpt lat="44.88116" lon="0.61475">
        <ele>119.1</ele>
        <time>2023-08-06T08:02:42Z</time>
      </trkpt>
      <trkpt lat="44.88114" lon="0.61462">
        <ele>119</ele>
        <time>2023-08-06T08:02:44Z</time>
      </trkpt>
      <trkpt lat="44.88112" lon="0.61456">
        <ele>118.8</ele>
        <time>2023-08-06T08:02:45Z</time>
      </trkpt>
      <trkpt lat="44.88111" lon="0.6145">
        <ele>118.7</ele>
        <time>2023-08-06T08:02:46Z</time>
      </trkpt>
      <trkpt lat="44.88108" lon="0.6144">
        <ele>118.5</ele>
        <time>2023-08-06T08:02:48Z</time>
      </trkpt>
      <trkpt lat="44.88107" lon="0.61436">
        <ele>118.4</ele>
        <time>2023-08-06T08:02:49Z</time>
      </trkpt>
      <trkpt lat="44.88106" lon="0.61433">
        <ele>118.3</ele>
        <time>2023-08-06T08:02:50Z</time>
      </trkpt>
      <trkpt lat="44.88105" lon="0.6143">
        <ele>118.2</ele>
        <time>2023-08-06T08:02:51Z</time>
      </trkpt>
      <trkpt lat="44.88104" lon="0.61425">
        <ele>118</ele>
        <time>2023-08-06T08:02:52Z</time>
      </trkpt>
      <trkpt lat="44.88103" lon="0.61419">
        <ele>117.8</ele>
        <time>2023-08-06T08:02:53Z</time>
      </trkpt>
      <trkpt lat="44.88103" lon="0.61411">
        <ele>117.5</ele>
        <time>2023-08-06T08:02:54Z</time>
      </trkpt>
      <trkpt lat="44.88104" lon="0.61403">
        <ele>116.4</ele>
        <time>2023-08-06T08:02:55Z</time>
      </trkpt>
      <trkpt lat="44.88106" lon="0.61395">
        <ele>116.2</ele>
        <time>2023-08-06T08:02:56Z</time>
      </trkpt>
      <trkpt lat="44.88111" lon="0.61381">
        <ele>115.9</ele>
        <time>2023-08-06T08:02:58Z</time>
      </trkpt>
      <trkpt lat="44.88114" lon="0.61368">
        <ele>115.6</ele>
        <time>2023-08-06T08:03:00Z</time>
      </trkpt>
      <trkpt lat="44.88118" lon="0.61357">
        <ele>115.5</ele>
        <time>2023-08-06T08:03:02Z</time>
      </trkpt>
      <trkpt lat="44.88122" lon="0.61347">
        <ele>115.4</ele>
        <time>2023-08-06T08:03:04Z</time>
      </trkpt>
      <trkpt lat="44.88123" lon="0.61337">
        <ele>115.4</ele>
        <time>2023-08-06T08:03:06Z</time>
      </trkpt>
      <trkpt lat="44.88123" lon="0.61333">
        <ele>115.4</ele>
        <time>2023-08-06T08:03:07Z</time>
      </trkpt>
      <trkpt lat="44.88123" lon="0.61328">
        <ele>115.4</ele>
        <time>2023-08-06T08:03:08Z</time>
      </trkpt>
      <trkpt lat="44.88123" lon="0.61318">
        <ele>115.4</ele>
        <time>2023-08-06T08:03:10Z</time>
      </trkpt>
      <trkpt lat="44.88123" lon="0.61309">
        <ele>115.5</ele>
        <time>2023-08-06T08:03:12Z</time>
      </trkpt>
      <trkpt lat="44.88123" lon="0.61298">
        <ele>115.6</ele>
        <time>2023-08-06T08:03:14Z</time>
      </trkpt>
      <trkpt lat="44.88122" lon="0.61287">
        <ele>115.8</ele>
        <time>2023-08-06T08:03:16Z</time>
      </trkpt>
      <trkpt lat="44.88122" lon="0.61283">
        <ele>115.9</ele>
        <time>2023-08-06T08:03:17Z</time>
      </trkpt>
      <trkpt lat="44.88122" lon="0.61279">
        <ele>116</ele>
        <time>2023-08-06T08:03:18Z</time>
      </trkpt>
      <trkpt lat="44.88122" lon="0.61273">
        <ele>116.1</ele>
        <time>2023-08-06T08:03:19Z</time>
      </trkpt>
      <trkpt lat="44.88121" lon="0.61268">
        <ele>116.2</ele>
        <time>2023-08-06T08:03:20Z</time>
      </trkpt>
      <trkpt lat="44.88121" lon="0.61263">
        <ele>116.3</ele>
        <time>2023-08-06T08:03:21Z</time>
      </trkpt>
      <trkpt lat="44.88122" lon="0.61258">
        <ele>116.4</ele>
        <time>2023-08-06T08:03:22Z</time>
      </trkpt>
      <trkpt lat="44.88124" lon="0.61248">
        <ele>116.7</ele>
        <time>2023-08-06T08:03:24Z</time>
      </trkpt>
      <trkpt lat="44.88125" lon="0.61237">
        <ele>117.1</ele>
        <time>2023-08-06T08:03:26Z</time>
      </trkpt>
      <trkpt lat="44.88126" lon="0.61225">
        <ele>117.4</ele>
        <time>2023-08-06T08:03:28Z</time>
      </trkpt>
      <trkpt lat="44.88127" lon="0.61219">
        <ele>117.6</ele>
        <time>2023-08-06T08:03:29Z</time>
      </trkpt>
      <trkpt lat="44.88127" lon="0.61213">
        <ele>117.7</ele>
        <time>2023-08-06T08:03:30Z</time>
      </trkpt>
      <trkpt lat="44.88129" lon="0.61202">
        <ele>118</ele>
        <time>2023-08-06T08:03:32Z</time>
      </trkpt>
      <trkpt lat="44.8813" lon="0.61197">
        <ele>118.1</ele>
        <time>2023-08-06T08:03:33Z</time>
      </trkpt>
      <trkpt lat="44.8813" lon="0.61192">
        <ele>118.2</ele>
        <time>2023-08-06T08:03:34Z</time>
      </trkpt>
      <trkpt lat="44.88131" lon="0.61186">
        <ele>118.3</ele>
        <time>2023-08-06T08:03:35Z</time>
      </trkpt>
      <trkpt lat="44.88133" lon="0.61181">
        <ele>118.4</ele>
        <time>2023-08-06T08:03:36Z</time>
      </trkpt>
      <trkpt lat="44.88135" lon="0.61176">
        <ele>118.5</ele>
        <time>2023-08-06T08:03:37Z</time>
      </trkpt>
      <trkpt lat="44.88136" lon="0.6117">
        <ele>118.6</ele>
        <time>2023-08-06T08:03:38Z</time>
      </trkpt>
      <trkpt lat="44.88137" lon="0.61164">
        <ele>118.7</ele>
        <time>2023-08-06T08:03:39Z</time>
      </trkpt>
      <trkpt lat="44.88138" lon="0.61158">
        <ele>118.8</ele>
        <time>2023-08-06T08:03:40Z</time>
      </trkpt>
      <trkpt lat="44.88138" lon="0.61147">
        <ele>118.9</ele>
        <time>2023-08-06T08:03:42Z</time>
      </trkpt>
      <trkpt lat="44.88138" lon="0.61142">
        <ele>119</ele>
        <time>2023-08-06T08:03:43Z</time>
      </trkpt>
      <trkpt lat="44.88139" lon="0.61138">
        <ele>119</ele>
        <time>2023-08-06T08:03:44Z</time>
      </trkpt>
      <trkpt lat="44.88141" lon="0.61133">
        <ele>119</ele>
        <time>2023-08-06T08:03:45Z</time>
      </trkpt>
      <trkpt lat="44.88141" lon="0.61128">
        <ele>119.1</ele>
        <time>2023-08-06T08:03:46Z</time>
      </trkpt>
      <trkpt lat="44.88145" lon="0.61119">
        <ele>119.1</ele>
        <time>2023-08-06T08:03:48Z</time>
      </trkpt>
      <trkpt lat="44.88145" lon="0.61114">
        <ele>119.2</ele>
        <time>2023-08-06T08:03:49Z</time>
      </trkpt>
      <trkpt lat="44.88146" lon="0.6111">
        <ele>119.2</ele>
        <time>2023-08-06T08:03:50Z</time>
      </trkpt>
      <trkpt lat="44.88147" lon="0.61099">
        <ele>119.3</ele>
        <time>2023-08-06T08:03:52Z</time>
      </trkpt>
      <trkpt lat="44.88148" lon="0.61088">
        <ele>119.4</ele>
        <time>2023-08-06T08:03:54Z</time>
      </trkpt>
      <trkpt lat="44.88149" lon="0.61076">
        <ele>119.5</ele>
        <time>2023-08-06T08:03:56Z</time>
      </trkpt>
      <trkpt lat="44.8815" lon="0.61064">
        <ele>119.5</ele>
        <time>2023-08-06T08:03:58Z</time>
      </trkpt>
      <trkpt lat="44.88151" lon="0.61053">
        <ele>119.5</ele>
        <time>2023-08-06T08:04:00Z</time>
      </trkpt>
      <trkpt lat="44.88154" lon="0.61047">
        <ele>119.4</ele>
        <time>2023-08-06T08:04:01Z</time>
      </trkpt>
      <trkpt lat="44.88156" lon="0.61041">
        <ele>119.4</ele>
        <time>2023-08-06T08:04:02Z</time>
      </trkpt>
      <trkpt lat="44.8816" lon="0.61028">
        <ele>119.2</ele>
        <time>2023-08-06T08:04:04Z</time>
      </trkpt>
      <trkpt lat="44.88161" lon="0.61021">
        <ele>119</ele>
        <time>2023-08-06T08:04:05Z</time>
      </trkpt>
      <trkpt lat="44.88161" lon="0.61013">
        <ele>118.8</ele>
        <time>2023-08-06T08:04:06Z</time>
      </trkpt>
      <trkpt lat="44.88162" lon="0.61">
        <ele>118.4</ele>
        <time>2023-08-06T08:04:08Z</time>
      </trkpt>
      <trkpt lat="44.88163" lon="0.60992">
        <ele>118.1</ele>
        <time>2023-08-06T08:04:09Z</time>
      </trkpt>
      <trkpt lat="44.88163" lon="0.60985">
        <ele>117.9</ele>
        <time>2023-08-06T08:04:10Z</time>
      </trkpt>
      <trkpt lat="44.8816" lon="0.60974">
        <ele>117.5</ele>
        <time>2023-08-06T08:04:12Z</time>
      </trkpt>
      <trkpt lat="44.88152" lon="0.60968">
        <ele>116.7</ele>
        <time>2023-08-06T08:04:14Z</time>
      </trkpt>
      <trkpt lat="44.88147" lon="0.60967">
        <ele>116.7</ele>
        <time>2023-08-06T08:04:15Z</time>
      </trkpt>
      <trkpt lat="44.88143" lon="0.60967">
        <ele>116.8</ele>
        <time>2023-08-06T08:04:16Z</time>
      </trkpt>
      <trkpt lat="44.88134" lon="0.60969">
        <ele>117</ele>
        <time>2023-08-06T08:04:18Z</time>
      </trkpt>
      <trkpt lat="44.88125" lon="0.60971">
        <ele>117.3</ele>
        <time>2023-08-06T08:04:20Z</time>
      </trkpt>
      <trkpt lat="44.8812" lon="0.60971">
        <ele>117.5</ele>
        <time>2023-08-06T08:04:21Z</time>
      </trkpt>
      <trkpt lat="44.88115" lon="0.60971">
        <ele>117.7</ele>
        <time>2023-08-06T08:04:22Z</time>
      </trkpt>
      <trkpt lat="44.88109" lon="0.60971">
        <ele>118</ele>
        <time>2023-08-06T08:04:23Z</time>
      </trkpt>
      <trkpt lat="44.88104" lon="0.60971">
        <ele>118.2</ele>
        <time>2023-08-06T08:04:24Z</time>
      </trkpt>
      <trkpt lat="44.88093" lon="0.60973">
        <ele>118.8</ele>
        <time>2023-08-06T08:04:26Z</time>
      </trkpt>
      <trkpt lat="44.88089" lon="0.60974">
        <ele>119</ele>
        <time>2023-08-06T08:04:27Z</time>
      </trkpt>
      <trkpt lat="44.88084" lon="0.60976">
        <ele>119.3</ele>
        <time>2023-08-06T08:04:28Z</time>
      </trkpt>
      <trkpt lat="44.88076" lon="0.60978">
        <ele>119.7</ele>
        <time>2023-08-06T08:04:30Z</time>
      </trkpt>
      <trkpt lat="44.88068" lon="0.60981">
        <ele>120.2</ele>
        <time>2023-08-06T08:04:32Z</time>
      </trkpt>
      <trkpt lat="44.88061" lon="0.60985">
        <ele>120.5</ele>
        <time>2023-08-06T08:04:34Z</time>
      </trkpt>
      <trkpt lat="44.88054" lon="0.60989">
        <ele>120.8</ele>
        <time>2023-08-06T08:04:36Z</time>
      </trkpt>
      <trkpt lat="44.8805" lon="0.60991">
        <ele>120.9</ele>
        <time>2023-08-06T08:04:37Z</time>
      </trkpt>
      <trkpt lat="44.88046" lon="0.60992">
        <ele>121</ele>
        <time>2023-08-06T08:04:38Z</time>
      </trkpt>
      <trkpt lat="44.88038" lon="0.60995">
        <ele>121.2</ele>
        <time>2023-08-06T08:04:40Z</time>
      </trkpt>
      <trkpt lat="44.8803" lon="0.60999">
        <ele>121.3</ele>
        <time>2023-08-06T08:04:42Z</time>
      </trkpt>
      <trkpt lat="44.88021" lon="0.61002">
        <ele>121.3</ele>
        <time>2023-08-06T08:04:44Z</time>
      </trkpt>
      <trkpt lat="44.88013" lon="0.61005">
        <ele>121.4</ele>
        <time>2023-08-06T08:04:46Z</time>
      </trkpt>
      <trkpt lat="44.88004" lon="0.61009">
        <ele>121.4</ele>
        <time>2023-08-06T08:04:48Z</time>
      </trkpt>
      <trkpt lat="44.88" lon="0.6101">
        <ele>121.4</ele>
        <time>2023-08-06T08:04:49Z</time>
      </trkpt>
      <trkpt lat="44.87995" lon="0.61012">
        <ele>121.5</ele>
        <time>2023-08-06T08:04:50Z</time>
      </trkpt>
      <trkpt lat="44.87991" lon="0.61013">
        <ele>121.7</ele>
        <time>2023-08-06T08:04:51Z</time>
      </trkpt>
      <trkpt lat="44.87987" lon="0.61015">
        <ele>121.8</ele>
        <time>2023-08-06T08:04:52Z</time>
      </trkpt>
      <trkpt lat="44.87983" lon="0.61016">
        <ele>121.9</ele>
        <time>2023-08-06T08:04:53Z</time>
      </trkpt>
      <trkpt lat="44.87979" lon="0.61017">
        <ele>122.1</ele>
        <time>2023-08-06T08:04:54Z</time>
      </trkpt>
      <trkpt lat="44.8797" lon="0.61019">
        <ele>122.4</ele>
        <time>2023-08-06T08:04:56Z</time>
      </trkpt>
      <trkpt lat="44.87966" lon="0.6102">
        <ele>122.6</ele>
        <time>2023-08-06T08:04:57Z</time>
      </trkpt>
      <trkpt lat="44.87961" lon="0.61021">
        <ele>122.8</ele>
        <time>2023-08-06T08:04:58Z</time>
      </trkpt>
      <trkpt lat="44.87953" lon="0.61023">
        <ele>123.1</ele>
        <time>2023-08-06T08:05:00Z</time>
      </trkpt>
      <trkpt lat="44.87946" lon="0.61023">
        <ele>123.4</ele>
        <time>2023-08-06T08:05:02Z</time>
      </trkpt>
      <trkpt lat="44.87939" lon="0.61025">
        <ele>123.7</ele>
        <time>2023-08-06T08:05:04Z</time>
      </trkpt>
      <trkpt lat="44.87937" lon="0.61026">
        <ele>123.9</ele>
        <time>2023-08-06T08:05:05Z</time>
      </trkpt>
      <trkpt lat="44.87934" lon="0.61027">
        <ele>124</ele>
        <time>2023-08-06T08:05:06Z</time>
      </trkpt>
      <trkpt lat="44.87928" lon="0.61029">
        <ele>124.1</ele>
        <time>2023-08-06T08:05:08Z</time>
      </trkpt>
      <trkpt lat="44.87923" lon="0.61031">
        <ele>124.2</ele>
        <time>2023-08-06T08:05:10Z</time>
      </trkpt>
      <trkpt lat="44.8792" lon="0.61033">
        <ele>124.2</ele>
        <time>2023-08-06T08:05:11Z</time>
      </trkpt>
      <trkpt lat="44.87918" lon="0.61034">
        <ele>124.1</ele>
        <time>2023-08-06T08:05:12Z</time>
      </trkpt>
      <trkpt lat="44.87912" lon="0.61037">
        <ele>123.9</ele>
        <time>2023-08-06T08:05:14Z</time>
      </trkpt>
      <trkpt lat="44.87904" lon="0.6104">
        <ele>123.6</ele>
        <time>2023-08-06T08:05:16Z</time>
      </trkpt>
      <trkpt lat="44.879" lon="0.61041">
        <ele>123.4</ele>
        <time>2023-08-06T08:05:17Z</time>
      </trkpt>
      <trkpt lat="44.87895" lon="0.61044">
        <ele>123.1</ele>
        <time>2023-08-06T08:05:18Z</time>
      </trkpt>
      <trkpt lat="44.87884" lon="0.61049">
        <ele>122.5</ele>
        <time>2023-08-06T08:05:20Z</time>
      </trkpt>
      <trkpt lat="44.87872" lon="0.61054">
        <ele>121.8</ele>
        <time>2023-08-06T08:05:22Z</time>
      </trkpt>
      <trkpt lat="44.8786" lon="0.61058">
        <ele>121.4</ele>
        <time>2023-08-06T08:05:24Z</time>
      </trkpt>
      <trkpt lat="44.87854" lon="0.6106">
        <ele>121.2</ele>
        <time>2023-08-06T08:05:25Z</time>
      </trkpt>
      <trkpt lat="44.87849" lon="0.61062">
        <ele>121.1</ele>
        <time>2023-08-06T08:05:26Z</time>
      </trkpt>
      <trkpt lat="44.87837" lon="0.61066">
        <ele>121</ele>
        <time>2023-08-06T08:05:28Z</time>
      </trkpt>
      <trkpt lat="44.87826" lon="0.61071">
        <ele>121</ele>
        <time>2023-08-06T08:05:30Z</time>
      </trkpt>
      <trkpt lat="44.87814" lon="0.61076">
        <ele>121.1</ele>
        <time>2023-08-06T08:05:32Z</time>
      </trkpt>
      <trkpt lat="44.8781" lon="0.61078">
        <ele>121.2</ele>
        <time>2023-08-06T08:05:33Z</time>
      </trkpt>
      <trkpt lat="44.87806" lon="0.61079">
        <ele>121.2</ele>
        <time>2023-08-06T08:05:34Z</time>
      </trkpt>
      <trkpt lat="44.87801" lon="0.61082">
        <ele>121.3</ele>
        <time>2023-08-06T08:05:36Z</time>
      </trkpt>
      <trkpt lat="44.87797" lon="0.61083">
        <ele>121.4</ele>
        <time>2023-08-06T08:05:38Z</time>
      </trkpt>
      <trkpt lat="44.87793" lon="0.61086">
        <ele>121.5</ele>
        <time>2023-08-06T08:05:40Z</time>
      </trkpt>
      <trkpt lat="44.87792" lon="0.61088">
        <ele>121.5</ele>
        <time>2023-08-06T08:05:41Z</time>
      </trkpt>
      <trkpt lat="44.87793" lon="0.6109">
        <ele>121.5</ele>
        <time>2023-08-06T08:05:42Z</time>
      </trkpt>
      <trkpt lat="44.87793" lon="0.61092">
        <ele>121.6</ele>
        <time>2023-08-06T08:05:43Z</time>
      </trkpt>
      <trkpt lat="44.87794" lon="0.61093">
        <ele>121.6</ele>
        <time>2023-08-06T08:05:44Z</time>
      </trkpt>
      <trkpt lat="44.87794" lon="0.61098">
        <ele>121.7</ele>
        <time>2023-08-06T08:05:46Z</time>
      </trkpt>
      <trkpt lat="44.87795" lon="0.611">
        <ele>121.7</ele>
        <time>2023-08-06T08:05:47Z</time>
      </trkpt>
      <trkpt lat="44.87796" lon="0.61104">
        <ele>121.7</ele>
        <time>2023-08-06T08:05:48Z</time>
      </trkpt>
      <trkpt lat="44.87797" lon="0.6111">
        <ele>121.8</ele>
        <time>2023-08-06T08:05:50Z</time>
      </trkpt>
      <trkpt lat="44.87797" lon="0.61113">
        <ele>121.9</ele>
        <time>2023-08-06T08:05:51Z</time>
      </trkpt>
      <trkpt lat="44.87796" lon="0.61116">
        <ele>121.9</ele>
        <time>2023-08-06T08:05:52Z</time>
      </trkpt>
      <trkpt lat="44.87794" lon="0.61118">
        <ele>122</ele>
        <time>2023-08-06T08:05:53Z</time>
      </trkpt>
      <trkpt lat="44.87791" lon="0.6112">
        <ele>122</ele>
        <time>2023-08-06T08:05:54Z</time>
      </trkpt>
      <trkpt lat="44.87786" lon="0.61123">
        <ele>122.1</ele>
        <time>2023-08-06T08:05:56Z</time>
      </trkpt>
      <trkpt lat="44.87784" lon="0.61124">
        <ele>122.1</ele>
        <time>2023-08-06T08:05:57Z</time>
      </trkpt>
      <trkpt lat="44.87781" lon="0.61127">
        <ele>122.2</ele>
        <time>2023-08-06T08:05:58Z</time>
      </trkpt>
      <trkpt lat="44.87779" lon="0.6113">
        <ele>122.2</ele>
        <time>2023-08-06T08:05:59Z</time>
      </trkpt>
      <trkpt lat="44.87779" lon="0.61135">
        <ele>122.2</ele>
        <time>2023-08-06T08:06:00Z</time>
      </trkpt>
      <trkpt lat="44.87776" lon="0.6114">
        <ele>122.2</ele>
        <time>2023-08-06T08:06:02Z</time>
      </trkpt>
      <trkpt lat="44.87773" lon="0.61144">
        <ele>122.3</ele>
        <time>2023-08-06T08:06:04Z</time>
      </trkpt>
      <trkpt lat="44.87773" lon="0.61147">
        <ele>122.3</ele>
        <time>2023-08-06T08:06:05Z</time>
      </trkpt>
      <trkpt lat="44.87772" lon="0.61149">
        <ele>122.3</ele>
        <time>2023-08-06T08:06:06Z</time>
      </trkpt>
      <trkpt lat="44.87771" lon="0.61151">
        <ele>122.3</ele>
        <time>2023-08-06T08:06:07Z</time>
      </trkpt>
      <trkpt lat="44.87771" lon="0.61155">
        <ele>122.3</ele>
        <time>2023-08-06T08:06:08Z</time>
      </trkpt>
      <trkpt lat="44.87771" lon="0.61158">
        <ele>122.3</ele>
        <time>2023-08-06T08:06:09Z</time>
      </trkpt>
      <trkpt lat="44.87772" lon="0.61161">
        <ele>122.3</ele>
        <time>2023-08-06T08:06:10Z</time>
      </trkpt>
      <trkpt lat="44.87774" lon="0.61167">
        <ele>122.2</ele>
        <time>2023-08-06T08:06:12Z</time>
      </trkpt>
      <trkpt lat="44.87775" lon="0.61171">
        <ele>122.2</ele>
        <time>2023-08-06T08:06:13Z</time>
      </trkpt>
      <trkpt lat="44.87776" lon="0.61173">
        <ele>122.2</ele>
        <time>2023-08-06T08:06:14Z</time>
      </trkpt>
      <trkpt lat="44.87777" lon="0.61176">
        <ele>122.2</ele>
        <time>2023-08-06T08:06:15Z</time>
      </trkpt>
      <trkpt lat="44.87777" lon="0.61179">
        <ele>122.2</ele>
        <time>2023-08-06T08:06:16Z</time>
      </trkpt>
      <trkpt lat="44.87776" lon="0.61182">
        <ele>122.2</ele>
        <time>2023-08-06T08:06:17Z</time>
      </trkpt>
      <trkpt lat="44.87775" lon="0.61187">
        <ele>122.1</ele>
        <time>2023-08-06T08:06:18Z</time>
      </trkpt>
      <trkpt lat="44.87774" lon="0.61191">
        <ele>122.1</ele>
        <time>2023-08-06T08:06:19Z</time>
      </trkpt>
      <trkpt lat="44.87772" lon="0.61196">
        <ele>122.1</ele>
        <time>2023-08-06T08:06:20Z</time>
      </trkpt>
      <trkpt lat="44.8777" lon="0.61201">
        <ele>122</ele>
        <time>2023-08-06T08:06:21Z</time>
      </trkpt>
      <trkpt lat="44.87769" lon="0.61205">
        <ele>122</ele>
        <time>2023-08-06T08:06:22Z</time>
      </trkpt>
      <trkpt lat="44.87767" lon="0.61208">
        <ele>122</ele>
        <time>2023-08-06T08:06:23Z</time>
      </trkpt>
      <trkpt lat="44.87765" lon="0.6121">
        <ele>122</ele>
        <time>2023-08-06T08:06:24Z</time>
      </trkpt>
      <trkpt lat="44.87764" lon="0.6121">
        <ele>122</ele>
        <time>2023-08-06T08:06:25Z</time>
      </trkpt>
      <trkpt lat="44.87763" lon="0.61209">
        <ele>122</ele>
        <time>2023-08-06T08:06:26Z</time>
      </trkpt>
      <trkpt lat="44.87762" lon="0.61207">
        <ele>122</ele>
        <time>2023-08-06T08:06:27Z</time>
      </trkpt>
      <trkpt lat="44.8776" lon="0.61205">
        <ele>122</ele>
        <time>2023-08-06T08:06:28Z</time>
      </trkpt>
      <trkpt lat="44.87755" lon="0.61201">
        <ele>122</ele>
        <time>2023-08-06T08:06:30Z</time>
      </trkpt>
      <trkpt lat="44.87751" lon="0.61198">
        <ele>122</ele>
        <time>2023-08-06T08:06:32Z</time>
      </trkpt>
      <trkpt lat="44.87747" lon="0.61196">
        <ele>122</ele>
        <time>2023-08-06T08:06:34Z</time>
      </trkpt>
      <trkpt lat="44.87745" lon="0.61194">
        <ele>122</ele>
        <time>2023-08-06T08:06:35Z</time>
      </trkpt>
      <trkpt lat="44.87744" lon="0.61191">
        <ele>122.1</ele>
        <time>2023-08-06T08:06:36Z</time>
      </trkpt>
      <trkpt lat="44.87744" lon="0.61184">
        <ele>122.1</ele>
        <time>2023-08-06T08:06:38Z</time>
      </trkpt>
      <trkpt lat="44.87741" lon="0.61178">
        <ele>122.2</ele>
        <time>2023-08-06T08:06:40Z</time>
      </trkpt>
      <trkpt lat="44.87741" lon="0.61173">
        <ele>122.3</ele>
        <time>2023-08-06T08:06:42Z</time>
      </trkpt>
      <trkpt lat="44.87742" lon="0.61169">
        <ele>122.3</ele>
        <time>2023-08-06T08:06:44Z</time>
      </trkpt>
      <trkpt lat="44.87743" lon="0.61165">
        <ele>122.4</ele>
        <time>2023-08-06T08:06:46Z</time>
      </trkpt>
      <trkpt lat="44.87744" lon="0.61159">
        <ele>122.4</ele>
        <time>2023-08-06T08:06:48Z</time>
      </trkpt>
      <trkpt lat="44.87745" lon="0.61156">
        <ele>122.5</ele>
        <time>2023-08-06T08:06:49Z</time>
      </trkpt>
      <trkpt lat="44.87746" lon="0.61153">
        <ele>122.5</ele>
        <time>2023-08-06T08:06:50Z</time>
      </trkpt>
      <trkpt lat="44.87749" lon="0.61145">
        <ele>122.6</ele>
        <time>2023-08-06T08:06:52Z</time>
      </trkpt>
      <trkpt lat="44.87749" lon="0.6114">
        <ele>122.7</ele>
        <time>2023-08-06T08:06:53Z</time>
      </trkpt>
      <trkpt lat="44.87747" lon="0.61136">
        <ele>122.8</ele>
        <time>2023-08-06T08:06:54Z</time>
      </trkpt>
      <trkpt lat="44.87741" lon="0.61132">
        <ele>122.9</ele>
        <time>2023-08-06T08:06:56Z</time>
      </trkpt>
      <trkpt lat="44.87739" lon="0.61128">
        <ele>122.9</ele>
        <time>2023-08-06T08:06:57Z</time>
      </trkpt>
      <trkpt lat="44.87742" lon="0.6112">
        <ele>123</ele>
        <time>2023-08-06T08:06:58Z</time>
      </trkpt>
      <trkpt lat="44.87741" lon="0.61116">
        <ele>123</ele>
        <time>2023-08-06T08:06:59Z</time>
      </trkpt>
      <trkpt lat="44.87739" lon="0.61115">
        <ele>123.1</ele>
        <time>2023-08-06T08:07:00Z</time>
      </trkpt>
      <trkpt lat="44.87737" lon="0.61114">
        <ele>123.1</ele>
        <time>2023-08-06T08:07:01Z</time>
      </trkpt>
      <trkpt lat="44.87734" lon="0.61114">
        <ele>123.1</ele>
        <time>2023-08-06T08:07:02Z</time>
      </trkpt>
      <trkpt lat="44.87731" lon="0.61115">
        <ele>123.2</ele>
        <time>2023-08-06T08:07:03Z</time>
      </trkpt>
      <trkpt lat="44.87728" lon="0.61117">
        <ele>123.2</ele>
        <time>2023-08-06T08:07:04Z</time>
      </trkpt>
      <trkpt lat="44.87721" lon="0.6112">
        <ele>123.3</ele>
        <time>2023-08-06T08:07:06Z</time>
      </trkpt>
      <trkpt lat="44.87714" lon="0.61124">
        <ele>123.3</ele>
        <time>2023-08-06T08:07:08Z</time>
      </trkpt>
      <trkpt lat="44.87708" lon="0.61126">
        <ele>123.4</ele>
        <time>2023-08-06T08:07:10Z</time>
      </trkpt>
      <trkpt lat="44.87701" lon="0.61129">
        <ele>123.4</ele>
        <time>2023-08-06T08:07:12Z</time>
      </trkpt>
      <trkpt lat="44.87698" lon="0.61132">
        <ele>123.4</ele>
        <time>2023-08-06T08:07:13Z</time>
      </trkpt>
      <trkpt lat="44.87694" lon="0.61136">
        <ele>123.6</ele>
        <time>2023-08-06T08:07:14Z</time>
      </trkpt>
      <trkpt lat="44.87693" lon="0.61141">
        <ele>123.7</ele>
        <time>2023-08-06T08:07:15Z</time>
      </trkpt>
      <trkpt lat="44.87695" lon="0.61145">
        <ele>123.8</ele>
        <time>2023-08-06T08:07:16Z</time>
      </trkpt>
      <trkpt lat="44.87697" lon="0.61154">
        <ele>124.1</ele>
        <time>2023-08-06T08:07:18Z</time>
      </trkpt>
      <trkpt lat="44.87699" lon="0.61163">
        <ele>124.4</ele>
        <time>2023-08-06T08:07:20Z</time>
      </trkpt>
      <trkpt lat="44.87701" lon="0.61171">
        <ele>124.6</ele>
        <time>2023-08-06T08:07:22Z</time>
      </trkpt>
      <trkpt lat="44.87703" lon="0.61179">
        <ele>124.8</ele>
        <time>2023-08-06T08:07:24Z</time>
      </trkpt>
      <trkpt lat="44.87705" lon="0.61183">
        <ele>125</ele>
        <time>2023-08-06T08:07:25Z</time>
      </trkpt>
      <trkpt lat="44.87707" lon="0.61189">
        <ele>125.2</ele>
        <time>2023-08-06T08:07:26Z</time>
      </trkpt>
      <trkpt lat="44.87709" lon="0.61198">
        <ele>125.4</ele>
        <time>2023-08-06T08:07:28Z</time>
      </trkpt>
      <trkpt lat="44.87711" lon="0.61207">
        <ele>125.5</ele>
        <time>2023-08-06T08:07:30Z</time>
      </trkpt>
      <trkpt lat="44.87713" lon="0.61217">
        <ele>125.7</ele>
        <time>2023-08-06T08:07:32Z</time>
      </trkpt>
      <trkpt lat="44.87715" lon="0.61228">
        <ele>125.7</ele>
        <time>2023-08-06T08:07:34Z</time>
      </trkpt>
      <trkpt lat="44.87717" lon="0.61238">
        <ele>125.7</ele>
        <time>2023-08-06T08:07:36Z</time>
      </trkpt>
      <trkpt lat="44.87719" lon="0.61249">
        <ele>125.6</ele>
        <time>2023-08-06T08:07:38Z</time>
      </trkpt>
      <trkpt lat="44.87721" lon="0.61261">
        <ele>125.4</ele>
        <time>2023-08-06T08:07:40Z</time>
      </trkpt>
      <trkpt lat="44.87723" lon="0.61273">
        <ele>125.2</ele>
        <time>2023-08-06T08:07:42Z</time>
      </trkpt>
      <trkpt lat="44.87724" lon="0.61287">
        <ele>125.1</ele>
        <time>2023-08-06T08:07:44Z</time>
      </trkpt>
      <trkpt lat="44.87724" lon="0.61294">
        <ele>125</ele>
        <time>2023-08-06T08:07:45Z</time>
      </trkpt>
      <trkpt lat="44.87725" lon="0.61301">
        <ele>124.9</ele>
        <time>2023-08-06T08:07:46Z</time>
      </trkpt>
      <trkpt lat="44.87726" lon="0.61316">
        <ele>124.8</ele>
        <time>2023-08-06T08:07:48Z</time>
      </trkpt>
      <trkpt lat="44.87727" lon="0.61324">
        <ele>124.7</ele>
        <time>2023-08-06T08:07:49Z</time>
      </trkpt>
      <trkpt lat="44.87728" lon="0.61331">
        <ele>124.6</ele>
        <time>2023-08-06T08:07:50Z</time>
      </trkpt>
      <trkpt lat="44.87731" lon="0.61345">
        <ele>124.6</ele>
        <time>2023-08-06T08:07:52Z</time>
      </trkpt>
      <trkpt lat="44.87733" lon="0.61351">
        <ele>124.5</ele>
        <time>2023-08-06T08:07:53Z</time>
      </trkpt>
      <trkpt lat="44.87735" lon="0.61358">
        <ele>124.5</ele>
        <time>2023-08-06T08:07:54Z</time>
      </trkpt>
      <trkpt lat="44.8774" lon="0.61372">
        <ele>124.6</ele>
        <time>2023-08-06T08:07:56Z</time>
      </trkpt>
      <trkpt lat="44.87745" lon="0.61385">
        <ele>124.7</ele>
        <time>2023-08-06T08:07:58Z</time>
      </trkpt>
      <trkpt lat="44.87749" lon="0.61397">
        <ele>124.9</ele>
        <time>2023-08-06T08:08:00Z</time>
      </trkpt>
      <trkpt lat="44.87752" lon="0.6141">
        <ele>125.1</ele>
        <time>2023-08-06T08:08:02Z</time>
      </trkpt>
      <trkpt lat="44.87756" lon="0.61422">
        <ele>125.3</ele>
        <time>2023-08-06T08:08:04Z</time>
      </trkpt>
      <trkpt lat="44.87759" lon="0.61429">
        <ele>125.4</ele>
        <time>2023-08-06T08:08:05Z</time>
      </trkpt>
      <trkpt lat="44.87761" lon="0.61435">
        <ele>125.5</ele>
        <time>2023-08-06T08:08:06Z</time>
      </trkpt>
      <trkpt lat="44.87764" lon="0.61447">
        <ele>125.7</ele>
        <time>2023-08-06T08:08:08Z</time>
      </trkpt>
      <trkpt lat="44.87768" lon="0.61459">
        <ele>126</ele>
        <time>2023-08-06T08:08:10Z</time>
      </trkpt>
      <trkpt lat="44.87772" lon="0.61471">
        <ele>126.3</ele>
        <time>2023-08-06T08:08:12Z</time>
      </trkpt>
      <trkpt lat="44.87773" lon="0.61477">
        <ele>126.5</ele>
        <time>2023-08-06T08:08:13Z</time>
      </trkpt>
      <trkpt lat="44.87775" lon="0.61483">
        <ele>126.7</ele>
        <time>2023-08-06T08:08:14Z</time>
      </trkpt>
      <trkpt lat="44.87776" lon="0.61489">
        <ele>126.8</ele>
        <time>2023-08-06T08:08:15Z</time>
      </trkpt>
      <trkpt lat="44.87779" lon="0.61494">
        <ele>127</ele>
        <time>2023-08-06T08:08:16Z</time>
      </trkpt>
      <trkpt lat="44.8778" lon="0.615">
        <ele>127.2</ele>
        <time>2023-08-06T08:08:17Z</time>
      </trkpt>
      <trkpt lat="44.87782" lon="0.61506">
        <ele>127.3</ele>
        <time>2023-08-06T08:08:18Z</time>
      </trkpt>
      <trkpt lat="44.87786" lon="0.61517">
        <ele>127.6</ele>
        <time>2023-08-06T08:08:20Z</time>
      </trkpt>
      <trkpt lat="44.87789" lon="0.61528">
        <ele>127.9</ele>
        <time>2023-08-06T08:08:22Z</time>
      </trkpt>
      <trkpt lat="44.8779" lon="0.61534">
        <ele>128.1</ele>
        <time>2023-08-06T08:08:23Z</time>
      </trkpt>
      <trkpt lat="44.87791" lon="0.61539">
        <ele>128.2</ele>
        <time>2023-08-06T08:08:24Z</time>
      </trkpt>
      <trkpt lat="44.87794" lon="0.61549">
        <ele>128.5</ele>
        <time>2023-08-06T08:08:26Z</time>
      </trkpt>
      <trkpt lat="44.87795" lon="0.61554">
        <ele>128.7</ele>
        <time>2023-08-06T08:08:27Z</time>
      </trkpt>
      <trkpt lat="44.87796" lon="0.61558">
        <ele>128.8</ele>
        <time>2023-08-06T08:08:28Z</time>
      </trkpt>
      <trkpt lat="44.878" lon="0.61569">
        <ele>129.2</ele>
        <time>2023-08-06T08:08:30Z</time>
      </trkpt>
      <trkpt lat="44.87801" lon="0.61574">
        <ele>129.3</ele>
        <time>2023-08-06T08:08:31Z</time>
      </trkpt>
      <trkpt lat="44.87803" lon="0.61577">
        <ele>129.5</ele>
        <time>2023-08-06T08:08:32Z</time>
      </trkpt>
      <trkpt lat="44.87804" lon="0.61581">
        <ele>129.6</ele>
        <time>2023-08-06T08:08:33Z</time>
      </trkpt>
      <trkpt lat="44.87808" lon="0.61584">
        <ele>129.8</ele>
        <time>2023-08-06T08:08:34Z</time>
      </trkpt>
      <trkpt lat="44.87816" lon="0.61589">
        <ele>129.6</ele>
        <time>2023-08-06T08:08:36Z</time>
      </trkpt>
      <trkpt lat="44.87821" lon="0.61591">
        <ele>129.3</ele>
        <time>2023-08-06T08:08:37Z</time>
      </trkpt>
      <trkpt lat="44.87826" lon="0.61591">
        <ele>129</ele>
        <time>2023-08-06T08:08:38Z</time>
      </trkpt>
      <trkpt lat="44.87832" lon="0.61589">
        <ele>128.7</ele>
        <time>2023-08-06T08:08:39Z</time>
      </trkpt>
      <trkpt lat="44.87838" lon="0.61587">
        <ele>128.3</ele>
        <time>2023-08-06T08:08:40Z</time>
      </trkpt>
      <trkpt lat="44.87849" lon="0.61579">
        <ele>127.7</ele>
        <time>2023-08-06T08:08:42Z</time>
      </trkpt>
      <trkpt lat="44.87861" lon="0.61572">
        <ele>127.2</ele>
        <time>2023-08-06T08:08:44Z</time>
      </trkpt>
      <trkpt lat="44.87867" lon="0.6157">
        <ele>126.9</ele>
        <time>2023-08-06T08:08:45Z</time>
      </trkpt>
      <trkpt lat="44.87874" lon="0.61567">
        <ele>126.6</ele>
        <time>2023-08-06T08:08:46Z</time>
      </trkpt>
      <trkpt lat="44.87886" lon="0.61563">
        <ele>126.1</ele>
        <time>2023-08-06T08:08:48Z</time>
      </trkpt>
      <trkpt lat="44.87892" lon="0.61561">
        <ele>125.9</ele>
        <time>2023-08-06T08:08:49Z</time>
      </trkpt>
      <trkpt lat="44.87896" lon="0.61559">
        <ele>125.8</ele>
        <time>2023-08-06T08:08:50Z</time>
      </trkpt>
      <trkpt lat="44.87901" lon="0.61556">
        <ele>125.6</ele>
        <time>2023-08-06T08:08:51Z</time>
      </trkpt>
      <trkpt lat="44.87906" lon="0.61555">
        <ele>125.4</ele>
        <time>2023-08-06T08:08:52Z</time>
      </trkpt>
      <trkpt lat="44.87912" lon="0.61556">
        <ele>125.3</ele>
        <time>2023-08-06T08:08:53Z</time>
      </trkpt>
      <trkpt lat="44.87917" lon="0.61558">
        <ele>125.3</ele>
        <time>2023-08-06T08:08:54Z</time>
      </trkpt>
      <trkpt lat="44.87929" lon="0.61565">
        <ele>125.4</ele>
        <time>2023-08-06T08:08:56Z</time>
      </trkpt>
      <trkpt lat="44.87936" lon="0.61561">
        <ele>125</ele>
        <time>2023-08-06T08:08:58Z</time>
      </trkpt>
      <trkpt lat="44.87939" lon="0.61556">
        <ele>124.9</ele>
        <time>2023-08-06T08:08:59Z</time>
      </trkpt>
      <trkpt lat="44.87943" lon="0.61551">
        <ele>124.7</ele>
        <time>2023-08-06T08:09:00Z</time>
      </trkpt>
      <trkpt lat="44.87947" lon="0.61546">
        <ele>124.6</ele>
        <time>2023-08-06T08:09:01Z</time>
      </trkpt>
      <trkpt lat="44.87951" lon="0.61543">
        <ele>124.3</ele>
        <time>2023-08-06T08:09:02Z</time>
      </trkpt>
      <trkpt lat="44.87956" lon="0.61543">
        <ele>124.1</ele>
        <time>2023-08-06T08:09:03Z</time>
      </trkpt>
      <trkpt lat="44.87962" lon="0.61544">
        <ele>123.8</ele>
        <time>2023-08-06T08:09:04Z</time>
      </trkpt>
      <trkpt lat="44.87968" lon="0.61542">
        <ele>123.5</ele>
        <time>2023-08-06T08:09:05Z</time>
      </trkpt>
      <trkpt lat="44.87974" lon="0.61539">
        <ele>123.2</ele>
        <time>2023-08-06T08:09:06Z</time>
      </trkpt>
      <trkpt lat="44.8798" lon="0.61537">
        <ele>122.9</ele>
        <time>2023-08-06T08:09:07Z</time>
      </trkpt>
      <trkpt lat="44.87986" lon="0.61535">
        <ele>122.6</ele>
        <time>2023-08-06T08:09:08Z</time>
      </trkpt>
      <trkpt lat="44.87992" lon="0.61532">
        <ele>122.3</ele>
        <time>2023-08-06T08:09:09Z</time>
      </trkpt>
      <trkpt lat="44.87997" lon="0.6153">
        <ele>122.1</ele>
        <time>2023-08-06T08:09:10Z</time>
      </trkpt>
      <trkpt lat="44.88007" lon="0.61527">
        <ele>121.8</ele>
        <time>2023-08-06T08:09:12Z</time>
      </trkpt>
      <trkpt lat="44.88009" lon="0.61529">
        <ele>121.7</ele>
        <time>2023-08-06T08:09:13Z</time>
      </trkpt>
      <trkpt lat="44.88009" lon="0.61532">
        <ele>121.8</ele>
        <time>2023-08-06T08:09:14Z</time>
      </trkpt>
      <trkpt lat="44.88008" lon="0.6154">
        <ele>121.9</ele>
        <time>2023-08-06T08:09:16Z</time>
      </trkpt>
      <trkpt lat="44.88009" lon="0.61544">
        <ele>121.9</ele>
        <time>2023-08-06T08:09:17Z</time>
      </trkpt>
      <trkpt lat="44.88009" lon="0.61548">
        <ele>122</ele>
        <time>2023-08-06T08:09:18Z</time>
      </trkpt>
      <trkpt lat="44.88012" lon="0.61555">
        <ele>122.1</ele>
        <time>2023-08-06T08:09:20Z</time>
      </trkpt>
      <trkpt lat="44.88009" lon="0.61558">
        <ele>122.3</ele>
        <time>2023-08-06T08:09:21Z</time>
      </trkpt>
      <trkpt lat="44.88006" lon="0.61561">
        <ele>122.4</ele>
        <time>2023-08-06T08:09:22Z</time>
      </trkpt>
      <trkpt lat="44.88002" lon="0.61568">
        <ele>122.7</ele>
        <time>2023-08-06T08:09:24Z</time>
      </trkpt>
      <trkpt lat="44.88002" lon="0.61571">
        <ele>122.8</ele>
        <time>2023-08-06T08:09:25Z</time>
      </trkpt>
      <trkpt lat="44.88003" lon="0.61574">
        <ele>122.8</ele>
        <time>2023-08-06T08:09:26Z</time>
      </trkpt>
      <trkpt lat="44.88004" lon="0.61581">
        <ele>123</ele>
        <time>2023-08-06T08:09:28Z</time>
      </trkpt>
      <trkpt lat="44.88003" lon="0.61585">
        <ele>123.1</ele>
        <time>2023-08-06T08:09:29Z</time>
      </trkpt>
      <trkpt lat="44.88001" lon="0.61588">
        <ele>123.3</ele>
        <time>2023-08-06T08:09:30Z</time>
      </trkpt>
      <trkpt lat="44.87996" lon="0.61592">
        <ele>123.4</ele>
        <time>2023-08-06T08:09:32Z</time>
      </trkpt>
      <trkpt lat="44.87994" lon="0.61594">
        <ele>123.5</ele>
        <time>2023-08-06T08:09:33Z</time>
      </trkpt>
      <trkpt lat="44.87991" lon="0.61596">
        <ele>123.6</ele>
        <time>2023-08-06T08:09:34Z</time>
      </trkpt>
      <trkpt lat="44.87987" lon="0.61599">
        <ele>123.8</ele>
        <time>2023-08-06T08:09:36Z</time>
      </trkpt>
      <trkpt lat="44.87983" lon="0.61602">
        <ele>124</ele>
        <time>2023-08-06T08:09:38Z</time>
      </trkpt>
      <trkpt lat="44.87979" lon="0.61605">
        <ele>124.1</ele>
        <time>2023-08-06T08:09:40Z</time>
      </trkpt>
      <trkpt lat="44.87975" lon="0.61607">
        <ele>124.2</ele>
        <time>2023-08-06T08:09:42Z</time>
      </trkpt>
      <trkpt lat="44.8797" lon="0.61607">
        <ele>124.4</ele>
        <time>2023-08-06T08:09:44Z</time>
      </trkpt>
      <trkpt lat="44.87964" lon="0.61606">
        <ele>124.6</ele>
        <time>2023-08-06T08:09:46Z</time>
      </trkpt>
      <trkpt lat="44.87961" lon="0.61606">
        <ele>124.7</ele>
        <time>2023-08-06T08:09:47Z</time>
      </trkpt>
      <trkpt lat="44.87958" lon="0.61607">
        <ele>124.8</ele>
        <time>2023-08-06T08:09:48Z</time>
      </trkpt>
      <trkpt lat="44.87954" lon="0.6161">
        <ele>124.9</ele>
        <time>2023-08-06T08:09:50Z</time>
      </trkpt>
      <trkpt lat="44.87949" lon="0.61613">
        <ele>125.1</ele>
        <time>2023-08-06T08:09:52Z</time>
      </trkpt>
      <trkpt lat="44.87947" lon="0.61616">
        <ele>125.3</ele>
        <time>2023-08-06T08:09:53Z</time>
      </trkpt>
      <trkpt lat="44.87946" lon="0.61618">
        <ele>125.3</ele>
        <time>2023-08-06T08:09:54Z</time>
      </trkpt>
      <trkpt lat="44.87943" lon="0.61624">
        <ele>125.4</ele>
        <time>2023-08-06T08:09:56Z</time>
      </trkpt>
      <trkpt lat="44.87941" lon="0.6163">
        <ele>125.4</ele>
        <time>2023-08-06T08:09:58Z</time>
      </trkpt>
      <trkpt lat="44.87941" lon="0.61633">
        <ele>125.4</ele>
        <time>2023-08-06T08:09:59Z</time>
      </trkpt>
      <trkpt lat="44.87942" lon="0.61637">
        <ele>125.5</ele>
        <time>2023-08-06T08:10:00Z</time>
      </trkpt>
      <trkpt lat="44.87941" lon="0.6164">
        <ele>125.5</ele>
        <time>2023-08-06T08:10:01Z</time>
      </trkpt>
      <trkpt lat="44.87941" lon="0.61643">
        <ele>125.6</ele>
        <time>2023-08-06T08:10:02Z</time>
      </trkpt>
      <trkpt lat="44.87939" lon="0.61646">
        <ele>125.7</ele>
        <time>2023-08-06T08:10:03Z</time>
      </trkpt>
      <trkpt lat="44.87937" lon="0.6165">
        <ele>125.8</ele>
        <time>2023-08-06T08:10:04Z</time>
      </trkpt>
      <trkpt lat="44.87937" lon="0.61655">
        <ele>125.9</ele>
        <time>2023-08-06T08:10:05Z</time>
      </trkpt>
      <trkpt lat="44.87937" lon="0.6166">
        <ele>125.9</ele>
        <time>2023-08-06T08:10:06Z</time>
      </trkpt>
      <trkpt lat="44.87936" lon="0.61673">
        <ele>126.1</ele>
        <time>2023-08-06T08:10:08Z</time>
      </trkpt>
      <trkpt lat="44.87935" lon="0.61678">
        <ele>126.2</ele>
        <time>2023-08-06T08:10:09Z</time>
      </trkpt>
      <trkpt lat="44.87933" lon="0.61683">
        <ele>126.4</ele>
        <time>2023-08-06T08:10:10Z</time>
      </trkpt>
      <trkpt lat="44.87926" lon="0.61691">
        <ele>126.9</ele>
        <time>2023-08-06T08:10:12Z</time>
      </trkpt>
      <trkpt lat="44.8792" lon="0.61697">
        <ele>127.4</ele>
        <time>2023-08-06T08:10:14Z</time>
      </trkpt>
      <trkpt lat="44.87915" lon="0.61701">
        <ele>127.7</ele>
        <time>2023-08-06T08:10:16Z</time>
      </trkpt>
      <trkpt lat="44.87908" lon="0.61704">
        <ele>128</ele>
        <time>2023-08-06T08:10:18Z</time>
      </trkpt>
      <trkpt lat="44.87907" lon="0.61705">
        <ele>128.1</ele>
        <time>2023-08-06T08:10:19Z</time>
      </trkpt>
      <trkpt lat="44.87906" lon="0.61706">
        <ele>128.1</ele>
        <time>2023-08-06T08:10:20Z</time>
      </trkpt>
      <trkpt lat="44.87902" lon="0.61708">
        <ele>128.2</ele>
        <time>2023-08-06T08:10:22Z</time>
      </trkpt>
      <trkpt lat="44.87901" lon="0.61709">
        <ele>128.3</ele>
        <time>2023-08-06T08:10:23Z</time>
      </trkpt>
      <trkpt lat="44.879" lon="0.61709">
        <ele>128.3</ele>
        <time>2023-08-06T08:10:24Z</time>
      </trkpt>
      <trkpt lat="44.87897" lon="0.61708">
        <ele>128.4</ele>
        <time>2023-08-06T08:10:26Z</time>
      </trkpt>
      <trkpt lat="44.87895" lon="0.61708">
        <ele>128.5</ele>
        <time>2023-08-06T08:10:27Z</time>
      </trkpt>
      <trkpt lat="44.87893" lon="0.61709">
        <ele>128.5</ele>
        <time>2023-08-06T08:10:28Z</time>
      </trkpt>
      <trkpt lat="44.87888" lon="0.61711">
        <ele>128.5</ele>
        <time>2023-08-06T08:10:30Z</time>
      </trkpt>
      <trkpt lat="44.87883" lon="0.61712">
        <ele>128.5</ele>
        <time>2023-08-06T08:10:32Z</time>
      </trkpt>
      <trkpt lat="44.87878" lon="0.61713">
        <ele>128.5</ele>
        <time>2023-08-06T08:10:34Z</time>
      </trkpt>
      <trkpt lat="44.87875" lon="0.61714">
        <ele>128.5</ele>
        <time>2023-08-06T08:10:35Z</time>
      </trkpt>
      <trkpt lat="44.87872" lon="0.61716">
        <ele>128.5</ele>
        <time>2023-08-06T08:10:36Z</time>
      </trkpt>
      <trkpt lat="44.87869" lon="0.61718">
        <ele>128.5</ele>
        <time>2023-08-06T08:10:37Z</time>
      </trkpt>
      <trkpt lat="44.87866" lon="0.6172">
        <ele>128.5</ele>
        <time>2023-08-06T08:10:38Z</time>
      </trkpt>
      <trkpt lat="44.87864" lon="0.61722">
        <ele>128.5</ele>
        <time>2023-08-06T08:10:39Z</time>
      </trkpt>
      <trkpt lat="44.87863" lon="0.61724">
        <ele>128.5</ele>
        <time>2023-08-06T08:10:40Z</time>
      </trkpt>
      <trkpt lat="44.87865" lon="0.61731">
        <ele>128.6</ele>
        <time>2023-08-06T08:10:42Z</time>
      </trkpt>
      <trkpt lat="44.87866" lon="0.61735">
        <ele>128.6</ele>
        <time>2023-08-06T08:10:43Z</time>
      </trkpt>
      <trkpt lat="44.87866" lon="0.6174">
        <ele>128.6</ele>
        <time>2023-08-06T08:10:44Z</time>
      </trkpt>
      <trkpt lat="44.87867" lon="0.61744">
        <ele>128.6</ele>
        <time>2023-08-06T08:10:45Z</time>
      </trkpt>
      <trkpt lat="44.8787" lon="0.61747">
        <ele>128.7</ele>
        <time>2023-08-06T08:10:46Z</time>
      </trkpt>
      <trkpt lat="44.87877" lon="0.61752">
        <ele>128.7</ele>
        <time>2023-08-06T08:10:48Z</time>
      </trkpt>
      <trkpt lat="44.87882" lon="0.61753">
        <ele>128.7</ele>
        <time>2023-08-06T08:10:49Z</time>
      </trkpt>
      <trkpt lat="44.87886" lon="0.61755">
        <ele>128.7</ele>
        <time>2023-08-06T08:10:50Z</time>
      </trkpt>
      <trkpt lat="44.87892" lon="0.61756">
        <ele>128.6</ele>
        <time>2023-08-06T08:10:51Z</time>
      </trkpt>
      <trkpt lat="44.87897" lon="0.61757">
        <ele>128.6</ele>
        <time>2023-08-06T08:10:52Z</time>
      </trkpt>
      <trkpt lat="44.87903" lon="0.61757">
        <ele>128.5</ele>
        <time>2023-08-06T08:10:53Z</time>
      </trkpt>
      <trkpt lat="44.8791" lon="0.61758">
        <ele>128.4</ele>
        <time>2023-08-06T08:10:54Z</time>
      </trkpt>
      <trkpt lat="44.87916" lon="0.61756">
        <ele>128.3</ele>
        <time>2023-08-06T08:10:55Z</time>
      </trkpt>
      <trkpt lat="44.8792" lon="0.61755">
        <ele>128.1</ele>
        <time>2023-08-06T08:10:56Z</time>
      </trkpt>
      <trkpt lat="44.87923" lon="0.61757">
        <ele>127.9</ele>
        <time>2023-08-06T08:10:57Z</time>
      </trkpt>
      <trkpt lat="44.87924" lon="0.6176">
        <ele>127.9</ele>
        <time>2023-08-06T08:10:58Z</time>
      </trkpt>
      <trkpt lat="44.87922" lon="0.61766">
        <ele>128.1</ele>
        <time>2023-08-06T08:11:00Z</time>
      </trkpt>
      <trkpt lat="44.8792" lon="0.61771">
        <ele>128.2</ele>
        <time>2023-08-06T08:11:02Z</time>
      </trkpt>
      <trkpt lat="44.87918" lon="0.61775">
        <ele>128.2</ele>
        <time>2023-08-06T08:11:03Z</time>
      </trkpt>
      <trkpt lat="44.87916" lon="0.61779">
        <ele>128.2</ele>
        <time>2023-08-06T08:11:04Z</time>
      </trkpt>
      <trkpt lat="44.87911" lon="0.61788">
        <ele>128.2</ele>
        <time>2023-08-06T08:11:06Z</time>
      </trkpt>
      <trkpt lat="44.87909" lon="0.61793">
        <ele>128.1</ele>
        <time>2023-08-06T08:11:07Z</time>
      </trkpt>
      <trkpt lat="44.87907" lon="0.61798">
        <ele>128.1</ele>
        <time>2023-08-06T08:11:08Z</time>
      </trkpt>
      <trkpt lat="44.87905" lon="0.61803">
        <ele>127.9</ele>
        <time>2023-08-06T08:11:09Z</time>
      </trkpt>
      <trkpt lat="44.87903" lon="0.61807">
        <ele>127.9</ele>
        <time>2023-08-06T08:11:10Z</time>
      </trkpt>
      <trkpt lat="44.87904" lon="0.61812">
        <ele>127.8</ele>
        <time>2023-08-06T08:11:11Z</time>
      </trkpt>
      <trkpt lat="44.87906" lon="0.61817">
        <ele>127.7</ele>
        <time>2023-08-06T08:11:12Z</time>
      </trkpt>
      <trkpt lat="44.8791" lon="0.61827">
        <ele>127.6</ele>
        <time>2023-08-06T08:11:14Z</time>
      </trkpt>
      <trkpt lat="44.87913" lon="0.61833">
        <ele>127.5</ele>
        <time>2023-08-06T08:11:15Z</time>
      </trkpt>
      <trkpt lat="44.87916" lon="0.6184">
        <ele>127.5</ele>
        <time>2023-08-06T08:11:16Z</time>
      </trkpt>
      <trkpt lat="44.87922" lon="0.61853">
        <ele>127.5</ele>
        <time>2023-08-06T08:11:18Z</time>
      </trkpt>
      <trkpt lat="44.87927" lon="0.61865">
        <ele>127.5</ele>
        <time>2023-08-06T08:11:20Z</time>
      </trkpt>
      <trkpt lat="44.8793" lon="0.6187">
        <ele>127.5</ele>
        <time>2023-08-06T08:11:21Z</time>
      </trkpt>
      <trkpt lat="44.87933" lon="0.61875">
        <ele>127.6</ele>
        <time>2023-08-06T08:11:22Z</time>
      </trkpt>
      <trkpt lat="44.87935" lon="0.61884">
        <ele>127.5</ele>
        <time>2023-08-06T08:11:24Z</time>
      </trkpt>
      <trkpt lat="44.8793" lon="0.6189">
        <ele>127.3</ele>
        <time>2023-08-06T08:11:26Z</time>
      </trkpt>
      <trkpt lat="44.87928" lon="0.61893">
        <ele>127.2</ele>
        <time>2023-08-06T08:11:27Z</time>
      </trkpt>
      <trkpt lat="44.87927" lon="0.61893">
        <ele>127.2</ele>
        <time>2023-08-06T08:11:28Z</time>
      </trkpt>
      <trkpt lat="44.87925" lon="0.61895">
        <ele>127.1</ele>
        <time>2023-08-06T08:11:30Z</time>
      </trkpt>
      <trkpt lat="44.87926" lon="0.61896">
        <ele>127.1</ele>
        <time>2023-08-06T08:11:32Z</time>
      </trkpt>
      <trkpt lat="44.87928" lon="0.61903">
        <ele>127.1</ele>
        <time>2023-08-06T08:11:34Z</time>
      </trkpt>
      <trkpt lat="44.8793" lon="0.61909">
        <ele>127.1</ele>
        <time>2023-08-06T08:11:36Z</time>
      </trkpt>
      <trkpt lat="44.87931" lon="0.61917">
        <ele>127</ele>
        <time>2023-08-06T08:11:38Z</time>
      </trkpt>
      <trkpt lat="44.87928" lon="0.61921">
        <ele>126.9</ele>
        <time>2023-08-06T08:11:40Z</time>
      </trkpt>
      <trkpt lat="44.87928" lon="0.61921">
        <ele>126.9</ele>
        <time>2023-08-06T08:11:41Z</time>
      </trkpt>
      <trkpt lat="44.87927" lon="0.6192">
        <ele>126.9</ele>
        <time>2023-08-06T08:11:42Z</time>
      </trkpt>
      <trkpt lat="44.87926" lon="0.6192">
        <ele>126.9</ele>
        <time>2023-08-06T08:11:43Z</time>
      </trkpt>
      <trkpt lat="44.87924" lon="0.61922">
        <ele>126.9</ele>
        <time>2023-08-06T08:11:44Z</time>
      </trkpt>
      <trkpt lat="44.87921" lon="0.61924">
        <ele>126.8</ele>
        <time>2023-08-06T08:11:45Z</time>
      </trkpt>
      <trkpt lat="44.87917" lon="0.61926">
        <ele>126.7</ele>
        <time>2023-08-06T08:11:46Z</time>
      </trkpt>
      <trkpt lat="44.87911" lon="0.6193">
        <ele>126.6</ele>
        <time>2023-08-06T08:11:48Z</time>
      </trkpt>
      <trkpt lat="44.87904" lon="0.61934">
        <ele>126.4</ele>
        <time>2023-08-06T08:11:50Z</time>
      </trkpt>
      <trkpt lat="44.87898" lon="0.61937">
        <ele>126.3</ele>
        <time>2023-08-06T08:11:52Z</time>
      </trkpt>
      <trkpt lat="44.87894" lon="0.61939">
        <ele>126.3</ele>
        <time>2023-08-06T08:11:53Z</time>
      </trkpt>
      <trkpt lat="44.87891" lon="0.61941">
        <ele>126.3</ele>
        <time>2023-08-06T08:11:54Z</time>
      </trkpt>
      <trkpt lat="44.87885" lon="0.61946">
        <ele>126.2</ele>
        <time>2023-08-06T08:11:56Z</time>
      </trkpt>
      <trkpt lat="44.8788" lon="0.61951">
        <ele>126.1</ele>
        <time>2023-08-06T08:11:58Z</time>
      </trkpt>
      <trkpt lat="44.87875" lon="0.61957">
        <ele>126</ele>
        <time>2023-08-06T08:12:00Z</time>
      </trkpt>
      <trkpt lat="44.87872" lon="0.61959">
        <ele>126.1</ele>
        <time>2023-08-06T08:12:01Z</time>
      </trkpt>
      <trkpt lat="44.87869" lon="0.61959">
        <ele>126.1</ele>
        <time>2023-08-06T08:12:02Z</time>
      </trkpt>
      <trkpt lat="44.87868" lon="0.61959">
        <ele>126.1</ele>
        <time>2023-08-06T08:12:03Z</time>
      </trkpt>
      <trkpt lat="44.87868" lon="0.61959">
        <ele>126.1</ele>
        <time>2023-08-06T08:12:04Z</time>
      </trkpt>
      <trkpt lat="44.87864" lon="0.61957">
        <ele>126.1</ele>
        <time>2023-08-06T08:12:06Z</time>
      </trkpt>
      <trkpt lat="44.87859" lon="0.61954">
        <ele>126.1</ele>
        <time>2023-08-06T08:12:08Z</time>
      </trkpt>
      <trkpt lat="44.87856" lon="0.61951">
        <ele>126.2</ele>
        <time>2023-08-06T08:12:10Z</time>
      </trkpt>
      <trkpt lat="44.8785" lon="0.61949">
        <ele>126.2</ele>
        <time>2023-08-06T08:12:12Z</time>
      </trkpt>
      <trkpt lat="44.87847" lon="0.61947">
        <ele>126.3</ele>
        <time>2023-08-06T08:12:13Z</time>
      </trkpt>
      <trkpt lat="44.87845" lon="0.61946">
        <ele>126.3</ele>
        <time>2023-08-06T08:12:14Z</time>
      </trkpt>
      <trkpt lat="44.8784" lon="0.61944">
        <ele>126.4</ele>
        <time>2023-08-06T08:12:16Z</time>
      </trkpt>
      <trkpt lat="44.87837" lon="0.61943">
        <ele>126.5</ele>
        <time>2023-08-06T08:12:17Z</time>
      </trkpt>
      <trkpt lat="44.87835" lon="0.61941">
        <ele>126.5</ele>
        <time>2023-08-06T08:12:18Z</time>
      </trkpt>
      <trkpt lat="44.87829" lon="0.61939">
        <ele>126.7</ele>
        <time>2023-08-06T08:12:20Z</time>
      </trkpt>
      <trkpt lat="44.8782" lon="0.61937">
        <ele>127</ele>
        <time>2023-08-06T08:12:22Z</time>
      </trkpt>
      <trkpt lat="44.87812" lon="0.61936">
        <ele>127.3</ele>
        <time>2023-08-06T08:12:24Z</time>
      </trkpt>
      <trkpt lat="44.87805" lon="0.61936">
        <ele>127.5</ele>
        <time>2023-08-06T08:12:26Z</time>
      </trkpt>
      <trkpt lat="44.87802" lon="0.61936">
        <ele>127.7</ele>
        <time>2023-08-06T08:12:27Z</time>
      </trkpt>
      <trkpt lat="44.87799" lon="0.61936">
        <ele>127.8</ele>
        <time>2023-08-06T08:12:28Z</time>
      </trkpt>
      <trkpt lat="44.87792" lon="0.61935">
        <ele>128.1</ele>
        <time>2023-08-06T08:12:30Z</time>
      </trkpt>
      <trkpt lat="44.87787" lon="0.61934">
        <ele>128.3</ele>
        <time>2023-08-06T08:12:32Z</time>
      </trkpt>
      <trkpt lat="44.87785" lon="0.61934">
        <ele>128.4</ele>
        <time>2023-08-06T08:12:33Z</time>
      </trkpt>
      <trkpt lat="44.87783" lon="0.61933">
        <ele>128.5</ele>
        <time>2023-08-06T08:12:34Z</time>
      </trkpt>
      <trkpt lat="44.87778" lon="0.61932">
        <ele>128.7</ele>
        <time>2023-08-06T08:12:36Z</time>
      </trkpt>
      <trkpt lat="44.87775" lon="0.61932">
        <ele>128.8</ele>
        <time>2023-08-06T08:12:37Z</time>
      </trkpt>
      <trkpt lat="44.87772" lon="0.61932">
        <ele>129</ele>
        <time>2023-08-06T08:12:38Z</time>
      </trkpt>
      <trkpt lat="44.87764" lon="0.6193">
        <ele>129.3</ele>
        <time>2023-08-06T08:12:40Z</time>
      </trkpt>
      <trkpt lat="44.87757" lon="0.61932">
        <ele>129.6</ele>
        <time>2023-08-06T08:12:42Z</time>
      </trkpt>
      <trkpt lat="44.87752" lon="0.61936">
        <ele>130.8</ele>
        <time>2023-08-06T08:12:44Z</time>
      </trkpt>
      <trkpt lat="44.87746" lon="0.61942">
        <ele>130.7</ele>
        <time>2023-08-06T08:12:46Z</time>
      </trkpt>
      <trkpt lat="44.87747" lon="0.61951">
        <ele>130.7</ele>
        <time>2023-08-06T08:12:48Z</time>
      </trkpt>
      <trkpt lat="44.87748" lon="0.61955">
        <ele>130.7</ele>
        <time>2023-08-06T08:12:49Z</time>
      </trkpt>
      <trkpt lat="44.87747" lon="0.6196">
        <ele>130.6</ele>
        <time>2023-08-06T08:12:50Z</time>
      </trkpt>
      <trkpt lat="44.87746" lon="0.61965">
        <ele>130.6</ele>
        <time>2023-08-06T08:12:51Z</time>
      </trkpt>
      <trkpt lat="44.87745" lon="0.61968">
        <ele>130.6</ele>
        <time>2023-08-06T08:12:52Z</time>
      </trkpt>
      <trkpt lat="44.87744" lon="0.61973">
        <ele>130.6</ele>
        <time>2023-08-06T08:12:53Z</time>
      </trkpt>
      <trkpt lat="44.87743" lon="0.61977">
        <ele>130.5</ele>
        <time>2023-08-06T08:12:54Z</time>
      </trkpt>
      <trkpt lat="44.87741" lon="0.61981">
        <ele>130.5</ele>
        <time>2023-08-06T08:12:55Z</time>
      </trkpt>
      <trkpt lat="44.87739" lon="0.61986">
        <ele>130.5</ele>
        <time>2023-08-06T08:12:56Z</time>
      </trkpt>
      <trkpt lat="44.87734" lon="0.61995">
        <ele>130.5</ele>
        <time>2023-08-06T08:12:58Z</time>
      </trkpt>
      <trkpt lat="44.87733" lon="0.61999">
        <ele>130.5</ele>
        <time>2023-08-06T08:12:59Z</time>
      </trkpt>
      <trkpt lat="44.8773" lon="0.62002">
        <ele>130.6</ele>
        <time>2023-08-06T08:13:00Z</time>
      </trkpt>
      <trkpt lat="44.87723" lon="0.62005">
        <ele>130.7</ele>
        <time>2023-08-06T08:13:02Z</time>
      </trkpt>
      <trkpt lat="44.87721" lon="0.62005">
        <ele>130.7</ele>
        <time>2023-08-06T08:13:03Z</time>
      </trkpt>
      <trkpt lat="44.87719" lon="0.62005">
        <ele>130.8</ele>
        <time>2023-08-06T08:13:04Z</time>
      </trkpt>
      <trkpt lat="44.87715" lon="0.62005">
        <ele>130.8</ele>
        <time>2023-08-06T08:13:05Z</time>
      </trkpt>
      <trkpt lat="44.87713" lon="0.62005">
        <ele>130.9</ele>
        <time>2023-08-06T08:13:06Z</time>
      </trkpt>
      <trkpt lat="44.87708" lon="0.62005">
        <ele>131</ele>
        <time>2023-08-06T08:13:08Z</time>
      </trkpt>
      <trkpt lat="44.87703" lon="0.62004">
        <ele>131.1</ele>
        <time>2023-08-06T08:13:10Z</time>
      </trkpt>
      <trkpt lat="44.877" lon="0.62003">
        <ele>131.1</ele>
        <time>2023-08-06T08:13:11Z</time>
      </trkpt>
      <trkpt lat="44.87698" lon="0.62001">
        <ele>131.2</ele>
        <time>2023-08-06T08:13:12Z</time>
      </trkpt>
      <trkpt lat="44.87695" lon="0.62">
        <ele>131.3</ele>
        <time>2023-08-06T08:13:13Z</time>
      </trkpt>
      <trkpt lat="44.87691" lon="0.62001">
        <ele>131.3</ele>
        <time>2023-08-06T08:13:14Z</time>
      </trkpt>
      <trkpt lat="44.87688" lon="0.62003">
        <ele>131.4</ele>
        <time>2023-08-06T08:13:15Z</time>
      </trkpt>
      <trkpt lat="44.87688" lon="0.62006">
        <ele>131.4</ele>
        <time>2023-08-06T08:13:16Z</time>
      </trkpt>
      <trkpt lat="44.87685" lon="0.62008">
        <ele>131.5</ele>
        <time>2023-08-06T08:13:17Z</time>
      </trkpt>
      <trkpt lat="44.87682" lon="0.62009">
        <ele>131.5</ele>
        <time>2023-08-06T08:13:18Z</time>
      </trkpt>
      <trkpt lat="44.87676" lon="0.62011">
        <ele>131.6</ele>
        <time>2023-08-06T08:13:20Z</time>
      </trkpt>
      <trkpt lat="44.87671" lon="0.62014">
        <ele>131.6</ele>
        <time>2023-08-06T08:13:22Z</time>
      </trkpt>
      <trkpt lat="44.87666" lon="0.62015">
        <ele>131.6</ele>
        <time>2023-08-06T08:13:23Z</time>
      </trkpt>
      <trkpt lat="44.87662" lon="0.62017">
        <ele>131.7</ele>
        <time>2023-08-06T08:13:24Z</time>
      </trkpt>
      <trkpt lat="44.87657" lon="0.62017">
        <ele>131.7</ele>
        <time>2023-08-06T08:13:26Z</time>
      </trkpt>
      <trkpt lat="44.87653" lon="0.62016">
        <ele>131.8</ele>
        <time>2023-08-06T08:13:28Z</time>
      </trkpt>
      <trkpt lat="44.87651" lon="0.62015">
        <ele>131.8</ele>
        <time>2023-08-06T08:13:29Z</time>
      </trkpt>
      <trkpt lat="44.87649" lon="0.62015">
        <ele>131.9</ele>
        <time>2023-08-06T08:13:30Z</time>
      </trkpt>
      <trkpt lat="44.87647" lon="0.62013">
        <ele>131.9</ele>
        <time>2023-08-06T08:13:32Z</time>
      </trkpt>
      <trkpt lat="44.87645" lon="0.62012">
        <ele>132</ele>
        <time>2023-08-06T08:13:33Z</time>
      </trkpt>
      <trkpt lat="44.87642" lon="0.62013">
        <ele>131.9</ele>
        <time>2023-08-06T08:13:34Z</time>
      </trkpt>
      <trkpt lat="44.87635" lon="0.62013">
        <ele>131.9</ele>
        <time>2023-08-06T08:13:36Z</time>
      </trkpt>
      <trkpt lat="44.87629" lon="0.62012">
        <ele>131.9</ele>
        <time>2023-08-06T08:13:37Z</time>
      </trkpt>
      <trkpt lat="44.87623" lon="0.62011">
        <ele>131.8</ele>
        <time>2023-08-06T08:13:38Z</time>
      </trkpt>
      <trkpt lat="44.87618" lon="0.62011">
        <ele>131.6</ele>
        <time>2023-08-06T08:13:39Z</time>
      </trkpt>
      <trkpt lat="44.87612" lon="0.6201">
        <ele>131.4</ele>
        <time>2023-08-06T08:13:40Z</time>
      </trkpt>
      <trkpt lat="44.87601" lon="0.62011">
        <ele>130.9</ele>
        <time>2023-08-06T08:13:42Z</time>
      </trkpt>
      <trkpt lat="44.87595" lon="0.62011">
        <ele>130.6</ele>
        <time>2023-08-06T08:13:43Z</time>
      </trkpt>
      <trkpt lat="44.87589" lon="0.6201">
        <ele>130.4</ele>
        <time>2023-08-06T08:13:44Z</time>
      </trkpt>
      <trkpt lat="44.87576" lon="0.62009">
        <ele>129.9</ele>
        <time>2023-08-06T08:13:46Z</time>
      </trkpt>
      <trkpt lat="44.87563" lon="0.62012">
        <ele>129.5</ele>
        <time>2023-08-06T08:13:48Z</time>
      </trkpt>
      <trkpt lat="44.8755" lon="0.62014">
        <ele>129.2</ele>
        <time>2023-08-06T08:13:50Z</time>
      </trkpt>
      <trkpt lat="44.87535" lon="0.62016">
        <ele>128.7</ele>
        <time>2023-08-06T08:13:52Z</time>
      </trkpt>
      <trkpt lat="44.87528" lon="0.62016">
        <ele>128.4</ele>
        <time>2023-08-06T08:13:53Z</time>
      </trkpt>
      <trkpt lat="44.87521" lon="0.62017">
        <ele>128.2</ele>
        <time>2023-08-06T08:13:54Z</time>
      </trkpt>
      <trkpt lat="44.87506" lon="0.62019">
        <ele>127.8</ele>
        <time>2023-08-06T08:13:56Z</time>
      </trkpt>
      <trkpt lat="44.87491" lon="0.62022">
        <ele>127.4</ele>
        <time>2023-08-06T08:13:58Z</time>
      </trkpt>
      <trkpt lat="44.87484" lon="0.62022">
        <ele>127.2</ele>
        <time>2023-08-06T08:13:59Z</time>
      </trkpt>
      <trkpt lat="44.87476" lon="0.62023">
        <ele>127</ele>
        <time>2023-08-06T08:14:00Z</time>
      </trkpt>
      <trkpt lat="44.87461" lon="0.62023">
        <ele>126.6</ele>
        <time>2023-08-06T08:14:02Z</time>
      </trkpt>
      <trkpt lat="44.87453" lon="0.62024">
        <ele>126.3</ele>
        <time>2023-08-06T08:14:03Z</time>
      </trkpt>
      <trkpt lat="44.87444" lon="0.62025">
        <ele>126</ele>
        <time>2023-08-06T08:14:04Z</time>
      </trkpt>
      <trkpt lat="44.87431" lon="0.62026">
        <ele>125.6</ele>
        <time>2023-08-06T08:14:06Z</time>
      </trkpt>
      <trkpt lat="44.87415" lon="0.62032">
        <ele>124.9</ele>
        <time>2023-08-06T08:14:08Z</time>
      </trkpt>
      <trkpt lat="44.87399" lon="0.62038">
        <ele>124.4</ele>
        <time>2023-08-06T08:14:10Z</time>
      </trkpt>
      <trkpt lat="44.87384" lon="0.62044">
        <ele>123.8</ele>
        <time>2023-08-06T08:14:12Z</time>
      </trkpt>
      <trkpt lat="44.87367" lon="0.6205">
        <ele>123</ele>
        <time>2023-08-06T08:14:14Z</time>
      </trkpt>
      <trkpt lat="44.8735" lon="0.62054">
        <ele>121.9</ele>
        <time>2023-08-06T08:14:16Z</time>
      </trkpt>
      <trkpt lat="44.8734" lon="0.62054">
        <ele>121.2</ele>
        <time>2023-08-06T08:14:17Z</time>
      </trkpt>
      <trkpt lat="44.87331" lon="0.62054">
        <ele>120.3</ele>
        <time>2023-08-06T08:14:18Z</time>
      </trkpt>
      <trkpt lat="44.87313" lon="0.62054">
        <ele>118.8</ele>
        <time>2023-08-06T08:14:20Z</time>
      </trkpt>
      <trkpt lat="44.87296" lon="0.62051">
        <ele>117.7</ele>
        <time>2023-08-06T08:14:22Z</time>
      </trkpt>
      <trkpt lat="44.87279" lon="0.62052">
        <ele>116.8</ele>
        <time>2023-08-06T08:14:24Z</time>
      </trkpt>
      <trkpt lat="44.87262" lon="0.62054">
        <ele>116.1</ele>
        <time>2023-08-06T08:14:26Z</time>
      </trkpt>
      <trkpt lat="44.87245" lon="0.62053">
        <ele>115.4</ele>
        <time>2023-08-06T08:14:28Z</time>
      </trkpt>
      <trkpt lat="44.87227" lon="0.62051">
        <ele>114.7</ele>
        <time>2023-08-06T08:14:30Z</time>
      </trkpt>
      <trkpt lat="44.87209" lon="0.62052">
        <ele>114</ele>
        <time>2023-08-06T08:14:32Z</time>
      </trkpt>
      <trkpt lat="44.87193" lon="0.62056">
        <ele>113.5</ele>
        <time>2023-08-06T08:14:34Z</time>
      </trkpt>
      <trkpt lat="44.87177" lon="0.62062">
        <ele>113.1</ele>
        <time>2023-08-06T08:14:36Z</time>
      </trkpt>
      <trkpt lat="44.87162" lon="0.62068">
        <ele>112.7</ele>
        <time>2023-08-06T08:14:38Z</time>
      </trkpt>
      <trkpt lat="44.87146" lon="0.62077">
        <ele>112.6</ele>
        <time>2023-08-06T08:14:40Z</time>
      </trkpt>
      <trkpt lat="44.87138" lon="0.62079">
        <ele>112.6</ele>
        <time>2023-08-06T08:14:41Z</time>
      </trkpt>
      <trkpt lat="44.87131" lon="0.62077">
        <ele>112.8</ele>
        <time>2023-08-06T08:14:42Z</time>
      </trkpt>
      <trkpt lat="44.87126" lon="0.62073">
        <ele>113.2</ele>
        <time>2023-08-06T08:14:43Z</time>
      </trkpt>
      <trkpt lat="44.87122" lon="0.62068">
        <ele>113.5</ele>
        <time>2023-08-06T08:14:44Z</time>
      </trkpt>
      <trkpt lat="44.87119" lon="0.62063">
        <ele>113.8</ele>
        <time>2023-08-06T08:14:45Z</time>
      </trkpt>
      <trkpt lat="44.87117" lon="0.62059">
        <ele>114.2</ele>
        <time>2023-08-06T08:14:46Z</time>
      </trkpt>
      <trkpt lat="44.87112" lon="0.62054">
        <ele>114.7</ele>
        <time>2023-08-06T08:14:48Z</time>
      </trkpt>
      <trkpt lat="44.87111" lon="0.62052">
        <ele>114.9</ele>
        <time>2023-08-06T08:14:49Z</time>
      </trkpt>
      <trkpt lat="44.87109" lon="0.62049">
        <ele>115.2</ele>
        <time>2023-08-06T08:14:50Z</time>
      </trkpt>
      <trkpt lat="44.87103" lon="0.62044">
        <ele>115.8</ele>
        <time>2023-08-06T08:14:52Z</time>
      </trkpt>
      <trkpt lat="44.87102" lon="0.62042">
        <ele>116</ele>
        <time>2023-08-06T08:14:53Z</time>
      </trkpt>
      <trkpt lat="44.871" lon="0.62039">
        <ele>116.2</ele>
        <time>2023-08-06T08:14:54Z</time>
      </trkpt>
      <trkpt lat="44.87096" lon="0.62033">
        <ele>116.6</ele>
        <time>2023-08-06T08:14:56Z</time>
      </trkpt>
      <trkpt lat="44.87091" lon="0.62027">
        <ele>117</ele>
        <time>2023-08-06T08:14:58Z</time>
      </trkpt>
      <trkpt lat="44.87087" lon="0.62021">
        <ele>117.4</ele>
        <time>2023-08-06T08:15:00Z</time>
      </trkpt>
      <trkpt lat="44.87082" lon="0.62016">
        <ele>117.7</ele>
        <time>2023-08-06T08:15:02Z</time>
      </trkpt>
      <trkpt lat="44.87077" lon="0.62011">
        <ele>118</ele>
        <time>2023-08-06T08:15:04Z</time>
      </trkpt>
      <trkpt lat="44.87073" lon="0.62005">
        <ele>118.3</ele>
        <time>2023-08-06T08:15:06Z</time>
      </trkpt>
      <trkpt lat="44.87068" lon="0.62">
        <ele>118.7</ele>
        <time>2023-08-06T08:15:08Z</time>
      </trkpt>
      <trkpt lat="44.87065" lon="0.61997">
        <ele>118.9</ele>
        <time>2023-08-06T08:15:09Z</time>
      </trkpt>
      <trkpt lat="44.87063" lon="0.61995">
        <ele>119.1</ele>
        <time>2023-08-06T08:15:10Z</time>
      </trkpt>
      <trkpt lat="44.87059" lon="0.6199">
        <ele>119.4</ele>
        <time>2023-08-06T08:15:12Z</time>
      </trkpt>
      <trkpt lat="44.87055" lon="0.61985">
        <ele>119.8</ele>
        <time>2023-08-06T08:15:14Z</time>
      </trkpt>
      <trkpt lat="44.87051" lon="0.6198">
        <ele>120.1</ele>
        <time>2023-08-06T08:15:16Z</time>
      </trkpt>
      <trkpt lat="44.87047" lon="0.61975">
        <ele>120.4</ele>
        <time>2023-08-06T08:15:18Z</time>
      </trkpt>
      <trkpt lat="44.87042" lon="0.61971">
        <ele>120.7</ele>
        <time>2023-08-06T08:15:20Z</time>
      </trkpt>
      <trkpt lat="44.87038" lon="0.61966">
        <ele>121</ele>
        <time>2023-08-06T08:15:22Z</time>
      </trkpt>
      <trkpt lat="44.87034" lon="0.61962">
        <ele>121.2</ele>
        <time>2023-08-06T08:15:24Z</time>
      </trkpt>
      <trkpt lat="44.8703" lon="0.61957">
        <ele>121.3</ele>
        <time>2023-08-06T08:15:26Z</time>
      </trkpt>
      <trkpt lat="44.87028" lon="0.61954">
        <ele>121.4</ele>
        <time>2023-08-06T08:15:27Z</time>
      </trkpt>
      <trkpt lat="44.87026" lon="0.61951">
        <ele>121.3</ele>
        <time>2023-08-06T08:15:28Z</time>
      </trkpt>
      <trkpt lat="44.87021" lon="0.61944">
        <ele>121.1</ele>
        <time>2023-08-06T08:15:30Z</time>
      </trkpt>
      <trkpt lat="44.87013" lon="0.61935">
        <ele>120.4</ele>
        <time>2023-08-06T08:15:32Z</time>
      </trkpt>
      <trkpt lat="44.87002" lon="0.61923">
        <ele>119</ele>
        <time>2023-08-06T08:15:34Z</time>
      </trkpt>
      <trkpt lat="44.86997" lon="0.61915">
        <ele>118.4</ele>
        <time>2023-08-06T08:15:35Z</time>
      </trkpt>
      <trkpt lat="44.86993" lon="0.61908">
        <ele>118.1</ele>
        <time>2023-08-06T08:15:36Z</time>
      </trkpt>
      <trkpt lat="44.86988" lon="0.61901">
        <ele>118</ele>
        <time>2023-08-06T08:15:37Z</time>
      </trkpt>
      <trkpt lat="44.86983" lon="0.61894">
        <ele>118.1</ele>
        <time>2023-08-06T08:15:38Z</time>
      </trkpt>
      <trkpt lat="44.86975" lon="0.61883">
        <ele>118.6</ele>
        <time>2023-08-06T08:15:40Z</time>
      </trkpt>
      <trkpt lat="44.86969" lon="0.61875">
        <ele>119.2</ele>
        <time>2023-08-06T08:15:42Z</time>
      </trkpt>
      <trkpt lat="44.86965" lon="0.61868">
        <ele>119.7</ele>
        <time>2023-08-06T08:15:44Z</time>
      </trkpt>
      <trkpt lat="44.86962" lon="0.61865">
        <ele>120</ele>
        <time>2023-08-06T08:15:45Z</time>
      </trkpt>
      <trkpt lat="44.8696" lon="0.61861">
        <ele>120.2</ele>
        <time>2023-08-06T08:15:46Z</time>
      </trkpt>
      <trkpt lat="44.86956" lon="0.61855">
        <ele>120.7</ele>
        <time>2023-08-06T08:15:48Z</time>
      </trkpt>
      <trkpt lat="44.86952" lon="0.61849">
        <ele>121.1</ele>
        <time>2023-08-06T08:15:50Z</time>
      </trkpt>
      <trkpt lat="44.86948" lon="0.61844">
        <ele>121.4</ele>
        <time>2023-08-06T08:15:52Z</time>
      </trkpt>
      <trkpt lat="44.86946" lon="0.61841">
        <ele>121.6</ele>
        <time>2023-08-06T08:15:53Z</time>
      </trkpt>
      <trkpt lat="44.86944" lon="0.61839">
        <ele>121.8</ele>
        <time>2023-08-06T08:15:54Z</time>
      </trkpt>
      <trkpt lat="44.8694" lon="0.61833">
        <ele>122.2</ele>
        <time>2023-08-06T08:15:56Z</time>
      </trkpt>
      <trkpt lat="44.86937" lon="0.61828">
        <ele>122.5</ele>
        <time>2023-08-06T08:15:58Z</time>
      </trkpt>
      <trkpt lat="44.86934" lon="0.61824">
        <ele>122.8</ele>
        <time>2023-08-06T08:16:00Z</time>
      </trkpt>
      <trkpt lat="44.86931" lon="0.61819">
        <ele>123.1</ele>
        <time>2023-08-06T08:16:02Z</time>
      </trkpt>
      <trkpt lat="44.86929" lon="0.61814">
        <ele>123.4</ele>
        <time>2023-08-06T08:16:04Z</time>
      </trkpt>
      <trkpt lat="44.86928" lon="0.61811">
        <ele>123.6</ele>
        <time>2023-08-06T08:16:05Z</time>
      </trkpt>
      <trkpt lat="44.86927" lon="0.61808">
        <ele>123.7</ele>
        <time>2023-08-06T08:16:06Z</time>
      </trkpt>
      <trkpt lat="44.86925" lon="0.61802">
        <ele>124</ele>
        <time>2023-08-06T08:16:08Z</time>
      </trkpt>
      <trkpt lat="44.86923" lon="0.61795">
        <ele>124.3</ele>
        <time>2023-08-06T08:16:10Z</time>
      </trkpt>
      <trkpt lat="44.86922" lon="0.61791">
        <ele>124.5</ele>
        <time>2023-08-06T08:16:11Z</time>
      </trkpt>
      <trkpt lat="44.86921" lon="0.61788">
        <ele>124.6</ele>
        <time>2023-08-06T08:16:12Z</time>
      </trkpt>
      <trkpt lat="44.86919" lon="0.6178">
        <ele>124.8</ele>
        <time>2023-08-06T08:16:14Z</time>
      </trkpt>
      <trkpt lat="44.86917" lon="0.61773">
        <ele>125</ele>
        <time>2023-08-06T08:16:16Z</time>
      </trkpt>
      <trkpt lat="44.86915" lon="0.6177">
        <ele>125.1</ele>
        <time>2023-08-06T08:16:17Z</time>
      </trkpt>
      <trkpt lat="44.86914" lon="0.61766">
        <ele>125.2</ele>
        <time>2023-08-06T08:16:18Z</time>
      </trkpt>
      <trkpt lat="44.86912" lon="0.61758">
        <ele>125.4</ele>
        <time>2023-08-06T08:16:20Z</time>
      </trkpt>
      <trkpt lat="44.86909" lon="0.6175">
        <ele>125.6</ele>
        <time>2023-08-06T08:16:22Z</time>
      </trkpt>
      <trkpt lat="44.86907" lon="0.61742">
        <ele>125.7</ele>
        <time>2023-08-06T08:16:24Z</time>
      </trkpt>
      <trkpt lat="44.86904" lon="0.61735">
        <ele>125.8</ele>
        <time>2023-08-06T08:16:26Z</time>
      </trkpt>
      <trkpt lat="44.86902" lon="0.61727">
        <ele>126</ele>
        <time>2023-08-06T08:16:28Z</time>
      </trkpt>
      <trkpt lat="44.86899" lon="0.61719">
        <ele>126.1</ele>
        <time>2023-08-06T08:16:30Z</time>
      </trkpt>
      <trkpt lat="44.86897" lon="0.6171">
        <ele>126.2</ele>
        <time>2023-08-06T08:16:32Z</time>
      </trkpt>
      <trkpt lat="44.86894" lon="0.61701">
        <ele>126.3</ele>
        <time>2023-08-06T08:16:34Z</time>
      </trkpt>
      <trkpt lat="44.86892" lon="0.61691">
        <ele>126.3</ele>
        <time>2023-08-06T08:16:36Z</time>
      </trkpt>
      <trkpt lat="44.86889" lon="0.61681">
        <ele>126.4</ele>
        <time>2023-08-06T08:16:38Z</time>
      </trkpt>
      <trkpt lat="44.86886" lon="0.61671">
        <ele>126.3</ele>
        <time>2023-08-06T08:16:40Z</time>
      </trkpt>
      <trkpt lat="44.86883" lon="0.61662">
        <ele>126.3</ele>
        <time>2023-08-06T08:16:42Z</time>
      </trkpt>
      <trkpt lat="44.8688" lon="0.61651">
        <ele>126.2</ele>
        <time>2023-08-06T08:16:44Z</time>
      </trkpt>
      <trkpt lat="44.86877" lon="0.61641">
        <ele>126.1</ele>
        <time>2023-08-06T08:16:46Z</time>
      </trkpt>
      <trkpt lat="44.86873" lon="0.61632">
        <ele>126</ele>
        <time>2023-08-06T08:16:48Z</time>
      </trkpt>
      <trkpt lat="44.8687" lon="0.61622">
        <ele>125.8</ele>
        <time>2023-08-06T08:16:50Z</time>
      </trkpt>
      <trkpt lat="44.86868" lon="0.61617">
        <ele>125.8</ele>
        <time>2023-08-06T08:16:51Z</time>
      </trkpt>
      <trkpt lat="44.86867" lon="0.61611">
        <ele>125.7</ele>
        <time>2023-08-06T08:16:52Z</time>
      </trkpt>
      <trkpt lat="44.86863" lon="0.61602">
        <ele>125.5</ele>
        <time>2023-08-06T08:16:54Z</time>
      </trkpt>
      <trkpt lat="44.86862" lon="0.616">
        <ele>125.5</ele>
        <time>2023-08-06T08:16:55Z</time>
      </trkpt>
      <trkpt lat="44.86859" lon="0.61597">
        <ele>125.4</ele>
        <time>2023-08-06T08:16:56Z</time>
      </trkpt>
      <trkpt lat="44.86854" lon="0.61596">
        <ele>125.2</ele>
        <time>2023-08-06T08:16:58Z</time>
      </trkpt>
      <trkpt lat="44.8685" lon="0.61597">
        <ele>125.1</ele>
        <time>2023-08-06T08:16:59Z</time>
      </trkpt>
      <trkpt lat="44.86847" lon="0.61599">
        <ele>125.1</ele>
        <time>2023-08-06T08:17:00Z</time>
      </trkpt>
      <trkpt lat="44.86842" lon="0.61602">
        <ele>124.9</ele>
        <time>2023-08-06T08:17:02Z</time>
      </trkpt>
      <trkpt lat="44.86839" lon="0.61605">
        <ele>124.8</ele>
        <time>2023-08-06T08:17:03Z</time>
      </trkpt>
      <trkpt lat="44.86836" lon="0.61607">
        <ele>124.8</ele>
        <time>2023-08-06T08:17:04Z</time>
      </trkpt>
      <trkpt lat="44.86829" lon="0.61611">
        <ele>124.6</ele>
        <time>2023-08-06T08:17:06Z</time>
      </trkpt>
      <trkpt lat="44.86825" lon="0.61614">
        <ele>124.5</ele>
        <time>2023-08-06T08:17:07Z</time>
      </trkpt>
      <trkpt lat="44.86821" lon="0.61617">
        <ele>124.4</ele>
        <time>2023-08-06T08:17:08Z</time>
      </trkpt>
      <trkpt lat="44.86818" lon="0.61619">
        <ele>124.3</ele>
        <time>2023-08-06T08:17:09Z</time>
      </trkpt>
      <trkpt lat="44.86814" lon="0.61622">
        <ele>124.2</ele>
        <time>2023-08-06T08:17:10Z</time>
      </trkpt>
      <trkpt lat="44.8681" lon="0.61625">
        <ele>124.1</ele>
        <time>2023-08-06T08:17:11Z</time>
      </trkpt>
      <trkpt lat="44.86806" lon="0.61629">
        <ele>124</ele>
        <time>2023-08-06T08:17:12Z</time>
      </trkpt>
      <trkpt lat="44.86797" lon="0.61636">
        <ele>123.8</ele>
        <time>2023-08-06T08:17:14Z</time>
      </trkpt>
      <trkpt lat="44.86787" lon="0.61644">
        <ele>123.6</ele>
        <time>2023-08-06T08:17:16Z</time>
      </trkpt>
      <trkpt lat="44.86783" lon="0.61647">
        <ele>123.5</ele>
        <time>2023-08-06T08:17:17Z</time>
      </trkpt>
      <trkpt lat="44.86778" lon="0.6165">
        <ele>123.5</ele>
        <time>2023-08-06T08:17:18Z</time>
      </trkpt>
      <trkpt lat="44.86768" lon="0.61656">
        <ele>123.3</ele>
        <time>2023-08-06T08:17:20Z</time>
      </trkpt>
      <trkpt lat="44.86764" lon="0.61658">
        <ele>123.3</ele>
        <time>2023-08-06T08:17:21Z</time>
      </trkpt>
      <trkpt lat="44.86758" lon="0.61661">
        <ele>123.2</ele>
        <time>2023-08-06T08:17:22Z</time>
      </trkpt>
      <trkpt lat="44.86752" lon="0.61664">
        <ele>123.1</ele>
        <time>2023-08-06T08:17:23Z</time>
      </trkpt>
      <trkpt lat="44.86747" lon="0.61667">
        <ele>123</ele>
        <time>2023-08-06T08:17:24Z</time>
      </trkpt>
      <trkpt lat="44.86741" lon="0.6167">
        <ele>122.9</ele>
        <time>2023-08-06T08:17:25Z</time>
      </trkpt>
      <trkpt lat="44.86736" lon="0.61673">
        <ele>122.8</ele>
        <time>2023-08-06T08:17:26Z</time>
      </trkpt>
      <trkpt lat="44.86725" lon="0.61679">
        <ele>122.6</ele>
        <time>2023-08-06T08:17:28Z</time>
      </trkpt>
      <trkpt lat="44.86715" lon="0.61685">
        <ele>122.5</ele>
        <time>2023-08-06T08:17:30Z</time>
      </trkpt>
      <trkpt lat="44.86704" lon="0.6169">
        <ele>122.4</ele>
        <time>2023-08-06T08:17:32Z</time>
      </trkpt>
      <trkpt lat="44.86694" lon="0.61696">
        <ele>122.3</ele>
        <time>2023-08-06T08:17:34Z</time>
      </trkpt>
      <trkpt lat="44.86689" lon="0.61699">
        <ele>122.3</ele>
        <time>2023-08-06T08:17:35Z</time>
      </trkpt>
      <trkpt lat="44.86684" lon="0.61702">
        <ele>122.2</ele>
        <time>2023-08-06T08:17:36Z</time>
      </trkpt>
      <trkpt lat="44.86679" lon="0.61704">
        <ele>122.1</ele>
        <time>2023-08-06T08:17:37Z</time>
      </trkpt>
      <trkpt lat="44.86675" lon="0.61707">
        <ele>122</ele>
        <time>2023-08-06T08:17:38Z</time>
      </trkpt>
      <trkpt lat="44.86671" lon="0.6171">
        <ele>122</ele>
        <time>2023-08-06T08:17:39Z</time>
      </trkpt>
      <trkpt lat="44.86666" lon="0.61713">
        <ele>121.9</ele>
        <time>2023-08-06T08:17:40Z</time>
      </trkpt>
      <trkpt lat="44.8666" lon="0.61716">
        <ele>121.8</ele>
        <time>2023-08-06T08:17:41Z</time>
      </trkpt>
      <trkpt lat="44.86655" lon="0.61718">
        <ele>121.7</ele>
        <time>2023-08-06T08:17:42Z</time>
      </trkpt>
      <trkpt lat="44.86645" lon="0.61724">
        <ele>121.5</ele>
        <time>2023-08-06T08:17:44Z</time>
      </trkpt>
      <trkpt lat="44.86634" lon="0.6173">
        <ele>121.2</ele>
        <time>2023-08-06T08:17:46Z</time>
      </trkpt>
      <trkpt lat="44.86624" lon="0.61735">
        <ele>120.9</ele>
        <time>2023-08-06T08:17:48Z</time>
      </trkpt>
      <trkpt lat="44.86613" lon="0.61739">
        <ele>120.6</ele>
        <time>2023-08-06T08:17:50Z</time>
      </trkpt>
      <trkpt lat="44.86601" lon="0.61743">
        <ele>120.2</ele>
        <time>2023-08-06T08:17:52Z</time>
      </trkpt>
      <trkpt lat="44.86595" lon="0.61745">
        <ele>120</ele>
        <time>2023-08-06T08:17:53Z</time>
      </trkpt>
      <trkpt lat="44.8659" lon="0.61747">
        <ele>119.8</ele>
        <time>2023-08-06T08:17:54Z</time>
      </trkpt>
      <trkpt lat="44.86579" lon="0.61751">
        <ele>119.4</ele>
        <time>2023-08-06T08:17:56Z</time>
      </trkpt>
      <trkpt lat="44.86569" lon="0.61755">
        <ele>119.1</ele>
        <time>2023-08-06T08:17:58Z</time>
      </trkpt>
      <trkpt lat="44.86564" lon="0.61756">
        <ele>118.9</ele>
        <time>2023-08-06T08:17:59Z</time>
      </trkpt>
      <trkpt lat="44.86559" lon="0.61758">
        <ele>118.8</ele>
        <time>2023-08-06T08:18:00Z</time>
      </trkpt>
      <trkpt lat="44.86548" lon="0.61763">
        <ele>118.5</ele>
        <time>2023-08-06T08:18:02Z</time>
      </trkpt>
      <trkpt lat="44.86538" lon="0.61767">
        <ele>118.2</ele>
        <time>2023-08-06T08:18:04Z</time>
      </trkpt>
      <trkpt lat="44.86532" lon="0.61769">
        <ele>118.1</ele>
        <time>2023-08-06T08:18:05Z</time>
      </trkpt>
      <trkpt lat="44.86527" lon="0.61772">
        <ele>118</ele>
        <time>2023-08-06T08:18:06Z</time>
      </trkpt>
      <trkpt lat="44.86516" lon="0.61776">
        <ele>117.8</ele>
        <time>2023-08-06T08:18:08Z</time>
      </trkpt>
      <trkpt lat="44.86506" lon="0.61782">
        <ele>117.6</ele>
        <time>2023-08-06T08:18:10Z</time>
      </trkpt>
      <trkpt lat="44.86493" lon="0.61788">
        <ele>117.4</ele>
        <time>2023-08-06T08:18:12Z</time>
      </trkpt>
      <trkpt lat="44.86483" lon="0.61796">
        <ele>117.2</ele>
        <time>2023-08-06T08:18:14Z</time>
      </trkpt>
      <trkpt lat="44.86473" lon="0.61806">
        <ele>117</ele>
        <time>2023-08-06T08:18:16Z</time>
      </trkpt>
      <trkpt lat="44.86463" lon="0.61814">
        <ele>116.9</ele>
        <time>2023-08-06T08:18:18Z</time>
      </trkpt>
      <trkpt lat="44.86455" lon="0.61824">
        <ele>116.9</ele>
        <time>2023-08-06T08:18:20Z</time>
      </trkpt>
      <trkpt lat="44.86454" lon="0.61837">
        <ele>117.2</ele>
        <time>2023-08-06T08:18:22Z</time>
      </trkpt>
      <trkpt lat="44.86455" lon="0.61843">
        <ele>117.3</ele>
        <time>2023-08-06T08:18:23Z</time>
      </trkpt>
      <trkpt lat="44.86454" lon="0.61849">
        <ele>117.4</ele>
        <time>2023-08-06T08:18:24Z</time>
      </trkpt>
      <trkpt lat="44.8645" lon="0.61855">
        <ele>117.5</ele>
        <time>2023-08-06T08:18:25Z</time>
      </trkpt>
      <trkpt lat="44.86446" lon="0.6186">
        <ele>117.6</ele>
        <time>2023-08-06T08:18:26Z</time>
      </trkpt>
      <trkpt lat="44.86446" lon="0.61862">
        <ele>117.6</ele>
        <time>2023-08-06T08:18:27Z</time>
      </trkpt>
      <trkpt lat="44.86444" lon="0.61866">
        <ele>117.6</ele>
        <time>2023-08-06T08:18:28Z</time>
      </trkpt>
      <trkpt lat="44.8644" lon="0.61874">
        <ele>117.6</ele>
        <time>2023-08-06T08:18:30Z</time>
      </trkpt>
      <trkpt lat="44.86437" lon="0.61886">
        <ele>117.7</ele>
        <time>2023-08-06T08:18:32Z</time>
      </trkpt>
      <trkpt lat="44.86435" lon="0.61892">
        <ele>117.7</ele>
        <time>2023-08-06T08:18:33Z</time>
      </trkpt>
      <trkpt lat="44.86434" lon="0.61898">
        <ele>117.7</ele>
        <time>2023-08-06T08:18:34Z</time>
      </trkpt>
      <trkpt lat="44.86433" lon="0.61904">
        <ele>117.7</ele>
        <time>2023-08-06T08:18:35Z</time>
      </trkpt>
      <trkpt lat="44.86432" lon="0.6191">
        <ele>117.7</ele>
        <time>2023-08-06T08:18:36Z</time>
      </trkpt>
      <trkpt lat="44.86428" lon="0.61923">
        <ele>117.5</ele>
        <time>2023-08-06T08:18:38Z</time>
      </trkpt>
      <trkpt lat="44.86426" lon="0.6193">
        <ele>117.5</ele>
        <time>2023-08-06T08:18:39Z</time>
      </trkpt>
      <trkpt lat="44.86423" lon="0.61936">
        <ele>117.4</ele>
        <time>2023-08-06T08:18:40Z</time>
      </trkpt>
      <trkpt lat="44.86417" lon="0.6195">
        <ele>117.3</ele>
        <time>2023-08-06T08:18:42Z</time>
      </trkpt>
      <trkpt lat="44.86413" lon="0.61957">
        <ele>117.2</ele>
        <time>2023-08-06T08:18:43Z</time>
      </trkpt>
      <trkpt lat="44.8641" lon="0.61963">
        <ele>117.1</ele>
        <time>2023-08-06T08:18:44Z</time>
      </trkpt>
      <trkpt lat="44.86406" lon="0.61968">
        <ele>117</ele>
        <time>2023-08-06T08:18:45Z</time>
      </trkpt>
      <trkpt lat="44.86402" lon="0.61973">
        <ele>116.9</ele>
        <time>2023-08-06T08:18:46Z</time>
      </trkpt>
      <trkpt lat="44.86392" lon="0.61984">
        <ele>116.8</ele>
        <time>2023-08-06T08:18:48Z</time>
      </trkpt>
      <trkpt lat="44.86386" lon="0.61988">
        <ele>116.8</ele>
        <time>2023-08-06T08:18:49Z</time>
      </trkpt>
      <trkpt lat="44.8638" lon="0.61991">
        <ele>116.7</ele>
        <time>2023-08-06T08:18:50Z</time>
      </trkpt>
      <trkpt lat="44.86373" lon="0.61995">
        <ele>116.6</ele>
        <time>2023-08-06T08:18:52Z</time>
      </trkpt>
      <trkpt lat="44.8637" lon="0.61997">
        <ele>116.6</ele>
        <time>2023-08-06T08:18:53Z</time>
      </trkpt>
      <trkpt lat="44.86366" lon="0.61997">
        <ele>116.5</ele>
        <time>2023-08-06T08:18:54Z</time>
      </trkpt>
      <trkpt lat="44.86364" lon="0.61999">
        <ele>116.5</ele>
        <time>2023-08-06T08:18:55Z</time>
      </trkpt>
      <trkpt lat="44.86361" lon="0.61999">
        <ele>116.4</ele>
        <time>2023-08-06T08:18:56Z</time>
      </trkpt>
      <trkpt lat="44.86358" lon="0.61998">
        <ele>116.4</ele>
        <time>2023-08-06T08:18:57Z</time>
      </trkpt>
      <trkpt lat="44.86356" lon="0.61998">
        <ele>116.4</ele>
        <time>2023-08-06T08:18:58Z</time>
      </trkpt>
      <trkpt lat="44.86349" lon="0.61997">
        <ele>116.3</ele>
        <time>2023-08-06T08:19:00Z</time>
      </trkpt>
      <trkpt lat="44.86341" lon="0.61998">
        <ele>116.3</ele>
        <time>2023-08-06T08:19:02Z</time>
      </trkpt>
      <trkpt lat="44.86334" lon="0.61997">
        <ele>116.2</ele>
        <time>2023-08-06T08:19:04Z</time>
      </trkpt>
      <trkpt lat="44.86333" lon="0.61996">
        <ele>116.2</ele>
        <time>2023-08-06T08:19:05Z</time>
      </trkpt>
      <trkpt lat="44.86332" lon="0.61994">
        <ele>116.3</ele>
        <time>2023-08-06T08:19:06Z</time>
      </trkpt>
      <trkpt lat="44.86333" lon="0.61991">
        <ele>116.3</ele>
        <time>2023-08-06T08:19:07Z</time>
      </trkpt>
      <trkpt lat="44.86334" lon="0.61988">
        <ele>116.3</ele>
        <time>2023-08-06T08:19:08Z</time>
      </trkpt>
      <trkpt lat="44.86336" lon="0.61985">
        <ele>116.4</ele>
        <time>2023-08-06T08:19:09Z</time>
      </trkpt>
      <trkpt lat="44.86337" lon="0.61983">
        <ele>116.4</ele>
        <time>2023-08-06T08:19:10Z</time>
      </trkpt>
      <trkpt lat="44.86338" lon="0.6198">
        <ele>116.5</ele>
        <time>2023-08-06T08:19:11Z</time>
      </trkpt>
      <trkpt lat="44.86338" lon="0.61978">
        <ele>116.6</ele>
        <time>2023-08-06T08:19:12Z</time>
      </trkpt>
      <trkpt lat="44.86339" lon="0.61973">
        <ele>116.6</ele>
        <time>2023-08-06T08:19:14Z</time>
      </trkpt>
      <trkpt lat="44.86337" lon="0.6197">
        <ele>116.6</ele>
        <time>2023-08-06T08:19:15Z</time>
      </trkpt>
      <trkpt lat="44.86335" lon="0.61968">
        <ele>116.7</ele>
        <time>2023-08-06T08:19:16Z</time>
      </trkpt>
      <trkpt lat="44.86334" lon="0.61966">
        <ele>116.7</ele>
        <time>2023-08-06T08:19:17Z</time>
      </trkpt>
      <trkpt lat="44.86332" lon="0.61965">
        <ele>116.7</ele>
        <time>2023-08-06T08:19:18Z</time>
      </trkpt>
      <trkpt lat="44.8633" lon="0.61967">
        <ele>116.7</ele>
        <time>2023-08-06T08:19:19Z</time>
      </trkpt>
      <trkpt lat="44.86327" lon="0.61967">
        <ele>116.7</ele>
        <time>2023-08-06T08:19:20Z</time>
      </trkpt>
      <trkpt lat="44.86322" lon="0.61967">
        <ele>116.7</ele>
        <time>2023-08-06T08:19:22Z</time>
      </trkpt>
      <trkpt lat="44.8632" lon="0.61967">
        <ele>116.7</ele>
        <time>2023-08-06T08:19:23Z</time>
      </trkpt>
      <trkpt lat="44.86318" lon="0.61968">
        <ele>116.7</ele>
        <time>2023-08-06T08:19:24Z</time>
      </trkpt>
      <trkpt lat="44.86313" lon="0.61968">
        <ele>116.7</ele>
        <time>2023-08-06T08:19:26Z</time>
      </trkpt>
      <trkpt lat="44.86311" lon="0.61967">
        <ele>116.8</ele>
        <time>2023-08-06T08:19:27Z</time>
      </trkpt>
      <trkpt lat="44.86311" lon="0.61967">
        <ele>116.8</ele>
        <time>2023-08-06T08:19:28Z</time>
      </trkpt>
      <trkpt lat="44.86305" lon="0.61967">
        <ele>116.8</ele>
        <time>2023-08-06T08:19:30Z</time>
      </trkpt>
      <trkpt lat="44.86303" lon="0.61966">
        <ele>116.8</ele>
        <time>2023-08-06T08:19:31Z</time>
      </trkpt>
      <trkpt lat="44.86302" lon="0.61964">
        <ele>116.9</ele>
        <time>2023-08-06T08:19:32Z</time>
      </trkpt>
      <trkpt lat="44.863" lon="0.61963">
        <ele>116.9</ele>
        <time>2023-08-06T08:19:33Z</time>
      </trkpt>
      <trkpt lat="44.86298" lon="0.61962">
        <ele>117</ele>
        <time>2023-08-06T08:19:34Z</time>
      </trkpt>
      <trkpt lat="44.86295" lon="0.61961">
        <ele>117.1</ele>
        <time>2023-08-06T08:19:35Z</time>
      </trkpt>
      <trkpt lat="44.86291" lon="0.61961">
        <ele>117.2</ele>
        <time>2023-08-06T08:19:36Z</time>
      </trkpt>
      <trkpt lat="44.86287" lon="0.61961">
        <ele>117.3</ele>
        <time>2023-08-06T08:19:37Z</time>
      </trkpt>
      <trkpt lat="44.86284" lon="0.61962">
        <ele>117.3</ele>
        <time>2023-08-06T08:19:38Z</time>
      </trkpt>
      <trkpt lat="44.86281" lon="0.61964">
        <ele>117.3</ele>
        <time>2023-08-06T08:19:39Z</time>
      </trkpt>
      <trkpt lat="44.86279" lon="0.61966">
        <ele>117.3</ele>
        <time>2023-08-06T08:19:40Z</time>
      </trkpt>
      <trkpt lat="44.86277" lon="0.61967">
        <ele>117.3</ele>
        <time>2023-08-06T08:19:41Z</time>
      </trkpt>
      <trkpt lat="44.86274" lon="0.61967">
        <ele>117.4</ele>
        <time>2023-08-06T08:19:42Z</time>
      </trkpt>
      <trkpt lat="44.86272" lon="0.61969">
        <ele>117.4</ele>
        <time>2023-08-06T08:19:43Z</time>
      </trkpt>
      <trkpt lat="44.86272" lon="0.61971">
        <ele>117.3</ele>
        <time>2023-08-06T08:19:44Z</time>
      </trkpt>
      <trkpt lat="44.86273" lon="0.61972">
        <ele>117.3</ele>
        <time>2023-08-06T08:19:45Z</time>
      </trkpt>
      <trkpt lat="44.86275" lon="0.61974">
        <ele>117.1</ele>
        <time>2023-08-06T08:19:46Z</time>
      </trkpt>
      <trkpt lat="44.86276" lon="0.61978">
        <ele>117.1</ele>
        <time>2023-08-06T08:19:47Z</time>
      </trkpt>
      <trkpt lat="44.86276" lon="0.61981">
        <ele>117</ele>
        <time>2023-08-06T08:19:48Z</time>
      </trkpt>
      <trkpt lat="44.86274" lon="0.61984">
        <ele>116.9</ele>
        <time>2023-08-06T08:19:49Z</time>
      </trkpt>
      <trkpt lat="44.86272" lon="0.61985">
        <ele>116.9</ele>
        <time>2023-08-06T08:19:50Z</time>
      </trkpt>
      <trkpt lat="44.86266" lon="0.61986">
        <ele>116.9</ele>
        <time>2023-08-06T08:19:52Z</time>
      </trkpt>
      <trkpt lat="44.86259" lon="0.61988">
        <ele>116.7</ele>
        <time>2023-08-06T08:19:54Z</time>
      </trkpt>
      <trkpt lat="44.86257" lon="0.61994">
        <ele>116.5</ele>
        <time>2023-08-06T08:19:56Z</time>
      </trkpt>
      <trkpt lat="44.86255" lon="0.62003">
        <ele>116.1</ele>
        <time>2023-08-06T08:19:58Z</time>
      </trkpt>
      <trkpt lat="44.86252" lon="0.62006">
        <ele>115.8</ele>
        <time>2023-08-06T08:19:59Z</time>
      </trkpt>
      <trkpt lat="44.86248" lon="0.62008">
        <ele>115.7</ele>
        <time>2023-08-06T08:20:00Z</time>
      </trkpt>
      <trkpt lat="44.86246" lon="0.62014">
        <ele>115.1</ele>
        <time>2023-08-06T08:20:02Z</time>
      </trkpt>
      <trkpt lat="44.86247" lon="0.62017">
        <ele>115.3</ele>
        <time>2023-08-06T08:20:03Z</time>
      </trkpt>
      <trkpt lat="44.8625" lon="0.62021">
        <ele>115.1</ele>
        <time>2023-08-06T08:20:04Z</time>
      </trkpt>
      <trkpt lat="44.86251" lon="0.62026">
        <ele>114.8</ele>
        <time>2023-08-06T08:20:05Z</time>
      </trkpt>
      <trkpt lat="44.86252" lon="0.62033">
        <ele>114.7</ele>
        <time>2023-08-06T08:20:06Z</time>
      </trkpt>
      <trkpt lat="44.86253" lon="0.62039">
        <ele>114.4</ele>
        <time>2023-08-06T08:20:07Z</time>
      </trkpt>
      <trkpt lat="44.86254" lon="0.62046">
        <ele>114.4</ele>
        <time>2023-08-06T08:20:08Z</time>
      </trkpt>
      <trkpt lat="44.86254" lon="0.62059">
        <ele>114</ele>
        <time>2023-08-06T08:20:10Z</time>
      </trkpt>
      <trkpt lat="44.86252" lon="0.62064">
        <ele>113.8</ele>
        <time>2023-08-06T08:20:11Z</time>
      </trkpt>
      <trkpt lat="44.86251" lon="0.62067">
        <ele>113.7</ele>
        <time>2023-08-06T08:20:12Z</time>
      </trkpt>
      <trkpt lat="44.8625" lon="0.62075">
        <ele>113.3</ele>
        <time>2023-08-06T08:20:14Z</time>
      </trkpt>
      <trkpt lat="44.8625" lon="0.62079">
        <ele>113.3</ele>
        <time>2023-08-06T08:20:15Z</time>
      </trkpt>
      <trkpt lat="44.86251" lon="0.62081">
        <ele>113.2</ele>
        <time>2023-08-06T08:20:16Z</time>
      </trkpt>
      <trkpt lat="44.86251" lon="0.62087">
        <ele>113</ele>
        <time>2023-08-06T08:20:17Z</time>
      </trkpt>
      <trkpt lat="44.86252" lon="0.62092">
        <ele>112.8</ele>
        <time>2023-08-06T08:20:18Z</time>
      </trkpt>
      <trkpt lat="44.86253" lon="0.62095">
        <ele>112.7</ele>
        <time>2023-08-06T08:20:19Z</time>
      </trkpt>
      <trkpt lat="44.86253" lon="0.621">
        <ele>112.7</ele>
        <time>2023-08-06T08:20:20Z</time>
      </trkpt>
      <trkpt lat="44.86253" lon="0.62106">
        <ele>112.3</ele>
        <time>2023-08-06T08:20:22Z</time>
      </trkpt>
      <trkpt lat="44.86253" lon="0.62106">
        <ele>112.3</ele>
        <time>2023-08-06T08:20:23Z</time>
      </trkpt>
      <trkpt lat="44.86256" lon="0.62111">
        <ele>112.2</ele>
        <time>2023-08-06T08:20:24Z</time>
      </trkpt>
      <trkpt lat="44.8626" lon="0.62115">
        <ele>112.7</ele>
        <time>2023-08-06T08:20:25Z</time>
      </trkpt>
      <trkpt lat="44.86263" lon="0.62118">
        <ele>112.8</ele>
        <time>2023-08-06T08:20:26Z</time>
      </trkpt>
      <trkpt lat="44.86267" lon="0.62125">
        <ele>112.8</ele>
        <time>2023-08-06T08:20:28Z</time>
      </trkpt>
      <trkpt lat="44.8627" lon="0.62133">
        <ele>113</ele>
        <time>2023-08-06T08:20:30Z</time>
      </trkpt>
      <trkpt lat="44.86274" lon="0.62142">
        <ele>113.1</ele>
        <time>2023-08-06T08:20:32Z</time>
      </trkpt>
      <trkpt lat="44.86273" lon="0.6215">
        <ele>113.1</ele>
        <time>2023-08-06T08:20:34Z</time>
      </trkpt>
      <trkpt lat="44.86271" lon="0.62155">
        <ele>113</ele>
        <time>2023-08-06T08:20:35Z</time>
      </trkpt>
      <trkpt lat="44.86268" lon="0.62159">
        <ele>112.9</ele>
        <time>2023-08-06T08:20:36Z</time>
      </trkpt>
      <trkpt lat="44.86264" lon="0.62163">
        <ele>112.7</ele>
        <time>2023-08-06T08:20:37Z</time>
      </trkpt>
      <trkpt lat="44.86264" lon="0.62168">
        <ele>112.6</ele>
        <time>2023-08-06T08:20:38Z</time>
      </trkpt>
      <trkpt lat="44.86263" lon="0.62173">
        <ele>112.5</ele>
        <time>2023-08-06T08:20:39Z</time>
      </trkpt>
      <trkpt lat="44.86261" lon="0.62177">
        <ele>112.4</ele>
        <time>2023-08-06T08:20:40Z</time>
      </trkpt>
      <trkpt lat="44.86257" lon="0.62183">
        <ele>112.2</ele>
        <time>2023-08-06T08:20:41Z</time>
      </trkpt>
      <trkpt lat="44.86255" lon="0.62189">
        <ele>112.1</ele>
        <time>2023-08-06T08:20:42Z</time>
      </trkpt>
      <trkpt lat="44.86252" lon="0.62195">
        <ele>112</ele>
        <time>2023-08-06T08:20:43Z</time>
      </trkpt>
      <trkpt lat="44.8625" lon="0.62201">
        <ele>111.9</ele>
        <time>2023-08-06T08:20:44Z</time>
      </trkpt>
      <trkpt lat="44.86246" lon="0.62213">
        <ele>111.7</ele>
        <time>2023-08-06T08:20:46Z</time>
      </trkpt>
      <trkpt lat="44.86247" lon="0.62219">
        <ele>111.7</ele>
        <time>2023-08-06T08:20:47Z</time>
      </trkpt>
      <trkpt lat="44.86247" lon="0.62225">
        <ele>111.7</ele>
        <time>2023-08-06T08:20:48Z</time>
      </trkpt>
      <trkpt lat="44.86248" lon="0.62232">
        <ele>111.7</ele>
        <time>2023-08-06T08:20:49Z</time>
      </trkpt>
      <trkpt lat="44.86248" lon="0.62238">
        <ele>111.7</ele>
        <time>2023-08-06T08:20:50Z</time>
      </trkpt>
      <trkpt lat="44.86248" lon="0.62251">
        <ele>111.7</ele>
        <time>2023-08-06T08:20:52Z</time>
      </trkpt>
      <trkpt lat="44.8625" lon="0.62262">
        <ele>111.8</ele>
        <time>2023-08-06T08:20:54Z</time>
      </trkpt>
      <trkpt lat="44.86249" lon="0.62273">
        <ele>111.9</ele>
        <time>2023-08-06T08:20:56Z</time>
      </trkpt>
      <trkpt lat="44.86248" lon="0.62279">
        <ele>112</ele>
        <time>2023-08-06T08:20:57Z</time>
      </trkpt>
      <trkpt lat="44.86248" lon="0.62285">
        <ele>112</ele>
        <time>2023-08-06T08:20:58Z</time>
      </trkpt>
      <trkpt lat="44.86253" lon="0.62295">
        <ele>112.1</ele>
        <time>2023-08-06T08:21:00Z</time>
      </trkpt>
      <trkpt lat="44.86254" lon="0.623">
        <ele>112.2</ele>
        <time>2023-08-06T08:21:01Z</time>
      </trkpt>
      <trkpt lat="44.86254" lon="0.62305">
        <ele>112.3</ele>
        <time>2023-08-06T08:21:02Z</time>
      </trkpt>
      <trkpt lat="44.86255" lon="0.6231">
        <ele>112.4</ele>
        <time>2023-08-06T08:21:03Z</time>
      </trkpt>
      <trkpt lat="44.86257" lon="0.62314">
        <ele>112.5</ele>
        <time>2023-08-06T08:21:04Z</time>
      </trkpt>
      <trkpt lat="44.86259" lon="0.62319">
        <ele>112.6</ele>
        <time>2023-08-06T08:21:05Z</time>
      </trkpt>
      <trkpt lat="44.86258" lon="0.62323">
        <ele>112.7</ele>
        <time>2023-08-06T08:21:06Z</time>
      </trkpt>
      <trkpt lat="44.86256" lon="0.62331">
        <ele>112.9</ele>
        <time>2023-08-06T08:21:08Z</time>
      </trkpt>
      <trkpt lat="44.86255" lon="0.62336">
        <ele>113</ele>
        <time>2023-08-06T08:21:09Z</time>
      </trkpt>
      <trkpt lat="44.86257" lon="0.62342">
        <ele>113.1</ele>
        <time>2023-08-06T08:21:10Z</time>
      </trkpt>
      <trkpt lat="44.86259" lon="0.62351">
        <ele>113.2</ele>
        <time>2023-08-06T08:21:12Z</time>
      </trkpt>
      <trkpt lat="44.86259" lon="0.62355">
        <ele>113.3</ele>
        <time>2023-08-06T08:21:13Z</time>
      </trkpt>
      <trkpt lat="44.8626" lon="0.6236">
        <ele>113.3</ele>
        <time>2023-08-06T08:21:14Z</time>
      </trkpt>
      <trkpt lat="44.86261" lon="0.62369">
        <ele>113.3</ele>
        <time>2023-08-06T08:21:16Z</time>
      </trkpt>
      <trkpt lat="44.86262" lon="0.62373">
        <ele>113.3</ele>
        <time>2023-08-06T08:21:17Z</time>
      </trkpt>
      <trkpt lat="44.86264" lon="0.62378">
        <ele>113.3</ele>
        <time>2023-08-06T08:21:18Z</time>
      </trkpt>
      <trkpt lat="44.86268" lon="0.62389">
        <ele>113.1</ele>
        <time>2023-08-06T08:21:20Z</time>
      </trkpt>
      <trkpt lat="44.86267" lon="0.62393">
        <ele>113</ele>
        <time>2023-08-06T08:21:21Z</time>
      </trkpt>
      <trkpt lat="44.86264" lon="0.62398">
        <ele>112.9</ele>
        <time>2023-08-06T08:21:22Z</time>
      </trkpt>
      <trkpt lat="44.86262" lon="0.62403">
        <ele>112.7</ele>
        <time>2023-08-06T08:21:23Z</time>
      </trkpt>
      <trkpt lat="44.86259" lon="0.62406">
        <ele>112.4</ele>
        <time>2023-08-06T08:21:24Z</time>
      </trkpt>
      <trkpt lat="44.86257" lon="0.62405">
        <ele>112.2</ele>
        <time>2023-08-06T08:21:25Z</time>
      </trkpt>
      <trkpt lat="44.86257" lon="0.62404">
        <ele>112.2</ele>
        <time>2023-08-06T08:21:26Z</time>
      </trkpt>
      <trkpt lat="44.86256" lon="0.62403">
        <ele>112</ele>
        <time>2023-08-06T08:21:27Z</time>
      </trkpt>
      <trkpt lat="44.86253" lon="0.62404">
        <ele>111.9</ele>
        <time>2023-08-06T08:21:28Z</time>
      </trkpt>
      <trkpt lat="44.8625" lon="0.62406">
        <ele>111.7</ele>
        <time>2023-08-06T08:21:29Z</time>
      </trkpt>
      <trkpt lat="44.86245" lon="0.62408">
        <ele>111.1</ele>
        <time>2023-08-06T08:21:30Z</time>
      </trkpt>
      <trkpt lat="44.8624" lon="0.62411">
        <ele>110.6</ele>
        <time>2023-08-06T08:21:31Z</time>
      </trkpt>
      <trkpt lat="44.86237" lon="0.62415">
        <ele>110.3</ele>
        <time>2023-08-06T08:21:32Z</time>
      </trkpt>
      <trkpt lat="44.86233" lon="0.62419">
        <ele>109.9</ele>
        <time>2023-08-06T08:21:33Z</time>
      </trkpt>
      <trkpt lat="44.86231" lon="0.62424">
        <ele>109.5</ele>
        <time>2023-08-06T08:21:34Z</time>
      </trkpt>
      <trkpt lat="44.86227" lon="0.62429">
        <ele>109</ele>
        <time>2023-08-06T08:21:35Z</time>
      </trkpt>
      <trkpt lat="44.86223" lon="0.62435">
        <ele>108.5</ele>
        <time>2023-08-06T08:21:36Z</time>
      </trkpt>
      <trkpt lat="44.86221" lon="0.62442">
        <ele>108.1</ele>
        <time>2023-08-06T08:21:37Z</time>
      </trkpt>
      <trkpt lat="44.86219" lon="0.62448">
        <ele>107.4</ele>
        <time>2023-08-06T08:21:38Z</time>
      </trkpt>
      <trkpt lat="44.86219" lon="0.6246">
        <ele>106.9</ele>
        <time>2023-08-06T08:21:40Z</time>
      </trkpt>
      <trkpt lat="44.86223" lon="0.62474">
        <ele>106.9</ele>
        <time>2023-08-06T08:21:42Z</time>
      </trkpt>
      <trkpt lat="44.86225" lon="0.62482">
        <ele>106.4</ele>
        <time>2023-08-06T08:21:43Z</time>
      </trkpt>
      <trkpt lat="44.86223" lon="0.6249">
        <ele>105.8</ele>
        <time>2023-08-06T08:21:44Z</time>
      </trkpt>
      <trkpt lat="44.86221" lon="0.62499">
        <ele>104.8</ele>
        <time>2023-08-06T08:21:46Z</time>
      </trkpt>
      <trkpt lat="44.8622" lon="0.62506">
        <ele>104.4</ele>
        <time>2023-08-06T08:21:48Z</time>
      </trkpt>
      <trkpt lat="44.86219" lon="0.62508">
        <ele>103.7</ele>
        <time>2023-08-06T08:21:49Z</time>
      </trkpt>
      <trkpt lat="44.8622" lon="0.62511">
        <ele>103.5</ele>
        <time>2023-08-06T08:21:50Z</time>
      </trkpt>
      <trkpt lat="44.86222" lon="0.6252">
        <ele>102.7</ele>
        <time>2023-08-06T08:21:52Z</time>
      </trkpt>
      <trkpt lat="44.86224" lon="0.62524">
        <ele>102.5</ele>
        <time>2023-08-06T08:21:53Z</time>
      </trkpt>
      <trkpt lat="44.86224" lon="0.62526">
        <ele>102.4</ele>
        <time>2023-08-06T08:21:54Z</time>
      </trkpt>
      <trkpt lat="44.86228" lon="0.62537">
        <ele>101.4</ele>
        <time>2023-08-06T08:21:56Z</time>
      </trkpt>
      <trkpt lat="44.8623" lon="0.6254">
        <ele>101.5</ele>
        <time>2023-08-06T08:21:57Z</time>
      </trkpt>
      <trkpt lat="44.86231" lon="0.62543">
        <ele>101</ele>
        <time>2023-08-06T08:21:58Z</time>
      </trkpt>
      <trkpt lat="44.86233" lon="0.62546">
        <ele>100.6</ele>
        <time>2023-08-06T08:21:59Z</time>
      </trkpt>
      <trkpt lat="44.86235" lon="0.62548">
        <ele>100.8</ele>
        <time>2023-08-06T08:22:00Z</time>
      </trkpt>
      <trkpt lat="44.86238" lon="0.62551">
        <ele>100.2</ele>
        <time>2023-08-06T08:22:01Z</time>
      </trkpt>
      <trkpt lat="44.86239" lon="0.62554">
        <ele>99.7</ele>
        <time>2023-08-06T08:22:02Z</time>
      </trkpt>
      <trkpt lat="44.86241" lon="0.62556">
        <ele>99.7</ele>
        <time>2023-08-06T08:22:03Z</time>
      </trkpt>
      <trkpt lat="44.86244" lon="0.62557">
        <ele>99.9</ele>
        <time>2023-08-06T08:22:04Z</time>
      </trkpt>
      <trkpt lat="44.86249" lon="0.62553">
        <ele>100.5</ele>
        <time>2023-08-06T08:22:06Z</time>
      </trkpt>
      <trkpt lat="44.86252" lon="0.6255">
        <ele>100.5</ele>
        <time>2023-08-06T08:22:08Z</time>
      </trkpt>
      <trkpt lat="44.86253" lon="0.62549">
        <ele>101</ele>
        <time>2023-08-06T08:22:09Z</time>
      </trkpt>
      <trkpt lat="44.86253" lon="0.62547">
        <ele>101</ele>
        <time>2023-08-06T08:22:10Z</time>
      </trkpt>
      <trkpt lat="44.86257" lon="0.62544">
        <ele>101.5</ele>
        <time>2023-08-06T08:22:12Z</time>
      </trkpt>
      <trkpt lat="44.86258" lon="0.62544">
        <ele>101.5</ele>
        <time>2023-08-06T08:22:13Z</time>
      </trkpt>
      <trkpt lat="44.86261" lon="0.62544">
        <ele>101.5</ele>
        <time>2023-08-06T08:22:14Z</time>
      </trkpt>
      <trkpt lat="44.86265" lon="0.62542">
        <ele>101.4</ele>
        <time>2023-08-06T08:22:16Z</time>
      </trkpt>
      <trkpt lat="44.86269" lon="0.62541">
        <ele>101.3</ele>
        <time>2023-08-06T08:22:18Z</time>
      </trkpt>
      <trkpt lat="44.86274" lon="0.62544">
        <ele>101.2</ele>
        <time>2023-08-06T08:22:20Z</time>
      </trkpt>
      <trkpt lat="44.86276" lon="0.62547">
        <ele>100.6</ele>
        <time>2023-08-06T08:22:21Z</time>
      </trkpt>
      <trkpt lat="44.86277" lon="0.62551">
        <ele>100</ele>
        <time>2023-08-06T08:22:22Z</time>
      </trkpt>
      <trkpt lat="44.86279" lon="0.62555">
        <ele>99.3</ele>
        <time>2023-08-06T08:22:23Z</time>
      </trkpt>
      <trkpt lat="44.86283" lon="0.62561">
        <ele>98.5</ele>
        <time>2023-08-06T08:22:24Z</time>
      </trkpt>
      <trkpt lat="44.86285" lon="0.62567">
        <ele>97.2</ele>
        <time>2023-08-06T08:22:25Z</time>
      </trkpt>
      <trkpt lat="44.86285" lon="0.62573">
        <ele>96.5</ele>
        <time>2023-08-06T08:22:26Z</time>
      </trkpt>
      <trkpt lat="44.86283" lon="0.62579">
        <ele>96</ele>
        <time>2023-08-06T08:22:27Z</time>
      </trkpt>
      <trkpt lat="44.86281" lon="0.62583">
        <ele>95.3</ele>
        <time>2023-08-06T08:22:28Z</time>
      </trkpt>
      <trkpt lat="44.86282" lon="0.62587">
        <ele>94.5</ele>
        <time>2023-08-06T08:22:29Z</time>
      </trkpt>
      <trkpt lat="44.86283" lon="0.62591">
        <ele>93.7</ele>
        <time>2023-08-06T08:22:30Z</time>
      </trkpt>
      <trkpt lat="44.86285" lon="0.62593">
        <ele>92.7</ele>
        <time>2023-08-06T08:22:31Z</time>
      </trkpt>
      <trkpt lat="44.86287" lon="0.62595">
        <ele>92.6</ele>
        <time>2023-08-06T08:22:32Z</time>
      </trkpt>
      <trkpt lat="44.86287" lon="0.62595">
        <ele>92.6</ele>
        <time>2023-08-06T08:22:33Z</time>
      </trkpt>
      <trkpt lat="44.86284" lon="0.62598">
        <ele>91.8</ele>
        <time>2023-08-06T08:22:34Z</time>
      </trkpt>
      <trkpt lat="44.86282" lon="0.62602">
        <ele>91</ele>
        <time>2023-08-06T08:22:35Z</time>
      </trkpt>
      <trkpt lat="44.86279" lon="0.62607">
        <ele>90.2</ele>
        <time>2023-08-06T08:22:36Z</time>
      </trkpt>
      <trkpt lat="44.86276" lon="0.62616">
        <ele>88.8</ele>
        <time>2023-08-06T08:22:37Z</time>
      </trkpt>
      <trkpt lat="44.86273" lon="0.62621">
        <ele>88.3</ele>
        <time>2023-08-06T08:22:38Z</time>
      </trkpt>
      <trkpt lat="44.86272" lon="0.62626">
        <ele>87.2</ele>
        <time>2023-08-06T08:22:39Z</time>
      </trkpt>
      <trkpt lat="44.86273" lon="0.6263">
        <ele>86.6</ele>
        <time>2023-08-06T08:22:40Z</time>
      </trkpt>
      <trkpt lat="44.86271" lon="0.6264">
        <ele>85.1</ele>
        <time>2023-08-06T08:22:42Z</time>
      </trkpt>
      <trkpt lat="44.86269" lon="0.62645">
        <ele>84.8</ele>
        <time>2023-08-06T08:22:43Z</time>
      </trkpt>
      <trkpt lat="44.86267" lon="0.62649">
        <ele>84.6</ele>
        <time>2023-08-06T08:22:44Z</time>
      </trkpt>
      <trkpt lat="44.86265" lon="0.62658">
        <ele>84.3</ele>
        <time>2023-08-06T08:22:46Z</time>
      </trkpt>
      <trkpt lat="44.86264" lon="0.62662">
        <ele>84.2</ele>
        <time>2023-08-06T08:22:47Z</time>
      </trkpt>
      <trkpt lat="44.86263" lon="0.62665">
        <ele>84.2</ele>
        <time>2023-08-06T08:22:48Z</time>
      </trkpt>
      <trkpt lat="44.86262" lon="0.62669">
        <ele>84.2</ele>
        <time>2023-08-06T08:22:49Z</time>
      </trkpt>
      <trkpt lat="44.86262" lon="0.62672">
        <ele>84.1</ele>
        <time>2023-08-06T08:22:50Z</time>
      </trkpt>
      <trkpt lat="44.86262" lon="0.62676">
        <ele>84.1</ele>
        <time>2023-08-06T08:22:51Z</time>
      </trkpt>
      <trkpt lat="44.86262" lon="0.62681">
        <ele>84.1</ele>
        <time>2023-08-06T08:22:52Z</time>
      </trkpt>
      <trkpt lat="44.86272" lon="0.62689">
        <ele>84.2</ele>
        <time>2023-08-06T08:22:54Z</time>
      </trkpt>
      <trkpt lat="44.86275" lon="0.6269">
        <ele>84.1</ele>
        <time>2023-08-06T08:22:55Z</time>
      </trkpt>
      <trkpt lat="44.8628" lon="0.62693">
        <ele>84.1</ele>
        <time>2023-08-06T08:22:56Z</time>
      </trkpt>
      <trkpt lat="44.86288" lon="0.62701">
        <ele>84.1</ele>
        <time>2023-08-06T08:22:58Z</time>
      </trkpt>
      <trkpt lat="44.86295" lon="0.62702">
        <ele>83.8</ele>
        <time>2023-08-06T08:23:00Z</time>
      </trkpt>
      <trkpt lat="44.86297" lon="0.62702">
        <ele>83.8</ele>
        <time>2023-08-06T08:23:01Z</time>
      </trkpt>
      <trkpt lat="44.863" lon="0.627">
        <ele>83.7</ele>
        <time>2023-08-06T08:23:02Z</time>
      </trkpt>
      <trkpt lat="44.86305" lon="0.62696">
        <ele>83.5</ele>
        <time>2023-08-06T08:23:04Z</time>
      </trkpt>
      <trkpt lat="44.86309" lon="0.62694">
        <ele>83.4</ele>
        <time>2023-08-06T08:23:05Z</time>
      </trkpt>
      <trkpt lat="44.86313" lon="0.62692">
        <ele>83.2</ele>
        <time>2023-08-06T08:23:06Z</time>
      </trkpt>
      <trkpt lat="44.86319" lon="0.62689">
        <ele>83.1</ele>
        <time>2023-08-06T08:23:08Z</time>
      </trkpt>
      <trkpt lat="44.86321" lon="0.62688">
        <ele>83</ele>
        <time>2023-08-06T08:23:09Z</time>
      </trkpt>
      <trkpt lat="44.86324" lon="0.62686">
        <ele>82.9</ele>
        <time>2023-08-06T08:23:10Z</time>
      </trkpt>
      <trkpt lat="44.86327" lon="0.62684">
        <ele>82.9</ele>
        <time>2023-08-06T08:23:11Z</time>
      </trkpt>
      <trkpt lat="44.8633" lon="0.62682">
        <ele>82.8</ele>
        <time>2023-08-06T08:23:12Z</time>
      </trkpt>
      <trkpt lat="44.86333" lon="0.62681">
        <ele>82.8</ele>
        <time>2023-08-06T08:23:13Z</time>
      </trkpt>
      <trkpt lat="44.86336" lon="0.62679">
        <ele>82.7</ele>
        <time>2023-08-06T08:23:14Z</time>
      </trkpt>
      <trkpt lat="44.86344" lon="0.62675">
        <ele>82.7</ele>
        <time>2023-08-06T08:23:16Z</time>
      </trkpt>
      <trkpt lat="44.86353" lon="0.62669">
        <ele>82.9</ele>
        <time>2023-08-06T08:23:18Z</time>
      </trkpt>
      <trkpt lat="44.86359" lon="0.62665">
        <ele>83.1</ele>
        <time>2023-08-06T08:23:19Z</time>
      </trkpt>
      <trkpt lat="44.86364" lon="0.62662">
        <ele>83.2</ele>
        <time>2023-08-06T08:23:20Z</time>
      </trkpt>
      <trkpt lat="44.86368" lon="0.62658">
        <ele>83.3</ele>
        <time>2023-08-06T08:23:21Z</time>
      </trkpt>
      <trkpt lat="44.86371" lon="0.62655">
        <ele>83.4</ele>
        <time>2023-08-06T08:23:22Z</time>
      </trkpt>
      <trkpt lat="44.86372" lon="0.62651">
        <ele>83.5</ele>
        <time>2023-08-06T08:23:23Z</time>
      </trkpt>
      <trkpt lat="44.86375" lon="0.62647">
        <ele>83.7</ele>
        <time>2023-08-06T08:23:24Z</time>
      </trkpt>
      <trkpt lat="44.86378" lon="0.62643">
        <ele>83.8</ele>
        <time>2023-08-06T08:23:25Z</time>
      </trkpt>
      <trkpt lat="44.86382" lon="0.62639">
        <ele>84</ele>
        <time>2023-08-06T08:23:26Z</time>
      </trkpt>
      <trkpt lat="44.86385" lon="0.62635">
        <ele>84.1</ele>
        <time>2023-08-06T08:23:27Z</time>
      </trkpt>
      <trkpt lat="44.86388" lon="0.6263">
        <ele>84.2</ele>
        <time>2023-08-06T08:23:28Z</time>
      </trkpt>
      <trkpt lat="44.8639" lon="0.62625">
        <ele>84.4</ele>
        <time>2023-08-06T08:23:29Z</time>
      </trkpt>
      <trkpt lat="44.86392" lon="0.6262">
        <ele>84.5</ele>
        <time>2023-08-06T08:23:30Z</time>
      </trkpt>
      <trkpt lat="44.86394" lon="0.62616">
        <ele>84.6</ele>
        <time>2023-08-06T08:23:31Z</time>
      </trkpt>
      <trkpt lat="44.86397" lon="0.62612">
        <ele>84.7</ele>
        <time>2023-08-06T08:23:32Z</time>
      </trkpt>
      <trkpt lat="44.86399" lon="0.62607">
        <ele>84.8</ele>
        <time>2023-08-06T08:23:33Z</time>
      </trkpt>
      <trkpt lat="44.86402" lon="0.62603">
        <ele>85</ele>
        <time>2023-08-06T08:23:34Z</time>
      </trkpt>
      <trkpt lat="44.86404" lon="0.62599">
        <ele>85.1</ele>
        <time>2023-08-06T08:23:35Z</time>
      </trkpt>
      <trkpt lat="44.86407" lon="0.62594">
        <ele>85.3</ele>
        <time>2023-08-06T08:23:36Z</time>
      </trkpt>
      <trkpt lat="44.86412" lon="0.62586">
        <ele>85.6</ele>
        <time>2023-08-06T08:23:38Z</time>
      </trkpt>
      <trkpt lat="44.86415" lon="0.62582">
        <ele>85.7</ele>
        <time>2023-08-06T08:23:39Z</time>
      </trkpt>
      <trkpt lat="44.86417" lon="0.62578">
        <ele>85.9</ele>
        <time>2023-08-06T08:23:40Z</time>
      </trkpt>
      <trkpt lat="44.8642" lon="0.62575">
        <ele>86</ele>
        <time>2023-08-06T08:23:41Z</time>
      </trkpt>
      <trkpt lat="44.86422" lon="0.62571">
        <ele>86.1</ele>
        <time>2023-08-06T08:23:42Z</time>
      </trkpt>
      <trkpt lat="44.86425" lon="0.62564">
        <ele>86.4</ele>
        <time>2023-08-06T08:23:44Z</time>
      </trkpt>
      <trkpt lat="44.86428" lon="0.62558">
        <ele>86.6</ele>
        <time>2023-08-06T08:23:46Z</time>
      </trkpt>
      <trkpt lat="44.8643" lon="0.62556">
        <ele>86.8</ele>
        <time>2023-08-06T08:23:47Z</time>
      </trkpt>
      <trkpt lat="44.86433" lon="0.62554">
        <ele>86.9</ele>
        <time>2023-08-06T08:23:48Z</time>
      </trkpt>
      <trkpt lat="44.86436" lon="0.62551">
        <ele>87.1</ele>
        <time>2023-08-06T08:23:50Z</time>
      </trkpt>
      <trkpt lat="44.86436" lon="0.62551">
        <ele>87.1</ele>
        <time>2023-08-06T08:23:51Z</time>
      </trkpt>
      <trkpt lat="44.86455" lon="0.62545">
        <ele>87.7</ele>
        <time>2023-08-06T08:24:10Z</time>
      </trkpt>
      <trkpt lat="44.86455" lon="0.62548">
        <ele>87.7</ele>
        <time>2023-08-06T08:24:11Z</time>
      </trkpt>
      <trkpt lat="44.86455" lon="0.6255">
        <ele>87.7</ele>
        <time>2023-08-06T08:24:12Z</time>
      </trkpt>
      <trkpt lat="44.86454" lon="0.62551">
        <ele>87.7</ele>
        <time>2023-08-06T08:24:13Z</time>
      </trkpt>
      <trkpt lat="44.86454" lon="0.62552">
        <ele>87.6</ele>
        <time>2023-08-06T08:24:14Z</time>
      </trkpt>
      <trkpt lat="44.86453" lon="0.62553">
        <ele>87.5</ele>
        <time>2023-08-06T08:24:15Z</time>
      </trkpt>
      <trkpt lat="44.86453" lon="0.62553">
        <ele>87.5</ele>
        <time>2023-08-06T08:24:16Z</time>
      </trkpt>
      <trkpt lat="44.86453" lon="0.62553">
        <ele>87.4</ele>
        <time>2023-08-06T08:24:17Z</time>
      </trkpt>
      <trkpt lat="44.86448" lon="0.6256">
        <ele>87.3</ele>
        <time>2023-08-06T08:24:33Z</time>
      </trkpt>
      <trkpt lat="44.86446" lon="0.62561">
        <ele>87.3</ele>
        <time>2023-08-06T08:24:34Z</time>
      </trkpt>
      <trkpt lat="44.86442" lon="0.62564">
        <ele>87</ele>
        <time>2023-08-06T08:24:36Z</time>
      </trkpt>
      <trkpt lat="44.86439" lon="0.62568">
        <ele>87</ele>
        <time>2023-08-06T08:24:38Z</time>
      </trkpt>
      <trkpt lat="44.86437" lon="0.62574">
        <ele>86.7</ele>
        <time>2023-08-06T08:24:40Z</time>
      </trkpt>
      <trkpt lat="44.86435" lon="0.62578">
        <ele>86.5</ele>
        <time>2023-08-06T08:24:42Z</time>
      </trkpt>
      <trkpt lat="44.86433" lon="0.62581">
        <ele>86.4</ele>
        <time>2023-08-06T08:24:44Z</time>
      </trkpt>
      <trkpt lat="44.86431" lon="0.62585">
        <ele>86.1</ele>
        <time>2023-08-06T08:24:46Z</time>
      </trkpt>
      <trkpt lat="44.8643" lon="0.62589">
        <ele>86</ele>
        <time>2023-08-06T08:24:48Z</time>
      </trkpt>
      <trkpt lat="44.8643" lon="0.62593">
        <ele>85.8</ele>
        <time>2023-08-06T08:24:50Z</time>
      </trkpt>
      <trkpt lat="44.86428" lon="0.62598">
        <ele>85.8</ele>
        <time>2023-08-06T08:24:52Z</time>
      </trkpt>
      <trkpt lat="44.86427" lon="0.62601">
        <ele>85.7</ele>
        <time>2023-08-06T08:24:53Z</time>
      </trkpt>
      <trkpt lat="44.86426" lon="0.62603">
        <ele>85.6</ele>
        <time>2023-08-06T08:24:54Z</time>
      </trkpt>
      <trkpt lat="44.86424" lon="0.62608">
        <ele>85.6</ele>
        <time>2023-08-06T08:24:56Z</time>
      </trkpt>
      <trkpt lat="44.86422" lon="0.62612">
        <ele>85.4</ele>
        <time>2023-08-06T08:24:58Z</time>
      </trkpt>
      <trkpt lat="44.8642" lon="0.62617">
        <ele>85.3</ele>
        <time>2023-08-06T08:25:00Z</time>
      </trkpt>
      <trkpt lat="44.8642" lon="0.6262">
        <ele>85.3</ele>
        <time>2023-08-06T08:25:01Z</time>
      </trkpt>
      <trkpt lat="44.86421" lon="0.62624">
        <ele>86</ele>
        <time>2023-08-06T08:25:02Z</time>
      </trkpt>
      <trkpt lat="44.86422" lon="0.62628">
        <ele>86.2</ele>
        <time>2023-08-06T08:25:03Z</time>
      </trkpt>
      <trkpt lat="44.86421" lon="0.62632">
        <ele>86.6</ele>
        <time>2023-08-06T08:25:04Z</time>
      </trkpt>
      <trkpt lat="44.86422" lon="0.62635">
        <ele>86.9</ele>
        <time>2023-08-06T08:25:05Z</time>
      </trkpt>
      <trkpt lat="44.86422" lon="0.62637">
        <ele>86.9</ele>
        <time>2023-08-06T08:25:06Z</time>
      </trkpt>
      <trkpt lat="44.86422" lon="0.62639">
        <ele>86.8</ele>
        <time>2023-08-06T08:25:07Z</time>
      </trkpt>
      <trkpt lat="44.86423" lon="0.62641">
        <ele>87.2</ele>
        <time>2023-08-06T08:25:08Z</time>
      </trkpt>
      <trkpt lat="44.86423" lon="0.62645">
        <ele>87.6</ele>
        <time>2023-08-06T08:25:10Z</time>
      </trkpt>
      <trkpt lat="44.86423" lon="0.62648">
        <ele>87.6</ele>
        <time>2023-08-06T08:25:12Z</time>
      </trkpt>
      <trkpt lat="44.86423" lon="0.62649">
        <ele>88</ele>
        <time>2023-08-06T08:25:13Z</time>
      </trkpt>
      <trkpt lat="44.86422" lon="0.62652">
        <ele>87.9</ele>
        <time>2023-08-06T08:25:14Z</time>
      </trkpt>
      <trkpt lat="44.86421" lon="0.62655">
        <ele>88.3</ele>
        <time>2023-08-06T08:25:15Z</time>
      </trkpt>
      <trkpt lat="44.8642" lon="0.62658">
        <ele>88</ele>
        <time>2023-08-06T08:25:16Z</time>
      </trkpt>
      <trkpt lat="44.86419" lon="0.62664">
        <ele>88.3</ele>
        <time>2023-08-06T08:25:18Z</time>
      </trkpt>
      <trkpt lat="44.86418" lon="0.6267">
        <ele>89.1</ele>
        <time>2023-08-06T08:25:20Z</time>
      </trkpt>
      <trkpt lat="44.86417" lon="0.62672">
        <ele>89</ele>
        <time>2023-08-06T08:25:21Z</time>
      </trkpt>
      <trkpt lat="44.86416" lon="0.62674">
        <ele>88.6</ele>
        <time>2023-08-06T08:25:22Z</time>
      </trkpt>
      <trkpt lat="44.86414" lon="0.62676">
        <ele>87.8</ele>
        <time>2023-08-06T08:25:23Z</time>
      </trkpt>
      <trkpt lat="44.8641" lon="0.62679">
        <ele>87.3</ele>
        <time>2023-08-06T08:25:24Z</time>
      </trkpt>
      <trkpt lat="44.86405" lon="0.62685">
        <ele>86.3</ele>
        <time>2023-08-06T08:25:26Z</time>
      </trkpt>
      <trkpt lat="44.86403" lon="0.62688">
        <ele>86.7</ele>
        <time>2023-08-06T08:25:27Z</time>
      </trkpt>
      <trkpt lat="44.86402" lon="0.6269">
        <ele>86</ele>
        <time>2023-08-06T08:25:28Z</time>
      </trkpt>
      <trkpt lat="44.864" lon="0.62694">
        <ele>86.3</ele>
        <time>2023-08-06T08:25:30Z</time>
      </trkpt>
      <trkpt lat="44.864" lon="0.62696">
        <ele>86.7</ele>
        <time>2023-08-06T08:25:31Z</time>
      </trkpt>
      <trkpt lat="44.86399" lon="0.62698">
        <ele>86</ele>
        <time>2023-08-06T08:25:32Z</time>
      </trkpt>
      <trkpt lat="44.86396" lon="0.62701">
        <ele>86.3</ele>
        <time>2023-08-06T08:25:34Z</time>
      </trkpt>
      <trkpt lat="44.86393" lon="0.62703">
        <ele>85</ele>
        <time>2023-08-06T08:25:36Z</time>
      </trkpt>
      <trkpt lat="44.86391" lon="0.62704">
        <ele>85.3</ele>
        <time>2023-08-06T08:25:37Z</time>
      </trkpt>
      <trkpt lat="44.86389" lon="0.62705">
        <ele>84.6</ele>
        <time>2023-08-06T08:25:38Z</time>
      </trkpt>
      <trkpt lat="44.86389" lon="0.62708">
        <ele>84.5</ele>
        <time>2023-08-06T08:25:40Z</time>
      </trkpt>
      <trkpt lat="44.86388" lon="0.62712">
        <ele>84.8</ele>
        <time>2023-08-06T08:25:42Z</time>
      </trkpt>
      <trkpt lat="44.86387" lon="0.62714">
        <ele>85.2</ele>
        <time>2023-08-06T08:25:43Z</time>
      </trkpt>
      <trkpt lat="44.86386" lon="0.62715">
        <ele>84.4</ele>
        <time>2023-08-06T08:25:44Z</time>
      </trkpt>
      <trkpt lat="44.86384" lon="0.62718">
        <ele>84.1</ele>
        <time>2023-08-06T08:25:46Z</time>
      </trkpt>
      <trkpt lat="44.86384" lon="0.62722">
        <ele>85</ele>
        <time>2023-08-06T08:25:48Z</time>
      </trkpt>
      <trkpt lat="44.86386" lon="0.62725">
        <ele>85.3</ele>
        <time>2023-08-06T08:25:50Z</time>
      </trkpt>
      <trkpt lat="44.86386" lon="0.62729">
        <ele>85.3</ele>
        <time>2023-08-06T08:25:52Z</time>
      </trkpt>
      <trkpt lat="44.86387" lon="0.62732">
        <ele>85.5</ele>
        <time>2023-08-06T08:25:54Z</time>
      </trkpt>
      <trkpt lat="44.86387" lon="0.62734">
        <ele>86.5</ele>
        <time>2023-08-06T08:25:55Z</time>
      </trkpt>
      <trkpt lat="44.86387" lon="0.62736">
        <ele>86.4</ele>
        <time>2023-08-06T08:25:56Z</time>
      </trkpt>
      <trkpt lat="44.86388" lon="0.62738">
        <ele>86.4</ele>
        <time>2023-08-06T08:25:57Z</time>
      </trkpt>
      <trkpt lat="44.86389" lon="0.6274">
        <ele>86.6</ele>
        <time>2023-08-06T08:25:58Z</time>
      </trkpt>
      <trkpt lat="44.86389" lon="0.62742">
        <ele>86.6</ele>
        <time>2023-08-06T08:26:00Z</time>
      </trkpt>
      <trkpt lat="44.86389" lon="0.62743">
        <ele>86.8</ele>
        <time>2023-08-06T08:26:01Z</time>
      </trkpt>
      <trkpt lat="44.86388" lon="0.62745">
        <ele>86.7</ele>
        <time>2023-08-06T08:26:02Z</time>
      </trkpt>
      <trkpt lat="44.86388" lon="0.62747">
        <ele>86.9</ele>
        <time>2023-08-06T08:26:04Z</time>
      </trkpt>
      <trkpt lat="44.86387" lon="0.6275">
        <ele>86.1</ele>
        <time>2023-08-06T08:26:06Z</time>
      </trkpt>
      <trkpt lat="44.86386" lon="0.62751">
        <ele>86.3</ele>
        <time>2023-08-06T08:26:07Z</time>
      </trkpt>
      <trkpt lat="44.86385" lon="0.62753">
        <ele>86.2</ele>
        <time>2023-08-06T08:26:08Z</time>
      </trkpt>
      <trkpt lat="44.86391" lon="0.62776">
        <ele>88.8</ele>
        <time>2023-08-06T08:26:24Z</time>
      </trkpt>
      <trkpt lat="44.86393" lon="0.62777">
        <ele>88.9</ele>
        <time>2023-08-06T08:26:25Z</time>
      </trkpt>
      <trkpt lat="44.86394" lon="0.62778">
        <ele>89.6</ele>
        <time>2023-08-06T08:26:26Z</time>
      </trkpt>
      <trkpt lat="44.86395" lon="0.6278">
        <ele>89.6</ele>
        <time>2023-08-06T08:26:27Z</time>
      </trkpt>
      <trkpt lat="44.86396" lon="0.62782">
        <ele>89.7</ele>
        <time>2023-08-06T08:26:28Z</time>
      </trkpt>
      <trkpt lat="44.86398" lon="0.62787">
        <ele>90.4</ele>
        <time>2023-08-06T08:26:30Z</time>
      </trkpt>
      <trkpt lat="44.86399" lon="0.62791">
        <ele>91.1</ele>
        <time>2023-08-06T08:26:31Z</time>
      </trkpt>
      <trkpt lat="44.864" lon="0.62794">
        <ele>91</ele>
        <time>2023-08-06T08:26:32Z</time>
      </trkpt>
      <trkpt lat="44.86402" lon="0.62796">
        <ele>91</ele>
        <time>2023-08-06T08:26:33Z</time>
      </trkpt>
      <trkpt lat="44.86404" lon="0.62798">
        <ele>91.6</ele>
        <time>2023-08-06T08:26:34Z</time>
      </trkpt>
      <trkpt lat="44.86408" lon="0.62801">
        <ele>92.2</ele>
        <time>2023-08-06T08:26:36Z</time>
      </trkpt>
      <trkpt lat="44.86411" lon="0.62801">
        <ele>92.9</ele>
        <time>2023-08-06T08:26:37Z</time>
      </trkpt>
      <trkpt lat="44.86412" lon="0.62801">
        <ele>93.6</ele>
        <time>2023-08-06T08:26:38Z</time>
      </trkpt>
      <trkpt lat="44.86415" lon="0.62801">
        <ele>94.3</ele>
        <time>2023-08-06T08:26:40Z</time>
      </trkpt>
      <trkpt lat="44.86419" lon="0.62801">
        <ele>95.1</ele>
        <time>2023-08-06T08:26:42Z</time>
      </trkpt>
      <trkpt lat="44.8642" lon="0.628">
        <ele>95</ele>
        <time>2023-08-06T08:26:43Z</time>
      </trkpt>
      <trkpt lat="44.86422" lon="0.628">
        <ele>95.7</ele>
        <time>2023-08-06T08:26:44Z</time>
      </trkpt>
      <trkpt lat="44.86424" lon="0.62799">
        <ele>96.4</ele>
        <time>2023-08-06T08:26:45Z</time>
      </trkpt>
      <trkpt lat="44.86426" lon="0.62799">
        <ele>96.3</ele>
        <time>2023-08-06T08:26:46Z</time>
      </trkpt>
      <trkpt lat="44.8643" lon="0.62803">
        <ele>97.6</ele>
        <time>2023-08-06T08:26:48Z</time>
      </trkpt>
      <trkpt lat="44.86432" lon="0.62806">
        <ele>97.5</ele>
        <time>2023-08-06T08:26:49Z</time>
      </trkpt>
      <trkpt lat="44.86436" lon="0.6281">
        <ele>98.1</ele>
        <time>2023-08-06T08:26:50Z</time>
      </trkpt>
      <trkpt lat="44.8644" lon="0.62813">
        <ele>99.2</ele>
        <time>2023-08-06T08:26:51Z</time>
      </trkpt>
      <trkpt lat="44.86444" lon="0.62816">
        <ele>99.5</ele>
        <time>2023-08-06T08:26:52Z</time>
      </trkpt>
      <trkpt lat="44.86452" lon="0.6282">
        <ele>100.9</ele>
        <time>2023-08-06T08:26:54Z</time>
      </trkpt>
      <trkpt lat="44.86458" lon="0.62822">
        <ele>101.8</ele>
        <time>2023-08-06T08:26:56Z</time>
      </trkpt>
      <trkpt lat="44.8646" lon="0.62823">
        <ele>102.3</ele>
        <time>2023-08-06T08:26:57Z</time>
      </trkpt>
      <trkpt lat="44.86463" lon="0.62825">
        <ele>102.5</ele>
        <time>2023-08-06T08:26:58Z</time>
      </trkpt>
      <trkpt lat="44.86468" lon="0.62831">
        <ele>102.6</ele>
        <time>2023-08-06T08:27:00Z</time>
      </trkpt>
      <trkpt lat="44.86476" lon="0.62839">
        <ele>103.5</ele>
        <time>2023-08-06T08:27:02Z</time>
      </trkpt>
      <trkpt lat="44.86483" lon="0.62845">
        <ele>103.7</ele>
        <time>2023-08-06T08:27:04Z</time>
      </trkpt>
      <trkpt lat="44.86487" lon="0.62849">
        <ele>104.4</ele>
        <time>2023-08-06T08:27:05Z</time>
      </trkpt>
      <trkpt lat="44.86491" lon="0.62854">
        <ele>104.5</ele>
        <time>2023-08-06T08:27:06Z</time>
      </trkpt>
      <trkpt lat="44.86496" lon="0.62858">
        <ele>104.5</ele>
        <time>2023-08-06T08:27:07Z</time>
      </trkpt>
      <trkpt lat="44.865" lon="0.62861">
        <ele>105.1</ele>
        <time>2023-08-06T08:27:08Z</time>
      </trkpt>
      <trkpt lat="44.86502" lon="0.62864">
        <ele>104.7</ele>
        <time>2023-08-06T08:27:09Z</time>
      </trkpt>
      <trkpt lat="44.86506" lon="0.62867">
        <ele>105.2</ele>
        <time>2023-08-06T08:27:10Z</time>
      </trkpt>
      <trkpt lat="44.86509" lon="0.62872">
        <ele>105.3</ele>
        <time>2023-08-06T08:27:11Z</time>
      </trkpt>
      <trkpt lat="44.8651" lon="0.62876">
        <ele>104.9</ele>
        <time>2023-08-06T08:27:12Z</time>
      </trkpt>
      <trkpt lat="44.86513" lon="0.62885">
        <ele>104.6</ele>
        <time>2023-08-06T08:27:14Z</time>
      </trkpt>
      <trkpt lat="44.86511" lon="0.62888">
        <ele>104.2</ele>
        <time>2023-08-06T08:27:15Z</time>
      </trkpt>
      <trkpt lat="44.8651" lon="0.6289">
        <ele>103.9</ele>
        <time>2023-08-06T08:27:16Z</time>
      </trkpt>
      <trkpt lat="44.86509" lon="0.62894">
        <ele>103.5</ele>
        <time>2023-08-06T08:27:17Z</time>
      </trkpt>
      <trkpt lat="44.8651" lon="0.62896">
        <ele>103.4</ele>
        <time>2023-08-06T08:27:18Z</time>
      </trkpt>
      <trkpt lat="44.8651" lon="0.629">
        <ele>103</ele>
        <time>2023-08-06T08:27:19Z</time>
      </trkpt>
      <trkpt lat="44.86509" lon="0.62904">
        <ele>102.6</ele>
        <time>2023-08-06T08:27:20Z</time>
      </trkpt>
      <trkpt lat="44.86503" lon="0.62908">
        <ele>101.2</ele>
        <time>2023-08-06T08:27:22Z</time>
      </trkpt>
      <trkpt lat="44.86499" lon="0.62912">
        <ele>99.6</ele>
        <time>2023-08-06T08:27:23Z</time>
      </trkpt>
      <trkpt lat="44.86496" lon="0.62918">
        <ele>98.6</ele>
        <time>2023-08-06T08:27:24Z</time>
      </trkpt>
      <trkpt lat="44.86493" lon="0.62928">
        <ele>97.2</ele>
        <time>2023-08-06T08:27:26Z</time>
      </trkpt>
      <trkpt lat="44.86494" lon="0.62932">
        <ele>96.8</ele>
        <time>2023-08-06T08:27:27Z</time>
      </trkpt>
      <trkpt lat="44.86495" lon="0.62936">
        <ele>96.3</ele>
        <time>2023-08-06T08:27:28Z</time>
      </trkpt>
      <trkpt lat="44.86495" lon="0.6294">
        <ele>95.9</ele>
        <time>2023-08-06T08:27:29Z</time>
      </trkpt>
      <trkpt lat="44.86495" lon="0.62945">
        <ele>95.5</ele>
        <time>2023-08-06T08:27:30Z</time>
      </trkpt>
      <trkpt lat="44.86496" lon="0.62953">
        <ele>94.7</ele>
        <time>2023-08-06T08:27:32Z</time>
      </trkpt>
      <trkpt lat="44.86497" lon="0.62957">
        <ele>95.2</ele>
        <time>2023-08-06T08:27:33Z</time>
      </trkpt>
      <trkpt lat="44.86497" lon="0.62962">
        <ele>94.5</ele>
        <time>2023-08-06T08:27:34Z</time>
      </trkpt>
      <trkpt lat="44.86498" lon="0.62965">
        <ele>94.4</ele>
        <time>2023-08-06T08:27:35Z</time>
      </trkpt>
      <trkpt lat="44.86498" lon="0.6297">
        <ele>94.1</ele>
        <time>2023-08-06T08:27:36Z</time>
      </trkpt>
      <trkpt lat="44.865" lon="0.62979">
        <ele>93.9</ele>
        <time>2023-08-06T08:27:38Z</time>
      </trkpt>
      <trkpt lat="44.86502" lon="0.62988">
        <ele>93.4</ele>
        <time>2023-08-06T08:27:40Z</time>
      </trkpt>
      <trkpt lat="44.86503" lon="0.62997">
        <ele>93</ele>
        <time>2023-08-06T08:27:42Z</time>
      </trkpt>
      <trkpt lat="44.865" lon="0.63001">
        <ele>92.8</ele>
        <time>2023-08-06T08:27:43Z</time>
      </trkpt>
      <trkpt lat="44.86496" lon="0.63005">
        <ele>91.5</ele>
        <time>2023-08-06T08:27:44Z</time>
      </trkpt>
      <trkpt lat="44.8649" lon="0.63009">
        <ele>90.5</ele>
        <time>2023-08-06T08:27:46Z</time>
      </trkpt>
      <trkpt lat="44.86486" lon="0.63009">
        <ele>90.1</ele>
        <time>2023-08-06T08:27:47Z</time>
      </trkpt>
      <trkpt lat="44.86482" lon="0.63007">
        <ele>89.7</ele>
        <time>2023-08-06T08:27:48Z</time>
      </trkpt>
      <trkpt lat="44.8648" lon="0.63004">
        <ele>89.3</ele>
        <time>2023-08-06T08:27:49Z</time>
      </trkpt>
      <trkpt lat="44.86478" lon="0.63001">
        <ele>88.8</ele>
        <time>2023-08-06T08:27:50Z</time>
      </trkpt>
      <trkpt lat="44.86475" lon="0.63">
        <ele>88.3</ele>
        <time>2023-08-06T08:27:51Z</time>
      </trkpt>
      <trkpt lat="44.86471" lon="0.63001">
        <ele>87.8</ele>
        <time>2023-08-06T08:27:52Z</time>
      </trkpt>
      <trkpt lat="44.86469" lon="0.63003">
        <ele>87.4</ele>
        <time>2023-08-06T08:27:53Z</time>
      </trkpt>
      <trkpt lat="44.86467" lon="0.63005">
        <ele>87.3</ele>
        <time>2023-08-06T08:27:54Z</time>
      </trkpt>
      <trkpt lat="44.86465" lon="0.63008">
        <ele>87</ele>
        <time>2023-08-06T08:27:56Z</time>
      </trkpt>
      <trkpt lat="44.86467" lon="0.63014">
        <ele>87.3</ele>
        <time>2023-08-06T08:27:58Z</time>
      </trkpt>
      <trkpt lat="44.86469" lon="0.63018">
        <ele>87.3</ele>
        <time>2023-08-06T08:28:00Z</time>
      </trkpt>
      <trkpt lat="44.86471" lon="0.63021">
        <ele>87.2</ele>
        <time>2023-08-06T08:28:01Z</time>
      </trkpt>
      <trkpt lat="44.86472" lon="0.63025">
        <ele>87.2</ele>
        <time>2023-08-06T08:28:02Z</time>
      </trkpt>
      <trkpt lat="44.86473" lon="0.63033">
        <ele>87.1</ele>
        <time>2023-08-06T08:28:04Z</time>
      </trkpt>
      <trkpt lat="44.86474" lon="0.63037">
        <ele>87</ele>
        <time>2023-08-06T08:28:05Z</time>
      </trkpt>
      <trkpt lat="44.86476" lon="0.63041">
        <ele>86.9</ele>
        <time>2023-08-06T08:28:06Z</time>
      </trkpt>
      <trkpt lat="44.86477" lon="0.63048">
        <ele>86.8</ele>
        <time>2023-08-06T08:28:08Z</time>
      </trkpt>
      <trkpt lat="44.86478" lon="0.63053">
        <ele>86.7</ele>
        <time>2023-08-06T08:28:09Z</time>
      </trkpt>
      <trkpt lat="44.8648" lon="0.63056">
        <ele>86.7</ele>
        <time>2023-08-06T08:28:10Z</time>
      </trkpt>
      <trkpt lat="44.86482" lon="0.63064">
        <ele>86.7</ele>
        <time>2023-08-06T08:28:12Z</time>
      </trkpt>
      <trkpt lat="44.86482" lon="0.63071">
        <ele>86.8</ele>
        <time>2023-08-06T08:28:14Z</time>
      </trkpt>
      <trkpt lat="44.86484" lon="0.63075">
        <ele>86.9</ele>
        <time>2023-08-06T08:28:15Z</time>
      </trkpt>
      <trkpt lat="44.86485" lon="0.63078">
        <ele>86.9</ele>
        <time>2023-08-06T08:28:16Z</time>
      </trkpt>
      <trkpt lat="44.86488" lon="0.63085">
        <ele>87.1</ele>
        <time>2023-08-06T08:28:18Z</time>
      </trkpt>
      <trkpt lat="44.8649" lon="0.63094">
        <ele>87.3</ele>
        <time>2023-08-06T08:28:20Z</time>
      </trkpt>
      <trkpt lat="44.86491" lon="0.63098">
        <ele>87.4</ele>
        <time>2023-08-06T08:28:21Z</time>
      </trkpt>
      <trkpt lat="44.86492" lon="0.63101">
        <ele>87.4</ele>
        <time>2023-08-06T08:28:22Z</time>
      </trkpt>
      <trkpt lat="44.86494" lon="0.63108">
        <ele>87.6</ele>
        <time>2023-08-06T08:28:24Z</time>
      </trkpt>
      <trkpt lat="44.86499" lon="0.63114">
        <ele>87.8</ele>
        <time>2023-08-06T08:28:26Z</time>
      </trkpt>
      <trkpt lat="44.865" lon="0.63118">
        <ele>87.9</ele>
        <time>2023-08-06T08:28:27Z</time>
      </trkpt>
      <trkpt lat="44.86501" lon="0.63121">
        <ele>88</ele>
        <time>2023-08-06T08:28:28Z</time>
      </trkpt>
      <trkpt lat="44.86503" lon="0.63127">
        <ele>88.1</ele>
        <time>2023-08-06T08:28:30Z</time>
      </trkpt>
      <trkpt lat="44.86505" lon="0.63132">
        <ele>88.3</ele>
        <time>2023-08-06T08:28:32Z</time>
      </trkpt>
      <trkpt lat="44.86506" lon="0.63135">
        <ele>88.3</ele>
        <time>2023-08-06T08:28:33Z</time>
      </trkpt>
      <trkpt lat="44.86507" lon="0.63138">
        <ele>88.4</ele>
        <time>2023-08-06T08:28:34Z</time>
      </trkpt>
      <trkpt lat="44.86511" lon="0.63142">
        <ele>88.6</ele>
        <time>2023-08-06T08:28:36Z</time>
      </trkpt>
      <trkpt lat="44.86515" lon="0.63147">
        <ele>88.8</ele>
        <time>2023-08-06T08:28:38Z</time>
      </trkpt>
      <trkpt lat="44.86518" lon="0.63151">
        <ele>88.9</ele>
        <time>2023-08-06T08:28:40Z</time>
      </trkpt>
      <trkpt lat="44.8652" lon="0.63155">
        <ele>89</ele>
        <time>2023-08-06T08:28:42Z</time>
      </trkpt>
      <trkpt lat="44.86523" lon="0.6316">
        <ele>89.2</ele>
        <time>2023-08-06T08:28:44Z</time>
      </trkpt>
      <trkpt lat="44.86528" lon="0.63164">
        <ele>89.4</ele>
        <time>2023-08-06T08:28:46Z</time>
      </trkpt>
      <trkpt lat="44.86529" lon="0.63167">
        <ele>89.5</ele>
        <time>2023-08-06T08:28:48Z</time>
      </trkpt>
      <trkpt lat="44.8653" lon="0.63169">
        <ele>89.5</ele>
        <time>2023-08-06T08:28:49Z</time>
      </trkpt>
      <trkpt lat="44.86532" lon="0.63171">
        <ele>89.6</ele>
        <time>2023-08-06T08:28:50Z</time>
      </trkpt>
      <trkpt lat="44.86535" lon="0.63175">
        <ele>89.7</ele>
        <time>2023-08-06T08:28:52Z</time>
      </trkpt>
      <trkpt lat="44.86539" lon="0.63178">
        <ele>89.9</ele>
        <time>2023-08-06T08:28:54Z</time>
      </trkpt>
      <trkpt lat="44.86541" lon="0.63179">
        <ele>89.9</ele>
        <time>2023-08-06T08:28:55Z</time>
      </trkpt>
      <trkpt lat="44.86542" lon="0.6318">
        <ele>90</ele>
        <time>2023-08-06T08:28:56Z</time>
      </trkpt>
      <trkpt lat="44.86547" lon="0.63185">
        <ele>90.1</ele>
        <time>2023-08-06T08:28:58Z</time>
      </trkpt>
      <trkpt lat="44.86552" lon="0.63189">
        <ele>90.3</ele>
        <time>2023-08-06T08:29:00Z</time>
      </trkpt>
      <trkpt lat="44.86557" lon="0.63193">
        <ele>90.5</ele>
        <time>2023-08-06T08:29:02Z</time>
      </trkpt>
      <trkpt lat="44.86561" lon="0.63197">
        <ele>90.7</ele>
        <time>2023-08-06T08:29:04Z</time>
      </trkpt>
      <trkpt lat="44.86565" lon="0.63201">
        <ele>90.9</ele>
        <time>2023-08-06T08:29:06Z</time>
      </trkpt>
      <trkpt lat="44.86567" lon="0.63203">
        <ele>90.9</ele>
        <time>2023-08-06T08:29:07Z</time>
      </trkpt>
      <trkpt lat="44.86568" lon="0.63205">
        <ele>91</ele>
        <time>2023-08-06T08:29:08Z</time>
      </trkpt>
      <trkpt lat="44.86573" lon="0.63209">
        <ele>91.2</ele>
        <time>2023-08-06T08:29:10Z</time>
      </trkpt>
      <trkpt lat="44.86578" lon="0.63212">
        <ele>91.3</ele>
        <time>2023-08-06T08:29:12Z</time>
      </trkpt>
      <trkpt lat="44.86582" lon="0.63216">
        <ele>91.5</ele>
        <time>2023-08-06T08:29:14Z</time>
      </trkpt>
      <trkpt lat="44.86587" lon="0.6322">
        <ele>91.6</ele>
        <time>2023-08-06T08:29:16Z</time>
      </trkpt>
      <trkpt lat="44.86589" lon="0.63222">
        <ele>91.7</ele>
        <time>2023-08-06T08:29:17Z</time>
      </trkpt>
      <trkpt lat="44.86591" lon="0.63225">
        <ele>91.8</ele>
        <time>2023-08-06T08:29:18Z</time>
      </trkpt>
      <trkpt lat="44.86596" lon="0.6323">
        <ele>91.9</ele>
        <time>2023-08-06T08:29:20Z</time>
      </trkpt>
      <trkpt lat="44.86601" lon="0.63233">
        <ele>92.1</ele>
        <time>2023-08-06T08:29:22Z</time>
      </trkpt>
      <trkpt lat="44.86603" lon="0.63236">
        <ele>92.2</ele>
        <time>2023-08-06T08:29:23Z</time>
      </trkpt>
      <trkpt lat="44.86605" lon="0.63238">
        <ele>92.2</ele>
        <time>2023-08-06T08:29:24Z</time>
      </trkpt>
      <trkpt lat="44.8661" lon="0.63242">
        <ele>92.4</ele>
        <time>2023-08-06T08:29:26Z</time>
      </trkpt>
      <trkpt lat="44.86615" lon="0.63246">
        <ele>92.5</ele>
        <time>2023-08-06T08:29:28Z</time>
      </trkpt>
      <trkpt lat="44.8662" lon="0.6325">
        <ele>92.7</ele>
        <time>2023-08-06T08:29:30Z</time>
      </trkpt>
      <trkpt lat="44.86624" lon="0.63255">
        <ele>92.9</ele>
        <time>2023-08-06T08:29:32Z</time>
      </trkpt>
      <trkpt lat="44.86629" lon="0.63259">
        <ele>93.1</ele>
        <time>2023-08-06T08:29:34Z</time>
      </trkpt>
      <trkpt lat="44.86633" lon="0.63263">
        <ele>93.2</ele>
        <time>2023-08-06T08:29:36Z</time>
      </trkpt>
      <trkpt lat="44.86635" lon="0.63265">
        <ele>93.3</ele>
        <time>2023-08-06T08:29:37Z</time>
      </trkpt>
      <trkpt lat="44.86637" lon="0.63268">
        <ele>93.4</ele>
        <time>2023-08-06T08:29:38Z</time>
      </trkpt>
      <trkpt lat="44.86641" lon="0.63272">
        <ele>93.6</ele>
        <time>2023-08-06T08:29:40Z</time>
      </trkpt>
      <trkpt lat="44.86646" lon="0.63277">
        <ele>93.8</ele>
        <time>2023-08-06T08:29:42Z</time>
      </trkpt>
      <trkpt lat="44.86651" lon="0.6328">
        <ele>94</ele>
        <time>2023-08-06T08:29:44Z</time>
      </trkpt>
      <trkpt lat="44.86654" lon="0.63282">
        <ele>94.1</ele>
        <time>2023-08-06T08:29:45Z</time>
      </trkpt>
      <trkpt lat="44.86656" lon="0.63284">
        <ele>94.3</ele>
        <time>2023-08-06T08:29:46Z</time>
      </trkpt>
      <trkpt lat="44.86662" lon="0.63288">
        <ele>94.5</ele>
        <time>2023-08-06T08:29:48Z</time>
      </trkpt>
      <trkpt lat="44.86668" lon="0.63291">
        <ele>94.7</ele>
        <time>2023-08-06T08:29:50Z</time>
      </trkpt>
      <trkpt lat="44.86673" lon="0.63295">
        <ele>94.9</ele>
        <time>2023-08-06T08:29:52Z</time>
      </trkpt>
      <trkpt lat="44.8668" lon="0.63298">
        <ele>95.2</ele>
        <time>2023-08-06T08:29:54Z</time>
      </trkpt>
      <trkpt lat="44.86686" lon="0.63301">
        <ele>95.4</ele>
        <time>2023-08-06T08:29:56Z</time>
      </trkpt>
      <trkpt lat="44.86689" lon="0.63302">
        <ele>95.5</ele>
        <time>2023-08-06T08:29:57Z</time>
      </trkpt>
      <trkpt lat="44.86692" lon="0.63303">
        <ele>95.6</ele>
        <time>2023-08-06T08:29:58Z</time>
      </trkpt>
      <trkpt lat="44.86697" lon="0.63305">
        <ele>95.8</ele>
        <time>2023-08-06T08:30:00Z</time>
      </trkpt>
      <trkpt lat="44.86703" lon="0.63307">
        <ele>96</ele>
        <time>2023-08-06T08:30:02Z</time>
      </trkpt>
      <trkpt lat="44.86707" lon="0.6331">
        <ele>96.2</ele>
        <time>2023-08-06T08:30:04Z</time>
      </trkpt>
      <trkpt lat="44.86709" lon="0.63311">
        <ele>96.3</ele>
        <time>2023-08-06T08:30:05Z</time>
      </trkpt>
      <trkpt lat="44.86712" lon="0.63312">
        <ele>96.4</ele>
        <time>2023-08-06T08:30:06Z</time>
      </trkpt>
      <trkpt lat="44.86717" lon="0.63314">
        <ele>96.6</ele>
        <time>2023-08-06T08:30:08Z</time>
      </trkpt>
      <trkpt lat="44.86723" lon="0.63317">
        <ele>96.8</ele>
        <time>2023-08-06T08:30:10Z</time>
      </trkpt>
      <trkpt lat="44.86729" lon="0.63322">
        <ele>97</ele>
        <time>2023-08-06T08:30:12Z</time>
      </trkpt>
      <trkpt lat="44.86734" lon="0.63328">
        <ele>97.1</ele>
        <time>2023-08-06T08:30:14Z</time>
      </trkpt>
      <trkpt lat="44.86737" lon="0.63334">
        <ele>97.3</ele>
        <time>2023-08-06T08:30:16Z</time>
      </trkpt>
      <trkpt lat="44.86742" lon="0.63341">
        <ele>97.5</ele>
        <time>2023-08-06T08:30:18Z</time>
      </trkpt>
      <trkpt lat="44.86744" lon="0.63345">
        <ele>97.6</ele>
        <time>2023-08-06T08:30:19Z</time>
      </trkpt>
      <trkpt lat="44.86747" lon="0.63349">
        <ele>97.7</ele>
        <time>2023-08-06T08:30:20Z</time>
      </trkpt>
      <trkpt lat="44.86751" lon="0.63356">
        <ele>97.9</ele>
        <time>2023-08-06T08:30:22Z</time>
      </trkpt>
      <trkpt lat="44.86752" lon="0.63359">
        <ele>98</ele>
        <time>2023-08-06T08:30:23Z</time>
      </trkpt>
      <trkpt lat="44.86753" lon="0.63362">
        <ele>98.1</ele>
        <time>2023-08-06T08:30:24Z</time>
      </trkpt>
      <trkpt lat="44.86755" lon="0.63368">
        <ele>98.3</ele>
        <time>2023-08-06T08:30:26Z</time>
      </trkpt>
      <trkpt lat="44.86759" lon="0.63375">
        <ele>98.5</ele>
        <time>2023-08-06T08:30:28Z</time>
      </trkpt>
      <trkpt lat="44.86763" lon="0.63382">
        <ele>98.7</ele>
        <time>2023-08-06T08:30:30Z</time>
      </trkpt>
      <trkpt lat="44.86767" lon="0.63389">
        <ele>98.9</ele>
        <time>2023-08-06T08:30:32Z</time>
      </trkpt>
      <trkpt lat="44.86771" lon="0.63396">
        <ele>99.2</ele>
        <time>2023-08-06T08:30:34Z</time>
      </trkpt>
      <trkpt lat="44.86775" lon="0.63403">
        <ele>99.3</ele>
        <time>2023-08-06T08:30:36Z</time>
      </trkpt>
      <trkpt lat="44.86776" lon="0.63406">
        <ele>99.4</ele>
        <time>2023-08-06T08:30:37Z</time>
      </trkpt>
      <trkpt lat="44.86779" lon="0.63411">
        <ele>99.6</ele>
        <time>2023-08-06T08:30:39Z</time>
      </trkpt>
      <trkpt lat="44.86781" lon="0.63413">
        <ele>99.7</ele>
        <time>2023-08-06T08:30:40Z</time>
      </trkpt>
      <trkpt lat="44.86785" lon="0.63416">
        <ele>99.8</ele>
        <time>2023-08-06T08:30:42Z</time>
      </trkpt>
      <trkpt lat="44.86788" lon="0.6342">
        <ele>99.9</ele>
        <time>2023-08-06T08:30:44Z</time>
      </trkpt>
      <trkpt lat="44.86789" lon="0.63422">
        <ele>99.8</ele>
        <time>2023-08-06T08:30:45Z</time>
      </trkpt>
      <trkpt lat="44.86789" lon="0.63425">
        <ele>99.8</ele>
        <time>2023-08-06T08:30:46Z</time>
      </trkpt>
      <trkpt lat="44.86787" lon="0.63428">
        <ele>99.8</ele>
        <time>2023-08-06T08:30:48Z</time>
      </trkpt>
      <trkpt lat="44.86784" lon="0.63429">
        <ele>99.9</ele>
        <time>2023-08-06T08:30:50Z</time>
      </trkpt>
      <trkpt lat="44.8678" lon="0.63429">
        <ele>99.9</ele>
        <time>2023-08-06T08:30:52Z</time>
      </trkpt>
      <trkpt lat="44.86779" lon="0.63429">
        <ele>100</ele>
        <time>2023-08-06T08:30:53Z</time>
      </trkpt>
      <trkpt lat="44.86777" lon="0.63429">
        <ele>100</ele>
        <time>2023-08-06T08:30:54Z</time>
      </trkpt>
      <trkpt lat="44.86776" lon="0.63429">
        <ele>100</ele>
        <time>2023-08-06T08:30:55Z</time>
      </trkpt>
      <trkpt lat="44.86774" lon="0.6343">
        <ele>100</ele>
        <time>2023-08-06T08:30:56Z</time>
      </trkpt>
      <trkpt lat="44.86771" lon="0.63429">
        <ele>100.1</ele>
        <time>2023-08-06T08:30:58Z</time>
      </trkpt>
      <trkpt lat="44.86767" lon="0.6343">
        <ele>100.1</ele>
        <time>2023-08-06T08:31:00Z</time>
      </trkpt>
      <trkpt lat="44.86764" lon="0.6343">
        <ele>100.3</ele>
        <time>2023-08-06T08:31:02Z</time>
      </trkpt>
      <trkpt lat="44.8676" lon="0.63431">
        <ele>100.4</ele>
        <time>2023-08-06T08:31:04Z</time>
      </trkpt>
      <trkpt lat="44.86757" lon="0.63431">
        <ele>100.4</ele>
        <time>2023-08-06T08:31:06Z</time>
      </trkpt>
      <trkpt lat="44.86754" lon="0.63432">
        <ele>100.5</ele>
        <time>2023-08-06T08:31:08Z</time>
      </trkpt>
      <trkpt lat="44.86751" lon="0.63432">
        <ele>100.6</ele>
        <time>2023-08-06T08:31:10Z</time>
      </trkpt>
      <trkpt lat="44.86747" lon="0.63433">
        <ele>100.7</ele>
        <time>2023-08-06T08:31:12Z</time>
      </trkpt>
      <trkpt lat="44.86744" lon="0.63434">
        <ele>101</ele>
        <time>2023-08-06T08:31:14Z</time>
      </trkpt>
      <trkpt lat="44.8674" lon="0.63435">
        <ele>101.1</ele>
        <time>2023-08-06T08:31:16Z</time>
      </trkpt>
      <trkpt lat="44.86737" lon="0.63436">
        <ele>101.1</ele>
        <time>2023-08-06T08:31:18Z</time>
      </trkpt>
      <trkpt lat="44.86734" lon="0.63437">
        <ele>101.2</ele>
        <time>2023-08-06T08:31:20Z</time>
      </trkpt>
      <trkpt lat="44.8673" lon="0.63438">
        <ele>101.7</ele>
        <time>2023-08-06T08:31:22Z</time>
      </trkpt>
      <trkpt lat="44.86727" lon="0.6344">
        <ele>101.8</ele>
        <time>2023-08-06T08:31:24Z</time>
      </trkpt>
      <trkpt lat="44.86726" lon="0.63441">
        <ele>101.8</ele>
        <time>2023-08-06T08:31:25Z</time>
      </trkpt>
      <trkpt lat="44.86724" lon="0.63442">
        <ele>101.9</ele>
        <time>2023-08-06T08:31:26Z</time>
      </trkpt>
      <trkpt lat="44.86721" lon="0.63443">
        <ele>102.3</ele>
        <time>2023-08-06T08:31:28Z</time>
      </trkpt>
      <trkpt lat="44.86718" lon="0.63443">
        <ele>102.4</ele>
        <time>2023-08-06T08:31:30Z</time>
      </trkpt>
      <trkpt lat="44.86716" lon="0.63444">
        <ele>102.4</ele>
        <time>2023-08-06T08:31:31Z</time>
      </trkpt>
      <trkpt lat="44.86715" lon="0.63445">
        <ele>102.6</ele>
        <time>2023-08-06T08:31:32Z</time>
      </trkpt>
      <trkpt lat="44.86712" lon="0.63446">
        <ele>102.7</ele>
        <time>2023-08-06T08:31:34Z</time>
      </trkpt>
      <trkpt lat="44.86709" lon="0.63447">
        <ele>103.2</ele>
        <time>2023-08-06T08:31:36Z</time>
      </trkpt>
      <trkpt lat="44.86707" lon="0.63448">
        <ele>103.1</ele>
        <time>2023-08-06T08:31:37Z</time>
      </trkpt>
      <trkpt lat="44.86706" lon="0.63449">
        <ele>103.3</ele>
        <time>2023-08-06T08:31:38Z</time>
      </trkpt>
      <trkpt lat="44.86703" lon="0.63449">
        <ele>103.5</ele>
        <time>2023-08-06T08:31:40Z</time>
      </trkpt>
      <trkpt lat="44.86702" lon="0.6345">
        <ele>103.5</ele>
        <time>2023-08-06T08:31:41Z</time>
      </trkpt>
      <trkpt lat="44.867" lon="0.6345">
        <ele>103.4</ele>
        <time>2023-08-06T08:31:42Z</time>
      </trkpt>
      <trkpt lat="44.86698" lon="0.63451">
        <ele>104</ele>
        <time>2023-08-06T08:31:44Z</time>
      </trkpt>
      <trkpt lat="44.86695" lon="0.63452">
        <ele>104.3</ele>
        <time>2023-08-06T08:31:46Z</time>
      </trkpt>
      <trkpt lat="44.86692" lon="0.63452">
        <ele>104.5</ele>
        <time>2023-08-06T08:31:48Z</time>
      </trkpt>
      <trkpt lat="44.86689" lon="0.63453">
        <ele>104.8</ele>
        <time>2023-08-06T08:31:50Z</time>
      </trkpt>
      <trkpt lat="44.86687" lon="0.63455">
        <ele>105.5</ele>
        <time>2023-08-06T08:31:52Z</time>
      </trkpt>
      <trkpt lat="44.86685" lon="0.63456">
        <ele>105.8</ele>
        <time>2023-08-06T08:31:54Z</time>
      </trkpt>
      <trkpt lat="44.86682" lon="0.63457">
        <ele>105.8</ele>
        <time>2023-08-06T08:31:56Z</time>
      </trkpt>
      <trkpt lat="44.86679" lon="0.63458">
        <ele>106.1</ele>
        <time>2023-08-06T08:31:58Z</time>
      </trkpt>
      <trkpt lat="44.86677" lon="0.63459">
        <ele>106.8</ele>
        <time>2023-08-06T08:32:00Z</time>
      </trkpt>
      <trkpt lat="44.86675" lon="0.63459">
        <ele>107.1</ele>
        <time>2023-08-06T08:32:02Z</time>
      </trkpt>
      <trkpt lat="44.86674" lon="0.6346">
        <ele>107.1</ele>
        <time>2023-08-06T08:32:03Z</time>
      </trkpt>
      <trkpt lat="44.86673" lon="0.63461">
        <ele>107.4</ele>
        <time>2023-08-06T08:32:04Z</time>
      </trkpt>
      <trkpt lat="44.8667" lon="0.63462">
        <ele>107.4</ele>
        <time>2023-08-06T08:32:06Z</time>
      </trkpt>
      <trkpt lat="44.86668" lon="0.63462">
        <ele>107.8</ele>
        <time>2023-08-06T08:32:08Z</time>
      </trkpt>
      <trkpt lat="44.86666" lon="0.63463">
        <ele>108.1</ele>
        <time>2023-08-06T08:32:09Z</time>
      </trkpt>
      <trkpt lat="44.86665" lon="0.63463">
        <ele>108.5</ele>
        <time>2023-08-06T08:32:10Z</time>
      </trkpt>
      <trkpt lat="44.86663" lon="0.63464">
        <ele>108.8</ele>
        <time>2023-08-06T08:32:12Z</time>
      </trkpt>
      <trkpt lat="44.8666" lon="0.63465">
        <ele>109.1</ele>
        <time>2023-08-06T08:32:14Z</time>
      </trkpt>
      <trkpt lat="44.86657" lon="0.63466">
        <ele>109.3</ele>
        <time>2023-08-06T08:32:16Z</time>
      </trkpt>
      <trkpt lat="44.86655" lon="0.63466">
        <ele>109.3</ele>
        <time>2023-08-06T08:32:17Z</time>
      </trkpt>
      <trkpt lat="44.86654" lon="0.63467">
        <ele>109.6</ele>
        <time>2023-08-06T08:32:18Z</time>
      </trkpt>
      <trkpt lat="44.86651" lon="0.63468">
        <ele>110.2</ele>
        <time>2023-08-06T08:32:20Z</time>
      </trkpt>
      <trkpt lat="44.86649" lon="0.63468">
        <ele>110.2</ele>
        <time>2023-08-06T08:32:22Z</time>
      </trkpt>
      <trkpt lat="44.86647" lon="0.63469">
        <ele>110.4</ele>
        <time>2023-08-06T08:32:24Z</time>
      </trkpt>
      <trkpt lat="44.86644" lon="0.6347">
        <ele>110.6</ele>
        <time>2023-08-06T08:32:26Z</time>
      </trkpt>
      <trkpt lat="44.86642" lon="0.63471">
        <ele>110.8</ele>
        <time>2023-08-06T08:32:28Z</time>
      </trkpt>
      <trkpt lat="44.86639" lon="0.63472">
        <ele>111.4</ele>
        <time>2023-08-06T08:32:30Z</time>
      </trkpt>
      <trkpt lat="44.86636" lon="0.63473">
        <ele>111.6</ele>
        <time>2023-08-06T08:32:32Z</time>
      </trkpt>
      <trkpt lat="44.86634" lon="0.63474">
        <ele>111.6</ele>
        <time>2023-08-06T08:32:34Z</time>
      </trkpt>
      <trkpt lat="44.86631" lon="0.63475">
        <ele>111.8</ele>
        <time>2023-08-06T08:32:36Z</time>
      </trkpt>
      <trkpt lat="44.8663" lon="0.63476">
        <ele>111.9</ele>
        <time>2023-08-06T08:32:37Z</time>
      </trkpt>
      <trkpt lat="44.86626" lon="0.63477">
        <ele>112.5</ele>
        <time>2023-08-06T08:32:40Z</time>
      </trkpt>
      <trkpt lat="44.86624" lon="0.63478">
        <ele>112.6</ele>
        <time>2023-08-06T08:32:42Z</time>
      </trkpt>
      <trkpt lat="44.86621" lon="0.63479">
        <ele>112.8</ele>
        <time>2023-08-06T08:32:44Z</time>
      </trkpt>
      <trkpt lat="44.86619" lon="0.6348">
        <ele>112.8</ele>
        <time>2023-08-06T08:32:46Z</time>
      </trkpt>
      <trkpt lat="44.86616" lon="0.63481">
        <ele>113.3</ele>
        <time>2023-08-06T08:32:48Z</time>
      </trkpt>
      <trkpt lat="44.86613" lon="0.63482">
        <ele>113.5</ele>
        <time>2023-08-06T08:32:50Z</time>
      </trkpt>
      <trkpt lat="44.86612" lon="0.63482">
        <ele>113.7</ele>
        <time>2023-08-06T08:32:51Z</time>
      </trkpt>
      <trkpt lat="44.8661" lon="0.63482">
        <ele>113.7</ele>
        <time>2023-08-06T08:32:52Z</time>
      </trkpt>
      <trkpt lat="44.86607" lon="0.63483">
        <ele>113.9</ele>
        <time>2023-08-06T08:32:54Z</time>
      </trkpt>
      <trkpt lat="44.86605" lon="0.63484">
        <ele>114.1</ele>
        <time>2023-08-06T08:32:56Z</time>
      </trkpt>
      <trkpt lat="44.86604" lon="0.63484">
        <ele>114.1</ele>
        <time>2023-08-06T08:32:57Z</time>
      </trkpt>
      <trkpt lat="44.86603" lon="0.63485">
        <ele>114.7</ele>
        <time>2023-08-06T08:32:58Z</time>
      </trkpt>
      <trkpt lat="44.866" lon="0.63485">
        <ele>114.7</ele>
        <time>2023-08-06T08:33:00Z</time>
      </trkpt>
      <trkpt lat="44.86597" lon="0.63487">
        <ele>114.9</ele>
        <time>2023-08-06T08:33:02Z</time>
      </trkpt>
      <trkpt lat="44.86594" lon="0.63488">
        <ele>115.1</ele>
        <time>2023-08-06T08:33:04Z</time>
      </trkpt>
      <trkpt lat="44.86593" lon="0.63489">
        <ele>115.3</ele>
        <time>2023-08-06T08:33:05Z</time>
      </trkpt>
      <trkpt lat="44.86592" lon="0.6349">
        <ele>115.6</ele>
        <time>2023-08-06T08:33:06Z</time>
      </trkpt>
      <trkpt lat="44.86589" lon="0.63491">
        <ele>115.8</ele>
        <time>2023-08-06T08:33:08Z</time>
      </trkpt>
      <trkpt lat="44.86585" lon="0.63492">
        <ele>116</ele>
        <time>2023-08-06T08:33:10Z</time>
      </trkpt>
      <trkpt lat="44.86582" lon="0.63494">
        <ele>116.6</ele>
        <time>2023-08-06T08:33:12Z</time>
      </trkpt>
      <trkpt lat="44.86579" lon="0.63495">
        <ele>116.8</ele>
        <time>2023-08-06T08:33:14Z</time>
      </trkpt>
      <trkpt lat="44.86576" lon="0.63496">
        <ele>117</ele>
        <time>2023-08-06T08:33:16Z</time>
      </trkpt>
      <trkpt lat="44.86572" lon="0.63497">
        <ele>117.3</ele>
        <time>2023-08-06T08:33:18Z</time>
      </trkpt>
      <trkpt lat="44.86568" lon="0.63498">
        <ele>117.7</ele>
        <time>2023-08-06T08:33:20Z</time>
      </trkpt>
      <trkpt lat="44.86564" lon="0.63499">
        <ele>117.9</ele>
        <time>2023-08-06T08:33:22Z</time>
      </trkpt>
      <trkpt lat="44.8656" lon="0.63501">
        <ele>118.2</ele>
        <time>2023-08-06T08:33:24Z</time>
      </trkpt>
      <trkpt lat="44.86555" lon="0.63502">
        <ele>118.3</ele>
        <time>2023-08-06T08:33:26Z</time>
      </trkpt>
      <trkpt lat="44.8655" lon="0.63503">
        <ele>118.7</ele>
        <time>2023-08-06T08:33:28Z</time>
      </trkpt>
      <trkpt lat="44.86545" lon="0.63504">
        <ele>118.9</ele>
        <time>2023-08-06T08:33:30Z</time>
      </trkpt>
      <trkpt lat="44.8654" lon="0.63505">
        <ele>118.9</ele>
        <time>2023-08-06T08:33:32Z</time>
      </trkpt>
      <trkpt lat="44.86535" lon="0.63507">
        <ele>119.1</ele>
        <time>2023-08-06T08:33:34Z</time>
      </trkpt>
      <trkpt lat="44.86529" lon="0.63509">
        <ele>119.1</ele>
        <time>2023-08-06T08:33:36Z</time>
      </trkpt>
      <trkpt lat="44.86526" lon="0.63509">
        <ele>119.2</ele>
        <time>2023-08-06T08:33:37Z</time>
      </trkpt>
      <trkpt lat="44.86516" lon="0.63511">
        <ele>119.5</ele>
        <time>2023-08-06T08:33:40Z</time>
      </trkpt>
      <trkpt lat="44.86513" lon="0.63505">
        <ele>119.2</ele>
        <time>2023-08-06T08:33:42Z</time>
      </trkpt>
      <trkpt lat="44.86512" lon="0.635">
        <ele>118.9</ele>
        <time>2023-08-06T08:33:43Z</time>
      </trkpt>
      <trkpt lat="44.86512" lon="0.63495">
        <ele>118.7</ele>
        <time>2023-08-06T08:33:44Z</time>
      </trkpt>
      <trkpt lat="44.86513" lon="0.63486">
        <ele>118.2</ele>
        <time>2023-08-06T08:33:46Z</time>
      </trkpt>
      <trkpt lat="44.86514" lon="0.63481">
        <ele>118</ele>
        <time>2023-08-06T08:33:47Z</time>
      </trkpt>
      <trkpt lat="44.86516" lon="0.63476">
        <ele>117.6</ele>
        <time>2023-08-06T08:33:48Z</time>
      </trkpt>
      <trkpt lat="44.86517" lon="0.63471">
        <ele>117.4</ele>
        <time>2023-08-06T08:33:49Z</time>
      </trkpt>
      <trkpt lat="44.86517" lon="0.63465">
        <ele>117.3</ele>
        <time>2023-08-06T08:33:50Z</time>
      </trkpt>
      <trkpt lat="44.86517" lon="0.63459">
        <ele>117.1</ele>
        <time>2023-08-06T08:33:51Z</time>
      </trkpt>
      <trkpt lat="44.86515" lon="0.63454">
        <ele>116.7</ele>
        <time>2023-08-06T08:33:52Z</time>
      </trkpt>
      <trkpt lat="44.8651" lon="0.63446">
        <ele>116.7</ele>
        <time>2023-08-06T08:33:54Z</time>
      </trkpt>
      <trkpt lat="44.86507" lon="0.63443">
        <ele>116.4</ele>
        <time>2023-08-06T08:33:55Z</time>
      </trkpt>
      <trkpt lat="44.86504" lon="0.63442">
        <ele>116.2</ele>
        <time>2023-08-06T08:33:56Z</time>
      </trkpt>
      <trkpt lat="44.86497" lon="0.6344">
        <ele>116.3</ele>
        <time>2023-08-06T08:33:58Z</time>
      </trkpt>
      <trkpt lat="44.86493" lon="0.6344">
        <ele>116.4</ele>
        <time>2023-08-06T08:33:59Z</time>
      </trkpt>
      <trkpt lat="44.86489" lon="0.63441">
        <ele>116.4</ele>
        <time>2023-08-06T08:34:00Z</time>
      </trkpt>
      <trkpt lat="44.86482" lon="0.6344">
        <ele>116.6</ele>
        <time>2023-08-06T08:34:02Z</time>
      </trkpt>
      <trkpt lat="44.8648" lon="0.63439">
        <ele>116.7</ele>
        <time>2023-08-06T08:34:04Z</time>
      </trkpt>
      <trkpt lat="44.86474" lon="0.63439">
        <ele>117.1</ele>
        <time>2023-08-06T08:34:06Z</time>
      </trkpt>
      <trkpt lat="44.8647" lon="0.63439">
        <ele>117.3</ele>
        <time>2023-08-06T08:34:07Z</time>
      </trkpt>
      <trkpt lat="44.86467" lon="0.63439">
        <ele>117.6</ele>
        <time>2023-08-06T08:34:08Z</time>
      </trkpt>
      <trkpt lat="44.86463" lon="0.63435">
        <ele>117.6</ele>
        <time>2023-08-06T08:34:10Z</time>
      </trkpt>
      <trkpt lat="44.86464" lon="0.63429">
        <ele>116.9</ele>
        <time>2023-08-06T08:34:12Z</time>
      </trkpt>
      <trkpt lat="44.86465" lon="0.63427">
        <ele>116.4</ele>
        <time>2023-08-06T08:34:13Z</time>
      </trkpt>
      <trkpt lat="44.86466" lon="0.63424">
        <ele>116.1</ele>
        <time>2023-08-06T08:34:14Z</time>
      </trkpt>
      <trkpt lat="44.86466" lon="0.63421">
        <ele>115.9</ele>
        <time>2023-08-06T08:34:15Z</time>
      </trkpt>
      <trkpt lat="44.86467" lon="0.63418">
        <ele>115.6</ele>
        <time>2023-08-06T08:34:16Z</time>
      </trkpt>
      <trkpt lat="44.86468" lon="0.63415">
        <ele>115.4</ele>
        <time>2023-08-06T08:34:17Z</time>
      </trkpt>
      <trkpt lat="44.86467" lon="0.63411">
        <ele>115.2</ele>
        <time>2023-08-06T08:34:18Z</time>
      </trkpt>
      <trkpt lat="44.86467" lon="0.63408">
        <ele>115.1</ele>
        <time>2023-08-06T08:34:19Z</time>
      </trkpt>
      <trkpt lat="44.86468" lon="0.63405">
        <ele>115</ele>
        <time>2023-08-06T08:34:20Z</time>
      </trkpt>
      <trkpt lat="44.86467" lon="0.63402">
        <ele>114.8</ele>
        <time>2023-08-06T08:34:21Z</time>
      </trkpt>
      <trkpt lat="44.86466" lon="0.63399">
        <ele>114.8</ele>
        <time>2023-08-06T08:34:22Z</time>
      </trkpt>
      <trkpt lat="44.86465" lon="0.63394">
        <ele>114.7</ele>
        <time>2023-08-06T08:34:23Z</time>
      </trkpt>
      <trkpt lat="44.86463" lon="0.6339">
        <ele>114.6</ele>
        <time>2023-08-06T08:34:24Z</time>
      </trkpt>
      <trkpt lat="44.86462" lon="0.6338">
        <ele>114.7</ele>
        <time>2023-08-06T08:34:26Z</time>
      </trkpt>
      <trkpt lat="44.86461" lon="0.63375">
        <ele>114.7</ele>
        <time>2023-08-06T08:34:27Z</time>
      </trkpt>
      <trkpt lat="44.8646" lon="0.63369">
        <ele>114.7</ele>
        <time>2023-08-06T08:34:28Z</time>
      </trkpt>
      <trkpt lat="44.8646" lon="0.63363">
        <ele>114.6</ele>
        <time>2023-08-06T08:34:29Z</time>
      </trkpt>
      <trkpt lat="44.86459" lon="0.63355">
        <ele>114.3</ele>
        <time>2023-08-06T08:34:30Z</time>
      </trkpt>
      <trkpt lat="44.86458" lon="0.63348">
        <ele>114.2</ele>
        <time>2023-08-06T08:34:31Z</time>
      </trkpt>
      <trkpt lat="44.86456" lon="0.63342">
        <ele>114.1</ele>
        <time>2023-08-06T08:34:32Z</time>
      </trkpt>
      <trkpt lat="44.86449" lon="0.63334">
        <ele>114.1</ele>
        <time>2023-08-06T08:34:34Z</time>
      </trkpt>
      <trkpt lat="44.86444" lon="0.63329">
        <ele>114.2</ele>
        <time>2023-08-06T08:34:35Z</time>
      </trkpt>
      <trkpt lat="44.8644" lon="0.63324">
        <ele>114.1</ele>
        <time>2023-08-06T08:34:36Z</time>
      </trkpt>
      <trkpt lat="44.86437" lon="0.63317">
        <ele>113.7</ele>
        <time>2023-08-06T08:34:37Z</time>
      </trkpt>
      <trkpt lat="44.86434" lon="0.63311">
        <ele>113.5</ele>
        <time>2023-08-06T08:34:38Z</time>
      </trkpt>
      <trkpt lat="44.86428" lon="0.63297">
        <ele>112.8</ele>
        <time>2023-08-06T08:34:40Z</time>
      </trkpt>
      <trkpt lat="44.86423" lon="0.63283">
        <ele>112</ele>
        <time>2023-08-06T08:34:42Z</time>
      </trkpt>
      <trkpt lat="44.8642" lon="0.63277">
        <ele>111.4</ele>
        <time>2023-08-06T08:34:43Z</time>
      </trkpt>
      <trkpt lat="44.86417" lon="0.63271">
        <ele>111.1</ele>
        <time>2023-08-06T08:34:44Z</time>
      </trkpt>
      <trkpt lat="44.86412" lon="0.63262">
        <ele>110.5</ele>
        <time>2023-08-06T08:34:46Z</time>
      </trkpt>
      <trkpt lat="44.86408" lon="0.63255">
        <ele>110.1</ele>
        <time>2023-08-06T08:34:48Z</time>
      </trkpt>
      <trkpt lat="44.86405" lon="0.63248">
        <ele>109.3</ele>
        <time>2023-08-06T08:34:50Z</time>
      </trkpt>
      <trkpt lat="44.86403" lon="0.63242">
        <ele>109.2</ele>
        <time>2023-08-06T08:34:52Z</time>
      </trkpt>
      <trkpt lat="44.86401" lon="0.63239">
        <ele>109.1</ele>
        <time>2023-08-06T08:34:53Z</time>
      </trkpt>
      <trkpt lat="44.864" lon="0.63236">
        <ele>109.1</ele>
        <time>2023-08-06T08:34:54Z</time>
      </trkpt>
      <trkpt lat="44.86396" lon="0.63231">
        <ele>108.6</ele>
        <time>2023-08-06T08:34:56Z</time>
      </trkpt>
      <trkpt lat="44.86392" lon="0.63222">
        <ele>108.5</ele>
        <time>2023-08-06T08:34:59Z</time>
      </trkpt>
      <trkpt lat="44.86388" lon="0.63216">
        <ele>108.4</ele>
        <time>2023-08-06T08:35:01Z</time>
      </trkpt>
      <trkpt lat="44.86385" lon="0.63209">
        <ele>108.1</ele>
        <time>2023-08-06T08:35:03Z</time>
      </trkpt>
      <trkpt lat="44.8638" lon="0.63201">
        <ele>108.1</ele>
        <time>2023-08-06T08:35:05Z</time>
      </trkpt>
      <trkpt lat="44.86376" lon="0.63193">
        <ele>108.1</ele>
        <time>2023-08-06T08:35:07Z</time>
      </trkpt>
      <trkpt lat="44.86373" lon="0.6319">
        <ele>108.1</ele>
        <time>2023-08-06T08:35:08Z</time>
      </trkpt>
      <trkpt lat="44.86371" lon="0.63185">
        <ele>108.1</ele>
        <time>2023-08-06T08:35:09Z</time>
      </trkpt>
      <trkpt lat="44.86366" lon="0.63177">
        <ele>107.8</ele>
        <time>2023-08-06T08:35:11Z</time>
      </trkpt>
      <trkpt lat="44.86356" lon="0.63164">
        <ele>108.4</ele>
        <time>2023-08-06T08:35:14Z</time>
      </trkpt>
      <trkpt lat="44.86352" lon="0.63159">
        <ele>108.3</ele>
        <time>2023-08-06T08:35:15Z</time>
      </trkpt>
      <trkpt lat="44.8634" lon="0.63142">
        <ele>107.9</ele>
        <time>2023-08-06T08:35:18Z</time>
      </trkpt>
      <trkpt lat="44.86336" lon="0.63136">
        <ele>107.1</ele>
        <time>2023-08-06T08:35:19Z</time>
      </trkpt>
      <trkpt lat="44.86332" lon="0.63129">
        <ele>107.1</ele>
        <time>2023-08-06T08:35:20Z</time>
      </trkpt>
      <trkpt lat="44.86323" lon="0.63117">
        <ele>106.3</ele>
        <time>2023-08-06T08:35:22Z</time>
      </trkpt>
      <trkpt lat="44.86319" lon="0.6311">
        <ele>106.1</ele>
        <time>2023-08-06T08:35:23Z</time>
      </trkpt>
      <trkpt lat="44.86316" lon="0.63102">
        <ele>105.6</ele>
        <time>2023-08-06T08:35:24Z</time>
      </trkpt>
      <trkpt lat="44.86308" lon="0.63086">
        <ele>105</ele>
        <time>2023-08-06T08:35:26Z</time>
      </trkpt>
      <trkpt lat="44.86304" lon="0.63078">
        <ele>104.8</ele>
        <time>2023-08-06T08:35:27Z</time>
      </trkpt>
      <trkpt lat="44.86299" lon="0.63071">
        <ele>104.3</ele>
        <time>2023-08-06T08:35:28Z</time>
      </trkpt>
      <trkpt lat="44.86288" lon="0.63059">
        <ele>104.1</ele>
        <time>2023-08-06T08:35:30Z</time>
      </trkpt>
      <trkpt lat="44.86276" lon="0.63048">
        <ele>104</ele>
        <time>2023-08-06T08:35:32Z</time>
      </trkpt>
      <trkpt lat="44.86271" lon="0.63044">
        <ele>103.5</ele>
        <time>2023-08-06T08:35:33Z</time>
      </trkpt>
      <trkpt lat="44.86268" lon="0.6304">
        <ele>102.9</ele>
        <time>2023-08-06T08:35:34Z</time>
      </trkpt>
      <trkpt lat="44.86266" lon="0.63036">
        <ele>102.4</ele>
        <time>2023-08-06T08:35:35Z</time>
      </trkpt>
      <trkpt lat="44.86267" lon="0.63032">
        <ele>101.9</ele>
        <time>2023-08-06T08:35:36Z</time>
      </trkpt>
      <trkpt lat="44.8627" lon="0.63029">
        <ele>101.5</ele>
        <time>2023-08-06T08:35:37Z</time>
      </trkpt>
      <trkpt lat="44.86274" lon="0.63027">
        <ele>101.5</ele>
        <time>2023-08-06T08:35:38Z</time>
      </trkpt>
      <trkpt lat="44.86279" lon="0.63024">
        <ele>101.2</ele>
        <time>2023-08-06T08:35:39Z</time>
      </trkpt>
      <trkpt lat="44.86282" lon="0.6302">
        <ele>100.7</ele>
        <time>2023-08-06T08:35:40Z</time>
      </trkpt>
      <trkpt lat="44.86284" lon="0.63016">
        <ele>100.3</ele>
        <time>2023-08-06T08:35:41Z</time>
      </trkpt>
      <trkpt lat="44.86279" lon="0.63008">
        <ele>99.4</ele>
        <time>2023-08-06T08:35:43Z</time>
      </trkpt>
      <trkpt lat="44.86274" lon="0.63005">
        <ele>99.3</ele>
        <time>2023-08-06T08:35:44Z</time>
      </trkpt>
      <trkpt lat="44.86268" lon="0.63003">
        <ele>98.8</ele>
        <time>2023-08-06T08:35:45Z</time>
      </trkpt>
      <trkpt lat="44.86264" lon="0.63001">
        <ele>98.6</ele>
        <time>2023-08-06T08:35:46Z</time>
      </trkpt>
      <trkpt lat="44.86263" lon="0.62998">
        <ele>98.2</ele>
        <time>2023-08-06T08:35:47Z</time>
      </trkpt>
      <trkpt lat="44.86266" lon="0.62993">
        <ele>97.8</ele>
        <time>2023-08-06T08:35:49Z</time>
      </trkpt>
      <trkpt lat="44.86269" lon="0.62992">
        <ele>97.9</ele>
        <time>2023-08-06T08:35:50Z</time>
      </trkpt>
      <trkpt lat="44.86274" lon="0.62991">
        <ele>97.6</ele>
        <time>2023-08-06T08:35:51Z</time>
      </trkpt>
      <trkpt lat="44.8628" lon="0.62987">
        <ele>97.3</ele>
        <time>2023-08-06T08:35:53Z</time>
      </trkpt>
      <trkpt lat="44.86284" lon="0.62983">
        <ele>97.3</ele>
        <time>2023-08-06T08:35:55Z</time>
      </trkpt>
      <trkpt lat="44.86283" lon="0.62982">
        <ele>97</ele>
        <time>2023-08-06T08:35:56Z</time>
      </trkpt>
      <trkpt lat="44.86281" lon="0.62982">
        <ele>97</ele>
        <time>2023-08-06T08:35:57Z</time>
      </trkpt>
      <trkpt lat="44.86273" lon="0.62981">
        <ele>96.9</ele>
        <time>2023-08-06T08:35:59Z</time>
      </trkpt>
      <trkpt lat="44.86269" lon="0.62978">
        <ele>96.5</ele>
        <time>2023-08-06T08:36:00Z</time>
      </trkpt>
      <trkpt lat="44.86266" lon="0.62975">
        <ele>96.4</ele>
        <time>2023-08-06T08:36:01Z</time>
      </trkpt>
      <trkpt lat="44.86261" lon="0.62973">
        <ele>95.9</ele>
        <time>2023-08-06T08:36:02Z</time>
      </trkpt>
      <trkpt lat="44.86255" lon="0.62971">
        <ele>95.6</ele>
        <time>2023-08-06T08:36:03Z</time>
      </trkpt>
      <trkpt lat="44.8625" lon="0.62968">
        <ele>95</ele>
        <time>2023-08-06T08:36:04Z</time>
      </trkpt>
      <trkpt lat="44.86245" lon="0.62964">
        <ele>94.5</ele>
        <time>2023-08-06T08:36:05Z</time>
      </trkpt>
      <trkpt lat="44.86239" lon="0.6296">
        <ele>93.7</ele>
        <time>2023-08-06T08:36:06Z</time>
      </trkpt>
      <trkpt lat="44.86233" lon="0.62959">
        <ele>93.3</ele>
        <time>2023-08-06T08:36:07Z</time>
      </trkpt>
      <trkpt lat="44.86226" lon="0.62958">
        <ele>92.8</ele>
        <time>2023-08-06T08:36:08Z</time>
      </trkpt>
      <trkpt lat="44.86221" lon="0.62955">
        <ele>91.8</ele>
        <time>2023-08-06T08:36:09Z</time>
      </trkpt>
      <trkpt lat="44.86217" lon="0.62951">
        <ele>91</ele>
        <time>2023-08-06T08:36:10Z</time>
      </trkpt>
      <trkpt lat="44.86214" lon="0.62941">
        <ele>89.7</ele>
        <time>2023-08-06T08:36:12Z</time>
      </trkpt>
      <trkpt lat="44.86214" lon="0.62938">
        <ele>89.2</ele>
        <time>2023-08-06T08:36:13Z</time>
      </trkpt>
      <trkpt lat="44.86213" lon="0.62933">
        <ele>88.5</ele>
        <time>2023-08-06T08:36:14Z</time>
      </trkpt>
      <trkpt lat="44.86208" lon="0.62924">
        <ele>87.3</ele>
        <time>2023-08-06T08:36:16Z</time>
      </trkpt>
      <trkpt lat="44.862" lon="0.62914">
        <ele>85.4</ele>
        <time>2023-08-06T08:36:18Z</time>
      </trkpt>
      <trkpt lat="44.86194" lon="0.62911">
        <ele>84</ele>
        <time>2023-08-06T08:36:19Z</time>
      </trkpt>
      <trkpt lat="44.86187" lon="0.62908">
        <ele>82.5</ele>
        <time>2023-08-06T08:36:20Z</time>
      </trkpt>
      <trkpt lat="44.86177" lon="0.62899">
        <ele>79.2</ele>
        <time>2023-08-06T08:36:22Z</time>
      </trkpt>
      <trkpt lat="44.86175" lon="0.62894">
        <ele>78.8</ele>
        <time>2023-08-06T08:36:24Z</time>
      </trkpt>
      <trkpt lat="44.86175" lon="0.62883">
        <ele>77.6</ele>
        <time>2023-08-06T08:36:26Z</time>
      </trkpt>
      <trkpt lat="44.8617" lon="0.62863">
        <ele>75.2</ele>
        <time>2023-08-06T08:36:28Z</time>
      </trkpt>
      <trkpt lat="44.86171" lon="0.62855">
        <ele>74.8</ele>
        <time>2023-08-06T08:36:29Z</time>
      </trkpt>
      <trkpt lat="44.86172" lon="0.6285">
        <ele>75.1</ele>
        <time>2023-08-06T08:36:30Z</time>
      </trkpt>
      <trkpt lat="44.86167" lon="0.62845">
        <ele>73.7</ele>
        <time>2023-08-06T08:36:32Z</time>
      </trkpt>
      <trkpt lat="44.8616" lon="0.62843">
        <ele>73.5</ele>
        <time>2023-08-06T08:36:34Z</time>
      </trkpt>
      <trkpt lat="44.86153" lon="0.62841">
        <ele>73.4</ele>
        <time>2023-08-06T08:36:36Z</time>
      </trkpt>
      <trkpt lat="44.86144" lon="0.6284">
        <ele>73.3</ele>
        <time>2023-08-06T08:36:38Z</time>
      </trkpt>
      <trkpt lat="44.86135" lon="0.6284">
        <ele>73.3</ele>
        <time>2023-08-06T08:36:40Z</time>
      </trkpt>
      <trkpt lat="44.8613" lon="0.62841">
        <ele>73.2</ele>
        <time>2023-08-06T08:36:41Z</time>
      </trkpt>
      <trkpt lat="44.86126" lon="0.62842">
        <ele>73.2</ele>
        <time>2023-08-06T08:36:42Z</time>
      </trkpt>
      <trkpt lat="44.86118" lon="0.62844">
        <ele>73.2</ele>
        <time>2023-08-06T08:36:44Z</time>
      </trkpt>
      <trkpt lat="44.86112" lon="0.62848">
        <ele>73.2</ele>
        <time>2023-08-06T08:36:46Z</time>
      </trkpt>
      <trkpt lat="44.86105" lon="0.62851">
        <ele>73.2</ele>
        <time>2023-08-06T08:36:48Z</time>
      </trkpt>
      <trkpt lat="44.86099" lon="0.62854">
        <ele>73.3</ele>
        <time>2023-08-06T08:36:50Z</time>
      </trkpt>
      <trkpt lat="44.86095" lon="0.62856">
        <ele>73.3</ele>
        <time>2023-08-06T08:36:51Z</time>
      </trkpt>
      <trkpt lat="44.8609" lon="0.62858">
        <ele>73.3</ele>
        <time>2023-08-06T08:36:52Z</time>
      </trkpt>
      <trkpt lat="44.86082" lon="0.62862">
        <ele>73.4</ele>
        <time>2023-08-06T08:36:54Z</time>
      </trkpt>
      <trkpt lat="44.86078" lon="0.62864">
        <ele>73.4</ele>
        <time>2023-08-06T08:36:55Z</time>
      </trkpt>
      <trkpt lat="44.86074" lon="0.62867">
        <ele>73.4</ele>
        <time>2023-08-06T08:36:56Z</time>
      </trkpt>
      <trkpt lat="44.86065" lon="0.62871">
        <ele>73.5</ele>
        <time>2023-08-06T08:36:58Z</time>
      </trkpt>
      <trkpt lat="44.86057" lon="0.62874">
        <ele>73.5</ele>
        <time>2023-08-06T08:37:00Z</time>
      </trkpt>
      <trkpt lat="44.86053" lon="0.62876">
        <ele>73.6</ele>
        <time>2023-08-06T08:37:01Z</time>
      </trkpt>
      <trkpt lat="44.86049" lon="0.62877">
        <ele>73.6</ele>
        <time>2023-08-06T08:37:02Z</time>
      </trkpt>
      <trkpt lat="44.86045" lon="0.62879">
        <ele>73.6</ele>
        <time>2023-08-06T08:37:03Z</time>
      </trkpt>
      <trkpt lat="44.86041" lon="0.62881">
        <ele>73.6</ele>
        <time>2023-08-06T08:37:04Z</time>
      </trkpt>
      <trkpt lat="44.86038" lon="0.62883">
        <ele>73.7</ele>
        <time>2023-08-06T08:37:05Z</time>
      </trkpt>
      <trkpt lat="44.86035" lon="0.62885">
        <ele>73.7</ele>
        <time>2023-08-06T08:37:06Z</time>
      </trkpt>
      <trkpt lat="44.86028" lon="0.62889">
        <ele>73.7</ele>
        <time>2023-08-06T08:37:08Z</time>
      </trkpt>
      <trkpt lat="44.8602" lon="0.62894">
        <ele>73.8</ele>
        <time>2023-08-06T08:37:10Z</time>
      </trkpt>
      <trkpt lat="44.86016" lon="0.62896">
        <ele>73.8</ele>
        <time>2023-08-06T08:37:11Z</time>
      </trkpt>
      <trkpt lat="44.86012" lon="0.62898">
        <ele>73.9</ele>
        <time>2023-08-06T08:37:12Z</time>
      </trkpt>
      <trkpt lat="44.86004" lon="0.629">
        <ele>73.9</ele>
        <time>2023-08-06T08:37:14Z</time>
      </trkpt>
      <trkpt lat="44.85999" lon="0.62901">
        <ele>74</ele>
        <time>2023-08-06T08:37:15Z</time>
      </trkpt>
      <trkpt lat="44.85995" lon="0.62901">
        <ele>74</ele>
        <time>2023-08-06T08:37:16Z</time>
      </trkpt>
      <trkpt lat="44.85991" lon="0.62901">
        <ele>74</ele>
        <time>2023-08-06T08:37:17Z</time>
      </trkpt>
      <trkpt lat="44.85986" lon="0.629">
        <ele>74.1</ele>
        <time>2023-08-06T08:37:18Z</time>
      </trkpt>
      <trkpt lat="44.85978" lon="0.62898">
        <ele>74.1</ele>
        <time>2023-08-06T08:37:20Z</time>
      </trkpt>
      <trkpt lat="44.8597" lon="0.62896">
        <ele>74.2</ele>
        <time>2023-08-06T08:37:22Z</time>
      </trkpt>
      <trkpt lat="44.85961" lon="0.62894">
        <ele>74.3</ele>
        <time>2023-08-06T08:37:24Z</time>
      </trkpt>
      <trkpt lat="44.85957" lon="0.62894">
        <ele>74.4</ele>
        <time>2023-08-06T08:37:25Z</time>
      </trkpt>
      <trkpt lat="44.85953" lon="0.62894">
        <ele>74.5</ele>
        <time>2023-08-06T08:37:26Z</time>
      </trkpt>
      <trkpt lat="44.85948" lon="0.62894">
        <ele>74.6</ele>
        <time>2023-08-06T08:37:27Z</time>
      </trkpt>
      <trkpt lat="44.85944" lon="0.62895">
        <ele>74.7</ele>
        <time>2023-08-06T08:37:28Z</time>
      </trkpt>
      <trkpt lat="44.85937" lon="0.62897">
        <ele>74.9</ele>
        <time>2023-08-06T08:37:30Z</time>
      </trkpt>
      <trkpt lat="44.85931" lon="0.62902">
        <ele>75</ele>
        <time>2023-08-06T08:37:32Z</time>
      </trkpt>
      <trkpt lat="44.85925" lon="0.62906">
        <ele>75.2</ele>
        <time>2023-08-06T08:37:34Z</time>
      </trkpt>
      <trkpt lat="44.85923" lon="0.62908">
        <ele>75.3</ele>
        <time>2023-08-06T08:37:35Z</time>
      </trkpt>
      <trkpt lat="44.8592" lon="0.62909">
        <ele>75.3</ele>
        <time>2023-08-06T08:37:36Z</time>
      </trkpt>
      <trkpt lat="44.85914" lon="0.62913">
        <ele>75.5</ele>
        <time>2023-08-06T08:37:38Z</time>
      </trkpt>
      <trkpt lat="44.85909" lon="0.62917">
        <ele>75.7</ele>
        <time>2023-08-06T08:37:40Z</time>
      </trkpt>
      <trkpt lat="44.85904" lon="0.6292">
        <ele>75.9</ele>
        <time>2023-08-06T08:37:42Z</time>
      </trkpt>
      <trkpt lat="44.85901" lon="0.6292">
        <ele>76</ele>
        <time>2023-08-06T08:37:43Z</time>
      </trkpt>
      <trkpt lat="44.85899" lon="0.62918">
        <ele>76.6</ele>
        <time>2023-08-06T08:37:44Z</time>
      </trkpt>
      <trkpt lat="44.85899" lon="0.62915">
        <ele>76.5</ele>
        <time>2023-08-06T08:37:45Z</time>
      </trkpt>
      <trkpt lat="44.85899" lon="0.62913">
        <ele>77</ele>
        <time>2023-08-06T08:37:46Z</time>
      </trkpt>
      <trkpt lat="44.859" lon="0.62908">
        <ele>77.4</ele>
        <time>2023-08-06T08:37:48Z</time>
      </trkpt>
      <trkpt lat="44.85902" lon="0.62903">
        <ele>77.6</ele>
        <time>2023-08-06T08:37:50Z</time>
      </trkpt>
      <trkpt lat="44.85904" lon="0.62897">
        <ele>77.8</ele>
        <time>2023-08-06T08:37:52Z</time>
      </trkpt>
      <trkpt lat="44.85905" lon="0.62891">
        <ele>78.7</ele>
        <time>2023-08-06T08:37:54Z</time>
      </trkpt>
      <trkpt lat="44.85906" lon="0.62888">
        <ele>79.1</ele>
        <time>2023-08-06T08:37:55Z</time>
      </trkpt>
      <trkpt lat="44.85907" lon="0.62885">
        <ele>78.8</ele>
        <time>2023-08-06T08:37:56Z</time>
      </trkpt>
      <trkpt lat="44.85908" lon="0.62879">
        <ele>79.6</ele>
        <time>2023-08-06T08:37:58Z</time>
      </trkpt>
      <trkpt lat="44.85909" lon="0.62872">
        <ele>80</ele>
        <time>2023-08-06T08:38:00Z</time>
      </trkpt>
      <trkpt lat="44.8591" lon="0.62869">
        <ele>80.2</ele>
        <time>2023-08-06T08:38:01Z</time>
      </trkpt>
      <trkpt lat="44.8591" lon="0.62866">
        <ele>80.6</ele>
        <time>2023-08-06T08:38:02Z</time>
      </trkpt>
      <trkpt lat="44.85911" lon="0.6286">
        <ele>81</ele>
        <time>2023-08-06T08:38:04Z</time>
      </trkpt>
      <trkpt lat="44.85911" lon="0.62855">
        <ele>81.4</ele>
        <time>2023-08-06T08:38:06Z</time>
      </trkpt>
      <trkpt lat="44.85912" lon="0.62852">
        <ele>81.7</ele>
        <time>2023-08-06T08:38:07Z</time>
      </trkpt>
      <trkpt lat="44.85912" lon="0.6285">
        <ele>81.7</ele>
        <time>2023-08-06T08:38:08Z</time>
      </trkpt>
      <trkpt lat="44.85912" lon="0.62845">
        <ele>82.4</ele>
        <time>2023-08-06T08:38:10Z</time>
      </trkpt>
      <trkpt lat="44.85912" lon="0.6284">
        <ele>82.8</ele>
        <time>2023-08-06T08:38:12Z</time>
      </trkpt>
      <trkpt lat="44.85913" lon="0.62835">
        <ele>82.9</ele>
        <time>2023-08-06T08:38:14Z</time>
      </trkpt>
      <trkpt lat="44.85913" lon="0.6283">
        <ele>83.3</ele>
        <time>2023-08-06T08:38:16Z</time>
      </trkpt>
      <trkpt lat="44.85913" lon="0.62824">
        <ele>83.6</ele>
        <time>2023-08-06T08:38:18Z</time>
      </trkpt>
      <trkpt lat="44.85913" lon="0.62819">
        <ele>84.4</ele>
        <time>2023-08-06T08:38:20Z</time>
      </trkpt>
      <trkpt lat="44.85914" lon="0.62814">
        <ele>84.7</ele>
        <time>2023-08-06T08:38:22Z</time>
      </trkpt>
      <trkpt lat="44.85914" lon="0.62811">
        <ele>84.7</ele>
        <time>2023-08-06T08:38:23Z</time>
      </trkpt>
      <trkpt lat="44.85914" lon="0.62809">
        <ele>85</ele>
        <time>2023-08-06T08:38:24Z</time>
      </trkpt>
      <trkpt lat="44.85913" lon="0.62805">
        <ele>85.3</ele>
        <time>2023-08-06T08:38:26Z</time>
      </trkpt>
      <trkpt lat="44.85914" lon="0.62801">
        <ele>85.6</ele>
        <time>2023-08-06T08:38:28Z</time>
      </trkpt>
      <trkpt lat="44.85915" lon="0.62799">
        <ele>85.5</ele>
        <time>2023-08-06T08:38:29Z</time>
      </trkpt>
      <trkpt lat="44.85917" lon="0.62797">
        <ele>85.6</ele>
        <time>2023-08-06T08:38:30Z</time>
      </trkpt>
      <trkpt lat="44.85923" lon="0.62792">
        <ele>85.5</ele>
        <time>2023-08-06T08:38:32Z</time>
      </trkpt>
      <trkpt lat="44.85926" lon="0.6279">
        <ele>85.4</ele>
        <time>2023-08-06T08:38:33Z</time>
      </trkpt>
      <trkpt lat="44.8593" lon="0.62788">
        <ele>85.5</ele>
        <time>2023-08-06T08:38:34Z</time>
      </trkpt>
      <trkpt lat="44.85937" lon="0.62784">
        <ele>85.7</ele>
        <time>2023-08-06T08:38:36Z</time>
      </trkpt>
      <trkpt lat="44.8594" lon="0.62777">
        <ele>85.9</ele>
        <time>2023-08-06T08:38:38Z</time>
      </trkpt>
      <trkpt lat="44.8594" lon="0.62771">
        <ele>86.6</ele>
        <time>2023-08-06T08:38:40Z</time>
      </trkpt>
      <trkpt lat="44.85941" lon="0.62765">
        <ele>86.9</ele>
        <time>2023-08-06T08:38:42Z</time>
      </trkpt>
      <trkpt lat="44.8594" lon="0.62762">
        <ele>87.2</ele>
        <time>2023-08-06T08:38:43Z</time>
      </trkpt>
      <trkpt lat="44.8594" lon="0.62759">
        <ele>87.4</ele>
        <time>2023-08-06T08:38:44Z</time>
      </trkpt>
      <trkpt lat="44.8594" lon="0.62752">
        <ele>87.7</ele>
        <time>2023-08-06T08:38:46Z</time>
      </trkpt>
      <trkpt lat="44.8594" lon="0.62747">
        <ele>88.1</ele>
        <time>2023-08-06T08:38:48Z</time>
      </trkpt>
      <trkpt lat="44.85939" lon="0.62744">
        <ele>88.1</ele>
        <time>2023-08-06T08:38:49Z</time>
      </trkpt>
      <trkpt lat="44.85939" lon="0.62741">
        <ele>88.3</ele>
        <time>2023-08-06T08:38:50Z</time>
      </trkpt>
      <trkpt lat="44.85939" lon="0.62736">
        <ele>88.4</ele>
        <time>2023-08-06T08:38:52Z</time>
      </trkpt>
      <trkpt lat="44.85939" lon="0.62731">
        <ele>88.6</ele>
        <time>2023-08-06T08:38:54Z</time>
      </trkpt>
      <trkpt lat="44.85938" lon="0.62725">
        <ele>88.7</ele>
        <time>2023-08-06T08:38:56Z</time>
      </trkpt>
      <trkpt lat="44.85938" lon="0.62723">
        <ele>88.8</ele>
        <time>2023-08-06T08:38:57Z</time>
      </trkpt>
      <trkpt lat="44.85938" lon="0.62721">
        <ele>89</ele>
        <time>2023-08-06T08:38:58Z</time>
      </trkpt>
      <trkpt lat="44.85937" lon="0.62716">
        <ele>89.1</ele>
        <time>2023-08-06T08:39:00Z</time>
      </trkpt>
      <trkpt lat="44.85936" lon="0.62714">
        <ele>89</ele>
        <time>2023-08-06T08:39:01Z</time>
      </trkpt>
      <trkpt lat="44.85934" lon="0.62712">
        <ele>89.1</ele>
        <time>2023-08-06T08:39:02Z</time>
      </trkpt>
      <trkpt lat="44.85931" lon="0.6271">
        <ele>89</ele>
        <time>2023-08-06T08:39:04Z</time>
      </trkpt>
      <trkpt lat="44.85928" lon="0.62708">
        <ele>89</ele>
        <time>2023-08-06T08:39:06Z</time>
      </trkpt>
      <trkpt lat="44.85925" lon="0.62708">
        <ele>89.1</ele>
        <time>2023-08-06T08:39:08Z</time>
      </trkpt>
      <trkpt lat="44.85923" lon="0.62708">
        <ele>88.9</ele>
        <time>2023-08-06T08:39:09Z</time>
      </trkpt>
      <trkpt lat="44.85922" lon="0.62709">
        <ele>88.8</ele>
        <time>2023-08-06T08:39:10Z</time>
      </trkpt>
      <trkpt lat="44.85918" lon="0.6271">
        <ele>88.8</ele>
        <time>2023-08-06T08:39:12Z</time>
      </trkpt>
      <trkpt lat="44.85917" lon="0.62711">
        <ele>88.8</ele>
        <time>2023-08-06T08:39:13Z</time>
      </trkpt>
      <trkpt lat="44.85915" lon="0.62711">
        <ele>88.8</ele>
        <time>2023-08-06T08:39:14Z</time>
      </trkpt>
      <trkpt lat="44.85912" lon="0.62712">
        <ele>88.6</ele>
        <time>2023-08-06T08:39:16Z</time>
      </trkpt>
      <trkpt lat="44.85909" lon="0.62713">
        <ele>88.6</ele>
        <time>2023-08-06T08:39:18Z</time>
      </trkpt>
      <trkpt lat="44.85906" lon="0.62714">
        <ele>88.7</ele>
        <time>2023-08-06T08:39:20Z</time>
      </trkpt>
      <trkpt lat="44.85902" lon="0.62714">
        <ele>88.7</ele>
        <time>2023-08-06T08:39:22Z</time>
      </trkpt>
      <trkpt lat="44.85899" lon="0.62715">
        <ele>88.8</ele>
        <time>2023-08-06T08:39:24Z</time>
      </trkpt>
      <trkpt lat="44.85897" lon="0.62717">
        <ele>88.7</ele>
        <time>2023-08-06T08:39:26Z</time>
      </trkpt>
      <trkpt lat="44.85894" lon="0.62718">
        <ele>88.8</ele>
        <time>2023-08-06T08:39:28Z</time>
      </trkpt>
      <trkpt lat="44.8589" lon="0.62719">
        <ele>89</ele>
        <time>2023-08-06T08:39:30Z</time>
      </trkpt>
      <trkpt lat="44.85889" lon="0.62719">
        <ele>88.9</ele>
        <time>2023-08-06T08:39:31Z</time>
      </trkpt>
      <trkpt lat="44.85887" lon="0.6272">
        <ele>89.1</ele>
        <time>2023-08-06T08:39:32Z</time>
      </trkpt>
      <trkpt lat="44.85884" lon="0.6272">
        <ele>89.2</ele>
        <time>2023-08-06T08:39:34Z</time>
      </trkpt>
      <trkpt lat="44.85881" lon="0.62721">
        <ele>89.4</ele>
        <time>2023-08-06T08:39:36Z</time>
      </trkpt>
      <trkpt lat="44.85878" lon="0.62721">
        <ele>89.3</ele>
        <time>2023-08-06T08:39:38Z</time>
      </trkpt>
      <trkpt lat="44.85874" lon="0.62722">
        <ele>89.4</ele>
        <time>2023-08-06T08:39:40Z</time>
      </trkpt>
      <trkpt lat="44.85871" lon="0.62723">
        <ele>89.6</ele>
        <time>2023-08-06T08:39:42Z</time>
      </trkpt>
      <trkpt lat="44.85868" lon="0.62724">
        <ele>89.7</ele>
        <time>2023-08-06T08:39:44Z</time>
      </trkpt>
      <trkpt lat="44.85864" lon="0.62724">
        <ele>90</ele>
        <time>2023-08-06T08:39:46Z</time>
      </trkpt>
      <trkpt lat="44.8586" lon="0.62725">
        <ele>90.1</ele>
        <time>2023-08-06T08:39:48Z</time>
      </trkpt>
      <trkpt lat="44.85856" lon="0.62726">
        <ele>90.1</ele>
        <time>2023-08-06T08:39:50Z</time>
      </trkpt>
      <trkpt lat="44.85851" lon="0.62728">
        <ele>90.3</ele>
        <time>2023-08-06T08:39:52Z</time>
      </trkpt>
      <trkpt lat="44.85847" lon="0.62729">
        <ele>90.4</ele>
        <time>2023-08-06T08:39:54Z</time>
      </trkpt>
      <trkpt lat="44.85844" lon="0.6273">
        <ele>90.4</ele>
        <time>2023-08-06T08:39:55Z</time>
      </trkpt>
      <trkpt lat="44.85842" lon="0.6273">
        <ele>90.5</ele>
        <time>2023-08-06T08:39:56Z</time>
      </trkpt>
      <trkpt lat="44.85837" lon="0.6273">
        <ele>90.6</ele>
        <time>2023-08-06T08:39:58Z</time>
      </trkpt>
      <trkpt lat="44.85832" lon="0.62731">
        <ele>90.8</ele>
        <time>2023-08-06T08:40:00Z</time>
      </trkpt>
      <trkpt lat="44.85827" lon="0.62732">
        <ele>91</ele>
        <time>2023-08-06T08:40:02Z</time>
      </trkpt>
      <trkpt lat="44.85821" lon="0.62733">
        <ele>91</ele>
        <time>2023-08-06T08:40:04Z</time>
      </trkpt>
      <trkpt lat="44.85818" lon="0.62734">
        <ele>90.9</ele>
        <time>2023-08-06T08:40:05Z</time>
      </trkpt>
      <trkpt lat="44.85815" lon="0.62735">
        <ele>91.1</ele>
        <time>2023-08-06T08:40:06Z</time>
      </trkpt>
      <trkpt lat="44.85808" lon="0.62736">
        <ele>91.2</ele>
        <time>2023-08-06T08:40:08Z</time>
      </trkpt>
      <trkpt lat="44.85801" lon="0.62737">
        <ele>91.3</ele>
        <time>2023-08-06T08:40:10Z</time>
      </trkpt>
      <trkpt lat="44.85797" lon="0.62738">
        <ele>91.3</ele>
        <time>2023-08-06T08:40:11Z</time>
      </trkpt>
      <trkpt lat="44.85794" lon="0.62739">
        <ele>91.2</ele>
        <time>2023-08-06T08:40:12Z</time>
      </trkpt>
      <trkpt lat="44.85786" lon="0.62739">
        <ele>91.2</ele>
        <time>2023-08-06T08:40:14Z</time>
      </trkpt>
      <trkpt lat="44.85783" lon="0.62736">
        <ele>91.4</ele>
        <time>2023-08-06T08:40:15Z</time>
      </trkpt>
      <trkpt lat="44.85782" lon="0.62732">
        <ele>91.5</ele>
        <time>2023-08-06T08:40:16Z</time>
      </trkpt>
      <trkpt lat="44.85783" lon="0.62724">
        <ele>91.8</ele>
        <time>2023-08-06T08:40:18Z</time>
      </trkpt>
      <trkpt lat="44.85785" lon="0.62717">
        <ele>92.1</ele>
        <time>2023-08-06T08:40:20Z</time>
      </trkpt>
      <trkpt lat="44.85787" lon="0.62711">
        <ele>92.5</ele>
        <time>2023-08-06T08:40:22Z</time>
      </trkpt>
      <trkpt lat="44.85789" lon="0.62704">
        <ele>92.8</ele>
        <time>2023-08-06T08:40:24Z</time>
      </trkpt>
      <trkpt lat="44.8579" lon="0.62701">
        <ele>92.9</ele>
        <time>2023-08-06T08:40:25Z</time>
      </trkpt>
      <trkpt lat="44.8579" lon="0.62698">
        <ele>93</ele>
        <time>2023-08-06T08:40:26Z</time>
      </trkpt>
      <trkpt lat="44.85792" lon="0.62691">
        <ele>93.3</ele>
        <time>2023-08-06T08:40:28Z</time>
      </trkpt>
      <trkpt lat="44.85793" lon="0.62685">
        <ele>93.6</ele>
        <time>2023-08-06T08:40:30Z</time>
      </trkpt>
      <trkpt lat="44.85795" lon="0.62679">
        <ele>93.9</ele>
        <time>2023-08-06T08:40:32Z</time>
      </trkpt>
      <trkpt lat="44.85796" lon="0.62674">
        <ele>94.1</ele>
        <time>2023-08-06T08:40:34Z</time>
      </trkpt>
      <trkpt lat="44.85797" lon="0.62671">
        <ele>94.2</ele>
        <time>2023-08-06T08:40:35Z</time>
      </trkpt>
      <trkpt lat="44.85797" lon="0.62668">
        <ele>94.4</ele>
        <time>2023-08-06T08:40:36Z</time>
      </trkpt>
      <trkpt lat="44.85799" lon="0.62662">
        <ele>94.7</ele>
        <time>2023-08-06T08:40:38Z</time>
      </trkpt>
      <trkpt lat="44.85801" lon="0.62655">
        <ele>95</ele>
        <time>2023-08-06T08:40:40Z</time>
      </trkpt>
      <trkpt lat="44.85802" lon="0.62652">
        <ele>95.1</ele>
        <time>2023-08-06T08:40:41Z</time>
      </trkpt>
      <trkpt lat="44.85803" lon="0.62648">
        <ele>95.3</ele>
        <time>2023-08-06T08:40:42Z</time>
      </trkpt>
      <trkpt lat="44.85804" lon="0.62642">
        <ele>95.6</ele>
        <time>2023-08-06T08:40:44Z</time>
      </trkpt>
      <trkpt lat="44.85805" lon="0.62636">
        <ele>95.9</ele>
        <time>2023-08-06T08:40:46Z</time>
      </trkpt>
      <trkpt lat="44.85808" lon="0.6263">
        <ele>96.2</ele>
        <time>2023-08-06T08:40:48Z</time>
      </trkpt>
      <trkpt lat="44.85809" lon="0.62626">
        <ele>96.3</ele>
        <time>2023-08-06T08:40:49Z</time>
      </trkpt>
      <trkpt lat="44.85809" lon="0.62623">
        <ele>96.5</ele>
        <time>2023-08-06T08:40:50Z</time>
      </trkpt>
      <trkpt lat="44.85811" lon="0.62617">
        <ele>96.7</ele>
        <time>2023-08-06T08:40:52Z</time>
      </trkpt>
      <trkpt lat="44.85813" lon="0.62612">
        <ele>97</ele>
        <time>2023-08-06T08:40:54Z</time>
      </trkpt>
      <trkpt lat="44.85815" lon="0.62606">
        <ele>97.3</ele>
        <time>2023-08-06T08:40:56Z</time>
      </trkpt>
      <trkpt lat="44.85816" lon="0.62603">
        <ele>97.4</ele>
        <time>2023-08-06T08:40:57Z</time>
      </trkpt>
      <trkpt lat="44.85817" lon="0.626">
        <ele>97.5</ele>
        <time>2023-08-06T08:40:58Z</time>
      </trkpt>
      <trkpt lat="44.85817" lon="0.62597">
        <ele>97.7</ele>
        <time>2023-08-06T08:40:59Z</time>
      </trkpt>
      <trkpt lat="44.85818" lon="0.62594">
        <ele>97.8</ele>
        <time>2023-08-06T08:41:00Z</time>
      </trkpt>
      <trkpt lat="44.85819" lon="0.62591">
        <ele>97.9</ele>
        <time>2023-08-06T08:41:01Z</time>
      </trkpt>
      <trkpt lat="44.8582" lon="0.62589">
        <ele>98</ele>
        <time>2023-08-06T08:41:02Z</time>
      </trkpt>
      <trkpt lat="44.85822" lon="0.62584">
        <ele>98.2</ele>
        <time>2023-08-06T08:41:04Z</time>
      </trkpt>
      <trkpt lat="44.85823" lon="0.62581">
        <ele>98.3</ele>
        <time>2023-08-06T08:41:05Z</time>
      </trkpt>
      <trkpt lat="44.85824" lon="0.62579">
        <ele>98.4</ele>
        <time>2023-08-06T08:41:06Z</time>
      </trkpt>
      <trkpt lat="44.85826" lon="0.62574">
        <ele>98.6</ele>
        <time>2023-08-06T08:41:08Z</time>
      </trkpt>
      <trkpt lat="44.85828" lon="0.62569">
        <ele>98.8</ele>
        <time>2023-08-06T08:41:10Z</time>
      </trkpt>
      <trkpt lat="44.8583" lon="0.62564">
        <ele>98.9</ele>
        <time>2023-08-06T08:41:12Z</time>
      </trkpt>
      <trkpt lat="44.85832" lon="0.62559">
        <ele>99.1</ele>
        <time>2023-08-06T08:41:14Z</time>
      </trkpt>
      <trkpt lat="44.85834" lon="0.62553">
        <ele>99.3</ele>
        <time>2023-08-06T08:41:16Z</time>
      </trkpt>
      <trkpt lat="44.85836" lon="0.62548">
        <ele>99.5</ele>
        <time>2023-08-06T08:41:18Z</time>
      </trkpt>
      <trkpt lat="44.85837" lon="0.62544">
        <ele>99.6</ele>
        <time>2023-08-06T08:41:19Z</time>
      </trkpt>
      <trkpt lat="44.85838" lon="0.62541">
        <ele>99.7</ele>
        <time>2023-08-06T08:41:20Z</time>
      </trkpt>
      <trkpt lat="44.8584" lon="0.62536">
        <ele>99.8</ele>
        <time>2023-08-06T08:41:22Z</time>
      </trkpt>
      <trkpt lat="44.85843" lon="0.6253">
        <ele>100</ele>
        <time>2023-08-06T08:41:24Z</time>
      </trkpt>
      <trkpt lat="44.85845" lon="0.62523">
        <ele>100.2</ele>
        <time>2023-08-06T08:41:26Z</time>
      </trkpt>
      <trkpt lat="44.85848" lon="0.62516">
        <ele>100.3</ele>
        <time>2023-08-06T08:41:28Z</time>
      </trkpt>
      <trkpt lat="44.8585" lon="0.6251">
        <ele>100.5</ele>
        <time>2023-08-06T08:41:30Z</time>
      </trkpt>
      <trkpt lat="44.85853" lon="0.62504">
        <ele>100.6</ele>
        <time>2023-08-06T08:41:32Z</time>
      </trkpt>
      <trkpt lat="44.85855" lon="0.62498">
        <ele>100.8</ele>
        <time>2023-08-06T08:41:34Z</time>
      </trkpt>
      <trkpt lat="44.85857" lon="0.62495">
        <ele>100.8</ele>
        <time>2023-08-06T08:41:35Z</time>
      </trkpt>
      <trkpt lat="44.85858" lon="0.62492">
        <ele>100.9</ele>
        <time>2023-08-06T08:41:36Z</time>
      </trkpt>
      <trkpt lat="44.85861" lon="0.62486">
        <ele>101</ele>
        <time>2023-08-06T08:41:38Z</time>
      </trkpt>
      <trkpt lat="44.85863" lon="0.62481">
        <ele>101.2</ele>
        <time>2023-08-06T08:41:40Z</time>
      </trkpt>
      <trkpt lat="44.85866" lon="0.62476">
        <ele>101.3</ele>
        <time>2023-08-06T08:41:42Z</time>
      </trkpt>
      <trkpt lat="44.85869" lon="0.62471">
        <ele>101.4</ele>
        <time>2023-08-06T08:41:44Z</time>
      </trkpt>
      <trkpt lat="44.85872" lon="0.62467">
        <ele>101.6</ele>
        <time>2023-08-06T08:41:46Z</time>
      </trkpt>
      <trkpt lat="44.85875" lon="0.62461">
        <ele>101.7</ele>
        <time>2023-08-06T08:41:48Z</time>
      </trkpt>
      <trkpt lat="44.85876" lon="0.62458">
        <ele>101.8</ele>
        <time>2023-08-06T08:41:49Z</time>
      </trkpt>
      <trkpt lat="44.85877" lon="0.62456">
        <ele>101.9</ele>
        <time>2023-08-06T08:41:50Z</time>
      </trkpt>
      <trkpt lat="44.85878" lon="0.62453">
        <ele>101.9</ele>
        <time>2023-08-06T08:41:51Z</time>
      </trkpt>
      <trkpt lat="44.8588" lon="0.62451">
        <ele>102</ele>
        <time>2023-08-06T08:41:52Z</time>
      </trkpt>
      <trkpt lat="44.85882" lon="0.62446">
        <ele>102.1</ele>
        <time>2023-08-06T08:41:54Z</time>
      </trkpt>
      <trkpt lat="44.85883" lon="0.62443">
        <ele>102.2</ele>
        <time>2023-08-06T08:41:55Z</time>
      </trkpt>
      <trkpt lat="44.85884" lon="0.62441">
        <ele>102.3</ele>
        <time>2023-08-06T08:41:56Z</time>
      </trkpt>
      <trkpt lat="44.85887" lon="0.62435">
        <ele>102.4</ele>
        <time>2023-08-06T08:41:58Z</time>
      </trkpt>
      <trkpt lat="44.85889" lon="0.62431">
        <ele>102.6</ele>
        <time>2023-08-06T08:42:00Z</time>
      </trkpt>
      <trkpt lat="44.85892" lon="0.62427">
        <ele>102.8</ele>
        <time>2023-08-06T08:42:02Z</time>
      </trkpt>
      <trkpt lat="44.85895" lon="0.62422">
        <ele>102.9</ele>
        <time>2023-08-06T08:42:04Z</time>
      </trkpt>
      <trkpt lat="44.85897" lon="0.62418">
        <ele>103.1</ele>
        <time>2023-08-06T08:42:06Z</time>
      </trkpt>
      <trkpt lat="44.85898" lon="0.62416">
        <ele>103.2</ele>
        <time>2023-08-06T08:42:07Z</time>
      </trkpt>
      <trkpt lat="44.859" lon="0.62414">
        <ele>103.3</ele>
        <time>2023-08-06T08:42:08Z</time>
      </trkpt>
      <trkpt lat="44.85902" lon="0.6241">
        <ele>103.4</ele>
        <time>2023-08-06T08:42:10Z</time>
      </trkpt>
      <trkpt lat="44.85905" lon="0.62406">
        <ele>103.6</ele>
        <time>2023-08-06T08:42:12Z</time>
      </trkpt>
      <trkpt lat="44.85907" lon="0.62405">
        <ele>103.7</ele>
        <time>2023-08-06T08:42:13Z</time>
      </trkpt>
      <trkpt lat="44.85908" lon="0.62403">
        <ele>103.7</ele>
        <time>2023-08-06T08:42:14Z</time>
      </trkpt>
      <trkpt lat="44.85911" lon="0.62399">
        <ele>103.9</ele>
        <time>2023-08-06T08:42:16Z</time>
      </trkpt>
      <trkpt lat="44.85912" lon="0.62395">
        <ele>104.1</ele>
        <time>2023-08-06T08:42:18Z</time>
      </trkpt>
      <trkpt lat="44.85911" lon="0.62393">
        <ele>104.1</ele>
        <time>2023-08-06T08:42:19Z</time>
      </trkpt>
      <trkpt lat="44.8591" lon="0.62391">
        <ele>104.2</ele>
        <time>2023-08-06T08:42:20Z</time>
      </trkpt>
      <trkpt lat="44.85908" lon="0.62386">
        <ele>104.4</ele>
        <time>2023-08-06T08:42:22Z</time>
      </trkpt>
      <trkpt lat="44.85908" lon="0.62384">
        <ele>104.5</ele>
        <time>2023-08-06T08:42:23Z</time>
      </trkpt>
      <trkpt lat="44.85908" lon="0.62382">
        <ele>104.5</ele>
        <time>2023-08-06T08:42:24Z</time>
      </trkpt>
      <trkpt lat="44.8591" lon="0.62378">
        <ele>104.7</ele>
        <time>2023-08-06T08:42:26Z</time>
      </trkpt>
      <trkpt lat="44.85911" lon="0.62374">
        <ele>104.8</ele>
        <time>2023-08-06T08:42:28Z</time>
      </trkpt>
      <trkpt lat="44.85914" lon="0.62371">
        <ele>105</ele>
        <time>2023-08-06T08:42:30Z</time>
      </trkpt>
      <trkpt lat="44.85916" lon="0.6237">
        <ele>105.1</ele>
        <time>2023-08-06T08:42:31Z</time>
      </trkpt>
      <trkpt lat="44.85918" lon="0.62368">
        <ele>105.1</ele>
        <time>2023-08-06T08:42:32Z</time>
      </trkpt>
      <trkpt lat="44.8592" lon="0.62364">
        <ele>105.3</ele>
        <time>2023-08-06T08:42:34Z</time>
      </trkpt>
      <trkpt lat="44.85923" lon="0.6236">
        <ele>105.5</ele>
        <time>2023-08-06T08:42:36Z</time>
      </trkpt>
      <trkpt lat="44.85925" lon="0.62356">
        <ele>105.6</ele>
        <time>2023-08-06T08:42:38Z</time>
      </trkpt>
      <trkpt lat="44.85926" lon="0.62352">
        <ele>105.8</ele>
        <time>2023-08-06T08:42:40Z</time>
      </trkpt>
      <trkpt lat="44.85928" lon="0.62348">
        <ele>106</ele>
        <time>2023-08-06T08:42:42Z</time>
      </trkpt>
      <trkpt lat="44.8593" lon="0.62344">
        <ele>106.2</ele>
        <time>2023-08-06T08:42:44Z</time>
      </trkpt>
      <trkpt lat="44.85933" lon="0.6234">
        <ele>106.4</ele>
        <time>2023-08-06T08:42:46Z</time>
      </trkpt>
      <trkpt lat="44.85935" lon="0.62338">
        <ele>106.5</ele>
        <time>2023-08-06T08:42:47Z</time>
      </trkpt>
      <trkpt lat="44.85936" lon="0.62337">
        <ele>106.5</ele>
        <time>2023-08-06T08:42:48Z</time>
      </trkpt>
      <trkpt lat="44.85939" lon="0.62333">
        <ele>106.7</ele>
        <time>2023-08-06T08:42:50Z</time>
      </trkpt>
      <trkpt lat="44.85942" lon="0.62329">
        <ele>106.9</ele>
        <time>2023-08-06T08:42:52Z</time>
      </trkpt>
      <trkpt lat="44.85944" lon="0.62325">
        <ele>107.1</ele>
        <time>2023-08-06T08:42:54Z</time>
      </trkpt>
      <trkpt lat="44.85947" lon="0.62321">
        <ele>107.3</ele>
        <time>2023-08-06T08:42:56Z</time>
      </trkpt>
      <trkpt lat="44.85949" lon="0.62317">
        <ele>107.5</ele>
        <time>2023-08-06T08:42:58Z</time>
      </trkpt>
      <trkpt lat="44.85951" lon="0.62313">
        <ele>107.7</ele>
        <time>2023-08-06T08:43:00Z</time>
      </trkpt>
      <trkpt lat="44.85954" lon="0.62308">
        <ele>107.9</ele>
        <time>2023-08-06T08:43:02Z</time>
      </trkpt>
      <trkpt lat="44.85955" lon="0.62306">
        <ele>108</ele>
        <time>2023-08-06T08:43:03Z</time>
      </trkpt>
      <trkpt lat="44.85956" lon="0.62304">
        <ele>108.1</ele>
        <time>2023-08-06T08:43:04Z</time>
      </trkpt>
      <trkpt lat="44.85957" lon="0.62302">
        <ele>108.2</ele>
        <time>2023-08-06T08:43:05Z</time>
      </trkpt>
      <trkpt lat="44.85958" lon="0.623">
        <ele>108.3</ele>
        <time>2023-08-06T08:43:06Z</time>
      </trkpt>
      <trkpt lat="44.8596" lon="0.62296">
        <ele>108.5</ele>
        <time>2023-08-06T08:43:08Z</time>
      </trkpt>
      <trkpt lat="44.85962" lon="0.62292">
        <ele>108.7</ele>
        <time>2023-08-06T08:43:10Z</time>
      </trkpt>
      <trkpt lat="44.85964" lon="0.6229">
        <ele>108.8</ele>
        <time>2023-08-06T08:43:11Z</time>
      </trkpt>
      <trkpt lat="44.85965" lon="0.62288">
        <ele>108.9</ele>
        <time>2023-08-06T08:43:12Z</time>
      </trkpt>
      <trkpt lat="44.85967" lon="0.62284">
        <ele>109.1</ele>
        <time>2023-08-06T08:43:14Z</time>
      </trkpt>
      <trkpt lat="44.85968" lon="0.62282">
        <ele>109.2</ele>
        <time>2023-08-06T08:43:15Z</time>
      </trkpt>
      <trkpt lat="44.8597" lon="0.6228">
        <ele>109.3</ele>
        <time>2023-08-06T08:43:16Z</time>
      </trkpt>
      <trkpt lat="44.85972" lon="0.62276">
        <ele>109.5</ele>
        <time>2023-08-06T08:43:18Z</time>
      </trkpt>
      <trkpt lat="44.85975" lon="0.62271">
        <ele>109.7</ele>
        <time>2023-08-06T08:43:20Z</time>
      </trkpt>
      <trkpt lat="44.85977" lon="0.62267">
        <ele>109.9</ele>
        <time>2023-08-06T08:43:22Z</time>
      </trkpt>
      <trkpt lat="44.8598" lon="0.62262">
        <ele>110.1</ele>
        <time>2023-08-06T08:43:24Z</time>
      </trkpt>
      <trkpt lat="44.85983" lon="0.62257">
        <ele>110.4</ele>
        <time>2023-08-06T08:43:26Z</time>
      </trkpt>
      <trkpt lat="44.85985" lon="0.62252">
        <ele>110.6</ele>
        <time>2023-08-06T08:43:28Z</time>
      </trkpt>
      <trkpt lat="44.85988" lon="0.62247">
        <ele>110.7</ele>
        <time>2023-08-06T08:43:30Z</time>
      </trkpt>
      <trkpt lat="44.8599" lon="0.62243">
        <ele>110.9</ele>
        <time>2023-08-06T08:43:32Z</time>
      </trkpt>
      <trkpt lat="44.85991" lon="0.6224">
        <ele>111</ele>
        <time>2023-08-06T08:43:33Z</time>
      </trkpt>
      <trkpt lat="44.85992" lon="0.62238">
        <ele>111.1</ele>
        <time>2023-08-06T08:43:34Z</time>
      </trkpt>
      <trkpt lat="44.85994" lon="0.62232">
        <ele>111.2</ele>
        <time>2023-08-06T08:43:36Z</time>
      </trkpt>
      <trkpt lat="44.85997" lon="0.62227">
        <ele>111.4</ele>
        <time>2023-08-06T08:43:38Z</time>
      </trkpt>
      <trkpt lat="44.85999" lon="0.62221">
        <ele>111.5</ele>
        <time>2023-08-06T08:43:40Z</time>
      </trkpt>
      <trkpt lat="44.86001" lon="0.62215">
        <ele>111.7</ele>
        <time>2023-08-06T08:43:42Z</time>
      </trkpt>
      <trkpt lat="44.86003" lon="0.6221">
        <ele>111.8</ele>
        <time>2023-08-06T08:43:44Z</time>
      </trkpt>
      <trkpt lat="44.86005" lon="0.62204">
        <ele>112</ele>
        <time>2023-08-06T08:43:46Z</time>
      </trkpt>
      <trkpt lat="44.86007" lon="0.62199">
        <ele>112.1</ele>
        <time>2023-08-06T08:43:48Z</time>
      </trkpt>
      <trkpt lat="44.86009" lon="0.62192">
        <ele>112.2</ele>
        <time>2023-08-06T08:43:50Z</time>
      </trkpt>
      <trkpt lat="44.86011" lon="0.62186">
        <ele>112.4</ele>
        <time>2023-08-06T08:43:52Z</time>
      </trkpt>
      <trkpt lat="44.86013" lon="0.6218">
        <ele>112.5</ele>
        <time>2023-08-06T08:43:54Z</time>
      </trkpt>
      <trkpt lat="44.86015" lon="0.62173">
        <ele>112.7</ele>
        <time>2023-08-06T08:43:56Z</time>
      </trkpt>
      <trkpt lat="44.86018" lon="0.62167">
        <ele>112.9</ele>
        <time>2023-08-06T08:43:58Z</time>
      </trkpt>
      <trkpt lat="44.8602" lon="0.62162">
        <ele>113</ele>
        <time>2023-08-06T08:44:00Z</time>
      </trkpt>
      <trkpt lat="44.86022" lon="0.62156">
        <ele>113.2</ele>
        <time>2023-08-06T08:44:02Z</time>
      </trkpt>
      <trkpt lat="44.86022" lon="0.62153">
        <ele>113.3</ele>
        <time>2023-08-06T08:44:03Z</time>
      </trkpt>
      <trkpt lat="44.86023" lon="0.6215">
        <ele>113.4</ele>
        <time>2023-08-06T08:44:04Z</time>
      </trkpt>
      <trkpt lat="44.86025" lon="0.62145">
        <ele>113.5</ele>
        <time>2023-08-06T08:44:06Z</time>
      </trkpt>
      <trkpt lat="44.86027" lon="0.6214">
        <ele>113.7</ele>
        <time>2023-08-06T08:44:08Z</time>
      </trkpt>
      <trkpt lat="44.86028" lon="0.62137">
        <ele>113.8</ele>
        <time>2023-08-06T08:44:09Z</time>
      </trkpt>
      <trkpt lat="44.86029" lon="0.62134">
        <ele>113.9</ele>
        <time>2023-08-06T08:44:10Z</time>
      </trkpt>
      <trkpt lat="44.86031" lon="0.62128">
        <ele>114</ele>
        <time>2023-08-06T08:44:12Z</time>
      </trkpt>
      <trkpt lat="44.86033" lon="0.62122">
        <ele>114.2</ele>
        <time>2023-08-06T08:44:14Z</time>
      </trkpt>
      <trkpt lat="44.86035" lon="0.62116">
        <ele>114.4</ele>
        <time>2023-08-06T08:44:16Z</time>
      </trkpt>
      <trkpt lat="44.86037" lon="0.62109">
        <ele>114.6</ele>
        <time>2023-08-06T08:44:18Z</time>
      </trkpt>
      <trkpt lat="44.86039" lon="0.62102">
        <ele>114.8</ele>
        <time>2023-08-06T08:44:20Z</time>
      </trkpt>
      <trkpt lat="44.8604" lon="0.62099">
        <ele>114.9</ele>
        <time>2023-08-06T08:44:21Z</time>
      </trkpt>
      <trkpt lat="44.86042" lon="0.62096">
        <ele>115</ele>
        <time>2023-08-06T08:44:22Z</time>
      </trkpt>
      <trkpt lat="44.86044" lon="0.6209">
        <ele>115.2</ele>
        <time>2023-08-06T08:44:24Z</time>
      </trkpt>
      <trkpt lat="44.86046" lon="0.62084">
        <ele>115.3</ele>
        <time>2023-08-06T08:44:26Z</time>
      </trkpt>
      <trkpt lat="44.86048" lon="0.62078">
        <ele>115.4</ele>
        <time>2023-08-06T08:44:28Z</time>
      </trkpt>
      <trkpt lat="44.86051" lon="0.62072">
        <ele>115.5</ele>
        <time>2023-08-06T08:44:30Z</time>
      </trkpt>
      <trkpt lat="44.86052" lon="0.62069">
        <ele>115.5</ele>
        <time>2023-08-06T08:44:31Z</time>
      </trkpt>
      <trkpt lat="44.86053" lon="0.62066">
        <ele>115.6</ele>
        <time>2023-08-06T08:44:32Z</time>
      </trkpt>
      <trkpt lat="44.86057" lon="0.62059">
        <ele>115.6</ele>
        <time>2023-08-06T08:44:34Z</time>
      </trkpt>
      <trkpt lat="44.8606" lon="0.62053">
        <ele>115.7</ele>
        <time>2023-08-06T08:44:36Z</time>
      </trkpt>
      <trkpt lat="44.86064" lon="0.62048">
        <ele>115.7</ele>
        <time>2023-08-06T08:44:38Z</time>
      </trkpt>
      <trkpt lat="44.86067" lon="0.62046">
        <ele>115.7</ele>
        <time>2023-08-06T08:44:39Z</time>
      </trkpt>
      <trkpt lat="44.86069" lon="0.62043">
        <ele>115.7</ele>
        <time>2023-08-06T08:44:40Z</time>
      </trkpt>
      <trkpt lat="44.86074" lon="0.62039">
        <ele>115.8</ele>
        <time>2023-08-06T08:44:42Z</time>
      </trkpt>
      <trkpt lat="44.86079" lon="0.62035">
        <ele>115.8</ele>
        <time>2023-08-06T08:44:44Z</time>
      </trkpt>
      <trkpt lat="44.86085" lon="0.62033">
        <ele>115.7</ele>
        <time>2023-08-06T08:44:46Z</time>
      </trkpt>
      <trkpt lat="44.86091" lon="0.6203">
        <ele>115.7</ele>
        <time>2023-08-06T08:44:48Z</time>
      </trkpt>
      <trkpt lat="44.86097" lon="0.62027">
        <ele>115.7</ele>
        <time>2023-08-06T08:44:50Z</time>
      </trkpt>
      <trkpt lat="44.86101" lon="0.62026">
        <ele>115.7</ele>
        <time>2023-08-06T08:44:51Z</time>
      </trkpt>
      <trkpt lat="44.86104" lon="0.62024">
        <ele>115.7</ele>
        <time>2023-08-06T08:44:52Z</time>
      </trkpt>
      <trkpt lat="44.86111" lon="0.62021">
        <ele>115.7</ele>
        <time>2023-08-06T08:44:54Z</time>
      </trkpt>
      <trkpt lat="44.86114" lon="0.6202">
        <ele>115.7</ele>
        <time>2023-08-06T08:44:55Z</time>
      </trkpt>
      <trkpt lat="44.86118" lon="0.62018">
        <ele>115.7</ele>
        <time>2023-08-06T08:44:56Z</time>
      </trkpt>
      <trkpt lat="44.86124" lon="0.62015">
        <ele>115.7</ele>
        <time>2023-08-06T08:44:58Z</time>
      </trkpt>
      <trkpt lat="44.8613" lon="0.62012">
        <ele>115.8</ele>
        <time>2023-08-06T08:45:00Z</time>
      </trkpt>
      <trkpt lat="44.86133" lon="0.6201">
        <ele>115.8</ele>
        <time>2023-08-06T08:45:01Z</time>
      </trkpt>
      <trkpt lat="44.86136" lon="0.62008">
        <ele>115.8</ele>
        <time>2023-08-06T08:45:02Z</time>
      </trkpt>
      <trkpt lat="44.86142" lon="0.62003">
        <ele>115.9</ele>
        <time>2023-08-06T08:45:04Z</time>
      </trkpt>
      <trkpt lat="44.86148" lon="0.61998">
        <ele>116</ele>
        <time>2023-08-06T08:45:06Z</time>
      </trkpt>
      <trkpt lat="44.8615" lon="0.61996">
        <ele>116</ele>
        <time>2023-08-06T08:45:07Z</time>
      </trkpt>
      <trkpt lat="44.86153" lon="0.61994">
        <ele>116.1</ele>
        <time>2023-08-06T08:45:08Z</time>
      </trkpt>
      <trkpt lat="44.86157" lon="0.61989">
        <ele>116.2</ele>
        <time>2023-08-06T08:45:10Z</time>
      </trkpt>
      <trkpt lat="44.86159" lon="0.61986">
        <ele>116.3</ele>
        <time>2023-08-06T08:45:11Z</time>
      </trkpt>
      <trkpt lat="44.86161" lon="0.61984">
        <ele>116.4</ele>
        <time>2023-08-06T08:45:12Z</time>
      </trkpt>
      <trkpt lat="44.86161" lon="0.6198">
        <ele>116.5</ele>
        <time>2023-08-06T08:45:13Z</time>
      </trkpt>
      <trkpt lat="44.8616" lon="0.61976">
        <ele>116.5</ele>
        <time>2023-08-06T08:45:14Z</time>
      </trkpt>
      <trkpt lat="44.86159" lon="0.61973">
        <ele>116.5</ele>
        <time>2023-08-06T08:45:15Z</time>
      </trkpt>
      <trkpt lat="44.86156" lon="0.61971">
        <ele>116.4</ele>
        <time>2023-08-06T08:45:16Z</time>
      </trkpt>
      <trkpt lat="44.86153" lon="0.61971">
        <ele>116.3</ele>
        <time>2023-08-06T08:45:17Z</time>
      </trkpt>
      <trkpt lat="44.8615" lon="0.61971">
        <ele>116.3</ele>
        <time>2023-08-06T08:45:18Z</time>
      </trkpt>
      <trkpt lat="44.86146" lon="0.61971">
        <ele>116.2</ele>
        <time>2023-08-06T08:45:20Z</time>
      </trkpt>
      <trkpt lat="44.86143" lon="0.6197">
        <ele>116.1</ele>
        <time>2023-08-06T08:45:22Z</time>
      </trkpt>
      <trkpt lat="44.86139" lon="0.61969">
        <ele>116</ele>
        <time>2023-08-06T08:45:24Z</time>
      </trkpt>
      <trkpt lat="44.86134" lon="0.61964">
        <ele>116</ele>
        <time>2023-08-06T08:45:26Z</time>
      </trkpt>
      <trkpt lat="44.86131" lon="0.61962">
        <ele>116</ele>
        <time>2023-08-06T08:45:27Z</time>
      </trkpt>
      <trkpt lat="44.86129" lon="0.6196">
        <ele>116</ele>
        <time>2023-08-06T08:45:28Z</time>
      </trkpt>
      <trkpt lat="44.86124" lon="0.61957">
        <ele>116.1</ele>
        <time>2023-08-06T08:45:30Z</time>
      </trkpt>
      <trkpt lat="44.86119" lon="0.61954">
        <ele>116.2</ele>
        <time>2023-08-06T08:45:32Z</time>
      </trkpt>
      <trkpt lat="44.86115" lon="0.61951">
        <ele>116.3</ele>
        <time>2023-08-06T08:45:34Z</time>
      </trkpt>
      <trkpt lat="44.86112" lon="0.61949">
        <ele>116.4</ele>
        <time>2023-08-06T08:45:35Z</time>
      </trkpt>
      <trkpt lat="44.8611" lon="0.61947">
        <ele>116.4</ele>
        <time>2023-08-06T08:45:36Z</time>
      </trkpt>
      <trkpt lat="44.86105" lon="0.61944">
        <ele>116.6</ele>
        <time>2023-08-06T08:45:38Z</time>
      </trkpt>
      <trkpt lat="44.861" lon="0.61941">
        <ele>116.7</ele>
        <time>2023-08-06T08:45:40Z</time>
      </trkpt>
      <trkpt lat="44.86095" lon="0.61938">
        <ele>116.8</ele>
        <time>2023-08-06T08:45:42Z</time>
      </trkpt>
      <trkpt lat="44.86091" lon="0.61934">
        <ele>117</ele>
        <time>2023-08-06T08:45:44Z</time>
      </trkpt>
      <trkpt lat="44.86086" lon="0.61931">
        <ele>117.1</ele>
        <time>2023-08-06T08:45:46Z</time>
      </trkpt>
      <trkpt lat="44.86081" lon="0.61929">
        <ele>117.2</ele>
        <time>2023-08-06T08:45:48Z</time>
      </trkpt>
      <trkpt lat="44.86076" lon="0.61926">
        <ele>117.3</ele>
        <time>2023-08-06T08:45:50Z</time>
      </trkpt>
      <trkpt lat="44.86074" lon="0.61925">
        <ele>117.4</ele>
        <time>2023-08-06T08:45:51Z</time>
      </trkpt>
      <trkpt lat="44.86071" lon="0.61923">
        <ele>117.5</ele>
        <time>2023-08-06T08:45:52Z</time>
      </trkpt>
      <trkpt lat="44.86066" lon="0.6192">
        <ele>117.6</ele>
        <time>2023-08-06T08:45:54Z</time>
      </trkpt>
      <trkpt lat="44.86061" lon="0.61916">
        <ele>117.7</ele>
        <time>2023-08-06T08:45:56Z</time>
      </trkpt>
      <trkpt lat="44.86056" lon="0.61914">
        <ele>117.8</ele>
        <time>2023-08-06T08:45:58Z</time>
      </trkpt>
      <trkpt lat="44.86053" lon="0.61912">
        <ele>117.9</ele>
        <time>2023-08-06T08:45:59Z</time>
      </trkpt>
      <trkpt lat="44.86051" lon="0.61911">
        <ele>117.9</ele>
        <time>2023-08-06T08:46:00Z</time>
      </trkpt>
      <trkpt lat="44.86046" lon="0.61908">
        <ele>118</ele>
        <time>2023-08-06T08:46:02Z</time>
      </trkpt>
      <trkpt lat="44.86041" lon="0.61906">
        <ele>118.1</ele>
        <time>2023-08-06T08:46:04Z</time>
      </trkpt>
      <trkpt lat="44.86036" lon="0.61903">
        <ele>118.2</ele>
        <time>2023-08-06T08:46:06Z</time>
      </trkpt>
      <trkpt lat="44.86031" lon="0.619">
        <ele>118.3</ele>
        <time>2023-08-06T08:46:08Z</time>
      </trkpt>
      <trkpt lat="44.86026" lon="0.61897">
        <ele>118.3</ele>
        <time>2023-08-06T08:46:10Z</time>
      </trkpt>
      <trkpt lat="44.86019" lon="0.61893">
        <ele>118.4</ele>
        <time>2023-08-06T08:46:12Z</time>
      </trkpt>
      <trkpt lat="44.86014" lon="0.6189">
        <ele>118.4</ele>
        <time>2023-08-06T08:46:14Z</time>
      </trkpt>
      <trkpt lat="44.86011" lon="0.61889">
        <ele>118.4</ele>
        <time>2023-08-06T08:46:15Z</time>
      </trkpt>
      <trkpt lat="44.86008" lon="0.61887">
        <ele>118.5</ele>
        <time>2023-08-06T08:46:16Z</time>
      </trkpt>
      <trkpt lat="44.86002" lon="0.61884">
        <ele>118.5</ele>
        <time>2023-08-06T08:46:18Z</time>
      </trkpt>
      <trkpt lat="44.85996" lon="0.61881">
        <ele>118.5</ele>
        <time>2023-08-06T08:46:20Z</time>
      </trkpt>
      <trkpt lat="44.85991" lon="0.61878">
        <ele>118.6</ele>
        <time>2023-08-06T08:46:22Z</time>
      </trkpt>
      <trkpt lat="44.85985" lon="0.61876">
        <ele>118.6</ele>
        <time>2023-08-06T08:46:24Z</time>
      </trkpt>
      <trkpt lat="44.8598" lon="0.61873">
        <ele>118.6</ele>
        <time>2023-08-06T08:46:26Z</time>
      </trkpt>
      <trkpt lat="44.85977" lon="0.61871">
        <ele>118.6</ele>
        <time>2023-08-06T08:46:27Z</time>
      </trkpt>
      <trkpt lat="44.85974" lon="0.6187">
        <ele>118.6</ele>
        <time>2023-08-06T08:46:28Z</time>
      </trkpt>
      <trkpt lat="44.85967" lon="0.61867">
        <ele>118.6</ele>
        <time>2023-08-06T08:46:30Z</time>
      </trkpt>
      <trkpt lat="44.85961" lon="0.61864">
        <ele>118.6</ele>
        <time>2023-08-06T08:46:32Z</time>
      </trkpt>
      <trkpt lat="44.85958" lon="0.61862">
        <ele>118.6</ele>
        <time>2023-08-06T08:46:33Z</time>
      </trkpt>
      <trkpt lat="44.85955" lon="0.61861">
        <ele>118.7</ele>
        <time>2023-08-06T08:46:34Z</time>
      </trkpt>
      <trkpt lat="44.85949" lon="0.61857">
        <ele>118.8</ele>
        <time>2023-08-06T08:46:36Z</time>
      </trkpt>
      <trkpt lat="44.85943" lon="0.61854">
        <ele>118.9</ele>
        <time>2023-08-06T08:46:38Z</time>
      </trkpt>
      <trkpt lat="44.85937" lon="0.61851">
        <ele>119.1</ele>
        <time>2023-08-06T08:46:40Z</time>
      </trkpt>
      <trkpt lat="44.85934" lon="0.61849">
        <ele>119.1</ele>
        <time>2023-08-06T08:46:41Z</time>
      </trkpt>
      <trkpt lat="44.85932" lon="0.61847">
        <ele>119.2</ele>
        <time>2023-08-06T08:46:42Z</time>
      </trkpt>
      <trkpt lat="44.85927" lon="0.61845">
        <ele>119.3</ele>
        <time>2023-08-06T08:46:44Z</time>
      </trkpt>
      <trkpt lat="44.85923" lon="0.61843">
        <ele>119.4</ele>
        <time>2023-08-06T08:46:46Z</time>
      </trkpt>
      <trkpt lat="44.8592" lon="0.61842">
        <ele>119.4</ele>
        <time>2023-08-06T08:46:47Z</time>
      </trkpt>
      <trkpt lat="44.85918" lon="0.61841">
        <ele>119.4</ele>
        <time>2023-08-06T08:46:48Z</time>
      </trkpt>
      <trkpt lat="44.85915" lon="0.61837">
        <ele>119.4</ele>
        <time>2023-08-06T08:46:50Z</time>
      </trkpt>
      <trkpt lat="44.85914" lon="0.61834">
        <ele>119.3</ele>
        <time>2023-08-06T08:46:51Z</time>
      </trkpt>
      <trkpt lat="44.85914" lon="0.61831">
        <ele>119.3</ele>
        <time>2023-08-06T08:46:52Z</time>
      </trkpt>
      <trkpt lat="44.85916" lon="0.61824">
        <ele>119.1</ele>
        <time>2023-08-06T08:46:54Z</time>
      </trkpt>
      <trkpt lat="44.85917" lon="0.61821">
        <ele>119.1</ele>
        <time>2023-08-06T08:46:55Z</time>
      </trkpt>
      <trkpt lat="44.85916" lon="0.61818">
        <ele>119</ele>
        <time>2023-08-06T08:46:56Z</time>
      </trkpt>
      <trkpt lat="44.85907" lon="0.61814">
        <ele>118.8</ele>
        <time>2023-08-06T08:46:58Z</time>
      </trkpt>
      <trkpt lat="44.85898" lon="0.61813">
        <ele>118.4</ele>
        <time>2023-08-06T08:47:00Z</time>
      </trkpt>
      <trkpt lat="44.8589" lon="0.61814">
        <ele>118</ele>
        <time>2023-08-06T08:47:02Z</time>
      </trkpt>
      <trkpt lat="44.85882" lon="0.61814">
        <ele>117.5</ele>
        <time>2023-08-06T08:47:04Z</time>
      </trkpt>
      <trkpt lat="44.85873" lon="0.61815">
        <ele>117</ele>
        <time>2023-08-06T08:47:06Z</time>
      </trkpt>
      <trkpt lat="44.85864" lon="0.61816">
        <ele>116.3</ele>
        <time>2023-08-06T08:47:08Z</time>
      </trkpt>
      <trkpt lat="44.85857" lon="0.61815">
        <ele>115.6</ele>
        <time>2023-08-06T08:47:10Z</time>
      </trkpt>
      <trkpt lat="44.85853" lon="0.61808">
        <ele>115</ele>
        <time>2023-08-06T08:47:12Z</time>
      </trkpt>
      <trkpt lat="44.85847" lon="0.61802">
        <ele>114.3</ele>
        <time>2023-08-06T08:47:14Z</time>
      </trkpt>
      <trkpt lat="44.85846" lon="0.618">
        <ele>114.1</ele>
        <time>2023-08-06T08:47:15Z</time>
      </trkpt>
      <trkpt lat="44.85846" lon="0.61798">
        <ele>113.9</ele>
        <time>2023-08-06T08:47:16Z</time>
      </trkpt>
      <trkpt lat="44.85845" lon="0.61796">
        <ele>114</ele>
        <time>2023-08-06T08:47:17Z</time>
      </trkpt>
      <trkpt lat="44.85845" lon="0.61794">
        <ele>113.9</ele>
        <time>2023-08-06T08:47:18Z</time>
      </trkpt>
      <trkpt lat="44.85844" lon="0.6179">
        <ele>113.9</ele>
        <time>2023-08-06T08:47:19Z</time>
      </trkpt>
      <trkpt lat="44.85845" lon="0.61787">
        <ele>113.9</ele>
        <time>2023-08-06T08:47:20Z</time>
      </trkpt>
      <trkpt lat="44.85845" lon="0.61784">
        <ele>113.9</ele>
        <time>2023-08-06T08:47:21Z</time>
      </trkpt>
      <trkpt lat="44.85846" lon="0.61781">
        <ele>113.9</ele>
        <time>2023-08-06T08:47:22Z</time>
      </trkpt>
      <trkpt lat="44.85848" lon="0.61775">
        <ele>113.9</ele>
        <time>2023-08-06T08:47:24Z</time>
      </trkpt>
      <trkpt lat="44.8585" lon="0.6177">
        <ele>114</ele>
        <time>2023-08-06T08:47:26Z</time>
      </trkpt>
      <trkpt lat="44.85853" lon="0.61766">
        <ele>114.1</ele>
        <time>2023-08-06T08:47:28Z</time>
      </trkpt>
      <trkpt lat="44.85853" lon="0.61762">
        <ele>114.1</ele>
        <time>2023-08-06T08:47:30Z</time>
      </trkpt>
      <trkpt lat="44.85851" lon="0.61753">
        <ele>114.4</ele>
        <time>2023-08-06T08:47:32Z</time>
      </trkpt>
      <trkpt lat="44.85849" lon="0.61746">
        <ele>114.7</ele>
        <time>2023-08-06T08:47:33Z</time>
      </trkpt>
      <trkpt lat="44.85845" lon="0.61739">
        <ele>114.8</ele>
        <time>2023-08-06T08:47:34Z</time>
      </trkpt>
      <trkpt lat="44.8584" lon="0.61732">
        <ele>115</ele>
        <time>2023-08-06T08:47:35Z</time>
      </trkpt>
      <trkpt lat="44.85838" lon="0.61727">
        <ele>115.1</ele>
        <time>2023-08-06T08:47:36Z</time>
      </trkpt>
      <trkpt lat="44.85837" lon="0.61725">
        <ele>115.2</ele>
        <time>2023-08-06T08:47:37Z</time>
      </trkpt>
      <trkpt lat="44.85835" lon="0.61721">
        <ele>115.2</ele>
        <time>2023-08-06T08:47:38Z</time>
      </trkpt>
      <trkpt lat="44.85833" lon="0.61717">
        <ele>115.1</ele>
        <time>2023-08-06T08:47:39Z</time>
      </trkpt>
      <trkpt lat="44.8583" lon="0.61715">
        <ele>115</ele>
        <time>2023-08-06T08:47:40Z</time>
      </trkpt>
      <trkpt lat="44.85825" lon="0.61711">
        <ele>114.8</ele>
        <time>2023-08-06T08:47:42Z</time>
      </trkpt>
      <trkpt lat="44.85823" lon="0.61711">
        <ele>114.6</ele>
        <time>2023-08-06T08:47:44Z</time>
      </trkpt>
      <trkpt lat="44.8582" lon="0.6171">
        <ele>114.4</ele>
        <time>2023-08-06T08:47:45Z</time>
      </trkpt>
      <trkpt lat="44.85817" lon="0.61707">
        <ele>114.2</ele>
        <time>2023-08-06T08:47:46Z</time>
      </trkpt>
      <trkpt lat="44.85815" lon="0.61705">
        <ele>113.9</ele>
        <time>2023-08-06T08:47:47Z</time>
      </trkpt>
      <trkpt lat="44.85815" lon="0.61705">
        <ele>113.9</ele>
        <time>2023-08-06T08:47:48Z</time>
      </trkpt>
      <trkpt lat="44.85813" lon="0.61703">
        <ele>113.9</ele>
        <time>2023-08-06T08:47:50Z</time>
      </trkpt>
      <trkpt lat="44.85814" lon="0.61698">
        <ele>113.9</ele>
        <time>2023-08-06T08:47:52Z</time>
      </trkpt>
      <trkpt lat="44.85807" lon="0.61685">
        <ele>113.3</ele>
        <time>2023-08-06T08:47:54Z</time>
      </trkpt>
      <trkpt lat="44.85806" lon="0.61681">
        <ele>112.8</ele>
        <time>2023-08-06T08:47:55Z</time>
      </trkpt>
      <trkpt lat="44.85806" lon="0.61679">
        <ele>112.8</ele>
        <time>2023-08-06T08:47:56Z</time>
      </trkpt>
      <trkpt lat="44.85806" lon="0.61679">
        <ele>112.8</ele>
        <time>2023-08-06T08:47:58Z</time>
      </trkpt>
      <trkpt lat="44.85804" lon="0.61674">
        <ele>112.9</ele>
        <time>2023-08-06T08:48:00Z</time>
      </trkpt>
      <trkpt lat="44.85805" lon="0.61672">
        <ele>112.9</ele>
        <time>2023-08-06T08:48:02Z</time>
      </trkpt>
      <trkpt lat="44.85805" lon="0.61672">
        <ele>112.9</ele>
        <time>2023-08-06T08:48:03Z</time>
      </trkpt>
      <trkpt lat="44.85804" lon="0.61669">
        <ele>112.9</ele>
        <time>2023-08-06T08:48:04Z</time>
      </trkpt>
      <trkpt lat="44.85806" lon="0.61665">
        <ele>112.9</ele>
        <time>2023-08-06T08:48:06Z</time>
      </trkpt>
      <trkpt lat="44.85807" lon="0.61661">
        <ele>113.4</ele>
        <time>2023-08-06T08:48:08Z</time>
      </trkpt>
      <trkpt lat="44.85807" lon="0.6166">
        <ele>113.4</ele>
        <time>2023-08-06T08:48:09Z</time>
      </trkpt>
      <trkpt lat="44.85807" lon="0.61658">
        <ele>113.4</ele>
        <time>2023-08-06T08:48:10Z</time>
      </trkpt>
      <trkpt lat="44.85807" lon="0.61658">
        <ele>113.4</ele>
        <time>2023-08-06T08:48:11Z</time>
      </trkpt>
      <trkpt lat="44.85809" lon="0.61656">
        <ele>113.4</ele>
        <time>2023-08-06T08:48:12Z</time>
      </trkpt>
      <trkpt lat="44.8581" lon="0.61654">
        <ele>113.8</ele>
        <time>2023-08-06T08:48:14Z</time>
      </trkpt>
      <trkpt lat="44.8581" lon="0.61654">
        <ele>113.8</ele>
        <time>2023-08-06T08:48:15Z</time>
      </trkpt>
      <trkpt lat="44.8581" lon="0.61654">
        <ele>113.8</ele>
        <time>2023-08-06T08:48:16Z</time>
      </trkpt>
      <trkpt lat="44.8581" lon="0.61654">
        <ele>113.8</ele>
        <time>2023-08-06T08:48:18Z</time>
      </trkpt>
      <trkpt lat="44.85837" lon="0.6161">
        <ele>116.9</ele>
        <time>2023-08-06T08:48:44Z</time>
      </trkpt>
      <trkpt lat="44.85837" lon="0.61608">
        <ele>116.9</ele>
        <time>2023-08-06T08:48:45Z</time>
      </trkpt>
      <trkpt lat="44.85836" lon="0.61605">
        <ele>116.6</ele>
        <time>2023-08-06T08:48:46Z</time>
      </trkpt>
      <trkpt lat="44.85836" lon="0.616">
        <ele>116.6</ele>
        <time>2023-08-06T08:48:48Z</time>
      </trkpt>
      <trkpt lat="44.85836" lon="0.61594">
        <ele>116.6</ele>
        <time>2023-08-06T08:48:50Z</time>
      </trkpt>
      <trkpt lat="44.85833" lon="0.61586">
        <ele>116.6</ele>
        <time>2023-08-06T08:48:52Z</time>
      </trkpt>
      <trkpt lat="44.85831" lon="0.61578">
        <ele>116.2</ele>
        <time>2023-08-06T08:48:54Z</time>
      </trkpt>
      <trkpt lat="44.85831" lon="0.61575">
        <ele>116.2</ele>
        <time>2023-08-06T08:48:55Z</time>
      </trkpt>
      <trkpt lat="44.85828" lon="0.61571">
        <ele>115.7</ele>
        <time>2023-08-06T08:48:56Z</time>
      </trkpt>
      <trkpt lat="44.85827" lon="0.61568">
        <ele>115.3</ele>
        <time>2023-08-06T08:48:57Z</time>
      </trkpt>
      <trkpt lat="44.85826" lon="0.61565">
        <ele>115.2</ele>
        <time>2023-08-06T08:48:58Z</time>
      </trkpt>
      <trkpt lat="44.85823" lon="0.6156">
        <ele>114.7</ele>
        <time>2023-08-06T08:49:00Z</time>
      </trkpt>
      <trkpt lat="44.85821" lon="0.61555">
        <ele>114.2</ele>
        <time>2023-08-06T08:49:02Z</time>
      </trkpt>
      <trkpt lat="44.85819" lon="0.61551">
        <ele>114.1</ele>
        <time>2023-08-06T08:49:03Z</time>
      </trkpt>
      <trkpt lat="44.85818" lon="0.61548">
        <ele>114</ele>
        <time>2023-08-06T08:49:04Z</time>
      </trkpt>
      <trkpt lat="44.85818" lon="0.61544">
        <ele>113.5</ele>
        <time>2023-08-06T08:49:05Z</time>
      </trkpt>
      <trkpt lat="44.85818" lon="0.61541">
        <ele>113.5</ele>
        <time>2023-08-06T08:49:06Z</time>
      </trkpt>
      <trkpt lat="44.85818" lon="0.61536">
        <ele>113.5</ele>
        <time>2023-08-06T08:49:07Z</time>
      </trkpt>
      <trkpt lat="44.85818" lon="0.6153">
        <ele>113.5</ele>
        <time>2023-08-06T08:49:08Z</time>
      </trkpt>
      <trkpt lat="44.85816" lon="0.61516">
        <ele>113.6</ele>
        <time>2023-08-06T08:49:10Z</time>
      </trkpt>
      <trkpt lat="44.85814" lon="0.61508">
        <ele>113.2</ele>
        <time>2023-08-06T08:49:11Z</time>
      </trkpt>
      <trkpt lat="44.85813" lon="0.615">
        <ele>113.3</ele>
        <time>2023-08-06T08:49:12Z</time>
      </trkpt>
      <trkpt lat="44.85809" lon="0.61488">
        <ele>112.8</ele>
        <time>2023-08-06T08:49:14Z</time>
      </trkpt>
      <trkpt lat="44.85807" lon="0.61482">
        <ele>112.4</ele>
        <time>2023-08-06T08:49:15Z</time>
      </trkpt>
      <trkpt lat="44.85805" lon="0.61477">
        <ele>111.9</ele>
        <time>2023-08-06T08:49:16Z</time>
      </trkpt>
      <trkpt lat="44.858" lon="0.61466">
        <ele>111.2</ele>
        <time>2023-08-06T08:49:18Z</time>
      </trkpt>
      <trkpt lat="44.85797" lon="0.6146">
        <ele>110.8</ele>
        <time>2023-08-06T08:49:19Z</time>
      </trkpt>
      <trkpt lat="44.85794" lon="0.61454">
        <ele>110.3</ele>
        <time>2023-08-06T08:49:20Z</time>
      </trkpt>
      <trkpt lat="44.85788" lon="0.61444">
        <ele>109.5</ele>
        <time>2023-08-06T08:49:22Z</time>
      </trkpt>
      <trkpt lat="44.85787" lon="0.6144">
        <ele>109.1</ele>
        <time>2023-08-06T08:49:23Z</time>
      </trkpt>
      <trkpt lat="44.85788" lon="0.61438">
        <ele>109.4</ele>
        <time>2023-08-06T08:49:24Z</time>
      </trkpt>
      <trkpt lat="44.85788" lon="0.61435">
        <ele>109.4</ele>
        <time>2023-08-06T08:49:25Z</time>
      </trkpt>
      <trkpt lat="44.85789" lon="0.61433">
        <ele>109.4</ele>
        <time>2023-08-06T08:49:26Z</time>
      </trkpt>
      <trkpt lat="44.85789" lon="0.61431">
        <ele>109.4</ele>
        <time>2023-08-06T08:49:28Z</time>
      </trkpt>
      <trkpt lat="44.85789" lon="0.61425">
        <ele>109.4</ele>
        <time>2023-08-06T08:49:30Z</time>
      </trkpt>
      <trkpt lat="44.85789" lon="0.61422">
        <ele>109.4</ele>
        <time>2023-08-06T08:49:31Z</time>
      </trkpt>
      <trkpt lat="44.85789" lon="0.61419">
        <ele>109.4</ele>
        <time>2023-08-06T08:49:32Z</time>
      </trkpt>
      <trkpt lat="44.85789" lon="0.61416">
        <ele>109.4</ele>
        <time>2023-08-06T08:49:33Z</time>
      </trkpt>
      <trkpt lat="44.85789" lon="0.61413">
        <ele>109.4</ele>
        <time>2023-08-06T08:49:34Z</time>
      </trkpt>
      <trkpt lat="44.85789" lon="0.6141">
        <ele>109.4</ele>
        <time>2023-08-06T08:49:35Z</time>
      </trkpt>
      <trkpt lat="44.85789" lon="0.61407">
        <ele>109.4</ele>
        <time>2023-08-06T08:49:36Z</time>
      </trkpt>
      <trkpt lat="44.85789" lon="0.61398">
        <ele>109.3</ele>
        <time>2023-08-06T08:49:38Z</time>
      </trkpt>
      <trkpt lat="44.85788" lon="0.61394">
        <ele>109.3</ele>
        <time>2023-08-06T08:49:39Z</time>
      </trkpt>
      <trkpt lat="44.85788" lon="0.61391">
        <ele>109.3</ele>
        <time>2023-08-06T08:49:40Z</time>
      </trkpt>
      <trkpt lat="44.85788" lon="0.61387">
        <ele>109.2</ele>
        <time>2023-08-06T08:49:41Z</time>
      </trkpt>
      <trkpt lat="44.85788" lon="0.61384">
        <ele>109.1</ele>
        <time>2023-08-06T08:49:42Z</time>
      </trkpt>
      <trkpt lat="44.85788" lon="0.61378">
        <ele>108.9</ele>
        <time>2023-08-06T08:49:44Z</time>
      </trkpt>
      <trkpt lat="44.85789" lon="0.6137">
        <ele>108.6</ele>
        <time>2023-08-06T08:49:46Z</time>
      </trkpt>
      <trkpt lat="44.85789" lon="0.61362">
        <ele>108.2</ele>
        <time>2023-08-06T08:49:48Z</time>
      </trkpt>
      <trkpt lat="44.85788" lon="0.61358">
        <ele>108</ele>
        <time>2023-08-06T08:49:49Z</time>
      </trkpt>
      <trkpt lat="44.85788" lon="0.61354">
        <ele>107.7</ele>
        <time>2023-08-06T08:49:50Z</time>
      </trkpt>
      <trkpt lat="44.8579" lon="0.61346">
        <ele>107.3</ele>
        <time>2023-08-06T08:49:52Z</time>
      </trkpt>
      <trkpt lat="44.85791" lon="0.61337">
        <ele>106.9</ele>
        <time>2023-08-06T08:49:54Z</time>
      </trkpt>
      <trkpt lat="44.85792" lon="0.61331">
        <ele>106.8</ele>
        <time>2023-08-06T08:49:56Z</time>
      </trkpt>
      <trkpt lat="44.85795" lon="0.61319">
        <ele>106.5</ele>
        <time>2023-08-06T08:49:58Z</time>
      </trkpt>
      <trkpt lat="44.85798" lon="0.61304">
        <ele>106</ele>
        <time>2023-08-06T08:50:00Z</time>
      </trkpt>
      <trkpt lat="44.858" lon="0.61289">
        <ele>105.5</ele>
        <time>2023-08-06T08:50:02Z</time>
      </trkpt>
      <trkpt lat="44.85801" lon="0.61274">
        <ele>104.5</ele>
        <time>2023-08-06T08:50:04Z</time>
      </trkpt>
      <trkpt lat="44.858" lon="0.61261">
        <ele>103.4</ele>
        <time>2023-08-06T08:50:06Z</time>
      </trkpt>
      <trkpt lat="44.85797" lon="0.61255">
        <ele>103</ele>
        <time>2023-08-06T08:50:07Z</time>
      </trkpt>
      <trkpt lat="44.85794" lon="0.6125">
        <ele>102.4</ele>
        <time>2023-08-06T08:50:08Z</time>
      </trkpt>
      <trkpt lat="44.8579" lon="0.61236">
        <ele>100.9</ele>
        <time>2023-08-06T08:50:10Z</time>
      </trkpt>
      <trkpt lat="44.85786" lon="0.61224">
        <ele>99.8</ele>
        <time>2023-08-06T08:50:12Z</time>
      </trkpt>
      <trkpt lat="44.85784" lon="0.61221">
        <ele>99.3</ele>
        <time>2023-08-06T08:50:13Z</time>
      </trkpt>
      <trkpt lat="44.85781" lon="0.61219">
        <ele>98.8</ele>
        <time>2023-08-06T08:50:14Z</time>
      </trkpt>
      <trkpt lat="44.85777" lon="0.61216">
        <ele>98.5</ele>
        <time>2023-08-06T08:50:16Z</time>
      </trkpt>
      <trkpt lat="44.85777" lon="0.61216">
        <ele>98.5</ele>
        <time>2023-08-06T08:50:18Z</time>
      </trkpt>
      <trkpt lat="44.85774" lon="0.61216">
        <ele>98.3</ele>
        <time>2023-08-06T08:50:20Z</time>
      </trkpt>
      <trkpt lat="44.8577" lon="0.61218">
        <ele>98</ele>
        <time>2023-08-06T08:50:22Z</time>
      </trkpt>
      <trkpt lat="44.85763" lon="0.6122">
        <ele>97.7</ele>
        <time>2023-08-06T08:50:24Z</time>
      </trkpt>
      <trkpt lat="44.85757" lon="0.61226">
        <ele>97.5</ele>
        <time>2023-08-06T08:50:26Z</time>
      </trkpt>
      <trkpt lat="44.85752" lon="0.61231">
        <ele>97.6</ele>
        <time>2023-08-06T08:50:28Z</time>
      </trkpt>
      <trkpt lat="44.85743" lon="0.61234">
        <ele>97.3</ele>
        <time>2023-08-06T08:50:30Z</time>
      </trkpt>
      <trkpt lat="44.8574" lon="0.61234">
        <ele>97.1</ele>
        <time>2023-08-06T08:50:31Z</time>
      </trkpt>
      <trkpt lat="44.85738" lon="0.61233">
        <ele>96.9</ele>
        <time>2023-08-06T08:50:32Z</time>
      </trkpt>
      <trkpt lat="44.85733" lon="0.61231">
        <ele>96.5</ele>
        <time>2023-08-06T08:50:34Z</time>
      </trkpt>
      <trkpt lat="44.85729" lon="0.61232">
        <ele>96.3</ele>
        <time>2023-08-06T08:50:35Z</time>
      </trkpt>
      <trkpt lat="44.85724" lon="0.61232">
        <ele>96.4</ele>
        <time>2023-08-06T08:50:36Z</time>
      </trkpt>
      <trkpt lat="44.85715" lon="0.61233">
        <ele>96.2</ele>
        <time>2023-08-06T08:50:38Z</time>
      </trkpt>
      <trkpt lat="44.85708" lon="0.61232">
        <ele>96.1</ele>
        <time>2023-08-06T08:50:40Z</time>
      </trkpt>
      <trkpt lat="44.85703" lon="0.61228">
        <ele>95.8</ele>
        <time>2023-08-06T08:50:42Z</time>
      </trkpt>
      <trkpt lat="44.857" lon="0.61226">
        <ele>95.6</ele>
        <time>2023-08-06T08:50:43Z</time>
      </trkpt>
      <trkpt lat="44.85697" lon="0.61224">
        <ele>95.6</ele>
        <time>2023-08-06T08:50:44Z</time>
      </trkpt>
      <trkpt lat="44.85691" lon="0.61221">
        <ele>95.3</ele>
        <time>2023-08-06T08:50:46Z</time>
      </trkpt>
      <trkpt lat="44.85688" lon="0.6122">
        <ele>95.3</ele>
        <time>2023-08-06T08:50:47Z</time>
      </trkpt>
      <trkpt lat="44.85685" lon="0.61218">
        <ele>95</ele>
        <time>2023-08-06T08:50:48Z</time>
      </trkpt>
      <trkpt lat="44.85681" lon="0.61216">
        <ele>95</ele>
        <time>2023-08-06T08:50:50Z</time>
      </trkpt>
      <trkpt lat="44.85679" lon="0.61215">
        <ele>95</ele>
        <time>2023-08-06T08:50:51Z</time>
      </trkpt>
      <trkpt lat="44.85677" lon="0.61212">
        <ele>94.7</ele>
        <time>2023-08-06T08:50:52Z</time>
      </trkpt>
      <trkpt lat="44.85674" lon="0.61204">
        <ele>94.1</ele>
        <time>2023-08-06T08:50:54Z</time>
      </trkpt>
      <trkpt lat="44.8567" lon="0.61196">
        <ele>93.4</ele>
        <time>2023-08-06T08:50:56Z</time>
      </trkpt>
      <trkpt lat="44.85667" lon="0.61185">
        <ele>92.6</ele>
        <time>2023-08-06T08:50:58Z</time>
      </trkpt>
      <trkpt lat="44.85664" lon="0.61176">
        <ele>91.6</ele>
        <time>2023-08-06T08:51:00Z</time>
      </trkpt>
      <trkpt lat="44.85662" lon="0.61168">
        <ele>91.2</ele>
        <time>2023-08-06T08:51:01Z</time>
      </trkpt>
      <trkpt lat="44.85663" lon="0.61162">
        <ele>90.8</ele>
        <time>2023-08-06T08:51:02Z</time>
      </trkpt>
      <trkpt lat="44.8567" lon="0.6115">
        <ele>90.7</ele>
        <time>2023-08-06T08:51:04Z</time>
      </trkpt>
      <trkpt lat="44.85673" lon="0.61143">
        <ele>90.5</ele>
        <time>2023-08-06T08:51:05Z</time>
      </trkpt>
      <trkpt lat="44.85677" lon="0.61137">
        <ele>90.5</ele>
        <time>2023-08-06T08:51:06Z</time>
      </trkpt>
      <trkpt lat="44.85685" lon="0.61125">
        <ele>90.6</ele>
        <time>2023-08-06T08:51:08Z</time>
      </trkpt>
      <trkpt lat="44.85689" lon="0.61118">
        <ele>90.7</ele>
        <time>2023-08-06T08:51:09Z</time>
      </trkpt>
      <trkpt lat="44.85692" lon="0.61112">
        <ele>90.8</ele>
        <time>2023-08-06T08:51:10Z</time>
      </trkpt>
      <trkpt lat="44.85695" lon="0.61104">
        <ele>91</ele>
        <time>2023-08-06T08:51:12Z</time>
      </trkpt>
      <trkpt lat="44.85698" lon="0.61104">
        <ele>91.2</ele>
        <time>2023-08-06T08:51:14Z</time>
      </trkpt>
      <trkpt lat="44.857" lon="0.61104">
        <ele>91.3</ele>
        <time>2023-08-06T08:51:15Z</time>
      </trkpt>
      <trkpt lat="44.85702" lon="0.61104">
        <ele>91.3</ele>
        <time>2023-08-06T08:51:16Z</time>
      </trkpt>
      <trkpt lat="44.85706" lon="0.61105">
        <ele>91.5</ele>
        <time>2023-08-06T08:51:18Z</time>
      </trkpt>
      <trkpt lat="44.8571" lon="0.61106">
        <ele>91.7</ele>
        <time>2023-08-06T08:51:20Z</time>
      </trkpt>
      <trkpt lat="44.85712" lon="0.61106">
        <ele>91.8</ele>
        <time>2023-08-06T08:51:21Z</time>
      </trkpt>
      <trkpt lat="44.85713" lon="0.61107">
        <ele>91.8</ele>
        <time>2023-08-06T08:51:22Z</time>
      </trkpt>
      <trkpt lat="44.85717" lon="0.6111">
        <ele>91.9</ele>
        <time>2023-08-06T08:51:24Z</time>
      </trkpt>
      <trkpt lat="44.85719" lon="0.61113">
        <ele>92</ele>
        <time>2023-08-06T08:51:26Z</time>
      </trkpt>
      <trkpt lat="44.85724" lon="0.61116">
        <ele>92.1</ele>
        <time>2023-08-06T08:51:28Z</time>
      </trkpt>
      <trkpt lat="44.85727" lon="0.6112">
        <ele>92.4</ele>
        <time>2023-08-06T08:51:30Z</time>
      </trkpt>
      <trkpt lat="44.85731" lon="0.61123">
        <ele>92.5</ele>
        <time>2023-08-06T08:51:32Z</time>
      </trkpt>
      <trkpt lat="44.85735" lon="0.61126">
        <ele>92.6</ele>
        <time>2023-08-06T08:51:34Z</time>
      </trkpt>
      <trkpt lat="44.85738" lon="0.61129">
        <ele>92.7</ele>
        <time>2023-08-06T08:51:36Z</time>
      </trkpt>
      <trkpt lat="44.85742" lon="0.61131">
        <ele>92.9</ele>
        <time>2023-08-06T08:51:38Z</time>
      </trkpt>
      <trkpt lat="44.85746" lon="0.61133">
        <ele>93.2</ele>
        <time>2023-08-06T08:51:40Z</time>
      </trkpt>
      <trkpt lat="44.85749" lon="0.61133">
        <ele>93.5</ele>
        <time>2023-08-06T08:51:42Z</time>
      </trkpt>
      <trkpt lat="44.85751" lon="0.61135">
        <ele>93.5</ele>
        <time>2023-08-06T08:51:43Z</time>
      </trkpt>
      <trkpt lat="44.85752" lon="0.61136">
        <ele>93.7</ele>
        <time>2023-08-06T08:51:44Z</time>
      </trkpt>
      <trkpt lat="44.85756" lon="0.61137">
        <ele>93.9</ele>
        <time>2023-08-06T08:51:46Z</time>
      </trkpt>
      <trkpt lat="44.85759" lon="0.61139">
        <ele>94.1</ele>
        <time>2023-08-06T08:51:48Z</time>
      </trkpt>
      <trkpt lat="44.85761" lon="0.6114">
        <ele>94.3</ele>
        <time>2023-08-06T08:51:49Z</time>
      </trkpt>
      <trkpt lat="44.85763" lon="0.6114">
        <ele>94.3</ele>
        <time>2023-08-06T08:51:50Z</time>
      </trkpt>
      <trkpt lat="44.85764" lon="0.61141">
        <ele>94.5</ele>
        <time>2023-08-06T08:51:52Z</time>
      </trkpt>
      <trkpt lat="44.85765" lon="0.61141">
        <ele>94.5</ele>
        <time>2023-08-06T08:51:54Z</time>
      </trkpt>
      <trkpt lat="44.85766" lon="0.61142">
        <ele>94.6</ele>
        <time>2023-08-06T08:51:56Z</time>
      </trkpt>
      <trkpt lat="44.85769" lon="0.61145">
        <ele>94.8</ele>
        <time>2023-08-06T08:51:58Z</time>
      </trkpt>
      <trkpt lat="44.85771" lon="0.61146">
        <ele>95.1</ele>
        <time>2023-08-06T08:52:00Z</time>
      </trkpt>
      <trkpt lat="44.85774" lon="0.61147">
        <ele>95.3</ele>
        <time>2023-08-06T08:52:02Z</time>
      </trkpt>
      <trkpt lat="44.85776" lon="0.61147">
        <ele>95.6</ele>
        <time>2023-08-06T08:52:03Z</time>
      </trkpt>
      <trkpt lat="44.85777" lon="0.61147">
        <ele>95.6</ele>
        <time>2023-08-06T08:52:04Z</time>
      </trkpt>
      <trkpt lat="44.85777" lon="0.61146">
        <ele>95.5</ele>
        <time>2023-08-06T08:52:06Z</time>
      </trkpt>
      <trkpt lat="44.85778" lon="0.61141">
        <ele>95.5</ele>
        <time>2023-08-06T08:52:08Z</time>
      </trkpt>
      <trkpt lat="44.85781" lon="0.61136">
        <ele>95.7</ele>
        <time>2023-08-06T08:52:10Z</time>
      </trkpt>
      <trkpt lat="44.85783" lon="0.61128">
        <ele>95.9</ele>
        <time>2023-08-06T08:52:12Z</time>
      </trkpt>
      <trkpt lat="44.85782" lon="0.61119">
        <ele>95.8</ele>
        <time>2023-08-06T08:52:14Z</time>
      </trkpt>
      <trkpt lat="44.85782" lon="0.61111">
        <ele>95.8</ele>
        <time>2023-08-06T08:52:16Z</time>
      </trkpt>
      <trkpt lat="44.85783" lon="0.61103">
        <ele>95.8</ele>
        <time>2023-08-06T08:52:18Z</time>
      </trkpt>
      <trkpt lat="44.85781" lon="0.61096">
        <ele>95.4</ele>
        <time>2023-08-06T08:52:20Z</time>
      </trkpt>
      <trkpt lat="44.85778" lon="0.6109">
        <ele>95</ele>
        <time>2023-08-06T08:52:22Z</time>
      </trkpt>
      <trkpt lat="44.85777" lon="0.61085">
        <ele>95.1</ele>
        <time>2023-08-06T08:52:23Z</time>
      </trkpt>
      <trkpt lat="44.85776" lon="0.61081">
        <ele>95.2</ele>
        <time>2023-08-06T08:52:24Z</time>
      </trkpt>
      <trkpt lat="44.85775" lon="0.61074">
        <ele>95</ele>
        <time>2023-08-06T08:52:26Z</time>
      </trkpt>
      <trkpt lat="44.85774" lon="0.61067">
        <ele>95.3</ele>
        <time>2023-08-06T08:52:28Z</time>
      </trkpt>
      <trkpt lat="44.85773" lon="0.61064">
        <ele>95.4</ele>
        <time>2023-08-06T08:52:29Z</time>
      </trkpt>
      <trkpt lat="44.85772" lon="0.61061">
        <ele>95.2</ele>
        <time>2023-08-06T08:52:30Z</time>
      </trkpt>
      <trkpt lat="44.85774" lon="0.61054">
        <ele>95.8</ele>
        <time>2023-08-06T08:52:32Z</time>
      </trkpt>
      <trkpt lat="44.85774" lon="0.6105">
        <ele>96</ele>
        <time>2023-08-06T08:52:33Z</time>
      </trkpt>
      <trkpt lat="44.85775" lon="0.61047">
        <ele>96.2</ele>
        <time>2023-08-06T08:52:34Z</time>
      </trkpt>
      <trkpt lat="44.85776" lon="0.6104">
        <ele>96.7</ele>
        <time>2023-08-06T08:52:36Z</time>
      </trkpt>
      <trkpt lat="44.85777" lon="0.61037">
        <ele>96.9</ele>
        <time>2023-08-06T08:52:37Z</time>
      </trkpt>
      <trkpt lat="44.85777" lon="0.61032">
        <ele>97</ele>
        <time>2023-08-06T08:52:38Z</time>
      </trkpt>
      <trkpt lat="44.85779" lon="0.61022">
        <ele>97.6</ele>
        <time>2023-08-06T08:52:40Z</time>
      </trkpt>
      <trkpt lat="44.85781" lon="0.61013">
        <ele>97.8</ele>
        <time>2023-08-06T08:52:42Z</time>
      </trkpt>
      <trkpt lat="44.85781" lon="0.61008">
        <ele>98</ele>
        <time>2023-08-06T08:52:43Z</time>
      </trkpt>
      <trkpt lat="44.85781" lon="0.61004">
        <ele>98.1</ele>
        <time>2023-08-06T08:52:44Z</time>
      </trkpt>
      <trkpt lat="44.8578" lon="0.60997">
        <ele>98.1</ele>
        <time>2023-08-06T08:52:46Z</time>
      </trkpt>
      <trkpt lat="44.8578" lon="0.60995">
        <ele>98.1</ele>
        <time>2023-08-06T08:52:47Z</time>
      </trkpt>
      <trkpt lat="44.85779" lon="0.60993">
        <ele>98.1</ele>
        <time>2023-08-06T08:52:48Z</time>
      </trkpt>
      <trkpt lat="44.85782" lon="0.60992">
        <ele>98.3</ele>
        <time>2023-08-06T08:52:50Z</time>
      </trkpt>
      <trkpt lat="44.85785" lon="0.60992">
        <ele>98.5</ele>
        <time>2023-08-06T08:52:51Z</time>
      </trkpt>
      <trkpt lat="44.85787" lon="0.60992">
        <ele>98.5</ele>
        <time>2023-08-06T08:52:52Z</time>
      </trkpt>
      <trkpt lat="44.85791" lon="0.60994">
        <ele>98.7</ele>
        <time>2023-08-06T08:52:54Z</time>
      </trkpt>
      <trkpt lat="44.85792" lon="0.60994">
        <ele>98.8</ele>
        <time>2023-08-06T08:52:55Z</time>
      </trkpt>
      <trkpt lat="44.85795" lon="0.60995">
        <ele>99</ele>
        <time>2023-08-06T08:52:56Z</time>
      </trkpt>
      <trkpt lat="44.85802" lon="0.60997">
        <ele>99.3</ele>
        <time>2023-08-06T08:52:58Z</time>
      </trkpt>
      <trkpt lat="44.85808" lon="0.60999">
        <ele>99.6</ele>
        <time>2023-08-06T08:53:00Z</time>
      </trkpt>
      <trkpt lat="44.85814" lon="0.61">
        <ele>99.8</ele>
        <time>2023-08-06T08:53:02Z</time>
      </trkpt>
      <trkpt lat="44.8582" lon="0.61002">
        <ele>100</ele>
        <time>2023-08-06T08:53:04Z</time>
      </trkpt>
      <trkpt lat="44.85823" lon="0.61004">
        <ele>100.1</ele>
        <time>2023-08-06T08:53:05Z</time>
      </trkpt>
      <trkpt lat="44.85826" lon="0.61004">
        <ele>100.1</ele>
        <time>2023-08-06T08:53:06Z</time>
      </trkpt>
      <trkpt lat="44.8583" lon="0.61003">
        <ele>100.1</ele>
        <time>2023-08-06T08:53:08Z</time>
      </trkpt>
      <trkpt lat="44.85833" lon="0.61">
        <ele>99.9</ele>
        <time>2023-08-06T08:53:09Z</time>
      </trkpt>
      <trkpt lat="44.85836" lon="0.60997">
        <ele>99.9</ele>
        <time>2023-08-06T08:53:10Z</time>
      </trkpt>
      <trkpt lat="44.8584" lon="0.60993">
        <ele>99.6</ele>
        <time>2023-08-06T08:53:12Z</time>
      </trkpt>
      <trkpt lat="44.85844" lon="0.60993">
        <ele>99.5</ele>
        <time>2023-08-06T08:53:13Z</time>
      </trkpt>
      <trkpt lat="44.85848" lon="0.60993">
        <ele>99.5</ele>
        <time>2023-08-06T08:53:14Z</time>
      </trkpt>
      <trkpt lat="44.85854" lon="0.60994">
        <ele>99.3</ele>
        <time>2023-08-06T08:53:16Z</time>
      </trkpt>
      <trkpt lat="44.85857" lon="0.60993">
        <ele>99.3</ele>
        <time>2023-08-06T08:53:17Z</time>
      </trkpt>
      <trkpt lat="44.8586" lon="0.60991">
        <ele>99</ele>
        <time>2023-08-06T08:53:18Z</time>
      </trkpt>
      <trkpt lat="44.85868" lon="0.60989">
        <ele>98.9</ele>
        <time>2023-08-06T08:53:20Z</time>
      </trkpt>
      <trkpt lat="44.85872" lon="0.60989">
        <ele>98.9</ele>
        <time>2023-08-06T08:53:21Z</time>
      </trkpt>
      <trkpt lat="44.85876" lon="0.60991">
        <ele>98.9</ele>
        <time>2023-08-06T08:53:22Z</time>
      </trkpt>
      <trkpt lat="44.8588" lon="0.60997">
        <ele>99.2</ele>
        <time>2023-08-06T08:53:24Z</time>
      </trkpt>
      <trkpt lat="44.85881" lon="0.60999">
        <ele>99.2</ele>
        <time>2023-08-06T08:53:25Z</time>
      </trkpt>
      <trkpt lat="44.85882" lon="0.61001">
        <ele>99.4</ele>
        <time>2023-08-06T08:53:26Z</time>
      </trkpt>
      <trkpt lat="44.85883" lon="0.61003">
        <ele>99.4</ele>
        <time>2023-08-06T08:53:27Z</time>
      </trkpt>
      <trkpt lat="44.85887" lon="0.61006">
        <ele>99.5</ele>
        <time>2023-08-06T08:53:28Z</time>
      </trkpt>
      <trkpt lat="44.85895" lon="0.61012">
        <ele>99.5</ele>
        <time>2023-08-06T08:53:30Z</time>
      </trkpt>
      <trkpt lat="44.859" lon="0.61017">
        <ele>99.6</ele>
        <time>2023-08-06T08:53:32Z</time>
      </trkpt>
      <trkpt lat="44.85909" lon="0.61026">
        <ele>99.6</ele>
        <time>2023-08-06T08:53:34Z</time>
      </trkpt>
      <trkpt lat="44.85915" lon="0.61032">
        <ele>99.6</ele>
        <time>2023-08-06T08:53:36Z</time>
      </trkpt>
      <trkpt lat="44.85917" lon="0.61037">
        <ele>99.6</ele>
        <time>2023-08-06T08:53:37Z</time>
      </trkpt>
      <trkpt lat="44.85916" lon="0.61039">
        <ele>99.7</ele>
        <time>2023-08-06T08:53:38Z</time>
      </trkpt>
      <trkpt lat="44.8592" lon="0.61045">
        <ele>99.7</ele>
        <time>2023-08-06T08:53:39Z</time>
      </trkpt>
      <trkpt lat="44.85922" lon="0.61051">
        <ele>99.7</ele>
        <time>2023-08-06T08:53:40Z</time>
      </trkpt>
      <trkpt lat="44.85924" lon="0.61055">
        <ele>99.8</ele>
        <time>2023-08-06T08:53:41Z</time>
      </trkpt>
      <trkpt lat="44.85926" lon="0.61059">
        <ele>99.8</ele>
        <time>2023-08-06T08:53:42Z</time>
      </trkpt>
      <trkpt lat="44.85935" lon="0.61077">
        <ele>100</ele>
        <time>2023-08-06T08:53:44Z</time>
      </trkpt>
      <trkpt lat="44.8594" lon="0.61089">
        <ele>100.1</ele>
        <time>2023-08-06T08:53:46Z</time>
      </trkpt>
      <trkpt lat="44.85946" lon="0.61102">
        <ele>100.4</ele>
        <time>2023-08-06T08:53:48Z</time>
      </trkpt>
      <trkpt lat="44.85955" lon="0.61115">
        <ele>100.7</ele>
        <time>2023-08-06T08:53:50Z</time>
      </trkpt>
      <trkpt lat="44.85959" lon="0.61126">
        <ele>101.1</ele>
        <time>2023-08-06T08:53:52Z</time>
      </trkpt>
      <trkpt lat="44.85961" lon="0.61132">
        <ele>101.4</ele>
        <time>2023-08-06T08:53:53Z</time>
      </trkpt>
      <trkpt lat="44.85962" lon="0.61136">
        <ele>101.5</ele>
        <time>2023-08-06T08:53:54Z</time>
      </trkpt>
      <trkpt lat="44.85965" lon="0.61147">
        <ele>102.1</ele>
        <time>2023-08-06T08:53:56Z</time>
      </trkpt>
      <trkpt lat="44.85964" lon="0.61154">
        <ele>101.9</ele>
        <time>2023-08-06T08:53:58Z</time>
      </trkpt>
      <trkpt lat="44.85963" lon="0.61158">
        <ele>102</ele>
        <time>2023-08-06T08:53:59Z</time>
      </trkpt>
      <trkpt lat="44.85963" lon="0.61162">
        <ele>102.1</ele>
        <time>2023-08-06T08:54:00Z</time>
      </trkpt>
      <trkpt lat="44.85962" lon="0.61164">
        <ele>102.2</ele>
        <time>2023-08-06T08:54:01Z</time>
      </trkpt>
      <trkpt lat="44.85962" lon="0.61168">
        <ele>102.3</ele>
        <time>2023-08-06T08:54:02Z</time>
      </trkpt>
      <trkpt lat="44.85963" lon="0.61178">
        <ele>102.4</ele>
        <time>2023-08-06T08:54:04Z</time>
      </trkpt>
      <trkpt lat="44.8596" lon="0.61185">
        <ele>102.4</ele>
        <time>2023-08-06T08:54:06Z</time>
      </trkpt>
      <trkpt lat="44.85958" lon="0.61193">
        <ele>102.3</ele>
        <time>2023-08-06T08:54:08Z</time>
      </trkpt>
      <trkpt lat="44.85957" lon="0.61199">
        <ele>102.4</ele>
        <time>2023-08-06T08:54:10Z</time>
      </trkpt>
      <trkpt lat="44.85957" lon="0.61205">
        <ele>102.5</ele>
        <time>2023-08-06T08:54:12Z</time>
      </trkpt>
      <trkpt lat="44.85955" lon="0.61211">
        <ele>102.7</ele>
        <time>2023-08-06T08:54:14Z</time>
      </trkpt>
      <trkpt lat="44.85954" lon="0.61215">
        <ele>102.6</ele>
        <time>2023-08-06T08:54:16Z</time>
      </trkpt>
      <trkpt lat="44.85954" lon="0.61219">
        <ele>102.6</ele>
        <time>2023-08-06T08:54:18Z</time>
      </trkpt>
      <trkpt lat="44.85956" lon="0.6122">
        <ele>102.8</ele>
        <time>2023-08-06T08:54:20Z</time>
      </trkpt>
      <trkpt lat="44.85958" lon="0.61221">
        <ele>102.8</ele>
        <time>2023-08-06T08:54:22Z</time>
      </trkpt>
      <trkpt lat="44.85959" lon="0.61223">
        <ele>103</ele>
        <time>2023-08-06T08:54:23Z</time>
      </trkpt>
      <trkpt lat="44.8596" lon="0.61224">
        <ele>103.1</ele>
        <time>2023-08-06T08:54:24Z</time>
      </trkpt>
      <trkpt lat="44.85963" lon="0.61229">
        <ele>103.3</ele>
        <time>2023-08-06T08:54:26Z</time>
      </trkpt>
      <trkpt lat="44.85966" lon="0.61232">
        <ele>103.5</ele>
        <time>2023-08-06T08:54:28Z</time>
      </trkpt>
      <trkpt lat="44.85967" lon="0.61233">
        <ele>103.5</ele>
        <time>2023-08-06T08:54:30Z</time>
      </trkpt>
      <trkpt lat="44.85969" lon="0.61236">
        <ele>103.8</ele>
        <time>2023-08-06T08:54:32Z</time>
      </trkpt>
      <trkpt lat="44.85971" lon="0.61238">
        <ele>104</ele>
        <time>2023-08-06T08:54:34Z</time>
      </trkpt>
      <trkpt lat="44.85971" lon="0.61238">
        <ele>104</ele>
        <time>2023-08-06T08:54:35Z</time>
      </trkpt>
      <trkpt lat="44.85972" lon="0.6124">
        <ele>104</ele>
        <time>2023-08-06T08:54:36Z</time>
      </trkpt>
      <trkpt lat="44.85972" lon="0.61245">
        <ele>104.2</ele>
        <time>2023-08-06T08:54:38Z</time>
      </trkpt>
      <trkpt lat="44.85972" lon="0.61249">
        <ele>104.2</ele>
        <time>2023-08-06T08:54:40Z</time>
      </trkpt>
      <trkpt lat="44.85972" lon="0.61254">
        <ele>104.3</ele>
        <time>2023-08-06T08:54:42Z</time>
      </trkpt>
      <trkpt lat="44.85973" lon="0.61256">
        <ele>104.5</ele>
        <time>2023-08-06T08:54:43Z</time>
      </trkpt>
      <trkpt lat="44.85975" lon="0.6126">
        <ele>104.6</ele>
        <time>2023-08-06T08:54:44Z</time>
      </trkpt>
      <trkpt lat="44.85978" lon="0.61265">
        <ele>104.8</ele>
        <time>2023-08-06T08:54:46Z</time>
      </trkpt>
      <trkpt lat="44.8598" lon="0.6127">
        <ele>105.1</ele>
        <time>2023-08-06T08:54:48Z</time>
      </trkpt>
      <trkpt lat="44.85985" lon="0.61272">
        <ele>105.3</ele>
        <time>2023-08-06T08:54:50Z</time>
      </trkpt>
      <trkpt lat="44.85988" lon="0.61273">
        <ele>105.5</ele>
        <time>2023-08-06T08:54:52Z</time>
      </trkpt>
      <trkpt lat="44.85989" lon="0.61272">
        <ele>105.6</ele>
        <time>2023-08-06T08:54:53Z</time>
      </trkpt>
      <trkpt lat="44.8599" lon="0.6127">
        <ele>105.6</ele>
        <time>2023-08-06T08:54:54Z</time>
      </trkpt>
      <trkpt lat="44.8599" lon="0.61266">
        <ele>105.6</ele>
        <time>2023-08-06T08:54:56Z</time>
      </trkpt>
      <trkpt lat="44.85991" lon="0.61261">
        <ele>105.5</ele>
        <time>2023-08-06T08:54:58Z</time>
      </trkpt>
      <trkpt lat="44.85993" lon="0.61254">
        <ele>105.6</ele>
        <time>2023-08-06T08:55:00Z</time>
      </trkpt>
      <trkpt lat="44.85996" lon="0.61249">
        <ele>105.8</ele>
        <time>2023-08-06T08:55:02Z</time>
      </trkpt>
      <trkpt lat="44.85999" lon="0.6125">
        <ele>106</ele>
        <time>2023-08-06T08:55:03Z</time>
      </trkpt>
      <trkpt lat="44.86001" lon="0.61252">
        <ele>106.2</ele>
        <time>2023-08-06T08:55:04Z</time>
      </trkpt>
      <trkpt lat="44.86004" lon="0.61254">
        <ele>106.3</ele>
        <time>2023-08-06T08:55:06Z</time>
      </trkpt>
      <trkpt lat="44.86007" lon="0.61257">
        <ele>106.3</ele>
        <time>2023-08-06T08:55:08Z</time>
      </trkpt>
      <trkpt lat="44.86006" lon="0.6126">
        <ele>106.4</ele>
        <time>2023-08-06T08:55:10Z</time>
      </trkpt>
      <trkpt lat="44.86005" lon="0.61265">
        <ele>106.4</ele>
        <time>2023-08-06T08:55:12Z</time>
      </trkpt>
      <trkpt lat="44.86003" lon="0.61271">
        <ele>106.3</ele>
        <time>2023-08-06T08:55:14Z</time>
      </trkpt>
      <trkpt lat="44.86" lon="0.61276">
        <ele>106.2</ele>
        <time>2023-08-06T08:55:16Z</time>
      </trkpt>
      <trkpt lat="44.85999" lon="0.6128">
        <ele>106.3</ele>
        <time>2023-08-06T08:55:17Z</time>
      </trkpt>
      <trkpt lat="44.85999" lon="0.61285">
        <ele>106.4</ele>
        <time>2023-08-06T08:55:18Z</time>
      </trkpt>
      <trkpt lat="44.85999" lon="0.61295">
        <ele>106.6</ele>
        <time>2023-08-06T08:55:20Z</time>
      </trkpt>
      <trkpt lat="44.85999" lon="0.61299">
        <ele>106.7</ele>
        <time>2023-08-06T08:55:21Z</time>
      </trkpt>
      <trkpt lat="44.85999" lon="0.61304">
        <ele>106.7</ele>
        <time>2023-08-06T08:55:22Z</time>
      </trkpt>
      <trkpt lat="44.86" lon="0.61313">
        <ele>106.9</ele>
        <time>2023-08-06T08:55:24Z</time>
      </trkpt>
      <trkpt lat="44.86001" lon="0.61317">
        <ele>107.1</ele>
        <time>2023-08-06T08:55:25Z</time>
      </trkpt>
      <trkpt lat="44.86003" lon="0.6132">
        <ele>107.2</ele>
        <time>2023-08-06T08:55:26Z</time>
      </trkpt>
      <trkpt lat="44.86007" lon="0.61326">
        <ele>107.5</ele>
        <time>2023-08-06T08:55:28Z</time>
      </trkpt>
      <trkpt lat="44.86009" lon="0.61331">
        <ele>107.6</ele>
        <time>2023-08-06T08:55:30Z</time>
      </trkpt>
      <trkpt lat="44.86009" lon="0.61334">
        <ele>107.6</ele>
        <time>2023-08-06T08:55:31Z</time>
      </trkpt>
      <trkpt lat="44.8601" lon="0.61337">
        <ele>107.9</ele>
        <time>2023-08-06T08:55:32Z</time>
      </trkpt>
      <trkpt lat="44.86012" lon="0.61342">
        <ele>108</ele>
        <time>2023-08-06T08:55:34Z</time>
      </trkpt>
      <trkpt lat="44.86015" lon="0.61345">
        <ele>108.2</ele>
        <time>2023-08-06T08:55:36Z</time>
      </trkpt>
      <trkpt lat="44.86016" lon="0.61346">
        <ele>108.2</ele>
        <time>2023-08-06T08:55:37Z</time>
      </trkpt>
      <trkpt lat="44.86017" lon="0.61346">
        <ele>108.4</ele>
        <time>2023-08-06T08:55:38Z</time>
      </trkpt>
      <trkpt lat="44.86021" lon="0.61347">
        <ele>108.5</ele>
        <time>2023-08-06T08:55:40Z</time>
      </trkpt>
      <trkpt lat="44.86024" lon="0.61348">
        <ele>108.8</ele>
        <time>2023-08-06T08:55:42Z</time>
      </trkpt>
      <trkpt lat="44.86027" lon="0.61348">
        <ele>109</ele>
        <time>2023-08-06T08:55:44Z</time>
      </trkpt>
      <trkpt lat="44.8603" lon="0.61348">
        <ele>109.1</ele>
        <time>2023-08-06T08:55:46Z</time>
      </trkpt>
      <trkpt lat="44.86032" lon="0.61348">
        <ele>109.3</ele>
        <time>2023-08-06T08:55:48Z</time>
      </trkpt>
      <trkpt lat="44.86033" lon="0.6135">
        <ele>109.3</ele>
        <time>2023-08-06T08:55:50Z</time>
      </trkpt>
      <trkpt lat="44.86035" lon="0.61352">
        <ele>109.6</ele>
        <time>2023-08-06T08:55:52Z</time>
      </trkpt>
      <trkpt lat="44.86037" lon="0.61354">
        <ele>109.6</ele>
        <time>2023-08-06T08:55:54Z</time>
      </trkpt>
      <trkpt lat="44.86038" lon="0.61355">
        <ele>109.7</ele>
        <time>2023-08-06T08:55:56Z</time>
      </trkpt>
      <trkpt lat="44.8604" lon="0.61357">
        <ele>109.8</ele>
        <time>2023-08-06T08:55:58Z</time>
      </trkpt>
      <trkpt lat="44.86043" lon="0.61358">
        <ele>110</ele>
        <time>2023-08-06T08:56:00Z</time>
      </trkpt>
      <trkpt lat="44.86045" lon="0.61359">
        <ele>110.2</ele>
        <time>2023-08-06T08:56:02Z</time>
      </trkpt>
      <trkpt lat="44.86047" lon="0.6136">
        <ele>110.4</ele>
        <time>2023-08-06T08:56:04Z</time>
      </trkpt>
      <trkpt lat="44.86048" lon="0.61362">
        <ele>110.5</ele>
        <time>2023-08-06T08:56:06Z</time>
      </trkpt>
      <trkpt lat="44.8605" lon="0.61364">
        <ele>110.8</ele>
        <time>2023-08-06T08:56:08Z</time>
      </trkpt>
      <trkpt lat="44.86051" lon="0.61366">
        <ele>110.9</ele>
        <time>2023-08-06T08:56:10Z</time>
      </trkpt>
      <trkpt lat="44.86052" lon="0.61369">
        <ele>111</ele>
        <time>2023-08-06T08:56:12Z</time>
      </trkpt>
      <trkpt lat="44.86054" lon="0.61372">
        <ele>111.3</ele>
        <time>2023-08-06T08:56:14Z</time>
      </trkpt>
      <trkpt lat="44.86056" lon="0.61374">
        <ele>111.7</ele>
        <time>2023-08-06T08:56:16Z</time>
      </trkpt>
      <trkpt lat="44.86059" lon="0.61376">
        <ele>112</ele>
        <time>2023-08-06T08:56:18Z</time>
      </trkpt>
      <trkpt lat="44.86064" lon="0.61378">
        <ele>112.5</ele>
        <time>2023-08-06T08:56:20Z</time>
      </trkpt>
      <trkpt lat="44.86068" lon="0.61379">
        <ele>113.1</ele>
        <time>2023-08-06T08:56:22Z</time>
      </trkpt>
      <trkpt lat="44.86071" lon="0.61379">
        <ele>113.1</ele>
        <time>2023-08-06T08:56:24Z</time>
      </trkpt>
      <trkpt lat="44.86072" lon="0.61379">
        <ele>113.3</ele>
        <time>2023-08-06T08:56:25Z</time>
      </trkpt>
      <trkpt lat="44.86073" lon="0.61379">
        <ele>113.3</ele>
        <time>2023-08-06T08:56:26Z</time>
      </trkpt>
      <trkpt lat="44.86074" lon="0.6138">
        <ele>113.6</ele>
        <time>2023-08-06T08:56:27Z</time>
      </trkpt>
      <trkpt lat="44.86076" lon="0.6138">
        <ele>113.6</ele>
        <time>2023-08-06T08:56:28Z</time>
      </trkpt>
      <trkpt lat="44.86079" lon="0.61381">
        <ele>113.9</ele>
        <time>2023-08-06T08:56:30Z</time>
      </trkpt>
      <trkpt lat="44.8608" lon="0.61384">
        <ele>114.3</ele>
        <time>2023-08-06T08:56:32Z</time>
      </trkpt>
      <trkpt lat="44.86082" lon="0.61389">
        <ele>114.4</ele>
        <time>2023-08-06T08:56:34Z</time>
      </trkpt>
      <trkpt lat="44.86084" lon="0.61392">
        <ele>114.8</ele>
        <time>2023-08-06T08:56:35Z</time>
      </trkpt>
      <trkpt lat="44.86086" lon="0.61394">
        <ele>114.8</ele>
        <time>2023-08-06T08:56:36Z</time>
      </trkpt>
      <trkpt lat="44.86089" lon="0.61396">
        <ele>115.3</ele>
        <time>2023-08-06T08:56:38Z</time>
      </trkpt>
      <trkpt lat="44.86091" lon="0.61397">
        <ele>115.3</ele>
        <time>2023-08-06T08:56:39Z</time>
      </trkpt>
      <trkpt lat="44.86094" lon="0.61397">
        <ele>115.5</ele>
        <time>2023-08-06T08:56:40Z</time>
      </trkpt>
      <trkpt lat="44.86097" lon="0.61396">
        <ele>115.7</ele>
        <time>2023-08-06T08:56:42Z</time>
      </trkpt>
      <trkpt lat="44.86098" lon="0.61395">
        <ele>115.8</ele>
        <time>2023-08-06T08:56:43Z</time>
      </trkpt>
      <trkpt lat="44.86099" lon="0.61394">
        <ele>115.8</ele>
        <time>2023-08-06T08:56:44Z</time>
      </trkpt>
      <trkpt lat="44.86101" lon="0.61391">
        <ele>116</ele>
        <time>2023-08-06T08:56:46Z</time>
      </trkpt>
      <trkpt lat="44.86103" lon="0.61389">
        <ele>115.7</ele>
        <time>2023-08-06T08:56:48Z</time>
      </trkpt>
      <trkpt lat="44.86104" lon="0.61388">
        <ele>115.6</ele>
        <time>2023-08-06T08:56:49Z</time>
      </trkpt>
      <trkpt lat="44.86106" lon="0.61388">
        <ele>115.4</ele>
        <time>2023-08-06T08:56:50Z</time>
      </trkpt>
      <trkpt lat="44.8611" lon="0.61388">
        <ele>114.9</ele>
        <time>2023-08-06T08:56:52Z</time>
      </trkpt>
      <trkpt lat="44.86114" lon="0.61388">
        <ele>114.7</ele>
        <time>2023-08-06T08:56:54Z</time>
      </trkpt>
      <trkpt lat="44.86115" lon="0.61388">
        <ele>114.5</ele>
        <time>2023-08-06T08:56:55Z</time>
      </trkpt>
      <trkpt lat="44.86117" lon="0.61389">
        <ele>114.5</ele>
        <time>2023-08-06T08:56:56Z</time>
      </trkpt>
      <trkpt lat="44.8612" lon="0.6139">
        <ele>114.3</ele>
        <time>2023-08-06T08:56:58Z</time>
      </trkpt>
      <trkpt lat="44.86122" lon="0.61391">
        <ele>114.3</ele>
        <time>2023-08-06T08:56:59Z</time>
      </trkpt>
      <trkpt lat="44.86124" lon="0.61391">
        <ele>114.3</ele>
        <time>2023-08-06T08:57:00Z</time>
      </trkpt>
      <trkpt lat="44.86128" lon="0.61392">
        <ele>114.4</ele>
        <time>2023-08-06T08:57:02Z</time>
      </trkpt>
      <trkpt lat="44.86132" lon="0.61393">
        <ele>114.5</ele>
        <time>2023-08-06T08:57:04Z</time>
      </trkpt>
      <trkpt lat="44.86134" lon="0.61394">
        <ele>114.6</ele>
        <time>2023-08-06T08:57:05Z</time>
      </trkpt>
      <trkpt lat="44.86137" lon="0.61396">
        <ele>114.8</ele>
        <time>2023-08-06T08:57:06Z</time>
      </trkpt>
      <trkpt lat="44.86139" lon="0.61399">
        <ele>115</ele>
        <time>2023-08-06T08:57:07Z</time>
      </trkpt>
      <trkpt lat="44.8614" lon="0.61402">
        <ele>115.1</ele>
        <time>2023-08-06T08:57:08Z</time>
      </trkpt>
      <trkpt lat="44.86141" lon="0.61406">
        <ele>115.3</ele>
        <time>2023-08-06T08:57:09Z</time>
      </trkpt>
      <trkpt lat="44.86141" lon="0.61411">
        <ele>115.5</ele>
        <time>2023-08-06T08:57:10Z</time>
      </trkpt>
      <trkpt lat="44.86143" lon="0.61415">
        <ele>115.7</ele>
        <time>2023-08-06T08:57:11Z</time>
      </trkpt>
      <trkpt lat="44.86145" lon="0.61417">
        <ele>115.9</ele>
        <time>2023-08-06T08:57:12Z</time>
      </trkpt>
      <trkpt lat="44.86148" lon="0.61415">
        <ele>116.1</ele>
        <time>2023-08-06T08:57:14Z</time>
      </trkpt>
      <trkpt lat="44.8615" lon="0.61412">
        <ele>116.2</ele>
        <time>2023-08-06T08:57:16Z</time>
      </trkpt>
      <trkpt lat="44.86151" lon="0.61412">
        <ele>116.2</ele>
        <time>2023-08-06T08:57:17Z</time>
      </trkpt>
      <trkpt lat="44.86151" lon="0.6141">
        <ele>116.3</ele>
        <time>2023-08-06T08:57:18Z</time>
      </trkpt>
      <trkpt lat="44.86152" lon="0.61409">
        <ele>116.3</ele>
        <time>2023-08-06T08:57:19Z</time>
      </trkpt>
      <trkpt lat="44.86153" lon="0.61408">
        <ele>116.3</ele>
        <time>2023-08-06T08:57:20Z</time>
      </trkpt>
      <trkpt lat="44.86154" lon="0.61408">
        <ele>116.4</ele>
        <time>2023-08-06T08:57:21Z</time>
      </trkpt>
      <trkpt lat="44.86155" lon="0.61406">
        <ele>116.4</ele>
        <time>2023-08-06T08:57:22Z</time>
      </trkpt>
      <trkpt lat="44.86158" lon="0.61404">
        <ele>116.5</ele>
        <time>2023-08-06T08:57:24Z</time>
      </trkpt>
      <trkpt lat="44.8616" lon="0.61403">
        <ele>116.6</ele>
        <time>2023-08-06T08:57:26Z</time>
      </trkpt>
      <trkpt lat="44.86163" lon="0.61402">
        <ele>116.7</ele>
        <time>2023-08-06T08:57:27Z</time>
      </trkpt>
      <trkpt lat="44.86165" lon="0.61402">
        <ele>116.7</ele>
        <time>2023-08-06T08:57:28Z</time>
      </trkpt>
      <trkpt lat="44.86169" lon="0.61401">
        <ele>116.8</ele>
        <time>2023-08-06T08:57:30Z</time>
      </trkpt>
      <trkpt lat="44.86174" lon="0.61402">
        <ele>117</ele>
        <time>2023-08-06T08:57:32Z</time>
      </trkpt>
      <trkpt lat="44.8618" lon="0.61405">
        <ele>117.2</ele>
        <time>2023-08-06T08:57:34Z</time>
      </trkpt>
      <trkpt lat="44.86186" lon="0.61409">
        <ele>117.3</ele>
        <time>2023-08-06T08:57:36Z</time>
      </trkpt>
      <trkpt lat="44.86189" lon="0.61411">
        <ele>117.4</ele>
        <time>2023-08-06T08:57:37Z</time>
      </trkpt>
      <trkpt lat="44.86192" lon="0.61414">
        <ele>117.5</ele>
        <time>2023-08-06T08:57:38Z</time>
      </trkpt>
      <trkpt lat="44.86195" lon="0.61416">
        <ele>117.6</ele>
        <time>2023-08-06T08:57:39Z</time>
      </trkpt>
      <trkpt lat="44.86198" lon="0.61417">
        <ele>117.6</ele>
        <time>2023-08-06T08:57:40Z</time>
      </trkpt>
      <trkpt lat="44.86201" lon="0.61417">
        <ele>117.7</ele>
        <time>2023-08-06T08:57:41Z</time>
      </trkpt>
      <trkpt lat="44.86203" lon="0.61415">
        <ele>117.7</ele>
        <time>2023-08-06T08:57:42Z</time>
      </trkpt>
      <trkpt lat="44.86207" lon="0.61411">
        <ele>117.8</ele>
        <time>2023-08-06T08:57:44Z</time>
      </trkpt>
      <trkpt lat="44.86208" lon="0.61408">
        <ele>117.8</ele>
        <time>2023-08-06T08:57:45Z</time>
      </trkpt>
      <trkpt lat="44.8621" lon="0.61405">
        <ele>117.8</ele>
        <time>2023-08-06T08:57:46Z</time>
      </trkpt>
      <trkpt lat="44.86211" lon="0.61399">
        <ele>117.9</ele>
        <time>2023-08-06T08:57:48Z</time>
      </trkpt>
      <trkpt lat="44.86212" lon="0.61395">
        <ele>117.9</ele>
        <time>2023-08-06T08:57:50Z</time>
      </trkpt>
      <trkpt lat="44.86214" lon="0.61389">
        <ele>118</ele>
        <time>2023-08-06T08:57:52Z</time>
      </trkpt>
      <trkpt lat="44.86217" lon="0.61384">
        <ele>118</ele>
        <time>2023-08-06T08:57:54Z</time>
      </trkpt>
      <trkpt lat="44.86218" lon="0.61382">
        <ele>118</ele>
        <time>2023-08-06T08:57:55Z</time>
      </trkpt>
      <trkpt lat="44.86221" lon="0.61381">
        <ele>118.1</ele>
        <time>2023-08-06T08:57:56Z</time>
      </trkpt>
      <trkpt lat="44.86225" lon="0.61378">
        <ele>118.1</ele>
        <time>2023-08-06T08:57:58Z</time>
      </trkpt>
      <trkpt lat="44.86231" lon="0.61376">
        <ele>118.2</ele>
        <time>2023-08-06T08:58:00Z</time>
      </trkpt>
      <trkpt lat="44.86235" lon="0.61376">
        <ele>118.3</ele>
        <time>2023-08-06T08:58:01Z</time>
      </trkpt>
      <trkpt lat="44.86239" lon="0.61376">
        <ele>118.3</ele>
        <time>2023-08-06T08:58:02Z</time>
      </trkpt>
      <trkpt lat="44.86243" lon="0.61379">
        <ele>118.4</ele>
        <time>2023-08-06T08:58:04Z</time>
      </trkpt>
      <trkpt lat="44.86244" lon="0.61379">
        <ele>118.4</ele>
        <time>2023-08-06T08:58:05Z</time>
      </trkpt>
      <trkpt lat="44.86245" lon="0.6138">
        <ele>118.4</ele>
        <time>2023-08-06T08:58:06Z</time>
      </trkpt>
      <trkpt lat="44.86248" lon="0.6138">
        <ele>118.5</ele>
        <time>2023-08-06T08:58:08Z</time>
      </trkpt>
      <trkpt lat="44.8625" lon="0.6138">
        <ele>118.5</ele>
        <time>2023-08-06T08:58:09Z</time>
      </trkpt>
      <trkpt lat="44.86252" lon="0.6138">
        <ele>118.6</ele>
        <time>2023-08-06T08:58:10Z</time>
      </trkpt>
      <trkpt lat="44.86254" lon="0.6138">
        <ele>118.6</ele>
        <time>2023-08-06T08:58:12Z</time>
      </trkpt>
      <trkpt lat="44.86255" lon="0.6138">
        <ele>118.6</ele>
        <time>2023-08-06T08:58:13Z</time>
      </trkpt>
      <trkpt lat="44.86257" lon="0.6138">
        <ele>118.7</ele>
        <time>2023-08-06T08:58:14Z</time>
      </trkpt>
      <trkpt lat="44.86261" lon="0.61378">
        <ele>118.8</ele>
        <time>2023-08-06T08:58:16Z</time>
      </trkpt>
      <trkpt lat="44.86263" lon="0.61377">
        <ele>118.8</ele>
        <time>2023-08-06T08:58:17Z</time>
      </trkpt>
      <trkpt lat="44.86264" lon="0.61375">
        <ele>118.8</ele>
        <time>2023-08-06T08:58:18Z</time>
      </trkpt>
      <trkpt lat="44.86266" lon="0.61374">
        <ele>118.9</ele>
        <time>2023-08-06T08:58:20Z</time>
      </trkpt>
      <trkpt lat="44.86268" lon="0.61374">
        <ele>119</ele>
        <time>2023-08-06T08:58:21Z</time>
      </trkpt>
      <trkpt lat="44.86268" lon="0.61376">
        <ele>119</ele>
        <time>2023-08-06T08:58:22Z</time>
      </trkpt>
      <trkpt lat="44.8627" lon="0.61379">
        <ele>119.1</ele>
        <time>2023-08-06T08:58:24Z</time>
      </trkpt>
      <trkpt lat="44.86273" lon="0.61383">
        <ele>119.2</ele>
        <time>2023-08-06T08:58:26Z</time>
      </trkpt>
      <trkpt lat="44.86273" lon="0.61385">
        <ele>119.3</ele>
        <time>2023-08-06T08:58:27Z</time>
      </trkpt>
      <trkpt lat="44.86274" lon="0.61386">
        <ele>119.3</ele>
        <time>2023-08-06T08:58:28Z</time>
      </trkpt>
      <trkpt lat="44.86276" lon="0.61387">
        <ele>119.3</ele>
        <time>2023-08-06T08:58:30Z</time>
      </trkpt>
      <trkpt lat="44.86303" lon="0.61396">
        <ele>120.7</ele>
        <time>2023-08-06T08:58:52Z</time>
      </trkpt>
      <trkpt lat="44.86305" lon="0.61399">
        <ele>120.9</ele>
        <time>2023-08-06T08:58:54Z</time>
      </trkpt>
      <trkpt lat="44.86307" lon="0.61403">
        <ele>121.2</ele>
        <time>2023-08-06T08:58:56Z</time>
      </trkpt>
      <trkpt lat="44.86309" lon="0.61404">
        <ele>121.3</ele>
        <time>2023-08-06T08:58:57Z</time>
      </trkpt>
      <trkpt lat="44.86311" lon="0.61405">
        <ele>121.4</ele>
        <time>2023-08-06T08:58:58Z</time>
      </trkpt>
      <trkpt lat="44.86312" lon="0.61405">
        <ele>121.6</ele>
        <time>2023-08-06T08:58:59Z</time>
      </trkpt>
      <trkpt lat="44.86315" lon="0.61405">
        <ele>121.8</ele>
        <time>2023-08-06T08:59:00Z</time>
      </trkpt>
      <trkpt lat="44.86321" lon="0.61408">
        <ele>122.4</ele>
        <time>2023-08-06T08:59:02Z</time>
      </trkpt>
      <trkpt lat="44.86325" lon="0.61407">
        <ele>122.8</ele>
        <time>2023-08-06T08:59:04Z</time>
      </trkpt>
      <trkpt lat="44.86328" lon="0.61404">
        <ele>123.3</ele>
        <time>2023-08-06T08:59:06Z</time>
      </trkpt>
      <trkpt lat="44.86332" lon="0.614">
        <ele>123.8</ele>
        <time>2023-08-06T08:59:08Z</time>
      </trkpt>
      <trkpt lat="44.86337" lon="0.61398">
        <ele>124.3</ele>
        <time>2023-08-06T08:59:10Z</time>
      </trkpt>
      <trkpt lat="44.86339" lon="0.61397">
        <ele>124.6</ele>
        <time>2023-08-06T08:59:11Z</time>
      </trkpt>
      <trkpt lat="44.86341" lon="0.61396">
        <ele>124.8</ele>
        <time>2023-08-06T08:59:12Z</time>
      </trkpt>
      <trkpt lat="44.86346" lon="0.61394">
        <ele>125.3</ele>
        <time>2023-08-06T08:59:14Z</time>
      </trkpt>
      <trkpt lat="44.86348" lon="0.61392">
        <ele>125.5</ele>
        <time>2023-08-06T08:59:15Z</time>
      </trkpt>
      <trkpt lat="44.86349" lon="0.6139">
        <ele>125.7</ele>
        <time>2023-08-06T08:59:16Z</time>
      </trkpt>
      <trkpt lat="44.86357" lon="0.61388">
        <ele>126.4</ele>
        <time>2023-08-06T08:59:18Z</time>
      </trkpt>
      <trkpt lat="44.8636" lon="0.61388">
        <ele>126.6</ele>
        <time>2023-08-06T08:59:19Z</time>
      </trkpt>
      <trkpt lat="44.86364" lon="0.61388">
        <ele>126.8</ele>
        <time>2023-08-06T08:59:20Z</time>
      </trkpt>
      <trkpt lat="44.8637" lon="0.61388">
        <ele>127.2</ele>
        <time>2023-08-06T08:59:22Z</time>
      </trkpt>
      <trkpt lat="44.86375" lon="0.61385">
        <ele>127.4</ele>
        <time>2023-08-06T08:59:24Z</time>
      </trkpt>
      <trkpt lat="44.8638" lon="0.61383">
        <ele>127.6</ele>
        <time>2023-08-06T08:59:26Z</time>
      </trkpt>
      <trkpt lat="44.86388" lon="0.61383">
        <ele>127.8</ele>
        <time>2023-08-06T08:59:28Z</time>
      </trkpt>
      <trkpt lat="44.86401" lon="0.61383">
        <ele>127.9</ele>
        <time>2023-08-06T08:59:30Z</time>
      </trkpt>
      <trkpt lat="44.86408" lon="0.61386">
        <ele>127.8</ele>
        <time>2023-08-06T08:59:32Z</time>
      </trkpt>
      <trkpt lat="44.86411" lon="0.61387">
        <ele>127.8</ele>
        <time>2023-08-06T08:59:33Z</time>
      </trkpt>
      <trkpt lat="44.86415" lon="0.61388">
        <ele>127.8</ele>
        <time>2023-08-06T08:59:34Z</time>
      </trkpt>
      <trkpt lat="44.86421" lon="0.6139">
        <ele>127.7</ele>
        <time>2023-08-06T08:59:36Z</time>
      </trkpt>
      <trkpt lat="44.86429" lon="0.61392">
        <ele>127.6</ele>
        <time>2023-08-06T08:59:38Z</time>
      </trkpt>
      <trkpt lat="44.86433" lon="0.61394">
        <ele>127.6</ele>
        <time>2023-08-06T08:59:39Z</time>
      </trkpt>
      <trkpt lat="44.86437" lon="0.61395">
        <ele>127.5</ele>
        <time>2023-08-06T08:59:40Z</time>
      </trkpt>
      <trkpt lat="44.86446" lon="0.614">
        <ele>127.4</ele>
        <time>2023-08-06T08:59:42Z</time>
      </trkpt>
      <trkpt lat="44.86454" lon="0.61405">
        <ele>127.3</ele>
        <time>2023-08-06T08:59:44Z</time>
      </trkpt>
      <trkpt lat="44.86459" lon="0.61405">
        <ele>127.4</ele>
        <time>2023-08-06T08:59:45Z</time>
      </trkpt>
      <trkpt lat="44.86462" lon="0.61404">
        <ele>127.4</ele>
        <time>2023-08-06T08:59:46Z</time>
      </trkpt>
      <trkpt lat="44.86467" lon="0.61398">
        <ele>127.6</ele>
        <time>2023-08-06T08:59:48Z</time>
      </trkpt>
      <trkpt lat="44.86468" lon="0.61394">
        <ele>127.6</ele>
        <time>2023-08-06T08:59:49Z</time>
      </trkpt>
      <trkpt lat="44.86468" lon="0.6139">
        <ele>127.7</ele>
        <time>2023-08-06T08:59:50Z</time>
      </trkpt>
      <trkpt lat="44.86468" lon="0.61381">
        <ele>127.8</ele>
        <time>2023-08-06T08:59:52Z</time>
      </trkpt>
      <trkpt lat="44.86468" lon="0.61375">
        <ele>127.8</ele>
        <time>2023-08-06T08:59:54Z</time>
      </trkpt>
      <trkpt lat="44.86468" lon="0.61369">
        <ele>127.9</ele>
        <time>2023-08-06T08:59:56Z</time>
      </trkpt>
      <trkpt lat="44.86468" lon="0.61362">
        <ele>128</ele>
        <time>2023-08-06T08:59:58Z</time>
      </trkpt>
      <trkpt lat="44.86469" lon="0.61355">
        <ele>128.2</ele>
        <time>2023-08-06T09:00:00Z</time>
      </trkpt>
      <trkpt lat="44.86469" lon="0.61351">
        <ele>128.3</ele>
        <time>2023-08-06T09:00:01Z</time>
      </trkpt>
      <trkpt lat="44.86469" lon="0.61347">
        <ele>128.3</ele>
        <time>2023-08-06T09:00:02Z</time>
      </trkpt>
      <trkpt lat="44.86468" lon="0.6134">
        <ele>128.5</ele>
        <time>2023-08-06T09:00:04Z</time>
      </trkpt>
      <trkpt lat="44.86467" lon="0.61336">
        <ele>128.6</ele>
        <time>2023-08-06T09:00:05Z</time>
      </trkpt>
      <trkpt lat="44.86468" lon="0.61333">
        <ele>128.7</ele>
        <time>2023-08-06T09:00:06Z</time>
      </trkpt>
      <trkpt lat="44.86468" lon="0.61329">
        <ele>128.8</ele>
        <time>2023-08-06T09:00:07Z</time>
      </trkpt>
      <trkpt lat="44.86468" lon="0.61326">
        <ele>128.8</ele>
        <time>2023-08-06T09:00:08Z</time>
      </trkpt>
      <trkpt lat="44.86469" lon="0.61323">
        <ele>128.9</ele>
        <time>2023-08-06T09:00:09Z</time>
      </trkpt>
      <trkpt lat="44.86469" lon="0.6132">
        <ele>129</ele>
        <time>2023-08-06T09:00:10Z</time>
      </trkpt>
      <trkpt lat="44.8647" lon="0.61314">
        <ele>129.1</ele>
        <time>2023-08-06T09:00:12Z</time>
      </trkpt>
      <trkpt lat="44.86471" lon="0.61308">
        <ele>129.3</ele>
        <time>2023-08-06T09:00:14Z</time>
      </trkpt>
      <trkpt lat="44.86471" lon="0.61304">
        <ele>129.4</ele>
        <time>2023-08-06T09:00:15Z</time>
      </trkpt>
      <trkpt lat="44.86471" lon="0.61301">
        <ele>129.4</ele>
        <time>2023-08-06T09:00:16Z</time>
      </trkpt>
      <trkpt lat="44.86471" lon="0.61294">
        <ele>129.6</ele>
        <time>2023-08-06T09:00:18Z</time>
      </trkpt>
      <trkpt lat="44.8647" lon="0.61287">
        <ele>129.7</ele>
        <time>2023-08-06T09:00:20Z</time>
      </trkpt>
      <trkpt lat="44.8647" lon="0.6128">
        <ele>129.9</ele>
        <time>2023-08-06T09:00:22Z</time>
      </trkpt>
      <trkpt lat="44.86471" lon="0.61273">
        <ele>130</ele>
        <time>2023-08-06T09:00:24Z</time>
      </trkpt>
      <trkpt lat="44.86471" lon="0.61269">
        <ele>130.1</ele>
        <time>2023-08-06T09:00:25Z</time>
      </trkpt>
      <trkpt lat="44.86471" lon="0.61266">
        <ele>130.1</ele>
        <time>2023-08-06T09:00:26Z</time>
      </trkpt>
      <trkpt lat="44.86472" lon="0.61257">
        <ele>130.3</ele>
        <time>2023-08-06T09:00:28Z</time>
      </trkpt>
      <trkpt lat="44.86472" lon="0.61249">
        <ele>130.4</ele>
        <time>2023-08-06T09:00:30Z</time>
      </trkpt>
      <trkpt lat="44.86472" lon="0.61244">
        <ele>130.4</ele>
        <time>2023-08-06T09:00:31Z</time>
      </trkpt>
      <trkpt lat="44.86472" lon="0.61239">
        <ele>130.5</ele>
        <time>2023-08-06T09:00:32Z</time>
      </trkpt>
      <trkpt lat="44.86472" lon="0.6123">
        <ele>130.7</ele>
        <time>2023-08-06T09:00:34Z</time>
      </trkpt>
      <trkpt lat="44.86473" lon="0.61225">
        <ele>130.7</ele>
        <time>2023-08-06T09:00:35Z</time>
      </trkpt>
      <trkpt lat="44.86474" lon="0.6122">
        <ele>130.8</ele>
        <time>2023-08-06T09:00:36Z</time>
      </trkpt>
      <trkpt lat="44.86474" lon="0.61216">
        <ele>130.9</ele>
        <time>2023-08-06T09:00:37Z</time>
      </trkpt>
      <trkpt lat="44.86475" lon="0.61211">
        <ele>130.9</ele>
        <time>2023-08-06T09:00:38Z</time>
      </trkpt>
      <trkpt lat="44.86476" lon="0.61207">
        <ele>131</ele>
        <time>2023-08-06T09:00:39Z</time>
      </trkpt>
      <trkpt lat="44.86476" lon="0.61203">
        <ele>131</ele>
        <time>2023-08-06T09:00:40Z</time>
      </trkpt>
      <trkpt lat="44.86478" lon="0.61196">
        <ele>131.1</ele>
        <time>2023-08-06T09:00:42Z</time>
      </trkpt>
      <trkpt lat="44.86478" lon="0.61193">
        <ele>131.2</ele>
        <time>2023-08-06T09:00:43Z</time>
      </trkpt>
      <trkpt lat="44.86478" lon="0.61191">
        <ele>131.2</ele>
        <time>2023-08-06T09:00:44Z</time>
      </trkpt>
      <trkpt lat="44.86479" lon="0.61188">
        <ele>131.2</ele>
        <time>2023-08-06T09:00:45Z</time>
      </trkpt>
      <trkpt lat="44.8648" lon="0.61185">
        <ele>131.3</ele>
        <time>2023-08-06T09:00:46Z</time>
      </trkpt>
      <trkpt lat="44.8648" lon="0.61183">
        <ele>131.3</ele>
        <time>2023-08-06T09:00:47Z</time>
      </trkpt>
      <trkpt lat="44.8648" lon="0.6118">
        <ele>131.3</ele>
        <time>2023-08-06T09:00:48Z</time>
      </trkpt>
      <trkpt lat="44.8648" lon="0.61177">
        <ele>131.4</ele>
        <time>2023-08-06T09:00:49Z</time>
      </trkpt>
      <trkpt lat="44.86479" lon="0.61174">
        <ele>131.4</ele>
        <time>2023-08-06T09:00:50Z</time>
      </trkpt>
      <trkpt lat="44.86478" lon="0.6117">
        <ele>131.5</ele>
        <time>2023-08-06T09:00:51Z</time>
      </trkpt>
      <trkpt lat="44.86478" lon="0.61166">
        <ele>131.5</ele>
        <time>2023-08-06T09:00:52Z</time>
      </trkpt>
      <trkpt lat="44.86476" lon="0.61157">
        <ele>131.7</ele>
        <time>2023-08-06T09:00:54Z</time>
      </trkpt>
      <trkpt lat="44.86476" lon="0.61152">
        <ele>131.8</ele>
        <time>2023-08-06T09:00:55Z</time>
      </trkpt>
      <trkpt lat="44.86476" lon="0.61147">
        <ele>131.8</ele>
        <time>2023-08-06T09:00:56Z</time>
      </trkpt>
      <trkpt lat="44.86477" lon="0.61139">
        <ele>131.8</ele>
        <time>2023-08-06T09:00:58Z</time>
      </trkpt>
      <trkpt lat="44.86477" lon="0.61131">
        <ele>131.9</ele>
        <time>2023-08-06T09:01:00Z</time>
      </trkpt>
      <trkpt lat="44.86477" lon="0.61126">
        <ele>131.9</ele>
        <time>2023-08-06T09:01:02Z</time>
      </trkpt>
      <trkpt lat="44.86477" lon="0.61117">
        <ele>132</ele>
        <time>2023-08-06T09:01:04Z</time>
      </trkpt>
      <trkpt lat="44.86475" lon="0.61107">
        <ele>132</ele>
        <time>2023-08-06T09:01:06Z</time>
      </trkpt>
      <trkpt lat="44.86472" lon="0.61097">
        <ele>132.1</ele>
        <time>2023-08-06T09:01:08Z</time>
      </trkpt>
      <trkpt lat="44.86469" lon="0.61095">
        <ele>132.1</ele>
        <time>2023-08-06T09:01:09Z</time>
      </trkpt>
      <trkpt lat="44.86466" lon="0.61093">
        <ele>132.1</ele>
        <time>2023-08-06T09:01:10Z</time>
      </trkpt>
      <trkpt lat="44.86464" lon="0.61094">
        <ele>132.1</ele>
        <time>2023-08-06T09:01:11Z</time>
      </trkpt>
      <trkpt lat="44.86461" lon="0.61092">
        <ele>132.1</ele>
        <time>2023-08-06T09:01:12Z</time>
      </trkpt>
      <trkpt lat="44.86458" lon="0.61086">
        <ele>132.1</ele>
        <time>2023-08-06T09:01:14Z</time>
      </trkpt>
      <trkpt lat="44.86453" lon="0.61079">
        <ele>132.1</ele>
        <time>2023-08-06T09:01:16Z</time>
      </trkpt>
      <trkpt lat="44.86445" lon="0.61074">
        <ele>132</ele>
        <time>2023-08-06T09:01:18Z</time>
      </trkpt>
      <trkpt lat="44.86441" lon="0.61073">
        <ele>131.9</ele>
        <time>2023-08-06T09:01:19Z</time>
      </trkpt>
      <trkpt lat="44.86436" lon="0.61071">
        <ele>131.8</ele>
        <time>2023-08-06T09:01:20Z</time>
      </trkpt>
      <trkpt lat="44.8643" lon="0.61064">
        <ele>131.6</ele>
        <time>2023-08-06T09:01:22Z</time>
      </trkpt>
      <trkpt lat="44.86427" lon="0.61054">
        <ele>131.4</ele>
        <time>2023-08-06T09:01:24Z</time>
      </trkpt>
      <trkpt lat="44.86427" lon="0.61049">
        <ele>131.3</ele>
        <time>2023-08-06T09:01:25Z</time>
      </trkpt>
      <trkpt lat="44.86426" lon="0.61044">
        <ele>131.2</ele>
        <time>2023-08-06T09:01:26Z</time>
      </trkpt>
      <trkpt lat="44.86422" lon="0.61035">
        <ele>130.9</ele>
        <time>2023-08-06T09:01:28Z</time>
      </trkpt>
      <trkpt lat="44.8642" lon="0.61029">
        <ele>130.8</ele>
        <time>2023-08-06T09:01:29Z</time>
      </trkpt>
      <trkpt lat="44.86417" lon="0.61024">
        <ele>130.7</ele>
        <time>2023-08-06T09:01:30Z</time>
      </trkpt>
      <trkpt lat="44.86414" lon="0.61018">
        <ele>130.6</ele>
        <time>2023-08-06T09:01:31Z</time>
      </trkpt>
      <trkpt lat="44.8641" lon="0.61012">
        <ele>130.4</ele>
        <time>2023-08-06T09:01:32Z</time>
      </trkpt>
      <trkpt lat="44.86408" lon="0.61008">
        <ele>130.3</ele>
        <time>2023-08-06T09:01:33Z</time>
      </trkpt>
      <trkpt lat="44.86406" lon="0.61001">
        <ele>130.2</ele>
        <time>2023-08-06T09:01:34Z</time>
      </trkpt>
      <trkpt lat="44.86405" lon="0.60995">
        <ele>130</ele>
        <time>2023-08-06T09:01:35Z</time>
      </trkpt>
      <trkpt lat="44.86403" lon="0.60989">
        <ele>129.9</ele>
        <time>2023-08-06T09:01:36Z</time>
      </trkpt>
      <trkpt lat="44.86402" lon="0.60984">
        <ele>129.8</ele>
        <time>2023-08-06T09:01:37Z</time>
      </trkpt>
      <trkpt lat="44.86402" lon="0.60978">
        <ele>129.6</ele>
        <time>2023-08-06T09:01:38Z</time>
      </trkpt>
      <trkpt lat="44.86403" lon="0.60971">
        <ele>129.5</ele>
        <time>2023-08-06T09:01:39Z</time>
      </trkpt>
      <trkpt lat="44.86402" lon="0.60965">
        <ele>129.4</ele>
        <time>2023-08-06T09:01:40Z</time>
      </trkpt>
      <trkpt lat="44.864" lon="0.60953">
        <ele>129.2</ele>
        <time>2023-08-06T09:01:42Z</time>
      </trkpt>
      <trkpt lat="44.86398" lon="0.6094">
        <ele>129.1</ele>
        <time>2023-08-06T09:01:44Z</time>
      </trkpt>
      <trkpt lat="44.86396" lon="0.60934">
        <ele>129.1</ele>
        <time>2023-08-06T09:01:45Z</time>
      </trkpt>
      <trkpt lat="44.86394" lon="0.60928">
        <ele>129.1</ele>
        <time>2023-08-06T09:01:46Z</time>
      </trkpt>
      <trkpt lat="44.86394" lon="0.60924">
        <ele>129.2</ele>
        <time>2023-08-06T09:01:47Z</time>
      </trkpt>
      <trkpt lat="44.86396" lon="0.60923">
        <ele>129.2</ele>
        <time>2023-08-06T09:01:48Z</time>
      </trkpt>
      <trkpt lat="44.86398" lon="0.60922">
        <ele>129.2</ele>
        <time>2023-08-06T09:01:49Z</time>
      </trkpt>
      <trkpt lat="44.864" lon="0.60921">
        <ele>129.3</ele>
        <time>2023-08-06T09:01:50Z</time>
      </trkpt>
      <trkpt lat="44.86404" lon="0.60919">
        <ele>129.3</ele>
        <time>2023-08-06T09:01:52Z</time>
      </trkpt>
      <trkpt lat="44.86408" lon="0.60912">
        <ele>129.4</ele>
        <time>2023-08-06T09:01:54Z</time>
      </trkpt>
      <trkpt lat="44.86409" lon="0.6091">
        <ele>129.4</ele>
        <time>2023-08-06T09:01:55Z</time>
      </trkpt>
      <trkpt lat="44.86412" lon="0.60908">
        <ele>129.4</ele>
        <time>2023-08-06T09:01:56Z</time>
      </trkpt>
      <trkpt lat="44.86417" lon="0.60907">
        <ele>129.4</ele>
        <time>2023-08-06T09:01:58Z</time>
      </trkpt>
      <trkpt lat="44.86421" lon="0.60907">
        <ele>129.3</ele>
        <time>2023-08-06T09:02:00Z</time>
      </trkpt>
      <trkpt lat="44.86422" lon="0.60906">
        <ele>129.3</ele>
        <time>2023-08-06T09:02:01Z</time>
      </trkpt>
      <trkpt lat="44.86422" lon="0.60906">
        <ele>129.3</ele>
        <time>2023-08-06T09:02:02Z</time>
      </trkpt>
      <trkpt lat="44.86425" lon="0.60909">
        <ele>129.2</ele>
        <time>2023-08-06T09:02:04Z</time>
      </trkpt>
      <trkpt lat="44.86427" lon="0.60911">
        <ele>129.2</ele>
        <time>2023-08-06T09:02:05Z</time>
      </trkpt>
      <trkpt lat="44.86429" lon="0.60913">
        <ele>129.2</ele>
        <time>2023-08-06T09:02:06Z</time>
      </trkpt>
      <trkpt lat="44.86432" lon="0.60917">
        <ele>129.1</ele>
        <time>2023-08-06T09:02:08Z</time>
      </trkpt>
      <trkpt lat="44.86437" lon="0.60922">
        <ele>129.1</ele>
        <time>2023-08-06T09:02:10Z</time>
      </trkpt>
      <trkpt lat="44.86439" lon="0.60924">
        <ele>129.1</ele>
        <time>2023-08-06T09:02:11Z</time>
      </trkpt>
      <trkpt lat="44.86442" lon="0.60926">
        <ele>129.1</ele>
        <time>2023-08-06T09:02:12Z</time>
      </trkpt>
      <trkpt lat="44.86448" lon="0.60934">
        <ele>129.3</ele>
        <time>2023-08-06T09:02:14Z</time>
      </trkpt>
      <trkpt lat="44.86451" lon="0.60938">
        <ele>129.4</ele>
        <time>2023-08-06T09:02:15Z</time>
      </trkpt>
      <trkpt lat="44.86454" lon="0.60943">
        <ele>129.5</ele>
        <time>2023-08-06T09:02:16Z</time>
      </trkpt>
      <trkpt lat="44.86459" lon="0.60951">
        <ele>129.7</ele>
        <time>2023-08-06T09:02:18Z</time>
      </trkpt>
      <trkpt lat="44.86465" lon="0.60959">
        <ele>130</ele>
        <time>2023-08-06T09:02:20Z</time>
      </trkpt>
      <trkpt lat="44.86469" lon="0.60967">
        <ele>130.2</ele>
        <time>2023-08-06T09:02:22Z</time>
      </trkpt>
      <trkpt lat="44.86472" lon="0.60977">
        <ele>130.4</ele>
        <time>2023-08-06T09:02:24Z</time>
      </trkpt>
      <trkpt lat="44.86473" lon="0.60981">
        <ele>130.5</ele>
        <time>2023-08-06T09:02:25Z</time>
      </trkpt>
      <trkpt lat="44.86474" lon="0.60986">
        <ele>130.6</ele>
        <time>2023-08-06T09:02:26Z</time>
      </trkpt>
      <trkpt lat="44.86473" lon="0.60996">
        <ele>130.8</ele>
        <time>2023-08-06T09:02:28Z</time>
      </trkpt>
      <trkpt lat="44.86474" lon="0.61006">
        <ele>131</ele>
        <time>2023-08-06T09:02:30Z</time>
      </trkpt>
      <trkpt lat="44.86474" lon="0.61011">
        <ele>131.1</ele>
        <time>2023-08-06T09:02:31Z</time>
      </trkpt>
      <trkpt lat="44.86476" lon="0.61016">
        <ele>131.2</ele>
        <time>2023-08-06T09:02:32Z</time>
      </trkpt>
      <trkpt lat="44.86478" lon="0.61025">
        <ele>131.4</ele>
        <time>2023-08-06T09:02:34Z</time>
      </trkpt>
      <trkpt lat="44.8648" lon="0.61032">
        <ele>131.6</ele>
        <time>2023-08-06T09:02:36Z</time>
      </trkpt>
      <trkpt lat="44.86484" lon="0.61041">
        <ele>131.8</ele>
        <time>2023-08-06T09:02:38Z</time>
      </trkpt>
      <trkpt lat="44.86488" lon="0.61051">
        <ele>131.9</ele>
        <time>2023-08-06T09:02:40Z</time>
      </trkpt>
      <trkpt lat="44.8649" lon="0.61057">
        <ele>132</ele>
        <time>2023-08-06T09:02:41Z</time>
      </trkpt>
      <trkpt lat="44.86492" lon="0.61063">
        <ele>132.1</ele>
        <time>2023-08-06T09:02:42Z</time>
      </trkpt>
      <trkpt lat="44.86497" lon="0.61075">
        <ele>132.1</ele>
        <time>2023-08-06T09:02:44Z</time>
      </trkpt>
      <trkpt lat="44.86501" lon="0.61083">
        <ele>132.1</ele>
        <time>2023-08-06T09:02:46Z</time>
      </trkpt>
      <trkpt lat="44.86504" lon="0.61084">
        <ele>132.1</ele>
        <time>2023-08-06T09:02:48Z</time>
      </trkpt>
      <trkpt lat="44.86506" lon="0.61081">
        <ele>132</ele>
        <time>2023-08-06T09:02:50Z</time>
      </trkpt>
      <trkpt lat="44.86508" lon="0.61076">
        <ele>132</ele>
        <time>2023-08-06T09:02:52Z</time>
      </trkpt>
      <trkpt lat="44.86509" lon="0.61068">
        <ele>131.9</ele>
        <time>2023-08-06T09:02:54Z</time>
      </trkpt>
      <trkpt lat="44.8651" lon="0.61059">
        <ele>131.7</ele>
        <time>2023-08-06T09:02:56Z</time>
      </trkpt>
      <trkpt lat="44.8651" lon="0.61049">
        <ele>131.6</ele>
        <time>2023-08-06T09:02:58Z</time>
      </trkpt>
      <trkpt lat="44.8651" lon="0.61036">
        <ele>131.5</ele>
        <time>2023-08-06T09:03:00Z</time>
      </trkpt>
      <trkpt lat="44.86512" lon="0.61024">
        <ele>131.4</ele>
        <time>2023-08-06T09:03:02Z</time>
      </trkpt>
      <trkpt lat="44.86515" lon="0.61019">
        <ele>131.5</ele>
        <time>2023-08-06T09:03:03Z</time>
      </trkpt>
      <trkpt lat="44.86518" lon="0.61015">
        <ele>131.5</ele>
        <time>2023-08-06T09:03:04Z</time>
      </trkpt>
      <trkpt lat="44.86525" lon="0.61006">
        <ele>131.6</ele>
        <time>2023-08-06T09:03:06Z</time>
      </trkpt>
      <trkpt lat="44.86529" lon="0.61002">
        <ele>131.6</ele>
        <time>2023-08-06T09:03:07Z</time>
      </trkpt>
      <trkpt lat="44.86532" lon="0.60997">
        <ele>131.6</ele>
        <time>2023-08-06T09:03:08Z</time>
      </trkpt>
      <trkpt lat="44.8654" lon="0.60987">
        <ele>131.4</ele>
        <time>2023-08-06T09:03:10Z</time>
      </trkpt>
      <trkpt lat="44.86544" lon="0.60983">
        <ele>131.3</ele>
        <time>2023-08-06T09:03:11Z</time>
      </trkpt>
      <trkpt lat="44.86545" lon="0.60979">
        <ele>131.3</ele>
        <time>2023-08-06T09:03:12Z</time>
      </trkpt>
      <trkpt lat="44.86544" lon="0.60976">
        <ele>131.2</ele>
        <time>2023-08-06T09:03:13Z</time>
      </trkpt>
      <trkpt lat="44.86545" lon="0.60972">
        <ele>131.2</ele>
        <time>2023-08-06T09:03:14Z</time>
      </trkpt>
      <trkpt lat="44.86547" lon="0.60967">
        <ele>131</ele>
        <time>2023-08-06T09:03:15Z</time>
      </trkpt>
      <trkpt lat="44.86546" lon="0.60961">
        <ele>131</ele>
        <time>2023-08-06T09:03:16Z</time>
      </trkpt>
      <trkpt lat="44.86546" lon="0.60954">
        <ele>131</ele>
        <time>2023-08-06T09:03:17Z</time>
      </trkpt>
      <trkpt lat="44.86545" lon="0.60947">
        <ele>131.1</ele>
        <time>2023-08-06T09:03:18Z</time>
      </trkpt>
      <trkpt lat="44.86543" lon="0.60931">
        <ele>131</ele>
        <time>2023-08-06T09:03:20Z</time>
      </trkpt>
      <trkpt lat="44.86541" lon="0.60912">
        <ele>130.7</ele>
        <time>2023-08-06T09:03:22Z</time>
      </trkpt>
      <trkpt lat="44.86537" lon="0.60901">
        <ele>130.6</ele>
        <time>2023-08-06T09:03:24Z</time>
      </trkpt>
      <trkpt lat="44.86536" lon="0.60898">
        <ele>130.6</ele>
        <time>2023-08-06T09:03:25Z</time>
      </trkpt>
      <trkpt lat="44.86534" lon="0.60892">
        <ele>130.4</ele>
        <time>2023-08-06T09:03:26Z</time>
      </trkpt>
      <trkpt lat="44.86532" lon="0.60886">
        <ele>130.3</ele>
        <time>2023-08-06T09:03:27Z</time>
      </trkpt>
      <trkpt lat="44.86532" lon="0.60881">
        <ele>130.2</ele>
        <time>2023-08-06T09:03:28Z</time>
      </trkpt>
      <trkpt lat="44.86532" lon="0.60873">
        <ele>130</ele>
        <time>2023-08-06T09:03:29Z</time>
      </trkpt>
      <trkpt lat="44.86532" lon="0.60865">
        <ele>129.8</ele>
        <time>2023-08-06T09:03:30Z</time>
      </trkpt>
      <trkpt lat="44.86533" lon="0.60859">
        <ele>129.7</ele>
        <time>2023-08-06T09:03:31Z</time>
      </trkpt>
      <trkpt lat="44.86532" lon="0.60853">
        <ele>129.5</ele>
        <time>2023-08-06T09:03:32Z</time>
      </trkpt>
      <trkpt lat="44.86532" lon="0.60847">
        <ele>129.4</ele>
        <time>2023-08-06T09:03:33Z</time>
      </trkpt>
      <trkpt lat="44.86532" lon="0.60841">
        <ele>129.2</ele>
        <time>2023-08-06T09:03:34Z</time>
      </trkpt>
      <trkpt lat="44.86533" lon="0.60835">
        <ele>129</ele>
        <time>2023-08-06T09:03:35Z</time>
      </trkpt>
      <trkpt lat="44.86534" lon="0.60829">
        <ele>128.9</ele>
        <time>2023-08-06T09:03:36Z</time>
      </trkpt>
      <trkpt lat="44.86535" lon="0.60821">
        <ele>128.8</ele>
        <time>2023-08-06T09:03:37Z</time>
      </trkpt>
      <trkpt lat="44.86537" lon="0.60814">
        <ele>128.4</ele>
        <time>2023-08-06T09:03:38Z</time>
      </trkpt>
      <trkpt lat="44.86537" lon="0.60799">
        <ele>128.1</ele>
        <time>2023-08-06T09:03:40Z</time>
      </trkpt>
      <trkpt lat="44.8654" lon="0.60788">
        <ele>127.6</ele>
        <time>2023-08-06T09:03:42Z</time>
      </trkpt>
      <trkpt lat="44.8654" lon="0.60782">
        <ele>127.5</ele>
        <time>2023-08-06T09:03:43Z</time>
      </trkpt>
      <trkpt lat="44.86541" lon="0.60778">
        <ele>127.4</ele>
        <time>2023-08-06T09:03:44Z</time>
      </trkpt>
      <trkpt lat="44.8654" lon="0.60773">
        <ele>127.4</ele>
        <time>2023-08-06T09:03:45Z</time>
      </trkpt>
      <trkpt lat="44.86539" lon="0.60767">
        <ele>127.3</ele>
        <time>2023-08-06T09:03:46Z</time>
      </trkpt>
      <trkpt lat="44.86537" lon="0.60754">
        <ele>127</ele>
        <time>2023-08-06T09:03:48Z</time>
      </trkpt>
      <trkpt lat="44.86536" lon="0.60742">
        <ele>126.8</ele>
        <time>2023-08-06T09:03:50Z</time>
      </trkpt>
      <trkpt lat="44.86537" lon="0.60737">
        <ele>126.6</ele>
        <time>2023-08-06T09:03:52Z</time>
      </trkpt>
      <trkpt lat="44.8654" lon="0.60736">
        <ele>126.5</ele>
        <time>2023-08-06T09:03:54Z</time>
      </trkpt>
      <trkpt lat="44.86542" lon="0.60735">
        <ele>126.4</ele>
        <time>2023-08-06T09:03:55Z</time>
      </trkpt>
      <trkpt lat="44.86545" lon="0.60736">
        <ele>126.2</ele>
        <time>2023-08-06T09:03:56Z</time>
      </trkpt>
      <trkpt lat="44.86548" lon="0.60736">
        <ele>126.2</ele>
        <time>2023-08-06T09:03:57Z</time>
      </trkpt>
      <trkpt lat="44.86552" lon="0.60732">
        <ele>125.9</ele>
        <time>2023-08-06T09:03:58Z</time>
      </trkpt>
      <trkpt lat="44.86556" lon="0.6073">
        <ele>125.7</ele>
        <time>2023-08-06T09:03:59Z</time>
      </trkpt>
      <trkpt lat="44.8656" lon="0.60729">
        <ele>125.5</ele>
        <time>2023-08-06T09:04:00Z</time>
      </trkpt>
      <trkpt lat="44.86564" lon="0.60728">
        <ele>125.2</ele>
        <time>2023-08-06T09:04:01Z</time>
      </trkpt>
      <trkpt lat="44.86569" lon="0.60728">
        <ele>125</ele>
        <time>2023-08-06T09:04:02Z</time>
      </trkpt>
      <trkpt lat="44.86574" lon="0.60728">
        <ele>124.6</ele>
        <time>2023-08-06T09:04:03Z</time>
      </trkpt>
      <trkpt lat="44.86579" lon="0.60728">
        <ele>124.1</ele>
        <time>2023-08-06T09:04:04Z</time>
      </trkpt>
      <trkpt lat="44.86585" lon="0.60727">
        <ele>123.6</ele>
        <time>2023-08-06T09:04:05Z</time>
      </trkpt>
      <trkpt lat="44.86588" lon="0.60728">
        <ele>123.3</ele>
        <time>2023-08-06T09:04:06Z</time>
      </trkpt>
      <trkpt lat="44.86592" lon="0.60728">
        <ele>123.1</ele>
        <time>2023-08-06T09:04:07Z</time>
      </trkpt>
      <trkpt lat="44.86594" lon="0.60727">
        <ele>122.9</ele>
        <time>2023-08-06T09:04:08Z</time>
      </trkpt>
      <trkpt lat="44.86596" lon="0.60725">
        <ele>122.9</ele>
        <time>2023-08-06T09:04:09Z</time>
      </trkpt>
      <trkpt lat="44.86599" lon="0.60723">
        <ele>122.7</ele>
        <time>2023-08-06T09:04:10Z</time>
      </trkpt>
      <trkpt lat="44.86601" lon="0.60722">
        <ele>122.4</ele>
        <time>2023-08-06T09:04:11Z</time>
      </trkpt>
      <trkpt lat="44.86604" lon="0.60723">
        <ele>122.2</ele>
        <time>2023-08-06T09:04:12Z</time>
      </trkpt>
      <trkpt lat="44.86611" lon="0.60728">
        <ele>121.7</ele>
        <time>2023-08-06T09:04:14Z</time>
      </trkpt>
      <trkpt lat="44.86614" lon="0.6073">
        <ele>121.5</ele>
        <time>2023-08-06T09:04:15Z</time>
      </trkpt>
      <trkpt lat="44.86616" lon="0.6073">
        <ele>121.2</ele>
        <time>2023-08-06T09:04:16Z</time>
      </trkpt>
      <trkpt lat="44.86619" lon="0.6073">
        <ele>121</ele>
        <time>2023-08-06T09:04:18Z</time>
      </trkpt>
      <trkpt lat="44.86619" lon="0.6073">
        <ele>121</ele>
        <time>2023-08-06T09:04:19Z</time>
      </trkpt>
      <trkpt lat="44.86621" lon="0.60729">
        <ele>120.9</ele>
        <time>2023-08-06T09:04:20Z</time>
      </trkpt>
      <trkpt lat="44.86624" lon="0.60729">
        <ele>120.6</ele>
        <time>2023-08-06T09:04:22Z</time>
      </trkpt>
      <trkpt lat="44.86625" lon="0.60727">
        <ele>120.3</ele>
        <time>2023-08-06T09:04:24Z</time>
      </trkpt>
      <trkpt lat="44.86627" lon="0.60725">
        <ele>120.2</ele>
        <time>2023-08-06T09:04:25Z</time>
      </trkpt>
      <trkpt lat="44.86628" lon="0.60722">
        <ele>119.9</ele>
        <time>2023-08-06T09:04:26Z</time>
      </trkpt>
      <trkpt lat="44.8663" lon="0.60716">
        <ele>119.7</ele>
        <time>2023-08-06T09:04:28Z</time>
      </trkpt>
      <trkpt lat="44.86632" lon="0.6071">
        <ele>119.3</ele>
        <time>2023-08-06T09:04:30Z</time>
      </trkpt>
      <trkpt lat="44.86632" lon="0.60707">
        <ele>119.2</ele>
        <time>2023-08-06T09:04:31Z</time>
      </trkpt>
      <trkpt lat="44.86632" lon="0.60704">
        <ele>119.2</ele>
        <time>2023-08-06T09:04:32Z</time>
      </trkpt>
      <trkpt lat="44.86632" lon="0.60701">
        <ele>119.1</ele>
        <time>2023-08-06T09:04:33Z</time>
      </trkpt>
      <trkpt lat="44.86633" lon="0.60698">
        <ele>119</ele>
        <time>2023-08-06T09:04:34Z</time>
      </trkpt>
      <trkpt lat="44.86633" lon="0.60694">
        <ele>119</ele>
        <time>2023-08-06T09:04:36Z</time>
      </trkpt>
      <trkpt lat="44.86633" lon="0.60691">
        <ele>118.9</ele>
        <time>2023-08-06T09:04:37Z</time>
      </trkpt>
      <trkpt lat="44.86634" lon="0.60688">
        <ele>118.5</ele>
        <time>2023-08-06T09:04:38Z</time>
      </trkpt>
      <trkpt lat="44.86635" lon="0.60681">
        <ele>118.4</ele>
        <time>2023-08-06T09:04:40Z</time>
      </trkpt>
      <trkpt lat="44.86635" lon="0.60674">
        <ele>118.3</ele>
        <time>2023-08-06T09:04:42Z</time>
      </trkpt>
      <trkpt lat="44.86634" lon="0.60668">
        <ele>118.2</ele>
        <time>2023-08-06T09:04:44Z</time>
      </trkpt>
      <trkpt lat="44.86632" lon="0.60662">
        <ele>118.5</ele>
        <time>2023-08-06T09:04:46Z</time>
      </trkpt>
      <trkpt lat="44.86632" lon="0.60658">
        <ele>118.4</ele>
        <time>2023-08-06T09:04:47Z</time>
      </trkpt>
      <trkpt lat="44.86632" lon="0.60655">
        <ele>118.4</ele>
        <time>2023-08-06T09:04:48Z</time>
      </trkpt>
      <trkpt lat="44.86634" lon="0.60648">
        <ele>118</ele>
        <time>2023-08-06T09:04:50Z</time>
      </trkpt>
      <trkpt lat="44.86633" lon="0.60643">
        <ele>118.3</ele>
        <time>2023-08-06T09:04:51Z</time>
      </trkpt>
      <trkpt lat="44.86632" lon="0.60638">
        <ele>118.3</ele>
        <time>2023-08-06T09:04:52Z</time>
      </trkpt>
      <trkpt lat="44.86632" lon="0.60629">
        <ele>118.3</ele>
        <time>2023-08-06T09:04:54Z</time>
      </trkpt>
      <trkpt lat="44.86632" lon="0.60619">
        <ele>118.3</ele>
        <time>2023-08-06T09:04:56Z</time>
      </trkpt>
      <trkpt lat="44.86632" lon="0.60607">
        <ele>118.1</ele>
        <time>2023-08-06T09:04:58Z</time>
      </trkpt>
      <trkpt lat="44.86632" lon="0.60597">
        <ele>117.9</ele>
        <time>2023-08-06T09:05:00Z</time>
      </trkpt>
      <trkpt lat="44.86632" lon="0.60587">
        <ele>117.4</ele>
        <time>2023-08-06T09:05:02Z</time>
      </trkpt>
      <trkpt lat="44.86632" lon="0.60579">
        <ele>117.2</ele>
        <time>2023-08-06T09:05:04Z</time>
      </trkpt>
      <trkpt lat="44.86634" lon="0.6057">
        <ele>116.2</ele>
        <time>2023-08-06T09:05:06Z</time>
      </trkpt>
      <trkpt lat="44.86635" lon="0.60565">
        <ele>116</ele>
        <time>2023-08-06T09:05:07Z</time>
      </trkpt>
      <trkpt lat="44.86636" lon="0.60561">
        <ele>115.8</ele>
        <time>2023-08-06T09:05:08Z</time>
      </trkpt>
      <trkpt lat="44.86637" lon="0.60551">
        <ele>115</ele>
        <time>2023-08-06T09:05:10Z</time>
      </trkpt>
      <trkpt lat="44.86636" lon="0.60539">
        <ele>114.4</ele>
        <time>2023-08-06T09:05:12Z</time>
      </trkpt>
      <trkpt lat="44.86635" lon="0.60524">
        <ele>113.4</ele>
        <time>2023-08-06T09:05:14Z</time>
      </trkpt>
      <trkpt lat="44.86635" lon="0.60511">
        <ele>112.5</ele>
        <time>2023-08-06T09:05:16Z</time>
      </trkpt>
      <trkpt lat="44.86635" lon="0.60499">
        <ele>111.9</ele>
        <time>2023-08-06T09:05:18Z</time>
      </trkpt>
      <trkpt lat="44.86635" lon="0.60486">
        <ele>111.7</ele>
        <time>2023-08-06T09:05:20Z</time>
      </trkpt>
      <trkpt lat="44.86634" lon="0.60475">
        <ele>111.7</ele>
        <time>2023-08-06T09:05:22Z</time>
      </trkpt>
      <trkpt lat="44.86635" lon="0.6047">
        <ele>111.8</ele>
        <time>2023-08-06T09:05:23Z</time>
      </trkpt>
      <trkpt lat="44.86636" lon="0.60464">
        <ele>111.8</ele>
        <time>2023-08-06T09:05:24Z</time>
      </trkpt>
      <trkpt lat="44.86635" lon="0.60453">
        <ele>112.1</ele>
        <time>2023-08-06T09:05:26Z</time>
      </trkpt>
      <trkpt lat="44.86634" lon="0.60446">
        <ele>112.2</ele>
        <time>2023-08-06T09:05:27Z</time>
      </trkpt>
      <trkpt lat="44.86634" lon="0.60442">
        <ele>112.3</ele>
        <time>2023-08-06T09:05:28Z</time>
      </trkpt>
      <trkpt lat="44.86634" lon="0.60434">
        <ele>112.4</ele>
        <time>2023-08-06T09:05:30Z</time>
      </trkpt>
      <trkpt lat="44.86634" lon="0.60429">
        <ele>112.5</ele>
        <time>2023-08-06T09:05:31Z</time>
      </trkpt>
      <trkpt lat="44.86634" lon="0.60425">
        <ele>112.6</ele>
        <time>2023-08-06T09:05:32Z</time>
      </trkpt>
      <trkpt lat="44.86636" lon="0.60415">
        <ele>113</ele>
        <time>2023-08-06T09:05:34Z</time>
      </trkpt>
      <trkpt lat="44.8664" lon="0.60406">
        <ele>113.5</ele>
        <time>2023-08-06T09:05:36Z</time>
      </trkpt>
      <trkpt lat="44.86645" lon="0.60397">
        <ele>113.9</ele>
        <time>2023-08-06T09:05:38Z</time>
      </trkpt>
      <trkpt lat="44.86649" lon="0.60389">
        <ele>114.4</ele>
        <time>2023-08-06T09:05:40Z</time>
      </trkpt>
      <trkpt lat="44.86654" lon="0.60384">
        <ele>114.7</ele>
        <time>2023-08-06T09:05:42Z</time>
      </trkpt>
      <trkpt lat="44.8666" lon="0.60381">
        <ele>115.1</ele>
        <time>2023-08-06T09:05:44Z</time>
      </trkpt>
      <trkpt lat="44.86668" lon="0.60378">
        <ele>115.3</ele>
        <time>2023-08-06T09:05:46Z</time>
      </trkpt>
      <trkpt lat="44.86677" lon="0.60373">
        <ele>116</ele>
        <time>2023-08-06T09:05:48Z</time>
      </trkpt>
      <trkpt lat="44.86686" lon="0.60368">
        <ele>116.4</ele>
        <time>2023-08-06T09:05:50Z</time>
      </trkpt>
      <trkpt lat="44.86694" lon="0.60363">
        <ele>116.9</ele>
        <time>2023-08-06T09:05:52Z</time>
      </trkpt>
      <trkpt lat="44.86701" lon="0.60357">
        <ele>117.3</ele>
        <time>2023-08-06T09:05:54Z</time>
      </trkpt>
      <trkpt lat="44.86709" lon="0.60349">
        <ele>117.8</ele>
        <time>2023-08-06T09:05:56Z</time>
      </trkpt>
      <trkpt lat="44.86718" lon="0.60343">
        <ele>118.3</ele>
        <time>2023-08-06T09:05:58Z</time>
      </trkpt>
      <trkpt lat="44.86727" lon="0.60343">
        <ele>118.3</ele>
        <time>2023-08-06T09:06:00Z</time>
      </trkpt>
      <trkpt lat="44.86732" lon="0.60346">
        <ele>118.3</ele>
        <time>2023-08-06T09:06:01Z</time>
      </trkpt>
      <trkpt lat="44.86737" lon="0.60349">
        <ele>118.2</ele>
        <time>2023-08-06T09:06:02Z</time>
      </trkpt>
      <trkpt lat="44.86749" lon="0.60356">
        <ele>117.8</ele>
        <time>2023-08-06T09:06:04Z</time>
      </trkpt>
      <trkpt lat="44.86763" lon="0.60362">
        <ele>117.5</ele>
        <time>2023-08-06T09:06:06Z</time>
      </trkpt>
      <trkpt lat="44.86777" lon="0.60369">
        <ele>117</ele>
        <time>2023-08-06T09:06:08Z</time>
      </trkpt>
      <trkpt lat="44.86789" lon="0.60375">
        <ele>116.4</ele>
        <time>2023-08-06T09:06:10Z</time>
      </trkpt>
      <trkpt lat="44.86797" lon="0.60378">
        <ele>116.1</ele>
        <time>2023-08-06T09:06:12Z</time>
      </trkpt>
      <trkpt lat="44.86804" lon="0.60381">
        <ele>115.9</ele>
        <time>2023-08-06T09:06:14Z</time>
      </trkpt>
      <trkpt lat="44.86812" lon="0.60381">
        <ele>115.7</ele>
        <time>2023-08-06T09:06:16Z</time>
      </trkpt>
      <trkpt lat="44.86816" lon="0.6038">
        <ele>115.6</ele>
        <time>2023-08-06T09:06:17Z</time>
      </trkpt>
      <trkpt lat="44.86819" lon="0.6038">
        <ele>115.4</ele>
        <time>2023-08-06T09:06:18Z</time>
      </trkpt>
      <trkpt lat="44.86823" lon="0.60377">
        <ele>115.4</ele>
        <time>2023-08-06T09:06:19Z</time>
      </trkpt>
      <trkpt lat="44.86826" lon="0.60374">
        <ele>115.2</ele>
        <time>2023-08-06T09:06:20Z</time>
      </trkpt>
      <trkpt lat="44.86828" lon="0.60371">
        <ele>115.3</ele>
        <time>2023-08-06T09:06:21Z</time>
      </trkpt>
      <trkpt lat="44.8683" lon="0.60369">
        <ele>115.5</ele>
        <time>2023-08-06T09:06:22Z</time>
      </trkpt>
      <trkpt lat="44.86834" lon="0.6036">
        <ele>115.7</ele>
        <time>2023-08-06T09:06:24Z</time>
      </trkpt>
      <trkpt lat="44.86835" lon="0.60355">
        <ele>115.9</ele>
        <time>2023-08-06T09:06:25Z</time>
      </trkpt>
      <trkpt lat="44.86836" lon="0.60349">
        <ele>116</ele>
        <time>2023-08-06T09:06:26Z</time>
      </trkpt>
      <trkpt lat="44.86837" lon="0.60338">
        <ele>116.3</ele>
        <time>2023-08-06T09:06:28Z</time>
      </trkpt>
      <trkpt lat="44.86839" lon="0.60328">
        <ele>116.4</ele>
        <time>2023-08-06T09:06:30Z</time>
      </trkpt>
      <trkpt lat="44.86842" lon="0.60318">
        <ele>116.5</ele>
        <time>2023-08-06T09:06:32Z</time>
      </trkpt>
      <trkpt lat="44.86843" lon="0.60312">
        <ele>116.5</ele>
        <time>2023-08-06T09:06:33Z</time>
      </trkpt>
      <trkpt lat="44.86844" lon="0.60307">
        <ele>116.6</ele>
        <time>2023-08-06T09:06:34Z</time>
      </trkpt>
      <trkpt lat="44.86845" lon="0.60297">
        <ele>116.6</ele>
        <time>2023-08-06T09:06:36Z</time>
      </trkpt>
      <trkpt lat="44.86848" lon="0.60287">
        <ele>116.7</ele>
        <time>2023-08-06T09:06:38Z</time>
      </trkpt>
      <trkpt lat="44.86851" lon="0.60279">
        <ele>116.7</ele>
        <time>2023-08-06T09:06:40Z</time>
      </trkpt>
      <trkpt lat="44.86856" lon="0.60271">
        <ele>116.7</ele>
        <time>2023-08-06T09:06:42Z</time>
      </trkpt>
      <trkpt lat="44.86858" lon="0.60262">
        <ele>116.6</ele>
        <time>2023-08-06T09:06:44Z</time>
      </trkpt>
      <trkpt lat="44.86859" lon="0.60255">
        <ele>116.5</ele>
        <time>2023-08-06T09:06:45Z</time>
      </trkpt>
      <trkpt lat="44.8686" lon="0.60246">
        <ele>116.3</ele>
        <time>2023-08-06T09:06:46Z</time>
      </trkpt>
      <trkpt lat="44.86861" lon="0.60226">
        <ele>115.6</ele>
        <time>2023-08-06T09:06:48Z</time>
      </trkpt>
      <trkpt lat="44.86864" lon="0.60208">
        <ele>114.9</ele>
        <time>2023-08-06T09:06:50Z</time>
      </trkpt>
      <trkpt lat="44.86864" lon="0.60198">
        <ele>114.6</ele>
        <time>2023-08-06T09:06:51Z</time>
      </trkpt>
      <trkpt lat="44.86863" lon="0.6019">
        <ele>114.3</ele>
        <time>2023-08-06T09:06:52Z</time>
      </trkpt>
      <trkpt lat="44.86862" lon="0.60183">
        <ele>114.1</ele>
        <time>2023-08-06T09:06:53Z</time>
      </trkpt>
      <trkpt lat="44.86859" lon="0.60176">
        <ele>113.9</ele>
        <time>2023-08-06T09:06:54Z</time>
      </trkpt>
      <trkpt lat="44.86849" lon="0.60158">
        <ele>113.3</ele>
        <time>2023-08-06T09:06:56Z</time>
      </trkpt>
      <trkpt lat="44.86852" lon="0.60153">
        <ele>113.1</ele>
        <time>2023-08-06T09:06:58Z</time>
      </trkpt>
      <trkpt lat="44.86852" lon="0.60148">
        <ele>113</ele>
        <time>2023-08-06T09:06:59Z</time>
      </trkpt>
      <trkpt lat="44.86852" lon="0.60142">
        <ele>112.9</ele>
        <time>2023-08-06T09:07:00Z</time>
      </trkpt>
      <trkpt lat="44.86851" lon="0.6013">
        <ele>112.6</ele>
        <time>2023-08-06T09:07:02Z</time>
      </trkpt>
      <trkpt lat="44.86851" lon="0.60124">
        <ele>112.4</ele>
        <time>2023-08-06T09:07:03Z</time>
      </trkpt>
      <trkpt lat="44.86852" lon="0.60119">
        <ele>111.7</ele>
        <time>2023-08-06T09:07:04Z</time>
      </trkpt>
      <trkpt lat="44.86851" lon="0.60111">
        <ele>110.9</ele>
        <time>2023-08-06T09:07:05Z</time>
      </trkpt>
      <trkpt lat="44.86852" lon="0.60105">
        <ele>110.2</ele>
        <time>2023-08-06T09:07:06Z</time>
      </trkpt>
      <trkpt lat="44.86855" lon="0.60094">
        <ele>108.3</ele>
        <time>2023-08-06T09:07:08Z</time>
      </trkpt>
      <trkpt lat="44.86856" lon="0.60088">
        <ele>107.5</ele>
        <time>2023-08-06T09:07:10Z</time>
      </trkpt>
      <trkpt lat="44.86855" lon="0.60084">
        <ele>107.2</ele>
        <time>2023-08-06T09:07:11Z</time>
      </trkpt>
      <trkpt lat="44.86853" lon="0.6008">
        <ele>106.3</ele>
        <time>2023-08-06T09:07:12Z</time>
      </trkpt>
      <trkpt lat="44.86853" lon="0.60071">
        <ele>105</ele>
        <time>2023-08-06T09:07:14Z</time>
      </trkpt>
      <trkpt lat="44.86851" lon="0.60065">
        <ele>104.5</ele>
        <time>2023-08-06T09:07:15Z</time>
      </trkpt>
      <trkpt lat="44.86848" lon="0.60059">
        <ele>103.5</ele>
        <time>2023-08-06T09:07:16Z</time>
      </trkpt>
      <trkpt lat="44.86844" lon="0.60054">
        <ele>102.9</ele>
        <time>2023-08-06T09:07:17Z</time>
      </trkpt>
      <trkpt lat="44.86841" lon="0.60049">
        <ele>102.4</ele>
        <time>2023-08-06T09:07:18Z</time>
      </trkpt>
      <trkpt lat="44.86832" lon="0.60036">
        <ele>101.9</ele>
        <time>2023-08-06T09:07:20Z</time>
      </trkpt>
      <trkpt lat="44.86829" lon="0.60028">
        <ele>100.8</ele>
        <time>2023-08-06T09:07:21Z</time>
      </trkpt>
      <trkpt lat="44.86827" lon="0.60017">
        <ele>99.3</ele>
        <time>2023-08-06T09:07:22Z</time>
      </trkpt>
      <trkpt lat="44.86825" lon="0.59992">
        <ele>96.5</ele>
        <time>2023-08-06T09:07:24Z</time>
      </trkpt>
      <trkpt lat="44.86825" lon="0.59968">
        <ele>93.7</ele>
        <time>2023-08-06T09:07:26Z</time>
      </trkpt>
      <trkpt lat="44.86826" lon="0.59957">
        <ele>92</ele>
        <time>2023-08-06T09:07:27Z</time>
      </trkpt>
      <trkpt lat="44.86828" lon="0.59947">
        <ele>89.9</ele>
        <time>2023-08-06T09:07:28Z</time>
      </trkpt>
      <trkpt lat="44.86832" lon="0.59927">
        <ele>87.5</ele>
        <time>2023-08-06T09:07:30Z</time>
      </trkpt>
      <trkpt lat="44.86829" lon="0.59915">
        <ele>86.3</ele>
        <time>2023-08-06T09:07:32Z</time>
      </trkpt>
      <trkpt lat="44.86825" lon="0.59907">
        <ele>85.5</ele>
        <time>2023-08-06T09:07:34Z</time>
      </trkpt>
      <trkpt lat="44.86826" lon="0.59899">
        <ele>84.4</ele>
        <time>2023-08-06T09:07:36Z</time>
      </trkpt>
      <trkpt lat="44.8683" lon="0.5989">
        <ele>84.7</ele>
        <time>2023-08-06T09:07:38Z</time>
      </trkpt>
      <trkpt lat="44.86835" lon="0.59881">
        <ele>84.9</ele>
        <time>2023-08-06T09:07:40Z</time>
      </trkpt>
      <trkpt lat="44.86839" lon="0.59878">
        <ele>85.1</ele>
        <time>2023-08-06T09:07:41Z</time>
      </trkpt>
      <trkpt lat="44.86842" lon="0.59876">
        <ele>85.2</ele>
        <time>2023-08-06T09:07:42Z</time>
      </trkpt>
      <trkpt lat="44.8685" lon="0.59877">
        <ele>85.4</ele>
        <time>2023-08-06T09:07:44Z</time>
      </trkpt>
      <trkpt lat="44.86857" lon="0.59883">
        <ele>85.3</ele>
        <time>2023-08-06T09:07:46Z</time>
      </trkpt>
      <trkpt lat="44.86864" lon="0.5989">
        <ele>85.2</ele>
        <time>2023-08-06T09:07:48Z</time>
      </trkpt>
      <trkpt lat="44.86867" lon="0.59893">
        <ele>85.2</ele>
        <time>2023-08-06T09:07:49Z</time>
      </trkpt>
      <trkpt lat="44.8687" lon="0.59897">
        <ele>85.2</ele>
        <time>2023-08-06T09:07:50Z</time>
      </trkpt>
      <trkpt lat="44.86876" lon="0.59903">
        <ele>85.2</ele>
        <time>2023-08-06T09:07:52Z</time>
      </trkpt>
      <trkpt lat="44.86883" lon="0.5991">
        <ele>85.2</ele>
        <time>2023-08-06T09:07:54Z</time>
      </trkpt>
      <trkpt lat="44.86886" lon="0.59913">
        <ele>85.2</ele>
        <time>2023-08-06T09:07:55Z</time>
      </trkpt>
      <trkpt lat="44.86889" lon="0.59917">
        <ele>85.2</ele>
        <time>2023-08-06T09:07:56Z</time>
      </trkpt>
      <trkpt lat="44.86894" lon="0.59923">
        <ele>85.3</ele>
        <time>2023-08-06T09:07:58Z</time>
      </trkpt>
      <trkpt lat="44.869" lon="0.59929">
        <ele>85.3</ele>
        <time>2023-08-06T09:08:00Z</time>
      </trkpt>
      <trkpt lat="44.86903" lon="0.59932">
        <ele>85.4</ele>
        <time>2023-08-06T09:08:01Z</time>
      </trkpt>
      <trkpt lat="44.86905" lon="0.59935">
        <ele>85.4</ele>
        <time>2023-08-06T09:08:02Z</time>
      </trkpt>
      <trkpt lat="44.86911" lon="0.59942">
        <ele>85.5</ele>
        <time>2023-08-06T09:08:04Z</time>
      </trkpt>
      <trkpt lat="44.86917" lon="0.59948">
        <ele>85.6</ele>
        <time>2023-08-06T09:08:06Z</time>
      </trkpt>
      <trkpt lat="44.86923" lon="0.59954">
        <ele>85.8</ele>
        <time>2023-08-06T09:08:08Z</time>
      </trkpt>
      <trkpt lat="44.8693" lon="0.59961">
        <ele>85.9</ele>
        <time>2023-08-06T09:08:10Z</time>
      </trkpt>
      <trkpt lat="44.86936" lon="0.59968">
        <ele>86</ele>
        <time>2023-08-06T09:08:12Z</time>
      </trkpt>
      <trkpt lat="44.86942" lon="0.59973">
        <ele>86.1</ele>
        <time>2023-08-06T09:08:14Z</time>
      </trkpt>
      <trkpt lat="44.86945" lon="0.59975">
        <ele>86.2</ele>
        <time>2023-08-06T09:08:15Z</time>
      </trkpt>
      <trkpt lat="44.86948" lon="0.59977">
        <ele>86.3</ele>
        <time>2023-08-06T09:08:16Z</time>
      </trkpt>
      <trkpt lat="44.86955" lon="0.5998">
        <ele>86.4</ele>
        <time>2023-08-06T09:08:18Z</time>
      </trkpt>
      <trkpt lat="44.86961" lon="0.59982">
        <ele>86.5</ele>
        <time>2023-08-06T09:08:20Z</time>
      </trkpt>
      <trkpt lat="44.86966" lon="0.59985">
        <ele>86.6</ele>
        <time>2023-08-06T09:08:22Z</time>
      </trkpt>
      <trkpt lat="44.86973" lon="0.59987">
        <ele>86.7</ele>
        <time>2023-08-06T09:08:24Z</time>
      </trkpt>
      <trkpt lat="44.8698" lon="0.59989">
        <ele>86.8</ele>
        <time>2023-08-06T09:08:26Z</time>
      </trkpt>
      <trkpt lat="44.86987" lon="0.5999">
        <ele>87</ele>
        <time>2023-08-06T09:08:28Z</time>
      </trkpt>
      <trkpt lat="44.86993" lon="0.59991">
        <ele>87.1</ele>
        <time>2023-08-06T09:08:30Z</time>
      </trkpt>
      <trkpt lat="44.86999" lon="0.59991">
        <ele>87.2</ele>
        <time>2023-08-06T09:08:32Z</time>
      </trkpt>
      <trkpt lat="44.87005" lon="0.59991">
        <ele>87.4</ele>
        <time>2023-08-06T09:08:34Z</time>
      </trkpt>
      <trkpt lat="44.8701" lon="0.59991">
        <ele>87.6</ele>
        <time>2023-08-06T09:08:36Z</time>
      </trkpt>
      <trkpt lat="44.87013" lon="0.5999">
        <ele>87.6</ele>
        <time>2023-08-06T09:08:37Z</time>
      </trkpt>
      <trkpt lat="44.87016" lon="0.5999">
        <ele>87.7</ele>
        <time>2023-08-06T09:08:38Z</time>
      </trkpt>
      <trkpt lat="44.87022" lon="0.5999">
        <ele>87.9</ele>
        <time>2023-08-06T09:08:40Z</time>
      </trkpt>
      <trkpt lat="44.87028" lon="0.59988">
        <ele>88.1</ele>
        <time>2023-08-06T09:08:42Z</time>
      </trkpt>
      <trkpt lat="44.87034" lon="0.59987">
        <ele>88.3</ele>
        <time>2023-08-06T09:08:44Z</time>
      </trkpt>
      <trkpt lat="44.87039" lon="0.59986">
        <ele>88.5</ele>
        <time>2023-08-06T09:08:46Z</time>
      </trkpt>
      <trkpt lat="44.87045" lon="0.59985">
        <ele>88.7</ele>
        <time>2023-08-06T09:08:48Z</time>
      </trkpt>
      <trkpt lat="44.87049" lon="0.59984">
        <ele>88.8</ele>
        <time>2023-08-06T09:08:50Z</time>
      </trkpt>
      <trkpt lat="44.87053" lon="0.59984">
        <ele>89</ele>
        <time>2023-08-06T09:08:52Z</time>
      </trkpt>
      <trkpt lat="44.87058" lon="0.59985">
        <ele>89.2</ele>
        <time>2023-08-06T09:08:54Z</time>
      </trkpt>
      <trkpt lat="44.87061" lon="0.59986">
        <ele>89.4</ele>
        <time>2023-08-06T09:08:55Z</time>
      </trkpt>
      <trkpt lat="44.87064" lon="0.59986">
        <ele>89.5</ele>
        <time>2023-08-06T09:08:56Z</time>
      </trkpt>
      <trkpt lat="44.8707" lon="0.59987">
        <ele>89.8</ele>
        <time>2023-08-06T09:08:58Z</time>
      </trkpt>
      <trkpt lat="44.87076" lon="0.59987">
        <ele>90.2</ele>
        <time>2023-08-06T09:09:00Z</time>
      </trkpt>
      <trkpt lat="44.87082" lon="0.59985">
        <ele>90.6</ele>
        <time>2023-08-06T09:09:02Z</time>
      </trkpt>
      <trkpt lat="44.87088" lon="0.59983">
        <ele>91</ele>
        <time>2023-08-06T09:09:04Z</time>
      </trkpt>
      <trkpt lat="44.8709" lon="0.59982">
        <ele>91.2</ele>
        <time>2023-08-06T09:09:05Z</time>
      </trkpt>
      <trkpt lat="44.87092" lon="0.59981">
        <ele>91.3</ele>
        <time>2023-08-06T09:09:06Z</time>
      </trkpt>
      <trkpt lat="44.87095" lon="0.59979">
        <ele>91.6</ele>
        <time>2023-08-06T09:09:08Z</time>
      </trkpt>
      <trkpt lat="44.87099" lon="0.59977">
        <ele>91.9</ele>
        <time>2023-08-06T09:09:10Z</time>
      </trkpt>
      <trkpt lat="44.871" lon="0.59975">
        <ele>92.1</ele>
        <time>2023-08-06T09:09:11Z</time>
      </trkpt>
      <trkpt lat="44.87102" lon="0.59974">
        <ele>92.3</ele>
        <time>2023-08-06T09:09:12Z</time>
      </trkpt>
      <trkpt lat="44.87104" lon="0.5997">
        <ele>92.6</ele>
        <time>2023-08-06T09:09:14Z</time>
      </trkpt>
      <trkpt lat="44.87107" lon="0.59967">
        <ele>93</ele>
        <time>2023-08-06T09:09:16Z</time>
      </trkpt>
      <trkpt lat="44.87109" lon="0.59965">
        <ele>93.2</ele>
        <time>2023-08-06T09:09:17Z</time>
      </trkpt>
      <trkpt lat="44.87111" lon="0.59964">
        <ele>93.4</ele>
        <time>2023-08-06T09:09:18Z</time>
      </trkpt>
      <trkpt lat="44.87114" lon="0.59961">
        <ele>93.8</ele>
        <time>2023-08-06T09:09:20Z</time>
      </trkpt>
      <trkpt lat="44.87116" lon="0.59961">
        <ele>94</ele>
        <time>2023-08-06T09:09:21Z</time>
      </trkpt>
      <trkpt lat="44.87117" lon="0.5996">
        <ele>94.2</ele>
        <time>2023-08-06T09:09:22Z</time>
      </trkpt>
      <trkpt lat="44.87118" lon="0.5996">
        <ele>94.3</ele>
        <time>2023-08-06T09:09:23Z</time>
      </trkpt>
      <trkpt lat="44.87174" lon="0.59914">
        <ele>101.9</ele>
        <time>2023-08-06T09:10:11Z</time>
      </trkpt>
      <trkpt lat="44.87175" lon="0.59912">
        <ele>102</ele>
        <time>2023-08-06T09:10:12Z</time>
      </trkpt>
      <trkpt lat="44.87175" lon="0.5991">
        <ele>102.2</ele>
        <time>2023-08-06T09:10:13Z</time>
      </trkpt>
      <trkpt lat="44.87175" lon="0.59908">
        <ele>102.3</ele>
        <time>2023-08-06T09:10:14Z</time>
      </trkpt>
      <trkpt lat="44.87175" lon="0.59905">
        <ele>102.5</ele>
        <time>2023-08-06T09:10:16Z</time>
      </trkpt>
      <trkpt lat="44.87175" lon="0.59904">
        <ele>102.6</ele>
        <time>2023-08-06T09:10:17Z</time>
      </trkpt>
      <trkpt lat="44.87175" lon="0.59903">
        <ele>102.7</ele>
        <time>2023-08-06T09:10:18Z</time>
      </trkpt>
      <trkpt lat="44.87176" lon="0.59899">
        <ele>103</ele>
        <time>2023-08-06T09:10:20Z</time>
      </trkpt>
      <trkpt lat="44.87177" lon="0.59895">
        <ele>103.3</ele>
        <time>2023-08-06T09:10:22Z</time>
      </trkpt>
      <trkpt lat="44.87178" lon="0.59893">
        <ele>103.5</ele>
        <time>2023-08-06T09:10:23Z</time>
      </trkpt>
      <trkpt lat="44.87178" lon="0.59891">
        <ele>103.6</ele>
        <time>2023-08-06T09:10:24Z</time>
      </trkpt>
      <trkpt lat="44.87179" lon="0.59887">
        <ele>103.8</ele>
        <time>2023-08-06T09:10:26Z</time>
      </trkpt>
      <trkpt lat="44.8718" lon="0.59884">
        <ele>104</ele>
        <time>2023-08-06T09:10:28Z</time>
      </trkpt>
      <trkpt lat="44.8718" lon="0.59881">
        <ele>104.2</ele>
        <time>2023-08-06T09:10:29Z</time>
      </trkpt>
      <trkpt lat="44.87181" lon="0.59879">
        <ele>104.3</ele>
        <time>2023-08-06T09:10:30Z</time>
      </trkpt>
      <trkpt lat="44.87184" lon="0.59872">
        <ele>104.7</ele>
        <time>2023-08-06T09:10:32Z</time>
      </trkpt>
      <trkpt lat="44.87187" lon="0.59865">
        <ele>105.2</ele>
        <time>2023-08-06T09:10:34Z</time>
      </trkpt>
      <trkpt lat="44.87188" lon="0.59862">
        <ele>105.4</ele>
        <time>2023-08-06T09:10:35Z</time>
      </trkpt>
      <trkpt lat="44.87188" lon="0.59859">
        <ele>105.5</ele>
        <time>2023-08-06T09:10:36Z</time>
      </trkpt>
      <trkpt lat="44.87189" lon="0.59854">
        <ele>105.7</ele>
        <time>2023-08-06T09:10:38Z</time>
      </trkpt>
      <trkpt lat="44.8719" lon="0.5985">
        <ele>105.9</ele>
        <time>2023-08-06T09:10:39Z</time>
      </trkpt>
      <trkpt lat="44.8719" lon="0.59847">
        <ele>106</ele>
        <time>2023-08-06T09:10:40Z</time>
      </trkpt>
      <trkpt lat="44.87192" lon="0.59841">
        <ele>106.2</ele>
        <time>2023-08-06T09:10:42Z</time>
      </trkpt>
      <trkpt lat="44.87194" lon="0.59839">
        <ele>106.4</ele>
        <time>2023-08-06T09:10:44Z</time>
      </trkpt>
      <trkpt lat="44.87196" lon="0.59837">
        <ele>106.5</ele>
        <time>2023-08-06T09:12:25Z</time>
      </trkpt>
      <trkpt lat="44.87198" lon="0.59835">
        <ele>106.5</ele>
        <time>2023-08-06T09:12:26Z</time>
      </trkpt>
      <trkpt lat="44.87206" lon="0.59832">
        <ele>106.7</ele>
        <time>2023-08-06T09:12:28Z</time>
      </trkpt>
      <trkpt lat="44.87216" lon="0.59829">
        <ele>106.7</ele>
        <time>2023-08-06T09:12:30Z</time>
      </trkpt>
      <trkpt lat="44.87225" lon="0.59825">
        <ele>106.6</ele>
        <time>2023-08-06T09:12:32Z</time>
      </trkpt>
      <trkpt lat="44.87235" lon="0.5982">
        <ele>106.3</ele>
        <time>2023-08-06T09:12:34Z</time>
      </trkpt>
      <trkpt lat="44.87241" lon="0.59818">
        <ele>106</ele>
        <time>2023-08-06T09:12:35Z</time>
      </trkpt>
      <trkpt lat="44.87247" lon="0.59816">
        <ele>105.8</ele>
        <time>2023-08-06T09:12:36Z</time>
      </trkpt>
      <trkpt lat="44.87258" lon="0.59811">
        <ele>105.4</ele>
        <time>2023-08-06T09:12:38Z</time>
      </trkpt>
      <trkpt lat="44.87268" lon="0.59808">
        <ele>105.2</ele>
        <time>2023-08-06T09:12:40Z</time>
      </trkpt>
      <trkpt lat="44.87276" lon="0.59805">
        <ele>105.2</ele>
        <time>2023-08-06T09:12:42Z</time>
      </trkpt>
      <trkpt lat="44.8728" lon="0.59803">
        <ele>105.2</ele>
        <time>2023-08-06T09:12:43Z</time>
      </trkpt>
      <trkpt lat="44.87283" lon="0.59802">
        <ele>105.2</ele>
        <time>2023-08-06T09:12:44Z</time>
      </trkpt>
      <trkpt lat="44.8729" lon="0.59798">
        <ele>105.4</ele>
        <time>2023-08-06T09:12:46Z</time>
      </trkpt>
      <trkpt lat="44.87296" lon="0.59796">
        <ele>105.5</ele>
        <time>2023-08-06T09:12:48Z</time>
      </trkpt>
      <trkpt lat="44.87302" lon="0.59793">
        <ele>105.7</ele>
        <time>2023-08-06T09:12:50Z</time>
      </trkpt>
      <trkpt lat="44.87306" lon="0.59792">
        <ele>105.9</ele>
        <time>2023-08-06T09:12:51Z</time>
      </trkpt>
      <trkpt lat="44.87309" lon="0.5979">
        <ele>106</ele>
        <time>2023-08-06T09:12:52Z</time>
      </trkpt>
      <trkpt lat="44.87316" lon="0.59788">
        <ele>106.3</ele>
        <time>2023-08-06T09:12:54Z</time>
      </trkpt>
      <trkpt lat="44.87324" lon="0.59786">
        <ele>106.6</ele>
        <time>2023-08-06T09:12:56Z</time>
      </trkpt>
      <trkpt lat="44.87333" lon="0.59783">
        <ele>107</ele>
        <time>2023-08-06T09:12:58Z</time>
      </trkpt>
      <trkpt lat="44.87341" lon="0.59782">
        <ele>107.3</ele>
        <time>2023-08-06T09:13:00Z</time>
      </trkpt>
      <trkpt lat="44.87348" lon="0.5978">
        <ele>107.6</ele>
        <time>2023-08-06T09:13:02Z</time>
      </trkpt>
      <trkpt lat="44.87355" lon="0.59778">
        <ele>107.9</ele>
        <time>2023-08-06T09:13:04Z</time>
      </trkpt>
      <trkpt lat="44.8736" lon="0.59777">
        <ele>108.2</ele>
        <time>2023-08-06T09:13:06Z</time>
      </trkpt>
      <trkpt lat="44.87366" lon="0.59775">
        <ele>108.5</ele>
        <time>2023-08-06T09:13:08Z</time>
      </trkpt>
      <trkpt lat="44.87368" lon="0.59774">
        <ele>108.7</ele>
        <time>2023-08-06T09:13:09Z</time>
      </trkpt>
      <trkpt lat="44.8737" lon="0.59773">
        <ele>108.8</ele>
        <time>2023-08-06T09:13:10Z</time>
      </trkpt>
      <trkpt lat="44.87373" lon="0.59772">
        <ele>109.1</ele>
        <time>2023-08-06T09:13:12Z</time>
      </trkpt>
      <trkpt lat="44.87375" lon="0.59772">
        <ele>109.3</ele>
        <time>2023-08-06T09:13:14Z</time>
      </trkpt>
      <trkpt lat="44.87376" lon="0.59771">
        <ele>109.4</ele>
        <time>2023-08-06T09:13:15Z</time>
      </trkpt>
      <trkpt lat="44.87376" lon="0.59769">
        <ele>109.6</ele>
        <time>2023-08-06T09:13:16Z</time>
      </trkpt>
      <trkpt lat="44.87374" lon="0.59766">
        <ele>110.3</ele>
        <time>2023-08-06T09:13:18Z</time>
      </trkpt>
      <trkpt lat="44.87372" lon="0.59764">
        <ele>110.3</ele>
        <time>2023-08-06T09:13:19Z</time>
      </trkpt>
      <trkpt lat="44.8737" lon="0.59761">
        <ele>110.4</ele>
        <time>2023-08-06T09:13:20Z</time>
      </trkpt>
      <trkpt lat="44.87367" lon="0.59756">
        <ele>110.4</ele>
        <time>2023-08-06T09:13:22Z</time>
      </trkpt>
      <trkpt lat="44.87364" lon="0.5975">
        <ele>110.5</ele>
        <time>2023-08-06T09:13:24Z</time>
      </trkpt>
      <trkpt lat="44.87361" lon="0.59745">
        <ele>110.6</ele>
        <time>2023-08-06T09:13:26Z</time>
      </trkpt>
      <trkpt lat="44.87359" lon="0.5974">
        <ele>110.7</ele>
        <time>2023-08-06T09:13:28Z</time>
      </trkpt>
      <trkpt lat="44.87358" lon="0.59737">
        <ele>110.8</ele>
        <time>2023-08-06T09:13:29Z</time>
      </trkpt>
      <trkpt lat="44.87359" lon="0.59734">
        <ele>110.9</ele>
        <time>2023-08-06T09:13:30Z</time>
      </trkpt>
      <trkpt lat="44.87358" lon="0.59731">
        <ele>111</ele>
        <time>2023-08-06T09:13:31Z</time>
      </trkpt>
      <trkpt lat="44.87358" lon="0.59729">
        <ele>111.1</ele>
        <time>2023-08-06T09:13:32Z</time>
      </trkpt>
      <trkpt lat="44.87358" lon="0.59728">
        <ele>111.1</ele>
        <time>2023-08-06T09:13:34Z</time>
      </trkpt>
      <trkpt lat="44.87358" lon="0.59723">
        <ele>111.3</ele>
        <time>2023-08-06T09:13:56Z</time>
      </trkpt>
      <trkpt lat="44.87358" lon="0.5972">
        <ele>111.4</ele>
        <time>2023-08-06T09:13:57Z</time>
      </trkpt>
      <trkpt lat="44.87359" lon="0.59718">
        <ele>111.5</ele>
        <time>2023-08-06T09:13:58Z</time>
      </trkpt>
      <trkpt lat="44.87358" lon="0.59711">
        <ele>111.6</ele>
        <time>2023-08-06T09:14:00Z</time>
      </trkpt>
      <trkpt lat="44.87357" lon="0.59703">
        <ele>111.8</ele>
        <time>2023-08-06T09:14:02Z</time>
      </trkpt>
      <trkpt lat="44.87357" lon="0.59696">
        <ele>112</ele>
        <time>2023-08-06T09:14:04Z</time>
      </trkpt>
      <trkpt lat="44.87356" lon="0.59688">
        <ele>112.2</ele>
        <time>2023-08-06T09:14:06Z</time>
      </trkpt>
      <trkpt lat="44.87355" lon="0.5968">
        <ele>112.4</ele>
        <time>2023-08-06T09:14:08Z</time>
      </trkpt>
      <trkpt lat="44.87355" lon="0.59673">
        <ele>112.7</ele>
        <time>2023-08-06T09:14:10Z</time>
      </trkpt>
      <trkpt lat="44.87355" lon="0.59665">
        <ele>112.9</ele>
        <time>2023-08-06T09:14:12Z</time>
      </trkpt>
      <trkpt lat="44.87355" lon="0.59658">
        <ele>113.2</ele>
        <time>2023-08-06T09:14:14Z</time>
      </trkpt>
      <trkpt lat="44.87355" lon="0.59654">
        <ele>113.4</ele>
        <time>2023-08-06T09:14:15Z</time>
      </trkpt>
      <trkpt lat="44.87355" lon="0.5965">
        <ele>113.6</ele>
        <time>2023-08-06T09:14:16Z</time>
      </trkpt>
      <trkpt lat="44.87355" lon="0.59643">
        <ele>113.9</ele>
        <time>2023-08-06T09:14:18Z</time>
      </trkpt>
      <trkpt lat="44.87355" lon="0.59636">
        <ele>114.2</ele>
        <time>2023-08-06T09:14:20Z</time>
      </trkpt>
      <trkpt lat="44.87355" lon="0.59632">
        <ele>114.4</ele>
        <time>2023-08-06T09:14:21Z</time>
      </trkpt>
      <trkpt lat="44.87355" lon="0.59628">
        <ele>114.5</ele>
        <time>2023-08-06T09:14:22Z</time>
      </trkpt>
      <trkpt lat="44.87354" lon="0.59621">
        <ele>114.8</ele>
        <time>2023-08-06T09:14:24Z</time>
      </trkpt>
      <trkpt lat="44.87353" lon="0.59613">
        <ele>115.2</ele>
        <time>2023-08-06T09:14:26Z</time>
      </trkpt>
      <trkpt lat="44.87353" lon="0.5961">
        <ele>115.3</ele>
        <time>2023-08-06T09:14:27Z</time>
      </trkpt>
      <trkpt lat="44.87354" lon="0.59606">
        <ele>115.5</ele>
        <time>2023-08-06T09:14:28Z</time>
      </trkpt>
      <trkpt lat="44.87355" lon="0.59599">
        <ele>115.8</ele>
        <time>2023-08-06T09:14:30Z</time>
      </trkpt>
      <trkpt lat="44.87356" lon="0.59596">
        <ele>116</ele>
        <time>2023-08-06T09:14:31Z</time>
      </trkpt>
      <trkpt lat="44.87356" lon="0.59593">
        <ele>116.2</ele>
        <time>2023-08-06T09:14:32Z</time>
      </trkpt>
      <trkpt lat="44.87356" lon="0.59589">
        <ele>116.3</ele>
        <time>2023-08-06T09:14:33Z</time>
      </trkpt>
      <trkpt lat="44.87356" lon="0.59585">
        <ele>116.5</ele>
        <time>2023-08-06T09:14:34Z</time>
      </trkpt>
      <trkpt lat="44.87357" lon="0.59578">
        <ele>116.9</ele>
        <time>2023-08-06T09:14:36Z</time>
      </trkpt>
      <trkpt lat="44.87356" lon="0.59572">
        <ele>117.3</ele>
        <time>2023-08-06T09:14:38Z</time>
      </trkpt>
      <trkpt lat="44.87357" lon="0.59566">
        <ele>117.6</ele>
        <time>2023-08-06T09:14:40Z</time>
      </trkpt>
      <trkpt lat="44.87357" lon="0.59562">
        <ele>117.8</ele>
        <time>2023-08-06T09:14:41Z</time>
      </trkpt>
      <trkpt lat="44.87357" lon="0.59559">
        <ele>117.9</ele>
        <time>2023-08-06T09:14:42Z</time>
      </trkpt>
      <trkpt lat="44.87357" lon="0.59554">
        <ele>118.2</ele>
        <time>2023-08-06T09:14:44Z</time>
      </trkpt>
      <trkpt lat="44.87358" lon="0.5955">
        <ele>118.4</ele>
        <time>2023-08-06T09:14:46Z</time>
      </trkpt>
      <trkpt lat="44.87357" lon="0.59548">
        <ele>118.4</ele>
        <time>2023-08-06T09:14:47Z</time>
      </trkpt>
      <trkpt lat="44.87355" lon="0.59537">
        <ele>118.9</ele>
        <time>2023-08-06T09:14:51Z</time>
      </trkpt>
      <trkpt lat="44.87355" lon="0.59534">
        <ele>119</ele>
        <time>2023-08-06T09:14:52Z</time>
      </trkpt>
      <trkpt lat="44.87354" lon="0.5953">
        <ele>119.1</ele>
        <time>2023-08-06T09:14:53Z</time>
      </trkpt>
      <trkpt lat="44.87354" lon="0.59526">
        <ele>119.3</ele>
        <time>2023-08-06T09:14:54Z</time>
      </trkpt>
      <trkpt lat="44.87354" lon="0.59521">
        <ele>119.4</ele>
        <time>2023-08-06T09:14:55Z</time>
      </trkpt>
      <trkpt lat="44.87353" lon="0.59517">
        <ele>119.6</ele>
        <time>2023-08-06T09:14:56Z</time>
      </trkpt>
      <trkpt lat="44.87353" lon="0.59509">
        <ele>119.8</ele>
        <time>2023-08-06T09:14:58Z</time>
      </trkpt>
      <trkpt lat="44.87353" lon="0.59506">
        <ele>119.9</ele>
        <time>2023-08-06T09:14:59Z</time>
      </trkpt>
      <trkpt lat="44.87352" lon="0.59502">
        <ele>120</ele>
        <time>2023-08-06T09:15:00Z</time>
      </trkpt>
      <trkpt lat="44.8735" lon="0.59496">
        <ele>120.2</ele>
        <time>2023-08-06T09:15:02Z</time>
      </trkpt>
      <trkpt lat="44.87348" lon="0.59489">
        <ele>120.4</ele>
        <time>2023-08-06T09:15:04Z</time>
      </trkpt>
      <trkpt lat="44.87348" lon="0.59484">
        <ele>120.5</ele>
        <time>2023-08-06T09:15:06Z</time>
      </trkpt>
      <trkpt lat="44.87347" lon="0.5948">
        <ele>120.6</ele>
        <time>2023-08-06T09:15:07Z</time>
      </trkpt>
      <trkpt lat="44.87349" lon="0.59478">
        <ele>120.7</ele>
        <time>2023-08-06T09:15:08Z</time>
      </trkpt>
      <trkpt lat="44.87351" lon="0.5947">
        <ele>120.9</ele>
        <time>2023-08-06T09:15:10Z</time>
      </trkpt>
      <trkpt lat="44.87352" lon="0.59467">
        <ele>121</ele>
        <time>2023-08-06T09:15:11Z</time>
      </trkpt>
      <trkpt lat="44.87352" lon="0.59462">
        <ele>121.1</ele>
        <time>2023-08-06T09:15:12Z</time>
      </trkpt>
      <trkpt lat="44.87351" lon="0.59453">
        <ele>121.4</ele>
        <time>2023-08-06T09:15:14Z</time>
      </trkpt>
      <trkpt lat="44.8735" lon="0.59448">
        <ele>121.5</ele>
        <time>2023-08-06T09:15:15Z</time>
      </trkpt>
      <trkpt lat="44.8735" lon="0.59444">
        <ele>121.5</ele>
        <time>2023-08-06T09:15:16Z</time>
      </trkpt>
      <trkpt lat="44.87348" lon="0.59434">
        <ele>121.7</ele>
        <time>2023-08-06T09:15:18Z</time>
      </trkpt>
      <trkpt lat="44.87346" lon="0.59429">
        <ele>121.8</ele>
        <time>2023-08-06T09:15:19Z</time>
      </trkpt>
      <trkpt lat="44.87345" lon="0.59423">
        <ele>121.9</ele>
        <time>2023-08-06T09:15:20Z</time>
      </trkpt>
      <trkpt lat="44.87344" lon="0.59414">
        <ele>122.1</ele>
        <time>2023-08-06T09:15:22Z</time>
      </trkpt>
      <trkpt lat="44.87344" lon="0.59412">
        <ele>122.1</ele>
        <time>2023-08-06T09:15:23Z</time>
      </trkpt>
      <trkpt lat="44.87344" lon="0.59409">
        <ele>122.1</ele>
        <time>2023-08-06T09:15:24Z</time>
      </trkpt>
      <trkpt lat="44.87344" lon="0.59401">
        <ele>122.2</ele>
        <time>2023-08-06T09:15:26Z</time>
      </trkpt>
      <trkpt lat="44.87344" lon="0.59393">
        <ele>122.3</ele>
        <time>2023-08-06T09:15:28Z</time>
      </trkpt>
      <trkpt lat="44.87345" lon="0.59389">
        <ele>122.3</ele>
        <time>2023-08-06T09:15:29Z</time>
      </trkpt>
      <trkpt lat="44.87345" lon="0.59385">
        <ele>122.3</ele>
        <time>2023-08-06T09:15:30Z</time>
      </trkpt>
      <trkpt lat="44.87346" lon="0.59378">
        <ele>122.3</ele>
        <time>2023-08-06T09:15:32Z</time>
      </trkpt>
      <trkpt lat="44.87347" lon="0.59369">
        <ele>122.4</ele>
        <time>2023-08-06T09:15:34Z</time>
      </trkpt>
      <trkpt lat="44.87348" lon="0.59365">
        <ele>122.4</ele>
        <time>2023-08-06T09:15:35Z</time>
      </trkpt>
      <trkpt lat="44.87347" lon="0.59361">
        <ele>122.4</ele>
        <time>2023-08-06T09:15:36Z</time>
      </trkpt>
      <trkpt lat="44.87346" lon="0.59356">
        <ele>122.4</ele>
        <time>2023-08-06T09:15:37Z</time>
      </trkpt>
      <trkpt lat="44.87345" lon="0.5935">
        <ele>122.4</ele>
        <time>2023-08-06T09:15:38Z</time>
      </trkpt>
      <trkpt lat="44.87346" lon="0.59338">
        <ele>122.4</ele>
        <time>2023-08-06T09:15:40Z</time>
      </trkpt>
      <trkpt lat="44.87347" lon="0.59333">
        <ele>122.4</ele>
        <time>2023-08-06T09:15:41Z</time>
      </trkpt>
      <trkpt lat="44.87348" lon="0.59327">
        <ele>122.4</ele>
        <time>2023-08-06T09:15:42Z</time>
      </trkpt>
      <trkpt lat="44.87348" lon="0.59318">
        <ele>122.5</ele>
        <time>2023-08-06T09:15:44Z</time>
      </trkpt>
      <trkpt lat="44.87348" lon="0.59313">
        <ele>122.5</ele>
        <time>2023-08-06T09:15:45Z</time>
      </trkpt>
      <trkpt lat="44.87348" lon="0.59309">
        <ele>122.5</ele>
        <time>2023-08-06T09:15:46Z</time>
      </trkpt>
      <trkpt lat="44.87348" lon="0.59298">
        <ele>122.6</ele>
        <time>2023-08-06T09:15:48Z</time>
      </trkpt>
      <trkpt lat="44.87347" lon="0.59292">
        <ele>122.7</ele>
        <time>2023-08-06T09:15:49Z</time>
      </trkpt>
      <trkpt lat="44.87346" lon="0.59286">
        <ele>122.7</ele>
        <time>2023-08-06T09:15:50Z</time>
      </trkpt>
      <trkpt lat="44.87342" lon="0.59272">
        <ele>122.9</ele>
        <time>2023-08-06T09:15:52Z</time>
      </trkpt>
      <trkpt lat="44.87336" lon="0.59262">
        <ele>123</ele>
        <time>2023-08-06T09:15:53Z</time>
      </trkpt>
      <trkpt lat="44.87334" lon="0.59256">
        <ele>123.1</ele>
        <time>2023-08-06T09:15:54Z</time>
      </trkpt>
      <trkpt lat="44.87331" lon="0.5925">
        <ele>123.1</ele>
        <time>2023-08-06T09:15:55Z</time>
      </trkpt>
      <trkpt lat="44.87329" lon="0.59244">
        <ele>123.2</ele>
        <time>2023-08-06T09:15:56Z</time>
      </trkpt>
      <trkpt lat="44.87325" lon="0.59235">
        <ele>123.3</ele>
        <time>2023-08-06T09:15:57Z</time>
      </trkpt>
      <trkpt lat="44.87325" lon="0.5923">
        <ele>123.3</ele>
        <time>2023-08-06T09:15:58Z</time>
      </trkpt>
      <trkpt lat="44.87321" lon="0.59217">
        <ele>123.4</ele>
        <time>2023-08-06T09:16:00Z</time>
      </trkpt>
      <trkpt lat="44.87319" lon="0.59212">
        <ele>123.5</ele>
        <time>2023-08-06T09:16:01Z</time>
      </trkpt>
      <trkpt lat="44.87317" lon="0.59206">
        <ele>123.5</ele>
        <time>2023-08-06T09:16:02Z</time>
      </trkpt>
      <trkpt lat="44.87315" lon="0.592">
        <ele>123.6</ele>
        <time>2023-08-06T09:16:03Z</time>
      </trkpt>
      <trkpt lat="44.87313" lon="0.59193">
        <ele>123.7</ele>
        <time>2023-08-06T09:16:04Z</time>
      </trkpt>
      <trkpt lat="44.8731" lon="0.59186">
        <ele>123.8</ele>
        <time>2023-08-06T09:16:05Z</time>
      </trkpt>
      <trkpt lat="44.87307" lon="0.5918">
        <ele>123.9</ele>
        <time>2023-08-06T09:16:06Z</time>
      </trkpt>
      <trkpt lat="44.87299" lon="0.59165">
        <ele>124.2</ele>
        <time>2023-08-06T09:16:08Z</time>
      </trkpt>
      <trkpt lat="44.87296" lon="0.59154">
        <ele>124.5</ele>
        <time>2023-08-06T09:16:10Z</time>
      </trkpt>
      <trkpt lat="44.87291" lon="0.59143">
        <ele>124.7</ele>
        <time>2023-08-06T09:16:12Z</time>
      </trkpt>
      <trkpt lat="44.87288" lon="0.59135">
        <ele>124.9</ele>
        <time>2023-08-06T09:16:14Z</time>
      </trkpt>
      <trkpt lat="44.87284" lon="0.59125">
        <ele>125.1</ele>
        <time>2023-08-06T09:16:16Z</time>
      </trkpt>
      <trkpt lat="44.87281" lon="0.59118">
        <ele>125.3</ele>
        <time>2023-08-06T09:16:17Z</time>
      </trkpt>
      <trkpt lat="44.87279" lon="0.59112">
        <ele>125.4</ele>
        <time>2023-08-06T09:16:18Z</time>
      </trkpt>
      <trkpt lat="44.87275" lon="0.591">
        <ele>125.5</ele>
        <time>2023-08-06T09:16:20Z</time>
      </trkpt>
      <trkpt lat="44.87271" lon="0.59092">
        <ele>125.6</ele>
        <time>2023-08-06T09:16:21Z</time>
      </trkpt>
      <trkpt lat="44.87269" lon="0.59086">
        <ele>125.6</ele>
        <time>2023-08-06T09:16:22Z</time>
      </trkpt>
      <trkpt lat="44.87266" lon="0.59075">
        <ele>125.6</ele>
        <time>2023-08-06T09:16:24Z</time>
      </trkpt>
      <trkpt lat="44.87264" lon="0.59069">
        <ele>125.6</ele>
        <time>2023-08-06T09:16:26Z</time>
      </trkpt>
      <trkpt lat="44.87263" lon="0.59066">
        <ele>125.6</ele>
        <time>2023-08-06T09:16:27Z</time>
      </trkpt>
      <trkpt lat="44.87261" lon="0.59062">
        <ele>125.7</ele>
        <time>2023-08-06T09:16:28Z</time>
      </trkpt>
      <trkpt lat="44.87259" lon="0.59054">
        <ele>125.7</ele>
        <time>2023-08-06T09:16:30Z</time>
      </trkpt>
      <trkpt lat="44.87256" lon="0.59047">
        <ele>125.7</ele>
        <time>2023-08-06T09:16:31Z</time>
      </trkpt>
      <trkpt lat="44.87255" lon="0.59042">
        <ele>125.7</ele>
        <time>2023-08-06T09:16:32Z</time>
      </trkpt>
      <trkpt lat="44.87252" lon="0.59031">
        <ele>125.8</ele>
        <time>2023-08-06T09:16:34Z</time>
      </trkpt>
      <trkpt lat="44.87248" lon="0.59019">
        <ele>125.8</ele>
        <time>2023-08-06T09:16:36Z</time>
      </trkpt>
      <trkpt lat="44.87242" lon="0.59009">
        <ele>125.8</ele>
        <time>2023-08-06T09:16:38Z</time>
      </trkpt>
      <trkpt lat="44.87236" lon="0.58999">
        <ele>125.8</ele>
        <time>2023-08-06T09:16:40Z</time>
      </trkpt>
      <trkpt lat="44.8723" lon="0.58988">
        <ele>125.7</ele>
        <time>2023-08-06T09:16:42Z</time>
      </trkpt>
      <trkpt lat="44.87223" lon="0.58977">
        <ele>125.6</ele>
        <time>2023-08-06T09:16:44Z</time>
      </trkpt>
      <trkpt lat="44.87221" lon="0.58973">
        <ele>125.6</ele>
        <time>2023-08-06T09:16:45Z</time>
      </trkpt>
      <trkpt lat="44.8722" lon="0.58969">
        <ele>125.5</ele>
        <time>2023-08-06T09:16:46Z</time>
      </trkpt>
      <trkpt lat="44.87219" lon="0.58964">
        <ele>125.5</ele>
        <time>2023-08-06T09:16:47Z</time>
      </trkpt>
      <trkpt lat="44.87217" lon="0.58958">
        <ele>125.4</ele>
        <time>2023-08-06T09:16:48Z</time>
      </trkpt>
      <trkpt lat="44.87215" lon="0.58953">
        <ele>125.3</ele>
        <time>2023-08-06T09:16:49Z</time>
      </trkpt>
      <trkpt lat="44.87212" lon="0.58948">
        <ele>125.3</ele>
        <time>2023-08-06T09:16:50Z</time>
      </trkpt>
      <trkpt lat="44.87208" lon="0.58937">
        <ele>125</ele>
        <time>2023-08-06T09:16:52Z</time>
      </trkpt>
      <trkpt lat="44.87207" lon="0.58931">
        <ele>124.9</ele>
        <time>2023-08-06T09:16:53Z</time>
      </trkpt>
      <trkpt lat="44.87206" lon="0.58926">
        <ele>124.7</ele>
        <time>2023-08-06T09:16:54Z</time>
      </trkpt>
      <trkpt lat="44.87205" lon="0.58916">
        <ele>124.5</ele>
        <time>2023-08-06T09:16:56Z</time>
      </trkpt>
      <trkpt lat="44.87204" lon="0.58909">
        <ele>124.4</ele>
        <time>2023-08-06T09:16:57Z</time>
      </trkpt>
      <trkpt lat="44.87202" lon="0.58903">
        <ele>124.2</ele>
        <time>2023-08-06T09:16:58Z</time>
      </trkpt>
      <trkpt lat="44.87196" lon="0.58887">
        <ele>123.8</ele>
        <time>2023-08-06T09:17:00Z</time>
      </trkpt>
      <trkpt lat="44.87194" lon="0.58881">
        <ele>123.6</ele>
        <time>2023-08-06T09:17:01Z</time>
      </trkpt>
      <trkpt lat="44.87194" lon="0.58875">
        <ele>123.4</ele>
        <time>2023-08-06T09:17:02Z</time>
      </trkpt>
      <trkpt lat="44.87194" lon="0.58868">
        <ele>123.2</ele>
        <time>2023-08-06T09:17:03Z</time>
      </trkpt>
      <trkpt lat="44.87194" lon="0.58861">
        <ele>123</ele>
        <time>2023-08-06T09:17:04Z</time>
      </trkpt>
      <trkpt lat="44.87192" lon="0.58851">
        <ele>122.7</ele>
        <time>2023-08-06T09:17:05Z</time>
      </trkpt>
      <trkpt lat="44.87193" lon="0.58844">
        <ele>122.4</ele>
        <time>2023-08-06T09:17:06Z</time>
      </trkpt>
      <trkpt lat="44.87195" lon="0.58826">
        <ele>121.5</ele>
        <time>2023-08-06T09:17:08Z</time>
      </trkpt>
      <trkpt lat="44.87197" lon="0.58817">
        <ele>121</ele>
        <time>2023-08-06T09:17:09Z</time>
      </trkpt>
      <trkpt lat="44.87198" lon="0.58808">
        <ele>120.4</ele>
        <time>2023-08-06T09:17:10Z</time>
      </trkpt>
      <trkpt lat="44.87199" lon="0.58792">
        <ele>119.5</ele>
        <time>2023-08-06T09:17:12Z</time>
      </trkpt>
      <trkpt lat="44.87199" lon="0.58785">
        <ele>119.2</ele>
        <time>2023-08-06T09:17:13Z</time>
      </trkpt>
      <trkpt lat="44.872" lon="0.5878">
        <ele>119</ele>
        <time>2023-08-06T09:17:14Z</time>
      </trkpt>
      <trkpt lat="44.87202" lon="0.58768">
        <ele>118.6</ele>
        <time>2023-08-06T09:17:16Z</time>
      </trkpt>
      <trkpt lat="44.87204" lon="0.58755">
        <ele>118.3</ele>
        <time>2023-08-06T09:17:18Z</time>
      </trkpt>
      <trkpt lat="44.87205" lon="0.58741">
        <ele>118.2</ele>
        <time>2023-08-06T09:17:20Z</time>
      </trkpt>
      <trkpt lat="44.87202" lon="0.58728">
        <ele>118.3</ele>
        <time>2023-08-06T09:17:22Z</time>
      </trkpt>
      <trkpt lat="44.87199" lon="0.58718">
        <ele>118.5</ele>
        <time>2023-08-06T09:17:24Z</time>
      </trkpt>
      <trkpt lat="44.87194" lon="0.58703">
        <ele>119</ele>
        <time>2023-08-06T09:17:26Z</time>
      </trkpt>
      <trkpt lat="44.87188" lon="0.58686">
        <ele>119.7</ele>
        <time>2023-08-06T09:17:28Z</time>
      </trkpt>
      <trkpt lat="44.87187" lon="0.58679">
        <ele>119.7</ele>
        <time>2023-08-06T09:17:30Z</time>
      </trkpt>
      <trkpt lat="44.87185" lon="0.58672">
        <ele>119.7</ele>
        <time>2023-08-06T09:17:32Z</time>
      </trkpt>
      <trkpt lat="44.87185" lon="0.58672">
        <ele>119.7</ele>
        <time>2023-08-06T09:17:33Z</time>
      </trkpt>
      <trkpt lat="44.87183" lon="0.58646">
        <ele>119.6</ele>
        <time>2023-08-06T09:22:05Z</time>
      </trkpt>
      <trkpt lat="44.87182" lon="0.58643">
        <ele>119.7</ele>
        <time>2023-08-06T09:22:06Z</time>
      </trkpt>
      <trkpt lat="44.87181" lon="0.58636">
        <ele>119.7</ele>
        <time>2023-08-06T09:22:08Z</time>
      </trkpt>
      <trkpt lat="44.87179" lon="0.58628">
        <ele>119.7</ele>
        <time>2023-08-06T09:22:10Z</time>
      </trkpt>
      <trkpt lat="44.87176" lon="0.58618">
        <ele>119.7</ele>
        <time>2023-08-06T09:22:12Z</time>
      </trkpt>
      <trkpt lat="44.87175" lon="0.58611">
        <ele>119.8</ele>
        <time>2023-08-06T09:22:14Z</time>
      </trkpt>
      <trkpt lat="44.87174" lon="0.58604">
        <ele>120</ele>
        <time>2023-08-06T09:22:16Z</time>
      </trkpt>
      <trkpt lat="44.87172" lon="0.58598">
        <ele>120.1</ele>
        <time>2023-08-06T09:22:18Z</time>
      </trkpt>
      <trkpt lat="44.87171" lon="0.58595">
        <ele>120.3</ele>
        <time>2023-08-06T09:22:19Z</time>
      </trkpt>
      <trkpt lat="44.87171" lon="0.58591">
        <ele>120.5</ele>
        <time>2023-08-06T09:22:20Z</time>
      </trkpt>
      <trkpt lat="44.8717" lon="0.58583">
        <ele>120.9</ele>
        <time>2023-08-06T09:22:22Z</time>
      </trkpt>
      <trkpt lat="44.87169" lon="0.58576">
        <ele>121.2</ele>
        <time>2023-08-06T09:22:24Z</time>
      </trkpt>
      <trkpt lat="44.87169" lon="0.58569">
        <ele>121.6</ele>
        <time>2023-08-06T09:22:26Z</time>
      </trkpt>
      <trkpt lat="44.87169" lon="0.58565">
        <ele>121.8</ele>
        <time>2023-08-06T09:22:28Z</time>
      </trkpt>
      <trkpt lat="44.87168" lon="0.58559">
        <ele>122.1</ele>
        <time>2023-08-06T09:22:30Z</time>
      </trkpt>
      <trkpt lat="44.87168" lon="0.58557">
        <ele>122.3</ele>
        <time>2023-08-06T09:22:31Z</time>
      </trkpt>
      <trkpt lat="44.87168" lon="0.58555">
        <ele>122.4</ele>
        <time>2023-08-06T09:22:32Z</time>
      </trkpt>
      <trkpt lat="44.87167" lon="0.5855">
        <ele>122.6</ele>
        <time>2023-08-06T09:22:34Z</time>
      </trkpt>
      <trkpt lat="44.87167" lon="0.58546">
        <ele>122.8</ele>
        <time>2023-08-06T09:22:36Z</time>
      </trkpt>
      <trkpt lat="44.87166" lon="0.5854">
        <ele>123.3</ele>
        <time>2023-08-06T09:22:38Z</time>
      </trkpt>
      <trkpt lat="44.87165" lon="0.58535">
        <ele>123.5</ele>
        <time>2023-08-06T09:22:40Z</time>
      </trkpt>
      <trkpt lat="44.87163" lon="0.5853">
        <ele>123.7</ele>
        <time>2023-08-06T09:22:42Z</time>
      </trkpt>
      <trkpt lat="44.87162" lon="0.58525">
        <ele>123.9</ele>
        <time>2023-08-06T09:22:44Z</time>
      </trkpt>
      <trkpt lat="44.8716" lon="0.58518">
        <ele>124.2</ele>
        <time>2023-08-06T09:22:46Z</time>
      </trkpt>
      <trkpt lat="44.8716" lon="0.58514">
        <ele>124.4</ele>
        <time>2023-08-06T09:22:48Z</time>
      </trkpt>
      <trkpt lat="44.87159" lon="0.5851">
        <ele>124.6</ele>
        <time>2023-08-06T09:22:50Z</time>
      </trkpt>
      <trkpt lat="44.87159" lon="0.58505">
        <ele>124.8</ele>
        <time>2023-08-06T09:22:52Z</time>
      </trkpt>
      <trkpt lat="44.87158" lon="0.585">
        <ele>125</ele>
        <time>2023-08-06T09:22:54Z</time>
      </trkpt>
      <trkpt lat="44.87158" lon="0.58497">
        <ele>125.2</ele>
        <time>2023-08-06T09:22:55Z</time>
      </trkpt>
      <trkpt lat="44.87158" lon="0.58494">
        <ele>125.2</ele>
        <time>2023-08-06T09:22:56Z</time>
      </trkpt>
      <trkpt lat="44.87158" lon="0.5849">
        <ele>125.4</ele>
        <time>2023-08-06T09:22:58Z</time>
      </trkpt>
      <trkpt lat="44.87159" lon="0.58484">
        <ele>125.7</ele>
        <time>2023-08-06T09:23:00Z</time>
      </trkpt>
      <trkpt lat="44.8716" lon="0.58478">
        <ele>125.8</ele>
        <time>2023-08-06T09:23:02Z</time>
      </trkpt>
      <trkpt lat="44.87162" lon="0.58475">
        <ele>126</ele>
        <time>2023-08-06T09:23:04Z</time>
      </trkpt>
      <trkpt lat="44.87164" lon="0.58473">
        <ele>126.1</ele>
        <time>2023-08-06T09:23:06Z</time>
      </trkpt>
      <trkpt lat="44.87165" lon="0.58471">
        <ele>126.3</ele>
        <time>2023-08-06T09:23:07Z</time>
      </trkpt>
      <trkpt lat="44.87167" lon="0.5847">
        <ele>126.3</ele>
        <time>2023-08-06T09:23:08Z</time>
      </trkpt>
      <trkpt lat="44.8717" lon="0.58469">
        <ele>126.4</ele>
        <time>2023-08-06T09:23:10Z</time>
      </trkpt>
      <trkpt lat="44.87172" lon="0.58468">
        <ele>126.5</ele>
        <time>2023-08-06T09:23:11Z</time>
      </trkpt>
      <trkpt lat="44.87173" lon="0.58467">
        <ele>126.7</ele>
        <time>2023-08-06T09:23:12Z</time>
      </trkpt>
      <trkpt lat="44.87174" lon="0.58466">
        <ele>126.8</ele>
        <time>2023-08-06T09:23:13Z</time>
      </trkpt>
      <trkpt lat="44.87176" lon="0.58465">
        <ele>126.8</ele>
        <time>2023-08-06T09:23:14Z</time>
      </trkpt>
      <trkpt lat="44.87178" lon="0.58464">
        <ele>126.9</ele>
        <time>2023-08-06T09:23:16Z</time>
      </trkpt>
      <trkpt lat="44.87179" lon="0.58463">
        <ele>127.2</ele>
        <time>2023-08-06T09:23:17Z</time>
      </trkpt>
      <trkpt lat="44.87183" lon="0.58459">
        <ele>127.5</ele>
        <time>2023-08-06T09:23:20Z</time>
      </trkpt>
      <trkpt lat="44.87185" lon="0.58455">
        <ele>127.9</ele>
        <time>2023-08-06T09:23:22Z</time>
      </trkpt>
      <trkpt lat="44.87186" lon="0.58454">
        <ele>127.9</ele>
        <time>2023-08-06T09:23:23Z</time>
      </trkpt>
      <trkpt lat="44.87188" lon="0.58453">
        <ele>128</ele>
        <time>2023-08-06T09:23:24Z</time>
      </trkpt>
      <trkpt lat="44.87191" lon="0.58451">
        <ele>128</ele>
        <time>2023-08-06T09:23:26Z</time>
      </trkpt>
      <trkpt lat="44.87194" lon="0.5845">
        <ele>128.4</ele>
        <time>2023-08-06T09:23:28Z</time>
      </trkpt>
      <trkpt lat="44.87196" lon="0.5845">
        <ele>128.4</ele>
        <time>2023-08-06T09:23:29Z</time>
      </trkpt>
      <trkpt lat="44.87197" lon="0.58449">
        <ele>128.5</ele>
        <time>2023-08-06T09:23:30Z</time>
      </trkpt>
      <trkpt lat="44.87199" lon="0.58447">
        <ele>128.6</ele>
        <time>2023-08-06T09:23:32Z</time>
      </trkpt>
      <trkpt lat="44.87203" lon="0.58446">
        <ele>128.9</ele>
        <time>2023-08-06T09:23:34Z</time>
      </trkpt>
      <trkpt lat="44.87205" lon="0.58444">
        <ele>129</ele>
        <time>2023-08-06T09:23:36Z</time>
      </trkpt>
      <trkpt lat="44.87207" lon="0.58443">
        <ele>129</ele>
        <time>2023-08-06T09:23:37Z</time>
      </trkpt>
      <trkpt lat="44.87209" lon="0.58442">
        <ele>129.1</ele>
        <time>2023-08-06T09:23:38Z</time>
      </trkpt>
      <trkpt lat="44.87211" lon="0.58439">
        <ele>129.6</ele>
        <time>2023-08-06T09:23:40Z</time>
      </trkpt>
      <trkpt lat="44.87214" lon="0.58437">
        <ele>130</ele>
        <time>2023-08-06T09:23:42Z</time>
      </trkpt>
      <trkpt lat="44.87215" lon="0.58436">
        <ele>130.1</ele>
        <time>2023-08-06T09:23:43Z</time>
      </trkpt>
      <trkpt lat="44.87216" lon="0.58434">
        <ele>130.2</ele>
        <time>2023-08-06T09:23:44Z</time>
      </trkpt>
      <trkpt lat="44.87216" lon="0.58431">
        <ele>130.5</ele>
        <time>2023-08-06T09:23:45Z</time>
      </trkpt>
      <trkpt lat="44.87216" lon="0.58429">
        <ele>130.9</ele>
        <time>2023-08-06T09:23:46Z</time>
      </trkpt>
      <trkpt lat="44.87216" lon="0.58427">
        <ele>131</ele>
        <time>2023-08-06T09:23:47Z</time>
      </trkpt>
      <trkpt lat="44.87215" lon="0.58424">
        <ele>131.3</ele>
        <time>2023-08-06T09:23:48Z</time>
      </trkpt>
      <trkpt lat="44.87215" lon="0.58418">
        <ele>131.7</ele>
        <time>2023-08-06T09:23:50Z</time>
      </trkpt>
      <trkpt lat="44.87214" lon="0.58414">
        <ele>131.8</ele>
        <time>2023-08-06T09:23:52Z</time>
      </trkpt>
      <trkpt lat="44.87213" lon="0.5841">
        <ele>132.1</ele>
        <time>2023-08-06T09:23:54Z</time>
      </trkpt>
      <trkpt lat="44.87212" lon="0.58406">
        <ele>132.4</ele>
        <time>2023-08-06T09:23:56Z</time>
      </trkpt>
      <trkpt lat="44.87209" lon="0.58401">
        <ele>132.5</ele>
        <time>2023-08-06T09:23:58Z</time>
      </trkpt>
      <trkpt lat="44.87207" lon="0.58396">
        <ele>132.5</ele>
        <time>2023-08-06T09:24:00Z</time>
      </trkpt>
      <trkpt lat="44.87205" lon="0.58389">
        <ele>132.8</ele>
        <time>2023-08-06T09:24:02Z</time>
      </trkpt>
      <trkpt lat="44.87205" lon="0.58387">
        <ele>132.7</ele>
        <time>2023-08-06T09:24:03Z</time>
      </trkpt>
      <trkpt lat="44.87205" lon="0.58384">
        <ele>132.9</ele>
        <time>2023-08-06T09:24:04Z</time>
      </trkpt>
      <trkpt lat="44.87206" lon="0.58378">
        <ele>133.3</ele>
        <time>2023-08-06T09:24:06Z</time>
      </trkpt>
      <trkpt lat="44.87209" lon="0.58373">
        <ele>133.5</ele>
        <time>2023-08-06T09:24:08Z</time>
      </trkpt>
      <trkpt lat="44.87212" lon="0.58368">
        <ele>133.8</ele>
        <time>2023-08-06T09:24:10Z</time>
      </trkpt>
      <trkpt lat="44.87214" lon="0.58363">
        <ele>133.9</ele>
        <time>2023-08-06T09:24:12Z</time>
      </trkpt>
      <trkpt lat="44.87217" lon="0.58358">
        <ele>134.1</ele>
        <time>2023-08-06T09:24:14Z</time>
      </trkpt>
      <trkpt lat="44.8722" lon="0.58351">
        <ele>134.2</ele>
        <time>2023-08-06T09:24:16Z</time>
      </trkpt>
      <trkpt lat="44.87221" lon="0.58348">
        <ele>134.3</ele>
        <time>2023-08-06T09:24:17Z</time>
      </trkpt>
      <trkpt lat="44.87223" lon="0.58345">
        <ele>134.4</ele>
        <time>2023-08-06T09:24:18Z</time>
      </trkpt>
      <trkpt lat="44.87225" lon="0.58338">
        <ele>134.5</ele>
        <time>2023-08-06T09:24:20Z</time>
      </trkpt>
      <trkpt lat="44.87226" lon="0.58335">
        <ele>134.6</ele>
        <time>2023-08-06T09:24:21Z</time>
      </trkpt>
      <trkpt lat="44.87228" lon="0.58332">
        <ele>134.6</ele>
        <time>2023-08-06T09:24:22Z</time>
      </trkpt>
      <trkpt lat="44.8723" lon="0.58329">
        <ele>134.7</ele>
        <time>2023-08-06T09:24:23Z</time>
      </trkpt>
      <trkpt lat="44.87232" lon="0.58326">
        <ele>134.8</ele>
        <time>2023-08-06T09:24:24Z</time>
      </trkpt>
      <trkpt lat="44.87236" lon="0.58321">
        <ele>134.9</ele>
        <time>2023-08-06T09:24:26Z</time>
      </trkpt>
      <trkpt lat="44.87239" lon="0.58314">
        <ele>135</ele>
        <time>2023-08-06T09:24:28Z</time>
      </trkpt>
      <trkpt lat="44.87244" lon="0.58308">
        <ele>135.2</ele>
        <time>2023-08-06T09:24:30Z</time>
      </trkpt>
      <trkpt lat="44.87249" lon="0.58303">
        <ele>135.3</ele>
        <time>2023-08-06T09:24:32Z</time>
      </trkpt>
      <trkpt lat="44.87255" lon="0.583">
        <ele>135.3</ele>
        <time>2023-08-06T09:24:34Z</time>
      </trkpt>
      <trkpt lat="44.87261" lon="0.58297">
        <ele>135.2</ele>
        <time>2023-08-06T09:24:36Z</time>
      </trkpt>
      <trkpt lat="44.87267" lon="0.58293">
        <ele>135.1</ele>
        <time>2023-08-06T09:24:38Z</time>
      </trkpt>
      <trkpt lat="44.8727" lon="0.58292">
        <ele>135</ele>
        <time>2023-08-06T09:24:39Z</time>
      </trkpt>
      <trkpt lat="44.87273" lon="0.58291">
        <ele>134.9</ele>
        <time>2023-08-06T09:24:40Z</time>
      </trkpt>
      <trkpt lat="44.87277" lon="0.5829">
        <ele>134.8</ele>
        <time>2023-08-06T09:24:41Z</time>
      </trkpt>
      <trkpt lat="44.8728" lon="0.58289">
        <ele>134.6</ele>
        <time>2023-08-06T09:24:42Z</time>
      </trkpt>
      <trkpt lat="44.87284" lon="0.58288">
        <ele>134.4</ele>
        <time>2023-08-06T09:24:43Z</time>
      </trkpt>
      <trkpt lat="44.87288" lon="0.58286">
        <ele>134.2</ele>
        <time>2023-08-06T09:24:44Z</time>
      </trkpt>
      <trkpt lat="44.87296" lon="0.58282">
        <ele>133.8</ele>
        <time>2023-08-06T09:24:46Z</time>
      </trkpt>
      <trkpt lat="44.873" lon="0.5828">
        <ele>133.6</ele>
        <time>2023-08-06T09:24:47Z</time>
      </trkpt>
      <trkpt lat="44.87305" lon="0.58278">
        <ele>133.4</ele>
        <time>2023-08-06T09:24:48Z</time>
      </trkpt>
      <trkpt lat="44.87311" lon="0.58276">
        <ele>133.2</ele>
        <time>2023-08-06T09:24:49Z</time>
      </trkpt>
      <trkpt lat="44.87316" lon="0.58274">
        <ele>133</ele>
        <time>2023-08-06T09:24:50Z</time>
      </trkpt>
      <trkpt lat="44.87326" lon="0.58269">
        <ele>132.7</ele>
        <time>2023-08-06T09:24:52Z</time>
      </trkpt>
      <trkpt lat="44.87331" lon="0.58267">
        <ele>132.6</ele>
        <time>2023-08-06T09:24:53Z</time>
      </trkpt>
      <trkpt lat="44.87336" lon="0.58265">
        <ele>132.5</ele>
        <time>2023-08-06T09:24:54Z</time>
      </trkpt>
      <trkpt lat="44.87344" lon="0.58261">
        <ele>132.3</ele>
        <time>2023-08-06T09:24:56Z</time>
      </trkpt>
      <trkpt lat="44.87348" lon="0.58259">
        <ele>132.3</ele>
        <time>2023-08-06T09:24:57Z</time>
      </trkpt>
      <trkpt lat="44.87352" lon="0.58256">
        <ele>132.3</ele>
        <time>2023-08-06T09:24:58Z</time>
      </trkpt>
      <trkpt lat="44.87361" lon="0.58252">
        <ele>132.2</ele>
        <time>2023-08-06T09:25:00Z</time>
      </trkpt>
      <trkpt lat="44.87366" lon="0.5825">
        <ele>132.1</ele>
        <time>2023-08-06T09:25:01Z</time>
      </trkpt>
      <trkpt lat="44.8737" lon="0.58248">
        <ele>132</ele>
        <time>2023-08-06T09:25:02Z</time>
      </trkpt>
      <trkpt lat="44.87374" lon="0.58245">
        <ele>132</ele>
        <time>2023-08-06T09:25:03Z</time>
      </trkpt>
      <trkpt lat="44.87378" lon="0.58242">
        <ele>131.9</ele>
        <time>2023-08-06T09:25:04Z</time>
      </trkpt>
      <trkpt lat="44.87381" lon="0.58238">
        <ele>131.8</ele>
        <time>2023-08-06T09:25:05Z</time>
      </trkpt>
      <trkpt lat="44.87382" lon="0.58234">
        <ele>131.7</ele>
        <time>2023-08-06T09:25:06Z</time>
      </trkpt>
      <trkpt lat="44.87382" lon="0.5823">
        <ele>131.6</ele>
        <time>2023-08-06T09:25:07Z</time>
      </trkpt>
      <trkpt lat="44.87382" lon="0.58227">
        <ele>131.5</ele>
        <time>2023-08-06T09:25:08Z</time>
      </trkpt>
      <trkpt lat="44.87382" lon="0.58224">
        <ele>131.4</ele>
        <time>2023-08-06T09:25:09Z</time>
      </trkpt>
      <trkpt lat="44.87384" lon="0.58222">
        <ele>131.3</ele>
        <time>2023-08-06T09:25:10Z</time>
      </trkpt>
      <trkpt lat="44.87387" lon="0.58221">
        <ele>131.1</ele>
        <time>2023-08-06T09:25:12Z</time>
      </trkpt>
      <trkpt lat="44.87391" lon="0.58218">
        <ele>130.8</ele>
        <time>2023-08-06T09:25:14Z</time>
      </trkpt>
      <trkpt lat="44.87394" lon="0.58216">
        <ele>130.6</ele>
        <time>2023-08-06T09:25:15Z</time>
      </trkpt>
      <trkpt lat="44.87395" lon="0.58214">
        <ele>130.5</ele>
        <time>2023-08-06T09:25:16Z</time>
      </trkpt>
      <trkpt lat="44.87404" lon="0.58208">
        <ele>129.8</ele>
        <time>2023-08-06T09:25:18Z</time>
      </trkpt>
      <trkpt lat="44.87419" lon="0.58199">
        <ele>128.7</ele>
        <time>2023-08-06T09:25:20Z</time>
      </trkpt>
      <trkpt lat="44.87426" lon="0.58194">
        <ele>128.4</ele>
        <time>2023-08-06T09:25:21Z</time>
      </trkpt>
      <trkpt lat="44.87431" lon="0.5819">
        <ele>128.3</ele>
        <time>2023-08-06T09:25:22Z</time>
      </trkpt>
      <trkpt lat="44.87443" lon="0.58183">
        <ele>128.4</ele>
        <time>2023-08-06T09:25:24Z</time>
      </trkpt>
      <trkpt lat="44.87456" lon="0.58176">
        <ele>129</ele>
        <time>2023-08-06T09:25:26Z</time>
      </trkpt>
      <trkpt lat="44.87463" lon="0.5817">
        <ele>129.5</ele>
        <time>2023-08-06T09:25:28Z</time>
      </trkpt>
      <trkpt lat="44.87468" lon="0.58165">
        <ele>129.9</ele>
        <time>2023-08-06T09:25:30Z</time>
      </trkpt>
      <trkpt lat="44.87476" lon="0.58161">
        <ele>130.3</ele>
        <time>2023-08-06T09:25:32Z</time>
      </trkpt>
      <trkpt lat="44.87483" lon="0.58156">
        <ele>130.6</ele>
        <time>2023-08-06T09:25:34Z</time>
      </trkpt>
      <trkpt lat="44.87489" lon="0.58151">
        <ele>130.8</ele>
        <time>2023-08-06T09:25:36Z</time>
      </trkpt>
      <trkpt lat="44.87496" lon="0.58147">
        <ele>131.1</ele>
        <time>2023-08-06T09:25:38Z</time>
      </trkpt>
      <trkpt lat="44.87502" lon="0.58144">
        <ele>131.4</ele>
        <time>2023-08-06T09:25:40Z</time>
      </trkpt>
      <trkpt lat="44.87507" lon="0.58139">
        <ele>131.7</ele>
        <time>2023-08-06T09:25:42Z</time>
      </trkpt>
      <trkpt lat="44.87513" lon="0.58134">
        <ele>132</ele>
        <time>2023-08-06T09:25:44Z</time>
      </trkpt>
      <trkpt lat="44.87519" lon="0.5813">
        <ele>132.3</ele>
        <time>2023-08-06T09:25:46Z</time>
      </trkpt>
      <trkpt lat="44.87525" lon="0.58125">
        <ele>132.6</ele>
        <time>2023-08-06T09:25:48Z</time>
      </trkpt>
      <trkpt lat="44.87531" lon="0.58122">
        <ele>132.9</ele>
        <time>2023-08-06T09:25:50Z</time>
      </trkpt>
      <trkpt lat="44.87536" lon="0.58119">
        <ele>133.1</ele>
        <time>2023-08-06T09:25:52Z</time>
      </trkpt>
      <trkpt lat="44.87542" lon="0.58119">
        <ele>133.3</ele>
        <time>2023-08-06T09:25:54Z</time>
      </trkpt>
      <trkpt lat="44.87546" lon="0.58117">
        <ele>133.6</ele>
        <time>2023-08-06T09:25:56Z</time>
      </trkpt>
      <trkpt lat="44.87551" lon="0.58116">
        <ele>133.8</ele>
        <time>2023-08-06T09:25:58Z</time>
      </trkpt>
      <trkpt lat="44.87553" lon="0.58115">
        <ele>133.9</ele>
        <time>2023-08-06T09:25:59Z</time>
      </trkpt>
      <trkpt lat="44.87555" lon="0.58114">
        <ele>134</ele>
        <time>2023-08-06T09:26:00Z</time>
      </trkpt>
      <trkpt lat="44.87559" lon="0.58112">
        <ele>134.2</ele>
        <time>2023-08-06T09:26:02Z</time>
      </trkpt>
      <trkpt lat="44.87564" lon="0.5811">
        <ele>134.4</ele>
        <time>2023-08-06T09:26:04Z</time>
      </trkpt>
      <trkpt lat="44.8757" lon="0.58109">
        <ele>134.5</ele>
        <time>2023-08-06T09:26:06Z</time>
      </trkpt>
      <trkpt lat="44.87576" lon="0.5811">
        <ele>134.5</ele>
        <time>2023-08-06T09:26:08Z</time>
      </trkpt>
      <trkpt lat="44.87583" lon="0.58111">
        <ele>134.4</ele>
        <time>2023-08-06T09:26:10Z</time>
      </trkpt>
      <trkpt lat="44.87588" lon="0.58111">
        <ele>134.3</ele>
        <time>2023-08-06T09:26:11Z</time>
      </trkpt>
      <trkpt lat="44.87592" lon="0.58111">
        <ele>134.1</ele>
        <time>2023-08-06T09:26:12Z</time>
      </trkpt>
      <trkpt lat="44.87603" lon="0.58108">
        <ele>133.6</ele>
        <time>2023-08-06T09:26:14Z</time>
      </trkpt>
      <trkpt lat="44.87609" lon="0.58107">
        <ele>133.3</ele>
        <time>2023-08-06T09:26:15Z</time>
      </trkpt>
      <trkpt lat="44.87615" lon="0.58105">
        <ele>133.1</ele>
        <time>2023-08-06T09:26:16Z</time>
      </trkpt>
      <trkpt lat="44.87627" lon="0.58101">
        <ele>132.7</ele>
        <time>2023-08-06T09:26:18Z</time>
      </trkpt>
      <trkpt lat="44.87633" lon="0.58099">
        <ele>132.5</ele>
        <time>2023-08-06T09:26:19Z</time>
      </trkpt>
      <trkpt lat="44.87639" lon="0.58097">
        <ele>132.4</ele>
        <time>2023-08-06T09:26:20Z</time>
      </trkpt>
      <trkpt lat="44.87651" lon="0.58092">
        <ele>132.1</ele>
        <time>2023-08-06T09:26:22Z</time>
      </trkpt>
      <trkpt lat="44.87656" lon="0.58089">
        <ele>132</ele>
        <time>2023-08-06T09:26:23Z</time>
      </trkpt>
      <trkpt lat="44.87662" lon="0.58085">
        <ele>131.8</ele>
        <time>2023-08-06T09:26:24Z</time>
      </trkpt>
      <trkpt lat="44.87672" lon="0.58081">
        <ele>131.5</ele>
        <time>2023-08-06T09:26:26Z</time>
      </trkpt>
      <trkpt lat="44.87677" lon="0.5808">
        <ele>131.3</ele>
        <time>2023-08-06T09:26:27Z</time>
      </trkpt>
      <trkpt lat="44.87682" lon="0.5808">
        <ele>131.1</ele>
        <time>2023-08-06T09:26:28Z</time>
      </trkpt>
      <trkpt lat="44.87687" lon="0.58076">
        <ele>130.8</ele>
        <time>2023-08-06T09:26:29Z</time>
      </trkpt>
      <trkpt lat="44.87693" lon="0.58072">
        <ele>130.5</ele>
        <time>2023-08-06T09:26:30Z</time>
      </trkpt>
      <trkpt lat="44.87705" lon="0.58062">
        <ele>130</ele>
        <time>2023-08-06T09:26:32Z</time>
      </trkpt>
      <trkpt lat="44.87712" lon="0.58057">
        <ele>129.8</ele>
        <time>2023-08-06T09:26:33Z</time>
      </trkpt>
      <trkpt lat="44.87719" lon="0.58054">
        <ele>129.6</ele>
        <time>2023-08-06T09:26:34Z</time>
      </trkpt>
      <trkpt lat="44.87727" lon="0.58051">
        <ele>129.4</ele>
        <time>2023-08-06T09:26:35Z</time>
      </trkpt>
      <trkpt lat="44.87734" lon="0.58048">
        <ele>129.1</ele>
        <time>2023-08-06T09:26:36Z</time>
      </trkpt>
      <trkpt lat="44.87749" lon="0.58043">
        <ele>128.4</ele>
        <time>2023-08-06T09:26:38Z</time>
      </trkpt>
      <trkpt lat="44.87757" lon="0.5804">
        <ele>128</ele>
        <time>2023-08-06T09:26:39Z</time>
      </trkpt>
      <trkpt lat="44.87765" lon="0.58038">
        <ele>127.7</ele>
        <time>2023-08-06T09:26:40Z</time>
      </trkpt>
      <trkpt lat="44.8778" lon="0.58032">
        <ele>127.2</ele>
        <time>2023-08-06T09:26:42Z</time>
      </trkpt>
      <trkpt lat="44.87794" lon="0.58026">
        <ele>126.7</ele>
        <time>2023-08-06T09:26:44Z</time>
      </trkpt>
      <trkpt lat="44.87809" lon="0.58021">
        <ele>126.3</ele>
        <time>2023-08-06T09:26:46Z</time>
      </trkpt>
      <trkpt lat="44.87824" lon="0.58016">
        <ele>125.8</ele>
        <time>2023-08-06T09:26:48Z</time>
      </trkpt>
      <trkpt lat="44.87839" lon="0.58012">
        <ele>125.5</ele>
        <time>2023-08-06T09:26:50Z</time>
      </trkpt>
      <trkpt lat="44.87846" lon="0.5801">
        <ele>125.3</ele>
        <time>2023-08-06T09:26:51Z</time>
      </trkpt>
      <trkpt lat="44.87853" lon="0.58006">
        <ele>125.2</ele>
        <time>2023-08-06T09:26:52Z</time>
      </trkpt>
      <trkpt lat="44.87866" lon="0.57999">
        <ele>124.9</ele>
        <time>2023-08-06T09:26:54Z</time>
      </trkpt>
      <trkpt lat="44.87873" lon="0.57996">
        <ele>124.8</ele>
        <time>2023-08-06T09:26:55Z</time>
      </trkpt>
      <trkpt lat="44.8788" lon="0.57993">
        <ele>124.7</ele>
        <time>2023-08-06T09:26:56Z</time>
      </trkpt>
      <trkpt lat="44.87894" lon="0.57986">
        <ele>124.4</ele>
        <time>2023-08-06T09:26:58Z</time>
      </trkpt>
      <trkpt lat="44.87906" lon="0.57976">
        <ele>124.2</ele>
        <time>2023-08-06T09:27:00Z</time>
      </trkpt>
      <trkpt lat="44.87912" lon="0.57971">
        <ele>124.1</ele>
        <time>2023-08-06T09:27:01Z</time>
      </trkpt>
      <trkpt lat="44.87918" lon="0.57966">
        <ele>124.1</ele>
        <time>2023-08-06T09:27:02Z</time>
      </trkpt>
      <trkpt lat="44.8793" lon="0.57955">
        <ele>124</ele>
        <time>2023-08-06T09:27:04Z</time>
      </trkpt>
      <trkpt lat="44.87935" lon="0.5795">
        <ele>124</ele>
        <time>2023-08-06T09:27:05Z</time>
      </trkpt>
      <trkpt lat="44.8794" lon="0.57947">
        <ele>123.9</ele>
        <time>2023-08-06T09:27:06Z</time>
      </trkpt>
      <trkpt lat="44.87943" lon="0.57943">
        <ele>123.9</ele>
        <time>2023-08-06T09:27:07Z</time>
      </trkpt>
      <trkpt lat="44.87945" lon="0.57939">
        <ele>124</ele>
        <time>2023-08-06T09:27:08Z</time>
      </trkpt>
      <trkpt lat="44.87945" lon="0.57925">
        <ele>124.1</ele>
        <time>2023-08-06T09:27:10Z</time>
      </trkpt>
      <trkpt lat="44.87945" lon="0.57917">
        <ele>124.2</ele>
        <time>2023-08-06T09:27:11Z</time>
      </trkpt>
      <trkpt lat="44.87946" lon="0.57912">
        <ele>124.3</ele>
        <time>2023-08-06T09:27:12Z</time>
      </trkpt>
      <trkpt lat="44.87947" lon="0.57905">
        <ele>124.3</ele>
        <time>2023-08-06T09:27:13Z</time>
      </trkpt>
      <trkpt lat="44.87945" lon="0.57898">
        <ele>124.3</ele>
        <time>2023-08-06T09:27:14Z</time>
      </trkpt>
      <trkpt lat="44.87942" lon="0.57896">
        <ele>124.3</ele>
        <time>2023-08-06T09:27:15Z</time>
      </trkpt>
      <trkpt lat="44.87938" lon="0.57892">
        <ele>124.3</ele>
        <time>2023-08-06T09:27:16Z</time>
      </trkpt>
      <trkpt lat="44.87929" lon="0.57889">
        <ele>124.3</ele>
        <time>2023-08-06T09:27:18Z</time>
      </trkpt>
      <trkpt lat="44.87924" lon="0.57888">
        <ele>124.4</ele>
        <time>2023-08-06T09:27:19Z</time>
      </trkpt>
      <trkpt lat="44.8792" lon="0.57886">
        <ele>124.5</ele>
        <time>2023-08-06T09:27:20Z</time>
      </trkpt>
      <trkpt lat="44.87912" lon="0.57885">
        <ele>124.6</ele>
        <time>2023-08-06T09:27:22Z</time>
      </trkpt>
      <trkpt lat="44.87909" lon="0.57884">
        <ele>124.6</ele>
        <time>2023-08-06T09:27:23Z</time>
      </trkpt>
      <trkpt lat="44.87906" lon="0.57884">
        <ele>124.7</ele>
        <time>2023-08-06T09:27:24Z</time>
      </trkpt>
      <trkpt lat="44.879" lon="0.57884">
        <ele>124.8</ele>
        <time>2023-08-06T09:27:26Z</time>
      </trkpt>
      <trkpt lat="44.87895" lon="0.57885">
        <ele>124.9</ele>
        <time>2023-08-06T09:27:28Z</time>
      </trkpt>
      <trkpt lat="44.87893" lon="0.57885">
        <ele>125</ele>
        <time>2023-08-06T09:27:29Z</time>
      </trkpt>
      <trkpt lat="44.87893" lon="0.57883">
        <ele>125</ele>
        <time>2023-08-06T09:27:30Z</time>
      </trkpt>
      <trkpt lat="44.87885" lon="0.57885">
        <ele>125.2</ele>
        <time>2023-08-06T09:27:38Z</time>
      </trkpt>
      <trkpt lat="44.87877" lon="0.57885">
        <ele>125.4</ele>
        <time>2023-08-06T09:27:40Z</time>
      </trkpt>
      <trkpt lat="44.87869" lon="0.57887">
        <ele>125.6</ele>
        <time>2023-08-06T09:27:42Z</time>
      </trkpt>
      <trkpt lat="44.87865" lon="0.57887">
        <ele>125.6</ele>
        <time>2023-08-06T09:27:43Z</time>
      </trkpt>
      <trkpt lat="44.87862" lon="0.57886">
        <ele>125.6</ele>
        <time>2023-08-06T09:27:44Z</time>
      </trkpt>
      <trkpt lat="44.8786" lon="0.57885">
        <ele>125.7</ele>
        <time>2023-08-06T09:27:45Z</time>
      </trkpt>
      <trkpt lat="44.87857" lon="0.57882">
        <ele>125.7</ele>
        <time>2023-08-06T09:27:46Z</time>
      </trkpt>
      <trkpt lat="44.87855" lon="0.5788">
        <ele>125.6</ele>
        <time>2023-08-06T09:27:47Z</time>
      </trkpt>
      <trkpt lat="44.87854" lon="0.57877">
        <ele>125.6</ele>
        <time>2023-08-06T09:27:48Z</time>
      </trkpt>
      <trkpt lat="44.87852" lon="0.57871">
        <ele>125.6</ele>
        <time>2023-08-06T09:27:49Z</time>
      </trkpt>
      <trkpt lat="44.87849" lon="0.57863">
        <ele>125.4</ele>
        <time>2023-08-06T09:27:50Z</time>
      </trkpt>
      <trkpt lat="44.87848" lon="0.57857">
        <ele>125.3</ele>
        <time>2023-08-06T09:27:51Z</time>
      </trkpt>
      <trkpt lat="44.87849" lon="0.57853">
        <ele>125.2</ele>
        <time>2023-08-06T09:27:52Z</time>
      </trkpt>
      <trkpt lat="44.87847" lon="0.57849">
        <ele>125.1</ele>
        <time>2023-08-06T09:27:53Z</time>
      </trkpt>
      <trkpt lat="44.87846" lon="0.57846">
        <ele>125</ele>
        <time>2023-08-06T09:27:54Z</time>
      </trkpt>
      <trkpt lat="44.87844" lon="0.57839">
        <ele>124.7</ele>
        <time>2023-08-06T09:27:56Z</time>
      </trkpt>
      <trkpt lat="44.87845" lon="0.57835">
        <ele>124.6</ele>
        <time>2023-08-06T09:27:57Z</time>
      </trkpt>
      <trkpt lat="44.87846" lon="0.57832">
        <ele>124.4</ele>
        <time>2023-08-06T09:27:58Z</time>
      </trkpt>
      <trkpt lat="44.87845" lon="0.57825">
        <ele>124.1</ele>
        <time>2023-08-06T09:28:00Z</time>
      </trkpt>
      <trkpt lat="44.87844" lon="0.57819">
        <ele>123.9</ele>
        <time>2023-08-06T09:28:02Z</time>
      </trkpt>
      <trkpt lat="44.87845" lon="0.57816">
        <ele>123.7</ele>
        <time>2023-08-06T09:28:03Z</time>
      </trkpt>
      <trkpt lat="44.87846" lon="0.57814">
        <ele>123.6</ele>
        <time>2023-08-06T09:28:04Z</time>
      </trkpt>
      <trkpt lat="44.87848" lon="0.57812">
        <ele>123.4</ele>
        <time>2023-08-06T09:28:06Z</time>
      </trkpt>
      <trkpt lat="44.87847" lon="0.57806">
        <ele>123.2</ele>
        <time>2023-08-06T09:28:07Z</time>
      </trkpt>
      <trkpt lat="44.87848" lon="0.57802">
        <ele>122.9</ele>
        <time>2023-08-06T09:28:08Z</time>
      </trkpt>
      <trkpt lat="44.87846" lon="0.57791">
        <ele>122.3</ele>
        <time>2023-08-06T09:28:10Z</time>
      </trkpt>
      <trkpt lat="44.87844" lon="0.5778">
        <ele>121.7</ele>
        <time>2023-08-06T09:28:12Z</time>
      </trkpt>
      <trkpt lat="44.87844" lon="0.57773">
        <ele>121.4</ele>
        <time>2023-08-06T09:28:13Z</time>
      </trkpt>
      <trkpt lat="44.87844" lon="0.57769">
        <ele>121.1</ele>
        <time>2023-08-06T09:28:14Z</time>
      </trkpt>
      <trkpt lat="44.87846" lon="0.57766">
        <ele>120.9</ele>
        <time>2023-08-06T09:28:15Z</time>
      </trkpt>
      <trkpt lat="44.87848" lon="0.57766">
        <ele>120.7</ele>
        <time>2023-08-06T09:28:16Z</time>
      </trkpt>
      <trkpt lat="44.87847" lon="0.57759">
        <ele>120.3</ele>
        <time>2023-08-06T09:28:18Z</time>
      </trkpt>
      <trkpt lat="44.87845" lon="0.5775">
        <ele>119.8</ele>
        <time>2023-08-06T09:28:19Z</time>
      </trkpt>
      <trkpt lat="44.87846" lon="0.57745">
        <ele>119.5</ele>
        <time>2023-08-06T09:28:20Z</time>
      </trkpt>
      <trkpt lat="44.87848" lon="0.57732">
        <ele>118.8</ele>
        <time>2023-08-06T09:28:22Z</time>
      </trkpt>
      <trkpt lat="44.87853" lon="0.57723">
        <ele>118.1</ele>
        <time>2023-08-06T09:28:24Z</time>
      </trkpt>
      <trkpt lat="44.87859" lon="0.57708">
        <ele>117</ele>
        <time>2023-08-06T09:28:26Z</time>
      </trkpt>
      <trkpt lat="44.87862" lon="0.57698">
        <ele>116.2</ele>
        <time>2023-08-06T09:28:27Z</time>
      </trkpt>
      <trkpt lat="44.87867" lon="0.57688">
        <ele>115.5</ele>
        <time>2023-08-06T09:28:28Z</time>
      </trkpt>
      <trkpt lat="44.87875" lon="0.57671">
        <ele>114.7</ele>
        <time>2023-08-06T09:28:30Z</time>
      </trkpt>
      <trkpt lat="44.87883" lon="0.57655">
        <ele>114.5</ele>
        <time>2023-08-06T09:28:32Z</time>
      </trkpt>
      <trkpt lat="44.87884" lon="0.57648">
        <ele>114.5</ele>
        <time>2023-08-06T09:28:33Z</time>
      </trkpt>
      <trkpt lat="44.87886" lon="0.57644">
        <ele>114.5</ele>
        <time>2023-08-06T09:28:34Z</time>
      </trkpt>
      <trkpt lat="44.87891" lon="0.57634">
        <ele>114.7</ele>
        <time>2023-08-06T09:28:36Z</time>
      </trkpt>
      <trkpt lat="44.87893" lon="0.57629">
        <ele>114.8</ele>
        <time>2023-08-06T09:28:37Z</time>
      </trkpt>
      <trkpt lat="44.87893" lon="0.57627">
        <ele>114.9</ele>
        <time>2023-08-06T09:28:38Z</time>
      </trkpt>
      <trkpt lat="44.87894" lon="0.57626">
        <ele>114.9</ele>
        <time>2023-08-06T09:28:39Z</time>
      </trkpt>
      <trkpt lat="44.8789" lon="0.57616">
        <ele>115.3</ele>
        <time>2023-08-06T09:28:40Z</time>
      </trkpt>
      <trkpt lat="44.87886" lon="0.57606">
        <ele>116</ele>
        <time>2023-08-06T09:28:41Z</time>
      </trkpt>
      <trkpt lat="44.87887" lon="0.57601">
        <ele>116.3</ele>
        <time>2023-08-06T09:28:42Z</time>
      </trkpt>
      <trkpt lat="44.87889" lon="0.57599">
        <ele>116.6</ele>
        <time>2023-08-06T09:28:43Z</time>
      </trkpt>
      <trkpt lat="44.87888" lon="0.57594">
        <ele>117</ele>
        <time>2023-08-06T09:28:44Z</time>
      </trkpt>
      <trkpt lat="44.87886" lon="0.57587">
        <ele>117.6</ele>
        <time>2023-08-06T09:28:46Z</time>
      </trkpt>
      <trkpt lat="44.87885" lon="0.57585">
        <ele>117.8</ele>
        <time>2023-08-06T09:28:47Z</time>
      </trkpt>
      <trkpt lat="44.87885" lon="0.57584">
        <ele>117.9</ele>
        <time>2023-08-06T09:28:48Z</time>
      </trkpt>
      <trkpt lat="44.87886" lon="0.57579">
        <ele>118.3</ele>
        <time>2023-08-06T09:28:50Z</time>
      </trkpt>
      <trkpt lat="44.87885" lon="0.57576">
        <ele>118.5</ele>
        <time>2023-08-06T09:28:52Z</time>
      </trkpt>
      <trkpt lat="44.87884" lon="0.57574">
        <ele>118.7</ele>
        <time>2023-08-06T09:28:53Z</time>
      </trkpt>
      <trkpt lat="44.87883" lon="0.57571">
        <ele>119</ele>
        <time>2023-08-06T09:28:54Z</time>
      </trkpt>
      <trkpt lat="44.8788" lon="0.57567">
        <ele>119.5</ele>
        <time>2023-08-06T09:28:56Z</time>
      </trkpt>
      <trkpt lat="44.87877" lon="0.57562">
        <ele>120.1</ele>
        <time>2023-08-06T09:28:58Z</time>
      </trkpt>
      <trkpt lat="44.87876" lon="0.57558">
        <ele>120.4</ele>
        <time>2023-08-06T09:29:00Z</time>
      </trkpt>
      <trkpt lat="44.87876" lon="0.57554">
        <ele>120.7</ele>
        <time>2023-08-06T09:29:02Z</time>
      </trkpt>
      <trkpt lat="44.87876" lon="0.57552">
        <ele>120.9</ele>
        <time>2023-08-06T09:29:03Z</time>
      </trkpt>
      <trkpt lat="44.87875" lon="0.5755">
        <ele>121.1</ele>
        <time>2023-08-06T09:29:04Z</time>
      </trkpt>
      <trkpt lat="44.87875" lon="0.57548">
        <ele>121.3</ele>
        <time>2023-08-06T09:29:05Z</time>
      </trkpt>
      <trkpt lat="44.87875" lon="0.57526">
        <ele>123.2</ele>
        <time>2023-08-06T09:29:18Z</time>
      </trkpt>
      <trkpt lat="44.87875" lon="0.57524">
        <ele>123.3</ele>
        <time>2023-08-06T09:29:19Z</time>
      </trkpt>
      <trkpt lat="44.87875" lon="0.57522">
        <ele>123.5</ele>
        <time>2023-08-06T09:29:20Z</time>
      </trkpt>
      <trkpt lat="44.87876" lon="0.57519">
        <ele>123.8</ele>
        <time>2023-08-06T09:29:22Z</time>
      </trkpt>
      <trkpt lat="44.87876" lon="0.57517">
        <ele>123.9</ele>
        <time>2023-08-06T09:29:23Z</time>
      </trkpt>
      <trkpt lat="44.87877" lon="0.57515">
        <ele>124.1</ele>
        <time>2023-08-06T09:29:24Z</time>
      </trkpt>
      <trkpt lat="44.87878" lon="0.57513">
        <ele>124.2</ele>
        <time>2023-08-06T09:29:25Z</time>
      </trkpt>
      <trkpt lat="44.87879" lon="0.57511">
        <ele>124.4</ele>
        <time>2023-08-06T09:29:26Z</time>
      </trkpt>
      <trkpt lat="44.8788" lon="0.57509">
        <ele>124.5</ele>
        <time>2023-08-06T09:29:27Z</time>
      </trkpt>
      <trkpt lat="44.8788" lon="0.57507">
        <ele>124.7</ele>
        <time>2023-08-06T09:29:28Z</time>
      </trkpt>
      <trkpt lat="44.87882" lon="0.57503">
        <ele>125</ele>
        <time>2023-08-06T09:29:30Z</time>
      </trkpt>
      <trkpt lat="44.87883" lon="0.57502">
        <ele>125.2</ele>
        <time>2023-08-06T09:29:31Z</time>
      </trkpt>
      <trkpt lat="44.87885" lon="0.575">
        <ele>125.4</ele>
        <time>2023-08-06T09:29:32Z</time>
      </trkpt>
      <trkpt lat="44.87887" lon="0.57499">
        <ele>125.6</ele>
        <time>2023-08-06T09:29:33Z</time>
      </trkpt>
      <trkpt lat="44.87889" lon="0.575">
        <ele>125.8</ele>
        <time>2023-08-06T09:29:34Z</time>
      </trkpt>
      <trkpt lat="44.8789" lon="0.57498">
        <ele>125.9</ele>
        <time>2023-08-06T09:29:35Z</time>
      </trkpt>
      <trkpt lat="44.87889" lon="0.57494">
        <ele>126.2</ele>
        <time>2023-08-06T09:29:36Z</time>
      </trkpt>
      <trkpt lat="44.87889" lon="0.57492">
        <ele>126.4</ele>
        <time>2023-08-06T09:29:37Z</time>
      </trkpt>
      <trkpt lat="44.87889" lon="0.5749">
        <ele>126.5</ele>
        <time>2023-08-06T09:29:38Z</time>
      </trkpt>
      <trkpt lat="44.8789" lon="0.57488">
        <ele>126.7</ele>
        <time>2023-08-06T09:29:39Z</time>
      </trkpt>
      <trkpt lat="44.87891" lon="0.57486">
        <ele>126.8</ele>
        <time>2023-08-06T09:29:40Z</time>
      </trkpt>
      <trkpt lat="44.87892" lon="0.57484">
        <ele>127</ele>
        <time>2023-08-06T09:29:41Z</time>
      </trkpt>
      <trkpt lat="44.87894" lon="0.57482">
        <ele>127.2</ele>
        <time>2023-08-06T09:29:42Z</time>
      </trkpt>
      <trkpt lat="44.87895" lon="0.57478">
        <ele>127.5</ele>
        <time>2023-08-06T09:29:44Z</time>
      </trkpt>
      <trkpt lat="44.87895" lon="0.57474">
        <ele>127.8</ele>
        <time>2023-08-06T09:29:46Z</time>
      </trkpt>
      <trkpt lat="44.87894" lon="0.57469">
        <ele>128</ele>
        <time>2023-08-06T09:29:48Z</time>
      </trkpt>
      <trkpt lat="44.87896" lon="0.57465">
        <ele>128.3</ele>
        <time>2023-08-06T09:29:50Z</time>
      </trkpt>
      <trkpt lat="44.87897" lon="0.57463">
        <ele>128.5</ele>
        <time>2023-08-06T09:29:52Z</time>
      </trkpt>
      <trkpt lat="44.87898" lon="0.57462">
        <ele>128.6</ele>
        <time>2023-08-06T09:29:53Z</time>
      </trkpt>
      <trkpt lat="44.87899" lon="0.5746">
        <ele>128.6</ele>
        <time>2023-08-06T09:29:54Z</time>
      </trkpt>
      <trkpt lat="44.87898" lon="0.57455">
        <ele>128.9</ele>
        <time>2023-08-06T09:29:56Z</time>
      </trkpt>
      <trkpt lat="44.87897" lon="0.57449">
        <ele>129.2</ele>
        <time>2023-08-06T09:29:58Z</time>
      </trkpt>
      <trkpt lat="44.87897" lon="0.57445">
        <ele>129.3</ele>
        <time>2023-08-06T09:30:00Z</time>
      </trkpt>
      <trkpt lat="44.87898" lon="0.57443">
        <ele>129.4</ele>
        <time>2023-08-06T09:30:01Z</time>
      </trkpt>
      <trkpt lat="44.87899" lon="0.57441">
        <ele>129.5</ele>
        <time>2023-08-06T09:30:02Z</time>
      </trkpt>
      <trkpt lat="44.879" lon="0.57437">
        <ele>129.6</ele>
        <time>2023-08-06T09:30:04Z</time>
      </trkpt>
      <trkpt lat="44.879" lon="0.57434">
        <ele>129.7</ele>
        <time>2023-08-06T09:30:05Z</time>
      </trkpt>
      <trkpt lat="44.87901" lon="0.57432">
        <ele>129.8</ele>
        <time>2023-08-06T09:30:06Z</time>
      </trkpt>
      <trkpt lat="44.87903" lon="0.57428">
        <ele>129.9</ele>
        <time>2023-08-06T09:30:08Z</time>
      </trkpt>
      <trkpt lat="44.87903" lon="0.57421">
        <ele>130.1</ele>
        <time>2023-08-06T09:30:10Z</time>
      </trkpt>
      <trkpt lat="44.87901" lon="0.57414">
        <ele>130.2</ele>
        <time>2023-08-06T09:30:12Z</time>
      </trkpt>
      <trkpt lat="44.879" lon="0.57408">
        <ele>130.4</ele>
        <time>2023-08-06T09:30:13Z</time>
      </trkpt>
      <trkpt lat="44.879" lon="0.57406">
        <ele>130.4</ele>
        <time>2023-08-06T09:30:14Z</time>
      </trkpt>
      <trkpt lat="44.87904" lon="0.57402">
        <ele>130.4</ele>
        <time>2023-08-06T09:30:16Z</time>
      </trkpt>
      <trkpt lat="44.87908" lon="0.57395">
        <ele>130.5</ele>
        <time>2023-08-06T09:30:18Z</time>
      </trkpt>
      <trkpt lat="44.87909" lon="0.57391">
        <ele>130.5</ele>
        <time>2023-08-06T09:30:19Z</time>
      </trkpt>
      <trkpt lat="44.8791" lon="0.57387">
        <ele>130.6</ele>
        <time>2023-08-06T09:30:20Z</time>
      </trkpt>
      <trkpt lat="44.87909" lon="0.57382">
        <ele>130.6</ele>
        <time>2023-08-06T09:30:21Z</time>
      </trkpt>
      <trkpt lat="44.87907" lon="0.57378">
        <ele>130.6</ele>
        <time>2023-08-06T09:30:22Z</time>
      </trkpt>
      <trkpt lat="44.87906" lon="0.57376">
        <ele>130.6</ele>
        <time>2023-08-06T09:30:23Z</time>
      </trkpt>
      <trkpt lat="44.87905" lon="0.57373">
        <ele>130.6</ele>
        <time>2023-08-06T09:30:24Z</time>
      </trkpt>
      <trkpt lat="44.87901" lon="0.57367">
        <ele>130.6</ele>
        <time>2023-08-06T09:30:26Z</time>
      </trkpt>
      <trkpt lat="44.87898" lon="0.5736">
        <ele>130.7</ele>
        <time>2023-08-06T09:30:28Z</time>
      </trkpt>
      <trkpt lat="44.87894" lon="0.57351">
        <ele>130.7</ele>
        <time>2023-08-06T09:30:30Z</time>
      </trkpt>
      <trkpt lat="44.87893" lon="0.57343">
        <ele>130.6</ele>
        <time>2023-08-06T09:30:32Z</time>
      </trkpt>
      <trkpt lat="44.87893" lon="0.57337">
        <ele>130.5</ele>
        <time>2023-08-06T09:30:34Z</time>
      </trkpt>
      <trkpt lat="44.87892" lon="0.57331">
        <ele>130.4</ele>
        <time>2023-08-06T09:30:36Z</time>
      </trkpt>
      <trkpt lat="44.87892" lon="0.57327">
        <ele>130.3</ele>
        <time>2023-08-06T09:30:37Z</time>
      </trkpt>
      <trkpt lat="44.87891" lon="0.57321">
        <ele>130.2</ele>
        <time>2023-08-06T09:30:38Z</time>
      </trkpt>
      <trkpt lat="44.8789" lon="0.57315">
        <ele>129.9</ele>
        <time>2023-08-06T09:30:39Z</time>
      </trkpt>
      <trkpt lat="44.87887" lon="0.57307">
        <ele>129.6</ele>
        <time>2023-08-06T09:30:40Z</time>
      </trkpt>
      <trkpt lat="44.87883" lon="0.57301">
        <ele>129.3</ele>
        <time>2023-08-06T09:30:41Z</time>
      </trkpt>
      <trkpt lat="44.87879" lon="0.57295">
        <ele>129</ele>
        <time>2023-08-06T09:30:42Z</time>
      </trkpt>
      <trkpt lat="44.87877" lon="0.57284">
        <ele>128.7</ele>
        <time>2023-08-06T09:30:44Z</time>
      </trkpt>
      <trkpt lat="44.87876" lon="0.57274">
        <ele>128.3</ele>
        <time>2023-08-06T09:30:46Z</time>
      </trkpt>
      <trkpt lat="44.87873" lon="0.57269">
        <ele>128.1</ele>
        <time>2023-08-06T09:30:47Z</time>
      </trkpt>
      <trkpt lat="44.87869" lon="0.57263">
        <ele>127.9</ele>
        <time>2023-08-06T09:30:48Z</time>
      </trkpt>
      <trkpt lat="44.87859" lon="0.57249">
        <ele>127.4</ele>
        <time>2023-08-06T09:30:50Z</time>
      </trkpt>
      <trkpt lat="44.87855" lon="0.57243">
        <ele>127.2</ele>
        <time>2023-08-06T09:30:51Z</time>
      </trkpt>
      <trkpt lat="44.87851" lon="0.57237">
        <ele>127.1</ele>
        <time>2023-08-06T09:30:52Z</time>
      </trkpt>
      <trkpt lat="44.87843" lon="0.57223">
        <ele>126.8</ele>
        <time>2023-08-06T09:30:54Z</time>
      </trkpt>
      <trkpt lat="44.87836" lon="0.57212">
        <ele>126.6</ele>
        <time>2023-08-06T09:30:56Z</time>
      </trkpt>
      <trkpt lat="44.87832" lon="0.57206">
        <ele>126.5</ele>
        <time>2023-08-06T09:30:57Z</time>
      </trkpt>
      <trkpt lat="44.87827" lon="0.572">
        <ele>126.4</ele>
        <time>2023-08-06T09:30:58Z</time>
      </trkpt>
      <trkpt lat="44.87818" lon="0.57189">
        <ele>126.3</ele>
        <time>2023-08-06T09:31:00Z</time>
      </trkpt>
      <trkpt lat="44.87814" lon="0.57184">
        <ele>126.3</ele>
        <time>2023-08-06T09:31:01Z</time>
      </trkpt>
      <trkpt lat="44.8781" lon="0.57178">
        <ele>126.2</ele>
        <time>2023-08-06T09:31:02Z</time>
      </trkpt>
      <trkpt lat="44.87802" lon="0.57167">
        <ele>126.1</ele>
        <time>2023-08-06T09:31:04Z</time>
      </trkpt>
      <trkpt lat="44.87798" lon="0.57162">
        <ele>126.1</ele>
        <time>2023-08-06T09:31:05Z</time>
      </trkpt>
      <trkpt lat="44.87796" lon="0.57157">
        <ele>126</ele>
        <time>2023-08-06T09:31:06Z</time>
      </trkpt>
      <trkpt lat="44.87794" lon="0.57153">
        <ele>125.8</ele>
        <time>2023-08-06T09:31:08Z</time>
      </trkpt>
      <trkpt lat="44.87796" lon="0.5715">
        <ele>125.8</ele>
        <time>2023-08-06T09:31:09Z</time>
      </trkpt>
      <trkpt lat="44.87798" lon="0.57148">
        <ele>125.6</ele>
        <time>2023-08-06T09:31:10Z</time>
      </trkpt>
      <trkpt lat="44.87801" lon="0.57145">
        <ele>125.4</ele>
        <time>2023-08-06T09:31:11Z</time>
      </trkpt>
      <trkpt lat="44.87805" lon="0.57142">
        <ele>125.2</ele>
        <time>2023-08-06T09:31:12Z</time>
      </trkpt>
      <trkpt lat="44.87812" lon="0.57135">
        <ele>124.7</ele>
        <time>2023-08-06T09:31:14Z</time>
      </trkpt>
      <trkpt lat="44.87817" lon="0.57131">
        <ele>124.3</ele>
        <time>2023-08-06T09:31:15Z</time>
      </trkpt>
      <trkpt lat="44.87821" lon="0.57126">
        <ele>123.9</ele>
        <time>2023-08-06T09:31:16Z</time>
      </trkpt>
      <trkpt lat="44.8783" lon="0.57113">
        <ele>122.9</ele>
        <time>2023-08-06T09:31:18Z</time>
      </trkpt>
      <trkpt lat="44.87839" lon="0.57099">
        <ele>121.7</ele>
        <time>2023-08-06T09:31:20Z</time>
      </trkpt>
      <trkpt lat="44.87851" lon="0.57087">
        <ele>120.3</ele>
        <time>2023-08-06T09:31:22Z</time>
      </trkpt>
      <trkpt lat="44.87857" lon="0.5708">
        <ele>119.7</ele>
        <time>2023-08-06T09:31:23Z</time>
      </trkpt>
      <trkpt lat="44.87863" lon="0.57072">
        <ele>119.1</ele>
        <time>2023-08-06T09:31:24Z</time>
      </trkpt>
      <trkpt lat="44.87875" lon="0.57058">
        <ele>117.9</ele>
        <time>2023-08-06T09:31:26Z</time>
      </trkpt>
      <trkpt lat="44.87879" lon="0.57052">
        <ele>117.6</ele>
        <time>2023-08-06T09:31:27Z</time>
      </trkpt>
      <trkpt lat="44.87881" lon="0.57046">
        <ele>117</ele>
        <time>2023-08-06T09:31:28Z</time>
      </trkpt>
      <trkpt lat="44.87879" lon="0.57034">
        <ele>116.7</ele>
        <time>2023-08-06T09:31:30Z</time>
      </trkpt>
      <trkpt lat="44.87872" lon="0.57022">
        <ele>116.4</ele>
        <time>2023-08-06T09:31:32Z</time>
      </trkpt>
      <trkpt lat="44.87865" lon="0.5701">
        <ele>116.1</ele>
        <time>2023-08-06T09:31:34Z</time>
      </trkpt>
      <trkpt lat="44.87861" lon="0.57004">
        <ele>116.1</ele>
        <time>2023-08-06T09:31:35Z</time>
      </trkpt>
      <trkpt lat="44.87857" lon="0.56998">
        <ele>116.2</ele>
        <time>2023-08-06T09:31:36Z</time>
      </trkpt>
      <trkpt lat="44.87854" lon="0.56993">
        <ele>116.2</ele>
        <time>2023-08-06T09:31:37Z</time>
      </trkpt>
      <trkpt lat="44.87851" lon="0.56987">
        <ele>116.3</ele>
        <time>2023-08-06T09:31:38Z</time>
      </trkpt>
      <trkpt lat="44.87849" lon="0.56981">
        <ele>116.3</ele>
        <time>2023-08-06T09:31:39Z</time>
      </trkpt>
      <trkpt lat="44.87846" lon="0.56975">
        <ele>116.4</ele>
        <time>2023-08-06T09:31:40Z</time>
      </trkpt>
      <trkpt lat="44.8784" lon="0.56963">
        <ele>116.6</ele>
        <time>2023-08-06T09:31:42Z</time>
      </trkpt>
      <trkpt lat="44.87837" lon="0.56957">
        <ele>116.7</ele>
        <time>2023-08-06T09:31:43Z</time>
      </trkpt>
      <trkpt lat="44.87834" lon="0.56951">
        <ele>116.8</ele>
        <time>2023-08-06T09:31:44Z</time>
      </trkpt>
      <trkpt lat="44.87828" lon="0.56939">
        <ele>117</ele>
        <time>2023-08-06T09:31:46Z</time>
      </trkpt>
      <trkpt lat="44.87826" lon="0.56934">
        <ele>117.1</ele>
        <time>2023-08-06T09:31:47Z</time>
      </trkpt>
      <trkpt lat="44.87823" lon="0.5693">
        <ele>117.2</ele>
        <time>2023-08-06T09:31:48Z</time>
      </trkpt>
      <trkpt lat="44.87819" lon="0.5692">
        <ele>117.3</ele>
        <time>2023-08-06T09:31:50Z</time>
      </trkpt>
      <trkpt lat="44.87817" lon="0.56915">
        <ele>117.4</ele>
        <time>2023-08-06T09:31:51Z</time>
      </trkpt>
      <trkpt lat="44.87815" lon="0.56911">
        <ele>117.4</ele>
        <time>2023-08-06T09:31:52Z</time>
      </trkpt>
      <trkpt lat="44.8781" lon="0.56904">
        <ele>117.4</ele>
        <time>2023-08-06T09:31:54Z</time>
      </trkpt>
      <trkpt lat="44.87805" lon="0.56896">
        <ele>117.4</ele>
        <time>2023-08-06T09:31:56Z</time>
      </trkpt>
      <trkpt lat="44.87799" lon="0.56887">
        <ele>117.1</ele>
        <time>2023-08-06T09:31:58Z</time>
      </trkpt>
      <trkpt lat="44.87792" lon="0.56879">
        <ele>116.8</ele>
        <time>2023-08-06T09:32:00Z</time>
      </trkpt>
      <trkpt lat="44.87789" lon="0.56876">
        <ele>116.7</ele>
        <time>2023-08-06T09:32:01Z</time>
      </trkpt>
      <trkpt lat="44.87785" lon="0.56872">
        <ele>116.5</ele>
        <time>2023-08-06T09:32:02Z</time>
      </trkpt>
      <trkpt lat="44.87781" lon="0.56869">
        <ele>116.3</ele>
        <time>2023-08-06T09:32:03Z</time>
      </trkpt>
      <trkpt lat="44.87777" lon="0.56866">
        <ele>116.2</ele>
        <time>2023-08-06T09:32:04Z</time>
      </trkpt>
      <trkpt lat="44.87768" lon="0.56859">
        <ele>115.8</ele>
        <time>2023-08-06T09:32:06Z</time>
      </trkpt>
      <trkpt lat="44.87758" lon="0.56853">
        <ele>115.5</ele>
        <time>2023-08-06T09:32:08Z</time>
      </trkpt>
      <trkpt lat="44.87749" lon="0.56846">
        <ele>115.2</ele>
        <time>2023-08-06T09:32:10Z</time>
      </trkpt>
      <trkpt lat="44.87744" lon="0.56843">
        <ele>115.1</ele>
        <time>2023-08-06T09:32:11Z</time>
      </trkpt>
      <trkpt lat="44.87739" lon="0.56839">
        <ele>114.9</ele>
        <time>2023-08-06T09:32:12Z</time>
      </trkpt>
      <trkpt lat="44.87729" lon="0.56832">
        <ele>114.7</ele>
        <time>2023-08-06T09:32:14Z</time>
      </trkpt>
      <trkpt lat="44.87719" lon="0.56826">
        <ele>114.6</ele>
        <time>2023-08-06T09:32:16Z</time>
      </trkpt>
      <trkpt lat="44.87714" lon="0.56823">
        <ele>114.5</ele>
        <time>2023-08-06T09:32:17Z</time>
      </trkpt>
      <trkpt lat="44.8771" lon="0.56821">
        <ele>114.4</ele>
        <time>2023-08-06T09:32:18Z</time>
      </trkpt>
      <trkpt lat="44.877" lon="0.56814">
        <ele>114.3</ele>
        <time>2023-08-06T09:32:20Z</time>
      </trkpt>
      <trkpt lat="44.87691" lon="0.56809">
        <ele>114.2</ele>
        <time>2023-08-06T09:32:22Z</time>
      </trkpt>
      <trkpt lat="44.87687" lon="0.56806">
        <ele>114.2</ele>
        <time>2023-08-06T09:32:23Z</time>
      </trkpt>
      <trkpt lat="44.87683" lon="0.56804">
        <ele>114.2</ele>
        <time>2023-08-06T09:32:24Z</time>
      </trkpt>
      <trkpt lat="44.87675" lon="0.56798">
        <ele>114.1</ele>
        <time>2023-08-06T09:32:26Z</time>
      </trkpt>
      <trkpt lat="44.87672" lon="0.56796">
        <ele>114.1</ele>
        <time>2023-08-06T09:32:27Z</time>
      </trkpt>
      <trkpt lat="44.87667" lon="0.56792">
        <ele>114.1</ele>
        <time>2023-08-06T09:32:28Z</time>
      </trkpt>
      <trkpt lat="44.87664" lon="0.56789">
        <ele>114</ele>
        <time>2023-08-06T09:32:29Z</time>
      </trkpt>
      <trkpt lat="44.8766" lon="0.56787">
        <ele>114</ele>
        <time>2023-08-06T09:32:30Z</time>
      </trkpt>
      <trkpt lat="44.87654" lon="0.56781">
        <ele>114</ele>
        <time>2023-08-06T09:32:32Z</time>
      </trkpt>
      <trkpt lat="44.87651" lon="0.56779">
        <ele>114</ele>
        <time>2023-08-06T09:32:33Z</time>
      </trkpt>
      <trkpt lat="44.87649" lon="0.56777">
        <ele>114</ele>
        <time>2023-08-06T09:32:34Z</time>
      </trkpt>
      <trkpt lat="44.87646" lon="0.56775">
        <ele>114</ele>
        <time>2023-08-06T09:32:35Z</time>
      </trkpt>
      <trkpt lat="44.87644" lon="0.56774">
        <ele>114</ele>
        <time>2023-08-06T09:32:36Z</time>
      </trkpt>
      <trkpt lat="44.87639" lon="0.56771">
        <ele>114</ele>
        <time>2023-08-06T09:32:38Z</time>
      </trkpt>
      <trkpt lat="44.87634" lon="0.56766">
        <ele>113.9</ele>
        <time>2023-08-06T09:32:40Z</time>
      </trkpt>
      <trkpt lat="44.8763" lon="0.56762">
        <ele>113.8</ele>
        <time>2023-08-06T09:32:41Z</time>
      </trkpt>
      <trkpt lat="44.87627" lon="0.56758">
        <ele>113.8</ele>
        <time>2023-08-06T09:32:42Z</time>
      </trkpt>
      <trkpt lat="44.87619" lon="0.5675">
        <ele>113.7</ele>
        <time>2023-08-06T09:32:44Z</time>
      </trkpt>
      <trkpt lat="44.8761" lon="0.56743">
        <ele>113.6</ele>
        <time>2023-08-06T09:32:46Z</time>
      </trkpt>
      <trkpt lat="44.87606" lon="0.5674">
        <ele>113.5</ele>
        <time>2023-08-06T09:32:47Z</time>
      </trkpt>
      <trkpt lat="44.87602" lon="0.56736">
        <ele>113.5</ele>
        <time>2023-08-06T09:32:48Z</time>
      </trkpt>
      <trkpt lat="44.87592" lon="0.56728">
        <ele>113.4</ele>
        <time>2023-08-06T09:32:50Z</time>
      </trkpt>
      <trkpt lat="44.87584" lon="0.5672">
        <ele>113.3</ele>
        <time>2023-08-06T09:32:52Z</time>
      </trkpt>
      <trkpt lat="44.87579" lon="0.56716">
        <ele>113.2</ele>
        <time>2023-08-06T09:32:53Z</time>
      </trkpt>
      <trkpt lat="44.87575" lon="0.5671">
        <ele>113.2</ele>
        <time>2023-08-06T09:32:54Z</time>
      </trkpt>
      <trkpt lat="44.87568" lon="0.56701">
        <ele>113.1</ele>
        <time>2023-08-06T09:32:56Z</time>
      </trkpt>
      <trkpt lat="44.87562" lon="0.56692">
        <ele>112.9</ele>
        <time>2023-08-06T09:32:58Z</time>
      </trkpt>
      <trkpt lat="44.87559" lon="0.56689">
        <ele>112.9</ele>
        <time>2023-08-06T09:32:59Z</time>
      </trkpt>
      <trkpt lat="44.87555" lon="0.56684">
        <ele>112.8</ele>
        <time>2023-08-06T09:33:00Z</time>
      </trkpt>
      <trkpt lat="44.87551" lon="0.56678">
        <ele>112.7</ele>
        <time>2023-08-06T09:33:01Z</time>
      </trkpt>
      <trkpt lat="44.87547" lon="0.56673">
        <ele>112.6</ele>
        <time>2023-08-06T09:33:02Z</time>
      </trkpt>
      <trkpt lat="44.87538" lon="0.56662">
        <ele>112.4</ele>
        <time>2023-08-06T09:33:04Z</time>
      </trkpt>
      <trkpt lat="44.87529" lon="0.56649">
        <ele>112.1</ele>
        <time>2023-08-06T09:33:06Z</time>
      </trkpt>
      <trkpt lat="44.87525" lon="0.56644">
        <ele>111.9</ele>
        <time>2023-08-06T09:33:07Z</time>
      </trkpt>
      <trkpt lat="44.87521" lon="0.56638">
        <ele>111.7</ele>
        <time>2023-08-06T09:33:08Z</time>
      </trkpt>
      <trkpt lat="44.87515" lon="0.56631">
        <ele>111.4</ele>
        <time>2023-08-06T09:33:09Z</time>
      </trkpt>
      <trkpt lat="44.8751" lon="0.56624">
        <ele>111</ele>
        <time>2023-08-06T09:33:10Z</time>
      </trkpt>
      <trkpt lat="44.87503" lon="0.56617">
        <ele>110.5</ele>
        <time>2023-08-06T09:33:11Z</time>
      </trkpt>
      <trkpt lat="44.87497" lon="0.56609">
        <ele>110.1</ele>
        <time>2023-08-06T09:33:12Z</time>
      </trkpt>
      <trkpt lat="44.87491" lon="0.56602">
        <ele>109.6</ele>
        <time>2023-08-06T09:33:13Z</time>
      </trkpt>
      <trkpt lat="44.87485" lon="0.56597">
        <ele>109.2</ele>
        <time>2023-08-06T09:33:14Z</time>
      </trkpt>
      <trkpt lat="44.87479" lon="0.56592">
        <ele>108.9</ele>
        <time>2023-08-06T09:33:15Z</time>
      </trkpt>
      <trkpt lat="44.87473" lon="0.56588">
        <ele>108.6</ele>
        <time>2023-08-06T09:33:16Z</time>
      </trkpt>
      <trkpt lat="44.87461" lon="0.56579">
        <ele>108.1</ele>
        <time>2023-08-06T09:33:18Z</time>
      </trkpt>
      <trkpt lat="44.87455" lon="0.56575">
        <ele>107.8</ele>
        <time>2023-08-06T09:33:19Z</time>
      </trkpt>
      <trkpt lat="44.87449" lon="0.56571">
        <ele>107.5</ele>
        <time>2023-08-06T09:33:20Z</time>
      </trkpt>
      <trkpt lat="44.87443" lon="0.56567">
        <ele>107.2</ele>
        <time>2023-08-06T09:33:21Z</time>
      </trkpt>
      <trkpt lat="44.87436" lon="0.56563">
        <ele>106.9</ele>
        <time>2023-08-06T09:33:22Z</time>
      </trkpt>
      <trkpt lat="44.87428" lon="0.56557">
        <ele>106.5</ele>
        <time>2023-08-06T09:33:23Z</time>
      </trkpt>
      <trkpt lat="44.8742" lon="0.56552">
        <ele>106.1</ele>
        <time>2023-08-06T09:33:24Z</time>
      </trkpt>
      <trkpt lat="44.87413" lon="0.56548">
        <ele>105.7</ele>
        <time>2023-08-06T09:33:25Z</time>
      </trkpt>
      <trkpt lat="44.87405" lon="0.56544">
        <ele>105.3</ele>
        <time>2023-08-06T09:33:26Z</time>
      </trkpt>
      <trkpt lat="44.87388" lon="0.56537">
        <ele>104.4</ele>
        <time>2023-08-06T09:33:28Z</time>
      </trkpt>
      <trkpt lat="44.8738" lon="0.56533">
        <ele>103.9</ele>
        <time>2023-08-06T09:33:29Z</time>
      </trkpt>
      <trkpt lat="44.87372" lon="0.56526">
        <ele>103.4</ele>
        <time>2023-08-06T09:33:30Z</time>
      </trkpt>
      <trkpt lat="44.87365" lon="0.56519">
        <ele>103.1</ele>
        <time>2023-08-06T09:33:31Z</time>
      </trkpt>
      <trkpt lat="44.87359" lon="0.56512">
        <ele>102.7</ele>
        <time>2023-08-06T09:33:32Z</time>
      </trkpt>
      <trkpt lat="44.87348" lon="0.56496">
        <ele>102.2</ele>
        <time>2023-08-06T09:33:34Z</time>
      </trkpt>
      <trkpt lat="44.87343" lon="0.56488">
        <ele>102</ele>
        <time>2023-08-06T09:33:35Z</time>
      </trkpt>
      <trkpt lat="44.87338" lon="0.5648">
        <ele>101.7</ele>
        <time>2023-08-06T09:33:36Z</time>
      </trkpt>
      <trkpt lat="44.87327" lon="0.56464">
        <ele>101.2</ele>
        <time>2023-08-06T09:33:38Z</time>
      </trkpt>
      <trkpt lat="44.87314" lon="0.56449">
        <ele>100.7</ele>
        <time>2023-08-06T09:33:40Z</time>
      </trkpt>
      <trkpt lat="44.87301" lon="0.56436">
        <ele>100</ele>
        <time>2023-08-06T09:33:42Z</time>
      </trkpt>
      <trkpt lat="44.87287" lon="0.56424">
        <ele>99</ele>
        <time>2023-08-06T09:33:44Z</time>
      </trkpt>
      <trkpt lat="44.87279" lon="0.56418">
        <ele>98.3</ele>
        <time>2023-08-06T09:33:45Z</time>
      </trkpt>
      <trkpt lat="44.87272" lon="0.56411">
        <ele>97.7</ele>
        <time>2023-08-06T09:33:46Z</time>
      </trkpt>
      <trkpt lat="44.87257" lon="0.56397">
        <ele>96.4</ele>
        <time>2023-08-06T09:33:48Z</time>
      </trkpt>
      <trkpt lat="44.8725" lon="0.56389">
        <ele>95.8</ele>
        <time>2023-08-06T09:33:49Z</time>
      </trkpt>
      <trkpt lat="44.87244" lon="0.56381">
        <ele>95.3</ele>
        <time>2023-08-06T09:33:50Z</time>
      </trkpt>
      <trkpt lat="44.87232" lon="0.56364">
        <ele>94.2</ele>
        <time>2023-08-06T09:33:52Z</time>
      </trkpt>
      <trkpt lat="44.87222" lon="0.56347">
        <ele>93.3</ele>
        <time>2023-08-06T09:33:54Z</time>
      </trkpt>
      <trkpt lat="44.87211" lon="0.56328">
        <ele>92.4</ele>
        <time>2023-08-06T09:33:56Z</time>
      </trkpt>
      <trkpt lat="44.87201" lon="0.56309">
        <ele>91.7</ele>
        <time>2023-08-06T09:33:58Z</time>
      </trkpt>
      <trkpt lat="44.87191" lon="0.56289">
        <ele>91</ele>
        <time>2023-08-06T09:34:00Z</time>
      </trkpt>
      <trkpt lat="44.8718" lon="0.56269">
        <ele>90.2</ele>
        <time>2023-08-06T09:34:02Z</time>
      </trkpt>
      <trkpt lat="44.87169" lon="0.56249">
        <ele>89.4</ele>
        <time>2023-08-06T09:34:04Z</time>
      </trkpt>
      <trkpt lat="44.87159" lon="0.5623">
        <ele>88.7</ele>
        <time>2023-08-06T09:34:06Z</time>
      </trkpt>
      <trkpt lat="44.87154" lon="0.56219">
        <ele>88.4</ele>
        <time>2023-08-06T09:34:07Z</time>
      </trkpt>
      <trkpt lat="44.8715" lon="0.56208">
        <ele>88.2</ele>
        <time>2023-08-06T09:34:08Z</time>
      </trkpt>
      <trkpt lat="44.87143" lon="0.56188">
        <ele>87.8</ele>
        <time>2023-08-06T09:34:10Z</time>
      </trkpt>
      <trkpt lat="44.87138" lon="0.56169">
        <ele>87.6</ele>
        <time>2023-08-06T09:34:12Z</time>
      </trkpt>
      <trkpt lat="44.87135" lon="0.56151">
        <ele>87.6</ele>
        <time>2023-08-06T09:34:14Z</time>
      </trkpt>
      <trkpt lat="44.87134" lon="0.56139">
        <ele>87.7</ele>
        <time>2023-08-06T09:34:16Z</time>
      </trkpt>
      <trkpt lat="44.87132" lon="0.5613">
        <ele>87.8</ele>
        <time>2023-08-06T09:34:18Z</time>
      </trkpt>
      <trkpt lat="44.87131" lon="0.56126">
        <ele>87.9</ele>
        <time>2023-08-06T09:34:19Z</time>
      </trkpt>
      <trkpt lat="44.87129" lon="0.56125">
        <ele>88</ele>
        <time>2023-08-06T09:34:20Z</time>
      </trkpt>
      <trkpt lat="44.87124" lon="0.56124">
        <ele>88.2</ele>
        <time>2023-08-06T09:34:22Z</time>
      </trkpt>
      <trkpt lat="44.87122" lon="0.56123">
        <ele>88.2</ele>
        <time>2023-08-06T09:34:23Z</time>
      </trkpt>
      <trkpt lat="44.8712" lon="0.56122">
        <ele>88.4</ele>
        <time>2023-08-06T09:34:24Z</time>
      </trkpt>
      <trkpt lat="44.87116" lon="0.56121">
        <ele>88.5</ele>
        <time>2023-08-06T09:34:26Z</time>
      </trkpt>
      <trkpt lat="44.87115" lon="0.5612">
        <ele>88.6</ele>
        <time>2023-08-06T09:34:27Z</time>
      </trkpt>
      <trkpt lat="44.87113" lon="0.56119">
        <ele>88.7</ele>
        <time>2023-08-06T09:34:28Z</time>
      </trkpt>
      <trkpt lat="44.8711" lon="0.56118">
        <ele>88.9</ele>
        <time>2023-08-06T09:34:30Z</time>
      </trkpt>
      <trkpt lat="44.87107" lon="0.56116">
        <ele>89</ele>
        <time>2023-08-06T09:34:32Z</time>
      </trkpt>
      <trkpt lat="44.87097" lon="0.56117">
        <ele>89.6</ele>
        <time>2023-08-06T09:34:38Z</time>
      </trkpt>
      <trkpt lat="44.87093" lon="0.56116">
        <ele>89.8</ele>
        <time>2023-08-06T09:34:40Z</time>
      </trkpt>
      <trkpt lat="44.87088" lon="0.56114">
        <ele>90</ele>
        <time>2023-08-06T09:34:42Z</time>
      </trkpt>
      <trkpt lat="44.87085" lon="0.56114">
        <ele>90.1</ele>
        <time>2023-08-06T09:34:44Z</time>
      </trkpt>
      <trkpt lat="44.87083" lon="0.56115">
        <ele>90.2</ele>
        <time>2023-08-06T09:34:45Z</time>
      </trkpt>
      <trkpt lat="44.87081" lon="0.56114">
        <ele>90.2</ele>
        <time>2023-08-06T09:34:46Z</time>
      </trkpt>
      <trkpt lat="44.87077" lon="0.56115">
        <ele>90.3</ele>
        <time>2023-08-06T09:34:48Z</time>
      </trkpt>
      <trkpt lat="44.87074" lon="0.56117">
        <ele>90.4</ele>
        <time>2023-08-06T09:34:50Z</time>
      </trkpt>
      <trkpt lat="44.8707" lon="0.56119">
        <ele>90.5</ele>
        <time>2023-08-06T09:34:52Z</time>
      </trkpt>
      <trkpt lat="44.87064" lon="0.5612">
        <ele>90.6</ele>
        <time>2023-08-06T09:34:54Z</time>
      </trkpt>
      <trkpt lat="44.87058" lon="0.56121">
        <ele>90.7</ele>
        <time>2023-08-06T09:34:56Z</time>
      </trkpt>
      <trkpt lat="44.87051" lon="0.56121">
        <ele>90.7</ele>
        <time>2023-08-06T09:34:58Z</time>
      </trkpt>
      <trkpt lat="44.87044" lon="0.5612">
        <ele>90.7</ele>
        <time>2023-08-06T09:35:00Z</time>
      </trkpt>
      <trkpt lat="44.87037" lon="0.56119">
        <ele>90.6</ele>
        <time>2023-08-06T09:35:02Z</time>
      </trkpt>
      <trkpt lat="44.87035" lon="0.56118">
        <ele>90.6</ele>
        <time>2023-08-06T09:35:03Z</time>
      </trkpt>
      <trkpt lat="44.87034" lon="0.56117">
        <ele>90.6</ele>
        <time>2023-08-06T09:35:04Z</time>
      </trkpt>
      <trkpt lat="44.87034" lon="0.56114">
        <ele>90.7</ele>
        <time>2023-08-06T09:35:05Z</time>
      </trkpt>
      <trkpt lat="44.87034" lon="0.56111">
        <ele>90.7</ele>
        <time>2023-08-06T09:35:06Z</time>
      </trkpt>
      <trkpt lat="44.87036" lon="0.56105">
        <ele>90.7</ele>
        <time>2023-08-06T09:35:08Z</time>
      </trkpt>
      <trkpt lat="44.87038" lon="0.56097">
        <ele>90.8</ele>
        <time>2023-08-06T09:35:10Z</time>
      </trkpt>
      <trkpt lat="44.87038" lon="0.56091">
        <ele>90.9</ele>
        <time>2023-08-06T09:35:11Z</time>
      </trkpt>
      <trkpt lat="44.87038" lon="0.56084">
        <ele>90.9</ele>
        <time>2023-08-06T09:35:12Z</time>
      </trkpt>
      <trkpt lat="44.87039" lon="0.56076">
        <ele>91</ele>
        <time>2023-08-06T09:35:14Z</time>
      </trkpt>
      <trkpt lat="44.87038" lon="0.56068">
        <ele>91.1</ele>
        <time>2023-08-06T09:35:16Z</time>
      </trkpt>
      <trkpt lat="44.87039" lon="0.56059">
        <ele>91.2</ele>
        <time>2023-08-06T09:35:18Z</time>
      </trkpt>
      <trkpt lat="44.87041" lon="0.56051">
        <ele>91.2</ele>
        <time>2023-08-06T09:35:20Z</time>
      </trkpt>
      <trkpt lat="44.87045" lon="0.56043">
        <ele>91.4</ele>
        <time>2023-08-06T09:35:22Z</time>
      </trkpt>
      <trkpt lat="44.87046" lon="0.56037">
        <ele>91.4</ele>
        <time>2023-08-06T09:35:23Z</time>
      </trkpt>
      <trkpt lat="44.87048" lon="0.56029">
        <ele>91.6</ele>
        <time>2023-08-06T09:35:24Z</time>
      </trkpt>
      <trkpt lat="44.8705" lon="0.56024">
        <ele>91.6</ele>
        <time>2023-08-06T09:35:25Z</time>
      </trkpt>
      <trkpt lat="44.87052" lon="0.56017">
        <ele>91.7</ele>
        <time>2023-08-06T09:35:26Z</time>
      </trkpt>
      <trkpt lat="44.87055" lon="0.56013">
        <ele>91.8</ele>
        <time>2023-08-06T09:35:27Z</time>
      </trkpt>
      <trkpt lat="44.87057" lon="0.56007">
        <ele>91.8</ele>
        <time>2023-08-06T09:35:28Z</time>
      </trkpt>
      <trkpt lat="44.87058" lon="0.56">
        <ele>91.8</ele>
        <time>2023-08-06T09:35:29Z</time>
      </trkpt>
      <trkpt lat="44.87058" lon="0.55994">
        <ele>91.8</ele>
        <time>2023-08-06T09:35:30Z</time>
      </trkpt>
      <trkpt lat="44.87058" lon="0.55994">
        <ele>91.8</ele>
        <time>2023-08-06T09:35:31Z</time>
      </trkpt>
      <trkpt lat="44.87052" lon="0.55986">
        <ele>91.7</ele>
        <time>2023-08-06T09:35:33Z</time>
      </trkpt>
      <trkpt lat="44.87049" lon="0.55984">
        <ele>91.7</ele>
        <time>2023-08-06T09:35:34Z</time>
      </trkpt>
      <trkpt lat="44.87043" lon="0.55982">
        <ele>91.5</ele>
        <time>2023-08-06T09:35:36Z</time>
      </trkpt>
      <trkpt lat="44.8704" lon="0.5598">
        <ele>91.5</ele>
        <time>2023-08-06T09:35:37Z</time>
      </trkpt>
      <trkpt lat="44.87036" lon="0.55977">
        <ele>91.4</ele>
        <time>2023-08-06T09:35:38Z</time>
      </trkpt>
      <trkpt lat="44.87033" lon="0.55975">
        <ele>91.3</ele>
        <time>2023-08-06T09:35:39Z</time>
      </trkpt>
      <trkpt lat="44.8703" lon="0.55973">
        <ele>91.3</ele>
        <time>2023-08-06T09:35:40Z</time>
      </trkpt>
      <trkpt lat="44.87028" lon="0.5597">
        <ele>91.2</ele>
        <time>2023-08-06T09:35:41Z</time>
      </trkpt>
      <trkpt lat="44.87027" lon="0.55967">
        <ele>91.2</ele>
        <time>2023-08-06T09:35:42Z</time>
      </trkpt>
      <trkpt lat="44.87026" lon="0.55963">
        <ele>91.1</ele>
        <time>2023-08-06T09:35:43Z</time>
      </trkpt>
      <trkpt lat="44.87024" lon="0.5596">
        <ele>91.1</ele>
        <time>2023-08-06T09:35:44Z</time>
      </trkpt>
      <trkpt lat="44.87021" lon="0.55953">
        <ele>91</ele>
        <time>2023-08-06T09:35:46Z</time>
      </trkpt>
      <trkpt lat="44.87019" lon="0.55948">
        <ele>90.9</ele>
        <time>2023-08-06T09:35:48Z</time>
      </trkpt>
      <trkpt lat="44.87018" lon="0.55944">
        <ele>90.9</ele>
        <time>2023-08-06T09:35:49Z</time>
      </trkpt>
      <trkpt lat="44.87017" lon="0.55941">
        <ele>90.8</ele>
        <time>2023-08-06T09:35:50Z</time>
      </trkpt>
      <trkpt lat="44.87015" lon="0.55938">
        <ele>90.8</ele>
        <time>2023-08-06T09:35:51Z</time>
      </trkpt>
      <trkpt lat="44.87013" lon="0.55936">
        <ele>90.6</ele>
        <time>2023-08-06T09:35:52Z</time>
      </trkpt>
      <trkpt lat="44.8701" lon="0.55934">
        <ele>90.5</ele>
        <time>2023-08-06T09:35:53Z</time>
      </trkpt>
      <trkpt lat="44.87009" lon="0.55932">
        <ele>90.5</ele>
        <time>2023-08-06T09:35:54Z</time>
      </trkpt>
      <trkpt lat="44.87004" lon="0.55929">
        <ele>90.2</ele>
        <time>2023-08-06T09:35:55Z</time>
      </trkpt>
      <trkpt lat="44.87001" lon="0.55928">
        <ele>90.1</ele>
        <time>2023-08-06T09:35:57Z</time>
      </trkpt>
      <trkpt lat="44.86998" lon="0.55927">
        <ele>89.8</ele>
        <time>2023-08-06T09:35:58Z</time>
      </trkpt>
      <trkpt lat="44.86996" lon="0.55923">
        <ele>89.8</ele>
        <time>2023-08-06T09:35:59Z</time>
      </trkpt>
      <trkpt lat="44.86997" lon="0.5592">
        <ele>89.7</ele>
        <time>2023-08-06T09:36:00Z</time>
      </trkpt>
      <trkpt lat="44.86998" lon="0.55918">
        <ele>89.6</ele>
        <time>2023-08-06T09:36:01Z</time>
      </trkpt>
      <trkpt lat="44.87" lon="0.55917">
        <ele>89.8</ele>
        <time>2023-08-06T09:36:02Z</time>
      </trkpt>
      <trkpt lat="44.87004" lon="0.55916">
        <ele>89.9</ele>
        <time>2023-08-06T09:36:04Z</time>
      </trkpt>
      <trkpt lat="44.87007" lon="0.55916">
        <ele>90.1</ele>
        <time>2023-08-06T09:36:06Z</time>
      </trkpt>
      <trkpt lat="44.87008" lon="0.55917">
        <ele>90.2</ele>
        <time>2023-08-06T09:36:07Z</time>
      </trkpt>
      <trkpt lat="44.8701" lon="0.55917">
        <ele>90.2</ele>
        <time>2023-08-06T09:36:08Z</time>
      </trkpt>
      <trkpt lat="44.87015" lon="0.55916">
        <ele>90.5</ele>
        <time>2023-08-06T09:36:10Z</time>
      </trkpt>
      <trkpt lat="44.87021" lon="0.55915">
        <ele>90.7</ele>
        <time>2023-08-06T09:36:12Z</time>
      </trkpt>
      <trkpt lat="44.87027" lon="0.55914">
        <ele>90.9</ele>
        <time>2023-08-06T09:36:14Z</time>
      </trkpt>
      <trkpt lat="44.87032" lon="0.55914">
        <ele>91.1</ele>
        <time>2023-08-06T09:36:16Z</time>
      </trkpt>
      <trkpt lat="44.87034" lon="0.55912">
        <ele>91.1</ele>
        <time>2023-08-06T09:36:17Z</time>
      </trkpt>
      <trkpt lat="44.87037" lon="0.5591">
        <ele>91.2</ele>
        <time>2023-08-06T09:36:18Z</time>
      </trkpt>
      <trkpt lat="44.87041" lon="0.55906">
        <ele>91.3</ele>
        <time>2023-08-06T09:36:20Z</time>
      </trkpt>
      <trkpt lat="44.87047" lon="0.55903">
        <ele>91.5</ele>
        <time>2023-08-06T09:36:22Z</time>
      </trkpt>
      <trkpt lat="44.87053" lon="0.55899">
        <ele>91.5</ele>
        <time>2023-08-06T09:36:24Z</time>
      </trkpt>
      <trkpt lat="44.87059" lon="0.55894">
        <ele>91.6</ele>
        <time>2023-08-06T09:36:26Z</time>
      </trkpt>
      <trkpt lat="44.87061" lon="0.55891">
        <ele>91.6</ele>
        <time>2023-08-06T09:36:27Z</time>
      </trkpt>
      <trkpt lat="44.87063" lon="0.55888">
        <ele>91.6</ele>
        <time>2023-08-06T09:36:28Z</time>
      </trkpt>
      <trkpt lat="44.87067" lon="0.55882">
        <ele>91.6</ele>
        <time>2023-08-06T09:36:30Z</time>
      </trkpt>
      <trkpt lat="44.87068" lon="0.55878">
        <ele>91.5</ele>
        <time>2023-08-06T09:36:31Z</time>
      </trkpt>
      <trkpt lat="44.8707" lon="0.55876">
        <ele>91.5</ele>
        <time>2023-08-06T09:36:32Z</time>
      </trkpt>
      <trkpt lat="44.87076" lon="0.55875">
        <ele>91.5</ele>
        <time>2023-08-06T09:36:34Z</time>
      </trkpt>
      <trkpt lat="44.87077" lon="0.55873">
        <ele>91.5</ele>
        <time>2023-08-06T09:36:35Z</time>
      </trkpt>
      <trkpt lat="44.87078" lon="0.55872">
        <ele>91.5</ele>
        <time>2023-08-06T09:36:36Z</time>
      </trkpt>
      <trkpt lat="44.87078" lon="0.55863">
        <ele>91.4</ele>
        <time>2023-08-06T09:36:38Z</time>
      </trkpt>
      <trkpt lat="44.87079" lon="0.55857">
        <ele>91.4</ele>
        <time>2023-08-06T09:36:40Z</time>
      </trkpt>
      <trkpt lat="44.8708" lon="0.5585">
        <ele>91.4</ele>
        <time>2023-08-06T09:36:42Z</time>
      </trkpt>
      <trkpt lat="44.8708" lon="0.55841">
        <ele>91.6</ele>
        <time>2023-08-06T09:36:44Z</time>
      </trkpt>
      <trkpt lat="44.87077" lon="0.55828">
        <ele>91.9</ele>
        <time>2023-08-06T09:36:46Z</time>
      </trkpt>
      <trkpt lat="44.87073" lon="0.55821">
        <ele>92.1</ele>
        <time>2023-08-06T09:36:48Z</time>
      </trkpt>
      <trkpt lat="44.87072" lon="0.55817">
        <ele>92.2</ele>
        <time>2023-08-06T09:36:49Z</time>
      </trkpt>
      <trkpt lat="44.87072" lon="0.55813">
        <ele>92.3</ele>
        <time>2023-08-06T09:36:50Z</time>
      </trkpt>
      <trkpt lat="44.87073" lon="0.55809">
        <ele>92.4</ele>
        <time>2023-08-06T09:36:51Z</time>
      </trkpt>
      <trkpt lat="44.87072" lon="0.55803">
        <ele>92.5</ele>
        <time>2023-08-06T09:36:52Z</time>
      </trkpt>
      <trkpt lat="44.8707" lon="0.55799">
        <ele>92.6</ele>
        <time>2023-08-06T09:36:53Z</time>
      </trkpt>
      <trkpt lat="44.8707" lon="0.55794">
        <ele>92.7</ele>
        <time>2023-08-06T09:36:54Z</time>
      </trkpt>
      <trkpt lat="44.87069" lon="0.5579">
        <ele>92.8</ele>
        <time>2023-08-06T09:36:55Z</time>
      </trkpt>
      <trkpt lat="44.87069" lon="0.55786">
        <ele>92.8</ele>
        <time>2023-08-06T09:36:56Z</time>
      </trkpt>
      <trkpt lat="44.87068" lon="0.55783">
        <ele>92.9</ele>
        <time>2023-08-06T09:36:57Z</time>
      </trkpt>
      <trkpt lat="44.87066" lon="0.55777">
        <ele>93</ele>
        <time>2023-08-06T09:36:58Z</time>
      </trkpt>
      <trkpt lat="44.87063" lon="0.55768">
        <ele>93.2</ele>
        <time>2023-08-06T09:37:00Z</time>
      </trkpt>
      <trkpt lat="44.87061" lon="0.55764">
        <ele>93.3</ele>
        <time>2023-08-06T09:37:01Z</time>
      </trkpt>
      <trkpt lat="44.8706" lon="0.55761">
        <ele>93.3</ele>
        <time>2023-08-06T09:37:02Z</time>
      </trkpt>
      <trkpt lat="44.87057" lon="0.55755">
        <ele>93.4</ele>
        <time>2023-08-06T09:37:04Z</time>
      </trkpt>
      <trkpt lat="44.87055" lon="0.55745">
        <ele>93.5</ele>
        <time>2023-08-06T09:37:06Z</time>
      </trkpt>
      <trkpt lat="44.87054" lon="0.55737">
        <ele>93.6</ele>
        <time>2023-08-06T09:37:08Z</time>
      </trkpt>
      <trkpt lat="44.87051" lon="0.55729">
        <ele>93.6</ele>
        <time>2023-08-06T09:37:10Z</time>
      </trkpt>
      <trkpt lat="44.87046" lon="0.55721">
        <ele>93.6</ele>
        <time>2023-08-06T09:37:12Z</time>
      </trkpt>
      <trkpt lat="44.87043" lon="0.55716">
        <ele>93.6</ele>
        <time>2023-08-06T09:37:13Z</time>
      </trkpt>
      <trkpt lat="44.87041" lon="0.55712">
        <ele>93.5</ele>
        <time>2023-08-06T09:37:14Z</time>
      </trkpt>
      <trkpt lat="44.87037" lon="0.55704">
        <ele>93.5</ele>
        <time>2023-08-06T09:37:16Z</time>
      </trkpt>
      <trkpt lat="44.87032" lon="0.55695">
        <ele>93.5</ele>
        <time>2023-08-06T09:37:18Z</time>
      </trkpt>
      <trkpt lat="44.87026" lon="0.55685">
        <ele>93.4</ele>
        <time>2023-08-06T09:37:20Z</time>
      </trkpt>
      <trkpt lat="44.87021" lon="0.55676">
        <ele>93.3</ele>
        <time>2023-08-06T09:37:22Z</time>
      </trkpt>
      <trkpt lat="44.87015" lon="0.55665">
        <ele>93.3</ele>
        <time>2023-08-06T09:37:24Z</time>
      </trkpt>
      <trkpt lat="44.8701" lon="0.55655">
        <ele>93.3</ele>
        <time>2023-08-06T09:37:26Z</time>
      </trkpt>
      <trkpt lat="44.87005" lon="0.55645">
        <ele>93.3</ele>
        <time>2023-08-06T09:37:28Z</time>
      </trkpt>
      <trkpt lat="44.86999" lon="0.55633">
        <ele>93.3</ele>
        <time>2023-08-06T09:37:30Z</time>
      </trkpt>
      <trkpt lat="44.86994" lon="0.55621">
        <ele>93.2</ele>
        <time>2023-08-06T09:37:32Z</time>
      </trkpt>
      <trkpt lat="44.86992" lon="0.55615">
        <ele>93.2</ele>
        <time>2023-08-06T09:37:33Z</time>
      </trkpt>
      <trkpt lat="44.8699" lon="0.55609">
        <ele>93.2</ele>
        <time>2023-08-06T09:37:34Z</time>
      </trkpt>
      <trkpt lat="44.86986" lon="0.55597">
        <ele>93.2</ele>
        <time>2023-08-06T09:37:36Z</time>
      </trkpt>
      <trkpt lat="44.86982" lon="0.55582">
        <ele>93.2</ele>
        <time>2023-08-06T09:37:38Z</time>
      </trkpt>
      <trkpt lat="44.8698" lon="0.55576">
        <ele>93.2</ele>
        <time>2023-08-06T09:37:39Z</time>
      </trkpt>
      <trkpt lat="44.86979" lon="0.55571">
        <ele>93.3</ele>
        <time>2023-08-06T09:37:40Z</time>
      </trkpt>
      <trkpt lat="44.86976" lon="0.5556">
        <ele>93.3</ele>
        <time>2023-08-06T09:37:42Z</time>
      </trkpt>
      <trkpt lat="44.86972" lon="0.55549">
        <ele>93.3</ele>
        <time>2023-08-06T09:37:44Z</time>
      </trkpt>
      <trkpt lat="44.86967" lon="0.55538">
        <ele>93.4</ele>
        <time>2023-08-06T09:37:46Z</time>
      </trkpt>
      <trkpt lat="44.86963" lon="0.55528">
        <ele>93.5</ele>
        <time>2023-08-06T09:37:48Z</time>
      </trkpt>
      <trkpt lat="44.86958" lon="0.55518">
        <ele>93.6</ele>
        <time>2023-08-06T09:37:50Z</time>
      </trkpt>
      <trkpt lat="44.86952" lon="0.55508">
        <ele>93.7</ele>
        <time>2023-08-06T09:37:52Z</time>
      </trkpt>
      <trkpt lat="44.86947" lon="0.55499">
        <ele>93.8</ele>
        <time>2023-08-06T09:37:54Z</time>
      </trkpt>
      <trkpt lat="44.86942" lon="0.55489">
        <ele>93.9</ele>
        <time>2023-08-06T09:37:56Z</time>
      </trkpt>
      <trkpt lat="44.86937" lon="0.5548">
        <ele>94</ele>
        <time>2023-08-06T09:37:58Z</time>
      </trkpt>
      <trkpt lat="44.86932" lon="0.5547">
        <ele>94</ele>
        <time>2023-08-06T09:38:00Z</time>
      </trkpt>
      <trkpt lat="44.8693" lon="0.55466">
        <ele>94</ele>
        <time>2023-08-06T09:38:01Z</time>
      </trkpt>
      <trkpt lat="44.86927" lon="0.55462">
        <ele>94.1</ele>
        <time>2023-08-06T09:38:02Z</time>
      </trkpt>
      <trkpt lat="44.8692" lon="0.55454">
        <ele>94.1</ele>
        <time>2023-08-06T09:38:04Z</time>
      </trkpt>
      <trkpt lat="44.86913" lon="0.55446">
        <ele>94.1</ele>
        <time>2023-08-06T09:38:06Z</time>
      </trkpt>
      <trkpt lat="44.86905" lon="0.55439">
        <ele>94.1</ele>
        <time>2023-08-06T09:38:08Z</time>
      </trkpt>
      <trkpt lat="44.86897" lon="0.55432">
        <ele>94.1</ele>
        <time>2023-08-06T09:38:10Z</time>
      </trkpt>
      <trkpt lat="44.86889" lon="0.55426">
        <ele>94.1</ele>
        <time>2023-08-06T09:38:12Z</time>
      </trkpt>
      <trkpt lat="44.86887" lon="0.55422">
        <ele>94.1</ele>
        <time>2023-08-06T09:38:13Z</time>
      </trkpt>
      <trkpt lat="44.86887" lon="0.55418">
        <ele>94.2</ele>
        <time>2023-08-06T09:38:14Z</time>
      </trkpt>
      <trkpt lat="44.86887" lon="0.55411">
        <ele>94.8</ele>
        <time>2023-08-06T09:38:16Z</time>
      </trkpt>
      <trkpt lat="44.86889" lon="0.55408">
        <ele>94.9</ele>
        <time>2023-08-06T09:38:17Z</time>
      </trkpt>
      <trkpt lat="44.86891" lon="0.55406">
        <ele>95</ele>
        <time>2023-08-06T09:38:18Z</time>
      </trkpt>
      <trkpt lat="44.86895" lon="0.55403">
        <ele>95.1</ele>
        <time>2023-08-06T09:38:20Z</time>
      </trkpt>
      <trkpt lat="44.86897" lon="0.55402">
        <ele>95.2</ele>
        <time>2023-08-06T09:38:21Z</time>
      </trkpt>
      <trkpt lat="44.86899" lon="0.554">
        <ele>95.2</ele>
        <time>2023-08-06T09:38:22Z</time>
      </trkpt>
      <trkpt lat="44.86904" lon="0.55396">
        <ele>95.3</ele>
        <time>2023-08-06T09:38:24Z</time>
      </trkpt>
      <trkpt lat="44.86908" lon="0.55391">
        <ele>95.5</ele>
        <time>2023-08-06T09:38:26Z</time>
      </trkpt>
      <trkpt lat="44.86912" lon="0.55385">
        <ele>95.6</ele>
        <time>2023-08-06T09:38:28Z</time>
      </trkpt>
      <trkpt lat="44.86916" lon="0.55379">
        <ele>95.6</ele>
        <time>2023-08-06T09:38:30Z</time>
      </trkpt>
      <trkpt lat="44.8692" lon="0.55373">
        <ele>95.6</ele>
        <time>2023-08-06T09:38:32Z</time>
      </trkpt>
      <trkpt lat="44.86925" lon="0.55366">
        <ele>95.5</ele>
        <time>2023-08-06T09:38:34Z</time>
      </trkpt>
      <trkpt lat="44.8693" lon="0.55359">
        <ele>95.5</ele>
        <time>2023-08-06T09:38:36Z</time>
      </trkpt>
      <trkpt lat="44.86935" lon="0.55352">
        <ele>95.4</ele>
        <time>2023-08-06T09:38:38Z</time>
      </trkpt>
      <trkpt lat="44.8694" lon="0.55345">
        <ele>95.3</ele>
        <time>2023-08-06T09:38:40Z</time>
      </trkpt>
      <trkpt lat="44.86946" lon="0.55337">
        <ele>95.4</ele>
        <time>2023-08-06T09:38:42Z</time>
      </trkpt>
      <trkpt lat="44.86952" lon="0.55329">
        <ele>95.6</ele>
        <time>2023-08-06T09:38:44Z</time>
      </trkpt>
      <trkpt lat="44.86959" lon="0.55324">
        <ele>95.8</ele>
        <time>2023-08-06T09:38:46Z</time>
      </trkpt>
      <trkpt lat="44.86964" lon="0.5532">
        <ele>95.9</ele>
        <time>2023-08-06T09:38:48Z</time>
      </trkpt>
      <trkpt lat="44.86964" lon="0.55313">
        <ele>96</ele>
        <time>2023-08-06T09:38:50Z</time>
      </trkpt>
      <trkpt lat="44.86961" lon="0.55313">
        <ele>95.9</ele>
        <time>2023-08-06T09:38:51Z</time>
      </trkpt>
      <trkpt lat="44.86959" lon="0.55314">
        <ele>95.9</ele>
        <time>2023-08-06T09:38:52Z</time>
      </trkpt>
      <trkpt lat="44.86953" lon="0.55317">
        <ele>95.7</ele>
        <time>2023-08-06T09:38:54Z</time>
      </trkpt>
      <trkpt lat="44.8695" lon="0.5532">
        <ele>95.7</ele>
        <time>2023-08-06T09:38:55Z</time>
      </trkpt>
      <trkpt lat="44.86946" lon="0.55323">
        <ele>95.6</ele>
        <time>2023-08-06T09:38:56Z</time>
      </trkpt>
      <trkpt lat="44.86939" lon="0.55329">
        <ele>95.4</ele>
        <time>2023-08-06T09:38:58Z</time>
      </trkpt>
      <trkpt lat="44.8693" lon="0.55329">
        <ele>94.7</ele>
        <time>2023-08-06T09:39:00Z</time>
      </trkpt>
      <trkpt lat="44.86924" lon="0.5532">
        <ele>94.2</ele>
        <time>2023-08-06T09:39:02Z</time>
      </trkpt>
      <trkpt lat="44.86924" lon="0.55314">
        <ele>94</ele>
        <time>2023-08-06T09:39:03Z</time>
      </trkpt>
      <trkpt lat="44.86924" lon="0.55307">
        <ele>93.7</ele>
        <time>2023-08-06T09:39:04Z</time>
      </trkpt>
      <trkpt lat="44.86924" lon="0.55293">
        <ele>93.2</ele>
        <time>2023-08-06T09:39:06Z</time>
      </trkpt>
      <trkpt lat="44.8692" lon="0.55279">
        <ele>92.7</ele>
        <time>2023-08-06T09:39:08Z</time>
      </trkpt>
      <trkpt lat="44.86917" lon="0.55272">
        <ele>92.5</ele>
        <time>2023-08-06T09:39:09Z</time>
      </trkpt>
      <trkpt lat="44.86914" lon="0.55266">
        <ele>92.3</ele>
        <time>2023-08-06T09:39:10Z</time>
      </trkpt>
      <trkpt lat="44.86905" lon="0.55256">
        <ele>92</ele>
        <time>2023-08-06T09:39:12Z</time>
      </trkpt>
      <trkpt lat="44.86901" lon="0.55242">
        <ele>91.8</ele>
        <time>2023-08-06T09:39:14Z</time>
      </trkpt>
      <trkpt lat="44.86901" lon="0.55235">
        <ele>91.8</ele>
        <time>2023-08-06T09:39:15Z</time>
      </trkpt>
      <trkpt lat="44.869" lon="0.55228">
        <ele>91.8</ele>
        <time>2023-08-06T09:39:16Z</time>
      </trkpt>
      <trkpt lat="44.86898" lon="0.55214">
        <ele>91.8</ele>
        <time>2023-08-06T09:39:18Z</time>
      </trkpt>
      <trkpt lat="44.86894" lon="0.55201">
        <ele>91.8</ele>
        <time>2023-08-06T09:39:20Z</time>
      </trkpt>
      <trkpt lat="44.86889" lon="0.55189">
        <ele>91.9</ele>
        <time>2023-08-06T09:39:22Z</time>
      </trkpt>
      <trkpt lat="44.86882" lon="0.55177">
        <ele>92.1</ele>
        <time>2023-08-06T09:39:24Z</time>
      </trkpt>
      <trkpt lat="44.86879" lon="0.55172">
        <ele>92.1</ele>
        <time>2023-08-06T09:39:25Z</time>
      </trkpt>
      <trkpt lat="44.86876" lon="0.55167">
        <ele>92.2</ele>
        <time>2023-08-06T09:39:26Z</time>
      </trkpt>
      <trkpt lat="44.86873" lon="0.55163">
        <ele>92.2</ele>
        <time>2023-08-06T09:39:27Z</time>
      </trkpt>
      <trkpt lat="44.8687" lon="0.55158">
        <ele>92.3</ele>
        <time>2023-08-06T09:39:28Z</time>
      </trkpt>
      <trkpt lat="44.86863" lon="0.55147">
        <ele>92.4</ele>
        <time>2023-08-06T09:39:30Z</time>
      </trkpt>
      <trkpt lat="44.8686" lon="0.55141">
        <ele>92.5</ele>
        <time>2023-08-06T09:39:31Z</time>
      </trkpt>
      <trkpt lat="44.86856" lon="0.55135">
        <ele>92.6</ele>
        <time>2023-08-06T09:39:32Z</time>
      </trkpt>
      <trkpt lat="44.86853" lon="0.5513">
        <ele>92.6</ele>
        <time>2023-08-06T09:39:33Z</time>
      </trkpt>
      <trkpt lat="44.8685" lon="0.55124">
        <ele>92.7</ele>
        <time>2023-08-06T09:39:34Z</time>
      </trkpt>
      <trkpt lat="44.86849" lon="0.55119">
        <ele>92.8</ele>
        <time>2023-08-06T09:39:35Z</time>
      </trkpt>
      <trkpt lat="44.8685" lon="0.55113">
        <ele>92.8</ele>
        <time>2023-08-06T09:39:36Z</time>
      </trkpt>
      <trkpt lat="44.86853" lon="0.55108">
        <ele>92.9</ele>
        <time>2023-08-06T09:39:37Z</time>
      </trkpt>
      <trkpt lat="44.86856" lon="0.55105">
        <ele>93</ele>
        <time>2023-08-06T09:39:38Z</time>
      </trkpt>
      <trkpt lat="44.8686" lon="0.55102">
        <ele>93.1</ele>
        <time>2023-08-06T09:39:39Z</time>
      </trkpt>
      <trkpt lat="44.86863" lon="0.55099">
        <ele>93.1</ele>
        <time>2023-08-06T09:39:40Z</time>
      </trkpt>
      <trkpt lat="44.86869" lon="0.55093">
        <ele>93.3</ele>
        <time>2023-08-06T09:39:42Z</time>
      </trkpt>
      <trkpt lat="44.86875" lon="0.55086">
        <ele>93.5</ele>
        <time>2023-08-06T09:39:44Z</time>
      </trkpt>
      <trkpt lat="44.86881" lon="0.55079">
        <ele>93.8</ele>
        <time>2023-08-06T09:39:46Z</time>
      </trkpt>
      <trkpt lat="44.86888" lon="0.55072">
        <ele>94</ele>
        <time>2023-08-06T09:39:48Z</time>
      </trkpt>
      <trkpt lat="44.86891" lon="0.55068">
        <ele>94.2</ele>
        <time>2023-08-06T09:39:49Z</time>
      </trkpt>
      <trkpt lat="44.86894" lon="0.55065">
        <ele>94.3</ele>
        <time>2023-08-06T09:39:50Z</time>
      </trkpt>
      <trkpt lat="44.86899" lon="0.55058">
        <ele>94.6</ele>
        <time>2023-08-06T09:39:52Z</time>
      </trkpt>
      <trkpt lat="44.86904" lon="0.5505">
        <ele>94.9</ele>
        <time>2023-08-06T09:39:54Z</time>
      </trkpt>
      <trkpt lat="44.86908" lon="0.55042">
        <ele>95.1</ele>
        <time>2023-08-06T09:39:56Z</time>
      </trkpt>
      <trkpt lat="44.86909" lon="0.5504">
        <ele>95.2</ele>
        <time>2023-08-06T09:39:57Z</time>
      </trkpt>
      <trkpt lat="44.86909" lon="0.55039">
        <ele>95.2</ele>
        <time>2023-08-06T09:39:58Z</time>
      </trkpt>
      <trkpt lat="44.86908" lon="0.55036">
        <ele>95.3</ele>
        <time>2023-08-06T09:39:59Z</time>
      </trkpt>
      <trkpt lat="44.86907" lon="0.55032">
        <ele>95.4</ele>
        <time>2023-08-06T09:40:00Z</time>
      </trkpt>
      <trkpt lat="44.86904" lon="0.55024">
        <ele>95.5</ele>
        <time>2023-08-06T09:40:02Z</time>
      </trkpt>
      <trkpt lat="44.86899" lon="0.55014">
        <ele>95.6</ele>
        <time>2023-08-06T09:40:04Z</time>
      </trkpt>
      <trkpt lat="44.86894" lon="0.55003">
        <ele>95.6</ele>
        <time>2023-08-06T09:40:06Z</time>
      </trkpt>
      <trkpt lat="44.86892" lon="0.54997">
        <ele>95.7</ele>
        <time>2023-08-06T09:40:07Z</time>
      </trkpt>
      <trkpt lat="44.8689" lon="0.54991">
        <ele>95.7</ele>
        <time>2023-08-06T09:40:08Z</time>
      </trkpt>
      <trkpt lat="44.86889" lon="0.54985">
        <ele>95.7</ele>
        <time>2023-08-06T09:40:09Z</time>
      </trkpt>
      <trkpt lat="44.86889" lon="0.54979">
        <ele>95.8</ele>
        <time>2023-08-06T09:40:10Z</time>
      </trkpt>
      <trkpt lat="44.86885" lon="0.5497">
        <ele>95.8</ele>
        <time>2023-08-06T09:40:12Z</time>
      </trkpt>
      <trkpt lat="44.86882" lon="0.54969">
        <ele>95.9</ele>
        <time>2023-08-06T09:40:13Z</time>
      </trkpt>
      <trkpt lat="44.86878" lon="0.54968">
        <ele>95.9</ele>
        <time>2023-08-06T09:40:14Z</time>
      </trkpt>
      <trkpt lat="44.86874" lon="0.54965">
        <ele>95.9</ele>
        <time>2023-08-06T09:40:15Z</time>
      </trkpt>
      <trkpt lat="44.86873" lon="0.54963">
        <ele>95.9</ele>
        <time>2023-08-06T09:40:16Z</time>
      </trkpt>
      <trkpt lat="44.8687" lon="0.54959">
        <ele>95.9</ele>
        <time>2023-08-06T09:40:18Z</time>
      </trkpt>
      <trkpt lat="44.86868" lon="0.54956">
        <ele>95.9</ele>
        <time>2023-08-06T09:40:19Z</time>
      </trkpt>
      <trkpt lat="44.86865" lon="0.54952">
        <ele>95.8</ele>
        <time>2023-08-06T09:40:20Z</time>
      </trkpt>
      <trkpt lat="44.86861" lon="0.5495">
        <ele>95.7</ele>
        <time>2023-08-06T09:40:21Z</time>
      </trkpt>
      <trkpt lat="44.86856" lon="0.54946">
        <ele>95.6</ele>
        <time>2023-08-06T09:40:22Z</time>
      </trkpt>
      <trkpt lat="44.86852" lon="0.54944">
        <ele>95.4</ele>
        <time>2023-08-06T09:40:23Z</time>
      </trkpt>
      <trkpt lat="44.86849" lon="0.5494">
        <ele>95.3</ele>
        <time>2023-08-06T09:40:24Z</time>
      </trkpt>
      <trkpt lat="44.86841" lon="0.54932">
        <ele>95</ele>
        <time>2023-08-06T09:40:26Z</time>
      </trkpt>
      <trkpt lat="44.86836" lon="0.54929">
        <ele>94.8</ele>
        <time>2023-08-06T09:40:27Z</time>
      </trkpt>
      <trkpt lat="44.86832" lon="0.54925">
        <ele>94.6</ele>
        <time>2023-08-06T09:40:28Z</time>
      </trkpt>
      <trkpt lat="44.86827" lon="0.54922">
        <ele>94.3</ele>
        <time>2023-08-06T09:40:29Z</time>
      </trkpt>
      <trkpt lat="44.86821" lon="0.5492">
        <ele>94</ele>
        <time>2023-08-06T09:40:30Z</time>
      </trkpt>
      <trkpt lat="44.86809" lon="0.54914">
        <ele>93.4</ele>
        <time>2023-08-06T09:40:32Z</time>
      </trkpt>
      <trkpt lat="44.86803" lon="0.5491">
        <ele>93.1</ele>
        <time>2023-08-06T09:40:33Z</time>
      </trkpt>
      <trkpt lat="44.86797" lon="0.54906">
        <ele>92.9</ele>
        <time>2023-08-06T09:40:34Z</time>
      </trkpt>
      <trkpt lat="44.86785" lon="0.54899">
        <ele>92.4</ele>
        <time>2023-08-06T09:40:36Z</time>
      </trkpt>
      <trkpt lat="44.86774" lon="0.54892">
        <ele>92.2</ele>
        <time>2023-08-06T09:40:38Z</time>
      </trkpt>
      <trkpt lat="44.86762" lon="0.54885">
        <ele>91.9</ele>
        <time>2023-08-06T09:40:40Z</time>
      </trkpt>
      <trkpt lat="44.86756" lon="0.54882">
        <ele>91.8</ele>
        <time>2023-08-06T09:40:41Z</time>
      </trkpt>
      <trkpt lat="44.86749" lon="0.54879">
        <ele>91.7</ele>
        <time>2023-08-06T09:40:42Z</time>
      </trkpt>
      <trkpt lat="44.86743" lon="0.54877">
        <ele>91.6</ele>
        <time>2023-08-06T09:40:43Z</time>
      </trkpt>
      <trkpt lat="44.86737" lon="0.54877">
        <ele>91.5</ele>
        <time>2023-08-06T09:40:44Z</time>
      </trkpt>
      <trkpt lat="44.86731" lon="0.54873">
        <ele>91.3</ele>
        <time>2023-08-06T09:40:45Z</time>
      </trkpt>
      <trkpt lat="44.86727" lon="0.54869">
        <ele>91.2</ele>
        <time>2023-08-06T09:40:46Z</time>
      </trkpt>
      <trkpt lat="44.86722" lon="0.54864">
        <ele>91.1</ele>
        <time>2023-08-06T09:40:47Z</time>
      </trkpt>
      <trkpt lat="44.86716" lon="0.5486">
        <ele>90.9</ele>
        <time>2023-08-06T09:40:48Z</time>
      </trkpt>
      <trkpt lat="44.86706" lon="0.54851">
        <ele>90.5</ele>
        <time>2023-08-06T09:40:50Z</time>
      </trkpt>
      <trkpt lat="44.86699" lon="0.5484">
        <ele>90.1</ele>
        <time>2023-08-06T09:40:52Z</time>
      </trkpt>
      <trkpt lat="44.86695" lon="0.54834">
        <ele>89.9</ele>
        <time>2023-08-06T09:40:53Z</time>
      </trkpt>
      <trkpt lat="44.86693" lon="0.5483">
        <ele>89.8</ele>
        <time>2023-08-06T09:40:54Z</time>
      </trkpt>
      <trkpt lat="44.86692" lon="0.54824">
        <ele>89.7</ele>
        <time>2023-08-06T09:40:55Z</time>
      </trkpt>
      <trkpt lat="44.86692" lon="0.54819">
        <ele>89.6</ele>
        <time>2023-08-06T09:40:56Z</time>
      </trkpt>
      <trkpt lat="44.86688" lon="0.54814">
        <ele>89.5</ele>
        <time>2023-08-06T09:40:57Z</time>
      </trkpt>
      <trkpt lat="44.86685" lon="0.54812">
        <ele>89.4</ele>
        <time>2023-08-06T09:40:58Z</time>
      </trkpt>
      <trkpt lat="44.86673" lon="0.54799">
        <ele>89.1</ele>
        <time>2023-08-06T09:41:00Z</time>
      </trkpt>
      <trkpt lat="44.86664" lon="0.54792">
        <ele>88.9</ele>
        <time>2023-08-06T09:41:02Z</time>
      </trkpt>
      <trkpt lat="44.86656" lon="0.54792">
        <ele>88.4</ele>
        <time>2023-08-06T09:41:04Z</time>
      </trkpt>
      <trkpt lat="44.86653" lon="0.54791">
        <ele>88.2</ele>
        <time>2023-08-06T09:41:05Z</time>
      </trkpt>
      <trkpt lat="44.86649" lon="0.54785">
        <ele>88.5</ele>
        <time>2023-08-06T09:41:06Z</time>
      </trkpt>
      <trkpt lat="44.86644" lon="0.54779">
        <ele>88.4</ele>
        <time>2023-08-06T09:41:07Z</time>
      </trkpt>
      <trkpt lat="44.86639" lon="0.54775">
        <ele>88.4</ele>
        <time>2023-08-06T09:41:08Z</time>
      </trkpt>
      <trkpt lat="44.86637" lon="0.54773">
        <ele>88.4</ele>
        <time>2023-08-06T09:41:09Z</time>
      </trkpt>
      <trkpt lat="44.86633" lon="0.5477">
        <ele>88.3</ele>
        <time>2023-08-06T09:41:10Z</time>
      </trkpt>
      <trkpt lat="44.86627" lon="0.54766">
        <ele>88.4</ele>
        <time>2023-08-06T09:41:11Z</time>
      </trkpt>
      <trkpt lat="44.86622" lon="0.54762">
        <ele>88.3</ele>
        <time>2023-08-06T09:41:12Z</time>
      </trkpt>
      <trkpt lat="44.86618" lon="0.5476">
        <ele>88.3</ele>
        <time>2023-08-06T09:41:13Z</time>
      </trkpt>
      <trkpt lat="44.86617" lon="0.54756">
        <ele>88.4</ele>
        <time>2023-08-06T09:41:14Z</time>
      </trkpt>
      <trkpt lat="44.86614" lon="0.54746">
        <ele>88.4</ele>
        <time>2023-08-06T09:41:16Z</time>
      </trkpt>
      <trkpt lat="44.86613" lon="0.5474">
        <ele>88.5</ele>
        <time>2023-08-06T09:41:17Z</time>
      </trkpt>
      <trkpt lat="44.86611" lon="0.54734">
        <ele>88.5</ele>
        <time>2023-08-06T09:41:18Z</time>
      </trkpt>
      <trkpt lat="44.86608" lon="0.54722">
        <ele>88.4</ele>
        <time>2023-08-06T09:41:20Z</time>
      </trkpt>
      <trkpt lat="44.86606" lon="0.54716">
        <ele>88.4</ele>
        <time>2023-08-06T09:41:21Z</time>
      </trkpt>
      <trkpt lat="44.86605" lon="0.54711">
        <ele>88.3</ele>
        <time>2023-08-06T09:41:22Z</time>
      </trkpt>
      <trkpt lat="44.86605" lon="0.54706">
        <ele>88.3</ele>
        <time>2023-08-06T09:41:23Z</time>
      </trkpt>
      <trkpt lat="44.86604" lon="0.547">
        <ele>88.3</ele>
        <time>2023-08-06T09:41:24Z</time>
      </trkpt>
      <trkpt lat="44.86603" lon="0.54694">
        <ele>88.4</ele>
        <time>2023-08-06T09:41:25Z</time>
      </trkpt>
      <trkpt lat="44.86602" lon="0.54687">
        <ele>88.3</ele>
        <time>2023-08-06T09:41:26Z</time>
      </trkpt>
      <trkpt lat="44.86599" lon="0.5468">
        <ele>88.2</ele>
        <time>2023-08-06T09:41:27Z</time>
      </trkpt>
      <trkpt lat="44.86596" lon="0.54671">
        <ele>88</ele>
        <time>2023-08-06T09:41:28Z</time>
      </trkpt>
      <trkpt lat="44.86592" lon="0.54654">
        <ele>87.9</ele>
        <time>2023-08-06T09:41:30Z</time>
      </trkpt>
      <trkpt lat="44.86587" lon="0.54638">
        <ele>87.5</ele>
        <time>2023-08-06T09:41:32Z</time>
      </trkpt>
      <trkpt lat="44.86585" lon="0.5463">
        <ele>87.5</ele>
        <time>2023-08-06T09:41:33Z</time>
      </trkpt>
      <trkpt lat="44.86583" lon="0.54623">
        <ele>87.3</ele>
        <time>2023-08-06T09:41:34Z</time>
      </trkpt>
      <trkpt lat="44.86578" lon="0.54605">
        <ele>86.9</ele>
        <time>2023-08-06T09:41:36Z</time>
      </trkpt>
      <trkpt lat="44.86575" lon="0.54595">
        <ele>86.7</ele>
        <time>2023-08-06T09:41:37Z</time>
      </trkpt>
      <trkpt lat="44.86571" lon="0.54584">
        <ele>86.6</ele>
        <time>2023-08-06T09:41:38Z</time>
      </trkpt>
      <trkpt lat="44.86569" lon="0.54575">
        <ele>86.5</ele>
        <time>2023-08-06T09:41:39Z</time>
      </trkpt>
      <trkpt lat="44.86567" lon="0.54567">
        <ele>86.5</ele>
        <time>2023-08-06T09:41:40Z</time>
      </trkpt>
      <trkpt lat="44.86566" lon="0.5456">
        <ele>86.4</ele>
        <time>2023-08-06T09:41:41Z</time>
      </trkpt>
      <trkpt lat="44.86564" lon="0.54552">
        <ele>86.4</ele>
        <time>2023-08-06T09:41:42Z</time>
      </trkpt>
      <trkpt lat="44.86561" lon="0.54534">
        <ele>86.4</ele>
        <time>2023-08-06T09:41:44Z</time>
      </trkpt>
      <trkpt lat="44.86558" lon="0.54526">
        <ele>86.2</ele>
        <time>2023-08-06T09:41:45Z</time>
      </trkpt>
      <trkpt lat="44.86555" lon="0.54518">
        <ele>86</ele>
        <time>2023-08-06T09:41:46Z</time>
      </trkpt>
      <trkpt lat="44.86551" lon="0.54503">
        <ele>85.5</ele>
        <time>2023-08-06T09:41:48Z</time>
      </trkpt>
      <trkpt lat="44.8655" lon="0.54495">
        <ele>85.2</ele>
        <time>2023-08-06T09:41:49Z</time>
      </trkpt>
      <trkpt lat="44.8655" lon="0.54488">
        <ele>84.9</ele>
        <time>2023-08-06T09:41:50Z</time>
      </trkpt>
      <trkpt lat="44.86551" lon="0.54482">
        <ele>84.8</ele>
        <time>2023-08-06T09:41:51Z</time>
      </trkpt>
      <trkpt lat="44.86552" lon="0.54478">
        <ele>84.8</ele>
        <time>2023-08-06T09:41:52Z</time>
      </trkpt>
      <trkpt lat="44.86553" lon="0.54477">
        <ele>84.6</ele>
        <time>2023-08-06T09:41:53Z</time>
      </trkpt>
      <trkpt lat="44.86555" lon="0.54471">
        <ele>84.6</ele>
        <time>2023-08-06T09:41:54Z</time>
      </trkpt>
      <trkpt lat="44.86556" lon="0.54468">
        <ele>84.5</ele>
        <time>2023-08-06T09:41:55Z</time>
      </trkpt>
      <trkpt lat="44.86556" lon="0.54463">
        <ele>84.3</ele>
        <time>2023-08-06T09:41:56Z</time>
      </trkpt>
      <trkpt lat="44.86556" lon="0.54454">
        <ele>83.9</ele>
        <time>2023-08-06T09:41:58Z</time>
      </trkpt>
      <trkpt lat="44.86556" lon="0.54447">
        <ele>83.7</ele>
        <time>2023-08-06T09:41:59Z</time>
      </trkpt>
      <trkpt lat="44.86554" lon="0.54441">
        <ele>83.3</ele>
        <time>2023-08-06T09:42:00Z</time>
      </trkpt>
      <trkpt lat="44.86549" lon="0.54424">
        <ele>82.4</ele>
        <time>2023-08-06T09:42:02Z</time>
      </trkpt>
      <trkpt lat="44.86546" lon="0.54415">
        <ele>81.8</ele>
        <time>2023-08-06T09:42:03Z</time>
      </trkpt>
      <trkpt lat="44.86544" lon="0.54407">
        <ele>81.2</ele>
        <time>2023-08-06T09:42:04Z</time>
      </trkpt>
      <trkpt lat="44.86538" lon="0.5439">
        <ele>79.8</ele>
        <time>2023-08-06T09:42:06Z</time>
      </trkpt>
      <trkpt lat="44.8653" lon="0.54373">
        <ele>78.2</ele>
        <time>2023-08-06T09:42:08Z</time>
      </trkpt>
      <trkpt lat="44.86528" lon="0.54365">
        <ele>77.7</ele>
        <time>2023-08-06T09:42:09Z</time>
      </trkpt>
      <trkpt lat="44.86526" lon="0.54357">
        <ele>77</ele>
        <time>2023-08-06T09:42:10Z</time>
      </trkpt>
      <trkpt lat="44.86521" lon="0.54339">
        <ele>75.5</ele>
        <time>2023-08-06T09:42:12Z</time>
      </trkpt>
      <trkpt lat="44.8652" lon="0.5433">
        <ele>75</ele>
        <time>2023-08-06T09:42:13Z</time>
      </trkpt>
      <trkpt lat="44.86519" lon="0.54322">
        <ele>74.5</ele>
        <time>2023-08-06T09:42:14Z</time>
      </trkpt>
      <trkpt lat="44.8652" lon="0.54316">
        <ele>74.3</ele>
        <time>2023-08-06T09:42:15Z</time>
      </trkpt>
      <trkpt lat="44.86522" lon="0.54312">
        <ele>74</ele>
        <time>2023-08-06T09:42:16Z</time>
      </trkpt>
      <trkpt lat="44.86525" lon="0.54307">
        <ele>73.8</ele>
        <time>2023-08-06T09:42:18Z</time>
      </trkpt>
      <trkpt lat="44.86525" lon="0.54303">
        <ele>73.6</ele>
        <time>2023-08-06T09:42:19Z</time>
      </trkpt>
      <trkpt lat="44.86526" lon="0.543">
        <ele>73.4</ele>
        <time>2023-08-06T09:42:20Z</time>
      </trkpt>
      <trkpt lat="44.86527" lon="0.54295">
        <ele>73.2</ele>
        <time>2023-08-06T09:42:21Z</time>
      </trkpt>
      <trkpt lat="44.86531" lon="0.54291">
        <ele>73.1</ele>
        <time>2023-08-06T09:42:22Z</time>
      </trkpt>
      <trkpt lat="44.8654" lon="0.54287">
        <ele>72.9</ele>
        <time>2023-08-06T09:42:23Z</time>
      </trkpt>
      <trkpt lat="44.86548" lon="0.54284">
        <ele>72.8</ele>
        <time>2023-08-06T09:42:24Z</time>
      </trkpt>
      <trkpt lat="44.86555" lon="0.54281">
        <ele>72.8</ele>
        <time>2023-08-06T09:42:25Z</time>
      </trkpt>
      <trkpt lat="44.86561" lon="0.54278">
        <ele>72.7</ele>
        <time>2023-08-06T09:42:26Z</time>
      </trkpt>
      <trkpt lat="44.86572" lon="0.54272">
        <ele>72.8</ele>
        <time>2023-08-06T09:42:28Z</time>
      </trkpt>
      <trkpt lat="44.86579" lon="0.54262">
        <ele>72.9</ele>
        <time>2023-08-06T09:42:30Z</time>
      </trkpt>
      <trkpt lat="44.86579" lon="0.54247">
        <ele>73</ele>
        <time>2023-08-06T09:42:32Z</time>
      </trkpt>
      <trkpt lat="44.86578" lon="0.54232">
        <ele>73.1</ele>
        <time>2023-08-06T09:42:34Z</time>
      </trkpt>
      <trkpt lat="44.86576" lon="0.54218">
        <ele>73.5</ele>
        <time>2023-08-06T09:42:36Z</time>
      </trkpt>
      <trkpt lat="44.86575" lon="0.54211">
        <ele>73.5</ele>
        <time>2023-08-06T09:42:37Z</time>
      </trkpt>
      <trkpt lat="44.86574" lon="0.54205">
        <ele>73.7</ele>
        <time>2023-08-06T09:42:38Z</time>
      </trkpt>
      <trkpt lat="44.86574" lon="0.54194">
        <ele>73.9</ele>
        <time>2023-08-06T09:42:40Z</time>
      </trkpt>
      <trkpt lat="44.86574" lon="0.54191">
        <ele>74</ele>
        <time>2023-08-06T09:42:41Z</time>
      </trkpt>
      <trkpt lat="44.86573" lon="0.54188">
        <ele>74.1</ele>
        <time>2023-08-06T09:42:42Z</time>
      </trkpt>
      <trkpt lat="44.86572" lon="0.54187">
        <ele>74.1</ele>
        <time>2023-08-06T09:42:43Z</time>
      </trkpt>
    </trkseg>
  </trk>
</gpx>